<?xml version='1.0' encoding='UTF-8'?><gpx version="1.1" creator="JPX - https://github.com/jenetics/jpx" xmlns="http://www.topografix.com/GPX/1/1"><trk><trkseg><trkpt lat="43.1408967" lon="11.4819633"><ele>141.0</ele><time>2026-04-20T07:55:58.941Z</time></trkpt><trkpt lat="43.140845" lon="11.4818917"><ele>141.0</ele><time>2026-04-20T07:56:03.941Z</time></trkpt><trkpt lat="43.1407417" lon="11.4819133"><ele>141.0</ele><time>2026-04-20T07:56:05.94Z</time></trkpt><trkpt lat="43.1406017" lon="11.4819967"><ele>141.0</ele><time>2026-04-20T07:56:07.94Z</time></trkpt><trkpt lat="43.1405167" lon="11.4820567"><ele>141.0</ele><time>2026-04-20T07:56:08.94Z</time></trkpt><trkpt lat="43.1404217" lon="11.4821217"><ele>141.4</ele><time>2026-04-20T07:56:09.941Z</time></trkpt><trkpt lat="43.1403183" lon="11.482195"><ele>141.8</ele><time>2026-04-20T07:56:10.941Z</time></trkpt><trkpt lat="43.14022" lon="11.482265"><ele>142.20000000000002</ele><time>2026-04-20T07:56:11.94Z</time></trkpt><trkpt lat="43.1401333" lon="11.48233"><ele>142.6</ele><time>2026-04-20T07:56:12.94Z</time></trkpt><trkpt lat="43.140055" lon="11.4823767"><ele>143.0</ele><time>2026-04-20T07:56:13.94Z</time></trkpt><trkpt lat="43.1399933" lon="11.4824033"><ele>143.0</ele><time>2026-04-20T07:56:14.941Z</time></trkpt><trkpt lat="43.1398967" lon="11.4823633"><ele>143.0</ele><time>2026-04-20T07:56:16.94Z</time></trkpt><trkpt lat="43.139865" lon="11.482285"><ele>143.0</ele><time>2026-04-20T07:56:17.94Z</time></trkpt><trkpt lat="43.1398383" lon="11.4821883"><ele>143.0</ele><time>2026-04-20T07:56:18.94Z</time></trkpt><trkpt lat="43.1398033" lon="11.4820733"><ele>143.0</ele><time>2026-04-20T07:56:19.941Z</time></trkpt><trkpt lat="43.13977" lon="11.4819617"><ele>143.0</ele><time>2026-04-20T07:56:20.941Z</time></trkpt><trkpt lat="43.1397433" lon="11.481845"><ele>143.0</ele><time>2026-04-20T07:56:21.94Z</time></trkpt><trkpt lat="43.13971" lon="11.4817367"><ele>143.0</ele><time>2026-04-20T07:56:22.94Z</time></trkpt><trkpt lat="43.13967" lon="11.48163"><ele>143.0</ele><time>2026-04-20T07:56:23.941Z</time></trkpt><trkpt lat="43.1396283" lon="11.481525"><ele>143.0</ele><time>2026-04-20T07:56:24.94Z</time></trkpt><trkpt lat="43.1395883" lon="11.4814167"><ele>143.0</ele><time>2026-04-20T07:56:25.941Z</time></trkpt><trkpt lat="43.1395533" lon="11.48131"><ele>143.0</ele><time>2026-04-20T07:56:26.94Z</time></trkpt><trkpt lat="43.139515" lon="11.4812033"><ele>143.0</ele><time>2026-04-20T07:56:27.941Z</time></trkpt><trkpt lat="43.1394767" lon="11.4811067"><ele>143.0</ele><time>2026-04-20T07:56:28.94Z</time></trkpt><trkpt lat="43.1394317" lon="11.4810167"><ele>143.0</ele><time>2026-04-20T07:56:29.941Z</time></trkpt><trkpt lat="43.1393683" lon="11.480955"><ele>143.0</ele><time>2026-04-20T07:56:30.94Z</time></trkpt><trkpt lat="43.1392967" lon="11.48093"><ele>143.0</ele><time>2026-04-20T07:56:31.94Z</time></trkpt><trkpt lat="43.1392267" lon="11.4809167"><ele>143.0</ele><time>2026-04-20T07:56:32.94Z</time></trkpt><trkpt lat="43.13915" lon="11.480935"><ele>143.0</ele><time>2026-04-20T07:56:33.941Z</time></trkpt><trkpt lat="43.1390633" lon="11.48096"><ele>143.0</ele><time>2026-04-20T07:56:34.94Z</time></trkpt><trkpt lat="43.1389667" lon="11.4809883"><ele>143.0</ele><time>2026-04-20T07:56:35.94Z</time></trkpt><trkpt lat="43.138875" lon="11.4810133"><ele>143.0</ele><time>2026-04-20T07:56:36.94Z</time></trkpt><trkpt lat="43.1387817" lon="11.4810383"><ele>143.0</ele><time>2026-04-20T07:56:37.941Z</time></trkpt><trkpt lat="43.13869" lon="11.4810567"><ele>143.33333333333331</ele><time>2026-04-20T07:56:38.94Z</time></trkpt><trkpt lat="43.1386" lon="11.481075"><ele>143.66666666666666</ele><time>2026-04-20T07:56:39.94Z</time></trkpt><trkpt lat="43.1385167" lon="11.4810867"><ele>144.0</ele><time>2026-04-20T07:56:40.94Z</time></trkpt><trkpt lat="43.1384517" lon="11.4810967"><ele>144.33333333333334</ele><time>2026-04-20T07:56:41.94Z</time></trkpt><trkpt lat="43.1383633" lon="11.4811217"><ele>144.66666666666669</ele><time>2026-04-20T07:56:43.94Z</time></trkpt><trkpt lat="43.1382867" lon="11.4811517"><ele>145.0</ele><time>2026-04-20T07:57:00.94Z</time></trkpt><trkpt lat="43.1383833" lon="11.4811517"><ele>145.0</ele><time>2026-04-20T07:57:08.939Z</time></trkpt><trkpt lat="43.138485" lon="11.4811283"><ele>145.0</ele><time>2026-04-20T07:57:10.939Z</time></trkpt><trkpt lat="43.1386083" lon="11.4811"><ele>145.0</ele><time>2026-04-20T07:57:12.939Z</time></trkpt><trkpt lat="43.13868" lon="11.481085"><ele>145.0</ele><time>2026-04-20T07:57:13.939Z</time></trkpt><trkpt lat="43.1387667" lon="11.4810717"><ele>145.0</ele><time>2026-04-20T07:57:14.94Z</time></trkpt><trkpt lat="43.13886" lon="11.4810533"><ele>145.0</ele><time>2026-04-20T07:57:15.939Z</time></trkpt><trkpt lat="43.1389433" lon="11.48103"><ele>145.0</ele><time>2026-04-20T07:57:16.939Z</time></trkpt><trkpt lat="43.1390317" lon="11.4810083"><ele>145.0</ele><time>2026-04-20T07:57:17.94Z</time></trkpt><trkpt lat="43.1391133" lon="11.480985"><ele>145.0</ele><time>2026-04-20T07:57:18.94Z</time></trkpt><trkpt lat="43.139185" lon="11.4809683"><ele>145.0</ele><time>2026-04-20T07:57:19.939Z</time></trkpt><trkpt lat="43.139255" lon="11.4809667"><ele>145.0</ele><time>2026-04-20T07:57:20.939Z</time></trkpt><trkpt lat="43.13932" lon="11.480975"><ele>144.66666666666669</ele><time>2026-04-20T07:57:21.939Z</time></trkpt><trkpt lat="43.13939" lon="11.4810117"><ele>144.33333333333334</ele><time>2026-04-20T07:57:22.94Z</time></trkpt><trkpt lat="43.1394483" lon="11.4810817"><ele>144.0</ele><time>2026-04-20T07:57:23.939Z</time></trkpt><trkpt lat="43.13949" lon="11.48118"><ele>143.66666666666666</ele><time>2026-04-20T07:57:24.94Z</time></trkpt><trkpt lat="43.139535" lon="11.4812883"><ele>143.33333333333331</ele><time>2026-04-20T07:57:25.939Z</time></trkpt><trkpt lat="43.1395667" lon="11.481405"><ele>143.0</ele><time>2026-04-20T07:57:26.939Z</time></trkpt><trkpt lat="43.139605" lon="11.4815117"><ele>143.66666666666666</ele><time>2026-04-20T07:57:27.939Z</time></trkpt><trkpt lat="43.1396467" lon="11.4816183"><ele>144.33333333333331</ele><time>2026-04-20T07:57:28.939Z</time></trkpt><trkpt lat="43.1396833" lon="11.481725"><ele>145.0</ele><time>2026-04-20T07:57:29.939Z</time></trkpt><trkpt lat="43.1397217" lon="11.48184"><ele>145.66666666666666</ele><time>2026-04-20T07:57:30.94Z</time></trkpt><trkpt lat="43.1397617" lon="11.4819467"><ele>146.33333333333334</ele><time>2026-04-20T07:57:31.939Z</time></trkpt><trkpt lat="43.1397933" lon="11.482045"><ele>147.0</ele><time>2026-04-20T07:57:32.939Z</time></trkpt><trkpt lat="43.13982" lon="11.4821383"><ele>147.0</ele><time>2026-04-20T07:57:33.939Z</time></trkpt><trkpt lat="43.139855" lon="11.4822933"><ele>147.0</ele><time>2026-04-20T07:57:35.939Z</time></trkpt><trkpt lat="43.13986" lon="11.4824183"><ele>147.0</ele><time>2026-04-20T07:57:37.939Z</time></trkpt><trkpt lat="43.1398067" lon="11.4825333"><ele>147.0</ele><time>2026-04-20T07:57:46.939Z</time></trkpt><trkpt lat="43.1397067" lon="11.4826283"><ele>147.0</ele><time>2026-04-20T07:57:48.939Z</time></trkpt><trkpt lat="43.1396467" lon="11.4826717"><ele>147.0</ele><time>2026-04-20T07:57:49.939Z</time></trkpt><trkpt lat="43.139575" lon="11.4827183"><ele>147.0</ele><time>2026-04-20T07:57:50.939Z</time></trkpt><trkpt lat="43.139495" lon="11.4827717"><ele>147.0</ele><time>2026-04-20T07:57:51.939Z</time></trkpt><trkpt lat="43.1394067" lon="11.48283"><ele>147.0</ele><time>2026-04-20T07:57:52.939Z</time></trkpt><trkpt lat="43.13932" lon="11.4828917"><ele>147.0</ele><time>2026-04-20T07:57:53.939Z</time></trkpt><trkpt lat="43.1392217" lon="11.4829417"><ele>146.79999999999998</ele><time>2026-04-20T07:57:54.939Z</time></trkpt><trkpt lat="43.139125" lon="11.483005"><ele>146.6</ele><time>2026-04-20T07:57:55.94Z</time></trkpt><trkpt lat="43.1390283" lon="11.4830683"><ele>146.39999999999998</ele><time>2026-04-20T07:57:56.939Z</time></trkpt><trkpt lat="43.13892" lon="11.48312"><ele>146.2</ele><time>2026-04-20T07:57:57.939Z</time></trkpt><trkpt lat="43.1388167" lon="11.483165"><ele>146.0</ele><time>2026-04-20T07:57:58.939Z</time></trkpt><trkpt lat="43.1387167" lon="11.4832017"><ele>146.0</ele><time>2026-04-20T07:57:59.939Z</time></trkpt><trkpt lat="43.1386117" lon="11.4832367"><ele>146.0</ele><time>2026-04-20T07:58:00.939Z</time></trkpt><trkpt lat="43.1385083" lon="11.48327"><ele>146.0</ele><time>2026-04-20T07:58:01.939Z</time></trkpt><trkpt lat="43.1384017" lon="11.4832967"><ele>146.0</ele><time>2026-04-20T07:58:02.939Z</time></trkpt><trkpt lat="43.13829" lon="11.483315"><ele>146.0</ele><time>2026-04-20T07:58:03.939Z</time></trkpt><trkpt lat="43.1381817" lon="11.4833367"><ele>146.2</ele><time>2026-04-20T07:58:04.939Z</time></trkpt><trkpt lat="43.1380717" lon="11.4833467"><ele>146.39999999999998</ele><time>2026-04-20T07:58:05.94Z</time></trkpt><trkpt lat="43.1379617" lon="11.4833467"><ele>146.6</ele><time>2026-04-20T07:58:06.939Z</time></trkpt><trkpt lat="43.1378583" lon="11.4833483"><ele>146.79999999999998</ele><time>2026-04-20T07:58:07.939Z</time></trkpt><trkpt lat="43.1377583" lon="11.4833533"><ele>147.0</ele><time>2026-04-20T07:58:08.939Z</time></trkpt><trkpt lat="43.13766" lon="11.4833567"><ele>147.0</ele><time>2026-04-20T07:58:09.939Z</time></trkpt><trkpt lat="43.1375517" lon="11.4833567"><ele>147.0</ele><time>2026-04-20T07:58:10.939Z</time></trkpt><trkpt lat="43.1374517" lon="11.4833617"><ele>147.0</ele><time>2026-04-20T07:58:11.939Z</time></trkpt><trkpt lat="43.1373567" lon="11.4833583"><ele>147.0</ele><time>2026-04-20T07:58:12.94Z</time></trkpt><trkpt lat="43.1372617" lon="11.4833583"><ele>147.0</ele><time>2026-04-20T07:58:13.939Z</time></trkpt><trkpt lat="43.1371783" lon="11.48337"><ele>146.83333333333334</ele><time>2026-04-20T07:58:14.939Z</time></trkpt><trkpt lat="43.1371" lon="11.483365"><ele>146.66666666666666</ele><time>2026-04-20T07:58:15.939Z</time></trkpt><trkpt lat="43.1370183" lon="11.48336"><ele>146.5</ele><time>2026-04-20T07:58:16.939Z</time></trkpt><trkpt lat="43.13694" lon="11.4833633"><ele>146.33333333333331</ele><time>2026-04-20T07:58:17.939Z</time></trkpt><trkpt lat="43.1368733" lon="11.4833533"><ele>146.16666666666666</ele><time>2026-04-20T07:58:18.939Z</time></trkpt><trkpt lat="43.1367917" lon="11.4833133"><ele>146.0</ele><time>2026-04-20T07:58:20.94Z</time></trkpt><trkpt lat="43.13678" lon="11.4831683"><ele>146.0</ele><time>2026-04-20T07:58:22.939Z</time></trkpt><trkpt lat="43.1367833" lon="11.4829833"><ele>146.0</ele><time>2026-04-20T07:58:24.939Z</time></trkpt><trkpt lat="43.13678" lon="11.48288"><ele>146.0</ele><time>2026-04-20T07:58:25.94Z</time></trkpt><trkpt lat="43.1367783" lon="11.4827817"><ele>146.0</ele><time>2026-04-20T07:58:26.94Z</time></trkpt><trkpt lat="43.1367733" lon="11.4826233"><ele>146.0</ele><time>2026-04-20T07:58:28.94Z</time></trkpt><trkpt lat="43.1367733" lon="11.4824667"><ele>146.0</ele><time>2026-04-20T07:58:30.939Z</time></trkpt><trkpt lat="43.1367617" lon="11.48233"><ele>146.0</ele><time>2026-04-20T07:58:32.939Z</time></trkpt><trkpt lat="43.1367533" lon="11.4822033"><ele>146.0</ele><time>2026-04-20T07:58:34.939Z</time></trkpt><trkpt lat="43.13675" lon="11.4820733"><ele>146.0</ele><time>2026-04-20T07:58:36.939Z</time></trkpt><trkpt lat="43.1367367" lon="11.4819733"><ele>146.0</ele><time>2026-04-20T07:58:38.939Z</time></trkpt><trkpt lat="43.1366867" lon="11.4818867"><ele>146.0</ele><time>2026-04-20T07:58:41.939Z</time></trkpt><trkpt lat="43.1366517" lon="11.48175"><ele>146.16666666666666</ele><time>2026-04-20T07:58:43.939Z</time></trkpt><trkpt lat="43.1366367" lon="11.481665"><ele>146.33333333333331</ele><time>2026-04-20T07:58:44.939Z</time></trkpt><trkpt lat="43.1366167" lon="11.4815717"><ele>146.5</ele><time>2026-04-20T07:58:45.94Z</time></trkpt><trkpt lat="43.1365933" lon="11.4814633"><ele>146.66666666666666</ele><time>2026-04-20T07:58:46.939Z</time></trkpt><trkpt lat="43.136565" lon="11.4813483"><ele>146.83333333333334</ele><time>2026-04-20T07:58:47.939Z</time></trkpt><trkpt lat="43.136535" lon="11.4812367"><ele>147.0</ele><time>2026-04-20T07:58:48.94Z</time></trkpt><trkpt lat="43.136505" lon="11.4811233"><ele>146.66666666666666</ele><time>2026-04-20T07:58:49.939Z</time></trkpt><trkpt lat="43.1364783" lon="11.4810167"><ele>146.33333333333334</ele><time>2026-04-20T07:58:50.939Z</time></trkpt><trkpt lat="43.13645" lon="11.4809067"><ele>146.0</ele><time>2026-04-20T07:58:51.939Z</time></trkpt><trkpt lat="43.1364283" lon="11.4808017"><ele>145.66666666666669</ele><time>2026-04-20T07:58:52.939Z</time></trkpt><trkpt lat="43.136405" lon="11.4806933"><ele>145.33333333333334</ele><time>2026-04-20T07:58:53.939Z</time></trkpt><trkpt lat="43.1363783" lon="11.4805767"><ele>145.0</ele><time>2026-04-20T07:58:54.939Z</time></trkpt><trkpt lat="43.1363467" lon="11.48046"><ele>144.8</ele><time>2026-04-20T07:58:55.939Z</time></trkpt><trkpt lat="43.1363183" lon="11.48034"><ele>144.6</ele><time>2026-04-20T07:58:56.939Z</time></trkpt><trkpt lat="43.1362917" lon="11.4802083"><ele>144.4</ele><time>2026-04-20T07:58:57.939Z</time></trkpt><trkpt lat="43.1362683" lon="11.4800717"><ele>144.2</ele><time>2026-04-20T07:58:58.939Z</time></trkpt><trkpt lat="43.1362317" lon="11.4799367"><ele>144.0</ele><time>2026-04-20T07:58:59.939Z</time></trkpt><trkpt lat="43.136195" lon="11.4798067"><ele>144.0</ele><time>2026-04-20T07:59:00.94Z</time></trkpt><trkpt lat="43.13616" lon="11.4796733"><ele>144.0</ele><time>2026-04-20T07:59:01.939Z</time></trkpt><trkpt lat="43.136125" lon="11.4795433"><ele>144.0</ele><time>2026-04-20T07:59:02.94Z</time></trkpt><trkpt lat="43.1360867" lon="11.4794067"><ele>144.0</ele><time>2026-04-20T07:59:03.939Z</time></trkpt><trkpt lat="43.1360533" lon="11.4792633"><ele>144.0</ele><time>2026-04-20T07:59:04.939Z</time></trkpt><trkpt lat="43.1360233" lon="11.4791317"><ele>144.0</ele><time>2026-04-20T07:59:05.939Z</time></trkpt><trkpt lat="43.1359917" lon="11.4790167"><ele>144.0</ele><time>2026-04-20T07:59:06.939Z</time></trkpt><trkpt lat="43.1359633" lon="11.4789033"><ele>144.0</ele><time>2026-04-20T07:59:07.939Z</time></trkpt><trkpt lat="43.1359433" lon="11.4787817"><ele>144.0</ele><time>2026-04-20T07:59:08.939Z</time></trkpt><trkpt lat="43.135915" lon="11.478655"><ele>144.0</ele><time>2026-04-20T07:59:09.94Z</time></trkpt><trkpt lat="43.1358817" lon="11.4785317"><ele>144.25</ele><time>2026-04-20T07:59:10.94Z</time></trkpt><trkpt lat="43.13585" lon="11.4783967"><ele>144.5</ele><time>2026-04-20T07:59:11.939Z</time></trkpt><trkpt lat="43.1358217" lon="11.4782583"><ele>144.75</ele><time>2026-04-20T07:59:12.939Z</time></trkpt><trkpt lat="43.1357883" lon="11.4780983"><ele>145.0</ele><time>2026-04-20T07:59:13.939Z</time></trkpt><trkpt lat="43.1357517" lon="11.4779333"><ele>144.25</ele><time>2026-04-20T07:59:14.94Z</time></trkpt><trkpt lat="43.1357183" lon="11.4777733"><ele>143.5</ele><time>2026-04-20T07:59:15.939Z</time></trkpt><trkpt lat="43.1356833" lon="11.477605"><ele>142.75</ele><time>2026-04-20T07:59:16.939Z</time></trkpt><trkpt lat="43.1356467" lon="11.47743"><ele>142.0</ele><time>2026-04-20T07:59:17.939Z</time></trkpt><trkpt lat="43.1356067" lon="11.477245"><ele>141.33333333333334</ele><time>2026-04-20T07:59:18.939Z</time></trkpt><trkpt lat="43.135565" lon="11.4770467"><ele>140.66666666666666</ele><time>2026-04-20T07:59:19.939Z</time></trkpt><trkpt lat="43.135525" lon="11.4768367"><ele>140.0</ele><time>2026-04-20T07:59:20.939Z</time></trkpt><trkpt lat="43.135475" lon="11.4766183"><ele>140.0</ele><time>2026-04-20T07:59:21.94Z</time></trkpt><trkpt lat="43.135425" lon="11.4764317"><ele>140.0</ele><time>2026-04-20T07:59:22.939Z</time></trkpt><trkpt lat="43.1353817" lon="11.4762567"><ele>140.0</ele><time>2026-04-20T07:59:23.939Z</time></trkpt><trkpt lat="43.1353383" lon="11.4760917"><ele>140.0</ele><time>2026-04-20T07:59:24.939Z</time></trkpt><trkpt lat="43.1352867" lon="11.47593"><ele>139.5</ele><time>2026-04-20T07:59:25.939Z</time></trkpt><trkpt lat="43.1352483" lon="11.475775"><ele>139.0</ele><time>2026-04-20T07:59:26.939Z</time></trkpt><trkpt lat="43.1352083" lon="11.4756283"><ele>138.5</ele><time>2026-04-20T07:59:27.939Z</time></trkpt><trkpt lat="43.13517" lon="11.4754733"><ele>138.0</ele><time>2026-04-20T07:59:28.939Z</time></trkpt><trkpt lat="43.1351367" lon="11.4753"><ele>138.0</ele><time>2026-04-20T07:59:29.939Z</time></trkpt><trkpt lat="43.135095" lon="11.475115"><ele>138.0</ele><time>2026-04-20T07:59:30.939Z</time></trkpt><trkpt lat="43.135055" lon="11.4749167"><ele>138.0</ele><time>2026-04-20T07:59:31.939Z</time></trkpt><trkpt lat="43.1350183" lon="11.474715"><ele>138.0</ele><time>2026-04-20T07:59:32.939Z</time></trkpt><trkpt lat="43.134985" lon="11.474505"><ele>138.0</ele><time>2026-04-20T07:59:33.939Z</time></trkpt><trkpt lat="43.13494" lon="11.47427"><ele>138.0</ele><time>2026-04-20T07:59:34.94Z</time></trkpt><trkpt lat="43.1348933" lon="11.4740333"><ele>138.0</ele><time>2026-04-20T07:59:35.939Z</time></trkpt><trkpt lat="43.1348467" lon="11.4738033"><ele>138.0</ele><time>2026-04-20T07:59:36.939Z</time></trkpt><trkpt lat="43.1348017" lon="11.47358"><ele>138.0</ele><time>2026-04-20T07:59:37.939Z</time></trkpt><trkpt lat="43.1347583" lon="11.473375"><ele>138.0</ele><time>2026-04-20T07:59:38.939Z</time></trkpt><trkpt lat="43.134715" lon="11.4731683"><ele>138.0</ele><time>2026-04-20T07:59:39.94Z</time></trkpt><trkpt lat="43.1346717" lon="11.4729717"><ele>138.0</ele><time>2026-04-20T07:59:40.939Z</time></trkpt><trkpt lat="43.1346433" lon="11.4727783"><ele>138.0</ele><time>2026-04-20T07:59:41.939Z</time></trkpt><trkpt lat="43.13461" lon="11.472595"><ele>138.0</ele><time>2026-04-20T07:59:42.939Z</time></trkpt><trkpt lat="43.134575" lon="11.4724183"><ele>138.0</ele><time>2026-04-20T07:59:43.939Z</time></trkpt><trkpt lat="43.1345383" lon="11.4722417"><ele>138.0</ele><time>2026-04-20T07:59:44.939Z</time></trkpt><trkpt lat="43.134505" lon="11.4720733"><ele>138.0</ele><time>2026-04-20T07:59:45.939Z</time></trkpt><trkpt lat="43.1344783" lon="11.4719117"><ele>138.0</ele><time>2026-04-20T07:59:46.939Z</time></trkpt><trkpt lat="43.134445" lon="11.4717667"><ele>138.0</ele><time>2026-04-20T07:59:47.939Z</time></trkpt><trkpt lat="43.1344183" lon="11.471625"><ele>138.0</ele><time>2026-04-20T07:59:48.939Z</time></trkpt><trkpt lat="43.1343983" lon="11.4715117"><ele>138.0</ele><time>2026-04-20T07:59:49.939Z</time></trkpt><trkpt lat="43.13439" lon="11.4714167"><ele>138.0</ele><time>2026-04-20T07:59:50.94Z</time></trkpt><trkpt lat="43.1344433" lon="11.4712833"><ele>138.0</ele><time>2026-04-20T07:59:52.939Z</time></trkpt><trkpt lat="43.13456" lon="11.4712017"><ele>138.4</ele><time>2026-04-20T07:59:54.939Z</time></trkpt><trkpt lat="43.134645" lon="11.47117"><ele>138.8</ele><time>2026-04-20T07:59:55.939Z</time></trkpt><trkpt lat="43.13474" lon="11.4711267"><ele>139.2</ele><time>2026-04-20T07:59:56.939Z</time></trkpt><trkpt lat="43.13484" lon="11.4710717"><ele>139.6</ele><time>2026-04-20T07:59:57.94Z</time></trkpt><trkpt lat="43.1349467" lon="11.4710233"><ele>140.0</ele><time>2026-04-20T07:59:58.94Z</time></trkpt><trkpt lat="43.1350633" lon="11.4709667"><ele>140.0</ele><time>2026-04-20T07:59:59.939Z</time></trkpt><trkpt lat="43.1351917" lon="11.4708883"><ele>140.0</ele><time>2026-04-20T08:00:00.939Z</time></trkpt><trkpt lat="43.1353217" lon="11.4708217"><ele>140.0</ele><time>2026-04-20T08:00:01.939Z</time></trkpt><trkpt lat="43.1354467" lon="11.4707533"><ele>140.0</ele><time>2026-04-20T08:00:02.939Z</time></trkpt><trkpt lat="43.1355733" lon="11.4706833"><ele>140.0</ele><time>2026-04-20T08:00:03.939Z</time></trkpt><trkpt lat="43.1357067" lon="11.470615"><ele>140.0</ele><time>2026-04-20T08:00:04.94Z</time></trkpt><trkpt lat="43.1358367" lon="11.47055"><ele>140.0</ele><time>2026-04-20T08:00:05.939Z</time></trkpt><trkpt lat="43.135965" lon="11.47048"><ele>140.0</ele><time>2026-04-20T08:00:06.939Z</time></trkpt><trkpt lat="43.1360917" lon="11.4704067"><ele>140.0</ele><time>2026-04-20T08:00:07.939Z</time></trkpt><trkpt lat="43.1362217" lon="11.4703367"><ele>140.0</ele><time>2026-04-20T08:00:08.939Z</time></trkpt><trkpt lat="43.13635" lon="11.4702633"><ele>140.0</ele><time>2026-04-20T08:00:09.94Z</time></trkpt><trkpt lat="43.136475" lon="11.4701883"><ele>140.0</ele><time>2026-04-20T08:00:10.939Z</time></trkpt><trkpt lat="43.1366" lon="11.47012"><ele>140.0</ele><time>2026-04-20T08:00:11.939Z</time></trkpt><trkpt lat="43.1367267" lon="11.4700483"><ele>140.0</ele><time>2026-04-20T08:00:12.939Z</time></trkpt><trkpt lat="43.136845" lon="11.4699833"><ele>140.0</ele><time>2026-04-20T08:00:13.939Z</time></trkpt><trkpt lat="43.1369667" lon="11.4699117"><ele>140.0</ele><time>2026-04-20T08:00:14.939Z</time></trkpt><trkpt lat="43.1370833" lon="11.46985"><ele>140.0</ele><time>2026-04-20T08:00:15.939Z</time></trkpt><trkpt lat="43.1372017" lon="11.4697717"><ele>140.0</ele><time>2026-04-20T08:00:16.939Z</time></trkpt><trkpt lat="43.1373183" lon="11.4696917"><ele>140.0</ele><time>2026-04-20T08:00:17.939Z</time></trkpt><trkpt lat="43.1374317" lon="11.4695983"><ele>140.0</ele><time>2026-04-20T08:00:18.939Z</time></trkpt><trkpt lat="43.1375417" lon="11.4695017"><ele>140.25</ele><time>2026-04-20T08:00:19.939Z</time></trkpt><trkpt lat="43.1376433" lon="11.4694033"><ele>140.5</ele><time>2026-04-20T08:00:20.94Z</time></trkpt><trkpt lat="43.1377417" lon="11.4693117"><ele>140.75</ele><time>2026-04-20T08:00:21.94Z</time></trkpt><trkpt lat="43.1378417" lon="11.469215"><ele>141.0</ele><time>2026-04-20T08:00:22.94Z</time></trkpt><trkpt lat="43.1379467" lon="11.4691083"><ele>141.0</ele><time>2026-04-20T08:00:23.939Z</time></trkpt><trkpt lat="43.13806" lon="11.4689867"><ele>141.0</ele><time>2026-04-20T08:00:24.939Z</time></trkpt><trkpt lat="43.1381883" lon="11.46885"><ele>141.0</ele><time>2026-04-20T08:00:25.939Z</time></trkpt><trkpt lat="43.1383267" lon="11.4687133"><ele>140.66666666666666</ele><time>2026-04-20T08:00:26.939Z</time></trkpt><trkpt lat="43.1384583" lon="11.4685783"><ele>140.33333333333331</ele><time>2026-04-20T08:00:27.94Z</time></trkpt><trkpt lat="43.1385867" lon="11.468445"><ele>140.0</ele><time>2026-04-20T08:00:28.939Z</time></trkpt><trkpt lat="43.1387217" lon="11.4683167"><ele>140.0</ele><time>2026-04-20T08:00:29.939Z</time></trkpt><trkpt lat="43.138855" lon="11.468175"><ele>140.0</ele><time>2026-04-20T08:00:30.94Z</time></trkpt><trkpt lat="43.138985" lon="11.46803"><ele>140.0</ele><time>2026-04-20T08:00:31.939Z</time></trkpt><trkpt lat="43.1391233" lon="11.46789"><ele>140.66666666666666</ele><time>2026-04-20T08:00:32.94Z</time></trkpt><trkpt lat="43.13926" lon="11.4677483"><ele>141.33333333333334</ele><time>2026-04-20T08:00:33.939Z</time></trkpt><trkpt lat="43.1394" lon="11.4676017"><ele>142.0</ele><time>2026-04-20T08:00:34.939Z</time></trkpt><trkpt lat="43.1395367" lon="11.4674517"><ele>142.0</ele><time>2026-04-20T08:00:35.939Z</time></trkpt><trkpt lat="43.139675" lon="11.4672983"><ele>142.0</ele><time>2026-04-20T08:00:36.939Z</time></trkpt><trkpt lat="43.1398083" lon="11.46715"><ele>142.0</ele><time>2026-04-20T08:00:37.939Z</time></trkpt><trkpt lat="43.1399517" lon="11.4670067"><ele>142.66666666666669</ele><time>2026-04-20T08:00:38.939Z</time></trkpt><trkpt lat="43.1400883" lon="11.4668483"><ele>143.33333333333334</ele><time>2026-04-20T08:00:39.939Z</time></trkpt><trkpt lat="43.14023" lon="11.466705"><ele>144.0</ele><time>2026-04-20T08:00:40.939Z</time></trkpt><trkpt lat="43.14036" lon="11.4665767"><ele>144.0</ele><time>2026-04-20T08:00:41.939Z</time></trkpt><trkpt lat="43.1404883" lon="11.4664367"><ele>144.0</ele><time>2026-04-20T08:00:42.939Z</time></trkpt><trkpt lat="43.14062" lon="11.466295"><ele>144.0</ele><time>2026-04-20T08:00:43.939Z</time></trkpt><trkpt lat="43.140755" lon="11.4661533"><ele>143.66666666666666</ele><time>2026-04-20T08:00:44.939Z</time></trkpt><trkpt lat="43.14089" lon="11.4660083"><ele>143.33333333333331</ele><time>2026-04-20T08:00:45.939Z</time></trkpt><trkpt lat="43.1410267" lon="11.4658667"><ele>143.0</ele><time>2026-04-20T08:00:46.939Z</time></trkpt><trkpt lat="43.1411617" lon="11.4657217"><ele>143.0</ele><time>2026-04-20T08:00:47.939Z</time></trkpt><trkpt lat="43.1413" lon="11.4655733"><ele>143.0</ele><time>2026-04-20T08:00:48.94Z</time></trkpt><trkpt lat="43.14144" lon="11.4654367"><ele>143.0</ele><time>2026-04-20T08:00:49.939Z</time></trkpt><trkpt lat="43.1415667" lon="11.4653033"><ele>143.66666666666666</ele><time>2026-04-20T08:00:50.939Z</time></trkpt><trkpt lat="43.1416933" lon="11.4651717"><ele>144.33333333333334</ele><time>2026-04-20T08:00:51.939Z</time></trkpt><trkpt lat="43.1418183" lon="11.4650317"><ele>145.0</ele><time>2026-04-20T08:00:52.939Z</time></trkpt><trkpt lat="43.14195" lon="11.4649017"><ele>145.0</ele><time>2026-04-20T08:00:53.939Z</time></trkpt><trkpt lat="43.1420783" lon="11.4647667"><ele>145.0</ele><time>2026-04-20T08:00:54.939Z</time></trkpt><trkpt lat="43.1422" lon="11.4646383"><ele>145.0</ele><time>2026-04-20T08:00:55.939Z</time></trkpt><trkpt lat="43.1423117" lon="11.4645283"><ele>145.25</ele><time>2026-04-20T08:00:56.94Z</time></trkpt><trkpt lat="43.1424183" lon="11.4644233"><ele>145.5</ele><time>2026-04-20T08:00:57.94Z</time></trkpt><trkpt lat="43.14252" lon="11.4642983"><ele>145.75</ele><time>2026-04-20T08:00:58.939Z</time></trkpt><trkpt lat="43.1426083" lon="11.46417"><ele>146.0</ele><time>2026-04-20T08:00:59.939Z</time></trkpt><trkpt lat="43.1427" lon="11.4640083"><ele>146.0</ele><time>2026-04-20T08:01:00.939Z</time></trkpt><trkpt lat="43.1427933" lon="11.463825"><ele>146.0</ele><time>2026-04-20T08:01:01.939Z</time></trkpt><trkpt lat="43.142885" lon="11.4636233"><ele>146.0</ele><time>2026-04-20T08:01:02.939Z</time></trkpt><trkpt lat="43.14297" lon="11.46341"><ele>146.33333333333331</ele><time>2026-04-20T08:01:03.939Z</time></trkpt><trkpt lat="43.143055" lon="11.463195"><ele>146.66666666666666</ele><time>2026-04-20T08:01:04.939Z</time></trkpt><trkpt lat="43.1431317" lon="11.4629783"><ele>147.0</ele><time>2026-04-20T08:01:05.939Z</time></trkpt><trkpt lat="43.1432117" lon="11.462775"><ele>148.66666666666666</ele><time>2026-04-20T08:01:06.939Z</time></trkpt><trkpt lat="43.1432933" lon="11.4625833"><ele>150.33333333333331</ele><time>2026-04-20T08:01:07.939Z</time></trkpt><trkpt lat="43.14337" lon="11.4623917"><ele>152.0</ele><time>2026-04-20T08:01:08.939Z</time></trkpt><trkpt lat="43.143445" lon="11.46223"><ele>151.5</ele><time>2026-04-20T08:01:09.939Z</time></trkpt><trkpt lat="43.1435267" lon="11.4620883"><ele>151.0</ele><time>2026-04-20T08:01:10.939Z</time></trkpt><trkpt lat="43.1436133" lon="11.4619683"><ele>150.5</ele><time>2026-04-20T08:01:11.939Z</time></trkpt><trkpt lat="43.1437017" lon="11.4618617"><ele>150.0</ele><time>2026-04-20T08:01:12.939Z</time></trkpt><trkpt lat="43.1437983" lon="11.4617633"><ele>150.0</ele><time>2026-04-20T08:01:13.94Z</time></trkpt><trkpt lat="43.1439067" lon="11.461665"><ele>150.0</ele><time>2026-04-20T08:01:14.939Z</time></trkpt><trkpt lat="43.1440283" lon="11.461585"><ele>150.0</ele><time>2026-04-20T08:01:15.94Z</time></trkpt><trkpt lat="43.1441567" lon="11.461515"><ele>150.0</ele><time>2026-04-20T08:01:16.939Z</time></trkpt><trkpt lat="43.14429" lon="11.4614483"><ele>152.0</ele><time>2026-04-20T08:01:17.939Z</time></trkpt><trkpt lat="43.1444367" lon="11.4613867"><ele>154.0</ele><time>2026-04-20T08:01:18.94Z</time></trkpt><trkpt lat="43.1445867" lon="11.4613083"><ele>156.0</ele><time>2026-04-20T08:01:19.94Z</time></trkpt><trkpt lat="43.1447367" lon="11.4612333"><ele>156.25</ele><time>2026-04-20T08:01:20.939Z</time></trkpt><trkpt lat="43.1448733" lon="11.461165"><ele>156.5</ele><time>2026-04-20T08:01:21.939Z</time></trkpt><trkpt lat="43.1450083" lon="11.4611117"><ele>156.75</ele><time>2026-04-20T08:01:22.94Z</time></trkpt><trkpt lat="43.14511" lon="11.4610383"><ele>157.0</ele><time>2026-04-20T08:01:23.94Z</time></trkpt><trkpt lat="43.1451883" lon="11.4609717"><ele>157.83333333333334</ele><time>2026-04-20T08:01:24.939Z</time></trkpt><trkpt lat="43.1452517" lon="11.46091"><ele>158.66666666666669</ele><time>2026-04-20T08:01:25.939Z</time></trkpt><trkpt lat="43.1453183" lon="11.46086"><ele>159.5</ele><time>2026-04-20T08:01:26.939Z</time></trkpt><trkpt lat="43.1453967" lon="11.4608167"><ele>160.33333333333334</ele><time>2026-04-20T08:01:27.939Z</time></trkpt><trkpt lat="43.1454783" lon="11.460795"><ele>161.16666666666666</ele><time>2026-04-20T08:01:28.939Z</time></trkpt><trkpt lat="43.145565" lon="11.4607833"><ele>162.0</ele><time>2026-04-20T08:01:29.939Z</time></trkpt><trkpt lat="43.1456683" lon="11.4607783"><ele>162.25</ele><time>2026-04-20T08:01:30.939Z</time></trkpt><trkpt lat="43.1457767" lon="11.46076"><ele>162.5</ele><time>2026-04-20T08:01:31.939Z</time></trkpt><trkpt lat="43.1459033" lon="11.46073"><ele>162.75</ele><time>2026-04-20T08:01:32.94Z</time></trkpt><trkpt lat="43.1460267" lon="11.4606917"><ele>163.0</ele><time>2026-04-20T08:01:33.939Z</time></trkpt><trkpt lat="43.1461533" lon="11.4606467"><ele>163.0</ele><time>2026-04-20T08:01:34.939Z</time></trkpt><trkpt lat="43.14629" lon="11.46061"><ele>163.0</ele><time>2026-04-20T08:01:35.939Z</time></trkpt><trkpt lat="43.14644" lon="11.460565"><ele>163.0</ele><time>2026-04-20T08:01:36.939Z</time></trkpt><trkpt lat="43.1466033" lon="11.46052"><ele>162.66666666666669</ele><time>2026-04-20T08:01:37.939Z</time></trkpt><trkpt lat="43.1467717" lon="11.46047"><ele>162.33333333333334</ele><time>2026-04-20T08:01:38.94Z</time></trkpt><trkpt lat="43.1469317" lon="11.4604183"><ele>162.0</ele><time>2026-04-20T08:01:39.94Z</time></trkpt><trkpt lat="43.14709" lon="11.4603667"><ele>161.33333333333334</ele><time>2026-04-20T08:01:40.939Z</time></trkpt><trkpt lat="43.147245" lon="11.4603217"><ele>160.66666666666669</ele><time>2026-04-20T08:01:41.939Z</time></trkpt><trkpt lat="43.1474" lon="11.4602833"><ele>160.0</ele><time>2026-04-20T08:01:42.939Z</time></trkpt><trkpt lat="43.1475583" lon="11.46026"><ele>158.5</ele><time>2026-04-20T08:01:43.939Z</time></trkpt><trkpt lat="43.14771" lon="11.4602533"><ele>157.0</ele><time>2026-04-20T08:01:44.939Z</time></trkpt><trkpt lat="43.147855" lon="11.46027"><ele>155.5</ele><time>2026-04-20T08:01:45.939Z</time></trkpt><trkpt lat="43.1479917" lon="11.4603017"><ele>154.0</ele><time>2026-04-20T08:01:46.939Z</time></trkpt><trkpt lat="43.1481217" lon="11.46036"><ele>153.5</ele><time>2026-04-20T08:01:47.939Z</time></trkpt><trkpt lat="43.1482333" lon="11.4604283"><ele>153.0</ele><time>2026-04-20T08:01:48.94Z</time></trkpt><trkpt lat="43.1483317" lon="11.4605133"><ele>152.5</ele><time>2026-04-20T08:01:49.94Z</time></trkpt><trkpt lat="43.1484283" lon="11.4606033"><ele>152.0</ele><time>2026-04-20T08:01:50.939Z</time></trkpt><trkpt lat="43.1484983" lon="11.46073"><ele>152.0</ele><time>2026-04-20T08:01:51.939Z</time></trkpt><trkpt lat="43.1485667" lon="11.46088"><ele>152.0</ele><time>2026-04-20T08:01:52.939Z</time></trkpt><trkpt lat="43.1486283" lon="11.4610467"><ele>152.0</ele><time>2026-04-20T08:01:53.939Z</time></trkpt><trkpt lat="43.1487" lon="11.4612333"><ele>152.0</ele><time>2026-04-20T08:01:54.939Z</time></trkpt><trkpt lat="43.1487767" lon="11.46143"><ele>151.33333333333331</ele><time>2026-04-20T08:01:55.94Z</time></trkpt><trkpt lat="43.14887" lon="11.4616333"><ele>150.66666666666666</ele><time>2026-04-20T08:01:56.939Z</time></trkpt><trkpt lat="43.1489483" lon="11.4618333"><ele>150.0</ele><time>2026-04-20T08:01:57.94Z</time></trkpt><trkpt lat="43.1490267" lon="11.4620233"><ele>148.25</ele><time>2026-04-20T08:01:58.939Z</time></trkpt><trkpt lat="43.1491033" lon="11.4621983"><ele>146.5</ele><time>2026-04-20T08:01:59.939Z</time></trkpt><trkpt lat="43.14918" lon="11.4623733"><ele>144.75</ele><time>2026-04-20T08:02:00.939Z</time></trkpt><trkpt lat="43.1492583" lon="11.4625267"><ele>143.0</ele><time>2026-04-20T08:02:01.939Z</time></trkpt><trkpt lat="43.1493367" lon="11.4626667"><ele>143.0</ele><time>2026-04-20T08:02:02.939Z</time></trkpt><trkpt lat="43.1494133" lon="11.4627983"><ele>143.0</ele><time>2026-04-20T08:02:03.939Z</time></trkpt><trkpt lat="43.1494917" lon="11.462905"><ele>143.0</ele><time>2026-04-20T08:02:04.939Z</time></trkpt><trkpt lat="43.14958" lon="11.4629917"><ele>143.0</ele><time>2026-04-20T08:02:05.939Z</time></trkpt><trkpt lat="43.14967" lon="11.4630633"><ele>143.0</ele><time>2026-04-20T08:02:06.939Z</time></trkpt><trkpt lat="43.1497633" lon="11.46311"><ele>143.20000000000002</ele><time>2026-04-20T08:02:07.939Z</time></trkpt><trkpt lat="43.1498633" lon="11.463135"><ele>143.4</ele><time>2026-04-20T08:02:08.939Z</time></trkpt><trkpt lat="43.1499633" lon="11.46313"><ele>143.60000000000002</ele><time>2026-04-20T08:02:09.939Z</time></trkpt><trkpt lat="43.1500583" lon="11.4631"><ele>143.8</ele><time>2026-04-20T08:02:10.939Z</time></trkpt><trkpt lat="43.150165" lon="11.463045"><ele>144.0</ele><time>2026-04-20T08:02:11.94Z</time></trkpt><trkpt lat="43.15029" lon="11.462975"><ele>144.0</ele><time>2026-04-20T08:02:12.939Z</time></trkpt><trkpt lat="43.1504233" lon="11.4628983"><ele>144.0</ele><time>2026-04-20T08:02:13.939Z</time></trkpt><trkpt lat="43.150565" lon="11.4628217"><ele>144.0</ele><time>2026-04-20T08:02:14.939Z</time></trkpt><trkpt lat="43.1507183" lon="11.46273"><ele>144.0</ele><time>2026-04-20T08:02:15.939Z</time></trkpt><trkpt lat="43.1508717" lon="11.4626483"><ele>144.0</ele><time>2026-04-20T08:02:16.939Z</time></trkpt><trkpt lat="43.151025" lon="11.4625583"><ele>144.0</ele><time>2026-04-20T08:02:17.939Z</time></trkpt><trkpt lat="43.1511917" lon="11.462465"><ele>144.0</ele><time>2026-04-20T08:02:18.939Z</time></trkpt><trkpt lat="43.1513833" lon="11.4623567"><ele>144.0</ele><time>2026-04-20T08:02:19.939Z</time></trkpt><trkpt lat="43.1515767" lon="11.4622483"><ele>144.0</ele><time>2026-04-20T08:02:20.939Z</time></trkpt><trkpt lat="43.1517733" lon="11.4621417"><ele>143.66666666666666</ele><time>2026-04-20T08:02:21.939Z</time></trkpt><trkpt lat="43.1519517" lon="11.4620433"><ele>143.33333333333331</ele><time>2026-04-20T08:02:22.94Z</time></trkpt><trkpt lat="43.152125" lon="11.46195"><ele>143.0</ele><time>2026-04-20T08:02:23.939Z</time></trkpt><trkpt lat="43.1522983" lon="11.46186"><ele>143.66666666666666</ele><time>2026-04-20T08:02:24.939Z</time></trkpt><trkpt lat="43.15247" lon="11.4617683"><ele>144.33333333333334</ele><time>2026-04-20T08:02:25.939Z</time></trkpt><trkpt lat="43.1526533" lon="11.4616817"><ele>145.0</ele><time>2026-04-20T08:02:26.939Z</time></trkpt><trkpt lat="43.1528283" lon="11.4615917"><ele>145.0</ele><time>2026-04-20T08:02:27.939Z</time></trkpt><trkpt lat="43.153005" lon="11.4614967"><ele>145.0</ele><time>2026-04-20T08:02:28.939Z</time></trkpt><trkpt lat="43.1531883" lon="11.4614017"><ele>145.0</ele><time>2026-04-20T08:02:29.94Z</time></trkpt><trkpt lat="43.1533667" lon="11.461305"><ele>145.66666666666669</ele><time>2026-04-20T08:02:30.939Z</time></trkpt><trkpt lat="43.1535467" lon="11.4612117"><ele>146.33333333333334</ele><time>2026-04-20T08:02:31.939Z</time></trkpt><trkpt lat="43.1537267" lon="11.4611167"><ele>147.0</ele><time>2026-04-20T08:02:32.939Z</time></trkpt><trkpt lat="43.1539067" lon="11.46102"><ele>146.66666666666666</ele><time>2026-04-20T08:02:33.939Z</time></trkpt><trkpt lat="43.1540867" lon="11.460925"><ele>146.33333333333331</ele><time>2026-04-20T08:02:34.94Z</time></trkpt><trkpt lat="43.15427" lon="11.46083"><ele>146.0</ele><time>2026-04-20T08:02:35.939Z</time></trkpt><trkpt lat="43.15446" lon="11.4607317"><ele>146.0</ele><time>2026-04-20T08:02:36.939Z</time></trkpt><trkpt lat="43.1546467" lon="11.4606333"><ele>146.0</ele><time>2026-04-20T08:02:37.939Z</time></trkpt><trkpt lat="43.1548217" lon="11.4605417"><ele>146.0</ele><time>2026-04-20T08:02:38.939Z</time></trkpt><trkpt lat="43.1550017" lon="11.460445"><ele>146.0</ele><time>2026-04-20T08:02:39.939Z</time></trkpt><trkpt lat="43.1551867" lon="11.4603417"><ele>146.0</ele><time>2026-04-20T08:02:40.94Z</time></trkpt><trkpt lat="43.1553783" lon="11.4602467"><ele>146.0</ele><time>2026-04-20T08:02:41.94Z</time></trkpt><trkpt lat="43.1555617" lon="11.460145"><ele>146.0</ele><time>2026-04-20T08:02:42.939Z</time></trkpt><trkpt lat="43.1557533" lon="11.4600483"><ele>146.0</ele><time>2026-04-20T08:02:43.939Z</time></trkpt><trkpt lat="43.1559483" lon="11.4599433"><ele>146.0</ele><time>2026-04-20T08:02:44.939Z</time></trkpt><trkpt lat="43.1561367" lon="11.4598467"><ele>146.0</ele><time>2026-04-20T08:02:45.939Z</time></trkpt><trkpt lat="43.1563283" lon="11.45974"><ele>146.0</ele><time>2026-04-20T08:02:46.939Z</time></trkpt><trkpt lat="43.1565217" lon="11.4596367"><ele>146.0</ele><time>2026-04-20T08:02:47.939Z</time></trkpt><trkpt lat="43.1567133" lon="11.4595267"><ele>146.66666666666666</ele><time>2026-04-20T08:02:48.939Z</time></trkpt><trkpt lat="43.1569117" lon="11.4594317"><ele>147.33333333333334</ele><time>2026-04-20T08:02:49.939Z</time></trkpt><trkpt lat="43.157105" lon="11.4593233"><ele>148.0</ele><time>2026-04-20T08:02:50.939Z</time></trkpt><trkpt lat="43.1572983" lon="11.459225"><ele>147.33333333333334</ele><time>2026-04-20T08:02:51.94Z</time></trkpt><trkpt lat="43.1574933" lon="11.4591233"><ele>146.66666666666666</ele><time>2026-04-20T08:02:52.939Z</time></trkpt><trkpt lat="43.1576883" lon="11.45902"><ele>146.0</ele><time>2026-04-20T08:02:53.94Z</time></trkpt><trkpt lat="43.1578883" lon="11.4589117"><ele>146.0</ele><time>2026-04-20T08:02:54.939Z</time></trkpt><trkpt lat="43.1580667" lon="11.4588117"><ele>146.0</ele><time>2026-04-20T08:02:55.94Z</time></trkpt><trkpt lat="43.1582317" lon="11.45872"><ele>146.0</ele><time>2026-04-20T08:02:56.939Z</time></trkpt><trkpt lat="43.1583933" lon="11.4586333"><ele>145.66666666666666</ele><time>2026-04-20T08:02:57.939Z</time></trkpt><trkpt lat="43.1585533" lon="11.458545"><ele>145.33333333333334</ele><time>2026-04-20T08:02:58.939Z</time></trkpt><trkpt lat="43.1586983" lon="11.4584683"><ele>145.0</ele><time>2026-04-20T08:02:59.94Z</time></trkpt><trkpt lat="43.1588517" lon="11.4583883"><ele>145.0</ele><time>2026-04-20T08:03:00.939Z</time></trkpt><trkpt lat="43.1590067" lon="11.458315"><ele>145.0</ele><time>2026-04-20T08:03:01.939Z</time></trkpt><trkpt lat="43.1591583" lon="11.4582383"><ele>145.0</ele><time>2026-04-20T08:03:02.939Z</time></trkpt><trkpt lat="43.159315" lon="11.4581533"><ele>145.33333333333334</ele><time>2026-04-20T08:03:03.94Z</time></trkpt><trkpt lat="43.1594733" lon="11.45807"><ele>145.66666666666666</ele><time>2026-04-20T08:03:04.939Z</time></trkpt><trkpt lat="43.1596383" lon="11.4579817"><ele>146.0</ele><time>2026-04-20T08:03:05.939Z</time></trkpt><trkpt lat="43.1598033" lon="11.457895"><ele>146.0</ele><time>2026-04-20T08:03:06.939Z</time></trkpt><trkpt lat="43.1599367" lon="11.457815"><ele>146.0</ele><time>2026-04-20T08:03:07.939Z</time></trkpt><trkpt lat="43.1600483" lon="11.4577633"><ele>146.0</ele><time>2026-04-20T08:03:08.939Z</time></trkpt><trkpt lat="43.1601467" lon="11.4577067"><ele>146.0</ele><time>2026-04-20T08:03:09.939Z</time></trkpt><trkpt lat="43.16023" lon="11.457645"><ele>146.0</ele><time>2026-04-20T08:03:10.939Z</time></trkpt><trkpt lat="43.160295" lon="11.457575"><ele>146.0</ele><time>2026-04-20T08:03:11.94Z</time></trkpt><trkpt lat="43.1603533" lon="11.457485"><ele>146.0</ele><time>2026-04-20T08:03:12.939Z</time></trkpt><trkpt lat="43.1603917" lon="11.45738"><ele>146.0</ele><time>2026-04-20T08:03:13.94Z</time></trkpt><trkpt lat="43.16042" lon="11.4572667"><ele>146.0</ele><time>2026-04-20T08:03:14.939Z</time></trkpt><trkpt lat="43.160445" lon="11.4571467"><ele>146.0</ele><time>2026-04-20T08:03:15.939Z</time></trkpt><trkpt lat="43.1604733" lon="11.4570267"><ele>146.33333333333331</ele><time>2026-04-20T08:03:16.939Z</time></trkpt><trkpt lat="43.1605083" lon="11.4569267"><ele>146.66666666666666</ele><time>2026-04-20T08:03:17.94Z</time></trkpt><trkpt lat="43.1605883" lon="11.456835"><ele>147.0</ele><time>2026-04-20T08:03:19.939Z</time></trkpt><trkpt lat="43.1606767" lon="11.4568283"><ele>147.33333333333334</ele><time>2026-04-20T08:03:21.939Z</time></trkpt><trkpt lat="43.1607383" lon="11.4568683"><ele>147.66666666666669</ele><time>2026-04-20T08:03:22.939Z</time></trkpt><trkpt lat="43.1607867" lon="11.45693"><ele>148.0</ele><time>2026-04-20T08:03:23.939Z</time></trkpt><trkpt lat="43.1608583" lon="11.45708"><ele>148.0</ele><time>2026-04-20T08:03:25.94Z</time></trkpt><trkpt lat="43.16089" lon="11.45719"><ele>148.0</ele><time>2026-04-20T08:03:26.939Z</time></trkpt><trkpt lat="43.1609233" lon="11.4572917"><ele>148.0</ele><time>2026-04-20T08:03:27.939Z</time></trkpt><trkpt lat="43.1609567" lon="11.45739"><ele>148.0</ele><time>2026-04-20T08:03:28.94Z</time></trkpt><trkpt lat="43.1609867" lon="11.4575"><ele>148.0</ele><time>2026-04-20T08:03:29.939Z</time></trkpt><trkpt lat="43.1610283" lon="11.4576133"><ele>148.0</ele><time>2026-04-20T08:03:30.939Z</time></trkpt><trkpt lat="43.1610567" lon="11.457735"><ele>148.0</ele><time>2026-04-20T08:03:31.94Z</time></trkpt><trkpt lat="43.1610767" lon="11.4578733"><ele>148.0</ele><time>2026-04-20T08:03:32.939Z</time></trkpt><trkpt lat="43.1611017" lon="11.4580333"><ele>148.0</ele><time>2026-04-20T08:03:33.939Z</time></trkpt><trkpt lat="43.161125" lon="11.4582183"><ele>148.0</ele><time>2026-04-20T08:03:34.939Z</time></trkpt><trkpt lat="43.1611433" lon="11.4584133"><ele>147.75</ele><time>2026-04-20T08:03:35.939Z</time></trkpt><trkpt lat="43.16116" lon="11.4586083"><ele>147.5</ele><time>2026-04-20T08:03:36.939Z</time></trkpt><trkpt lat="43.1611783" lon="11.4588067"><ele>147.25</ele><time>2026-04-20T08:03:37.939Z</time></trkpt><trkpt lat="43.1611933" lon="11.4590067"><ele>147.0</ele><time>2026-04-20T08:03:38.939Z</time></trkpt><trkpt lat="43.1612083" lon="11.4591967"><ele>146.75</ele><time>2026-04-20T08:03:39.94Z</time></trkpt><trkpt lat="43.1612283" lon="11.4593867"><ele>146.5</ele><time>2026-04-20T08:03:40.939Z</time></trkpt><trkpt lat="43.161255" lon="11.4595667"><ele>146.25</ele><time>2026-04-20T08:03:41.939Z</time></trkpt><trkpt lat="43.1612783" lon="11.4597433"><ele>146.0</ele><time>2026-04-20T08:03:42.939Z</time></trkpt><trkpt lat="43.1613133" lon="11.4599033"><ele>146.0</ele><time>2026-04-20T08:03:43.939Z</time></trkpt><trkpt lat="43.1613517" lon="11.4600517"><ele>146.0</ele><time>2026-04-20T08:03:44.94Z</time></trkpt><trkpt lat="43.1614117" lon="11.460185"><ele>146.0</ele><time>2026-04-20T08:03:45.939Z</time></trkpt><trkpt lat="43.1614783" lon="11.460305"><ele>146.0</ele><time>2026-04-20T08:03:46.939Z</time></trkpt><trkpt lat="43.16156" lon="11.4604267"><ele>145.75</ele><time>2026-04-20T08:03:47.939Z</time></trkpt><trkpt lat="43.1616583" lon="11.4605467"><ele>145.5</ele><time>2026-04-20T08:03:48.94Z</time></trkpt><trkpt lat="43.161765" lon="11.4606533"><ele>145.25</ele><time>2026-04-20T08:03:49.939Z</time></trkpt><trkpt lat="43.16187" lon="11.4607567"><ele>145.0</ele><time>2026-04-20T08:03:50.939Z</time></trkpt><trkpt lat="43.16198" lon="11.4608517"><ele>145.0</ele><time>2026-04-20T08:03:51.939Z</time></trkpt><trkpt lat="43.16209" lon="11.4609583"><ele>145.0</ele><time>2026-04-20T08:03:52.94Z</time></trkpt><trkpt lat="43.162205" lon="11.4610767"><ele>145.0</ele><time>2026-04-20T08:03:53.939Z</time></trkpt><trkpt lat="43.1623217" lon="11.4612033"><ele>145.0</ele><time>2026-04-20T08:03:54.939Z</time></trkpt><trkpt lat="43.1624333" lon="11.4613283"><ele>144.5</ele><time>2026-04-20T08:03:55.939Z</time></trkpt><trkpt lat="43.1625483" lon="11.4614567"><ele>144.0</ele><time>2026-04-20T08:03:56.939Z</time></trkpt><trkpt lat="43.162665" lon="11.4615717"><ele>143.5</ele><time>2026-04-20T08:03:57.939Z</time></trkpt><trkpt lat="43.1627783" lon="11.46169"><ele>143.0</ele><time>2026-04-20T08:03:58.939Z</time></trkpt><trkpt lat="43.1628833" lon="11.4618"><ele>143.0</ele><time>2026-04-20T08:03:59.939Z</time></trkpt><trkpt lat="43.1629883" lon="11.4618967"><ele>143.0</ele><time>2026-04-20T08:04:00.939Z</time></trkpt><trkpt lat="43.1630917" lon="11.4619783"><ele>143.0</ele><time>2026-04-20T08:04:01.939Z</time></trkpt><trkpt lat="43.1631967" lon="11.46204"><ele>143.0</ele><time>2026-04-20T08:04:02.939Z</time></trkpt><trkpt lat="43.1632983" lon="11.4620917"><ele>143.0</ele><time>2026-04-20T08:04:03.939Z</time></trkpt><trkpt lat="43.1633917" lon="11.46215"><ele>143.0</ele><time>2026-04-20T08:04:04.94Z</time></trkpt><trkpt lat="43.1634767" lon="11.4622267"><ele>143.0</ele><time>2026-04-20T08:04:05.939Z</time></trkpt><trkpt lat="43.1635417" lon="11.4623133"><ele>143.0</ele><time>2026-04-20T08:04:06.939Z</time></trkpt><trkpt lat="43.1635933" lon="11.4623983"><ele>143.0</ele><time>2026-04-20T08:04:07.939Z</time></trkpt><trkpt lat="43.1636383" lon="11.4624917"><ele>143.0</ele><time>2026-04-20T08:04:08.939Z</time></trkpt><trkpt lat="43.1636767" lon="11.46258"><ele>143.0</ele><time>2026-04-20T08:04:09.939Z</time></trkpt><trkpt lat="43.1637167" lon="11.4626717"><ele>143.0</ele><time>2026-04-20T08:04:10.94Z</time></trkpt><trkpt lat="43.1637667" lon="11.4627567"><ele>143.0</ele><time>2026-04-20T08:04:11.939Z</time></trkpt><trkpt lat="43.16384" lon="11.4628233"><ele>143.0</ele><time>2026-04-20T08:04:12.939Z</time></trkpt><trkpt lat="43.1639283" lon="11.46288"><ele>143.0</ele><time>2026-04-20T08:04:13.939Z</time></trkpt><trkpt lat="43.1640133" lon="11.4629283"><ele>143.20000000000002</ele><time>2026-04-20T08:04:14.939Z</time></trkpt><trkpt lat="43.164095" lon="11.46298"><ele>143.4</ele><time>2026-04-20T08:04:15.939Z</time></trkpt><trkpt lat="43.16418" lon="11.46304"><ele>143.60000000000002</ele><time>2026-04-20T08:04:16.94Z</time></trkpt><trkpt lat="43.1642667" lon="11.4631067"><ele>143.8</ele><time>2026-04-20T08:04:17.939Z</time></trkpt><trkpt lat="43.1643517" lon="11.4631783"><ele>144.0</ele><time>2026-04-20T08:04:18.939Z</time></trkpt><trkpt lat="43.1644333" lon="11.4632517"><ele>144.0</ele><time>2026-04-20T08:04:19.939Z</time></trkpt><trkpt lat="43.1645167" lon="11.4633317"><ele>144.0</ele><time>2026-04-20T08:04:20.939Z</time></trkpt><trkpt lat="43.1645983" lon="11.463415"><ele>144.0</ele><time>2026-04-20T08:04:21.939Z</time></trkpt><trkpt lat="43.1646633" lon="11.4634917"><ele>144.0</ele><time>2026-04-20T08:04:22.939Z</time></trkpt><trkpt lat="43.1647333" lon="11.4635733"><ele>144.0</ele><time>2026-04-20T08:04:23.939Z</time></trkpt><trkpt lat="43.1648067" lon="11.46365"><ele>144.2</ele><time>2026-04-20T08:04:24.939Z</time></trkpt><trkpt lat="43.1648783" lon="11.46373"><ele>144.4</ele><time>2026-04-20T08:04:25.94Z</time></trkpt><trkpt lat="43.1649533" lon="11.4638083"><ele>144.6</ele><time>2026-04-20T08:04:26.939Z</time></trkpt><trkpt lat="43.165035" lon="11.4638783"><ele>144.8</ele><time>2026-04-20T08:04:27.939Z</time></trkpt><trkpt lat="43.1651133" lon="11.4639417"><ele>145.0</ele><time>2026-04-20T08:04:28.939Z</time></trkpt><trkpt lat="43.1652" lon="11.4640017"><ele>145.0</ele><time>2026-04-20T08:04:29.939Z</time></trkpt><trkpt lat="43.16529" lon="11.4640533"><ele>145.0</ele><time>2026-04-20T08:04:30.939Z</time></trkpt><trkpt lat="43.1653817" lon="11.46411"><ele>145.0</ele><time>2026-04-20T08:04:31.939Z</time></trkpt><trkpt lat="43.165465" lon="11.4641767"><ele>145.0</ele><time>2026-04-20T08:04:32.939Z</time></trkpt><trkpt lat="43.16555" lon="11.4642383"><ele>145.0</ele><time>2026-04-20T08:04:33.94Z</time></trkpt><trkpt lat="43.1656333" lon="11.4643017"><ele>145.14285714285714</ele><time>2026-04-20T08:04:34.939Z</time></trkpt><trkpt lat="43.16571" lon="11.4643483"><ele>145.2857142857143</ele><time>2026-04-20T08:04:35.939Z</time></trkpt><trkpt lat="43.1657833" lon="11.4644017"><ele>145.42857142857144</ele><time>2026-04-20T08:04:36.939Z</time></trkpt><trkpt lat="43.1658517" lon="11.464455"><ele>145.57142857142858</ele><time>2026-04-20T08:04:37.939Z</time></trkpt><trkpt lat="43.1659167" lon="11.4644917"><ele>145.71428571428572</ele><time>2026-04-20T08:04:38.939Z</time></trkpt><trkpt lat="43.1659817" lon="11.4644917"><ele>145.85714285714286</ele><time>2026-04-20T08:04:39.94Z</time></trkpt><trkpt lat="43.166045" lon="11.464475"><ele>146.0</ele><time>2026-04-20T08:04:40.94Z</time></trkpt><trkpt lat="43.166105" lon="11.4644217"><ele>146.0</ele><time>2026-04-20T08:04:41.939Z</time></trkpt><trkpt lat="43.1661583" lon="11.4643467"><ele>146.0</ele><time>2026-04-20T08:04:42.939Z</time></trkpt><trkpt lat="43.166205" lon="11.4642467"><ele>146.0</ele><time>2026-04-20T08:04:43.939Z</time></trkpt><trkpt lat="43.1662567" lon="11.4641433"><ele>146.0</ele><time>2026-04-20T08:04:44.939Z</time></trkpt><trkpt lat="43.1663067" lon="11.46404"><ele>146.0</ele><time>2026-04-20T08:04:45.939Z</time></trkpt><trkpt lat="43.16635" lon="11.4639483"><ele>146.0</ele><time>2026-04-20T08:04:46.94Z</time></trkpt><trkpt lat="43.1664017" lon="11.463855"><ele>146.0</ele><time>2026-04-20T08:04:47.939Z</time></trkpt><trkpt lat="43.1664583" lon="11.4637733"><ele>146.0</ele><time>2026-04-20T08:04:48.939Z</time></trkpt><trkpt lat="43.1665233" lon="11.4637033"><ele>146.0</ele><time>2026-04-20T08:04:49.939Z</time></trkpt><trkpt lat="43.166595" lon="11.46364"><ele>146.0</ele><time>2026-04-20T08:04:50.939Z</time></trkpt><trkpt lat="43.1666667" lon="11.4635817"><ele>146.0</ele><time>2026-04-20T08:04:51.939Z</time></trkpt><trkpt lat="43.1667433" lon="11.4635333"><ele>146.0</ele><time>2026-04-20T08:04:52.939Z</time></trkpt><trkpt lat="43.1668067" lon="11.46348"><ele>146.16666666666666</ele><time>2026-04-20T08:04:53.939Z</time></trkpt><trkpt lat="43.1668667" lon="11.46344"><ele>146.33333333333331</ele><time>2026-04-20T08:04:54.94Z</time></trkpt><trkpt lat="43.16696" lon="11.46341"><ele>146.5</ele><time>2026-04-20T08:04:56.939Z</time></trkpt><trkpt lat="43.16707" lon="11.4634733"><ele>146.66666666666666</ele><time>2026-04-20T08:04:58.939Z</time></trkpt><trkpt lat="43.1671267" lon="11.46354"><ele>146.83333333333334</ele><time>2026-04-20T08:04:59.94Z</time></trkpt><trkpt lat="43.1671967" lon="11.4636167"><ele>147.0</ele><time>2026-04-20T08:05:00.94Z</time></trkpt><trkpt lat="43.1672833" lon="11.46369"><ele>147.0</ele><time>2026-04-20T08:05:01.94Z</time></trkpt><trkpt lat="43.1673783" lon="11.463755"><ele>147.0</ele><time>2026-04-20T08:05:02.94Z</time></trkpt><trkpt lat="43.16747" lon="11.4638117"><ele>147.0</ele><time>2026-04-20T08:05:03.939Z</time></trkpt><trkpt lat="43.1675617" lon="11.46386"><ele>147.0</ele><time>2026-04-20T08:05:04.939Z</time></trkpt><trkpt lat="43.1676533" lon="11.463905"><ele>147.0</ele><time>2026-04-20T08:05:05.939Z</time></trkpt><trkpt lat="43.16774" lon="11.463955"><ele>147.16666666666666</ele><time>2026-04-20T08:05:06.939Z</time></trkpt><trkpt lat="43.167825" lon="11.46401"><ele>147.33333333333334</ele><time>2026-04-20T08:05:07.938Z</time></trkpt><trkpt lat="43.1679017" lon="11.4640567"><ele>147.5</ele><time>2026-04-20T08:05:08.938Z</time></trkpt><trkpt lat="43.16798" lon="11.4641"><ele>147.66666666666669</ele><time>2026-04-20T08:05:09.938Z</time></trkpt><trkpt lat="43.1680433" lon="11.464135"><ele>147.83333333333334</ele><time>2026-04-20T08:05:10.938Z</time></trkpt><trkpt lat="43.1681317" lon="11.4642067"><ele>148.0</ele><time>2026-04-20T08:05:12.938Z</time></trkpt><trkpt lat="43.1681783" lon="11.464275"><ele>148.0</ele><time>2026-04-20T08:05:14.938Z</time></trkpt><trkpt lat="43.168145" lon="11.4644017"><ele>148.0</ele><time>2026-04-20T08:05:16.939Z</time></trkpt><trkpt lat="43.16811" lon="11.4644783"><ele>148.0</ele><time>2026-04-20T08:05:17.938Z</time></trkpt><trkpt lat="43.1680767" lon="11.4645633"><ele>148.0</ele><time>2026-04-20T08:05:18.938Z</time></trkpt><trkpt lat="43.168035" lon="11.46465"><ele>148.0</ele><time>2026-04-20T08:05:19.938Z</time></trkpt><trkpt lat="43.1680083" lon="11.4647283"><ele>148.0</ele><time>2026-04-20T08:05:20.938Z</time></trkpt><trkpt lat="43.1679717" lon="11.46485"><ele>148.16666666666669</ele><time>2026-04-20T08:05:22.938Z</time></trkpt><trkpt lat="43.1679433" lon="11.46494"><ele>148.33333333333334</ele><time>2026-04-20T08:05:24.938Z</time></trkpt><trkpt lat="43.167945" lon="11.4650367"><ele>148.5</ele><time>2026-04-20T08:05:26.938Z</time></trkpt><trkpt lat="43.167945" lon="11.4651267"><ele>148.66666666666666</ele><time>2026-04-20T08:05:28.939Z</time></trkpt><trkpt lat="43.1679717" lon="11.465205"><ele>148.83333333333331</ele><time>2026-04-20T08:05:30.938Z</time></trkpt><trkpt lat="43.1680467" lon="11.46531"><ele>149.0</ele><time>2026-04-20T08:05:32.938Z</time></trkpt><trkpt lat="43.1681117" lon="11.4653567"><ele>149.0</ele><time>2026-04-20T08:05:33.938Z</time></trkpt><trkpt lat="43.1681933" lon="11.46541"><ele>149.0</ele><time>2026-04-20T08:05:34.938Z</time></trkpt><trkpt lat="43.1682867" lon="11.465465"><ele>149.0</ele><time>2026-04-20T08:05:35.938Z</time></trkpt><trkpt lat="43.168385" lon="11.4655117"><ele>149.0</ele><time>2026-04-20T08:05:36.938Z</time></trkpt><trkpt lat="43.1684817" lon="11.465565"><ele>149.0</ele><time>2026-04-20T08:05:37.938Z</time></trkpt><trkpt lat="43.1685917" lon="11.4656233"><ele>149.0</ele><time>2026-04-20T08:05:38.938Z</time></trkpt><trkpt lat="43.1687083" lon="11.4656733"><ele>149.0</ele><time>2026-04-20T08:05:39.938Z</time></trkpt><trkpt lat="43.1688317" lon="11.4657067"><ele>149.0</ele><time>2026-04-20T08:05:40.938Z</time></trkpt><trkpt lat="43.1689583" lon="11.4657317"><ele>149.0</ele><time>2026-04-20T08:05:41.938Z</time></trkpt><trkpt lat="43.16908" lon="11.4657533"><ele>149.25</ele><time>2026-04-20T08:05:42.938Z</time></trkpt><trkpt lat="43.1692083" lon="11.4657583"><ele>149.5</ele><time>2026-04-20T08:05:43.938Z</time></trkpt><trkpt lat="43.1693367" lon="11.4657567"><ele>149.75</ele><time>2026-04-20T08:05:44.938Z</time></trkpt><trkpt lat="43.169465" lon="11.46575"><ele>150.0</ele><time>2026-04-20T08:05:45.938Z</time></trkpt><trkpt lat="43.1696" lon="11.4657367"><ele>150.0</ele><time>2026-04-20T08:05:46.938Z</time></trkpt><trkpt lat="43.16973" lon="11.4657133"><ele>150.0</ele><time>2026-04-20T08:05:47.939Z</time></trkpt><trkpt lat="43.16986" lon="11.46569"><ele>150.0</ele><time>2026-04-20T08:05:48.938Z</time></trkpt><trkpt lat="43.1699783" lon="11.4656533"><ele>150.0</ele><time>2026-04-20T08:05:49.939Z</time></trkpt><trkpt lat="43.170095" lon="11.46561"><ele>149.8</ele><time>2026-04-20T08:05:50.939Z</time></trkpt><trkpt lat="43.1701983" lon="11.4655667"><ele>149.6</ele><time>2026-04-20T08:05:51.938Z</time></trkpt><trkpt lat="43.1703033" lon="11.4655133"><ele>149.4</ele><time>2026-04-20T08:05:52.938Z</time></trkpt><trkpt lat="43.1704017" lon="11.46547"><ele>149.2</ele><time>2026-04-20T08:05:53.938Z</time></trkpt><trkpt lat="43.1705033" lon="11.465435"><ele>149.0</ele><time>2026-04-20T08:05:54.938Z</time></trkpt><trkpt lat="43.1706017" lon="11.465395"><ele>149.0</ele><time>2026-04-20T08:05:55.939Z</time></trkpt><trkpt lat="43.1707033" lon="11.4653533"><ele>149.0</ele><time>2026-04-20T08:05:56.939Z</time></trkpt><trkpt lat="43.1708033" lon="11.4653067"><ele>149.0</ele><time>2026-04-20T08:05:57.939Z</time></trkpt><trkpt lat="43.1709067" lon="11.465265"><ele>149.0</ele><time>2026-04-20T08:05:58.939Z</time></trkpt><trkpt lat="43.1710167" lon="11.4652183"><ele>149.0</ele><time>2026-04-20T08:05:59.938Z</time></trkpt><trkpt lat="43.17113" lon="11.4651767"><ele>149.0</ele><time>2026-04-20T08:06:00.938Z</time></trkpt><trkpt lat="43.1712517" lon="11.46514"><ele>149.0</ele><time>2026-04-20T08:06:01.938Z</time></trkpt><trkpt lat="43.17138" lon="11.4650967"><ele>149.0</ele><time>2026-04-20T08:06:02.939Z</time></trkpt><trkpt lat="43.1715033" lon="11.4650467"><ele>149.0</ele><time>2026-04-20T08:06:03.939Z</time></trkpt><trkpt lat="43.17163" lon="11.46499"><ele>148.75</ele><time>2026-04-20T08:06:04.938Z</time></trkpt><trkpt lat="43.1717567" lon="11.464935"><ele>148.5</ele><time>2026-04-20T08:06:05.938Z</time></trkpt><trkpt lat="43.1718883" lon="11.46488"><ele>148.25</ele><time>2026-04-20T08:06:06.938Z</time></trkpt><trkpt lat="43.1720283" lon="11.4648233"><ele>148.0</ele><time>2026-04-20T08:06:07.938Z</time></trkpt><trkpt lat="43.17217" lon="11.46477"><ele>148.0</ele><time>2026-04-20T08:06:08.938Z</time></trkpt><trkpt lat="43.172315" lon="11.4647167"><ele>148.0</ele><time>2026-04-20T08:06:09.938Z</time></trkpt><trkpt lat="43.1724633" lon="11.464655"><ele>148.0</ele><time>2026-04-20T08:06:10.939Z</time></trkpt><trkpt lat="43.17261" lon="11.4645983"><ele>148.66666666666669</ele><time>2026-04-20T08:06:11.938Z</time></trkpt><trkpt lat="43.1727617" lon="11.464535"><ele>149.33333333333334</ele><time>2026-04-20T08:06:12.938Z</time></trkpt><trkpt lat="43.1729167" lon="11.4644733"><ele>150.0</ele><time>2026-04-20T08:06:13.938Z</time></trkpt><trkpt lat="43.1730767" lon="11.4644133"><ele>150.0</ele><time>2026-04-20T08:06:14.939Z</time></trkpt><trkpt lat="43.1732417" lon="11.4643417"><ele>150.0</ele><time>2026-04-20T08:06:15.939Z</time></trkpt><trkpt lat="43.1734017" lon="11.464275"><ele>150.0</ele><time>2026-04-20T08:06:16.938Z</time></trkpt><trkpt lat="43.1735617" lon="11.4642183"><ele>150.0</ele><time>2026-04-20T08:06:17.938Z</time></trkpt><trkpt lat="43.1737133" lon="11.4641683"><ele>150.0</ele><time>2026-04-20T08:06:18.938Z</time></trkpt><trkpt lat="43.17387" lon="11.464105"><ele>150.0</ele><time>2026-04-20T08:06:19.938Z</time></trkpt><trkpt lat="43.1740233" lon="11.4640317"><ele>149.33333333333334</ele><time>2026-04-20T08:06:20.939Z</time></trkpt><trkpt lat="43.1741783" lon="11.4639667"><ele>148.66666666666669</ele><time>2026-04-20T08:06:21.938Z</time></trkpt><trkpt lat="43.1743333" lon="11.463905"><ele>148.0</ele><time>2026-04-20T08:06:22.939Z</time></trkpt><trkpt lat="43.17449" lon="11.4638533"><ele>148.0</ele><time>2026-04-20T08:06:23.938Z</time></trkpt><trkpt lat="43.1746467" lon="11.4637933"><ele>148.0</ele><time>2026-04-20T08:06:24.938Z</time></trkpt><trkpt lat="43.1748067" lon="11.463725"><ele>148.0</ele><time>2026-04-20T08:06:25.938Z</time></trkpt><trkpt lat="43.174975" lon="11.4636633"><ele>148.66666666666669</ele><time>2026-04-20T08:06:26.939Z</time></trkpt><trkpt lat="43.1751383" lon="11.4635867"><ele>149.33333333333334</ele><time>2026-04-20T08:06:27.938Z</time></trkpt><trkpt lat="43.175315" lon="11.4635133"><ele>150.0</ele><time>2026-04-20T08:06:28.938Z</time></trkpt><trkpt lat="43.1754933" lon="11.4634417"><ele>150.0</ele><time>2026-04-20T08:06:29.939Z</time></trkpt><trkpt lat="43.1756717" lon="11.4633717"><ele>150.0</ele><time>2026-04-20T08:06:30.938Z</time></trkpt><trkpt lat="43.1758433" lon="11.4632967"><ele>150.0</ele><time>2026-04-20T08:06:31.938Z</time></trkpt><trkpt lat="43.1760183" lon="11.4632167"><ele>150.66666666666666</ele><time>2026-04-20T08:06:32.938Z</time></trkpt><trkpt lat="43.17619" lon="11.4631483"><ele>151.33333333333331</ele><time>2026-04-20T08:06:33.938Z</time></trkpt><trkpt lat="43.1763683" lon="11.4630833"><ele>152.0</ele><time>2026-04-20T08:06:34.938Z</time></trkpt><trkpt lat="43.1765467" lon="11.463015"><ele>152.0</ele><time>2026-04-20T08:06:35.938Z</time></trkpt><trkpt lat="43.1767233" lon="11.4629517"><ele>152.0</ele><time>2026-04-20T08:06:36.938Z</time></trkpt><trkpt lat="43.1768967" lon="11.4628683"><ele>152.0</ele><time>2026-04-20T08:06:37.939Z</time></trkpt><trkpt lat="43.1770633" lon="11.4627983"><ele>152.33333333333331</ele><time>2026-04-20T08:06:38.938Z</time></trkpt><trkpt lat="43.1772383" lon="11.4627283"><ele>152.66666666666666</ele><time>2026-04-20T08:06:39.938Z</time></trkpt><trkpt lat="43.1774133" lon="11.4626567"><ele>153.0</ele><time>2026-04-20T08:06:40.939Z</time></trkpt><trkpt lat="43.1775883" lon="11.4625833"><ele>153.33333333333334</ele><time>2026-04-20T08:06:41.938Z</time></trkpt><trkpt lat="43.17775" lon="11.46252"><ele>153.66666666666669</ele><time>2026-04-20T08:06:42.938Z</time></trkpt><trkpt lat="43.177915" lon="11.4624683"><ele>154.0</ele><time>2026-04-20T08:06:43.938Z</time></trkpt><trkpt lat="43.178065" lon="11.4624367"><ele>153.66666666666669</ele><time>2026-04-20T08:06:44.938Z</time></trkpt><trkpt lat="43.1782167" lon="11.462435"><ele>153.33333333333334</ele><time>2026-04-20T08:06:45.938Z</time></trkpt><trkpt lat="43.1783817" lon="11.4624617"><ele>153.0</ele><time>2026-04-20T08:06:46.939Z</time></trkpt><trkpt lat="43.178545" lon="11.462515"><ele>153.0</ele><time>2026-04-20T08:06:47.938Z</time></trkpt><trkpt lat="43.17872" lon="11.4625817"><ele>153.0</ele><time>2026-04-20T08:06:48.939Z</time></trkpt><trkpt lat="43.1789033" lon="11.4626467"><ele>153.0</ele><time>2026-04-20T08:06:49.938Z</time></trkpt><trkpt lat="43.1790817" lon="11.462715"><ele>154.33333333333334</ele><time>2026-04-20T08:06:50.938Z</time></trkpt><trkpt lat="43.1792517" lon="11.4627683"><ele>155.66666666666669</ele><time>2026-04-20T08:06:51.938Z</time></trkpt><trkpt lat="43.1794083" lon="11.4627917"><ele>157.0</ele><time>2026-04-20T08:06:52.938Z</time></trkpt><trkpt lat="43.1795583" lon="11.4627867"><ele>157.0</ele><time>2026-04-20T08:06:53.939Z</time></trkpt><trkpt lat="43.1796983" lon="11.4627367"><ele>157.0</ele><time>2026-04-20T08:06:54.938Z</time></trkpt><trkpt lat="43.1798317" lon="11.4626667"><ele>157.0</ele><time>2026-04-20T08:06:55.938Z</time></trkpt><trkpt lat="43.1799533" lon="11.4625617"><ele>157.0</ele><time>2026-04-20T08:06:56.938Z</time></trkpt><trkpt lat="43.1800717" lon="11.4624417"><ele>157.33333333333334</ele><time>2026-04-20T08:06:57.938Z</time></trkpt><trkpt lat="43.1801667" lon="11.4622817"><ele>157.66666666666666</ele><time>2026-04-20T08:06:58.938Z</time></trkpt><trkpt lat="43.1802467" lon="11.4621067"><ele>158.0</ele><time>2026-04-20T08:06:59.938Z</time></trkpt><trkpt lat="43.1803167" lon="11.4619183"><ele>161.0</ele><time>2026-04-20T08:07:00.938Z</time></trkpt><trkpt lat="43.1803917" lon="11.4617183"><ele>164.0</ele><time>2026-04-20T08:07:01.938Z</time></trkpt><trkpt lat="43.1804833" lon="11.4615217"><ele>167.0</ele><time>2026-04-20T08:07:02.938Z</time></trkpt><trkpt lat="43.1805767" lon="11.4613383"><ele>165.33333333333331</ele><time>2026-04-20T08:07:03.938Z</time></trkpt><trkpt lat="43.1806817" lon="11.4611567"><ele>163.66666666666666</ele><time>2026-04-20T08:07:04.938Z</time></trkpt><trkpt lat="43.1808033" lon="11.4609883"><ele>162.0</ele><time>2026-04-20T08:07:05.938Z</time></trkpt><trkpt lat="43.1809367" lon="11.4608467"><ele>162.0</ele><time>2026-04-20T08:07:06.938Z</time></trkpt><trkpt lat="43.1810833" lon="11.4607033"><ele>162.0</ele><time>2026-04-20T08:07:07.939Z</time></trkpt><trkpt lat="43.1812317" lon="11.4605583"><ele>162.0</ele><time>2026-04-20T08:07:08.938Z</time></trkpt><trkpt lat="43.1813833" lon="11.460405"><ele>161.33333333333334</ele><time>2026-04-20T08:07:09.938Z</time></trkpt><trkpt lat="43.1815333" lon="11.4602517"><ele>160.66666666666669</ele><time>2026-04-20T08:07:10.938Z</time></trkpt><trkpt lat="43.1816883" lon="11.460095"><ele>160.0</ele><time>2026-04-20T08:07:11.938Z</time></trkpt><trkpt lat="43.18185" lon="11.4599267"><ele>160.0</ele><time>2026-04-20T08:07:12.938Z</time></trkpt><trkpt lat="43.182015" lon="11.4597533"><ele>160.0</ele><time>2026-04-20T08:07:13.938Z</time></trkpt><trkpt lat="43.1821833" lon="11.4595817"><ele>160.0</ele><time>2026-04-20T08:07:14.938Z</time></trkpt><trkpt lat="43.18234" lon="11.459425"><ele>160.0</ele><time>2026-04-20T08:07:15.938Z</time></trkpt><trkpt lat="43.182505" lon="11.45927"><ele>160.0</ele><time>2026-04-20T08:07:16.939Z</time></trkpt><trkpt lat="43.1826817" lon="11.4591083"><ele>160.0</ele><time>2026-04-20T08:07:17.938Z</time></trkpt><trkpt lat="43.1828533" lon="11.4589433"><ele>160.66666666666669</ele><time>2026-04-20T08:07:18.938Z</time></trkpt><trkpt lat="43.183025" lon="11.45877"><ele>161.33333333333334</ele><time>2026-04-20T08:07:19.938Z</time></trkpt><trkpt lat="43.1831917" lon="11.4585967"><ele>162.0</ele><time>2026-04-20T08:07:20.938Z</time></trkpt><trkpt lat="43.1833533" lon="11.4584367"><ele>162.0</ele><time>2026-04-20T08:07:21.938Z</time></trkpt><trkpt lat="43.1835183" lon="11.458275"><ele>162.0</ele><time>2026-04-20T08:07:22.938Z</time></trkpt><trkpt lat="43.1836717" lon="11.4581133"><ele>162.0</ele><time>2026-04-20T08:07:23.938Z</time></trkpt><trkpt lat="43.1838267" lon="11.4579483"><ele>162.33333333333334</ele><time>2026-04-20T08:07:24.938Z</time></trkpt><trkpt lat="43.183985" lon="11.4577817"><ele>162.66666666666669</ele><time>2026-04-20T08:07:25.938Z</time></trkpt><trkpt lat="43.184135" lon="11.4576067"><ele>163.0</ele><time>2026-04-20T08:07:26.938Z</time></trkpt><trkpt lat="43.18428" lon="11.4574283"><ele>163.0</ele><time>2026-04-20T08:07:27.938Z</time></trkpt><trkpt lat="43.1844317" lon="11.4572433"><ele>163.0</ele><time>2026-04-20T08:07:28.938Z</time></trkpt><trkpt lat="43.1845833" lon="11.4570583"><ele>163.0</ele><time>2026-04-20T08:07:29.938Z</time></trkpt><trkpt lat="43.18474" lon="11.456865"><ele>163.0</ele><time>2026-04-20T08:07:30.938Z</time></trkpt><trkpt lat="43.184895" lon="11.4566733"><ele>163.0</ele><time>2026-04-20T08:07:31.938Z</time></trkpt><trkpt lat="43.1850417" lon="11.4564767"><ele>163.0</ele><time>2026-04-20T08:07:32.938Z</time></trkpt><trkpt lat="43.185195" lon="11.4562883"><ele>164.0</ele><time>2026-04-20T08:07:33.939Z</time></trkpt><trkpt lat="43.1853483" lon="11.4560933"><ele>165.0</ele><time>2026-04-20T08:07:34.938Z</time></trkpt><trkpt lat="43.185505" lon="11.455895"><ele>166.0</ele><time>2026-04-20T08:07:35.938Z</time></trkpt><trkpt lat="43.1856583" lon="11.4557033"><ele>165.66666666666669</ele><time>2026-04-20T08:07:36.939Z</time></trkpt><trkpt lat="43.1858067" lon="11.4555333"><ele>165.33333333333334</ele><time>2026-04-20T08:07:37.938Z</time></trkpt><trkpt lat="43.18597" lon="11.4553767"><ele>165.0</ele><time>2026-04-20T08:07:38.938Z</time></trkpt><trkpt lat="43.1861383" lon="11.455235"><ele>166.33333333333334</ele><time>2026-04-20T08:07:39.938Z</time></trkpt><trkpt lat="43.1863167" lon="11.455095"><ele>167.66666666666669</ele><time>2026-04-20T08:07:40.938Z</time></trkpt><trkpt lat="43.1865" lon="11.4549733"><ele>169.0</ele><time>2026-04-20T08:07:41.938Z</time></trkpt><trkpt lat="43.186685" lon="11.4548717"><ele>169.33333333333334</ele><time>2026-04-20T08:07:42.939Z</time></trkpt><trkpt lat="43.1868683" lon="11.4547717"><ele>169.66666666666666</ele><time>2026-04-20T08:07:43.938Z</time></trkpt><trkpt lat="43.1870583" lon="11.4546617"><ele>170.0</ele><time>2026-04-20T08:07:44.938Z</time></trkpt><trkpt lat="43.1872483" lon="11.454545"><ele>173.0</ele><time>2026-04-20T08:07:45.938Z</time></trkpt><trkpt lat="43.1874383" lon="11.4544383"><ele>176.0</ele><time>2026-04-20T08:07:46.938Z</time></trkpt><trkpt lat="43.1876183" lon="11.45433"><ele>179.0</ele><time>2026-04-20T08:07:47.939Z</time></trkpt><trkpt lat="43.187805" lon="11.45423"><ele>179.0</ele><time>2026-04-20T08:07:48.939Z</time></trkpt><trkpt lat="43.1879817" lon="11.45414"><ele>179.0</ele><time>2026-04-20T08:07:49.938Z</time></trkpt><trkpt lat="43.1881517" lon="11.4540817"><ele>179.0</ele><time>2026-04-20T08:07:50.938Z</time></trkpt><trkpt lat="43.1883167" lon="11.4540317"><ele>179.66666666666666</ele><time>2026-04-20T08:07:51.938Z</time></trkpt><trkpt lat="43.1884817" lon="11.4540117"><ele>180.33333333333334</ele><time>2026-04-20T08:07:52.938Z</time></trkpt><trkpt lat="43.18865" lon="11.4540267"><ele>181.0</ele><time>2026-04-20T08:07:53.938Z</time></trkpt><trkpt lat="43.188815" lon="11.4540317"><ele>181.0</ele><time>2026-04-20T08:07:54.938Z</time></trkpt><trkpt lat="43.18898" lon="11.4540333"><ele>181.0</ele><time>2026-04-20T08:07:55.938Z</time></trkpt><trkpt lat="43.1891367" lon="11.4540467"><ele>181.0</ele><time>2026-04-20T08:07:56.938Z</time></trkpt><trkpt lat="43.1892917" lon="11.4540533"><ele>179.66666666666669</ele><time>2026-04-20T08:07:57.938Z</time></trkpt><trkpt lat="43.18945" lon="11.4540517"><ele>178.33333333333334</ele><time>2026-04-20T08:07:58.939Z</time></trkpt><trkpt lat="43.1896017" lon="11.454025"><ele>177.0</ele><time>2026-04-20T08:07:59.939Z</time></trkpt><trkpt lat="43.1897567" lon="11.4539767"><ele>177.0</ele><time>2026-04-20T08:08:00.938Z</time></trkpt><trkpt lat="43.1899033" lon="11.4538967"><ele>177.0</ele><time>2026-04-20T08:08:01.938Z</time></trkpt><trkpt lat="43.1900417" lon="11.4538117"><ele>177.0</ele><time>2026-04-20T08:08:02.939Z</time></trkpt><trkpt lat="43.1901817" lon="11.453725"><ele>177.0</ele><time>2026-04-20T08:08:03.938Z</time></trkpt><trkpt lat="43.190325" lon="11.453635"><ele>177.0</ele><time>2026-04-20T08:08:04.938Z</time></trkpt><trkpt lat="43.1904717" lon="11.4535417"><ele>177.0</ele><time>2026-04-20T08:08:05.938Z</time></trkpt><trkpt lat="43.1906233" lon="11.4534633"><ele>175.0</ele><time>2026-04-20T08:08:06.938Z</time></trkpt><trkpt lat="43.19078" lon="11.4534017"><ele>173.0</ele><time>2026-04-20T08:08:07.938Z</time></trkpt><trkpt lat="43.19093" lon="11.453355"><ele>171.0</ele><time>2026-04-20T08:08:08.938Z</time></trkpt><trkpt lat="43.1910867" lon="11.4533383"><ele>171.0</ele><time>2026-04-20T08:08:09.939Z</time></trkpt><trkpt lat="43.19122" lon="11.4533467"><ele>171.0</ele><time>2026-04-20T08:08:10.938Z</time></trkpt><trkpt lat="43.1913433" lon="11.4533667"><ele>171.0</ele><time>2026-04-20T08:08:11.938Z</time></trkpt><trkpt lat="43.191455" lon="11.453435"><ele>171.0</ele><time>2026-04-20T08:08:12.938Z</time></trkpt><trkpt lat="43.1915567" lon="11.4535483"><ele>171.0</ele><time>2026-04-20T08:08:13.938Z</time></trkpt><trkpt lat="43.1916433" lon="11.4537017"><ele>171.0</ele><time>2026-04-20T08:08:14.938Z</time></trkpt><trkpt lat="43.19171" lon="11.4538933"><ele>171.0</ele><time>2026-04-20T08:08:15.938Z</time></trkpt><trkpt lat="43.19178" lon="11.454105"><ele>169.33333333333334</ele><time>2026-04-20T08:08:16.938Z</time></trkpt><trkpt lat="43.1918533" lon="11.45431"><ele>167.66666666666669</ele><time>2026-04-20T08:08:17.938Z</time></trkpt><trkpt lat="43.1919283" lon="11.4544933"><ele>166.0</ele><time>2026-04-20T08:08:18.939Z</time></trkpt><trkpt lat="43.1920133" lon="11.4546483"><ele>166.0</ele><time>2026-04-20T08:08:19.939Z</time></trkpt><trkpt lat="43.1920933" lon="11.4547717"><ele>166.0</ele><time>2026-04-20T08:08:20.938Z</time></trkpt><trkpt lat="43.1922033" lon="11.454875"><ele>166.0</ele><time>2026-04-20T08:08:21.938Z</time></trkpt><trkpt lat="43.1923233" lon="11.45495"><ele>166.0</ele><time>2026-04-20T08:08:22.938Z</time></trkpt><trkpt lat="43.1924533" lon="11.4550067"><ele>166.0</ele><time>2026-04-20T08:08:23.939Z</time></trkpt><trkpt lat="43.1925767" lon="11.4550417"><ele>166.0</ele><time>2026-04-20T08:08:24.938Z</time></trkpt><trkpt lat="43.1927083" lon="11.4550317"><ele>166.0</ele><time>2026-04-20T08:08:25.938Z</time></trkpt><trkpt lat="43.192835" lon="11.4549867"><ele>166.0</ele><time>2026-04-20T08:08:26.938Z</time></trkpt><trkpt lat="43.192945" lon="11.4549117"><ele>166.0</ele><time>2026-04-20T08:08:27.939Z</time></trkpt><trkpt lat="43.193035" lon="11.4548167"><ele>166.0</ele><time>2026-04-20T08:08:28.938Z</time></trkpt><trkpt lat="43.193105" lon="11.4547117"><ele>166.0</ele><time>2026-04-20T08:08:29.939Z</time></trkpt><trkpt lat="43.1931517" lon="11.4545867"><ele>166.0</ele><time>2026-04-20T08:08:30.938Z</time></trkpt><trkpt lat="43.1931583" lon="11.4544383"><ele>166.0</ele><time>2026-04-20T08:08:31.939Z</time></trkpt><trkpt lat="43.1931367" lon="11.4542717"><ele>166.25</ele><time>2026-04-20T08:08:32.938Z</time></trkpt><trkpt lat="43.193105" lon="11.45409"><ele>166.5</ele><time>2026-04-20T08:08:33.938Z</time></trkpt><trkpt lat="43.193065" lon="11.45391"><ele>166.75</ele><time>2026-04-20T08:08:34.938Z</time></trkpt><trkpt lat="43.193005" lon="11.4537267"><ele>167.0</ele><time>2026-04-20T08:08:35.938Z</time></trkpt><trkpt lat="43.192935" lon="11.4535533"><ele>167.0</ele><time>2026-04-20T08:08:36.938Z</time></trkpt><trkpt lat="43.1928533" lon="11.4534017"><ele>167.0</ele><time>2026-04-20T08:08:37.938Z</time></trkpt><trkpt lat="43.1927833" lon="11.45325"><ele>167.0</ele><time>2026-04-20T08:08:38.939Z</time></trkpt><trkpt lat="43.1927267" lon="11.4531017"><ele>167.0</ele><time>2026-04-20T08:08:39.938Z</time></trkpt><trkpt lat="43.1926983" lon="11.452935"><ele>166.5</ele><time>2026-04-20T08:08:40.939Z</time></trkpt><trkpt lat="43.19271" lon="11.4527833"><ele>166.0</ele><time>2026-04-20T08:08:41.939Z</time></trkpt><trkpt lat="43.1927517" lon="11.452635"><ele>165.5</ele><time>2026-04-20T08:08:42.938Z</time></trkpt><trkpt lat="43.1928267" lon="11.4524917"><ele>165.0</ele><time>2026-04-20T08:08:43.938Z</time></trkpt><trkpt lat="43.1929217" lon="11.45235"><ele>165.0</ele><time>2026-04-20T08:08:44.938Z</time></trkpt><trkpt lat="43.1930217" lon="11.452195"><ele>165.0</ele><time>2026-04-20T08:08:45.938Z</time></trkpt><trkpt lat="43.193125" lon="11.45202"><ele>165.0</ele><time>2026-04-20T08:08:46.938Z</time></trkpt><trkpt lat="43.1932333" lon="11.451835"><ele>161.33333333333334</ele><time>2026-04-20T08:08:47.938Z</time></trkpt><trkpt lat="43.1933433" lon="11.4516517"><ele>157.66666666666669</ele><time>2026-04-20T08:08:48.938Z</time></trkpt><trkpt lat="43.1934517" lon="11.4514783"><ele>154.0</ele><time>2026-04-20T08:08:49.939Z</time></trkpt><trkpt lat="43.19355" lon="11.451305"><ele>155.0</ele><time>2026-04-20T08:08:50.938Z</time></trkpt><trkpt lat="43.1936417" lon="11.4511367"><ele>156.0</ele><time>2026-04-20T08:08:51.938Z</time></trkpt><trkpt lat="43.1937367" lon="11.45097"><ele>157.0</ele><time>2026-04-20T08:08:52.938Z</time></trkpt><trkpt lat="43.193825" lon="11.45082"><ele>158.0</ele><time>2026-04-20T08:08:53.938Z</time></trkpt><trkpt lat="43.1939167" lon="11.4506667"><ele>158.0</ele><time>2026-04-20T08:08:54.939Z</time></trkpt><trkpt lat="43.1940017" lon="11.4505167"><ele>158.0</ele><time>2026-04-20T08:08:55.938Z</time></trkpt><trkpt lat="43.1940867" lon="11.45037"><ele>158.0</ele><time>2026-04-20T08:08:56.938Z</time></trkpt><trkpt lat="43.1941683" lon="11.4502183"><ele>158.0</ele><time>2026-04-20T08:08:57.939Z</time></trkpt><trkpt lat="43.194255" lon="11.4500733"><ele>158.5</ele><time>2026-04-20T08:08:58.938Z</time></trkpt><trkpt lat="43.1943433" lon="11.4499283"><ele>159.0</ele><time>2026-04-20T08:08:59.938Z</time></trkpt><trkpt lat="43.1944417" lon="11.4497733"><ele>159.5</ele><time>2026-04-20T08:09:00.939Z</time></trkpt><trkpt lat="43.194535" lon="11.4496117"><ele>160.0</ele><time>2026-04-20T08:09:01.938Z</time></trkpt><trkpt lat="43.19463" lon="11.449455"><ele>159.33333333333334</ele><time>2026-04-20T08:09:02.938Z</time></trkpt><trkpt lat="43.1947283" lon="11.4492883"><ele>158.66666666666666</ele><time>2026-04-20T08:09:03.939Z</time></trkpt><trkpt lat="43.1948217" lon="11.4491233"><ele>158.0</ele><time>2026-04-20T08:09:04.938Z</time></trkpt><trkpt lat="43.1949117" lon="11.4489583"><ele>158.75</ele><time>2026-04-20T08:09:05.938Z</time></trkpt><trkpt lat="43.194995" lon="11.4487883"><ele>159.5</ele><time>2026-04-20T08:09:06.938Z</time></trkpt><trkpt lat="43.1950717" lon="11.4486117"><ele>160.25</ele><time>2026-04-20T08:09:07.938Z</time></trkpt><trkpt lat="43.19514" lon="11.4484333"><ele>161.0</ele><time>2026-04-20T08:09:08.938Z</time></trkpt><trkpt lat="43.1952033" lon="11.44825"><ele>161.0</ele><time>2026-04-20T08:09:09.938Z</time></trkpt><trkpt lat="43.19526" lon="11.4480667"><ele>161.0</ele><time>2026-04-20T08:09:10.939Z</time></trkpt><trkpt lat="43.1953117" lon="11.4478833"><ele>161.0</ele><time>2026-04-20T08:09:11.939Z</time></trkpt><trkpt lat="43.1953567" lon="11.4477"><ele>161.0</ele><time>2026-04-20T08:09:12.939Z</time></trkpt><trkpt lat="43.1954017" lon="11.4475083"><ele>162.25</ele><time>2026-04-20T08:09:13.938Z</time></trkpt><trkpt lat="43.1954333" lon="11.4473117"><ele>163.5</ele><time>2026-04-20T08:09:14.938Z</time></trkpt><trkpt lat="43.195475" lon="11.44712"><ele>164.75</ele><time>2026-04-20T08:09:15.938Z</time></trkpt><trkpt lat="43.1955167" lon="11.446935"><ele>166.0</ele><time>2026-04-20T08:09:16.938Z</time></trkpt><trkpt lat="43.195565" lon="11.446745"><ele>166.75</ele><time>2026-04-20T08:09:17.938Z</time></trkpt><trkpt lat="43.1956083" lon="11.4465533"><ele>167.5</ele><time>2026-04-20T08:09:18.938Z</time></trkpt><trkpt lat="43.1956467" lon="11.4463683"><ele>168.25</ele><time>2026-04-20T08:09:19.938Z</time></trkpt><trkpt lat="43.19568" lon="11.4461917"><ele>169.0</ele><time>2026-04-20T08:09:20.939Z</time></trkpt><trkpt lat="43.195715" lon="11.4460183"><ele>167.0</ele><time>2026-04-20T08:09:21.939Z</time></trkpt><trkpt lat="43.195755" lon="11.44586"><ele>165.0</ele><time>2026-04-20T08:09:22.939Z</time></trkpt><trkpt lat="43.195795" lon="11.44569"><ele>163.0</ele><time>2026-04-20T08:09:23.938Z</time></trkpt><trkpt lat="43.1958383" lon="11.445515"><ele>161.0</ele><time>2026-04-20T08:09:24.938Z</time></trkpt><trkpt lat="43.19589" lon="11.4453317"><ele>161.0</ele><time>2026-04-20T08:09:25.938Z</time></trkpt><trkpt lat="43.1959633" lon="11.4451517"><ele>161.0</ele><time>2026-04-20T08:09:26.938Z</time></trkpt><trkpt lat="43.1960517" lon="11.4449733"><ele>161.0</ele><time>2026-04-20T08:09:27.938Z</time></trkpt><trkpt lat="43.196155" lon="11.4447967"><ele>160.0</ele><time>2026-04-20T08:09:28.939Z</time></trkpt><trkpt lat="43.1962683" lon="11.4446283"><ele>159.0</ele><time>2026-04-20T08:09:29.938Z</time></trkpt><trkpt lat="43.1963883" lon="11.44448"><ele>158.0</ele><time>2026-04-20T08:09:30.938Z</time></trkpt><trkpt lat="43.1965233" lon="11.4443617"><ele>158.0</ele><time>2026-04-20T08:09:31.938Z</time></trkpt><trkpt lat="43.1966667" lon="11.4442667"><ele>158.0</ele><time>2026-04-20T08:09:32.938Z</time></trkpt><trkpt lat="43.196815" lon="11.4441833"><ele>158.0</ele><time>2026-04-20T08:09:33.938Z</time></trkpt><trkpt lat="43.1969617" lon="11.4441"><ele>158.0</ele><time>2026-04-20T08:09:34.939Z</time></trkpt><trkpt lat="43.197115" lon="11.4440183"><ele>158.0</ele><time>2026-04-20T08:09:35.938Z</time></trkpt><trkpt lat="43.1972683" lon="11.44395"><ele>158.0</ele><time>2026-04-20T08:09:36.938Z</time></trkpt><trkpt lat="43.1974133" lon="11.4438767"><ele>158.0</ele><time>2026-04-20T08:09:37.938Z</time></trkpt><trkpt lat="43.1975467" lon="11.4438"><ele>158.0</ele><time>2026-04-20T08:09:38.939Z</time></trkpt><trkpt lat="43.1976783" lon="11.443735"><ele>158.0</ele><time>2026-04-20T08:09:39.939Z</time></trkpt><trkpt lat="43.1978033" lon="11.4436617"><ele>158.0</ele><time>2026-04-20T08:09:40.938Z</time></trkpt><trkpt lat="43.1979233" lon="11.4436"><ele>158.0</ele><time>2026-04-20T08:09:41.938Z</time></trkpt><trkpt lat="43.1980467" lon="11.4435467"><ele>158.0</ele><time>2026-04-20T08:09:42.938Z</time></trkpt><trkpt lat="43.19816" lon="11.4434917"><ele>158.0</ele><time>2026-04-20T08:09:43.938Z</time></trkpt><trkpt lat="43.1982583" lon="11.4434483"><ele>158.0</ele><time>2026-04-20T08:09:44.938Z</time></trkpt><trkpt lat="43.1983383" lon="11.44342"><ele>158.0</ele><time>2026-04-20T08:09:45.938Z</time></trkpt><trkpt lat="43.1984117" lon="11.4434"><ele>158.0</ele><time>2026-04-20T08:09:46.938Z</time></trkpt><trkpt lat="43.1985133" lon="11.4434083"><ele>158.0</ele><time>2026-04-20T08:09:48.938Z</time></trkpt><trkpt lat="43.1985733" lon="11.4435367"><ele>158.0</ele><time>2026-04-20T08:09:50.938Z</time></trkpt><trkpt lat="43.1985917" lon="11.443635"><ele>158.0</ele><time>2026-04-20T08:09:51.938Z</time></trkpt><trkpt lat="43.1986117" lon="11.4437533"><ele>158.0</ele><time>2026-04-20T08:09:52.938Z</time></trkpt><trkpt lat="43.1986383" lon="11.4438833"><ele>157.75</ele><time>2026-04-20T08:09:53.939Z</time></trkpt><trkpt lat="43.1986683" lon="11.4440283"><ele>157.5</ele><time>2026-04-20T08:09:54.939Z</time></trkpt><trkpt lat="43.1987067" lon="11.4441933"><ele>157.25</ele><time>2026-04-20T08:09:55.938Z</time></trkpt><trkpt lat="43.1987433" lon="11.4443683"><ele>157.0</ele><time>2026-04-20T08:09:56.938Z</time></trkpt><trkpt lat="43.198775" lon="11.4445333"><ele>156.75</ele><time>2026-04-20T08:09:57.939Z</time></trkpt><trkpt lat="43.19882" lon="11.4447017"><ele>156.5</ele><time>2026-04-20T08:09:58.938Z</time></trkpt><trkpt lat="43.1988633" lon="11.4448917"><ele>156.25</ele><time>2026-04-20T08:09:59.938Z</time></trkpt><trkpt lat="43.1989117" lon="11.4450833"><ele>156.0</ele><time>2026-04-20T08:10:00.938Z</time></trkpt><trkpt lat="43.19897" lon="11.4452783"><ele>156.0</ele><time>2026-04-20T08:10:01.938Z</time></trkpt><trkpt lat="43.1990183" lon="11.4454817"><ele>156.0</ele><time>2026-04-20T08:10:02.938Z</time></trkpt><trkpt lat="43.1990667" lon="11.4456733"><ele>156.0</ele><time>2026-04-20T08:10:03.938Z</time></trkpt><trkpt lat="43.1991133" lon="11.44587"><ele>156.0</ele><time>2026-04-20T08:10:04.938Z</time></trkpt><trkpt lat="43.1991583" lon="11.4460583"><ele>156.0</ele><time>2026-04-20T08:10:05.938Z</time></trkpt><trkpt lat="43.1992" lon="11.4462417"><ele>156.0</ele><time>2026-04-20T08:10:06.938Z</time></trkpt><trkpt lat="43.19924" lon="11.446425"><ele>156.0</ele><time>2026-04-20T08:10:07.938Z</time></trkpt><trkpt lat="43.199285" lon="11.446595"><ele>155.75</ele><time>2026-04-20T08:10:08.938Z</time></trkpt><trkpt lat="43.1993267" lon="11.4467683"><ele>155.5</ele><time>2026-04-20T08:10:09.939Z</time></trkpt><trkpt lat="43.1993733" lon="11.4469567"><ele>155.25</ele><time>2026-04-20T08:10:10.938Z</time></trkpt><trkpt lat="43.19942" lon="11.4471533"><ele>155.0</ele><time>2026-04-20T08:10:11.938Z</time></trkpt><trkpt lat="43.1994733" lon="11.4473367"><ele>155.0</ele><time>2026-04-20T08:10:12.938Z</time></trkpt><trkpt lat="43.199515" lon="11.44751"><ele>155.0</ele><time>2026-04-20T08:10:13.938Z</time></trkpt><trkpt lat="43.1995517" lon="11.4476817"><ele>155.0</ele><time>2026-04-20T08:10:14.939Z</time></trkpt><trkpt lat="43.1995933" lon="11.4478533"><ele>155.0</ele><time>2026-04-20T08:10:15.938Z</time></trkpt><trkpt lat="43.1996367" lon="11.448035"><ele>155.0</ele><time>2026-04-20T08:10:16.938Z</time></trkpt><trkpt lat="43.199685" lon="11.4482267"><ele>155.0</ele><time>2026-04-20T08:10:17.938Z</time></trkpt><trkpt lat="43.1997283" lon="11.44842"><ele>155.0</ele><time>2026-04-20T08:10:18.939Z</time></trkpt><trkpt lat="43.199775" lon="11.4486033"><ele>155.0</ele><time>2026-04-20T08:10:19.938Z</time></trkpt><trkpt lat="43.19982" lon="11.4487867"><ele>155.25</ele><time>2026-04-20T08:10:20.938Z</time></trkpt><trkpt lat="43.199865" lon="11.4489733"><ele>155.5</ele><time>2026-04-20T08:10:21.938Z</time></trkpt><trkpt lat="43.1999117" lon="11.44917"><ele>155.75</ele><time>2026-04-20T08:10:22.938Z</time></trkpt><trkpt lat="43.1999633" lon="11.4493633"><ele>156.0</ele><time>2026-04-20T08:10:23.939Z</time></trkpt><trkpt lat="43.2000067" lon="11.449565"><ele>156.0</ele><time>2026-04-20T08:10:24.938Z</time></trkpt><trkpt lat="43.2000517" lon="11.449765"><ele>156.0</ele><time>2026-04-20T08:10:25.938Z</time></trkpt><trkpt lat="43.2001067" lon="11.449965"><ele>156.0</ele><time>2026-04-20T08:10:26.938Z</time></trkpt><trkpt lat="43.2001567" lon="11.45017"><ele>156.0</ele><time>2026-04-20T08:10:27.938Z</time></trkpt><trkpt lat="43.2002033" lon="11.4503683"><ele>156.0</ele><time>2026-04-20T08:10:28.938Z</time></trkpt><trkpt lat="43.2002533" lon="11.4505567"><ele>156.0</ele><time>2026-04-20T08:10:29.938Z</time></trkpt><trkpt lat="43.2003" lon="11.4507433"><ele>156.0</ele><time>2026-04-20T08:10:30.938Z</time></trkpt><trkpt lat="43.200345" lon="11.4509433"><ele>156.0</ele><time>2026-04-20T08:10:31.938Z</time></trkpt><trkpt lat="43.2003917" lon="11.4511533"><ele>156.0</ele><time>2026-04-20T08:10:32.938Z</time></trkpt><trkpt lat="43.2004367" lon="11.4513583"><ele>156.0</ele><time>2026-04-20T08:10:33.939Z</time></trkpt><trkpt lat="43.200475" lon="11.45157"><ele>155.5</ele><time>2026-04-20T08:10:34.938Z</time></trkpt><trkpt lat="43.200515" lon="11.4517667"><ele>155.0</ele><time>2026-04-20T08:10:35.938Z</time></trkpt><trkpt lat="43.2005533" lon="11.4519517"><ele>154.5</ele><time>2026-04-20T08:10:36.938Z</time></trkpt><trkpt lat="43.2005833" lon="11.452115"><ele>154.0</ele><time>2026-04-20T08:10:37.938Z</time></trkpt><trkpt lat="43.2006183" lon="11.4522717"><ele>153.8</ele><time>2026-04-20T08:10:38.938Z</time></trkpt><trkpt lat="43.2006533" lon="11.452415"><ele>153.60000000000002</ele><time>2026-04-20T08:10:39.938Z</time></trkpt><trkpt lat="43.2006883" lon="11.452535"><ele>153.4</ele><time>2026-04-20T08:10:40.938Z</time></trkpt><trkpt lat="43.2007383" lon="11.45265"><ele>153.20000000000002</ele><time>2026-04-20T08:10:41.938Z</time></trkpt><trkpt lat="43.2007817" lon="11.4527633"><ele>153.0</ele><time>2026-04-20T08:10:42.939Z</time></trkpt><trkpt lat="43.2008217" lon="11.4528667"><ele>152.83333333333334</ele><time>2026-04-20T08:10:43.938Z</time></trkpt><trkpt lat="43.2008517" lon="11.45297"><ele>152.66666666666666</ele><time>2026-04-20T08:10:44.938Z</time></trkpt><trkpt lat="43.20087" lon="11.4530817"><ele>152.5</ele><time>2026-04-20T08:10:45.938Z</time></trkpt><trkpt lat="43.2008767" lon="11.4532"><ele>152.33333333333331</ele><time>2026-04-20T08:10:46.938Z</time></trkpt><trkpt lat="43.2008833" lon="11.4533217"><ele>152.16666666666666</ele><time>2026-04-20T08:10:47.938Z</time></trkpt><trkpt lat="43.200885" lon="11.4534417"><ele>152.0</ele><time>2026-04-20T08:10:48.938Z</time></trkpt><trkpt lat="43.2008833" lon="11.4535783"><ele>152.0</ele><time>2026-04-20T08:10:49.938Z</time></trkpt><trkpt lat="43.2008767" lon="11.4537217"><ele>152.0</ele><time>2026-04-20T08:10:50.938Z</time></trkpt><trkpt lat="43.2008767" lon="11.4538567"><ele>152.0</ele><time>2026-04-20T08:10:51.938Z</time></trkpt><trkpt lat="43.2008867" lon="11.4540033"><ele>152.0</ele><time>2026-04-20T08:10:52.939Z</time></trkpt><trkpt lat="43.2009117" lon="11.4541367"><ele>152.0</ele><time>2026-04-20T08:10:53.939Z</time></trkpt><trkpt lat="43.2009317" lon="11.45426"><ele>153.16666666666666</ele><time>2026-04-20T08:10:54.939Z</time></trkpt><trkpt lat="43.2009567" lon="11.454375"><ele>154.33333333333331</ele><time>2026-04-20T08:10:55.938Z</time></trkpt><trkpt lat="43.2009617" lon="11.4545017"><ele>155.5</ele><time>2026-04-20T08:10:56.938Z</time></trkpt><trkpt lat="43.20096" lon="11.4546283"><ele>156.66666666666666</ele><time>2026-04-20T08:10:57.938Z</time></trkpt><trkpt lat="43.2009617" lon="11.4547467"><ele>157.83333333333334</ele><time>2026-04-20T08:10:58.938Z</time></trkpt><trkpt lat="43.200965" lon="11.454855"><ele>159.0</ele><time>2026-04-20T08:10:59.938Z</time></trkpt><trkpt lat="43.2009717" lon="11.4549667"><ele>159.8</ele><time>2026-04-20T08:11:00.938Z</time></trkpt><trkpt lat="43.2009683" lon="11.4550683"><ele>160.60000000000002</ele><time>2026-04-20T08:11:01.938Z</time></trkpt><trkpt lat="43.200955" lon="11.4552417"><ele>161.4</ele><time>2026-04-20T08:11:03.938Z</time></trkpt><trkpt lat="43.2009267" lon="11.4553383"><ele>162.20000000000002</ele><time>2026-04-20T08:11:04.938Z</time></trkpt><trkpt lat="43.20088" lon="11.4554383"><ele>163.0</ele><time>2026-04-20T08:11:05.938Z</time></trkpt><trkpt lat="43.2008267" lon="11.4555383"><ele>163.60000000000002</ele><time>2026-04-20T08:11:06.938Z</time></trkpt><trkpt lat="43.200755" lon="11.455635"><ele>164.20000000000002</ele><time>2026-04-20T08:11:07.938Z</time></trkpt><trkpt lat="43.200685" lon="11.45573"><ele>164.8</ele><time>2026-04-20T08:11:08.938Z</time></trkpt><trkpt lat="43.20062" lon="11.4558217"><ele>165.4</ele><time>2026-04-20T08:11:09.939Z</time></trkpt><trkpt lat="43.20055" lon="11.4559217"><ele>166.0</ele><time>2026-04-20T08:11:10.938Z</time></trkpt><trkpt lat="43.2004817" lon="11.4560133"><ele>166.0</ele><time>2026-04-20T08:11:11.939Z</time></trkpt><trkpt lat="43.200415" lon="11.4561"><ele>166.0</ele><time>2026-04-20T08:11:12.938Z</time></trkpt><trkpt lat="43.2003517" lon="11.4561883"><ele>166.0</ele><time>2026-04-20T08:11:13.938Z</time></trkpt><trkpt lat="43.2002883" lon="11.4562783"><ele>166.0</ele><time>2026-04-20T08:11:14.939Z</time></trkpt><trkpt lat="43.2002267" lon="11.456365"><ele>166.0</ele><time>2026-04-20T08:11:15.938Z</time></trkpt><trkpt lat="43.200165" lon="11.4564467"><ele>166.0</ele><time>2026-04-20T08:11:16.938Z</time></trkpt><trkpt lat="43.2001083" lon="11.4565133"><ele>166.0</ele><time>2026-04-20T08:11:17.938Z</time></trkpt><trkpt lat="43.2000567" lon="11.4565767"><ele>166.0</ele><time>2026-04-20T08:11:18.938Z</time></trkpt><trkpt lat="43.1999983" lon="11.4566383"><ele>166.0</ele><time>2026-04-20T08:11:19.939Z</time></trkpt><trkpt lat="43.1999417" lon="11.4567033"><ele>166.0</ele><time>2026-04-20T08:11:20.938Z</time></trkpt><trkpt lat="43.19988" lon="11.4567833"><ele>166.0</ele><time>2026-04-20T08:11:21.938Z</time></trkpt><trkpt lat="43.1998133" lon="11.4568783"><ele>166.0</ele><time>2026-04-20T08:11:22.939Z</time></trkpt><trkpt lat="43.199745" lon="11.4569733"><ele>165.8</ele><time>2026-04-20T08:11:23.938Z</time></trkpt><trkpt lat="43.1996783" lon="11.45707"><ele>165.60000000000002</ele><time>2026-04-20T08:11:24.938Z</time></trkpt><trkpt lat="43.1996067" lon="11.4571733"><ele>165.4</ele><time>2026-04-20T08:11:25.938Z</time></trkpt><trkpt lat="43.1995267" lon="11.4572717"><ele>165.2</ele><time>2026-04-20T08:11:26.939Z</time></trkpt><trkpt lat="43.1994467" lon="11.4573683"><ele>165.0</ele><time>2026-04-20T08:11:27.939Z</time></trkpt><trkpt lat="43.19936" lon="11.45746"><ele>165.0</ele><time>2026-04-20T08:11:28.938Z</time></trkpt><trkpt lat="43.1992683" lon="11.4575617"><ele>165.0</ele><time>2026-04-20T08:11:29.938Z</time></trkpt><trkpt lat="43.1991833" lon="11.4576467"><ele>165.0</ele><time>2026-04-20T08:11:30.938Z</time></trkpt><trkpt lat="43.199105" lon="11.4577233"><ele>165.0</ele><time>2026-04-20T08:11:31.938Z</time></trkpt><trkpt lat="43.1990333" lon="11.4578067"><ele>165.0</ele><time>2026-04-20T08:11:32.938Z</time></trkpt><trkpt lat="43.198975" lon="11.4578917"><ele>164.16666666666666</ele><time>2026-04-20T08:11:33.938Z</time></trkpt><trkpt lat="43.1989167" lon="11.4579633"><ele>163.33333333333334</ele><time>2026-04-20T08:11:34.938Z</time></trkpt><trkpt lat="43.1988583" lon="11.4580417"><ele>162.5</ele><time>2026-04-20T08:11:35.939Z</time></trkpt><trkpt lat="43.1988067" lon="11.45812"><ele>161.66666666666669</ele><time>2026-04-20T08:11:36.939Z</time></trkpt><trkpt lat="43.198755" lon="11.4581917"><ele>160.83333333333334</ele><time>2026-04-20T08:11:37.939Z</time></trkpt><trkpt lat="43.1987033" lon="11.4582717"><ele>160.0</ele><time>2026-04-20T08:11:38.939Z</time></trkpt><trkpt lat="43.1986417" lon="11.4583733"><ele>160.0</ele><time>2026-04-20T08:11:39.938Z</time></trkpt><trkpt lat="43.1985883" lon="11.4584683"><ele>160.0</ele><time>2026-04-20T08:11:40.939Z</time></trkpt><trkpt lat="43.198515" lon="11.4585833"><ele>160.0</ele><time>2026-04-20T08:11:41.938Z</time></trkpt><trkpt lat="43.198435" lon="11.4587083"><ele>160.0</ele><time>2026-04-20T08:11:42.938Z</time></trkpt><trkpt lat="43.1983617" lon="11.4588317"><ele>160.0</ele><time>2026-04-20T08:11:43.938Z</time></trkpt><trkpt lat="43.198285" lon="11.4589617"><ele>159.5</ele><time>2026-04-20T08:11:44.938Z</time></trkpt><trkpt lat="43.1982067" lon="11.45909"><ele>159.0</ele><time>2026-04-20T08:11:45.939Z</time></trkpt><trkpt lat="43.19813" lon="11.4592233"><ele>158.5</ele><time>2026-04-20T08:11:46.938Z</time></trkpt><trkpt lat="43.19805" lon="11.459355"><ele>158.0</ele><time>2026-04-20T08:11:47.938Z</time></trkpt><trkpt lat="43.197975" lon="11.45948"><ele>157.25</ele><time>2026-04-20T08:11:48.938Z</time></trkpt><trkpt lat="43.1979083" lon="11.459605"><ele>156.5</ele><time>2026-04-20T08:11:49.938Z</time></trkpt><trkpt lat="43.1978333" lon="11.4597333"><ele>155.75</ele><time>2026-04-20T08:11:50.938Z</time></trkpt><trkpt lat="43.19776" lon="11.459865"><ele>155.0</ele><time>2026-04-20T08:11:51.938Z</time></trkpt><trkpt lat="43.1976767" lon="11.459985"><ele>155.0</ele><time>2026-04-20T08:11:52.938Z</time></trkpt><trkpt lat="43.1975967" lon="11.4601083"><ele>155.0</ele><time>2026-04-20T08:11:53.938Z</time></trkpt><trkpt lat="43.1975167" lon="11.4602167"><ele>155.0</ele><time>2026-04-20T08:11:54.938Z</time></trkpt><trkpt lat="43.1974367" lon="11.4603333"><ele>155.0</ele><time>2026-04-20T08:11:55.939Z</time></trkpt><trkpt lat="43.1973583" lon="11.4604567"><ele>155.25</ele><time>2026-04-20T08:11:56.938Z</time></trkpt><trkpt lat="43.19728" lon="11.46057"><ele>155.5</ele><time>2026-04-20T08:11:57.939Z</time></trkpt><trkpt lat="43.1972067" lon="11.46069"><ele>155.75</ele><time>2026-04-20T08:11:58.939Z</time></trkpt><trkpt lat="43.1971317" lon="11.460805"><ele>156.0</ele><time>2026-04-20T08:11:59.938Z</time></trkpt><trkpt lat="43.1970483" lon="11.46092"><ele>156.0</ele><time>2026-04-20T08:12:00.939Z</time></trkpt><trkpt lat="43.1969783" lon="11.46105"><ele>156.0</ele><time>2026-04-20T08:12:01.939Z</time></trkpt><trkpt lat="43.1969017" lon="11.4611733"><ele>156.0</ele><time>2026-04-20T08:12:02.938Z</time></trkpt><trkpt lat="43.196825" lon="11.4612917"><ele>156.0</ele><time>2026-04-20T08:12:03.938Z</time></trkpt><trkpt lat="43.1967467" lon="11.4614083"><ele>155.75</ele><time>2026-04-20T08:12:04.938Z</time></trkpt><trkpt lat="43.196675" lon="11.4615217"><ele>155.5</ele><time>2026-04-20T08:12:05.938Z</time></trkpt><trkpt lat="43.1966" lon="11.461635"><ele>155.25</ele><time>2026-04-20T08:12:06.939Z</time></trkpt><trkpt lat="43.1965233" lon="11.46175"><ele>155.0</ele><time>2026-04-20T08:12:07.939Z</time></trkpt><trkpt lat="43.196445" lon="11.4618683"><ele>154.25</ele><time>2026-04-20T08:12:08.939Z</time></trkpt><trkpt lat="43.19637" lon="11.4619817"><ele>153.5</ele><time>2026-04-20T08:12:09.938Z</time></trkpt><trkpt lat="43.1962983" lon="11.462105"><ele>152.75</ele><time>2026-04-20T08:12:10.938Z</time></trkpt><trkpt lat="43.19622" lon="11.4622367"><ele>152.0</ele><time>2026-04-20T08:12:11.939Z</time></trkpt><trkpt lat="43.1961517" lon="11.4623517"><ele>151.79999999999998</ele><time>2026-04-20T08:12:12.938Z</time></trkpt><trkpt lat="43.1960933" lon="11.4624617"><ele>151.6</ele><time>2026-04-20T08:12:13.939Z</time></trkpt><trkpt lat="43.196045" lon="11.4625817"><ele>151.39999999999998</ele><time>2026-04-20T08:12:14.939Z</time></trkpt><trkpt lat="43.195995" lon="11.4627"><ele>151.2</ele><time>2026-04-20T08:12:15.938Z</time></trkpt><trkpt lat="43.1959467" lon="11.4628267"><ele>151.0</ele><time>2026-04-20T08:12:16.938Z</time></trkpt><trkpt lat="43.1958983" lon="11.4629683"><ele>150.75</ele><time>2026-04-20T08:12:17.938Z</time></trkpt><trkpt lat="43.195845" lon="11.4631167"><ele>150.5</ele><time>2026-04-20T08:12:18.938Z</time></trkpt><trkpt lat="43.19579" lon="11.4632717"><ele>150.25</ele><time>2026-04-20T08:12:19.938Z</time></trkpt><trkpt lat="43.195735" lon="11.463425"><ele>150.0</ele><time>2026-04-20T08:12:20.938Z</time></trkpt><trkpt lat="43.1956783" lon="11.4635783"><ele>150.0</ele><time>2026-04-20T08:12:21.938Z</time></trkpt><trkpt lat="43.1956083" lon="11.4637367"><ele>150.0</ele><time>2026-04-20T08:12:22.939Z</time></trkpt><trkpt lat="43.1955433" lon="11.46389"><ele>150.0</ele><time>2026-04-20T08:12:23.938Z</time></trkpt><trkpt lat="43.1954783" lon="11.4640367"><ele>150.0</ele><time>2026-04-20T08:12:24.938Z</time></trkpt><trkpt lat="43.1954133" lon="11.4641917"><ele>150.25</ele><time>2026-04-20T08:12:25.938Z</time></trkpt><trkpt lat="43.1953517" lon="11.4643467"><ele>150.5</ele><time>2026-04-20T08:12:26.938Z</time></trkpt><trkpt lat="43.1952867" lon="11.464495"><ele>150.75</ele><time>2026-04-20T08:12:27.939Z</time></trkpt><trkpt lat="43.1952267" lon="11.4646417"><ele>151.0</ele><time>2026-04-20T08:12:28.938Z</time></trkpt><trkpt lat="43.1951683" lon="11.464775"><ele>151.4</ele><time>2026-04-20T08:12:29.938Z</time></trkpt><trkpt lat="43.1951167" lon="11.4649067"><ele>151.8</ele><time>2026-04-20T08:12:30.938Z</time></trkpt><trkpt lat="43.195065" lon="11.4650383"><ele>152.20000000000002</ele><time>2026-04-20T08:12:31.938Z</time></trkpt><trkpt lat="43.1950183" lon="11.4651533"><ele>152.6</ele><time>2026-04-20T08:12:32.938Z</time></trkpt><trkpt lat="43.194975" lon="11.4652583"><ele>153.0</ele><time>2026-04-20T08:12:33.938Z</time></trkpt><trkpt lat="43.1949367" lon="11.4653567"><ele>153.4</ele><time>2026-04-20T08:12:34.938Z</time></trkpt><trkpt lat="43.1949083" lon="11.46545"><ele>153.8</ele><time>2026-04-20T08:12:35.938Z</time></trkpt><trkpt lat="43.194885" lon="11.4656033"><ele>154.2</ele><time>2026-04-20T08:12:37.938Z</time></trkpt><trkpt lat="43.1949117" lon="11.4657533"><ele>154.6</ele><time>2026-04-20T08:12:39.938Z</time></trkpt><trkpt lat="43.1949533" lon="11.4658317"><ele>155.0</ele><time>2026-04-20T08:12:40.938Z</time></trkpt><trkpt lat="43.1950133" lon="11.4659167"><ele>155.0</ele><time>2026-04-20T08:12:41.938Z</time></trkpt><trkpt lat="43.195085" lon="11.46601"><ele>155.0</ele><time>2026-04-20T08:12:42.938Z</time></trkpt><trkpt lat="43.195155" lon="11.4660967"><ele>155.0</ele><time>2026-04-20T08:12:43.938Z</time></trkpt><trkpt lat="43.19522" lon="11.4661717"><ele>155.0</ele><time>2026-04-20T08:12:44.938Z</time></trkpt><trkpt lat="43.1952833" lon="11.4662617"><ele>155.0</ele><time>2026-04-20T08:12:45.938Z</time></trkpt><trkpt lat="43.19534" lon="11.4663617"><ele>155.6</ele><time>2026-04-20T08:12:46.938Z</time></trkpt><trkpt lat="43.19538" lon="11.4664783"><ele>156.2</ele><time>2026-04-20T08:12:47.938Z</time></trkpt><trkpt lat="43.1954083" lon="11.4666067"><ele>156.8</ele><time>2026-04-20T08:12:48.938Z</time></trkpt><trkpt lat="43.1954317" lon="11.4667367"><ele>157.4</ele><time>2026-04-20T08:12:49.938Z</time></trkpt><trkpt lat="43.1954467" lon="11.4668733"><ele>158.0</ele><time>2026-04-20T08:12:50.938Z</time></trkpt><trkpt lat="43.19546" lon="11.4670167"><ele>158.4</ele><time>2026-04-20T08:12:51.938Z</time></trkpt><trkpt lat="43.1954717" lon="11.46716"><ele>158.8</ele><time>2026-04-20T08:12:52.939Z</time></trkpt><trkpt lat="43.1954933" lon="11.4672883"><ele>159.2</ele><time>2026-04-20T08:12:53.939Z</time></trkpt><trkpt lat="43.195525" lon="11.46741"><ele>159.6</ele><time>2026-04-20T08:12:54.939Z</time></trkpt><trkpt lat="43.1955733" lon="11.46751"><ele>160.0</ele><time>2026-04-20T08:12:55.939Z</time></trkpt><trkpt lat="43.195635" lon="11.46759"><ele>160.83333333333334</ele><time>2026-04-20T08:12:56.938Z</time></trkpt><trkpt lat="43.1957067" lon="11.467635"><ele>161.66666666666669</ele><time>2026-04-20T08:12:57.939Z</time></trkpt><trkpt lat="43.195795" lon="11.4676733"><ele>162.5</ele><time>2026-04-20T08:12:58.938Z</time></trkpt><trkpt lat="43.1958867" lon="11.4676917"><ele>163.33333333333334</ele><time>2026-04-20T08:12:59.938Z</time></trkpt><trkpt lat="43.195975" lon="11.4677167"><ele>164.16666666666666</ele><time>2026-04-20T08:13:00.939Z</time></trkpt><trkpt lat="43.1960533" lon="11.4677667"><ele>165.0</ele><time>2026-04-20T08:13:01.938Z</time></trkpt><trkpt lat="43.19613" lon="11.467815"><ele>165.0</ele><time>2026-04-20T08:13:02.938Z</time></trkpt><trkpt lat="43.19621" lon="11.467885"><ele>165.0</ele><time>2026-04-20T08:13:03.938Z</time></trkpt><trkpt lat="43.1962833" lon="11.4679717"><ele>165.0</ele><time>2026-04-20T08:13:04.938Z</time></trkpt><trkpt lat="43.1963483" lon="11.4680633"><ele>165.0</ele><time>2026-04-20T08:13:05.939Z</time></trkpt><trkpt lat="43.1964067" lon="11.4681617"><ele>165.0</ele><time>2026-04-20T08:13:06.939Z</time></trkpt><trkpt lat="43.1964683" lon="11.4682617"><ele>166.66666666666666</ele><time>2026-04-20T08:13:07.939Z</time></trkpt><trkpt lat="43.1965183" lon="11.4683667"><ele>168.33333333333334</ele><time>2026-04-20T08:13:08.938Z</time></trkpt><trkpt lat="43.1965617" lon="11.4684783"><ele>170.0</ele><time>2026-04-20T08:13:09.938Z</time></trkpt><trkpt lat="43.1965917" lon="11.4685967"><ele>171.66666666666669</ele><time>2026-04-20T08:13:10.938Z</time></trkpt><trkpt lat="43.196615" lon="11.46872"><ele>173.33333333333334</ele><time>2026-04-20T08:13:11.938Z</time></trkpt><trkpt lat="43.19663" lon="11.4688267"><ele>175.0</ele><time>2026-04-20T08:13:12.939Z</time></trkpt><trkpt lat="43.1966583" lon="11.4689217"><ele>176.2</ele><time>2026-04-20T08:13:13.938Z</time></trkpt><trkpt lat="43.1966983" lon="11.4690183"><ele>177.4</ele><time>2026-04-20T08:13:14.938Z</time></trkpt><trkpt lat="43.1967567" lon="11.4691133"><ele>178.60000000000002</ele><time>2026-04-20T08:13:15.938Z</time></trkpt><trkpt lat="43.19682" lon="11.4692183"><ele>179.8</ele><time>2026-04-20T08:13:16.938Z</time></trkpt><trkpt lat="43.1968817" lon="11.4693183"><ele>181.0</ele><time>2026-04-20T08:13:17.938Z</time></trkpt><trkpt lat="43.1969417" lon="11.4694233"><ele>181.0</ele><time>2026-04-20T08:13:18.938Z</time></trkpt><trkpt lat="43.1969917" lon="11.46953"><ele>181.0</ele><time>2026-04-20T08:13:19.939Z</time></trkpt><trkpt lat="43.197045" lon="11.469645"><ele>181.0</ele><time>2026-04-20T08:13:20.938Z</time></trkpt><trkpt lat="43.1970883" lon="11.4697683"><ele>181.0</ele><time>2026-04-20T08:13:21.938Z</time></trkpt><trkpt lat="43.197135" lon="11.4698833"><ele>181.0</ele><time>2026-04-20T08:13:22.938Z</time></trkpt><trkpt lat="43.1971817" lon="11.4700033"><ele>181.20000000000002</ele><time>2026-04-20T08:13:23.938Z</time></trkpt><trkpt lat="43.1972217" lon="11.4701217"><ele>181.4</ele><time>2026-04-20T08:13:24.938Z</time></trkpt><trkpt lat="43.1972617" lon="11.4702333"><ele>181.6</ele><time>2026-04-20T08:13:25.938Z</time></trkpt><trkpt lat="43.19731" lon="11.4703367"><ele>181.8</ele><time>2026-04-20T08:13:26.938Z</time></trkpt><trkpt lat="43.19737" lon="11.4704317"><ele>182.0</ele><time>2026-04-20T08:13:27.938Z</time></trkpt><trkpt lat="43.1974383" lon="11.470505"><ele>185.6</ele><time>2026-04-20T08:13:28.938Z</time></trkpt><trkpt lat="43.197515" lon="11.47056"><ele>189.2</ele><time>2026-04-20T08:13:29.938Z</time></trkpt><trkpt lat="43.1975967" lon="11.4706017"><ele>192.8</ele><time>2026-04-20T08:13:30.938Z</time></trkpt><trkpt lat="43.19769" lon="11.470625"><ele>196.4</ele><time>2026-04-20T08:13:31.939Z</time></trkpt><trkpt lat="43.1977867" lon="11.4706367"><ele>200.0</ele><time>2026-04-20T08:13:32.938Z</time></trkpt><trkpt lat="43.1978733" lon="11.47064"><ele>200.0</ele><time>2026-04-20T08:13:33.938Z</time></trkpt><trkpt lat="43.1979583" lon="11.4706667"><ele>200.0</ele><time>2026-04-20T08:13:34.938Z</time></trkpt><trkpt lat="43.1980367" lon="11.4707133"><ele>200.0</ele><time>2026-04-20T08:13:35.938Z</time></trkpt><trkpt lat="43.198115" lon="11.4707783"><ele>200.0</ele><time>2026-04-20T08:13:36.939Z</time></trkpt><trkpt lat="43.19819" lon="11.470865"><ele>200.0</ele><time>2026-04-20T08:13:37.939Z</time></trkpt><trkpt lat="43.19826" lon="11.470965"><ele>200.8</ele><time>2026-04-20T08:13:38.939Z</time></trkpt><trkpt lat="43.1983233" lon="11.4710683"><ele>201.6</ele><time>2026-04-20T08:13:39.938Z</time></trkpt><trkpt lat="43.198375" lon="11.4711883"><ele>202.39999999999998</ele><time>2026-04-20T08:13:40.938Z</time></trkpt><trkpt lat="43.198425" lon="11.471315"><ele>203.2</ele><time>2026-04-20T08:13:41.939Z</time></trkpt><trkpt lat="43.19846" lon="11.4714383"><ele>204.0</ele><time>2026-04-20T08:13:42.938Z</time></trkpt><trkpt lat="43.19849" lon="11.4715683"><ele>205.2</ele><time>2026-04-20T08:13:43.939Z</time></trkpt><trkpt lat="43.1985167" lon="11.4716883"><ele>206.39999999999998</ele><time>2026-04-20T08:13:44.938Z</time></trkpt><trkpt lat="43.1985333" lon="11.471805"><ele>207.6</ele><time>2026-04-20T08:13:45.939Z</time></trkpt><trkpt lat="43.1985383" lon="11.471935"><ele>208.8</ele><time>2026-04-20T08:13:46.938Z</time></trkpt><trkpt lat="43.19853" lon="11.4720783"><ele>210.0</ele><time>2026-04-20T08:13:47.938Z</time></trkpt><trkpt lat="43.198515" lon="11.4722267"><ele>210.6</ele><time>2026-04-20T08:13:48.939Z</time></trkpt><trkpt lat="43.1984983" lon="11.47237"><ele>211.2</ele><time>2026-04-20T08:13:49.939Z</time></trkpt><trkpt lat="43.1984833" lon="11.4724983"><ele>211.8</ele><time>2026-04-20T08:13:50.938Z</time></trkpt><trkpt lat="43.1984833" lon="11.4726183"><ele>212.4</ele><time>2026-04-20T08:13:51.938Z</time></trkpt><trkpt lat="43.1984833" lon="11.47274"><ele>213.0</ele><time>2026-04-20T08:13:52.938Z</time></trkpt><trkpt lat="43.1984933" lon="11.4728617"><ele>213.2</ele><time>2026-04-20T08:13:53.938Z</time></trkpt><trkpt lat="43.198535" lon="11.4729867"><ele>213.4</ele><time>2026-04-20T08:13:54.938Z</time></trkpt><trkpt lat="43.198595" lon="11.473115"><ele>213.59999999999997</ele><time>2026-04-20T08:13:55.938Z</time></trkpt><trkpt lat="43.1986617" lon="11.4732317"><ele>213.79999999999998</ele><time>2026-04-20T08:13:56.939Z</time></trkpt><trkpt lat="43.1987233" lon="11.473345"><ele>214.0</ele><time>2026-04-20T08:13:57.938Z</time></trkpt><trkpt lat="43.1987667" lon="11.4734383"><ele>214.0</ele><time>2026-04-20T08:13:58.938Z</time></trkpt><trkpt lat="43.1988033" lon="11.4735367"><ele>213.99999999999997</ele><time>2026-04-20T08:13:59.938Z</time></trkpt><trkpt lat="43.1988283" lon="11.4736433"><ele>213.99999999999997</ele><time>2026-04-20T08:14:00.938Z</time></trkpt><trkpt lat="43.1988467" lon="11.4737567"><ele>214.0</ele><time>2026-04-20T08:14:01.939Z</time></trkpt><trkpt lat="43.1988517" lon="11.4739"><ele>214.0</ele><time>2026-04-20T08:14:02.938Z</time></trkpt><trkpt lat="43.198855" lon="11.4740483"><ele>212.2</ele><time>2026-04-20T08:14:03.938Z</time></trkpt><trkpt lat="43.19886" lon="11.4741883"><ele>210.39999999999998</ele><time>2026-04-20T08:14:04.938Z</time></trkpt><trkpt lat="43.1988783" lon="11.47432"><ele>208.6</ele><time>2026-04-20T08:14:05.938Z</time></trkpt><trkpt lat="43.1989117" lon="11.47443"><ele>206.8</ele><time>2026-04-20T08:14:06.938Z</time></trkpt><trkpt lat="43.1989533" lon="11.4745383"><ele>205.0</ele><time>2026-04-20T08:14:07.938Z</time></trkpt><trkpt lat="43.1990017" lon="11.4746467"><ele>203.5</ele><time>2026-04-20T08:14:08.939Z</time></trkpt><trkpt lat="43.1990667" lon="11.4747667"><ele>202.0</ele><time>2026-04-20T08:14:09.939Z</time></trkpt><trkpt lat="43.1991367" lon="11.474895"><ele>200.5</ele><time>2026-04-20T08:14:10.938Z</time></trkpt><trkpt lat="43.1992083" lon="11.4750217"><ele>199.0</ele><time>2026-04-20T08:14:11.938Z</time></trkpt><trkpt lat="43.199275" lon="11.47514"><ele>199.0</ele><time>2026-04-20T08:14:12.939Z</time></trkpt><trkpt lat="43.1993467" lon="11.47526"><ele>199.0</ele><time>2026-04-20T08:14:13.938Z</time></trkpt><trkpt lat="43.1994233" lon="11.4753817"><ele>199.0</ele><time>2026-04-20T08:14:14.939Z</time></trkpt><trkpt lat="43.1995" lon="11.4754883"><ele>199.0</ele><time>2026-04-20T08:14:15.938Z</time></trkpt><trkpt lat="43.199585" lon="11.4755883"><ele>200.39999999999998</ele><time>2026-04-20T08:14:16.938Z</time></trkpt><trkpt lat="43.199675" lon="11.4756783"><ele>201.8</ele><time>2026-04-20T08:14:17.939Z</time></trkpt><trkpt lat="43.1997717" lon="11.4757567"><ele>203.2</ele><time>2026-04-20T08:14:18.939Z</time></trkpt><trkpt lat="43.19988" lon="11.4758183"><ele>204.60000000000002</ele><time>2026-04-20T08:14:19.938Z</time></trkpt><trkpt lat="43.1999667" lon="11.475885"><ele>206.0</ele><time>2026-04-20T08:14:20.939Z</time></trkpt><trkpt lat="43.200055" lon="11.4759633"><ele>206.0</ele><time>2026-04-20T08:14:21.938Z</time></trkpt><trkpt lat="43.2001333" lon="11.4760633"><ele>206.0</ele><time>2026-04-20T08:14:22.939Z</time></trkpt><trkpt lat="43.2002233" lon="11.4761717"><ele>206.0</ele><time>2026-04-20T08:14:23.938Z</time></trkpt><trkpt lat="43.2003233" lon="11.4762867"><ele>206.0</ele><time>2026-04-20T08:14:24.939Z</time></trkpt><trkpt lat="43.20042" lon="11.4763733"><ele>207.0</ele><time>2026-04-20T08:14:25.938Z</time></trkpt><trkpt lat="43.20051" lon="11.4764633"><ele>208.0</ele><time>2026-04-20T08:14:26.938Z</time></trkpt><trkpt lat="43.2006017" lon="11.4765583"><ele>209.0</ele><time>2026-04-20T08:14:27.938Z</time></trkpt><trkpt lat="43.200685" lon="11.4766833"><ele>210.0</ele><time>2026-04-20T08:14:28.939Z</time></trkpt><trkpt lat="43.2007517" lon="11.4768067"><ele>210.0</ele><time>2026-04-20T08:14:29.938Z</time></trkpt><trkpt lat="43.2008167" lon="11.4769317"><ele>210.0</ele><time>2026-04-20T08:14:30.938Z</time></trkpt><trkpt lat="43.20087" lon="11.47706"><ele>210.0</ele><time>2026-04-20T08:14:31.938Z</time></trkpt><trkpt lat="43.2009267" lon="11.47719"><ele>210.0</ele><time>2026-04-20T08:14:32.938Z</time></trkpt><trkpt lat="43.2009833" lon="11.4773167"><ele>210.0</ele><time>2026-04-20T08:14:33.938Z</time></trkpt><trkpt lat="43.201035" lon="11.4774483"><ele>209.2</ele><time>2026-04-20T08:14:34.938Z</time></trkpt><trkpt lat="43.20108" lon="11.4775733"><ele>208.4</ele><time>2026-04-20T08:14:35.939Z</time></trkpt><trkpt lat="43.2011283" lon="11.4776983"><ele>207.60000000000002</ele><time>2026-04-20T08:14:36.939Z</time></trkpt><trkpt lat="43.20118" lon="11.477825"><ele>206.8</ele><time>2026-04-20T08:14:37.938Z</time></trkpt><trkpt lat="43.20123" lon="11.4779517"><ele>206.0</ele><time>2026-04-20T08:14:38.938Z</time></trkpt><trkpt lat="43.2012883" lon="11.478085"><ele>206.60000000000002</ele><time>2026-04-20T08:14:39.938Z</time></trkpt><trkpt lat="43.20134" lon="11.478215"><ele>207.2</ele><time>2026-04-20T08:14:40.938Z</time></trkpt><trkpt lat="43.2013917" lon="11.4783467"><ele>207.8</ele><time>2026-04-20T08:14:41.939Z</time></trkpt><trkpt lat="43.2014467" lon="11.4784783"><ele>208.39999999999998</ele><time>2026-04-20T08:14:42.938Z</time></trkpt><trkpt lat="43.2015" lon="11.47861"><ele>209.0</ele><time>2026-04-20T08:14:43.938Z</time></trkpt><trkpt lat="43.20155" lon="11.47876"><ele>210.0</ele><time>2026-04-20T08:14:44.939Z</time></trkpt><trkpt lat="43.20161" lon="11.4789033"><ele>211.0</ele><time>2026-04-20T08:14:45.938Z</time></trkpt><trkpt lat="43.2016633" lon="11.4790583"><ele>212.0</ele><time>2026-04-20T08:14:46.938Z</time></trkpt><trkpt lat="43.201705" lon="11.4791983"><ele>213.0</ele><time>2026-04-20T08:14:47.938Z</time></trkpt><trkpt lat="43.201745" lon="11.4793383"><ele>213.0</ele><time>2026-04-20T08:14:48.938Z</time></trkpt><trkpt lat="43.2017833" lon="11.479485"><ele>213.0</ele><time>2026-04-20T08:14:49.939Z</time></trkpt><trkpt lat="43.2018233" lon="11.4796467"><ele>213.0</ele><time>2026-04-20T08:14:50.938Z</time></trkpt><trkpt lat="43.2018683" lon="11.4798167"><ele>213.0</ele><time>2026-04-20T08:14:51.938Z</time></trkpt><trkpt lat="43.2019183" lon="11.4799767"><ele>212.75</ele><time>2026-04-20T08:14:52.938Z</time></trkpt><trkpt lat="43.20197" lon="11.4801283"><ele>212.5</ele><time>2026-04-20T08:14:53.937Z</time></trkpt><trkpt lat="43.202025" lon="11.480285"><ele>212.25</ele><time>2026-04-20T08:14:54.938Z</time></trkpt><trkpt lat="43.2020767" lon="11.4804383"><ele>212.0</ele><time>2026-04-20T08:14:55.937Z</time></trkpt><trkpt lat="43.2021217" lon="11.4805817"><ele>211.25</ele><time>2026-04-20T08:14:56.937Z</time></trkpt><trkpt lat="43.2021733" lon="11.4807167"><ele>210.5</ele><time>2026-04-20T08:14:57.937Z</time></trkpt><trkpt lat="43.2022167" lon="11.4808733"><ele>209.75</ele><time>2026-04-20T08:14:58.938Z</time></trkpt><trkpt lat="43.2022451" lon="11.4810269"><ele>209.0</ele><time>2026-04-20T08:14:59.937Z</time></trkpt><trkpt lat="43.2022702" lon="11.4811867"><ele>210.0</ele><time>2026-04-20T08:15:00.937Z</time></trkpt><trkpt lat="43.2022919" lon="11.4813404"><ele>211.0</ele><time>2026-04-20T08:15:01.938Z</time></trkpt><trkpt lat="43.2023067" lon="11.4814792"><ele>211.99999999999997</ele><time>2026-04-20T08:15:02.937Z</time></trkpt><trkpt lat="43.2023244" lon="11.4816198"><ele>213.0</ele><time>2026-04-20T08:15:03.937Z</time></trkpt><trkpt lat="43.2023306" lon="11.4817699"><ele>214.0</ele><time>2026-04-20T08:15:04.937Z</time></trkpt><trkpt lat="43.2023188" lon="11.4819145"><ele>214.0</ele><time>2026-04-20T08:15:05.938Z</time></trkpt><trkpt lat="43.2022991" lon="11.482058"><ele>213.99999999999997</ele><time>2026-04-20T08:15:06.937Z</time></trkpt><trkpt lat="43.2022718" lon="11.4821977"><ele>213.99999999999997</ele><time>2026-04-20T08:15:07.937Z</time></trkpt><trkpt lat="43.2022408" lon="11.4823322"><ele>214.0</ele><time>2026-04-20T08:15:08.937Z</time></trkpt><trkpt lat="43.2022164" lon="11.4824714"><ele>214.0</ele><time>2026-04-20T08:15:09.937Z</time></trkpt><trkpt lat="43.2022012" lon="11.4826123"><ele>215.79999999999998</ele><time>2026-04-20T08:15:10.937Z</time></trkpt><trkpt lat="43.2021934" lon="11.4827623"><ele>217.59999999999997</ele><time>2026-04-20T08:15:11.937Z</time></trkpt><trkpt lat="43.202196" lon="11.4829017"><ele>219.4</ele><time>2026-04-20T08:15:12.937Z</time></trkpt><trkpt lat="43.2021951" lon="11.4830345"><ele>221.2</ele><time>2026-04-20T08:15:13.938Z</time></trkpt><trkpt lat="43.2021826" lon="11.4831651"><ele>223.0</ele><time>2026-04-20T08:15:14.937Z</time></trkpt><trkpt lat="43.2021519" lon="11.4832821"><ele>225.8</ele><time>2026-04-20T08:15:15.938Z</time></trkpt><trkpt lat="43.2021035" lon="11.4833905"><ele>228.60000000000002</ele><time>2026-04-20T08:15:16.937Z</time></trkpt><trkpt lat="43.202048" lon="11.4834957"><ele>231.39999999999998</ele><time>2026-04-20T08:15:17.937Z</time></trkpt><trkpt lat="43.2019861" lon="11.4836027"><ele>234.2</ele><time>2026-04-20T08:15:18.938Z</time></trkpt><trkpt lat="43.2019192" lon="11.483702"><ele>237.0</ele><time>2026-04-20T08:15:19.937Z</time></trkpt><trkpt lat="43.2018513" lon="11.4837987"><ele>239.66666666666666</ele><time>2026-04-20T08:15:20.937Z</time></trkpt><trkpt lat="43.2018045" lon="11.4838898"><ele>242.33333333333331</ele><time>2026-04-20T08:15:21.937Z</time></trkpt><trkpt lat="43.201776" lon="11.4839827"><ele>245.0</ele><time>2026-04-20T08:15:22.937Z</time></trkpt><trkpt lat="43.2017652" lon="11.4840753"><ele>247.66666666666666</ele><time>2026-04-20T08:15:23.938Z</time></trkpt><trkpt lat="43.201775" lon="11.4841747"><ele>250.33333333333331</ele><time>2026-04-20T08:15:24.937Z</time></trkpt><trkpt lat="43.2018046" lon="11.484276"><ele>253.0</ele><time>2026-04-20T08:15:25.938Z</time></trkpt><trkpt lat="43.2018527" lon="11.4843729"><ele>252.99999999999997</ele><time>2026-04-20T08:15:26.938Z</time></trkpt><trkpt lat="43.2019151" lon="11.484485"><ele>253.0</ele><time>2026-04-20T08:15:27.937Z</time></trkpt><trkpt lat="43.2019728" lon="11.4845947"><ele>253.0</ele><time>2026-04-20T08:15:28.937Z</time></trkpt><trkpt lat="43.2020137" lon="11.4846853"><ele>253.0</ele><time>2026-04-20T08:15:29.937Z</time></trkpt><trkpt lat="43.2020428" lon="11.4847758"><ele>252.99999999999997</ele><time>2026-04-20T08:15:30.937Z</time></trkpt><trkpt lat="43.2020696" lon="11.484872"><ele>253.0</ele><time>2026-04-20T08:15:31.937Z</time></trkpt><trkpt lat="43.2020933" lon="11.484985"><ele>253.2</ele><time>2026-04-20T08:15:32.937Z</time></trkpt><trkpt lat="43.20212" lon="11.4851083"><ele>253.4</ele><time>2026-04-20T08:15:33.938Z</time></trkpt><trkpt lat="43.2021467" lon="11.4852383"><ele>253.59999999999997</ele><time>2026-04-20T08:15:34.938Z</time></trkpt><trkpt lat="43.202175" lon="11.48536"><ele>253.79999999999998</ele><time>2026-04-20T08:15:35.937Z</time></trkpt><trkpt lat="43.2022033" lon="11.485485"><ele>254.0</ele><time>2026-04-20T08:15:36.937Z</time></trkpt><trkpt lat="43.202225" lon="11.4856"><ele>254.00000000000003</ele><time>2026-04-20T08:15:37.937Z</time></trkpt><trkpt lat="43.2022567" lon="11.4857167"><ele>254.0</ele><time>2026-04-20T08:15:38.937Z</time></trkpt><trkpt lat="43.2022833" lon="11.48583"><ele>254.0</ele><time>2026-04-20T08:15:39.937Z</time></trkpt><trkpt lat="43.202315" lon="11.4859317"><ele>254.0</ele><time>2026-04-20T08:15:40.937Z</time></trkpt><trkpt lat="43.2023517" lon="11.486035"><ele>254.00000000000003</ele><time>2026-04-20T08:15:41.937Z</time></trkpt><trkpt lat="43.2024" lon="11.4861317"><ele>254.0</ele><time>2026-04-20T08:15:42.938Z</time></trkpt><trkpt lat="43.202465" lon="11.4862283"><ele>252.79999999999998</ele><time>2026-04-20T08:15:43.938Z</time></trkpt><trkpt lat="43.2025333" lon="11.4863333"><ele>251.59999999999997</ele><time>2026-04-20T08:15:44.938Z</time></trkpt><trkpt lat="43.2026" lon="11.4864283"><ele>250.4</ele><time>2026-04-20T08:15:45.937Z</time></trkpt><trkpt lat="43.2026733" lon="11.486535"><ele>249.2</ele><time>2026-04-20T08:15:46.937Z</time></trkpt><trkpt lat="43.2027467" lon="11.486635"><ele>248.0</ele><time>2026-04-20T08:15:47.938Z</time></trkpt><trkpt lat="43.2028167" lon="11.4867267"><ele>248.0</ele><time>2026-04-20T08:15:48.937Z</time></trkpt><trkpt lat="43.2028967" lon="11.4868217"><ele>248.0</ele><time>2026-04-20T08:15:49.938Z</time></trkpt><trkpt lat="43.2029667" lon="11.486915"><ele>248.0</ele><time>2026-04-20T08:15:50.938Z</time></trkpt><trkpt lat="43.20305" lon="11.4870033"><ele>248.0</ele><time>2026-04-20T08:15:51.937Z</time></trkpt><trkpt lat="43.2031233" lon="11.4870917"><ele>248.0</ele><time>2026-04-20T08:15:52.937Z</time></trkpt><trkpt lat="43.20319" lon="11.4871783"><ele>248.16666666666669</ele><time>2026-04-20T08:15:53.938Z</time></trkpt><trkpt lat="43.2032517" lon="11.48726"><ele>248.33333333333334</ele><time>2026-04-20T08:15:54.937Z</time></trkpt><trkpt lat="43.20331" lon="11.4873467"><ele>248.5</ele><time>2026-04-20T08:15:55.937Z</time></trkpt><trkpt lat="43.20337" lon="11.4874367"><ele>248.66666666666669</ele><time>2026-04-20T08:15:56.937Z</time></trkpt><trkpt lat="43.2034383" lon="11.4875183"><ele>248.83333333333334</ele><time>2026-04-20T08:15:57.938Z</time></trkpt><trkpt lat="43.203505" lon="11.4876083"><ele>249.0</ele><time>2026-04-20T08:15:58.937Z</time></trkpt><trkpt lat="43.20358" lon="11.4876917"><ele>249.0</ele><time>2026-04-20T08:15:59.937Z</time></trkpt><trkpt lat="43.2036533" lon="11.4877833"><ele>248.99999999999997</ele><time>2026-04-20T08:16:00.937Z</time></trkpt><trkpt lat="43.2037167" lon="11.4878883"><ele>248.99999999999997</ele><time>2026-04-20T08:16:01.937Z</time></trkpt><trkpt lat="43.2037717" lon="11.4879917"><ele>249.0</ele><time>2026-04-20T08:16:02.937Z</time></trkpt><trkpt lat="43.2038317" lon="11.4881067"><ele>249.0</ele><time>2026-04-20T08:16:03.937Z</time></trkpt><trkpt lat="43.2038833" lon="11.4882183"><ele>246.39999999999998</ele><time>2026-04-20T08:16:04.937Z</time></trkpt><trkpt lat="43.2039433" lon="11.488325"><ele>243.79999999999998</ele><time>2026-04-20T08:16:05.937Z</time></trkpt><trkpt lat="43.2040067" lon="11.4884367"><ele>241.20000000000002</ele><time>2026-04-20T08:16:06.937Z</time></trkpt><trkpt lat="43.2040633" lon="11.48854"><ele>238.60000000000002</ele><time>2026-04-20T08:16:07.937Z</time></trkpt><trkpt lat="43.2041217" lon="11.4886267"><ele>236.0</ele><time>2026-04-20T08:16:08.937Z</time></trkpt><trkpt lat="43.20418" lon="11.4887017"><ele>238.4</ele><time>2026-04-20T08:16:09.937Z</time></trkpt><trkpt lat="43.2042267" lon="11.4887717"><ele>240.8</ele><time>2026-04-20T08:16:10.937Z</time></trkpt><trkpt lat="43.204275" lon="11.488835"><ele>243.20000000000002</ele><time>2026-04-20T08:16:11.937Z</time></trkpt><trkpt lat="43.20434" lon="11.488945"><ele>245.60000000000002</ele><time>2026-04-20T08:16:13.937Z</time></trkpt><trkpt lat="43.2044233" lon="11.4890617"><ele>248.0</ele><time>2026-04-20T08:17:01.937Z</time></trkpt><trkpt lat="43.2044817" lon="11.4892"><ele>248.0</ele><time>2026-04-20T08:17:03.937Z</time></trkpt><trkpt lat="43.2045383" lon="11.4893583"><ele>248.0</ele><time>2026-04-20T08:17:05.937Z</time></trkpt><trkpt lat="43.20457" lon="11.4894467"><ele>248.0</ele><time>2026-04-20T08:17:06.937Z</time></trkpt><trkpt lat="43.2046017" lon="11.48955"><ele>248.0</ele><time>2026-04-20T08:17:07.937Z</time></trkpt><trkpt lat="43.2046333" lon="11.48965"><ele>248.0</ele><time>2026-04-20T08:17:08.937Z</time></trkpt><trkpt lat="43.2046667" lon="11.4897667"><ele>250.4</ele><time>2026-04-20T08:17:09.937Z</time></trkpt><trkpt lat="43.2047067" lon="11.4898983"><ele>252.8</ele><time>2026-04-20T08:17:10.937Z</time></trkpt><trkpt lat="43.2047417" lon="11.4900133"><ele>255.2</ele><time>2026-04-20T08:17:11.938Z</time></trkpt><trkpt lat="43.2047783" lon="11.490125"><ele>257.6</ele><time>2026-04-20T08:17:12.937Z</time></trkpt><trkpt lat="43.20483" lon="11.4902267"><ele>260.0</ele><time>2026-04-20T08:17:13.937Z</time></trkpt><trkpt lat="43.204885" lon="11.4903217"><ele>260.0</ele><time>2026-04-20T08:17:14.937Z</time></trkpt><trkpt lat="43.2049533" lon="11.4904167"><ele>260.0</ele><time>2026-04-20T08:17:15.937Z</time></trkpt><trkpt lat="43.2050283" lon="11.49051"><ele>260.0</ele><time>2026-04-20T08:17:16.937Z</time></trkpt><trkpt lat="43.2051017" lon="11.4906083"><ele>260.0</ele><time>2026-04-20T08:17:17.937Z</time></trkpt><trkpt lat="43.2051717" lon="11.4907"><ele>260.0</ele><time>2026-04-20T08:17:18.937Z</time></trkpt><trkpt lat="43.20525" lon="11.49078"><ele>259.6</ele><time>2026-04-20T08:17:19.937Z</time></trkpt><trkpt lat="43.2053283" lon="11.49084"><ele>259.2</ele><time>2026-04-20T08:17:20.938Z</time></trkpt><trkpt lat="43.205415" lon="11.4908783"><ele>258.8</ele><time>2026-04-20T08:17:21.938Z</time></trkpt><trkpt lat="43.2055083" lon="11.490895"><ele>258.4</ele><time>2026-04-20T08:17:22.937Z</time></trkpt><trkpt lat="43.2055967" lon="11.4909017"><ele>258.0</ele><time>2026-04-20T08:17:23.937Z</time></trkpt><trkpt lat="43.2056883" lon="11.490895"><ele>258.0</ele><time>2026-04-20T08:17:24.937Z</time></trkpt><trkpt lat="43.205785" lon="11.49088"><ele>258.0</ele><time>2026-04-20T08:17:25.937Z</time></trkpt><trkpt lat="43.2058883" lon="11.4908633"><ele>258.0</ele><time>2026-04-20T08:17:26.938Z</time></trkpt><trkpt lat="43.20599" lon="11.4908483"><ele>258.0</ele><time>2026-04-20T08:17:27.937Z</time></trkpt><trkpt lat="43.2060833" lon="11.490845"><ele>258.0</ele><time>2026-04-20T08:17:28.938Z</time></trkpt><trkpt lat="43.206175" lon="11.4908533"><ele>258.0</ele><time>2026-04-20T08:17:29.937Z</time></trkpt><trkpt lat="43.2062667" lon="11.4908833"><ele>258.0</ele><time>2026-04-20T08:17:30.937Z</time></trkpt><trkpt lat="43.2063467" lon="11.490915"><ele>258.0</ele><time>2026-04-20T08:17:31.937Z</time></trkpt><trkpt lat="43.2064183" lon="11.4909533"><ele>258.0</ele><time>2026-04-20T08:17:32.937Z</time></trkpt><trkpt lat="43.2064883" lon="11.4909883"><ele>258.0</ele><time>2026-04-20T08:17:33.937Z</time></trkpt><trkpt lat="43.20655" lon="11.4910417"><ele>258.0</ele><time>2026-04-20T08:17:34.937Z</time></trkpt><trkpt lat="43.20661" lon="11.4911083"><ele>257.8</ele><time>2026-04-20T08:17:35.937Z</time></trkpt><trkpt lat="43.2066667" lon="11.4912017"><ele>257.6</ele><time>2026-04-20T08:17:36.937Z</time></trkpt><trkpt lat="43.206725" lon="11.49131"><ele>257.4</ele><time>2026-04-20T08:17:37.937Z</time></trkpt><trkpt lat="43.2067833" lon="11.4914367"><ele>257.2</ele><time>2026-04-20T08:17:38.938Z</time></trkpt><trkpt lat="43.20684" lon="11.4915717"><ele>257.0</ele><time>2026-04-20T08:17:39.937Z</time></trkpt><trkpt lat="43.2068883" lon="11.4916967"><ele>256.33333333333337</ele><time>2026-04-20T08:17:40.937Z</time></trkpt><trkpt lat="43.206935" lon="11.4917967"><ele>255.66666666666669</ele><time>2026-04-20T08:17:41.937Z</time></trkpt><trkpt lat="43.2069917" lon="11.491885"><ele>255.0</ele><time>2026-04-20T08:17:42.937Z</time></trkpt><trkpt lat="43.207055" lon="11.4919717"><ele>254.33333333333331</ele><time>2026-04-20T08:17:43.937Z</time></trkpt><trkpt lat="43.2071183" lon="11.4920583"><ele>253.66666666666666</ele><time>2026-04-20T08:17:44.937Z</time></trkpt><trkpt lat="43.2071883" lon="11.4921317"><ele>253.0</ele><time>2026-04-20T08:17:45.938Z</time></trkpt><trkpt lat="43.20725" lon="11.4921983"><ele>252.16666666666666</ele><time>2026-04-20T08:17:46.938Z</time></trkpt><trkpt lat="43.20731" lon="11.4922583"><ele>251.33333333333331</ele><time>2026-04-20T08:17:47.937Z</time></trkpt><trkpt lat="43.2073783" lon="11.492315"><ele>250.5</ele><time>2026-04-20T08:17:48.937Z</time></trkpt><trkpt lat="43.2074433" lon="11.4923833"><ele>249.66666666666669</ele><time>2026-04-20T08:17:49.937Z</time></trkpt><trkpt lat="43.20751" lon="11.4924617"><ele>248.83333333333334</ele><time>2026-04-20T08:17:50.938Z</time></trkpt><trkpt lat="43.2075783" lon="11.4925317"><ele>248.0</ele><time>2026-04-20T08:17:51.938Z</time></trkpt><trkpt lat="43.207645" lon="11.4926"><ele>248.00000000000003</ele><time>2026-04-20T08:17:52.937Z</time></trkpt><trkpt lat="43.207705" lon="11.4926667"><ele>248.0</ele><time>2026-04-20T08:17:53.937Z</time></trkpt><trkpt lat="43.20777" lon="11.4927333"><ele>248.0</ele><time>2026-04-20T08:17:54.938Z</time></trkpt><trkpt lat="43.207845" lon="11.492805"><ele>248.0</ele><time>2026-04-20T08:17:55.938Z</time></trkpt><trkpt lat="43.2079267" lon="11.49289"><ele>248.00000000000003</ele><time>2026-04-20T08:17:56.937Z</time></trkpt><trkpt lat="43.2080033" lon="11.4929717"><ele>248.0</ele><time>2026-04-20T08:17:57.937Z</time></trkpt><trkpt lat="43.20808" lon="11.4930517"><ele>248.5</ele><time>2026-04-20T08:17:58.937Z</time></trkpt><trkpt lat="43.20817" lon="11.493135"><ele>249.0</ele><time>2026-04-20T08:17:59.937Z</time></trkpt><trkpt lat="43.2082583" lon="11.4932233"><ele>249.5</ele><time>2026-04-20T08:18:00.938Z</time></trkpt><trkpt lat="43.2083583" lon="11.4933083"><ele>250.0</ele><time>2026-04-20T08:18:01.937Z</time></trkpt><trkpt lat="43.2084633" lon="11.493395"><ele>250.0</ele><time>2026-04-20T08:18:02.937Z</time></trkpt><trkpt lat="43.20856" lon="11.493465"><ele>250.0</ele><time>2026-04-20T08:18:03.937Z</time></trkpt><trkpt lat="43.2086517" lon="11.49354"><ele>250.0</ele><time>2026-04-20T08:18:04.937Z</time></trkpt><trkpt lat="43.2087333" lon="11.493625"><ele>250.0</ele><time>2026-04-20T08:18:05.937Z</time></trkpt><trkpt lat="43.2088017" lon="11.4937183"><ele>250.0</ele><time>2026-04-20T08:18:06.937Z</time></trkpt><trkpt lat="43.2088683" lon="11.4938183"><ele>251.8</ele><time>2026-04-20T08:18:07.937Z</time></trkpt><trkpt lat="43.2089217" lon="11.49393"><ele>253.6</ele><time>2026-04-20T08:18:08.937Z</time></trkpt><trkpt lat="43.2089667" lon="11.49405"><ele>255.39999999999998</ele><time>2026-04-20T08:18:09.938Z</time></trkpt><trkpt lat="43.2090083" lon="11.4941717"><ele>257.2</ele><time>2026-04-20T08:18:10.937Z</time></trkpt><trkpt lat="43.209045" lon="11.4943033"><ele>259.0</ele><time>2026-04-20T08:18:11.938Z</time></trkpt><trkpt lat="43.2090867" lon="11.494435"><ele>259.0</ele><time>2026-04-20T08:18:12.937Z</time></trkpt><trkpt lat="43.2091217" lon="11.4945617"><ele>259.0</ele><time>2026-04-20T08:18:13.937Z</time></trkpt><trkpt lat="43.209155" lon="11.4947033"><ele>259.0</ele><time>2026-04-20T08:18:14.937Z</time></trkpt><trkpt lat="43.2091833" lon="11.4948367"><ele>259.0</ele><time>2026-04-20T08:18:15.938Z</time></trkpt><trkpt lat="43.2092017" lon="11.4949683"><ele>259.0</ele><time>2026-04-20T08:18:16.937Z</time></trkpt><trkpt lat="43.2092183" lon="11.495105"><ele>259.3333333333333</ele><time>2026-04-20T08:18:17.937Z</time></trkpt><trkpt lat="43.20923" lon="11.4952283"><ele>259.66666666666663</ele><time>2026-04-20T08:18:18.938Z</time></trkpt><trkpt lat="43.209245" lon="11.49535"><ele>260.0</ele><time>2026-04-20T08:18:19.937Z</time></trkpt><trkpt lat="43.209275" lon="11.49546"><ele>260.3333333333333</ele><time>2026-04-20T08:18:20.938Z</time></trkpt><trkpt lat="43.2093083" lon="11.4955567"><ele>260.6666666666667</ele><time>2026-04-20T08:18:21.937Z</time></trkpt><trkpt lat="43.2093467" lon="11.4956533"><ele>261.0</ele><time>2026-04-20T08:18:22.938Z</time></trkpt><trkpt lat="43.2093867" lon="11.4957717"><ele>261.40000000000003</ele><time>2026-04-20T08:18:23.938Z</time></trkpt><trkpt lat="43.209435" lon="11.4958883"><ele>261.8</ele><time>2026-04-20T08:18:24.937Z</time></trkpt><trkpt lat="43.20948" lon="11.49602"><ele>262.20000000000005</ele><time>2026-04-20T08:18:25.937Z</time></trkpt><trkpt lat="43.2095167" lon="11.4961367"><ele>262.6</ele><time>2026-04-20T08:18:26.937Z</time></trkpt><trkpt lat="43.2095533" lon="11.496245"><ele>263.0</ele><time>2026-04-20T08:18:27.937Z</time></trkpt><trkpt lat="43.2095867" lon="11.4963483"><ele>263.33333333333337</ele><time>2026-04-20T08:18:28.938Z</time></trkpt><trkpt lat="43.209625" lon="11.4964367"><ele>263.6666666666667</ele><time>2026-04-20T08:18:29.937Z</time></trkpt><trkpt lat="43.20967" lon="11.496525"><ele>264.0</ele><time>2026-04-20T08:18:30.938Z</time></trkpt><trkpt lat="43.2097217" lon="11.4965933"><ele>264.3333333333333</ele><time>2026-04-20T08:18:31.937Z</time></trkpt><trkpt lat="43.20978" lon="11.49667"><ele>264.66666666666663</ele><time>2026-04-20T08:18:32.937Z</time></trkpt><trkpt lat="43.209845" lon="11.49674"><ele>265.0</ele><time>2026-04-20T08:18:33.937Z</time></trkpt><trkpt lat="43.2099183" lon="11.4967967"><ele>265.0</ele><time>2026-04-20T08:18:34.937Z</time></trkpt><trkpt lat="43.2099967" lon="11.4968533"><ele>265.0</ele><time>2026-04-20T08:18:35.937Z</time></trkpt><trkpt lat="43.2100717" lon="11.4969117"><ele>265.0</ele><time>2026-04-20T08:18:36.937Z</time></trkpt><trkpt lat="43.21015" lon="11.496965"><ele>265.0</ele><time>2026-04-20T08:18:37.937Z</time></trkpt><trkpt lat="43.21022" lon="11.4970167"><ele>265.0</ele><time>2026-04-20T08:18:38.937Z</time></trkpt><trkpt lat="43.2102967" lon="11.4970667"><ele>265.0</ele><time>2026-04-20T08:18:39.937Z</time></trkpt><trkpt lat="43.210375" lon="11.497125"><ele>264.8333333333333</ele><time>2026-04-20T08:18:40.937Z</time></trkpt><trkpt lat="43.2104533" lon="11.49719"><ele>264.66666666666663</ele><time>2026-04-20T08:18:41.938Z</time></trkpt><trkpt lat="43.210535" lon="11.4972617"><ele>264.5</ele><time>2026-04-20T08:18:42.937Z</time></trkpt><trkpt lat="43.2106083" lon="11.4973317"><ele>264.3333333333333</ele><time>2026-04-20T08:18:43.937Z</time></trkpt><trkpt lat="43.210675" lon="11.4973983"><ele>264.1666666666667</ele><time>2026-04-20T08:18:44.937Z</time></trkpt><trkpt lat="43.210735" lon="11.4974767"><ele>264.0</ele><time>2026-04-20T08:18:45.937Z</time></trkpt><trkpt lat="43.210785" lon="11.49756"><ele>264.0</ele><time>2026-04-20T08:18:46.937Z</time></trkpt><trkpt lat="43.2108217" lon="11.4976533"><ele>264.0</ele><time>2026-04-20T08:18:47.937Z</time></trkpt><trkpt lat="43.2108467" lon="11.4977617"><ele>264.0</ele><time>2026-04-20T08:18:48.937Z</time></trkpt><trkpt lat="43.2108717" lon="11.49788"><ele>264.0</ele><time>2026-04-20T08:18:49.937Z</time></trkpt><trkpt lat="43.2108967" lon="11.498005"><ele>264.0</ele><time>2026-04-20T08:18:50.938Z</time></trkpt><trkpt lat="43.2109167" lon="11.4981217"><ele>264.0</ele><time>2026-04-20T08:18:51.937Z</time></trkpt><trkpt lat="43.2109367" lon="11.4982283"><ele>263.1666666666667</ele><time>2026-04-20T08:18:52.938Z</time></trkpt><trkpt lat="43.2109617" lon="11.4983367"><ele>262.3333333333333</ele><time>2026-04-20T08:18:53.937Z</time></trkpt><trkpt lat="43.2109983" lon="11.4984283"><ele>261.5</ele><time>2026-04-20T08:18:54.938Z</time></trkpt><trkpt lat="43.2110433" lon="11.4985067"><ele>260.66666666666663</ele><time>2026-04-20T08:18:55.937Z</time></trkpt><trkpt lat="43.2111033" lon="11.498575"><ele>259.8333333333333</ele><time>2026-04-20T08:18:56.937Z</time></trkpt><trkpt lat="43.2111767" lon="11.49862"><ele>259.0</ele><time>2026-04-20T08:18:57.938Z</time></trkpt><trkpt lat="43.2112367" lon="11.4986517"><ele>259.0</ele><time>2026-04-20T08:18:58.937Z</time></trkpt><trkpt lat="43.2113017" lon="11.4986767"><ele>259.0</ele><time>2026-04-20T08:18:59.937Z</time></trkpt><trkpt lat="43.2114167" lon="11.498685"><ele>259.0</ele><time>2026-04-20T08:19:01.937Z</time></trkpt><trkpt lat="43.21148" lon="11.4986767"><ele>259.0</ele><time>2026-04-20T08:19:02.937Z</time></trkpt><trkpt lat="43.21159" lon="11.4986217"><ele>259.0</ele><time>2026-04-20T08:19:04.937Z</time></trkpt><trkpt lat="43.2116517" lon="11.4985983"><ele>259.0</ele><time>2026-04-20T08:19:05.937Z</time></trkpt><trkpt lat="43.2117167" lon="11.4985767"><ele>257.5</ele><time>2026-04-20T08:19:06.937Z</time></trkpt><trkpt lat="43.2117833" lon="11.4985567"><ele>256.0</ele><time>2026-04-20T08:19:07.937Z</time></trkpt><trkpt lat="43.211895" lon="11.49856"><ele>254.5</ele><time>2026-04-20T08:19:09.938Z</time></trkpt><trkpt lat="43.21201" lon="11.4986217"><ele>253.0</ele><time>2026-04-20T08:19:11.938Z</time></trkpt><trkpt lat="43.2120567" lon="11.4986817"><ele>251.49999999999997</ele><time>2026-04-20T08:19:12.937Z</time></trkpt><trkpt lat="43.2121083" lon="11.4987533"><ele>250.0</ele><time>2026-04-20T08:19:13.937Z</time></trkpt><trkpt lat="43.2121483" lon="11.4988483"><ele>249.14285714285714</ele><time>2026-04-20T08:19:14.938Z</time></trkpt><trkpt lat="43.212185" lon="11.4989517"><ele>248.28571428571428</ele><time>2026-04-20T08:19:15.938Z</time></trkpt><trkpt lat="43.2122017" lon="11.4990467"><ele>247.42857142857142</ele><time>2026-04-20T08:19:16.937Z</time></trkpt><trkpt lat="43.2122183" lon="11.4991517"><ele>246.57142857142856</ele><time>2026-04-20T08:19:17.937Z</time></trkpt><trkpt lat="43.2122217" lon="11.4992533"><ele>245.71428571428572</ele><time>2026-04-20T08:19:18.937Z</time></trkpt><trkpt lat="43.2122" lon="11.4993383"><ele>244.85714285714283</ele><time>2026-04-20T08:19:19.937Z</time></trkpt><trkpt lat="43.212165" lon="11.4994167"><ele>243.99999999999997</ele><time>2026-04-20T08:19:20.937Z</time></trkpt><trkpt lat="43.2121217" lon="11.4994883"><ele>243.99999999999997</ele><time>2026-04-20T08:19:21.936Z</time></trkpt><trkpt lat="43.2120667" lon="11.4995483"><ele>244.0</ele><time>2026-04-20T08:19:22.937Z</time></trkpt><trkpt lat="43.2120033" lon="11.4995883"><ele>243.99999999999997</ele><time>2026-04-20T08:19:23.938Z</time></trkpt><trkpt lat="43.2119367" lon="11.4996167"><ele>243.99999999999997</ele><time>2026-04-20T08:19:24.937Z</time></trkpt><trkpt lat="43.2118683" lon="11.49964"><ele>244.0</ele><time>2026-04-20T08:19:25.937Z</time></trkpt><trkpt lat="43.2117967" lon="11.499675"><ele>243.99999999999997</ele><time>2026-04-20T08:19:26.937Z</time></trkpt><trkpt lat="43.2117233" lon="11.4997117"><ele>243.99999999999997</ele><time>2026-04-20T08:19:27.938Z</time></trkpt><trkpt lat="43.2116533" lon="11.4997533"><ele>241.83333333333331</ele><time>2026-04-20T08:19:28.937Z</time></trkpt><trkpt lat="43.2115983" lon="11.4998117"><ele>239.66666666666666</ele><time>2026-04-20T08:19:29.937Z</time></trkpt><trkpt lat="43.211555" lon="11.4998983"><ele>237.5</ele><time>2026-04-20T08:19:30.937Z</time></trkpt><trkpt lat="43.211515" lon="11.4999983"><ele>235.33333333333331</ele><time>2026-04-20T08:19:31.938Z</time></trkpt><trkpt lat="43.2114933" lon="11.5000983"><ele>233.16666666666666</ele><time>2026-04-20T08:19:32.937Z</time></trkpt><trkpt lat="43.2114767" lon="11.500225"><ele>231.0</ele><time>2026-04-20T08:19:33.937Z</time></trkpt><trkpt lat="43.2114633" lon="11.500375"><ele>229.0</ele><time>2026-04-20T08:19:34.937Z</time></trkpt><trkpt lat="43.2114483" lon="11.500515"><ele>227.0</ele><time>2026-04-20T08:19:35.937Z</time></trkpt><trkpt lat="43.21143" lon="11.5006383"><ele>225.0</ele><time>2026-04-20T08:19:36.937Z</time></trkpt><trkpt lat="43.2114" lon="11.5007467"><ele>223.0</ele><time>2026-04-20T08:19:37.937Z</time></trkpt><trkpt lat="43.2113617" lon="11.5008483"><ele>221.0</ele><time>2026-04-20T08:19:38.937Z</time></trkpt><trkpt lat="43.2113083" lon="11.5009367"><ele>219.0</ele><time>2026-04-20T08:19:39.937Z</time></trkpt><trkpt lat="43.2112467" lon="11.5010117"><ele>219.0</ele><time>2026-04-20T08:19:40.937Z</time></trkpt><trkpt lat="43.2111717" lon="11.5010667"><ele>218.99999999999997</ele><time>2026-04-20T08:19:41.937Z</time></trkpt><trkpt lat="43.21109" lon="11.5011083"><ele>218.99999999999997</ele><time>2026-04-20T08:19:42.938Z</time></trkpt><trkpt lat="43.2110067" lon="11.50115"><ele>219.0</ele><time>2026-04-20T08:19:43.937Z</time></trkpt><trkpt lat="43.210915" lon="11.5012067"><ele>219.0</ele><time>2026-04-20T08:19:44.937Z</time></trkpt><trkpt lat="43.2108233" lon="11.5012767"><ele>219.2</ele><time>2026-04-20T08:19:45.937Z</time></trkpt><trkpt lat="43.21074" lon="11.5013517"><ele>219.39999999999998</ele><time>2026-04-20T08:19:46.937Z</time></trkpt><trkpt lat="43.2106667" lon="11.5014517"><ele>219.6</ele><time>2026-04-20T08:19:47.937Z</time></trkpt><trkpt lat="43.2106083" lon="11.50156"><ele>219.8</ele><time>2026-04-20T08:19:48.937Z</time></trkpt><trkpt lat="43.210565" lon="11.5016733"><ele>220.0</ele><time>2026-04-20T08:19:49.937Z</time></trkpt><trkpt lat="43.2105233" lon="11.501795"><ele>220.0</ele><time>2026-04-20T08:19:50.937Z</time></trkpt><trkpt lat="43.210485" lon="11.5019267"><ele>220.0</ele><time>2026-04-20T08:19:51.937Z</time></trkpt><trkpt lat="43.2104433" lon="11.5020483"><ele>220.0</ele><time>2026-04-20T08:19:52.937Z</time></trkpt><trkpt lat="43.2104017" lon="11.5021583"><ele>220.0</ele><time>2026-04-20T08:19:53.938Z</time></trkpt><trkpt lat="43.2103517" lon="11.50226"><ele>220.0</ele><time>2026-04-20T08:19:54.937Z</time></trkpt><trkpt lat="43.2103033" lon="11.5023417"><ele>221.66666666666666</ele><time>2026-04-20T08:19:55.937Z</time></trkpt><trkpt lat="43.2102467" lon="11.5024133"><ele>223.33333333333331</ele><time>2026-04-20T08:19:56.937Z</time></trkpt><trkpt lat="43.2101833" lon="11.502475"><ele>225.0</ele><time>2026-04-20T08:19:57.938Z</time></trkpt><trkpt lat="43.2101183" lon="11.50255"><ele>226.66666666666669</ele><time>2026-04-20T08:19:58.938Z</time></trkpt><trkpt lat="43.2100433" lon="11.5026217"><ele>228.33333333333334</ele><time>2026-04-20T08:19:59.937Z</time></trkpt><trkpt lat="43.2099717" lon="11.502685"><ele>230.0</ele><time>2026-04-20T08:20:00.937Z</time></trkpt><trkpt lat="43.2099" lon="11.5027533"><ele>230.00000000000003</ele><time>2026-04-20T08:20:01.937Z</time></trkpt><trkpt lat="43.2098267" lon="11.502815"><ele>230.0</ele><time>2026-04-20T08:20:02.937Z</time></trkpt><trkpt lat="43.2097533" lon="11.50288"><ele>230.0</ele><time>2026-04-20T08:20:03.938Z</time></trkpt><trkpt lat="43.2096933" lon="11.5029567"><ele>230.0</ele><time>2026-04-20T08:20:04.937Z</time></trkpt><trkpt lat="43.20962" lon="11.5030333"><ele>230.00000000000003</ele><time>2026-04-20T08:20:05.937Z</time></trkpt><trkpt lat="43.2095533" lon="11.5031167"><ele>230.0</ele><time>2026-04-20T08:20:06.938Z</time></trkpt><trkpt lat="43.2094817" lon="11.5031967"><ele>228.16666666666669</ele><time>2026-04-20T08:20:07.937Z</time></trkpt><trkpt lat="43.2094083" lon="11.5032683"><ele>226.33333333333334</ele><time>2026-04-20T08:20:08.937Z</time></trkpt><trkpt lat="43.20934" lon="11.5033467"><ele>224.5</ele><time>2026-04-20T08:20:09.938Z</time></trkpt><trkpt lat="43.2092833" lon="11.5034333"><ele>222.66666666666669</ele><time>2026-04-20T08:20:10.937Z</time></trkpt><trkpt lat="43.2092267" lon="11.5035317"><ele>220.83333333333334</ele><time>2026-04-20T08:20:11.937Z</time></trkpt><trkpt lat="43.2091783" lon="11.5036367"><ele>219.0</ele><time>2026-04-20T08:20:12.937Z</time></trkpt><trkpt lat="43.20913" lon="11.5037317"><ele>217.16666666666666</ele><time>2026-04-20T08:20:13.938Z</time></trkpt><trkpt lat="43.2090767" lon="11.503825"><ele>215.33333333333331</ele><time>2026-04-20T08:20:14.937Z</time></trkpt><trkpt lat="43.209025" lon="11.5039217"><ele>213.5</ele><time>2026-04-20T08:20:15.937Z</time></trkpt><trkpt lat="43.2089733" lon="11.5040117"><ele>211.66666666666666</ele><time>2026-04-20T08:20:16.937Z</time></trkpt><trkpt lat="43.208925" lon="11.5041017"><ele>209.83333333333331</ele><time>2026-04-20T08:20:17.937Z</time></trkpt><trkpt lat="43.2088717" lon="11.5041883"><ele>208.0</ele><time>2026-04-20T08:20:18.937Z</time></trkpt><trkpt lat="43.208815" lon="11.5042733"><ele>207.99999999999997</ele><time>2026-04-20T08:20:19.937Z</time></trkpt><trkpt lat="43.2087533" lon="11.5043517"><ele>208.0</ele><time>2026-04-20T08:20:20.937Z</time></trkpt><trkpt lat="43.2086883" lon="11.50443"><ele>208.0</ele><time>2026-04-20T08:20:21.937Z</time></trkpt><trkpt lat="43.2086167" lon="11.5044917"><ele>208.0</ele><time>2026-04-20T08:20:22.937Z</time></trkpt><trkpt lat="43.2085317" lon="11.5045317"><ele>207.99999999999997</ele><time>2026-04-20T08:20:23.938Z</time></trkpt><trkpt lat="43.208445" lon="11.5045583"><ele>208.0</ele><time>2026-04-20T08:20:24.937Z</time></trkpt><trkpt lat="43.208355" lon="11.5045783"><ele>205.33333333333331</ele><time>2026-04-20T08:20:25.937Z</time></trkpt><trkpt lat="43.2082717" lon="11.5045933"><ele>202.66666666666666</ele><time>2026-04-20T08:20:26.937Z</time></trkpt><trkpt lat="43.2081817" lon="11.5045983"><ele>200.0</ele><time>2026-04-20T08:20:27.938Z</time></trkpt><trkpt lat="43.2080883" lon="11.5045983"><ele>197.33333333333331</ele><time>2026-04-20T08:20:28.937Z</time></trkpt><trkpt lat="43.2079983" lon="11.5045833"><ele>194.66666666666666</ele><time>2026-04-20T08:20:29.937Z</time></trkpt><trkpt lat="43.207915" lon="11.50456"><ele>192.0</ele><time>2026-04-20T08:20:30.937Z</time></trkpt><trkpt lat="43.2078083" lon="11.50452"><ele>192.0</ele><time>2026-04-20T08:20:32.937Z</time></trkpt><trkpt lat="43.2077267" lon="11.50456"><ele>192.0</ele><time>2026-04-20T08:20:34.937Z</time></trkpt><trkpt lat="43.20774" lon="11.5046767"><ele>192.0</ele><time>2026-04-20T08:20:36.937Z</time></trkpt><trkpt lat="43.207845" lon="11.504765"><ele>192.0</ele><time>2026-04-20T08:20:38.937Z</time></trkpt><trkpt lat="43.2079117" lon="11.5048"><ele>192.0</ele><time>2026-04-20T08:20:39.937Z</time></trkpt><trkpt lat="43.20799" lon="11.504835"><ele>192.0</ele><time>2026-04-20T08:20:40.937Z</time></trkpt><trkpt lat="43.2080683" lon="11.50486"><ele>192.0</ele><time>2026-04-20T08:20:41.938Z</time></trkpt><trkpt lat="43.208145" lon="11.504895"><ele>192.0</ele><time>2026-04-20T08:20:42.937Z</time></trkpt><trkpt lat="43.2082233" lon="11.504935"><ele>192.0</ele><time>2026-04-20T08:20:43.937Z</time></trkpt><trkpt lat="43.2082933" lon="11.504985"><ele>192.0</ele><time>2026-04-20T08:20:44.937Z</time></trkpt><trkpt lat="43.20837" lon="11.5050317"><ele>192.0</ele><time>2026-04-20T08:20:45.937Z</time></trkpt><trkpt lat="43.2084433" lon="11.50507"><ele>192.0</ele><time>2026-04-20T08:20:46.937Z</time></trkpt><trkpt lat="43.20852" lon="11.50509"><ele>192.0</ele><time>2026-04-20T08:20:47.937Z</time></trkpt><trkpt lat="43.2086" lon="11.505105"><ele>192.0</ele><time>2026-04-20T08:20:48.937Z</time></trkpt><trkpt lat="43.2086717" lon="11.505115"><ele>192.0</ele><time>2026-04-20T08:20:49.937Z</time></trkpt><trkpt lat="43.2087733" lon="11.505125"><ele>192.0</ele><time>2026-04-20T08:20:51.938Z</time></trkpt><trkpt lat="43.20885" lon="11.5051433"><ele>192.0</ele><time>2026-04-20T08:20:53.938Z</time></trkpt><trkpt lat="43.2089283" lon="11.505155"><ele>190.6</ele><time>2026-04-20T08:20:56.937Z</time></trkpt><trkpt lat="43.2090083" lon="11.5051483"><ele>189.2</ele><time>2026-04-20T08:20:59.937Z</time></trkpt><trkpt lat="43.2091" lon="11.5050983"><ele>187.8</ele><time>2026-04-20T08:21:30.937Z</time></trkpt><trkpt lat="43.2091917" lon="11.5050317"><ele>186.4</ele><time>2026-04-20T08:21:32.937Z</time></trkpt><trkpt lat="43.2093033" lon="11.504945"><ele>185.0</ele><time>2026-04-20T08:21:34.937Z</time></trkpt><trkpt lat="43.2093633" lon="11.5049083"><ele>184.99999999999997</ele><time>2026-04-20T08:21:35.938Z</time></trkpt><trkpt lat="43.2094217" lon="11.5048717"><ele>185.0</ele><time>2026-04-20T08:21:36.938Z</time></trkpt><trkpt lat="43.2094867" lon="11.5048683"><ele>185.0</ele><time>2026-04-20T08:21:37.937Z</time></trkpt><trkpt lat="43.2095533" lon="11.5048633"><ele>185.0</ele><time>2026-04-20T08:21:38.937Z</time></trkpt><trkpt lat="43.209625" lon="11.50488"><ele>185.0</ele><time>2026-04-20T08:21:39.938Z</time></trkpt><trkpt lat="43.2097033" lon="11.50492"><ele>184.99999999999997</ele><time>2026-04-20T08:21:40.938Z</time></trkpt><trkpt lat="43.2097817" lon="11.50497"><ele>185.0</ele><time>2026-04-20T08:21:41.937Z</time></trkpt><trkpt lat="43.209855" lon="11.5050333"><ele>183.66666666666666</ele><time>2026-04-20T08:21:42.938Z</time></trkpt><trkpt lat="43.209925" lon="11.50511"><ele>182.33333333333331</ele><time>2026-04-20T08:21:43.938Z</time></trkpt><trkpt lat="43.2099983" lon="11.5051833"><ele>181.0</ele><time>2026-04-20T08:21:44.937Z</time></trkpt><trkpt lat="43.2100733" lon="11.505255"><ele>179.66666666666666</ele><time>2026-04-20T08:21:45.937Z</time></trkpt><trkpt lat="43.2101467" lon="11.50532"><ele>178.33333333333334</ele><time>2026-04-20T08:21:46.937Z</time></trkpt><trkpt lat="43.2102183" lon="11.5053733"><ele>177.0</ele><time>2026-04-20T08:21:47.937Z</time></trkpt><trkpt lat="43.2102883" lon="11.5054033"><ele>175.42857142857144</ele><time>2026-04-20T08:21:48.937Z</time></trkpt><trkpt lat="43.2103583" lon="11.5054183"><ele>173.85714285714283</ele><time>2026-04-20T08:21:49.938Z</time></trkpt><trkpt lat="43.2104317" lon="11.5054267"><ele>172.28571428571428</ele><time>2026-04-20T08:21:50.937Z</time></trkpt><trkpt lat="43.2105033" lon="11.5054383"><ele>170.71428571428572</ele><time>2026-04-20T08:21:51.937Z</time></trkpt><trkpt lat="43.2105733" lon="11.505455"><ele>169.14285714285717</ele><time>2026-04-20T08:21:52.937Z</time></trkpt><trkpt lat="43.210645" lon="11.505465"><ele>167.57142857142856</ele><time>2026-04-20T08:21:53.937Z</time></trkpt><trkpt lat="43.2107167" lon="11.5054517"><ele>166.0</ele><time>2026-04-20T08:21:54.937Z</time></trkpt><trkpt lat="43.210795" lon="11.505425"><ele>167.33333333333334</ele><time>2026-04-20T08:21:55.937Z</time></trkpt><trkpt lat="43.21088" lon="11.505395"><ele>168.66666666666669</ele><time>2026-04-20T08:21:56.937Z</time></trkpt><trkpt lat="43.21097" lon="11.5053633"><ele>170.0</ele><time>2026-04-20T08:21:57.938Z</time></trkpt><trkpt lat="43.2110583" lon="11.5053433"><ele>171.33333333333334</ele><time>2026-04-20T08:21:58.937Z</time></trkpt><trkpt lat="43.2111333" lon="11.505335"><ele>172.66666666666666</ele><time>2026-04-20T08:21:59.937Z</time></trkpt><trkpt lat="43.21121" lon="11.5053617"><ele>174.0</ele><time>2026-04-20T08:22:00.937Z</time></trkpt><trkpt lat="43.2112783" lon="11.50541"><ele>172.2</ele><time>2026-04-20T08:22:01.938Z</time></trkpt><trkpt lat="43.21134" lon="11.505495"><ele>170.39999999999998</ele><time>2026-04-20T08:22:02.938Z</time></trkpt><trkpt lat="43.21138" lon="11.505595"><ele>168.6</ele><time>2026-04-20T08:22:03.937Z</time></trkpt><trkpt lat="43.2114117" lon="11.5057033"><ele>166.8</ele><time>2026-04-20T08:22:04.937Z</time></trkpt><trkpt lat="43.2114533" lon="11.505825"><ele>165.0</ele><time>2026-04-20T08:22:05.937Z</time></trkpt><trkpt lat="43.2114917" lon="11.5059633"><ele>165.0</ele><time>2026-04-20T08:22:06.937Z</time></trkpt><trkpt lat="43.2115433" lon="11.50612"><ele>165.0</ele><time>2026-04-20T08:22:07.937Z</time></trkpt><trkpt lat="43.21159" lon="11.5062767"><ele>165.0</ele><time>2026-04-20T08:22:08.937Z</time></trkpt><trkpt lat="43.2116417" lon="11.5064367"><ele>165.0</ele><time>2026-04-20T08:22:09.937Z</time></trkpt><trkpt lat="43.2116833" lon="11.5065833"><ele>165.0</ele><time>2026-04-20T08:22:10.937Z</time></trkpt><trkpt lat="43.2117267" lon="11.5067433"><ele>165.0</ele><time>2026-04-20T08:22:11.937Z</time></trkpt><trkpt lat="43.2117683" lon="11.5069033"><ele>165.0</ele><time>2026-04-20T08:22:12.937Z</time></trkpt><trkpt lat="43.2118083" lon="11.50706"><ele>165.0</ele><time>2026-04-20T08:22:13.937Z</time></trkpt><trkpt lat="43.2118567" lon="11.507205"><ele>164.83333333333334</ele><time>2026-04-20T08:22:14.937Z</time></trkpt><trkpt lat="43.2118967" lon="11.5073317"><ele>164.66666666666666</ele><time>2026-04-20T08:22:15.937Z</time></trkpt><trkpt lat="43.2119283" lon="11.507445"><ele>164.5</ele><time>2026-04-20T08:22:16.937Z</time></trkpt><trkpt lat="43.21197" lon="11.50754"><ele>164.33333333333331</ele><time>2026-04-20T08:22:17.937Z</time></trkpt><trkpt lat="43.2120167" lon="11.5076233"><ele>164.16666666666666</ele><time>2026-04-20T08:22:18.937Z</time></trkpt><trkpt lat="43.2120767" lon="11.5076983"><ele>164.0</ele><time>2026-04-20T08:22:19.937Z</time></trkpt><trkpt lat="43.2121483" lon="11.50776"><ele>164.0</ele><time>2026-04-20T08:22:20.937Z</time></trkpt><trkpt lat="43.2122283" lon="11.5078117"><ele>164.0</ele><time>2026-04-20T08:22:21.937Z</time></trkpt><trkpt lat="43.2123133" lon="11.5078567"><ele>164.0</ele><time>2026-04-20T08:22:22.937Z</time></trkpt><trkpt lat="43.2123933" lon="11.5079017"><ele>164.0</ele><time>2026-04-20T08:22:23.937Z</time></trkpt><trkpt lat="43.2124667" lon="11.507955"><ele>164.0</ele><time>2026-04-20T08:22:24.938Z</time></trkpt><trkpt lat="43.2125383" lon="11.508025"><ele>164.0</ele><time>2026-04-20T08:22:25.937Z</time></trkpt><trkpt lat="43.2126017" lon="11.50812"><ele>163.5</ele><time>2026-04-20T08:22:26.938Z</time></trkpt><trkpt lat="43.212665" lon="11.5082333"><ele>163.0</ele><time>2026-04-20T08:22:27.937Z</time></trkpt><trkpt lat="43.2127267" lon="11.5083733"><ele>162.5</ele><time>2026-04-20T08:22:28.938Z</time></trkpt><trkpt lat="43.2127817" lon="11.508525"><ele>162.0</ele><time>2026-04-20T08:22:29.937Z</time></trkpt><trkpt lat="43.2128417" lon="11.508665"><ele>161.75</ele><time>2026-04-20T08:22:30.938Z</time></trkpt><trkpt lat="43.2129033" lon="11.508805"><ele>161.5</ele><time>2026-04-20T08:22:31.937Z</time></trkpt><trkpt lat="43.2129717" lon="11.5089467"><ele>161.25</ele><time>2026-04-20T08:22:32.937Z</time></trkpt><trkpt lat="43.2130417" lon="11.5090883"><ele>161.0</ele><time>2026-04-20T08:22:33.937Z</time></trkpt><trkpt lat="43.2131117" lon="11.5092233"><ele>161.5</ele><time>2026-04-20T08:22:34.938Z</time></trkpt><trkpt lat="43.213175" lon="11.5093533"><ele>162.0</ele><time>2026-04-20T08:22:35.937Z</time></trkpt><trkpt lat="43.2132383" lon="11.509475"><ele>162.5</ele><time>2026-04-20T08:22:36.937Z</time></trkpt><trkpt lat="43.2133167" lon="11.5096017"><ele>163.0</ele><time>2026-04-20T08:22:37.937Z</time></trkpt><trkpt lat="43.2134" lon="11.5097067"><ele>163.0</ele><time>2026-04-20T08:22:38.937Z</time></trkpt><trkpt lat="43.213495" lon="11.5098117"><ele>163.0</ele><time>2026-04-20T08:22:39.937Z</time></trkpt><trkpt lat="43.2135867" lon="11.5099133"><ele>163.0</ele><time>2026-04-20T08:22:40.937Z</time></trkpt><trkpt lat="43.2136767" lon="11.51003"><ele>163.0</ele><time>2026-04-20T08:22:41.937Z</time></trkpt><trkpt lat="43.2137567" lon="11.5101383"><ele>163.0</ele><time>2026-04-20T08:22:42.937Z</time></trkpt><trkpt lat="43.2138417" lon="11.5102533"><ele>163.0</ele><time>2026-04-20T08:22:43.937Z</time></trkpt><trkpt lat="43.2139217" lon="11.5103767"><ele>163.0</ele><time>2026-04-20T08:22:44.937Z</time></trkpt><trkpt lat="43.21399" lon="11.5105033"><ele>163.0</ele><time>2026-04-20T08:22:45.937Z</time></trkpt><trkpt lat="43.214055" lon="11.5106317"><ele>163.2</ele><time>2026-04-20T08:22:46.937Z</time></trkpt><trkpt lat="43.2141133" lon="11.5107367"><ele>163.4</ele><time>2026-04-20T08:22:47.937Z</time></trkpt><trkpt lat="43.2141633" lon="11.5108483"><ele>163.6</ele><time>2026-04-20T08:22:48.937Z</time></trkpt><trkpt lat="43.21421" lon="11.51095"><ele>163.79999999999998</ele><time>2026-04-20T08:22:49.937Z</time></trkpt><trkpt lat="43.2142483" lon="11.51106"><ele>164.0</ele><time>2026-04-20T08:22:50.937Z</time></trkpt><trkpt lat="43.2142683" lon="11.5111717"><ele>164.39999999999998</ele><time>2026-04-20T08:22:51.937Z</time></trkpt><trkpt lat="43.2142667" lon="11.5113033"><ele>164.8</ele><time>2026-04-20T08:22:52.937Z</time></trkpt><trkpt lat="43.2142517" lon="11.51144"><ele>165.2</ele><time>2026-04-20T08:22:53.937Z</time></trkpt><trkpt lat="43.2142283" lon="11.5115683"><ele>165.60000000000002</ele><time>2026-04-20T08:22:54.937Z</time></trkpt><trkpt lat="43.2142083" lon="11.5116883"><ele>166.0</ele><time>2026-04-20T08:22:55.937Z</time></trkpt><trkpt lat="43.21421" lon="11.511805"><ele>166.0</ele><time>2026-04-20T08:22:56.937Z</time></trkpt><trkpt lat="43.2142267" lon="11.5119183"><ele>166.0</ele><time>2026-04-20T08:22:57.938Z</time></trkpt><trkpt lat="43.2142517" lon="11.5120283"><ele>166.0</ele><time>2026-04-20T08:22:58.937Z</time></trkpt><trkpt lat="43.21429" lon="11.5121283"><ele>166.0</ele><time>2026-04-20T08:22:59.937Z</time></trkpt><trkpt lat="43.2143367" lon="11.5122267"><ele>166.0</ele><time>2026-04-20T08:23:00.937Z</time></trkpt><trkpt lat="43.214395" lon="11.5123167"><ele>166.0</ele><time>2026-04-20T08:23:01.937Z</time></trkpt><trkpt lat="43.21447" lon="11.5123967"><ele>166.4</ele><time>2026-04-20T08:23:02.938Z</time></trkpt><trkpt lat="43.2145483" lon="11.5124717"><ele>166.8</ele><time>2026-04-20T08:23:03.937Z</time></trkpt><trkpt lat="43.2146317" lon="11.5125417"><ele>167.20000000000002</ele><time>2026-04-20T08:23:04.937Z</time></trkpt><trkpt lat="43.2147117" lon="11.5126183"><ele>167.60000000000002</ele><time>2026-04-20T08:23:05.937Z</time></trkpt><trkpt lat="43.2147917" lon="11.512695"><ele>168.0</ele><time>2026-04-20T08:23:06.937Z</time></trkpt><trkpt lat="43.2148717" lon="11.512775"><ele>170.0</ele><time>2026-04-20T08:23:07.937Z</time></trkpt><trkpt lat="43.2149517" lon="11.5128567"><ele>172.0</ele><time>2026-04-20T08:23:08.937Z</time></trkpt><trkpt lat="43.2150333" lon="11.5129433"><ele>174.0</ele><time>2026-04-20T08:23:09.937Z</time></trkpt><trkpt lat="43.21511" lon="11.5130283"><ele>176.0</ele><time>2026-04-20T08:23:10.937Z</time></trkpt><trkpt lat="43.2151883" lon="11.51311"><ele>178.0</ele><time>2026-04-20T08:23:11.937Z</time></trkpt><trkpt lat="43.2152667" lon="11.5132017"><ele>178.4</ele><time>2026-04-20T08:23:12.938Z</time></trkpt><trkpt lat="43.2153367" lon="11.5133067"><ele>178.8</ele><time>2026-04-20T08:23:13.937Z</time></trkpt><trkpt lat="43.2153933" lon="11.5134167"><ele>179.2</ele><time>2026-04-20T08:23:14.937Z</time></trkpt><trkpt lat="43.2154433" lon="11.513535"><ele>179.6</ele><time>2026-04-20T08:23:15.938Z</time></trkpt><trkpt lat="43.21548" lon="11.51367"><ele>180.0</ele><time>2026-04-20T08:23:16.937Z</time></trkpt><trkpt lat="43.2155" lon="11.5137917"><ele>180.4</ele><time>2026-04-20T08:23:17.937Z</time></trkpt><trkpt lat="43.2155217" lon="11.5139083"><ele>180.8</ele><time>2026-04-20T08:23:18.937Z</time></trkpt><trkpt lat="43.215545" lon="11.514025"><ele>181.2</ele><time>2026-04-20T08:23:19.938Z</time></trkpt><trkpt lat="43.215575" lon="11.5141533"><ele>181.6</ele><time>2026-04-20T08:23:20.937Z</time></trkpt><trkpt lat="43.21561" lon="11.514285"><ele>182.0</ele><time>2026-04-20T08:23:21.937Z</time></trkpt><trkpt lat="43.2156533" lon="11.5144183"><ele>182.5</ele><time>2026-04-20T08:23:22.938Z</time></trkpt><trkpt lat="43.2156983" lon="11.51456"><ele>183.0</ele><time>2026-04-20T08:23:23.937Z</time></trkpt><trkpt lat="43.2157483" lon="11.5147133"><ele>183.5</ele><time>2026-04-20T08:23:24.937Z</time></trkpt><trkpt lat="43.2158" lon="11.5148617"><ele>184.0</ele><time>2026-04-20T08:23:25.937Z</time></trkpt><trkpt lat="43.2158483" lon="11.5150033"><ele>181.5</ele><time>2026-04-20T08:23:26.938Z</time></trkpt><trkpt lat="43.215895" lon="11.5151533"><ele>179.0</ele><time>2026-04-20T08:23:27.937Z</time></trkpt><trkpt lat="43.2159467" lon="11.5153017"><ele>176.5</ele><time>2026-04-20T08:23:28.938Z</time></trkpt><trkpt lat="43.216" lon="11.5154433"><ele>174.0</ele><time>2026-04-20T08:23:29.937Z</time></trkpt><trkpt lat="43.21606" lon="11.5155867"><ele>172.5</ele><time>2026-04-20T08:23:30.938Z</time></trkpt><trkpt lat="43.2161217" lon="11.5157333"><ele>171.0</ele><time>2026-04-20T08:23:31.937Z</time></trkpt><trkpt lat="43.2161867" lon="11.5158767"><ele>169.5</ele><time>2026-04-20T08:23:32.937Z</time></trkpt><trkpt lat="43.21626" lon="11.5160217"><ele>168.0</ele><time>2026-04-20T08:23:33.937Z</time></trkpt><trkpt lat="43.2163317" lon="11.5161633"><ele>168.25</ele><time>2026-04-20T08:23:34.937Z</time></trkpt><trkpt lat="43.2164" lon="11.5163067"><ele>168.5</ele><time>2026-04-20T08:23:35.938Z</time></trkpt><trkpt lat="43.2164767" lon="11.5164533"><ele>168.75</ele><time>2026-04-20T08:23:36.937Z</time></trkpt><trkpt lat="43.2165567" lon="11.5166"><ele>169.0</ele><time>2026-04-20T08:23:37.937Z</time></trkpt><trkpt lat="43.2166317" lon="11.5167517"><ele>169.0</ele><time>2026-04-20T08:23:38.938Z</time></trkpt><trkpt lat="43.216705" lon="11.5169"><ele>169.0</ele><time>2026-04-20T08:23:39.937Z</time></trkpt><trkpt lat="43.21677" lon="11.5170583"><ele>169.0</ele><time>2026-04-20T08:23:40.938Z</time></trkpt><trkpt lat="43.21684" lon="11.5172033"><ele>169.0</ele><time>2026-04-20T08:23:41.937Z</time></trkpt><trkpt lat="43.2169083" lon="11.51736"><ele>169.0</ele><time>2026-04-20T08:23:42.937Z</time></trkpt><trkpt lat="43.21697" lon="11.5175167"><ele>169.0</ele><time>2026-04-20T08:23:43.938Z</time></trkpt><trkpt lat="43.2170317" lon="11.517675"><ele>169.0</ele><time>2026-04-20T08:23:44.937Z</time></trkpt><trkpt lat="43.2170967" lon="11.5178367"><ele>169.0</ele><time>2026-04-20T08:23:45.937Z</time></trkpt><trkpt lat="43.21716" lon="11.5180033"><ele>169.0</ele><time>2026-04-20T08:23:46.938Z</time></trkpt><trkpt lat="43.2172167" lon="11.5181467"><ele>169.0</ele><time>2026-04-20T08:23:47.937Z</time></trkpt><trkpt lat="43.2172667" lon="11.5182783"><ele>169.0</ele><time>2026-04-20T08:23:48.938Z</time></trkpt><trkpt lat="43.2173183" lon="11.5184083"><ele>169.0</ele><time>2026-04-20T08:23:49.937Z</time></trkpt><trkpt lat="43.2173617" lon="11.51855"><ele>169.0</ele><time>2026-04-20T08:23:50.938Z</time></trkpt><trkpt lat="43.217405" lon="11.5187083"><ele>170.25</ele><time>2026-04-20T08:23:51.937Z</time></trkpt><trkpt lat="43.21744" lon="11.5188667"><ele>171.5</ele><time>2026-04-20T08:23:52.937Z</time></trkpt><trkpt lat="43.2174617" lon="11.5190217"><ele>172.75</ele><time>2026-04-20T08:23:53.938Z</time></trkpt><trkpt lat="43.2174717" lon="11.5191767"><ele>174.0</ele><time>2026-04-20T08:23:54.938Z</time></trkpt><trkpt lat="43.2174683" lon="11.519335"><ele>174.0</ele><time>2026-04-20T08:23:55.938Z</time></trkpt><trkpt lat="43.2174567" lon="11.5194983"><ele>174.0</ele><time>2026-04-20T08:23:56.937Z</time></trkpt><trkpt lat="43.217445" lon="11.5196567"><ele>174.0</ele><time>2026-04-20T08:23:57.937Z</time></trkpt><trkpt lat="43.217435" lon="11.519825"><ele>174.0</ele><time>2026-04-20T08:23:58.937Z</time></trkpt><trkpt lat="43.21743" lon="11.5199933"><ele>175.5</ele><time>2026-04-20T08:23:59.938Z</time></trkpt><trkpt lat="43.2174233" lon="11.520165"><ele>177.0</ele><time>2026-04-20T08:24:00.937Z</time></trkpt><trkpt lat="43.2174083" lon="11.5203433"><ele>178.5</ele><time>2026-04-20T08:24:01.937Z</time></trkpt><trkpt lat="43.2174067" lon="11.5205133"><ele>180.0</ele><time>2026-04-20T08:24:02.937Z</time></trkpt><trkpt lat="43.217405" lon="11.52066"><ele>179.83333333333334</ele><time>2026-04-20T08:24:03.937Z</time></trkpt><trkpt lat="43.2174067" lon="11.52079"><ele>179.66666666666666</ele><time>2026-04-20T08:24:04.937Z</time></trkpt><trkpt lat="43.217425" lon="11.520905"><ele>179.5</ele><time>2026-04-20T08:24:05.937Z</time></trkpt><trkpt lat="43.2174583" lon="11.5210117"><ele>179.33333333333331</ele><time>2026-04-20T08:24:06.937Z</time></trkpt><trkpt lat="43.2174983" lon="11.5211017"><ele>179.16666666666666</ele><time>2026-04-20T08:24:07.937Z</time></trkpt><trkpt lat="43.2175517" lon="11.521195"><ele>179.0</ele><time>2026-04-20T08:24:08.937Z</time></trkpt><trkpt lat="43.2176083" lon="11.5212783"><ele>179.0</ele><time>2026-04-20T08:24:09.937Z</time></trkpt><trkpt lat="43.2176717" lon="11.5213467"><ele>179.0</ele><time>2026-04-20T08:24:10.937Z</time></trkpt><trkpt lat="43.2177517" lon="11.5214083"><ele>179.0</ele><time>2026-04-20T08:24:11.938Z</time></trkpt><trkpt lat="43.21784" lon="11.52147"><ele>179.0</ele><time>2026-04-20T08:24:12.938Z</time></trkpt><trkpt lat="43.21794" lon="11.5215367"><ele>179.0</ele><time>2026-04-20T08:24:13.938Z</time></trkpt><trkpt lat="43.2180317" lon="11.5215917"><ele>179.0</ele><time>2026-04-20T08:24:14.938Z</time></trkpt><trkpt lat="43.2181033" lon="11.52166"><ele>179.0</ele><time>2026-04-20T08:24:15.937Z</time></trkpt><trkpt lat="43.218155" lon="11.5217467"><ele>179.0</ele><time>2026-04-20T08:24:16.937Z</time></trkpt><trkpt lat="43.2181833" lon="11.521845"><ele>179.0</ele><time>2026-04-20T08:24:17.938Z</time></trkpt><trkpt lat="43.2181983" lon="11.5219633"><ele>179.0</ele><time>2026-04-20T08:24:18.937Z</time></trkpt><trkpt lat="43.2182017" lon="11.5220983"><ele>179.0</ele><time>2026-04-20T08:24:19.937Z</time></trkpt><trkpt lat="43.2182117" lon="11.5222367"><ele>179.2</ele><time>2026-04-20T08:24:20.937Z</time></trkpt><trkpt lat="43.2182367" lon="11.5223767"><ele>179.39999999999998</ele><time>2026-04-20T08:24:21.938Z</time></trkpt><trkpt lat="43.2182767" lon="11.52252"><ele>179.6</ele><time>2026-04-20T08:24:22.937Z</time></trkpt><trkpt lat="43.2183167" lon="11.5226567"><ele>179.8</ele><time>2026-04-20T08:24:23.938Z</time></trkpt><trkpt lat="43.2183517" lon="11.5227833"><ele>180.0</ele><time>2026-04-20T08:24:24.937Z</time></trkpt><trkpt lat="43.2183983" lon="11.5229233"><ele>178.0</ele><time>2026-04-20T08:24:25.937Z</time></trkpt><trkpt lat="43.2184483" lon="11.523065"><ele>176.0</ele><time>2026-04-20T08:24:26.937Z</time></trkpt><trkpt lat="43.2185033" lon="11.523205"><ele>174.0</ele><time>2026-04-20T08:24:27.937Z</time></trkpt><trkpt lat="43.21857" lon="11.523335"><ele>172.0</ele><time>2026-04-20T08:24:28.937Z</time></trkpt><trkpt lat="43.2186433" lon="11.5234683"><ele>172.0</ele><time>2026-04-20T08:24:29.937Z</time></trkpt><trkpt lat="43.21872" lon="11.5236"><ele>172.0</ele><time>2026-04-20T08:24:30.937Z</time></trkpt><trkpt lat="43.2187867" lon="11.5237383"><ele>172.0</ele><time>2026-04-20T08:24:31.938Z</time></trkpt><trkpt lat="43.2188633" lon="11.5238667"><ele>172.0</ele><time>2026-04-20T08:24:32.938Z</time></trkpt><trkpt lat="43.218945" lon="11.5240017"><ele>172.0</ele><time>2026-04-20T08:24:33.937Z</time></trkpt><trkpt lat="43.219025" lon="11.5241433"><ele>172.0</ele><time>2026-04-20T08:24:34.937Z</time></trkpt><trkpt lat="43.2191083" lon="11.5242833"><ele>172.0</ele><time>2026-04-20T08:24:35.938Z</time></trkpt><trkpt lat="43.2191967" lon="11.5244217"><ele>172.0</ele><time>2026-04-20T08:24:36.938Z</time></trkpt><trkpt lat="43.21927" lon="11.5245517"><ele>171.0</ele><time>2026-04-20T08:24:37.937Z</time></trkpt><trkpt lat="43.2193467" lon="11.5246767"><ele>170.0</ele><time>2026-04-20T08:24:38.937Z</time></trkpt><trkpt lat="43.219425" lon="11.5247867"><ele>169.0</ele><time>2026-04-20T08:24:39.937Z</time></trkpt><trkpt lat="43.2195017" lon="11.52487"><ele>168.0</ele><time>2026-04-20T08:24:40.937Z</time></trkpt><trkpt lat="43.219585" lon="11.524935"><ele>167.0</ele><time>2026-04-20T08:24:41.937Z</time></trkpt><trkpt lat="43.2196667" lon="11.5249883"><ele>167.0</ele><time>2026-04-20T08:24:42.937Z</time></trkpt><trkpt lat="43.2197533" lon="11.5250083"><ele>167.0</ele><time>2026-04-20T08:24:43.937Z</time></trkpt><trkpt lat="43.2198433" lon="11.5250133"><ele>167.0</ele><time>2026-04-20T08:24:44.937Z</time></trkpt><trkpt lat="43.219935" lon="11.5249917"><ele>167.0</ele><time>2026-04-20T08:24:45.937Z</time></trkpt><trkpt lat="43.2200267" lon="11.5249467"><ele>167.0</ele><time>2026-04-20T08:24:46.937Z</time></trkpt><trkpt lat="43.2201133" lon="11.5249033"><ele>168.2</ele><time>2026-04-20T08:24:47.938Z</time></trkpt><trkpt lat="43.22021" lon="11.5248667"><ele>169.39999999999998</ele><time>2026-04-20T08:24:48.937Z</time></trkpt><trkpt lat="43.22031" lon="11.52483"><ele>170.60000000000002</ele><time>2026-04-20T08:24:49.937Z</time></trkpt><trkpt lat="43.2204067" lon="11.52483"><ele>171.8</ele><time>2026-04-20T08:24:50.938Z</time></trkpt><trkpt lat="43.2205083" lon="11.5248733"><ele>173.0</ele><time>2026-04-20T08:24:51.937Z</time></trkpt><trkpt lat="43.2206033" lon="11.524935"><ele>174.0</ele><time>2026-04-20T08:24:52.937Z</time></trkpt><trkpt lat="43.220695" lon="11.5250017"><ele>175.0</ele><time>2026-04-20T08:24:53.938Z</time></trkpt><trkpt lat="43.2207883" lon="11.5250883"><ele>176.0</ele><time>2026-04-20T08:24:54.937Z</time></trkpt><trkpt lat="43.2208883" lon="11.525165"><ele>177.0</ele><time>2026-04-20T08:24:55.937Z</time></trkpt><trkpt lat="43.22099" lon="11.5252267"><ele>178.0</ele><time>2026-04-20T08:24:56.937Z</time></trkpt><trkpt lat="43.2211033" lon="11.525255"><ele>178.0</ele><time>2026-04-20T08:24:57.937Z</time></trkpt><trkpt lat="43.2212217" lon="11.5252833"><ele>178.0</ele><time>2026-04-20T08:24:58.938Z</time></trkpt><trkpt lat="43.2213467" lon="11.525305"><ele>178.0</ele><time>2026-04-20T08:24:59.937Z</time></trkpt><trkpt lat="43.22148" lon="11.5253217"><ele>178.0</ele><time>2026-04-20T08:25:00.937Z</time></trkpt><trkpt lat="43.221605" lon="11.5253483"><ele>179.5</ele><time>2026-04-20T08:25:01.937Z</time></trkpt><trkpt lat="43.22173" lon="11.5253717"><ele>181.0</ele><time>2026-04-20T08:25:02.937Z</time></trkpt><trkpt lat="43.221855" lon="11.5253867"><ele>182.5</ele><time>2026-04-20T08:25:03.937Z</time></trkpt><trkpt lat="43.2219833" lon="11.5253983"><ele>184.0</ele><time>2026-04-20T08:25:04.938Z</time></trkpt><trkpt lat="43.2221117" lon="11.5254233"><ele>180.75</ele><time>2026-04-20T08:25:05.938Z</time></trkpt><trkpt lat="43.2222383" lon="11.5254433"><ele>177.5</ele><time>2026-04-20T08:25:06.937Z</time></trkpt><trkpt lat="43.2223617" lon="11.5254583"><ele>174.25</ele><time>2026-04-20T08:25:07.937Z</time></trkpt><trkpt lat="43.2224767" lon="11.5254633"><ele>171.0</ele><time>2026-04-20T08:25:08.937Z</time></trkpt><trkpt lat="43.2225867" lon="11.5254783"><ele>170.60000000000002</ele><time>2026-04-20T08:25:09.937Z</time></trkpt><trkpt lat="43.2226983" lon="11.5255067"><ele>170.2</ele><time>2026-04-20T08:25:10.937Z</time></trkpt><trkpt lat="43.2227967" lon="11.5255533"><ele>169.8</ele><time>2026-04-20T08:25:11.937Z</time></trkpt><trkpt lat="43.2228767" lon="11.5256233"><ele>169.39999999999998</ele><time>2026-04-20T08:25:12.937Z</time></trkpt><trkpt lat="43.222955" lon="11.5257083"><ele>169.0</ele><time>2026-04-20T08:25:13.937Z</time></trkpt><trkpt lat="43.2230317" lon="11.5258033"><ele>169.0</ele><time>2026-04-20T08:25:14.937Z</time></trkpt><trkpt lat="43.22311" lon="11.5258817"><ele>169.0</ele><time>2026-04-20T08:25:15.937Z</time></trkpt><trkpt lat="43.2231833" lon="11.52593"><ele>169.0</ele><time>2026-04-20T08:25:16.938Z</time></trkpt><trkpt lat="43.223255" lon="11.5259583"><ele>169.0</ele><time>2026-04-20T08:25:17.937Z</time></trkpt><trkpt lat="43.223335" lon="11.52597"><ele>169.0</ele><time>2026-04-20T08:25:18.937Z</time></trkpt><trkpt lat="43.223425" lon="11.5259667"><ele>169.0</ele><time>2026-04-20T08:25:19.938Z</time></trkpt><trkpt lat="43.22353" lon="11.5259583"><ele>170.75</ele><time>2026-04-20T08:25:20.937Z</time></trkpt><trkpt lat="43.2236433" lon="11.5259533"><ele>172.5</ele><time>2026-04-20T08:25:21.937Z</time></trkpt><trkpt lat="43.223755" lon="11.525955"><ele>174.25</ele><time>2026-04-20T08:25:22.937Z</time></trkpt><trkpt lat="43.2238717" lon="11.5259483"><ele>176.0</ele><time>2026-04-20T08:25:23.937Z</time></trkpt><trkpt lat="43.2239867" lon="11.5259333"><ele>176.25</ele><time>2026-04-20T08:25:24.937Z</time></trkpt><trkpt lat="43.224105" lon="11.5259233"><ele>176.5</ele><time>2026-04-20T08:25:25.937Z</time></trkpt><trkpt lat="43.224235" lon="11.5259067"><ele>176.75</ele><time>2026-04-20T08:25:26.938Z</time></trkpt><trkpt lat="43.2243667" lon="11.5259083"><ele>177.0</ele><time>2026-04-20T08:25:27.938Z</time></trkpt><trkpt lat="43.224495" lon="11.5259333"><ele>177.0</ele><time>2026-04-20T08:25:28.938Z</time></trkpt><trkpt lat="43.22462" lon="11.52597"><ele>177.0</ele><time>2026-04-20T08:25:29.937Z</time></trkpt><trkpt lat="43.224745" lon="11.5260017"><ele>177.0</ele><time>2026-04-20T08:25:30.937Z</time></trkpt><trkpt lat="43.2248683" lon="11.5260433"><ele>177.0</ele><time>2026-04-20T08:25:31.937Z</time></trkpt><trkpt lat="43.224995" lon="11.52608"><ele>177.75</ele><time>2026-04-20T08:25:32.937Z</time></trkpt><trkpt lat="43.2251217" lon="11.5261133"><ele>178.5</ele><time>2026-04-20T08:25:33.937Z</time></trkpt><trkpt lat="43.2252517" lon="11.526145"><ele>179.25</ele><time>2026-04-20T08:25:34.938Z</time></trkpt><trkpt lat="43.2253833" lon="11.5261833"><ele>180.0</ele><time>2026-04-20T08:25:35.937Z</time></trkpt><trkpt lat="43.225515" lon="11.5262283"><ele>178.75</ele><time>2026-04-20T08:25:36.937Z</time></trkpt><trkpt lat="43.2256467" lon="11.526265"><ele>177.5</ele><time>2026-04-20T08:25:37.938Z</time></trkpt><trkpt lat="43.2257717" lon="11.52631"><ele>176.25</ele><time>2026-04-20T08:25:38.938Z</time></trkpt><trkpt lat="43.22588" lon="11.5263533"><ele>175.0</ele><time>2026-04-20T08:25:39.938Z</time></trkpt><trkpt lat="43.2259767" lon="11.52638"><ele>175.0</ele><time>2026-04-20T08:25:40.937Z</time></trkpt><trkpt lat="43.22607" lon="11.5263917"><ele>175.0</ele><time>2026-04-20T08:25:41.937Z</time></trkpt><trkpt lat="43.226165" lon="11.5263933"><ele>175.0</ele><time>2026-04-20T08:25:42.938Z</time></trkpt><trkpt lat="43.2262683" lon="11.52639"><ele>175.0</ele><time>2026-04-20T08:25:43.937Z</time></trkpt><trkpt lat="43.2263733" lon="11.5263933"><ele>175.0</ele><time>2026-04-20T08:25:44.937Z</time></trkpt><trkpt lat="43.2264817" lon="11.5263767"><ele>175.4</ele><time>2026-04-20T08:25:45.938Z</time></trkpt><trkpt lat="43.2265833" lon="11.52637"><ele>175.8</ele><time>2026-04-20T08:25:46.937Z</time></trkpt><trkpt lat="43.2266767" lon="11.52636"><ele>176.2</ele><time>2026-04-20T08:25:47.938Z</time></trkpt><trkpt lat="43.22677" lon="11.5263583"><ele>176.6</ele><time>2026-04-20T08:25:48.937Z</time></trkpt><trkpt lat="43.2268617" lon="11.5263667"><ele>177.0</ele><time>2026-04-20T08:25:49.937Z</time></trkpt><trkpt lat="43.226955" lon="11.5263683"><ele>177.0</ele><time>2026-04-20T08:25:50.937Z</time></trkpt><trkpt lat="43.2270383" lon="11.5263667"><ele>177.0</ele><time>2026-04-20T08:25:51.937Z</time></trkpt><trkpt lat="43.2271117" lon="11.526385"><ele>177.0</ele><time>2026-04-20T08:25:52.938Z</time></trkpt><trkpt lat="43.2271867" lon="11.5264067"><ele>177.0</ele><time>2026-04-20T08:25:53.937Z</time></trkpt><trkpt lat="43.227265" lon="11.5264483"><ele>177.0</ele><time>2026-04-20T08:25:54.937Z</time></trkpt><trkpt lat="43.2273417" lon="11.5265117"><ele>177.0</ele><time>2026-04-20T08:25:55.937Z</time></trkpt><trkpt lat="43.22742" lon="11.5265917"><ele>176.2</ele><time>2026-04-20T08:25:56.937Z</time></trkpt><trkpt lat="43.2275033" lon="11.526685"><ele>175.39999999999998</ele><time>2026-04-20T08:25:57.937Z</time></trkpt><trkpt lat="43.2275917" lon="11.5267767"><ele>174.60000000000002</ele><time>2026-04-20T08:25:58.938Z</time></trkpt><trkpt lat="43.2276833" lon="11.52686"><ele>173.8</ele><time>2026-04-20T08:25:59.937Z</time></trkpt><trkpt lat="43.2277667" lon="11.5269433"><ele>173.0</ele><time>2026-04-20T08:26:00.937Z</time></trkpt><trkpt lat="43.2278467" lon="11.5270117"><ele>172.8</ele><time>2026-04-20T08:26:01.937Z</time></trkpt><trkpt lat="43.227925" lon="11.5270917"><ele>172.60000000000002</ele><time>2026-04-20T08:26:02.937Z</time></trkpt><trkpt lat="43.2280167" lon="11.5271617"><ele>172.39999999999998</ele><time>2026-04-20T08:26:03.937Z</time></trkpt><trkpt lat="43.2281183" lon="11.527225"><ele>172.2</ele><time>2026-04-20T08:26:04.937Z</time></trkpt><trkpt lat="43.22822" lon="11.5272833"><ele>172.0</ele><time>2026-04-20T08:26:05.938Z</time></trkpt><trkpt lat="43.228335" lon="11.5273367"><ele>171.0</ele><time>2026-04-20T08:26:06.936Z</time></trkpt><trkpt lat="43.22845" lon="11.52738"><ele>170.0</ele><time>2026-04-20T08:26:07.936Z</time></trkpt><trkpt lat="43.2285617" lon="11.5274333"><ele>169.0</ele><time>2026-04-20T08:26:08.936Z</time></trkpt><trkpt lat="43.228665" lon="11.527495"><ele>168.0</ele><time>2026-04-20T08:26:09.936Z</time></trkpt><trkpt lat="43.2287583" lon="11.52758"><ele>168.0</ele><time>2026-04-20T08:26:10.937Z</time></trkpt><trkpt lat="43.22886" lon="11.5276817"><ele>168.0</ele><time>2026-04-20T08:26:11.936Z</time></trkpt><trkpt lat="43.2289533" lon="11.5278"><ele>168.0</ele><time>2026-04-20T08:26:12.936Z</time></trkpt><trkpt lat="43.2290483" lon="11.5279117"><ele>168.0</ele><time>2026-04-20T08:26:13.936Z</time></trkpt><trkpt lat="43.22914" lon="11.528025"><ele>169.2</ele><time>2026-04-20T08:26:14.936Z</time></trkpt><trkpt lat="43.229225" lon="11.528125"><ele>170.4</ele><time>2026-04-20T08:26:15.936Z</time></trkpt><trkpt lat="43.2292983" lon="11.5282167"><ele>171.6</ele><time>2026-04-20T08:26:16.937Z</time></trkpt><trkpt lat="43.22937" lon="11.52829"><ele>172.79999999999998</ele><time>2026-04-20T08:26:17.936Z</time></trkpt><trkpt lat="43.229425" lon="11.5283567"><ele>174.0</ele><time>2026-04-20T08:26:18.936Z</time></trkpt><trkpt lat="43.229485" lon="11.5284283"><ele>174.0</ele><time>2026-04-20T08:26:19.937Z</time></trkpt><trkpt lat="43.229545" lon="11.5285"><ele>174.0</ele><time>2026-04-20T08:26:20.936Z</time></trkpt><trkpt lat="43.2296083" lon="11.5285717"><ele>174.0</ele><time>2026-04-20T08:26:21.937Z</time></trkpt><trkpt lat="43.2296683" lon="11.52864"><ele>174.0</ele><time>2026-04-20T08:26:22.937Z</time></trkpt><trkpt lat="43.2297267" lon="11.5286933"><ele>174.0</ele><time>2026-04-20T08:26:23.937Z</time></trkpt><trkpt lat="43.229785" lon="11.5287283"><ele>174.0</ele><time>2026-04-20T08:26:24.936Z</time></trkpt><trkpt lat="43.2298783" lon="11.5287917"><ele>174.39999999999998</ele><time>2026-04-20T08:26:26.936Z</time></trkpt><trkpt lat="43.2299783" lon="11.5288883"><ele>174.8</ele><time>2026-04-20T08:26:28.937Z</time></trkpt><trkpt lat="43.2300383" lon="11.52897"><ele>175.2</ele><time>2026-04-20T08:26:29.936Z</time></trkpt><trkpt lat="43.2301067" lon="11.5290633"><ele>175.60000000000002</ele><time>2026-04-20T08:26:30.936Z</time></trkpt><trkpt lat="43.2301817" lon="11.5291717"><ele>176.0</ele><time>2026-04-20T08:26:31.936Z</time></trkpt><trkpt lat="43.2302717" lon="11.5292933"><ele>176.0</ele><time>2026-04-20T08:26:32.936Z</time></trkpt><trkpt lat="43.2303567" lon="11.529405"><ele>176.0</ele><time>2026-04-20T08:26:33.936Z</time></trkpt><trkpt lat="43.23045" lon="11.5295317"><ele>176.0</ele><time>2026-04-20T08:26:34.936Z</time></trkpt><trkpt lat="43.2305433" lon="11.5296567"><ele>176.0</ele><time>2026-04-20T08:26:35.936Z</time></trkpt><trkpt lat="43.2306317" lon="11.5297917"><ele>175.0</ele><time>2026-04-20T08:26:36.936Z</time></trkpt><trkpt lat="43.2307317" lon="11.52993"><ele>174.0</ele><time>2026-04-20T08:26:37.937Z</time></trkpt><trkpt lat="43.23083" lon="11.5300683"><ele>173.0</ele><time>2026-04-20T08:26:38.936Z</time></trkpt><trkpt lat="43.230925" lon="11.5301983"><ele>172.0</ele><time>2026-04-20T08:26:39.936Z</time></trkpt><trkpt lat="43.23102" lon="11.5303217"><ele>171.25</ele><time>2026-04-20T08:26:40.936Z</time></trkpt><trkpt lat="43.23111" lon="11.5304433"><ele>170.5</ele><time>2026-04-20T08:26:41.937Z</time></trkpt><trkpt lat="43.2311917" lon="11.5305617"><ele>169.75</ele><time>2026-04-20T08:26:42.936Z</time></trkpt><trkpt lat="43.23126" lon="11.530685"><ele>169.0</ele><time>2026-04-20T08:26:43.936Z</time></trkpt><trkpt lat="43.2313233" lon="11.53082"><ele>169.0</ele><time>2026-04-20T08:26:44.937Z</time></trkpt><trkpt lat="43.23138" lon="11.53098"><ele>169.0</ele><time>2026-04-20T08:26:45.936Z</time></trkpt><trkpt lat="43.231435" lon="11.5311583"><ele>169.0</ele><time>2026-04-20T08:26:46.936Z</time></trkpt><trkpt lat="43.2314833" lon="11.5313467"><ele>169.0</ele><time>2026-04-20T08:26:47.936Z</time></trkpt><trkpt lat="43.2315233" lon="11.5315383"><ele>169.33333333333334</ele><time>2026-04-20T08:26:48.936Z</time></trkpt><trkpt lat="43.2315667" lon="11.5317267"><ele>169.66666666666666</ele><time>2026-04-20T08:26:49.937Z</time></trkpt><trkpt lat="43.2316033" lon="11.5319367"><ele>170.0</ele><time>2026-04-20T08:26:50.936Z</time></trkpt><trkpt lat="43.2316467" lon="11.5321417"><ele>170.0</ele><time>2026-04-20T08:26:51.936Z</time></trkpt><trkpt lat="43.2316833" lon="11.5323333"><ele>170.0</ele><time>2026-04-20T08:26:52.936Z</time></trkpt><trkpt lat="43.2317217" lon="11.53253"><ele>170.0</ele><time>2026-04-20T08:26:53.936Z</time></trkpt><trkpt lat="43.231755" lon="11.5327283"><ele>170.0</ele><time>2026-04-20T08:26:54.936Z</time></trkpt><trkpt lat="43.2317917" lon="11.5329283"><ele>170.0</ele><time>2026-04-20T08:26:55.936Z</time></trkpt><trkpt lat="43.23183" lon="11.5331233"><ele>170.0</ele><time>2026-04-20T08:26:56.936Z</time></trkpt><trkpt lat="43.2318633" lon="11.5333167"><ele>170.0</ele><time>2026-04-20T08:26:57.936Z</time></trkpt><trkpt lat="43.2318983" lon="11.5334917"><ele>170.0</ele><time>2026-04-20T08:26:58.936Z</time></trkpt><trkpt lat="43.2319283" lon="11.5336567"><ele>169.5</ele><time>2026-04-20T08:26:59.937Z</time></trkpt><trkpt lat="43.2319817" lon="11.5338233"><ele>169.0</ele><time>2026-04-20T08:27:00.936Z</time></trkpt><trkpt lat="43.2320417" lon="11.5339833"><ele>168.5</ele><time>2026-04-20T08:27:01.937Z</time></trkpt><trkpt lat="43.23213" lon="11.5341383"><ele>168.0</ele><time>2026-04-20T08:27:02.936Z</time></trkpt><trkpt lat="43.2322367" lon="11.53427"><ele>168.66666666666666</ele><time>2026-04-20T08:27:03.937Z</time></trkpt><trkpt lat="43.232355" lon="11.534385"><ele>169.33333333333331</ele><time>2026-04-20T08:27:04.936Z</time></trkpt><trkpt lat="43.232485" lon="11.5345033"><ele>170.0</ele><time>2026-04-20T08:27:05.936Z</time></trkpt><trkpt lat="43.2326167" lon="11.5346183"><ele>170.0</ele><time>2026-04-20T08:27:06.936Z</time></trkpt><trkpt lat="43.232755" lon="11.5347317"><ele>170.0</ele><time>2026-04-20T08:27:07.936Z</time></trkpt><trkpt lat="43.232895" lon="11.5348283"><ele>170.0</ele><time>2026-04-20T08:27:08.936Z</time></trkpt><trkpt lat="43.233035" lon="11.5349333"><ele>171.33333333333331</ele><time>2026-04-20T08:27:09.937Z</time></trkpt><trkpt lat="43.2331717" lon="11.5350267"><ele>172.66666666666666</ele><time>2026-04-20T08:27:10.937Z</time></trkpt><trkpt lat="43.2333067" lon="11.5351383"><ele>174.0</ele><time>2026-04-20T08:27:11.936Z</time></trkpt><trkpt lat="43.233445" lon="11.53526"><ele>172.33333333333334</ele><time>2026-04-20T08:27:12.936Z</time></trkpt><trkpt lat="43.2335717" lon="11.5353967"><ele>170.66666666666669</ele><time>2026-04-20T08:27:13.936Z</time></trkpt><trkpt lat="43.233685" lon="11.5355567"><ele>169.0</ele><time>2026-04-20T08:27:14.937Z</time></trkpt><trkpt lat="43.2337833" lon="11.535735"><ele>169.0</ele><time>2026-04-20T08:27:15.936Z</time></trkpt><trkpt lat="43.233875" lon="11.53592"><ele>169.0</ele><time>2026-04-20T08:27:16.937Z</time></trkpt><trkpt lat="43.2339667" lon="11.5361033"><ele>169.0</ele><time>2026-04-20T08:27:17.936Z</time></trkpt><trkpt lat="43.2340733" lon="11.5362983"><ele>170.0</ele><time>2026-04-20T08:27:18.937Z</time></trkpt><trkpt lat="43.2341867" lon="11.53651"><ele>171.0</ele><time>2026-04-20T08:27:19.937Z</time></trkpt><trkpt lat="43.2342983" lon="11.536715"><ele>172.0</ele><time>2026-04-20T08:27:20.936Z</time></trkpt><trkpt lat="43.2344017" lon="11.5369217"><ele>172.0</ele><time>2026-04-20T08:27:21.936Z</time></trkpt><trkpt lat="43.2345117" lon="11.5371317"><ele>172.0</ele><time>2026-04-20T08:27:22.936Z</time></trkpt><trkpt lat="43.2346283" lon="11.5373467"><ele>172.0</ele><time>2026-04-20T08:27:23.936Z</time></trkpt><trkpt lat="43.234745" lon="11.537565"><ele>172.66666666666669</ele><time>2026-04-20T08:27:24.936Z</time></trkpt><trkpt lat="43.2348633" lon="11.53779"><ele>173.33333333333334</ele><time>2026-04-20T08:27:25.936Z</time></trkpt><trkpt lat="43.2349867" lon="11.5380183"><ele>174.0</ele><time>2026-04-20T08:27:26.937Z</time></trkpt><trkpt lat="43.235115" lon="11.5382467"><ele>174.0</ele><time>2026-04-20T08:27:27.936Z</time></trkpt><trkpt lat="43.2352367" lon="11.5384717"><ele>174.0</ele><time>2026-04-20T08:27:28.936Z</time></trkpt><trkpt lat="43.2353567" lon="11.5386933"><ele>174.0</ele><time>2026-04-20T08:27:29.937Z</time></trkpt><trkpt lat="43.2354683" lon="11.5389083"><ele>173.66666666666666</ele><time>2026-04-20T08:27:30.936Z</time></trkpt><trkpt lat="43.2355767" lon="11.53911"><ele>173.33333333333331</ele><time>2026-04-20T08:27:31.936Z</time></trkpt><trkpt lat="43.23568" lon="11.5393033"><ele>173.0</ele><time>2026-04-20T08:27:32.936Z</time></trkpt><trkpt lat="43.2357733" lon="11.5394867"><ele>173.66666666666666</ele><time>2026-04-20T08:27:33.936Z</time></trkpt><trkpt lat="43.235845" lon="11.53968"><ele>174.33333333333334</ele><time>2026-04-20T08:27:34.936Z</time></trkpt><trkpt lat="43.23588" lon="11.5398767"><ele>175.0</ele><time>2026-04-20T08:27:35.936Z</time></trkpt><trkpt lat="43.23589" lon="11.5400983"><ele>175.0</ele><time>2026-04-20T08:27:36.936Z</time></trkpt><trkpt lat="43.2358833" lon="11.5403317"><ele>175.0</ele><time>2026-04-20T08:27:37.936Z</time></trkpt><trkpt lat="43.2358667" lon="11.5405683"><ele>175.0</ele><time>2026-04-20T08:27:38.936Z</time></trkpt><trkpt lat="43.23585" lon="11.540825"><ele>175.0</ele><time>2026-04-20T08:27:39.936Z</time></trkpt><trkpt lat="43.235845" lon="11.541095"><ele>175.0</ele><time>2026-04-20T08:27:40.937Z</time></trkpt><trkpt lat="43.23583" lon="11.5413733"><ele>175.0</ele><time>2026-04-20T08:27:41.936Z</time></trkpt><trkpt lat="43.2358167" lon="11.541655"><ele>176.33333333333334</ele><time>2026-04-20T08:27:42.936Z</time></trkpt><trkpt lat="43.235805" lon="11.5419283"><ele>177.66666666666666</ele><time>2026-04-20T08:27:43.936Z</time></trkpt><trkpt lat="43.2357983" lon="11.54221"><ele>179.0</ele><time>2026-04-20T08:27:44.937Z</time></trkpt><trkpt lat="43.2357867" lon="11.5424917"><ele>179.0</ele><time>2026-04-20T08:27:45.937Z</time></trkpt><trkpt lat="43.235775" lon="11.54279"><ele>179.0</ele><time>2026-04-20T08:27:46.936Z</time></trkpt><trkpt lat="43.2357633" lon="11.5430783"><ele>179.0</ele><time>2026-04-20T08:27:47.937Z</time></trkpt><trkpt lat="43.2357467" lon="11.543355"><ele>178.66666666666666</ele><time>2026-04-20T08:27:48.936Z</time></trkpt><trkpt lat="43.235735" lon="11.5436333"><ele>178.33333333333334</ele><time>2026-04-20T08:27:49.936Z</time></trkpt><trkpt lat="43.2357283" lon="11.543905"><ele>178.0</ele><time>2026-04-20T08:27:50.936Z</time></trkpt><trkpt lat="43.2357133" lon="11.5441667"><ele>177.66666666666669</ele><time>2026-04-20T08:27:51.937Z</time></trkpt><trkpt lat="43.2357067" lon="11.5444283"><ele>177.33333333333334</ele><time>2026-04-20T08:27:52.937Z</time></trkpt><trkpt lat="43.2357083" lon="11.544675"><ele>177.0</ele><time>2026-04-20T08:27:53.936Z</time></trkpt><trkpt lat="43.2357217" lon="11.5449183"><ele>176.66666666666666</ele><time>2026-04-20T08:27:54.937Z</time></trkpt><trkpt lat="43.2357533" lon="11.5451483"><ele>176.33333333333331</ele><time>2026-04-20T08:27:55.936Z</time></trkpt><trkpt lat="43.2357983" lon="11.5453633"><ele>176.0</ele><time>2026-04-20T08:27:56.936Z</time></trkpt><trkpt lat="43.2358633" lon="11.54558"><ele>176.0</ele><time>2026-04-20T08:27:57.936Z</time></trkpt><trkpt lat="43.2359467" lon="11.5457867"><ele>176.0</ele><time>2026-04-20T08:27:58.936Z</time></trkpt><trkpt lat="43.2360233" lon="11.54599"><ele>176.0</ele><time>2026-04-20T08:27:59.936Z</time></trkpt><trkpt lat="43.2361167" lon="11.5461817"><ele>175.0</ele><time>2026-04-20T08:28:00.936Z</time></trkpt><trkpt lat="43.2362183" lon="11.5463783"><ele>174.0</ele><time>2026-04-20T08:28:01.936Z</time></trkpt><trkpt lat="43.23633" lon="11.5465667"><ele>173.0</ele><time>2026-04-20T08:28:02.936Z</time></trkpt><trkpt lat="43.2364533" lon="11.54675"><ele>173.33333333333331</ele><time>2026-04-20T08:28:03.936Z</time></trkpt><trkpt lat="43.2365717" lon="11.5469333"><ele>173.66666666666666</ele><time>2026-04-20T08:28:04.936Z</time></trkpt><trkpt lat="43.2367033" lon="11.5471133"><ele>174.0</ele><time>2026-04-20T08:28:05.936Z</time></trkpt><trkpt lat="43.23684" lon="11.5472917"><ele>174.0</ele><time>2026-04-20T08:28:06.936Z</time></trkpt><trkpt lat="43.2369867" lon="11.547465"><ele>174.0</ele><time>2026-04-20T08:28:07.936Z</time></trkpt><trkpt lat="43.2371417" lon="11.5476283"><ele>174.0</ele><time>2026-04-20T08:28:08.936Z</time></trkpt><trkpt lat="43.2372917" lon="11.547805"><ele>174.66666666666666</ele><time>2026-04-20T08:28:09.936Z</time></trkpt><trkpt lat="43.2374433" lon="11.5479833"><ele>175.33333333333331</ele><time>2026-04-20T08:28:10.936Z</time></trkpt><trkpt lat="43.2375933" lon="11.54814"><ele>176.0</ele><time>2026-04-20T08:28:11.936Z</time></trkpt><trkpt lat="43.2377533" lon="11.5483067"><ele>176.0</ele><time>2026-04-20T08:28:12.936Z</time></trkpt><trkpt lat="43.2379133" lon="11.5484717"><ele>176.0</ele><time>2026-04-20T08:28:13.936Z</time></trkpt><trkpt lat="43.2380733" lon="11.548635"><ele>176.0</ele><time>2026-04-20T08:28:14.936Z</time></trkpt><trkpt lat="43.238235" lon="11.5487917"><ele>176.0</ele><time>2026-04-20T08:28:15.936Z</time></trkpt><trkpt lat="43.2384083" lon="11.5489367"><ele>176.0</ele><time>2026-04-20T08:28:16.936Z</time></trkpt><trkpt lat="43.2385833" lon="11.5490717"><ele>176.0</ele><time>2026-04-20T08:28:17.937Z</time></trkpt><trkpt lat="43.238755" lon="11.5492067"><ele>176.0</ele><time>2026-04-20T08:28:18.937Z</time></trkpt><trkpt lat="43.2389283" lon="11.5493283"><ele>176.0</ele><time>2026-04-20T08:28:19.936Z</time></trkpt><trkpt lat="43.23909" lon="11.5494617"><ele>176.0</ele><time>2026-04-20T08:28:20.936Z</time></trkpt><trkpt lat="43.2392383" lon="11.5496"><ele>175.66666666666666</ele><time>2026-04-20T08:28:21.936Z</time></trkpt><trkpt lat="43.2393833" lon="11.54976"><ele>175.33333333333334</ele><time>2026-04-20T08:28:22.936Z</time></trkpt><trkpt lat="43.2395183" lon="11.54993"><ele>175.0</ele><time>2026-04-20T08:28:23.936Z</time></trkpt><trkpt lat="43.2396533" lon="11.550115"><ele>175.0</ele><time>2026-04-20T08:28:24.936Z</time></trkpt><trkpt lat="43.239785" lon="11.5502967"><ele>175.0</ele><time>2026-04-20T08:28:25.936Z</time></trkpt><trkpt lat="43.23992" lon="11.5504867"><ele>175.0</ele><time>2026-04-20T08:28:26.936Z</time></trkpt><trkpt lat="43.2400533" lon="11.5506709"><ele>174.33333333333334</ele><time>2026-04-20T08:28:27.936Z</time></trkpt><trkpt lat="43.2401834" lon="11.5508527"><ele>173.66666666666666</ele><time>2026-04-20T08:28:28.936Z</time></trkpt><trkpt lat="43.2403076" lon="11.5510256"><ele>173.0</ele><time>2026-04-20T08:28:29.936Z</time></trkpt><trkpt lat="43.2404306" lon="11.5511942"><ele>172.5</ele><time>2026-04-20T08:28:30.936Z</time></trkpt><trkpt lat="43.2405414" lon="11.5513471"><ele>172.0</ele><time>2026-04-20T08:28:31.936Z</time></trkpt><trkpt lat="43.2406346" lon="11.5514771"><ele>171.5</ele><time>2026-04-20T08:28:32.936Z</time></trkpt><trkpt lat="43.2407145" lon="11.5515922"><ele>171.0</ele><time>2026-04-20T08:28:33.936Z</time></trkpt><trkpt lat="43.240781" lon="11.5516987"><ele>172.60000000000002</ele><time>2026-04-20T08:28:34.937Z</time></trkpt><trkpt lat="43.2408258" lon="11.5518051"><ele>174.2</ele><time>2026-04-20T08:28:35.937Z</time></trkpt><trkpt lat="43.2408438" lon="11.5519231"><ele>175.8</ele><time>2026-04-20T08:28:36.936Z</time></trkpt><trkpt lat="43.2408234" lon="11.5520447"><ele>177.39999999999998</ele><time>2026-04-20T08:28:37.937Z</time></trkpt><trkpt lat="43.2407813" lon="11.5521617"><ele>179.0</ele><time>2026-04-20T08:28:38.937Z</time></trkpt><trkpt lat="43.2407283" lon="11.5522636"><ele>179.16666666666666</ele><time>2026-04-20T08:28:39.936Z</time></trkpt><trkpt lat="43.2406837" lon="11.5523562"><ele>179.33333333333331</ele><time>2026-04-20T08:28:40.937Z</time></trkpt><trkpt lat="43.2406444" lon="11.552438"><ele>179.5</ele><time>2026-04-20T08:28:41.937Z</time></trkpt><trkpt lat="43.2406058" lon="11.5525171"><ele>179.66666666666666</ele><time>2026-04-20T08:28:42.936Z</time></trkpt><trkpt lat="43.2405698" lon="11.5526002"><ele>179.83333333333334</ele><time>2026-04-20T08:28:43.936Z</time></trkpt><trkpt lat="43.2405254" lon="11.5526874"><ele>180.0</ele><time>2026-04-20T08:28:44.936Z</time></trkpt><trkpt lat="43.2404741" lon="11.5527851"><ele>178.83333333333334</ele><time>2026-04-20T08:28:45.936Z</time></trkpt><trkpt lat="43.2404219" lon="11.552872"><ele>177.66666666666666</ele><time>2026-04-20T08:28:46.936Z</time></trkpt><trkpt lat="43.2403772" lon="11.5529504"><ele>176.5</ele><time>2026-04-20T08:28:47.936Z</time></trkpt><trkpt lat="43.240343" lon="11.5530783"><ele>175.33333333333331</ele><time>2026-04-20T08:28:49.936Z</time></trkpt><trkpt lat="43.2403964" lon="11.553146"><ele>174.16666666666666</ele><time>2026-04-20T08:28:51.937Z</time></trkpt><trkpt lat="43.2404907" lon="11.5531924"><ele>173.0</ele><time>2026-04-20T08:28:53.936Z</time></trkpt><trkpt lat="43.2405537" lon="11.5532233"><ele>173.0</ele><time>2026-04-20T08:28:54.936Z</time></trkpt><trkpt lat="43.240617" lon="11.5532572"><ele>173.0</ele><time>2026-04-20T08:28:55.936Z</time></trkpt><trkpt lat="43.2406827" lon="11.5533022"><ele>173.0</ele><time>2026-04-20T08:28:56.936Z</time></trkpt><trkpt lat="43.2407543" lon="11.5533474"><ele>173.0</ele><time>2026-04-20T08:28:57.936Z</time></trkpt><trkpt lat="43.2408321" lon="11.5533909"><ele>173.0</ele><time>2026-04-20T08:28:58.937Z</time></trkpt><trkpt lat="43.2409067" lon="11.553441"><ele>173.0</ele><time>2026-04-20T08:28:59.936Z</time></trkpt><trkpt lat="43.2409845" lon="11.5535025"><ele>173.0</ele><time>2026-04-20T08:29:00.937Z</time></trkpt><trkpt lat="43.2410636" lon="11.5535741"><ele>173.0</ele><time>2026-04-20T08:29:01.936Z</time></trkpt><trkpt lat="43.2411434" lon="11.5536441"><ele>173.0</ele><time>2026-04-20T08:29:02.936Z</time></trkpt><trkpt lat="43.2412264" lon="11.5537027"><ele>173.0</ele><time>2026-04-20T08:29:03.936Z</time></trkpt><trkpt lat="43.2413105" lon="11.5537544"><ele>173.0</ele><time>2026-04-20T08:29:04.936Z</time></trkpt><trkpt lat="43.2414003" lon="11.5537913"><ele>174.0</ele><time>2026-04-20T08:29:05.936Z</time></trkpt><trkpt lat="43.2414982" lon="11.5538147"><ele>175.0</ele><time>2026-04-20T08:29:06.936Z</time></trkpt><trkpt lat="43.2416074" lon="11.5538249"><ele>176.0</ele><time>2026-04-20T08:29:07.936Z</time></trkpt><trkpt lat="43.2417102" lon="11.5538195"><ele>177.0</ele><time>2026-04-20T08:29:08.937Z</time></trkpt><trkpt lat="43.2418085" lon="11.5538142"><ele>178.0</ele><time>2026-04-20T08:29:09.936Z</time></trkpt><trkpt lat="43.2419078" lon="11.5538315"><ele>178.0</ele><time>2026-04-20T08:29:10.936Z</time></trkpt><trkpt lat="43.2420009" lon="11.5538644"><ele>178.0</ele><time>2026-04-20T08:29:11.936Z</time></trkpt><trkpt lat="43.2420895" lon="11.553906"><ele>178.0</ele><time>2026-04-20T08:29:12.937Z</time></trkpt><trkpt lat="43.242176" lon="11.5539748"><ele>178.0</ele><time>2026-04-20T08:29:13.936Z</time></trkpt><trkpt lat="43.2422648" lon="11.5540562"><ele>178.0</ele><time>2026-04-20T08:29:14.936Z</time></trkpt><trkpt lat="43.2423633" lon="11.5541403"><ele>182.0</ele><time>2026-04-20T08:29:15.936Z</time></trkpt><trkpt lat="43.2424651" lon="11.554229"><ele>186.0</ele><time>2026-04-20T08:29:16.936Z</time></trkpt><trkpt lat="43.2425754" lon="11.5543144"><ele>190.0</ele><time>2026-04-20T08:29:17.937Z</time></trkpt><trkpt lat="43.2426824" lon="11.5543958"><ele>194.0</ele><time>2026-04-20T08:29:18.936Z</time></trkpt><trkpt lat="43.2427855" lon="11.554459"><ele>194.0</ele><time>2026-04-20T08:29:19.936Z</time></trkpt><trkpt lat="43.2428877" lon="11.5545018"><ele>194.0</ele><time>2026-04-20T08:29:20.936Z</time></trkpt><trkpt lat="43.2429862" lon="11.5545251"><ele>194.0</ele><time>2026-04-20T08:29:21.936Z</time></trkpt><trkpt lat="43.2430908" lon="11.5545373"><ele>194.0</ele><time>2026-04-20T08:29:22.936Z</time></trkpt><trkpt lat="43.2432013" lon="11.5545395"><ele>194.0</ele><time>2026-04-20T08:29:23.936Z</time></trkpt><trkpt lat="43.2433164" lon="11.5545294"><ele>195.5</ele><time>2026-04-20T08:29:24.936Z</time></trkpt><trkpt lat="43.2434378" lon="11.5545076"><ele>197.0</ele><time>2026-04-20T08:29:25.936Z</time></trkpt><trkpt lat="43.2435568" lon="11.5544867"><ele>198.5</ele><time>2026-04-20T08:29:26.936Z</time></trkpt><trkpt lat="43.2436748" lon="11.5544686"><ele>200.0</ele><time>2026-04-20T08:29:27.937Z</time></trkpt><trkpt lat="43.2437998" lon="11.5544512"><ele>200.0</ele><time>2026-04-20T08:29:28.936Z</time></trkpt><trkpt lat="43.2439197" lon="11.5544284"><ele>200.0</ele><time>2026-04-20T08:29:29.936Z</time></trkpt><trkpt lat="43.2440354" lon="11.5544135"><ele>200.0</ele><time>2026-04-20T08:29:30.936Z</time></trkpt><trkpt lat="43.244153" lon="11.5543993"><ele>200.0</ele><time>2026-04-20T08:29:31.936Z</time></trkpt><trkpt lat="43.2442751" lon="11.5543835"><ele>197.5</ele><time>2026-04-20T08:29:32.936Z</time></trkpt><trkpt lat="43.2444046" lon="11.5543623"><ele>195.0</ele><time>2026-04-20T08:29:33.936Z</time></trkpt><trkpt lat="43.24454" lon="11.55435"><ele>192.5</ele><time>2026-04-20T08:29:34.936Z</time></trkpt><trkpt lat="43.24467" lon="11.55434"><ele>190.0</ele><time>2026-04-20T08:29:35.936Z</time></trkpt><trkpt lat="43.2448" lon="11.5543283"><ele>189.0</ele><time>2026-04-20T08:29:36.936Z</time></trkpt><trkpt lat="43.24493" lon="11.5543117"><ele>188.0</ele><time>2026-04-20T08:29:37.937Z</time></trkpt><trkpt lat="43.245055" lon="11.5542917"><ele>187.0</ele><time>2026-04-20T08:29:38.936Z</time></trkpt><trkpt lat="43.2451817" lon="11.5542667"><ele>186.0</ele><time>2026-04-20T08:29:39.936Z</time></trkpt><trkpt lat="43.2453117" lon="11.55425"><ele>186.0</ele><time>2026-04-20T08:29:40.936Z</time></trkpt><trkpt lat="43.245445" lon="11.5542333"><ele>186.0</ele><time>2026-04-20T08:29:41.937Z</time></trkpt><trkpt lat="43.2455783" lon="11.5542083"><ele>186.0</ele><time>2026-04-20T08:29:42.937Z</time></trkpt><trkpt lat="43.24571" lon="11.5541917"><ele>186.0</ele><time>2026-04-20T08:29:43.936Z</time></trkpt><trkpt lat="43.24584" lon="11.5541783"><ele>183.75</ele><time>2026-04-20T08:29:44.937Z</time></trkpt><trkpt lat="43.2459717" lon="11.554165"><ele>181.5</ele><time>2026-04-20T08:29:45.937Z</time></trkpt><trkpt lat="43.2461017" lon="11.5541483"><ele>179.25</ele><time>2026-04-20T08:29:46.936Z</time></trkpt><trkpt lat="43.2462233" lon="11.5541283"><ele>177.0</ele><time>2026-04-20T08:29:47.936Z</time></trkpt><trkpt lat="43.2463417" lon="11.554125"><ele>177.0</ele><time>2026-04-20T08:29:48.937Z</time></trkpt><trkpt lat="43.2464567" lon="11.55412"><ele>177.0</ele><time>2026-04-20T08:29:49.937Z</time></trkpt><trkpt lat="43.2465667" lon="11.5541283"><ele>177.0</ele><time>2026-04-20T08:29:50.937Z</time></trkpt><trkpt lat="43.2466667" lon="11.55415"><ele>177.0</ele><time>2026-04-20T08:29:51.937Z</time></trkpt><trkpt lat="43.2467683" lon="11.5541983"><ele>177.0</ele><time>2026-04-20T08:29:52.936Z</time></trkpt><trkpt lat="43.2468817" lon="11.5542617"><ele>177.5</ele><time>2026-04-20T08:29:53.936Z</time></trkpt><trkpt lat="43.24699" lon="11.5543333"><ele>178.0</ele><time>2026-04-20T08:29:54.936Z</time></trkpt><trkpt lat="43.2470933" lon="11.5544033"><ele>178.5</ele><time>2026-04-20T08:29:55.937Z</time></trkpt><trkpt lat="43.2471933" lon="11.55448"><ele>179.0</ele><time>2026-04-20T08:29:56.936Z</time></trkpt><trkpt lat="43.2473033" lon="11.55456"><ele>179.0</ele><time>2026-04-20T08:29:57.936Z</time></trkpt><trkpt lat="43.2474133" lon="11.5546433"><ele>179.0</ele><time>2026-04-20T08:29:58.936Z</time></trkpt><trkpt lat="43.2475267" lon="11.55473"><ele>179.0</ele><time>2026-04-20T08:29:59.936Z</time></trkpt><trkpt lat="43.2476317" lon="11.5548067"><ele>179.0</ele><time>2026-04-20T08:30:00.936Z</time></trkpt><trkpt lat="43.2477267" lon="11.5548817"><ele>179.0</ele><time>2026-04-20T08:30:01.937Z</time></trkpt><trkpt lat="43.2478117" lon="11.55495"><ele>179.0</ele><time>2026-04-20T08:30:02.936Z</time></trkpt><trkpt lat="43.2478767" lon="11.55503"><ele>179.0</ele><time>2026-04-20T08:30:03.936Z</time></trkpt><trkpt lat="43.2479283" lon="11.5551317"><ele>179.0</ele><time>2026-04-20T08:30:04.937Z</time></trkpt><trkpt lat="43.2479767" lon="11.5552417"><ele>179.0</ele><time>2026-04-20T08:30:05.937Z</time></trkpt><trkpt lat="43.2480367" lon="11.5553533"><ele>178.0</ele><time>2026-04-20T08:30:06.937Z</time></trkpt><trkpt lat="43.2481067" lon="11.55545"><ele>177.0</ele><time>2026-04-20T08:30:07.936Z</time></trkpt><trkpt lat="43.2481883" lon="11.55554"><ele>176.0</ele><time>2026-04-20T08:30:08.937Z</time></trkpt><trkpt lat="43.24829" lon="11.5556333"><ele>175.0</ele><time>2026-04-20T08:30:09.937Z</time></trkpt><trkpt lat="43.2484083" lon="11.5557283"><ele>178.0</ele><time>2026-04-20T08:30:10.936Z</time></trkpt><trkpt lat="43.2485217" lon="11.5558233"><ele>181.0</ele><time>2026-04-20T08:30:11.936Z</time></trkpt><trkpt lat="43.24862" lon="11.5559117"><ele>184.0</ele><time>2026-04-20T08:30:12.936Z</time></trkpt><trkpt lat="43.2487217" lon="11.5559867"><ele>187.0</ele><time>2026-04-20T08:30:13.936Z</time></trkpt><trkpt lat="43.2488167" lon="11.556045"><ele>187.0</ele><time>2026-04-20T08:30:14.937Z</time></trkpt><trkpt lat="43.248925" lon="11.5560717"><ele>187.0</ele><time>2026-04-20T08:30:15.936Z</time></trkpt><trkpt lat="43.249045" lon="11.5560717"><ele>187.0</ele><time>2026-04-20T08:30:16.936Z</time></trkpt><trkpt lat="43.249165" lon="11.5560567"><ele>187.0</ele><time>2026-04-20T08:30:17.936Z</time></trkpt><trkpt lat="43.2492833" lon="11.556035"><ele>189.25</ele><time>2026-04-20T08:30:18.936Z</time></trkpt><trkpt lat="43.2494033" lon="11.5560133"><ele>191.5</ele><time>2026-04-20T08:30:19.936Z</time></trkpt><trkpt lat="43.2495333" lon="11.555995"><ele>193.75</ele><time>2026-04-20T08:30:20.936Z</time></trkpt><trkpt lat="43.249655" lon="11.5559767"><ele>196.0</ele><time>2026-04-20T08:30:21.937Z</time></trkpt><trkpt lat="43.2497683" lon="11.555975"><ele>196.75</ele><time>2026-04-20T08:30:22.936Z</time></trkpt><trkpt lat="43.2498833" lon="11.5559667"><ele>197.5</ele><time>2026-04-20T08:30:23.937Z</time></trkpt><trkpt lat="43.25" lon="11.55593"><ele>198.25</ele><time>2026-04-20T08:30:24.936Z</time></trkpt><trkpt lat="43.250115" lon="11.5558633"><ele>199.0</ele><time>2026-04-20T08:30:25.936Z</time></trkpt><trkpt lat="43.25023" lon="11.5557867"><ele>199.0</ele><time>2026-04-20T08:30:26.936Z</time></trkpt><trkpt lat="43.25033" lon="11.5556883"><ele>199.0</ele><time>2026-04-20T08:30:27.936Z</time></trkpt><trkpt lat="43.250435" lon="11.55557"><ele>199.0</ele><time>2026-04-20T08:30:28.936Z</time></trkpt><trkpt lat="43.2505333" lon="11.555455"><ele>199.0</ele><time>2026-04-20T08:30:29.936Z</time></trkpt><trkpt lat="43.250635" lon="11.5553417"><ele>203.0</ele><time>2026-04-20T08:30:30.937Z</time></trkpt><trkpt lat="43.250735" lon="11.5552183"><ele>207.0</ele><time>2026-04-20T08:30:31.936Z</time></trkpt><trkpt lat="43.2508333" lon="11.5551133"><ele>211.0</ele><time>2026-04-20T08:30:32.937Z</time></trkpt><trkpt lat="43.25094" lon="11.5550183"><ele>215.0</ele><time>2026-04-20T08:30:33.937Z</time></trkpt><trkpt lat="43.251055" lon="11.55495"><ele>215.0</ele><time>2026-04-20T08:30:34.936Z</time></trkpt><trkpt lat="43.25117" lon="11.554895"><ele>215.0</ele><time>2026-04-20T08:30:35.937Z</time></trkpt><trkpt lat="43.2512983" lon="11.554845"><ele>215.0</ele><time>2026-04-20T08:30:36.936Z</time></trkpt><trkpt lat="43.25144" lon="11.55479"><ele>215.0</ele><time>2026-04-20T08:30:37.936Z</time></trkpt><trkpt lat="43.2515833" lon="11.5547367"><ele>214.5</ele><time>2026-04-20T08:30:38.937Z</time></trkpt><trkpt lat="43.2517233" lon="11.5546883"><ele>214.0</ele><time>2026-04-20T08:30:39.936Z</time></trkpt><trkpt lat="43.2518467" lon="11.554645"><ele>213.5</ele><time>2026-04-20T08:30:40.937Z</time></trkpt><trkpt lat="43.2519533" lon="11.55461"><ele>213.0</ele><time>2026-04-20T08:30:41.936Z</time></trkpt><trkpt lat="43.2520467" lon="11.5545967"><ele>213.0</ele><time>2026-04-20T08:30:42.937Z</time></trkpt><trkpt lat="43.2521333" lon="11.5546033"><ele>213.0</ele><time>2026-04-20T08:30:43.936Z</time></trkpt><trkpt lat="43.2522283" lon="11.55463"><ele>213.0</ele><time>2026-04-20T08:30:44.937Z</time></trkpt><trkpt lat="43.2523333" lon="11.5546617"><ele>213.0</ele><time>2026-04-20T08:30:45.936Z</time></trkpt><trkpt lat="43.2524467" lon="11.5547"><ele>213.0</ele><time>2026-04-20T08:30:46.937Z</time></trkpt><trkpt lat="43.2525533" lon="11.5547133"><ele>213.25</ele><time>2026-04-20T08:30:47.936Z</time></trkpt><trkpt lat="43.2526683" lon="11.5547183"><ele>213.5</ele><time>2026-04-20T08:30:48.936Z</time></trkpt><trkpt lat="43.2527733" lon="11.5547083"><ele>213.75</ele><time>2026-04-20T08:30:49.936Z</time></trkpt><trkpt lat="43.2528917" lon="11.5546917"><ele>214.0</ele><time>2026-04-20T08:30:50.936Z</time></trkpt><trkpt lat="43.2530067" lon="11.5546733"><ele>214.0</ele><time>2026-04-20T08:30:51.936Z</time></trkpt><trkpt lat="43.2531183" lon="11.55464"><ele>214.0</ele><time>2026-04-20T08:30:52.936Z</time></trkpt><trkpt lat="43.2532367" lon="11.55459"><ele>214.0</ele><time>2026-04-20T08:30:53.936Z</time></trkpt><trkpt lat="43.25335" lon="11.55453"><ele>214.0</ele><time>2026-04-20T08:30:54.936Z</time></trkpt><trkpt lat="43.2534517" lon="11.5544583"><ele>217.6</ele><time>2026-04-20T08:30:55.936Z</time></trkpt><trkpt lat="43.25355" lon="11.5543833"><ele>221.2</ele><time>2026-04-20T08:30:56.936Z</time></trkpt><trkpt lat="43.2536367" lon="11.55431"><ele>224.79999999999998</ele><time>2026-04-20T08:30:57.936Z</time></trkpt><trkpt lat="43.2537233" lon="11.5542467"><ele>228.39999999999998</ele><time>2026-04-20T08:30:58.936Z</time></trkpt><trkpt lat="43.253805" lon="11.5541667"><ele>232.0</ele><time>2026-04-20T08:30:59.937Z</time></trkpt><trkpt lat="43.2538767" lon="11.5540683"><ele>232.0</ele><time>2026-04-20T08:31:00.936Z</time></trkpt><trkpt lat="43.25394" lon="11.5539517"><ele>232.0</ele><time>2026-04-20T08:31:01.937Z</time></trkpt><trkpt lat="43.2539933" lon="11.553835"><ele>232.0</ele><time>2026-04-20T08:31:02.937Z</time></trkpt><trkpt lat="43.2540267" lon="11.5537033"><ele>232.0</ele><time>2026-04-20T08:31:03.936Z</time></trkpt><trkpt lat="43.2540433" lon="11.5535717"><ele>232.0</ele><time>2026-04-20T08:31:04.936Z</time></trkpt><trkpt lat="43.2540533" lon="11.55344"><ele>234.6</ele><time>2026-04-20T08:31:05.936Z</time></trkpt><trkpt lat="43.25407" lon="11.55331"><ele>237.2</ele><time>2026-04-20T08:31:06.936Z</time></trkpt><trkpt lat="43.2541" lon="11.553195"><ele>239.8</ele><time>2026-04-20T08:31:07.936Z</time></trkpt><trkpt lat="43.25415" lon="11.5530867"><ele>242.4</ele><time>2026-04-20T08:31:08.937Z</time></trkpt><trkpt lat="43.2542167" lon="11.553"><ele>245.0</ele><time>2026-04-20T08:31:09.937Z</time></trkpt><trkpt lat="43.2542917" lon="11.5529467"><ele>245.0</ele><time>2026-04-20T08:31:10.937Z</time></trkpt><trkpt lat="43.2543733" lon="11.55293"><ele>245.0</ele><time>2026-04-20T08:31:11.936Z</time></trkpt><trkpt lat="43.2544733" lon="11.5529267"><ele>245.0</ele><time>2026-04-20T08:31:12.936Z</time></trkpt><trkpt lat="43.2545883" lon="11.5529267"><ele>245.0</ele><time>2026-04-20T08:31:13.937Z</time></trkpt><trkpt lat="43.2547133" lon="11.5529183"><ele>245.0</ele><time>2026-04-20T08:31:14.936Z</time></trkpt><trkpt lat="43.254845" lon="11.5529133"><ele>245.6</ele><time>2026-04-20T08:31:15.937Z</time></trkpt><trkpt lat="43.25496" lon="11.5529033"><ele>246.2</ele><time>2026-04-20T08:31:16.937Z</time></trkpt><trkpt lat="43.2550683" lon="11.5528967"><ele>246.8</ele><time>2026-04-20T08:31:17.936Z</time></trkpt><trkpt lat="43.25517" lon="11.552895"><ele>247.4</ele><time>2026-04-20T08:31:18.936Z</time></trkpt><trkpt lat="43.25528" lon="11.5528933"><ele>248.0</ele><time>2026-04-20T08:31:19.936Z</time></trkpt><trkpt lat="43.2553917" lon="11.552905"><ele>248.0</ele><time>2026-04-20T08:31:20.936Z</time></trkpt><trkpt lat="43.2555083" lon="11.55293"><ele>248.0</ele><time>2026-04-20T08:31:21.936Z</time></trkpt><trkpt lat="43.2556267" lon="11.5529633"><ele>248.0</ele><time>2026-04-20T08:31:22.936Z</time></trkpt><trkpt lat="43.25574" lon="11.553015"><ele>248.0</ele><time>2026-04-20T08:31:23.936Z</time></trkpt><trkpt lat="43.2558633" lon="11.5530833"><ele>249.0</ele><time>2026-04-20T08:31:24.936Z</time></trkpt><trkpt lat="43.255985" lon="11.5531583"><ele>250.0</ele><time>2026-04-20T08:31:25.936Z</time></trkpt><trkpt lat="43.2561017" lon="11.55323"><ele>251.0</ele><time>2026-04-20T08:31:26.937Z</time></trkpt><trkpt lat="43.2562067" lon="11.5533033"><ele>252.0</ele><time>2026-04-20T08:31:27.937Z</time></trkpt><trkpt lat="43.2563083" lon="11.5533717"><ele>252.0</ele><time>2026-04-20T08:31:28.936Z</time></trkpt><trkpt lat="43.25641" lon="11.5534367"><ele>252.0</ele><time>2026-04-20T08:31:29.936Z</time></trkpt><trkpt lat="43.25651" lon="11.5535083"><ele>252.0</ele><time>2026-04-20T08:31:30.936Z</time></trkpt><trkpt lat="43.2566133" lon="11.553575"><ele>252.0</ele><time>2026-04-20T08:31:31.937Z</time></trkpt><trkpt lat="43.25672" lon="11.55365"><ele>251.75</ele><time>2026-04-20T08:31:32.936Z</time></trkpt><trkpt lat="43.25683" lon="11.55369"><ele>251.5</ele><time>2026-04-20T08:31:33.936Z</time></trkpt><trkpt lat="43.2569467" lon="11.5537083"><ele>251.25</ele><time>2026-04-20T08:31:34.936Z</time></trkpt><trkpt lat="43.2570683" lon="11.5537033"><ele>251.0</ele><time>2026-04-20T08:31:35.936Z</time></trkpt><trkpt lat="43.2571917" lon="11.5536833"><ele>251.25</ele><time>2026-04-20T08:31:36.936Z</time></trkpt><trkpt lat="43.2573267" lon="11.5536517"><ele>251.5</ele><time>2026-04-20T08:31:37.937Z</time></trkpt><trkpt lat="43.2574667" lon="11.553605"><ele>251.75</ele><time>2026-04-20T08:31:38.936Z</time></trkpt><trkpt lat="43.257605" lon="11.5535533"><ele>252.0</ele><time>2026-04-20T08:31:39.936Z</time></trkpt><trkpt lat="43.2577267" lon="11.55348"><ele>252.0</ele><time>2026-04-20T08:31:40.936Z</time></trkpt><trkpt lat="43.2578417" lon="11.5534117"><ele>252.0</ele><time>2026-04-20T08:31:41.936Z</time></trkpt><trkpt lat="43.2579533" lon="11.553355"><ele>252.0</ele><time>2026-04-20T08:31:42.936Z</time></trkpt><trkpt lat="43.258075" lon="11.5532983"><ele>252.0</ele><time>2026-04-20T08:31:43.936Z</time></trkpt><trkpt lat="43.2581967" lon="11.55326"><ele>252.0</ele><time>2026-04-20T08:31:44.936Z</time></trkpt><trkpt lat="43.258315" lon="11.5532317"><ele>252.0</ele><time>2026-04-20T08:31:45.936Z</time></trkpt><trkpt lat="43.25843" lon="11.5532083"><ele>252.0</ele><time>2026-04-20T08:31:46.937Z</time></trkpt><trkpt lat="43.2585483" lon="11.5531817"><ele>252.0</ele><time>2026-04-20T08:31:47.936Z</time></trkpt><trkpt lat="43.25866" lon="11.5531567"><ele>252.0</ele><time>2026-04-20T08:31:48.936Z</time></trkpt><trkpt lat="43.2587717" lon="11.5531317"><ele>252.0</ele><time>2026-04-20T08:31:49.936Z</time></trkpt><trkpt lat="43.2588717" lon="11.55309"><ele>252.0</ele><time>2026-04-20T08:31:50.936Z</time></trkpt><trkpt lat="43.2589667" lon="11.5530283"><ele>252.0</ele><time>2026-04-20T08:31:51.936Z</time></trkpt><trkpt lat="43.259055" lon="11.55296"><ele>252.0</ele><time>2026-04-20T08:31:52.936Z</time></trkpt><trkpt lat="43.2591383" lon="11.552865"><ele>250.8</ele><time>2026-04-20T08:31:53.936Z</time></trkpt><trkpt lat="43.2592133" lon="11.5527683"><ele>249.6</ele><time>2026-04-20T08:31:54.936Z</time></trkpt><trkpt lat="43.2592917" lon="11.5526617"><ele>248.40000000000003</ele><time>2026-04-20T08:31:55.936Z</time></trkpt><trkpt lat="43.2593617" lon="11.55255"><ele>247.20000000000002</ele><time>2026-04-20T08:31:56.937Z</time></trkpt><trkpt lat="43.2594217" lon="11.5524433"><ele>246.0</ele><time>2026-04-20T08:31:57.936Z</time></trkpt><trkpt lat="43.259475" lon="11.55232"><ele>246.0</ele><time>2026-04-20T08:31:58.936Z</time></trkpt><trkpt lat="43.2595167" lon="11.552185"><ele>246.00000000000003</ele><time>2026-04-20T08:31:59.936Z</time></trkpt><trkpt lat="43.2595583" lon="11.55205"><ele>246.00000000000003</ele><time>2026-04-20T08:32:00.936Z</time></trkpt><trkpt lat="43.2595917" lon="11.5519117"><ele>246.0</ele><time>2026-04-20T08:32:01.936Z</time></trkpt><trkpt lat="43.25963" lon="11.55177"><ele>246.0</ele><time>2026-04-20T08:32:02.937Z</time></trkpt><trkpt lat="43.2596583" lon="11.5516283"><ele>246.0</ele><time>2026-04-20T08:32:03.937Z</time></trkpt><trkpt lat="43.25969" lon="11.5515"><ele>246.0</ele><time>2026-04-20T08:32:04.936Z</time></trkpt><trkpt lat="43.2597133" lon="11.55139"><ele>246.0</ele><time>2026-04-20T08:32:05.936Z</time></trkpt><trkpt lat="43.259735" lon="11.5512783"><ele>246.0</ele><time>2026-04-20T08:32:06.936Z</time></trkpt><trkpt lat="43.25977" lon="11.551175"><ele>246.0</ele><time>2026-04-20T08:32:07.936Z</time></trkpt><trkpt lat="43.2598117" lon="11.5510683"><ele>246.0</ele><time>2026-04-20T08:32:08.936Z</time></trkpt><trkpt lat="43.259865" lon="11.5509583"><ele>246.4</ele><time>2026-04-20T08:32:09.936Z</time></trkpt><trkpt lat="43.2599167" lon="11.5508483"><ele>246.8</ele><time>2026-04-20T08:32:10.936Z</time></trkpt><trkpt lat="43.25998" lon="11.5507333"><ele>247.20000000000002</ele><time>2026-04-20T08:32:11.936Z</time></trkpt><trkpt lat="43.26004" lon="11.5506233"><ele>247.60000000000002</ele><time>2026-04-20T08:32:12.937Z</time></trkpt><trkpt lat="43.260105" lon="11.5505117"><ele>248.0</ele><time>2026-04-20T08:32:13.936Z</time></trkpt><trkpt lat="43.2601833" lon="11.550385"><ele>246.25</ele><time>2026-04-20T08:32:14.936Z</time></trkpt><trkpt lat="43.2602667" lon="11.5502617"><ele>244.5</ele><time>2026-04-20T08:32:15.936Z</time></trkpt><trkpt lat="43.2603633" lon="11.5501583"><ele>242.75</ele><time>2026-04-20T08:32:16.936Z</time></trkpt><trkpt lat="43.2604617" lon="11.5500633"><ele>241.0</ele><time>2026-04-20T08:32:17.936Z</time></trkpt><trkpt lat="43.2605733" lon="11.5500067"><ele>239.0</ele><time>2026-04-20T08:32:18.936Z</time></trkpt><trkpt lat="43.2606933" lon="11.54996"><ele>237.0</ele><time>2026-04-20T08:32:19.936Z</time></trkpt><trkpt lat="43.2608133" lon="11.549925"><ele>235.0</ele><time>2026-04-20T08:32:20.936Z</time></trkpt><trkpt lat="43.2609383" lon="11.54991"><ele>233.0</ele><time>2026-04-20T08:32:21.936Z</time></trkpt><trkpt lat="43.26106" lon="11.54992"><ele>233.0</ele><time>2026-04-20T08:32:22.936Z</time></trkpt><trkpt lat="43.2611783" lon="11.5499467"><ele>233.0</ele><time>2026-04-20T08:32:23.936Z</time></trkpt><trkpt lat="43.261295" lon="11.5499533"><ele>233.0</ele><time>2026-04-20T08:32:24.936Z</time></trkpt><trkpt lat="43.2614233" lon="11.5499433"><ele>233.0</ele><time>2026-04-20T08:32:25.936Z</time></trkpt><trkpt lat="43.261555" lon="11.5499133"><ele>233.5</ele><time>2026-04-20T08:32:26.936Z</time></trkpt><trkpt lat="43.2616833" lon="11.5498617"><ele>234.0</ele><time>2026-04-20T08:32:27.937Z</time></trkpt><trkpt lat="43.2618133" lon="11.5497933"><ele>234.5</ele><time>2026-04-20T08:32:28.937Z</time></trkpt><trkpt lat="43.2619367" lon="11.5497033"><ele>235.0</ele><time>2026-04-20T08:32:29.936Z</time></trkpt><trkpt lat="43.262065" lon="11.5495933"><ele>235.5</ele><time>2026-04-20T08:32:30.936Z</time></trkpt><trkpt lat="43.262185" lon="11.5494633"><ele>236.0</ele><time>2026-04-20T08:32:31.936Z</time></trkpt><trkpt lat="43.2622967" lon="11.549325"><ele>236.5</ele><time>2026-04-20T08:32:32.936Z</time></trkpt><trkpt lat="43.2624017" lon="11.5491867"><ele>237.0</ele><time>2026-04-20T08:32:33.936Z</time></trkpt><trkpt lat="43.2624967" lon="11.5490317"><ele>239.25</ele><time>2026-04-20T08:32:34.936Z</time></trkpt><trkpt lat="43.2625817" lon="11.5488783"><ele>241.5</ele><time>2026-04-20T08:32:35.936Z</time></trkpt><trkpt lat="43.2626717" lon="11.54872"><ele>243.75</ele><time>2026-04-20T08:32:36.937Z</time></trkpt><trkpt lat="43.2627517" lon="11.5485667"><ele>246.0</ele><time>2026-04-20T08:32:37.937Z</time></trkpt><trkpt lat="43.262835" lon="11.54842"><ele>248.0</ele><time>2026-04-20T08:32:38.936Z</time></trkpt><trkpt lat="43.26292" lon="11.5482683"><ele>250.0</ele><time>2026-04-20T08:32:39.936Z</time></trkpt><trkpt lat="43.262995" lon="11.5481117"><ele>252.0</ele><time>2026-04-20T08:32:40.936Z</time></trkpt><trkpt lat="43.2630583" lon="11.5479467"><ele>254.0</ele><time>2026-04-20T08:32:41.936Z</time></trkpt><trkpt lat="43.2631133" lon="11.547785"><ele>256.5</ele><time>2026-04-20T08:32:42.937Z</time></trkpt><trkpt lat="43.2631783" lon="11.5476333"><ele>259.0</ele><time>2026-04-20T08:32:43.936Z</time></trkpt><trkpt lat="43.2632517" lon="11.5474917"><ele>261.5</ele><time>2026-04-20T08:32:44.936Z</time></trkpt><trkpt lat="43.2633383" lon="11.54736"><ele>264.0</ele><time>2026-04-20T08:32:45.937Z</time></trkpt><trkpt lat="43.2634283" lon="11.5472567"><ele>264.0</ele><time>2026-04-20T08:32:46.936Z</time></trkpt><trkpt lat="43.2635117" lon="11.5471667"><ele>264.0</ele><time>2026-04-20T08:32:47.936Z</time></trkpt><trkpt lat="43.263595" lon="11.5470983"><ele>264.0</ele><time>2026-04-20T08:32:48.936Z</time></trkpt><trkpt lat="43.2636883" lon="11.5470167"><ele>264.0</ele><time>2026-04-20T08:32:49.936Z</time></trkpt><trkpt lat="43.2637833" lon="11.5469367"><ele>264.0</ele><time>2026-04-20T08:32:50.936Z</time></trkpt><trkpt lat="43.2638833" lon="11.54685"><ele>264.0</ele><time>2026-04-20T08:32:51.936Z</time></trkpt><trkpt lat="43.263985" lon="11.54675"><ele>264.0</ele><time>2026-04-20T08:32:52.936Z</time></trkpt><trkpt lat="43.2640767" lon="11.546645"><ele>264.0</ele><time>2026-04-20T08:32:53.936Z</time></trkpt><trkpt lat="43.264175" lon="11.546525"><ele>264.0</ele><time>2026-04-20T08:32:54.936Z</time></trkpt><trkpt lat="43.2642567" lon="11.5464"><ele>264.0</ele><time>2026-04-20T08:32:55.936Z</time></trkpt><trkpt lat="43.2643333" lon="11.54628"><ele>264.0</ele><time>2026-04-20T08:32:56.937Z</time></trkpt><trkpt lat="43.264395" lon="11.54615"><ele>264.0</ele><time>2026-04-20T08:32:57.936Z</time></trkpt><trkpt lat="43.2644517" lon="11.5459967"><ele>264.0</ele><time>2026-04-20T08:32:58.936Z</time></trkpt><trkpt lat="43.2644983" lon="11.5458367"><ele>267.0</ele><time>2026-04-20T08:32:59.936Z</time></trkpt><trkpt lat="43.2645367" lon="11.54567"><ele>270.0</ele><time>2026-04-20T08:33:00.937Z</time></trkpt><trkpt lat="43.2645633" lon="11.5454883"><ele>273.0</ele><time>2026-04-20T08:33:01.936Z</time></trkpt><trkpt lat="43.26459" lon="11.5453133"><ele>276.0</ele><time>2026-04-20T08:33:02.936Z</time></trkpt><trkpt lat="43.264615" lon="11.5451583"><ele>276.2</ele><time>2026-04-20T08:33:03.936Z</time></trkpt><trkpt lat="43.2646383" lon="11.5450167"><ele>276.40000000000003</ele><time>2026-04-20T08:33:04.936Z</time></trkpt><trkpt lat="43.2646583" lon="11.54488"><ele>276.6</ele><time>2026-04-20T08:33:05.936Z</time></trkpt><trkpt lat="43.2646817" lon="11.5447367"><ele>276.8</ele><time>2026-04-20T08:33:06.937Z</time></trkpt><trkpt lat="43.26472" lon="11.5445983"><ele>277.0</ele><time>2026-04-20T08:33:07.936Z</time></trkpt><trkpt lat="43.26477" lon="11.5444817"><ele>273.0</ele><time>2026-04-20T08:33:08.936Z</time></trkpt><trkpt lat="43.2648283" lon="11.5443817"><ele>269.0</ele><time>2026-04-20T08:33:09.936Z</time></trkpt><trkpt lat="43.2648817" lon="11.5442883"><ele>265.0</ele><time>2026-04-20T08:33:10.936Z</time></trkpt><trkpt lat="43.2649283" lon="11.5442117"><ele>261.0</ele><time>2026-04-20T08:33:11.936Z</time></trkpt><trkpt lat="43.2649683" lon="11.544135"><ele>257.0</ele><time>2026-04-20T08:33:12.936Z</time></trkpt><trkpt lat="43.2650117" lon="11.544045"><ele>253.0</ele><time>2026-04-20T08:33:13.936Z</time></trkpt><trkpt lat="43.2650467" lon="11.5439633"><ele>253.0</ele><time>2026-04-20T08:33:14.936Z</time></trkpt><trkpt lat="43.2650767" lon="11.5438783"><ele>253.0</ele><time>2026-04-20T08:33:15.936Z</time></trkpt><trkpt lat="43.2651033" lon="11.5437933"><ele>253.0</ele><time>2026-04-20T08:33:16.936Z</time></trkpt><trkpt lat="43.2651317" lon="11.5437117"><ele>253.0</ele><time>2026-04-20T08:33:17.936Z</time></trkpt><trkpt lat="43.2651883" lon="11.54356"><ele>253.0</ele><time>2026-04-20T08:33:19.936Z</time></trkpt><trkpt lat="43.2652267" lon="11.543395"><ele>251.2</ele><time>2026-04-20T08:33:21.936Z</time></trkpt><trkpt lat="43.2652333" lon="11.5432967"><ele>249.4</ele><time>2026-04-20T08:33:22.936Z</time></trkpt><trkpt lat="43.265235" lon="11.5431933"><ele>247.59999999999997</ele><time>2026-04-20T08:33:23.937Z</time></trkpt><trkpt lat="43.2652233" lon="11.5430667"><ele>245.79999999999998</ele><time>2026-04-20T08:33:24.937Z</time></trkpt><trkpt lat="43.2652067" lon="11.54293"><ele>244.0</ele><time>2026-04-20T08:33:25.936Z</time></trkpt><trkpt lat="43.265195" lon="11.54277"><ele>242.25</ele><time>2026-04-20T08:33:26.937Z</time></trkpt><trkpt lat="43.2651983" lon="11.5425983"><ele>240.5</ele><time>2026-04-20T08:33:27.936Z</time></trkpt><trkpt lat="43.265225" lon="11.5424267"><ele>238.75</ele><time>2026-04-20T08:33:28.936Z</time></trkpt><trkpt lat="43.2652617" lon="11.5422683"><ele>237.0</ele><time>2026-04-20T08:33:29.936Z</time></trkpt><trkpt lat="43.265315" lon="11.5421083"><ele>236.25</ele><time>2026-04-20T08:33:30.936Z</time></trkpt><trkpt lat="43.2653717" lon="11.5419517"><ele>235.5</ele><time>2026-04-20T08:33:31.936Z</time></trkpt><trkpt lat="43.2654217" lon="11.5417733"><ele>234.75</ele><time>2026-04-20T08:33:32.936Z</time></trkpt><trkpt lat="43.265465" lon="11.5415833"><ele>234.0</ele><time>2026-04-20T08:33:33.936Z</time></trkpt><trkpt lat="43.2655017" lon="11.541375"><ele>235.0</ele><time>2026-04-20T08:33:34.936Z</time></trkpt><trkpt lat="43.2655233" lon="11.541155"><ele>236.0</ele><time>2026-04-20T08:33:35.936Z</time></trkpt><trkpt lat="43.2655367" lon="11.540955"><ele>237.0</ele><time>2026-04-20T08:33:36.937Z</time></trkpt><trkpt lat="43.2655517" lon="11.5407683"><ele>238.0</ele><time>2026-04-20T08:33:37.937Z</time></trkpt><trkpt lat="43.2655867" lon="11.540605"><ele>239.0</ele><time>2026-04-20T08:33:38.936Z</time></trkpt><trkpt lat="43.265645" lon="11.5404717"><ele>240.0</ele><time>2026-04-20T08:33:39.936Z</time></trkpt><trkpt lat="43.26572" lon="11.54036"><ele>241.0</ele><time>2026-04-20T08:33:40.936Z</time></trkpt><trkpt lat="43.2657967" lon="11.5402583"><ele>242.0</ele><time>2026-04-20T08:33:41.936Z</time></trkpt><trkpt lat="43.2658683" lon="11.5401583"><ele>243.0</ele><time>2026-04-20T08:33:42.936Z</time></trkpt><trkpt lat="43.2659467" lon="11.54005"><ele>244.0</ele><time>2026-04-20T08:33:43.936Z</time></trkpt><trkpt lat="43.2660283" lon="11.539935"><ele>245.0</ele><time>2026-04-20T08:33:44.937Z</time></trkpt><trkpt lat="43.2661083" lon="11.539815"><ele>246.0</ele><time>2026-04-20T08:33:45.936Z</time></trkpt><trkpt lat="43.2661883" lon="11.5397067"><ele>247.0</ele><time>2026-04-20T08:33:46.937Z</time></trkpt><trkpt lat="43.2662583" lon="11.5395917"><ele>248.0</ele><time>2026-04-20T08:33:47.936Z</time></trkpt><trkpt lat="43.2663267" lon="11.5394783"><ele>249.0</ele><time>2026-04-20T08:33:48.936Z</time></trkpt><trkpt lat="43.266395" lon="11.539355"><ele>250.0</ele><time>2026-04-20T08:33:49.937Z</time></trkpt><trkpt lat="43.2664517" lon="11.5392233"><ele>251.0</ele><time>2026-04-20T08:33:50.936Z</time></trkpt><trkpt lat="43.2665133" lon="11.5391183"><ele>252.0</ele><time>2026-04-20T08:33:51.936Z</time></trkpt><trkpt lat="43.26658" lon="11.5390383"><ele>249.2</ele><time>2026-04-20T08:33:52.936Z</time></trkpt><trkpt lat="43.266655" lon="11.53898"><ele>246.39999999999998</ele><time>2026-04-20T08:33:53.937Z</time></trkpt><trkpt lat="43.2667417" lon="11.5389383"><ele>243.60000000000002</ele><time>2026-04-20T08:33:54.936Z</time></trkpt><trkpt lat="43.26683" lon="11.5388933"><ele>240.8</ele><time>2026-04-20T08:33:55.937Z</time></trkpt><trkpt lat="43.2669333" lon="11.5388517"><ele>238.0</ele><time>2026-04-20T08:33:56.936Z</time></trkpt><trkpt lat="43.267035" lon="11.5388067"><ele>238.0</ele><time>2026-04-20T08:33:57.937Z</time></trkpt><trkpt lat="43.2671367" lon="11.5387483"><ele>238.0</ele><time>2026-04-20T08:33:58.937Z</time></trkpt><trkpt lat="43.2672333" lon="11.5386867"><ele>238.0</ele><time>2026-04-20T08:33:59.936Z</time></trkpt><trkpt lat="43.2673283" lon="11.538615"><ele>238.0</ele><time>2026-04-20T08:34:00.936Z</time></trkpt><trkpt lat="43.2674217" lon="11.53855"><ele>238.0</ele><time>2026-04-20T08:34:01.936Z</time></trkpt><trkpt lat="43.2675067" lon="11.5384833"><ele>237.16666666666666</ele><time>2026-04-20T08:34:02.936Z</time></trkpt><trkpt lat="43.2675817" lon="11.5384267"><ele>236.33333333333331</ele><time>2026-04-20T08:34:03.937Z</time></trkpt><trkpt lat="43.2676567" lon="11.5383767"><ele>235.5</ele><time>2026-04-20T08:34:04.936Z</time></trkpt><trkpt lat="43.267735" lon="11.5383267"><ele>234.66666666666669</ele><time>2026-04-20T08:34:05.937Z</time></trkpt><trkpt lat="43.2678067" lon="11.53827"><ele>233.83333333333334</ele><time>2026-04-20T08:34:06.936Z</time></trkpt><trkpt lat="43.26788" lon="11.5382083"><ele>233.0</ele><time>2026-04-20T08:34:07.936Z</time></trkpt><trkpt lat="43.267955" lon="11.538145"><ele>233.0</ele><time>2026-04-20T08:34:08.937Z</time></trkpt><trkpt lat="43.2680467" lon="11.53809"><ele>233.0</ele><time>2026-04-20T08:34:09.936Z</time></trkpt><trkpt lat="43.2681383" lon="11.5380317"><ele>233.0</ele><time>2026-04-20T08:34:10.937Z</time></trkpt><trkpt lat="43.2682233" lon="11.53797"><ele>233.0</ele><time>2026-04-20T08:34:11.937Z</time></trkpt><trkpt lat="43.268315" lon="11.5379033"><ele>233.0</ele><time>2026-04-20T08:34:12.936Z</time></trkpt><trkpt lat="43.26841" lon="11.5378367"><ele>229.8</ele><time>2026-04-20T08:34:13.937Z</time></trkpt><trkpt lat="43.2684967" lon="11.5377733"><ele>226.60000000000002</ele><time>2026-04-20T08:34:14.936Z</time></trkpt><trkpt lat="43.2685833" lon="11.537725"><ele>223.39999999999998</ele><time>2026-04-20T08:34:15.937Z</time></trkpt><trkpt lat="43.26867" lon="11.5376967"><ele>220.2</ele><time>2026-04-20T08:34:16.936Z</time></trkpt><trkpt lat="43.2687767" lon="11.5376817"><ele>217.0</ele><time>2026-04-20T08:34:17.937Z</time></trkpt><trkpt lat="43.2688767" lon="11.5376967"><ele>214.2</ele><time>2026-04-20T08:34:18.937Z</time></trkpt><trkpt lat="43.2689667" lon="11.5377317"><ele>211.39999999999998</ele><time>2026-04-20T08:34:19.936Z</time></trkpt><trkpt lat="43.2690467" lon="11.5377633"><ele>208.60000000000002</ele><time>2026-04-20T08:34:20.937Z</time></trkpt><trkpt lat="43.2691383" lon="11.5377883"><ele>205.8</ele><time>2026-04-20T08:34:21.936Z</time></trkpt><trkpt lat="43.2692367" lon="11.5378067"><ele>203.0</ele><time>2026-04-20T08:34:22.936Z</time></trkpt><trkpt lat="43.2693367" lon="11.5378033"><ele>203.0</ele><time>2026-04-20T08:34:23.936Z</time></trkpt><trkpt lat="43.2694367" lon="11.5377883"><ele>203.0</ele><time>2026-04-20T08:34:24.936Z</time></trkpt><trkpt lat="43.2695367" lon="11.537755"><ele>203.0</ele><time>2026-04-20T08:34:25.936Z</time></trkpt><trkpt lat="43.2696367" lon="11.53772"><ele>203.0</ele><time>2026-04-20T08:34:26.936Z</time></trkpt><trkpt lat="43.2697367" lon="11.5376733"><ele>203.0</ele><time>2026-04-20T08:34:27.937Z</time></trkpt><trkpt lat="43.26984" lon="11.5376183"><ele>200.4</ele><time>2026-04-20T08:34:28.937Z</time></trkpt><trkpt lat="43.2699417" lon="11.5375667"><ele>197.8</ele><time>2026-04-20T08:34:29.936Z</time></trkpt><trkpt lat="43.2700433" lon="11.537535"><ele>195.2</ele><time>2026-04-20T08:34:30.936Z</time></trkpt><trkpt lat="43.270145" lon="11.5375417"><ele>192.6</ele><time>2026-04-20T08:34:31.937Z</time></trkpt><trkpt lat="43.2702433" lon="11.5375733"><ele>190.0</ele><time>2026-04-20T08:34:32.936Z</time></trkpt><trkpt lat="43.270345" lon="11.537625"><ele>190.0</ele><time>2026-04-20T08:34:33.935Z</time></trkpt><trkpt lat="43.2704517" lon="11.537665"><ele>190.0</ele><time>2026-04-20T08:34:34.935Z</time></trkpt><trkpt lat="43.2705533" lon="11.5376983"><ele>190.0</ele><time>2026-04-20T08:34:35.935Z</time></trkpt><trkpt lat="43.2706417" lon="11.5377283"><ele>190.0</ele><time>2026-04-20T08:34:36.935Z</time></trkpt><trkpt lat="43.2707283" lon="11.5377733"><ele>190.0</ele><time>2026-04-20T08:34:37.935Z</time></trkpt><trkpt lat="43.27082" lon="11.5378317"><ele>188.6</ele><time>2026-04-20T08:34:38.935Z</time></trkpt><trkpt lat="43.2709117" lon="11.5378917"><ele>187.2</ele><time>2026-04-20T08:34:39.935Z</time></trkpt><trkpt lat="43.270985" lon="11.5379633"><ele>185.8</ele><time>2026-04-20T08:34:40.936Z</time></trkpt><trkpt lat="43.2710633" lon="11.5380433"><ele>184.4</ele><time>2026-04-20T08:34:41.935Z</time></trkpt><trkpt lat="43.2711317" lon="11.5381317"><ele>183.0</ele><time>2026-04-20T08:34:42.935Z</time></trkpt><trkpt lat="43.2711933" lon="11.538245"><ele>183.0</ele><time>2026-04-20T08:34:43.935Z</time></trkpt><trkpt lat="43.2712483" lon="11.538355"><ele>183.0</ele><time>2026-04-20T08:34:44.935Z</time></trkpt><trkpt lat="43.2713" lon="11.5384783"><ele>183.0</ele><time>2026-04-20T08:34:45.935Z</time></trkpt><trkpt lat="43.2713583" lon="11.5386117"><ele>183.0</ele><time>2026-04-20T08:34:46.935Z</time></trkpt><trkpt lat="43.271415" lon="11.53875"><ele>183.0</ele><time>2026-04-20T08:34:47.935Z</time></trkpt><trkpt lat="43.27147" lon="11.5388817"><ele>184.0</ele><time>2026-04-20T08:34:48.936Z</time></trkpt><trkpt lat="43.2715217" lon="11.5390217"><ele>185.0</ele><time>2026-04-20T08:34:49.935Z</time></trkpt><trkpt lat="43.27159" lon="11.5391667"><ele>186.0</ele><time>2026-04-20T08:34:50.935Z</time></trkpt><trkpt lat="43.2716533" lon="11.539315"><ele>187.0</ele><time>2026-04-20T08:34:51.935Z</time></trkpt><trkpt lat="43.271715" lon="11.53947"><ele>187.5</ele><time>2026-04-20T08:34:52.935Z</time></trkpt><trkpt lat="43.2717867" lon="11.5396433"><ele>188.0</ele><time>2026-04-20T08:34:53.936Z</time></trkpt><trkpt lat="43.27186" lon="11.5398183"><ele>188.5</ele><time>2026-04-20T08:34:54.935Z</time></trkpt><trkpt lat="43.2719367" lon="11.540005"><ele>189.0</ele><time>2026-04-20T08:34:55.935Z</time></trkpt><trkpt lat="43.27202" lon="11.5402133"><ele>189.66666666666666</ele><time>2026-04-20T08:34:56.935Z</time></trkpt><trkpt lat="43.2721083" lon="11.5404367"><ele>190.33333333333331</ele><time>2026-04-20T08:34:57.935Z</time></trkpt><trkpt lat="43.2721867" lon="11.5406417"><ele>191.0</ele><time>2026-04-20T08:34:58.935Z</time></trkpt><trkpt lat="43.2722617" lon="11.5408267"><ele>192.25</ele><time>2026-04-20T08:34:59.935Z</time></trkpt><trkpt lat="43.2723283" lon="11.5410117"><ele>193.5</ele><time>2026-04-20T08:35:00.935Z</time></trkpt><trkpt lat="43.2723817" lon="11.5412"><ele>194.75</ele><time>2026-04-20T08:35:01.935Z</time></trkpt><trkpt lat="43.27243" lon="11.5413833"><ele>196.0</ele><time>2026-04-20T08:35:02.935Z</time></trkpt><trkpt lat="43.272465" lon="11.5415683"><ele>197.75</ele><time>2026-04-20T08:35:03.935Z</time></trkpt><trkpt lat="43.272495" lon="11.5417583"><ele>199.5</ele><time>2026-04-20T08:35:04.935Z</time></trkpt><trkpt lat="43.272515" lon="11.54196"><ele>201.25</ele><time>2026-04-20T08:35:05.935Z</time></trkpt><trkpt lat="43.27253" lon="11.54216"><ele>203.0</ele><time>2026-04-20T08:35:06.935Z</time></trkpt><trkpt lat="43.2725567" lon="11.542365"><ele>204.60000000000002</ele><time>2026-04-20T08:35:07.935Z</time></trkpt><trkpt lat="43.2725883" lon="11.54255"><ele>206.20000000000002</ele><time>2026-04-20T08:35:08.935Z</time></trkpt><trkpt lat="43.27262" lon="11.5426933"><ele>207.8</ele><time>2026-04-20T08:35:09.936Z</time></trkpt><trkpt lat="43.2726617" lon="11.5428167"><ele>209.4</ele><time>2026-04-20T08:35:10.935Z</time></trkpt><trkpt lat="43.2727167" lon="11.5429067"><ele>211.0</ele><time>2026-04-20T08:35:11.936Z</time></trkpt><trkpt lat="43.27277" lon="11.5429667"><ele>212.49999999999997</ele><time>2026-04-20T08:35:12.935Z</time></trkpt><trkpt lat="43.2728433" lon="11.5429783"><ele>214.0</ele><time>2026-04-20T08:35:13.935Z</time></trkpt><trkpt lat="43.2729267" lon="11.542955"><ele>215.5</ele><time>2026-04-20T08:35:14.936Z</time></trkpt><trkpt lat="43.2729917" lon="11.54292"><ele>217.0</ele><time>2026-04-20T08:35:15.935Z</time></trkpt><trkpt lat="43.27306" lon="11.5428967"><ele>218.49999999999997</ele><time>2026-04-20T08:35:16.935Z</time></trkpt><trkpt lat="43.2731333" lon="11.542905"><ele>220.0</ele><time>2026-04-20T08:35:17.935Z</time></trkpt><trkpt lat="43.2732083" lon="11.54293"><ele>222.4</ele><time>2026-04-20T08:35:18.935Z</time></trkpt><trkpt lat="43.273285" lon="11.542975"><ele>224.8</ele><time>2026-04-20T08:35:19.935Z</time></trkpt><trkpt lat="43.2733617" lon="11.5430483"><ele>227.2</ele><time>2026-04-20T08:35:20.935Z</time></trkpt><trkpt lat="43.2734417" lon="11.5431367"><ele>229.6</ele><time>2026-04-20T08:35:21.935Z</time></trkpt><trkpt lat="43.2735133" lon="11.5432317"><ele>232.0</ele><time>2026-04-20T08:35:22.935Z</time></trkpt><trkpt lat="43.27358" lon="11.54332"><ele>231.99999999999997</ele><time>2026-04-20T08:35:23.935Z</time></trkpt><trkpt lat="43.2736267" lon="11.543415"><ele>232.0</ele><time>2026-04-20T08:35:24.935Z</time></trkpt><trkpt lat="43.2736433" lon="11.5435233"><ele>232.0</ele><time>2026-04-20T08:35:25.936Z</time></trkpt><trkpt lat="43.273635" lon="11.543635"><ele>232.0</ele><time>2026-04-20T08:35:26.935Z</time></trkpt><trkpt lat="43.2736" lon="11.5437417"><ele>231.99999999999997</ele><time>2026-04-20T08:35:27.935Z</time></trkpt><trkpt lat="43.2735517" lon="11.54385"><ele>232.0</ele><time>2026-04-20T08:35:28.935Z</time></trkpt><trkpt lat="43.273485" lon="11.543955"><ele>233.6</ele><time>2026-04-20T08:35:29.935Z</time></trkpt><trkpt lat="43.273415" lon="11.5440517"><ele>235.2</ele><time>2026-04-20T08:35:30.935Z</time></trkpt><trkpt lat="43.2733467" lon="11.5441617"><ele>236.8</ele><time>2026-04-20T08:35:31.935Z</time></trkpt><trkpt lat="43.2732783" lon="11.5442667"><ele>238.4</ele><time>2026-04-20T08:35:32.935Z</time></trkpt><trkpt lat="43.2732283" lon="11.5443783"><ele>240.0</ele><time>2026-04-20T08:35:33.935Z</time></trkpt><trkpt lat="43.273195" lon="11.5445"><ele>241.0</ele><time>2026-04-20T08:35:34.935Z</time></trkpt><trkpt lat="43.27318" lon="11.5446233"><ele>242.0</ele><time>2026-04-20T08:35:35.936Z</time></trkpt><trkpt lat="43.2731667" lon="11.54476"><ele>243.0</ele><time>2026-04-20T08:35:36.935Z</time></trkpt><trkpt lat="43.27316" lon="11.5449017"><ele>244.0</ele><time>2026-04-20T08:35:37.936Z</time></trkpt><trkpt lat="43.2731583" lon="11.54505"><ele>245.0</ele><time>2026-04-20T08:35:38.935Z</time></trkpt><trkpt lat="43.2731567" lon="11.5452233"><ele>246.75</ele><time>2026-04-20T08:35:39.935Z</time></trkpt><trkpt lat="43.2731533" lon="11.5454117"><ele>248.5</ele><time>2026-04-20T08:35:40.935Z</time></trkpt><trkpt lat="43.2731517" lon="11.545605"><ele>250.25</ele><time>2026-04-20T08:35:41.935Z</time></trkpt><trkpt lat="43.27316" lon="11.5457933"><ele>252.0</ele><time>2026-04-20T08:35:42.935Z</time></trkpt><trkpt lat="43.2731883" lon="11.54598"><ele>252.0</ele><time>2026-04-20T08:35:43.936Z</time></trkpt><trkpt lat="43.2732183" lon="11.546155"><ele>252.0</ele><time>2026-04-20T08:35:44.935Z</time></trkpt><trkpt lat="43.2732617" lon="11.54633"><ele>252.0</ele><time>2026-04-20T08:35:45.935Z</time></trkpt><trkpt lat="43.273325" lon="11.5464917"><ele>252.0</ele><time>2026-04-20T08:35:46.935Z</time></trkpt><trkpt lat="43.27339" lon="11.546635"><ele>253.8</ele><time>2026-04-20T08:35:47.935Z</time></trkpt><trkpt lat="43.2734583" lon="11.5467733"><ele>255.6</ele><time>2026-04-20T08:35:48.935Z</time></trkpt><trkpt lat="43.2735317" lon="11.5468883"><ele>257.40000000000003</ele><time>2026-04-20T08:35:49.935Z</time></trkpt><trkpt lat="43.2736083" lon="11.5469783"><ele>259.2</ele><time>2026-04-20T08:35:50.935Z</time></trkpt><trkpt lat="43.2736933" lon="11.5470467"><ele>261.0</ele><time>2026-04-20T08:35:51.935Z</time></trkpt><trkpt lat="43.2737933" lon="11.5470833"><ele>262.75</ele><time>2026-04-20T08:35:52.935Z</time></trkpt><trkpt lat="43.27391" lon="11.547105"><ele>264.5</ele><time>2026-04-20T08:35:53.936Z</time></trkpt><trkpt lat="43.274035" lon="11.5471033"><ele>266.25</ele><time>2026-04-20T08:35:54.935Z</time></trkpt><trkpt lat="43.27417" lon="11.547105"><ele>268.0</ele><time>2026-04-20T08:35:55.935Z</time></trkpt><trkpt lat="43.2742917" lon="11.5470983"><ele>270.2</ele><time>2026-04-20T08:35:56.935Z</time></trkpt><trkpt lat="43.274395" lon="11.5470867"><ele>272.4</ele><time>2026-04-20T08:35:57.936Z</time></trkpt><trkpt lat="43.2744883" lon="11.5470733"><ele>274.59999999999997</ele><time>2026-04-20T08:35:58.935Z</time></trkpt><trkpt lat="43.2745783" lon="11.5470783"><ele>276.8</ele><time>2026-04-20T08:35:59.935Z</time></trkpt><trkpt lat="43.274665" lon="11.5471183"><ele>279.0</ele><time>2026-04-20T08:36:00.935Z</time></trkpt><trkpt lat="43.274745" lon="11.5471733"><ele>280.75</ele><time>2026-04-20T08:36:01.935Z</time></trkpt><trkpt lat="43.2748367" lon="11.5472433"><ele>282.5</ele><time>2026-04-20T08:36:02.935Z</time></trkpt><trkpt lat="43.2749333" lon="11.5473217"><ele>284.25</ele><time>2026-04-20T08:36:03.935Z</time></trkpt><trkpt lat="43.2750383" lon="11.54741"><ele>286.0</ele><time>2026-04-20T08:36:04.935Z</time></trkpt><trkpt lat="43.2751467" lon="11.5474983"><ele>286.0</ele><time>2026-04-20T08:36:05.935Z</time></trkpt><trkpt lat="43.2752567" lon="11.5475883"><ele>286.0</ele><time>2026-04-20T08:36:06.935Z</time></trkpt><trkpt lat="43.2753567" lon="11.5476817"><ele>286.0</ele><time>2026-04-20T08:36:07.935Z</time></trkpt><trkpt lat="43.275455" lon="11.547775"><ele>286.0</ele><time>2026-04-20T08:36:08.936Z</time></trkpt><trkpt lat="43.2755667" lon="11.547865"><ele>289.75</ele><time>2026-04-20T08:36:09.936Z</time></trkpt><trkpt lat="43.2756783" lon="11.5479417"><ele>293.5</ele><time>2026-04-20T08:36:10.935Z</time></trkpt><trkpt lat="43.275805" lon="11.5480133"><ele>297.25</ele><time>2026-04-20T08:36:11.936Z</time></trkpt><trkpt lat="43.275955" lon="11.5480767"><ele>301.0</ele><time>2026-04-20T08:36:12.935Z</time></trkpt><trkpt lat="43.2760967" lon="11.5481317"><ele>301.0</ele><time>2026-04-20T08:36:13.936Z</time></trkpt><trkpt lat="43.2762283" lon="11.5481817"><ele>301.0</ele><time>2026-04-20T08:36:14.936Z</time></trkpt><trkpt lat="43.2763483" lon="11.54823"><ele>301.0</ele><time>2026-04-20T08:36:15.935Z</time></trkpt><trkpt lat="43.2764567" lon="11.5482783"><ele>301.0</ele><time>2026-04-20T08:36:16.935Z</time></trkpt><trkpt lat="43.276555" lon="11.548325"><ele>301.40000000000003</ele><time>2026-04-20T08:36:17.935Z</time></trkpt><trkpt lat="43.2766467" lon="11.5483867"><ele>301.8</ele><time>2026-04-20T08:36:18.935Z</time></trkpt><trkpt lat="43.2767333" lon="11.5484617"><ele>302.20000000000005</ele><time>2026-04-20T08:36:19.935Z</time></trkpt><trkpt lat="43.2768333" lon="11.548535"><ele>302.6</ele><time>2026-04-20T08:36:20.935Z</time></trkpt><trkpt lat="43.276925" lon="11.54863"><ele>303.0</ele><time>2026-04-20T08:36:21.935Z</time></trkpt><trkpt lat="43.277015" lon="11.54872"><ele>303.0</ele><time>2026-04-20T08:36:22.935Z</time></trkpt><trkpt lat="43.27711" lon="11.54881"><ele>303.0</ele><time>2026-04-20T08:36:23.935Z</time></trkpt><trkpt lat="43.2772017" lon="11.548895"><ele>303.0</ele><time>2026-04-20T08:36:24.935Z</time></trkpt><trkpt lat="43.2772867" lon="11.5489683"><ele>303.0</ele><time>2026-04-20T08:36:25.935Z</time></trkpt><trkpt lat="43.277375" lon="11.54903"><ele>303.0</ele><time>2026-04-20T08:36:26.935Z</time></trkpt><trkpt lat="43.277455" lon="11.549095"><ele>300.2</ele><time>2026-04-20T08:36:27.935Z</time></trkpt><trkpt lat="43.2775367" lon="11.5491667"><ele>297.4</ele><time>2026-04-20T08:36:28.935Z</time></trkpt><trkpt lat="43.2776167" lon="11.549235"><ele>294.59999999999997</ele><time>2026-04-20T08:36:29.935Z</time></trkpt><trkpt lat="43.2777033" lon="11.5493033"><ele>291.8</ele><time>2026-04-20T08:36:30.935Z</time></trkpt><trkpt lat="43.277795" lon="11.5493533"><ele>289.0</ele><time>2026-04-20T08:36:31.935Z</time></trkpt><trkpt lat="43.2778867" lon="11.54939"><ele>289.0</ele><time>2026-04-20T08:36:32.936Z</time></trkpt><trkpt lat="43.2779817" lon="11.54941"><ele>289.0</ele><time>2026-04-20T08:36:33.935Z</time></trkpt><trkpt lat="43.2780733" lon="11.5494183"><ele>289.0</ele><time>2026-04-20T08:36:34.935Z</time></trkpt><trkpt lat="43.2781733" lon="11.5494217"><ele>289.0</ele><time>2026-04-20T08:36:35.935Z</time></trkpt><trkpt lat="43.278275" lon="11.5494283"><ele>289.0</ele><time>2026-04-20T08:36:36.935Z</time></trkpt><trkpt lat="43.2783833" lon="11.54943"><ele>286.0</ele><time>2026-04-20T08:36:37.935Z</time></trkpt><trkpt lat="43.2784967" lon="11.5494267"><ele>283.0</ele><time>2026-04-20T08:36:38.935Z</time></trkpt><trkpt lat="43.2786033" lon="11.5494333"><ele>280.0</ele><time>2026-04-20T08:36:39.935Z</time></trkpt><trkpt lat="43.27871" lon="11.5494433"><ele>277.0</ele><time>2026-04-20T08:36:40.935Z</time></trkpt><trkpt lat="43.278815" lon="11.549465"><ele>274.0</ele><time>2026-04-20T08:36:41.935Z</time></trkpt><trkpt lat="43.278915" lon="11.5494983"><ele>273.59999999999997</ele><time>2026-04-20T08:36:42.935Z</time></trkpt><trkpt lat="43.2790117" lon="11.54955"><ele>273.2</ele><time>2026-04-20T08:36:43.936Z</time></trkpt><trkpt lat="43.27911" lon="11.54962"><ele>272.79999999999995</ele><time>2026-04-20T08:36:44.935Z</time></trkpt><trkpt lat="43.279205" lon="11.5496917"><ele>272.4</ele><time>2026-04-20T08:36:45.935Z</time></trkpt><trkpt lat="43.2793033" lon="11.5497617"><ele>272.0</ele><time>2026-04-20T08:36:46.936Z</time></trkpt><trkpt lat="43.2793983" lon="11.5498183"><ele>272.0</ele><time>2026-04-20T08:36:47.936Z</time></trkpt><trkpt lat="43.2795067" lon="11.549865"><ele>272.0</ele><time>2026-04-20T08:36:48.936Z</time></trkpt><trkpt lat="43.279625" lon="11.5498933"><ele>272.0</ele><time>2026-04-20T08:36:49.935Z</time></trkpt><trkpt lat="43.27974" lon="11.5499117"><ele>272.0</ele><time>2026-04-20T08:36:50.935Z</time></trkpt><trkpt lat="43.27986" lon="11.5499083"><ele>271.25</ele><time>2026-04-20T08:36:51.935Z</time></trkpt><trkpt lat="43.2799783" lon="11.54989"><ele>270.5</ele><time>2026-04-20T08:36:52.936Z</time></trkpt><trkpt lat="43.280095" lon="11.5498483"><ele>269.75</ele><time>2026-04-20T08:36:53.935Z</time></trkpt><trkpt lat="43.2802133" lon="11.5497967"><ele>269.0</ele><time>2026-04-20T08:36:54.936Z</time></trkpt><trkpt lat="43.2803267" lon="11.5497317"><ele>269.0</ele><time>2026-04-20T08:36:55.935Z</time></trkpt><trkpt lat="43.2804367" lon="11.5496483"><ele>269.0</ele><time>2026-04-20T08:36:56.935Z</time></trkpt><trkpt lat="43.2805417" lon="11.5495633"><ele>269.0</ele><time>2026-04-20T08:36:57.935Z</time></trkpt><trkpt lat="43.2806467" lon="11.54946"><ele>269.0</ele><time>2026-04-20T08:36:58.936Z</time></trkpt><trkpt lat="43.2807417" lon="11.549345"><ele>272.0</ele><time>2026-04-20T08:36:59.935Z</time></trkpt><trkpt lat="43.28082" lon="11.5492133"><ele>275.0</ele><time>2026-04-20T08:37:00.936Z</time></trkpt><trkpt lat="43.2808883" lon="11.549075"><ele>278.0</ele><time>2026-04-20T08:37:01.935Z</time></trkpt><trkpt lat="43.2809683" lon="11.5489433"><ele>281.0</ele><time>2026-04-20T08:37:02.936Z</time></trkpt><trkpt lat="43.2810583" lon="11.5488217"><ele>280.75</ele><time>2026-04-20T08:37:03.935Z</time></trkpt><trkpt lat="43.2811483" lon="11.5486983"><ele>280.5</ele><time>2026-04-20T08:37:04.935Z</time></trkpt><trkpt lat="43.2812533" lon="11.5485883"><ele>280.25</ele><time>2026-04-20T08:37:05.936Z</time></trkpt><trkpt lat="43.2813617" lon="11.5484783"><ele>280.0</ele><time>2026-04-20T08:37:06.935Z</time></trkpt><trkpt lat="43.2814683" lon="11.5483717"><ele>284.2</ele><time>2026-04-20T08:37:07.935Z</time></trkpt><trkpt lat="43.2815717" lon="11.548265"><ele>288.4</ele><time>2026-04-20T08:37:08.935Z</time></trkpt><trkpt lat="43.2816583" lon="11.548175"><ele>292.6</ele><time>2026-04-20T08:37:09.935Z</time></trkpt><trkpt lat="43.2817467" lon="11.5481167"><ele>296.8</ele><time>2026-04-20T08:37:10.936Z</time></trkpt><trkpt lat="43.281835" lon="11.5480983"><ele>301.0</ele><time>2026-04-20T08:37:11.935Z</time></trkpt><trkpt lat="43.2819233" lon="11.5481017"><ele>301.0</ele><time>2026-04-20T08:37:12.935Z</time></trkpt><trkpt lat="43.2819917" lon="11.5481117"><ele>301.0</ele><time>2026-04-20T08:37:13.935Z</time></trkpt><trkpt lat="43.2821133" lon="11.5481167"><ele>301.0</ele><time>2026-04-20T08:37:15.935Z</time></trkpt><trkpt lat="43.28224" lon="11.5481133"><ele>301.0</ele><time>2026-04-20T08:37:17.936Z</time></trkpt><trkpt lat="43.2823117" lon="11.5481183"><ele>301.0</ele><time>2026-04-20T08:37:18.935Z</time></trkpt><trkpt lat="43.2823883" lon="11.5481233"><ele>302.16666666666663</ele><time>2026-04-20T08:37:19.935Z</time></trkpt><trkpt lat="43.2824617" lon="11.5481367"><ele>303.3333333333333</ele><time>2026-04-20T08:37:20.936Z</time></trkpt><trkpt lat="43.2825367" lon="11.5481467"><ele>304.5</ele><time>2026-04-20T08:37:21.936Z</time></trkpt><trkpt lat="43.2826083" lon="11.5481667"><ele>305.6666666666667</ele><time>2026-04-20T08:37:22.935Z</time></trkpt><trkpt lat="43.2826867" lon="11.5481883"><ele>306.83333333333337</ele><time>2026-04-20T08:37:23.935Z</time></trkpt><trkpt lat="43.2827617" lon="11.548215"><ele>308.0</ele><time>2026-04-20T08:37:24.935Z</time></trkpt><trkpt lat="43.2828367" lon="11.548255"><ele>308.0</ele><time>2026-04-20T08:37:25.935Z</time></trkpt><trkpt lat="43.2829167" lon="11.5483017"><ele>308.0</ele><time>2026-04-20T08:37:26.935Z</time></trkpt><trkpt lat="43.283" lon="11.5483433"><ele>308.0</ele><time>2026-04-20T08:37:27.936Z</time></trkpt><trkpt lat="43.2830783" lon="11.5483933"><ele>308.0</ele><time>2026-04-20T08:37:28.935Z</time></trkpt><trkpt lat="43.2831517" lon="11.5484567"><ele>308.0</ele><time>2026-04-20T08:37:29.935Z</time></trkpt><trkpt lat="43.2832333" lon="11.5485283"><ele>308.0</ele><time>2026-04-20T08:37:30.935Z</time></trkpt><trkpt lat="43.2833133" lon="11.5486033"><ele>309.6</ele><time>2026-04-20T08:37:31.935Z</time></trkpt><trkpt lat="43.2833933" lon="11.54867"><ele>311.20000000000005</ele><time>2026-04-20T08:37:32.935Z</time></trkpt><trkpt lat="43.28348" lon="11.5487083"><ele>312.8</ele><time>2026-04-20T08:37:33.935Z</time></trkpt><trkpt lat="43.283565" lon="11.54875"><ele>314.40000000000003</ele><time>2026-04-20T08:37:34.935Z</time></trkpt><trkpt lat="43.28366" lon="11.5487783"><ele>316.0</ele><time>2026-04-20T08:37:35.935Z</time></trkpt><trkpt lat="43.2837517" lon="11.548795"><ele>316.0</ele><time>2026-04-20T08:37:36.935Z</time></trkpt><trkpt lat="43.2838367" lon="11.54881"><ele>316.0</ele><time>2026-04-20T08:37:37.935Z</time></trkpt><trkpt lat="43.2839117" lon="11.5488217"><ele>316.0</ele><time>2026-04-20T08:37:38.935Z</time></trkpt><trkpt lat="43.2839983" lon="11.5488183"><ele>316.0</ele><time>2026-04-20T08:37:39.935Z</time></trkpt><trkpt lat="43.2840883" lon="11.548795"><ele>316.0</ele><time>2026-04-20T08:37:40.935Z</time></trkpt><trkpt lat="43.2841783" lon="11.54876"><ele>316.0</ele><time>2026-04-20T08:37:41.935Z</time></trkpt><trkpt lat="43.2842583" lon="11.548705"><ele>311.8</ele><time>2026-04-20T08:37:42.935Z</time></trkpt><trkpt lat="43.28433" lon="11.5486233"><ele>307.6</ele><time>2026-04-20T08:37:43.935Z</time></trkpt><trkpt lat="43.2843867" lon="11.548515"><ele>303.4</ele><time>2026-04-20T08:37:44.935Z</time></trkpt><trkpt lat="43.2844367" lon="11.5484033"><ele>299.2</ele><time>2026-04-20T08:37:45.935Z</time></trkpt><trkpt lat="43.2844867" lon="11.5482867"><ele>295.0</ele><time>2026-04-20T08:37:46.935Z</time></trkpt><trkpt lat="43.284535" lon="11.5481617"><ele>295.0</ele><time>2026-04-20T08:37:47.935Z</time></trkpt><trkpt lat="43.2845783" lon="11.548045"><ele>295.0</ele><time>2026-04-20T08:37:48.935Z</time></trkpt><trkpt lat="43.2846233" lon="11.54793"><ele>295.0</ele><time>2026-04-20T08:37:49.935Z</time></trkpt><trkpt lat="43.284665" lon="11.5478167"><ele>295.0</ele><time>2026-04-20T08:37:50.935Z</time></trkpt><trkpt lat="43.2847017" lon="11.5476833"><ele>295.0</ele><time>2026-04-20T08:37:51.936Z</time></trkpt><trkpt lat="43.28473" lon="11.5475583"><ele>293.0</ele><time>2026-04-20T08:37:52.935Z</time></trkpt><trkpt lat="43.284745" lon="11.5474283"><ele>291.0</ele><time>2026-04-20T08:37:53.935Z</time></trkpt><trkpt lat="43.2847567" lon="11.5473"><ele>289.0</ele><time>2026-04-20T08:37:54.935Z</time></trkpt><trkpt lat="43.2847717" lon="11.5471717"><ele>287.0</ele><time>2026-04-20T08:37:55.935Z</time></trkpt><trkpt lat="43.2848" lon="11.547055"><ele>285.0</ele><time>2026-04-20T08:37:56.935Z</time></trkpt><trkpt lat="43.2848533" lon="11.5469567"><ele>289.1666666666667</ele><time>2026-04-20T08:37:57.935Z</time></trkpt><trkpt lat="43.2849067" lon="11.5468467"><ele>293.3333333333333</ele><time>2026-04-20T08:37:58.935Z</time></trkpt><trkpt lat="43.2849633" lon="11.5467433"><ele>297.5</ele><time>2026-04-20T08:37:59.935Z</time></trkpt><trkpt lat="43.2850233" lon="11.5466567"><ele>301.66666666666663</ele><time>2026-04-20T08:38:00.936Z</time></trkpt><trkpt lat="43.2850917" lon="11.546595"><ele>305.8333333333333</ele><time>2026-04-20T08:38:01.935Z</time></trkpt><trkpt lat="43.2851717" lon="11.5465417"><ele>310.0</ele><time>2026-04-20T08:38:02.935Z</time></trkpt><trkpt lat="43.2852617" lon="11.5465"><ele>310.0</ele><time>2026-04-20T08:38:03.935Z</time></trkpt><trkpt lat="43.28535" lon="11.54647"><ele>310.0</ele><time>2026-04-20T08:38:04.935Z</time></trkpt><trkpt lat="43.2854433" lon="11.54643"><ele>310.0</ele><time>2026-04-20T08:38:05.935Z</time></trkpt><trkpt lat="43.2855317" lon="11.546395"><ele>310.0</ele><time>2026-04-20T08:38:06.936Z</time></trkpt><trkpt lat="43.28562" lon="11.5463533"><ele>310.0</ele><time>2026-04-20T08:38:07.935Z</time></trkpt><trkpt lat="43.2857067" lon="11.5462917"><ele>309.66666666666663</ele><time>2026-04-20T08:38:08.935Z</time></trkpt><trkpt lat="43.2857883" lon="11.546225"><ele>309.3333333333333</ele><time>2026-04-20T08:38:09.935Z</time></trkpt><trkpt lat="43.285865" lon="11.5461567"><ele>309.0</ele><time>2026-04-20T08:38:10.935Z</time></trkpt><trkpt lat="43.2859383" lon="11.5460983"><ele>308.6666666666667</ele><time>2026-04-20T08:38:11.935Z</time></trkpt><trkpt lat="43.286005" lon="11.54604"><ele>308.33333333333337</ele><time>2026-04-20T08:38:12.936Z</time></trkpt><trkpt lat="43.28607" lon="11.5459817"><ele>308.0</ele><time>2026-04-20T08:38:13.935Z</time></trkpt><trkpt lat="43.2861333" lon="11.54594"><ele>308.8</ele><time>2026-04-20T08:38:14.935Z</time></trkpt><trkpt lat="43.2862" lon="11.5459083"><ele>309.6</ele><time>2026-04-20T08:38:15.935Z</time></trkpt><trkpt lat="43.2862683" lon="11.54588"><ele>310.4</ele><time>2026-04-20T08:38:16.935Z</time></trkpt><trkpt lat="43.2863367" lon="11.5458717"><ele>311.2</ele><time>2026-04-20T08:38:17.935Z</time></trkpt><trkpt lat="43.286455" lon="11.5459067"><ele>312.0</ele><time>2026-04-20T08:38:19.935Z</time></trkpt><trkpt lat="43.2865717" lon="11.54599"><ele>312.0</ele><time>2026-04-20T08:38:21.936Z</time></trkpt><trkpt lat="43.2866383" lon="11.5460433"><ele>312.0</ele><time>2026-04-20T08:38:22.935Z</time></trkpt><trkpt lat="43.2867083" lon="11.546095"><ele>312.0</ele><time>2026-04-20T08:38:23.935Z</time></trkpt><trkpt lat="43.286785" lon="11.54613"><ele>312.0</ele><time>2026-04-20T08:38:24.935Z</time></trkpt><trkpt lat="43.2868667" lon="11.5461483"><ele>312.0</ele><time>2026-04-20T08:38:25.936Z</time></trkpt><trkpt lat="43.2869583" lon="11.5461433"><ele>312.0</ele><time>2026-04-20T08:38:26.935Z</time></trkpt><trkpt lat="43.2870467" lon="11.5461233"><ele>312.0</ele><time>2026-04-20T08:38:27.935Z</time></trkpt><trkpt lat="43.287125" lon="11.5460833"><ele>312.0</ele><time>2026-04-20T08:38:28.935Z</time></trkpt><trkpt lat="43.2871867" lon="11.5460233"><ele>312.0</ele><time>2026-04-20T08:38:29.935Z</time></trkpt><trkpt lat="43.2872483" lon="11.5459383"><ele>312.0</ele><time>2026-04-20T08:38:30.935Z</time></trkpt><trkpt lat="43.28728" lon="11.54583"><ele>312.0</ele><time>2026-04-20T08:38:31.935Z</time></trkpt><trkpt lat="43.287305" lon="11.5456967"><ele>312.0</ele><time>2026-04-20T08:38:32.935Z</time></trkpt><trkpt lat="43.2873233" lon="11.5455533"><ele>309.8</ele><time>2026-04-20T08:38:33.935Z</time></trkpt><trkpt lat="43.28734" lon="11.545415"><ele>307.6</ele><time>2026-04-20T08:38:34.935Z</time></trkpt><trkpt lat="43.2873583" lon="11.5452767"><ele>305.40000000000003</ele><time>2026-04-20T08:38:35.935Z</time></trkpt><trkpt lat="43.2873733" lon="11.5451517"><ele>303.2</ele><time>2026-04-20T08:38:36.935Z</time></trkpt><trkpt lat="43.2873783" lon="11.5450133"><ele>301.0</ele><time>2026-04-20T08:38:37.935Z</time></trkpt><trkpt lat="43.2873833" lon="11.5448733"><ele>301.0</ele><time>2026-04-20T08:38:38.935Z</time></trkpt><trkpt lat="43.287395" lon="11.5447383"><ele>301.0</ele><time>2026-04-20T08:38:39.935Z</time></trkpt><trkpt lat="43.2874167" lon="11.544605"><ele>301.0</ele><time>2026-04-20T08:38:40.935Z</time></trkpt><trkpt lat="43.2874517" lon="11.5444683"><ele>301.0</ele><time>2026-04-20T08:38:41.935Z</time></trkpt><trkpt lat="43.2874983" lon="11.54433"><ele>301.0</ele><time>2026-04-20T08:38:42.935Z</time></trkpt><trkpt lat="43.287545" lon="11.544195"><ele>300.6</ele><time>2026-04-20T08:38:43.936Z</time></trkpt><trkpt lat="43.2875883" lon="11.54407"><ele>300.20000000000005</ele><time>2026-04-20T08:38:44.936Z</time></trkpt><trkpt lat="43.2876217" lon="11.5439433"><ele>299.79999999999995</ele><time>2026-04-20T08:38:45.935Z</time></trkpt><trkpt lat="43.287635" lon="11.5438017"><ele>299.4</ele><time>2026-04-20T08:38:46.936Z</time></trkpt><trkpt lat="43.2876283" lon="11.5436583"><ele>299.0</ele><time>2026-04-20T08:38:47.935Z</time></trkpt><trkpt lat="43.2876233" lon="11.5435183"><ele>298.0</ele><time>2026-04-20T08:38:48.935Z</time></trkpt><trkpt lat="43.2876267" lon="11.5433867"><ele>297.0</ele><time>2026-04-20T08:38:49.935Z</time></trkpt><trkpt lat="43.2876417" lon="11.5432417"><ele>296.0</ele><time>2026-04-20T08:38:50.935Z</time></trkpt><trkpt lat="43.2876633" lon="11.5431033"><ele>295.0</ele><time>2026-04-20T08:38:51.936Z</time></trkpt><trkpt lat="43.2877067" lon="11.5429717"><ele>294.0</ele><time>2026-04-20T08:38:52.935Z</time></trkpt><trkpt lat="43.2877483" lon="11.542835"><ele>291.0</ele><time>2026-04-20T08:38:53.936Z</time></trkpt><trkpt lat="43.2877867" lon="11.5426933"><ele>288.0</ele><time>2026-04-20T08:38:54.935Z</time></trkpt><trkpt lat="43.2878383" lon="11.5425617"><ele>285.0</ele><time>2026-04-20T08:38:55.935Z</time></trkpt><trkpt lat="43.2879033" lon="11.5424283"><ele>282.0</ele><time>2026-04-20T08:38:56.935Z</time></trkpt><trkpt lat="43.28798" lon="11.5423033"><ele>282.0</ele><time>2026-04-20T08:38:57.935Z</time></trkpt><trkpt lat="43.2880567" lon="11.5421667"><ele>282.0</ele><time>2026-04-20T08:38:58.935Z</time></trkpt><trkpt lat="43.2881283" lon="11.542035"><ele>282.0</ele><time>2026-04-20T08:38:59.936Z</time></trkpt><trkpt lat="43.28819" lon="11.5419033"><ele>282.0</ele><time>2026-04-20T08:39:00.935Z</time></trkpt><trkpt lat="43.28824" lon="11.5417683"><ele>286.0</ele><time>2026-04-20T08:39:01.935Z</time></trkpt><trkpt lat="43.28828" lon="11.54164"><ele>290.0</ele><time>2026-04-20T08:39:02.935Z</time></trkpt><trkpt lat="43.2883233" lon="11.54152"><ele>294.0</ele><time>2026-04-20T08:39:03.935Z</time></trkpt><trkpt lat="43.2883917" lon="11.5414267"><ele>298.0</ele><time>2026-04-20T08:39:04.935Z</time></trkpt><trkpt lat="43.2884717" lon="11.5413467"><ele>302.0</ele><time>2026-04-20T08:39:05.935Z</time></trkpt><trkpt lat="43.28857" lon="11.5412867"><ele>302.0</ele><time>2026-04-20T08:39:06.935Z</time></trkpt><trkpt lat="43.288675" lon="11.5412383"><ele>302.0</ele><time>2026-04-20T08:39:07.935Z</time></trkpt><trkpt lat="43.2887917" lon="11.5411883"><ele>302.0</ele><time>2026-04-20T08:39:08.935Z</time></trkpt><trkpt lat="43.2889167" lon="11.5411567"><ele>302.0</ele><time>2026-04-20T08:39:09.936Z</time></trkpt><trkpt lat="43.2890467" lon="11.5411283"><ele>302.0</ele><time>2026-04-20T08:39:10.935Z</time></trkpt><trkpt lat="43.2891583" lon="11.5410967"><ele>302.0</ele><time>2026-04-20T08:39:11.936Z</time></trkpt><trkpt lat="43.2892617" lon="11.5410817"><ele>302.0</ele><time>2026-04-20T08:39:12.936Z</time></trkpt><trkpt lat="43.289355" lon="11.5410867"><ele>302.0</ele><time>2026-04-20T08:39:13.936Z</time></trkpt><trkpt lat="43.28945" lon="11.5411083"><ele>302.0</ele><time>2026-04-20T08:39:14.935Z</time></trkpt><trkpt lat="43.2895433" lon="11.54114"><ele>302.0</ele><time>2026-04-20T08:39:15.935Z</time></trkpt><trkpt lat="43.2896367" lon="11.541175"><ele>302.0</ele><time>2026-04-20T08:39:16.936Z</time></trkpt><trkpt lat="43.2897333" lon="11.5411917"><ele>302.0</ele><time>2026-04-20T08:39:17.935Z</time></trkpt><trkpt lat="43.28983" lon="11.5412"><ele>302.0</ele><time>2026-04-20T08:39:18.935Z</time></trkpt><trkpt lat="43.2899217" lon="11.541205"><ele>302.0</ele><time>2026-04-20T08:39:19.935Z</time></trkpt><trkpt lat="43.2900167" lon="11.5412033"><ele>302.0</ele><time>2026-04-20T08:39:20.935Z</time></trkpt><trkpt lat="43.2901133" lon="11.5411933"><ele>302.0</ele><time>2026-04-20T08:39:21.936Z</time></trkpt><trkpt lat="43.2902083" lon="11.5411933"><ele>302.0</ele><time>2026-04-20T08:39:22.935Z</time></trkpt><trkpt lat="43.290295" lon="11.5411983"><ele>302.0</ele><time>2026-04-20T08:39:23.935Z</time></trkpt><trkpt lat="43.290385" lon="11.5412067"><ele>302.0</ele><time>2026-04-20T08:39:24.935Z</time></trkpt><trkpt lat="43.2904733" lon="11.5412367"><ele>303.6</ele><time>2026-04-20T08:39:25.935Z</time></trkpt><trkpt lat="43.2905617" lon="11.541285"><ele>305.2</ele><time>2026-04-20T08:39:26.935Z</time></trkpt><trkpt lat="43.2906517" lon="11.54133"><ele>306.8</ele><time>2026-04-20T08:39:27.936Z</time></trkpt><trkpt lat="43.2907467" lon="11.5413617"><ele>308.4</ele><time>2026-04-20T08:39:28.935Z</time></trkpt><trkpt lat="43.290845" lon="11.54138"><ele>310.0</ele><time>2026-04-20T08:39:29.935Z</time></trkpt><trkpt lat="43.2909367" lon="11.541375"><ele>310.0</ele><time>2026-04-20T08:39:30.935Z</time></trkpt><trkpt lat="43.2910233" lon="11.5413533"><ele>310.0</ele><time>2026-04-20T08:39:31.936Z</time></trkpt><trkpt lat="43.2910967" lon="11.54132"><ele>310.0</ele><time>2026-04-20T08:39:32.935Z</time></trkpt><trkpt lat="43.2911617" lon="11.5412717"><ele>310.0</ele><time>2026-04-20T08:39:33.935Z</time></trkpt><trkpt lat="43.2912183" lon="11.5412"><ele>310.0</ele><time>2026-04-20T08:39:34.935Z</time></trkpt><trkpt lat="43.2912633" lon="11.541115"><ele>310.0</ele><time>2026-04-20T08:39:35.935Z</time></trkpt><trkpt lat="43.2913033" lon="11.541015"><ele>309.0</ele><time>2026-04-20T08:39:36.935Z</time></trkpt><trkpt lat="43.2913283" lon="11.540915"><ele>308.0</ele><time>2026-04-20T08:39:37.935Z</time></trkpt><trkpt lat="43.2913383" lon="11.5408083"><ele>307.0</ele><time>2026-04-20T08:39:38.935Z</time></trkpt><trkpt lat="43.2913367" lon="11.5406883"><ele>306.0</ele><time>2026-04-20T08:39:39.935Z</time></trkpt><trkpt lat="43.2913217" lon="11.5405617"><ele>305.0</ele><time>2026-04-20T08:39:40.935Z</time></trkpt><trkpt lat="43.2913033" lon="11.5404267"><ele>304.0</ele><time>2026-04-20T08:39:41.935Z</time></trkpt><trkpt lat="43.2913" lon="11.54029"><ele>303.59999999999997</ele><time>2026-04-20T08:39:42.935Z</time></trkpt><trkpt lat="43.2913133" lon="11.5401467"><ele>303.2</ele><time>2026-04-20T08:39:43.936Z</time></trkpt><trkpt lat="43.2913417" lon="11.5399983"><ele>302.79999999999995</ele><time>2026-04-20T08:39:44.936Z</time></trkpt><trkpt lat="43.2913817" lon="11.5398517"><ele>302.4</ele><time>2026-04-20T08:39:45.935Z</time></trkpt><trkpt lat="43.29143" lon="11.5397033"><ele>302.0</ele><time>2026-04-20T08:39:46.936Z</time></trkpt><trkpt lat="43.2914883" lon="11.5395417"><ele>305.0</ele><time>2026-04-20T08:39:47.936Z</time></trkpt><trkpt lat="43.291555" lon="11.5393867"><ele>308.0</ele><time>2026-04-20T08:39:48.935Z</time></trkpt><trkpt lat="43.2916133" lon="11.5392483"><ele>311.0</ele><time>2026-04-20T08:39:49.935Z</time></trkpt><trkpt lat="43.29167" lon="11.53913"><ele>314.0</ele><time>2026-04-20T08:39:50.935Z</time></trkpt><trkpt lat="43.2917167" lon="11.53902"><ele>317.0</ele><time>2026-04-20T08:39:51.936Z</time></trkpt><trkpt lat="43.291765" lon="11.53893"><ele>317.0</ele><time>2026-04-20T08:39:52.935Z</time></trkpt><trkpt lat="43.2918267" lon="11.5388583"><ele>317.0</ele><time>2026-04-20T08:39:53.935Z</time></trkpt><trkpt lat="43.2919067" lon="11.5388133"><ele>317.0</ele><time>2026-04-20T08:39:54.935Z</time></trkpt><trkpt lat="43.2919817" lon="11.538785"><ele>317.0</ele><time>2026-04-20T08:39:55.935Z</time></trkpt><trkpt lat="43.292065" lon="11.5387833"><ele>317.0</ele><time>2026-04-20T08:39:56.936Z</time></trkpt><trkpt lat="43.2921517" lon="11.538805"><ele>317.0</ele><time>2026-04-20T08:39:57.935Z</time></trkpt><trkpt lat="43.292245" lon="11.5388467"><ele>317.0</ele><time>2026-04-20T08:39:58.935Z</time></trkpt><trkpt lat="43.2923433" lon="11.5388833"><ele>317.0</ele><time>2026-04-20T08:39:59.936Z</time></trkpt><trkpt lat="43.292455" lon="11.5389083"><ele>317.0</ele><time>2026-04-20T08:40:00.935Z</time></trkpt><trkpt lat="43.292555" lon="11.5389167"><ele>317.0</ele><time>2026-04-20T08:40:01.935Z</time></trkpt><trkpt lat="43.2926467" lon="11.5388983"><ele>317.0</ele><time>2026-04-20T08:40:02.935Z</time></trkpt><trkpt lat="43.2927267" lon="11.5388717"><ele>317.0</ele><time>2026-04-20T08:40:03.936Z</time></trkpt><trkpt lat="43.2928017" lon="11.538825"><ele>317.0</ele><time>2026-04-20T08:40:04.935Z</time></trkpt><trkpt lat="43.29288" lon="11.5387517"><ele>317.0</ele><time>2026-04-20T08:40:05.935Z</time></trkpt><trkpt lat="43.2929567" lon="11.538675"><ele>317.0</ele><time>2026-04-20T08:40:06.936Z</time></trkpt><trkpt lat="43.2930483" lon="11.5385867"><ele>317.0</ele><time>2026-04-20T08:40:07.936Z</time></trkpt><trkpt lat="43.2931483" lon="11.538485"><ele>315.75</ele><time>2026-04-20T08:40:08.935Z</time></trkpt><trkpt lat="43.2932533" lon="11.53838"><ele>314.5</ele><time>2026-04-20T08:40:09.935Z</time></trkpt><trkpt lat="43.2933617" lon="11.5382767"><ele>313.25</ele><time>2026-04-20T08:40:10.936Z</time></trkpt><trkpt lat="43.2934733" lon="11.5381733"><ele>312.0</ele><time>2026-04-20T08:40:11.935Z</time></trkpt><trkpt lat="43.2935833" lon="11.5380717"><ele>312.0</ele><time>2026-04-20T08:40:12.935Z</time></trkpt><trkpt lat="43.293695" lon="11.5379717"><ele>312.0</ele><time>2026-04-20T08:40:13.936Z</time></trkpt><trkpt lat="43.293805" lon="11.5378683"><ele>312.0</ele><time>2026-04-20T08:40:14.935Z</time></trkpt><trkpt lat="43.2939083" lon="11.537765"><ele>312.0</ele><time>2026-04-20T08:40:15.935Z</time></trkpt><trkpt lat="43.2940133" lon="11.5376633"><ele>312.25</ele><time>2026-04-20T08:40:16.935Z</time></trkpt><trkpt lat="43.29412" lon="11.53755"><ele>312.5</ele><time>2026-04-20T08:40:17.935Z</time></trkpt><trkpt lat="43.2942167" lon="11.5374333"><ele>312.75</ele><time>2026-04-20T08:40:18.935Z</time></trkpt><trkpt lat="43.2943083" lon="11.537325"><ele>313.0</ele><time>2026-04-20T08:40:19.935Z</time></trkpt><trkpt lat="43.2943933" lon="11.5372217"><ele>313.0</ele><time>2026-04-20T08:40:20.936Z</time></trkpt><trkpt lat="43.2944833" lon="11.53712"><ele>313.0</ele><time>2026-04-20T08:40:21.935Z</time></trkpt><trkpt lat="43.2945767" lon="11.5370283"><ele>313.0</ele><time>2026-04-20T08:40:22.935Z</time></trkpt><trkpt lat="43.2946767" lon="11.53696"><ele>313.0</ele><time>2026-04-20T08:40:23.935Z</time></trkpt><trkpt lat="43.2947717" lon="11.5369167"><ele>313.0</ele><time>2026-04-20T08:40:24.935Z</time></trkpt><trkpt lat="43.294865" lon="11.5368667"><ele>312.0</ele><time>2026-04-20T08:40:25.935Z</time></trkpt><trkpt lat="43.2949517" lon="11.5368217"><ele>311.0</ele><time>2026-04-20T08:40:26.935Z</time></trkpt><trkpt lat="43.2950433" lon="11.5367867"><ele>310.0</ele><time>2026-04-20T08:40:27.935Z</time></trkpt><trkpt lat="43.29513" lon="11.536765"><ele>309.0</ele><time>2026-04-20T08:40:28.934Z</time></trkpt><trkpt lat="43.2952167" lon="11.53675"><ele>308.0</ele><time>2026-04-20T08:40:29.935Z</time></trkpt><trkpt lat="43.2952967" lon="11.5367267"><ele>307.0</ele><time>2026-04-20T08:40:30.934Z</time></trkpt><trkpt lat="43.29538" lon="11.5366767"><ele>307.0</ele><time>2026-04-20T08:40:31.934Z</time></trkpt><trkpt lat="43.29546" lon="11.5365983"><ele>307.0</ele><time>2026-04-20T08:40:32.935Z</time></trkpt><trkpt lat="43.29552" lon="11.5365017"><ele>307.0</ele><time>2026-04-20T08:40:33.934Z</time></trkpt><trkpt lat="43.2955783" lon="11.5363967"><ele>307.0</ele><time>2026-04-20T08:40:34.934Z</time></trkpt><trkpt lat="43.295625" lon="11.5362733"><ele>307.0</ele><time>2026-04-20T08:40:35.935Z</time></trkpt><trkpt lat="43.2956633" lon="11.53615"><ele>310.2</ele><time>2026-04-20T08:40:36.935Z</time></trkpt><trkpt lat="43.2957083" lon="11.5360117"><ele>313.4</ele><time>2026-04-20T08:40:37.935Z</time></trkpt><trkpt lat="43.2957533" lon="11.5358783"><ele>316.59999999999997</ele><time>2026-04-20T08:40:38.934Z</time></trkpt><trkpt lat="43.2957883" lon="11.5357367"><ele>319.79999999999995</ele><time>2026-04-20T08:40:39.934Z</time></trkpt><trkpt lat="43.29581" lon="11.535595"><ele>323.0</ele><time>2026-04-20T08:40:40.934Z</time></trkpt><trkpt lat="43.2958167" lon="11.5354533"><ele>323.79999999999995</ele><time>2026-04-20T08:40:41.934Z</time></trkpt><trkpt lat="43.2958233" lon="11.5353167"><ele>324.6</ele><time>2026-04-20T08:40:42.934Z</time></trkpt><trkpt lat="43.295835" lon="11.5351733"><ele>325.4</ele><time>2026-04-20T08:40:43.934Z</time></trkpt><trkpt lat="43.2958433" lon="11.5350333"><ele>326.20000000000005</ele><time>2026-04-20T08:40:44.934Z</time></trkpt><trkpt lat="43.2958517" lon="11.5349"><ele>327.0</ele><time>2026-04-20T08:40:45.934Z</time></trkpt><trkpt lat="43.2958333" lon="11.5347783"><ele>327.0</ele><time>2026-04-20T08:40:46.935Z</time></trkpt><trkpt lat="43.2957983" lon="11.5346767"><ele>327.0</ele><time>2026-04-20T08:40:47.934Z</time></trkpt><trkpt lat="43.2957383" lon="11.5345983"><ele>327.0</ele><time>2026-04-20T08:40:48.934Z</time></trkpt><trkpt lat="43.2956583" lon="11.5345333"><ele>327.0</ele><time>2026-04-20T08:40:49.934Z</time></trkpt><trkpt lat="43.29556" lon="11.53447"><ele>327.0</ele><time>2026-04-20T08:40:50.934Z</time></trkpt><trkpt lat="43.295455" lon="11.5343967"><ele>327.6</ele><time>2026-04-20T08:40:51.934Z</time></trkpt><trkpt lat="43.2953617" lon="11.534325"><ele>328.20000000000005</ele><time>2026-04-20T08:40:52.934Z</time></trkpt><trkpt lat="43.2952717" lon="11.534235"><ele>328.8</ele><time>2026-04-20T08:40:53.934Z</time></trkpt><trkpt lat="43.2952" lon="11.534135"><ele>329.4</ele><time>2026-04-20T08:40:54.934Z</time></trkpt><trkpt lat="43.29514" lon="11.5340433"><ele>330.0</ele><time>2026-04-20T08:40:55.935Z</time></trkpt><trkpt lat="43.2950683" lon="11.5339567"><ele>330.0</ele><time>2026-04-20T08:40:56.934Z</time></trkpt><trkpt lat="43.2949833" lon="11.5338933"><ele>330.0</ele><time>2026-04-20T08:40:57.934Z</time></trkpt><trkpt lat="43.294885" lon="11.5338433"><ele>330.0</ele><time>2026-04-20T08:40:58.935Z</time></trkpt><trkpt lat="43.2947933" lon="11.5337933"><ele>330.0</ele><time>2026-04-20T08:40:59.934Z</time></trkpt><trkpt lat="43.2947067" lon="11.5337433"><ele>330.0</ele><time>2026-04-20T08:41:00.935Z</time></trkpt><trkpt lat="43.294625" lon="11.53368"><ele>328.8333333333333</ele><time>2026-04-20T08:41:01.934Z</time></trkpt><trkpt lat="43.2945517" lon="11.5336117"><ele>327.6666666666667</ele><time>2026-04-20T08:41:02.934Z</time></trkpt><trkpt lat="43.294495" lon="11.5335167"><ele>326.5</ele><time>2026-04-20T08:41:03.934Z</time></trkpt><trkpt lat="43.2944617" lon="11.5334083"><ele>325.33333333333337</ele><time>2026-04-20T08:41:04.934Z</time></trkpt><trkpt lat="43.2944533" lon="11.533295"><ele>324.1666666666667</ele><time>2026-04-20T08:41:05.934Z</time></trkpt><trkpt lat="43.2944567" lon="11.5331633"><ele>323.0</ele><time>2026-04-20T08:41:06.935Z</time></trkpt><trkpt lat="43.2944583" lon="11.5330217"><ele>323.4</ele><time>2026-04-20T08:41:07.934Z</time></trkpt><trkpt lat="43.2944633" lon="11.5328767"><ele>323.79999999999995</ele><time>2026-04-20T08:41:08.935Z</time></trkpt><trkpt lat="43.2944617" lon="11.5327383"><ele>324.2</ele><time>2026-04-20T08:41:09.934Z</time></trkpt><trkpt lat="43.2944683" lon="11.5326083"><ele>324.6</ele><time>2026-04-20T08:41:10.934Z</time></trkpt><trkpt lat="43.2944833" lon="11.5324767"><ele>325.0</ele><time>2026-04-20T08:41:11.934Z</time></trkpt><trkpt lat="43.29451" lon="11.5323417"><ele>325.0</ele><time>2026-04-20T08:41:12.934Z</time></trkpt><trkpt lat="43.29455" lon="11.5322083"><ele>325.0</ele><time>2026-04-20T08:41:13.934Z</time></trkpt><trkpt lat="43.2945867" lon="11.532085"><ele>325.0</ele><time>2026-04-20T08:41:14.934Z</time></trkpt><trkpt lat="43.29463" lon="11.5319667"><ele>325.0</ele><time>2026-04-20T08:41:15.934Z</time></trkpt><trkpt lat="43.2946783" lon="11.5318533"><ele>325.0</ele><time>2026-04-20T08:41:16.934Z</time></trkpt><trkpt lat="43.29473" lon="11.531745"><ele>323.2</ele><time>2026-04-20T08:41:17.935Z</time></trkpt><trkpt lat="43.2947833" lon="11.531635"><ele>321.4</ele><time>2026-04-20T08:41:18.935Z</time></trkpt><trkpt lat="43.29484" lon="11.5315317"><ele>319.6</ele><time>2026-04-20T08:41:19.934Z</time></trkpt><trkpt lat="43.2948967" lon="11.5314317"><ele>317.8</ele><time>2026-04-20T08:41:20.934Z</time></trkpt><trkpt lat="43.2949467" lon="11.5313233"><ele>316.0</ele><time>2026-04-20T08:41:21.934Z</time></trkpt><trkpt lat="43.2949967" lon="11.5312267"><ele>316.8</ele><time>2026-04-20T08:41:22.935Z</time></trkpt><trkpt lat="43.2950583" lon="11.53113"><ele>317.6</ele><time>2026-04-20T08:41:23.934Z</time></trkpt><trkpt lat="43.29513" lon="11.5310433"><ele>318.4</ele><time>2026-04-20T08:41:24.934Z</time></trkpt><trkpt lat="43.2952017" lon="11.5309533"><ele>319.2</ele><time>2026-04-20T08:41:25.935Z</time></trkpt><trkpt lat="43.295285" lon="11.5308767"><ele>320.0</ele><time>2026-04-20T08:41:26.934Z</time></trkpt><trkpt lat="43.2953783" lon="11.5308067"><ele>320.0</ele><time>2026-04-20T08:41:27.934Z</time></trkpt><trkpt lat="43.2954683" lon="11.5307367"><ele>320.0</ele><time>2026-04-20T08:41:28.934Z</time></trkpt><trkpt lat="43.2955733" lon="11.5306783"><ele>320.0</ele><time>2026-04-20T08:41:29.934Z</time></trkpt><trkpt lat="43.2956717" lon="11.5306133"><ele>320.0</ele><time>2026-04-20T08:41:30.934Z</time></trkpt><trkpt lat="43.2957717" lon="11.5305633"><ele>320.0</ele><time>2026-04-20T08:41:31.935Z</time></trkpt><trkpt lat="43.2958717" lon="11.5305217"><ele>317.6</ele><time>2026-04-20T08:41:32.934Z</time></trkpt><trkpt lat="43.29596" lon="11.5304867"><ele>315.2</ele><time>2026-04-20T08:41:33.935Z</time></trkpt><trkpt lat="43.2960567" lon="11.53044"><ele>312.8</ele><time>2026-04-20T08:41:34.934Z</time></trkpt><trkpt lat="43.2961483" lon="11.5304017"><ele>310.4</ele><time>2026-04-20T08:41:35.934Z</time></trkpt><trkpt lat="43.2962367" lon="11.5303667"><ele>308.0</ele><time>2026-04-20T08:41:36.934Z</time></trkpt><trkpt lat="43.2963267" lon="11.530325"><ele>308.0</ele><time>2026-04-20T08:41:37.934Z</time></trkpt><trkpt lat="43.2964067" lon="11.5302867"><ele>308.0</ele><time>2026-04-20T08:41:38.934Z</time></trkpt><trkpt lat="43.29648" lon="11.5302467"><ele>308.0</ele><time>2026-04-20T08:41:39.934Z</time></trkpt><trkpt lat="43.2965483" lon="11.5302067"><ele>308.0</ele><time>2026-04-20T08:41:40.934Z</time></trkpt><trkpt lat="43.2966083" lon="11.5301483"><ele>308.0</ele><time>2026-04-20T08:41:41.934Z</time></trkpt><trkpt lat="43.296645" lon="11.530065"><ele>308.0</ele><time>2026-04-20T08:41:42.934Z</time></trkpt><trkpt lat="43.296655" lon="11.52997"><ele>308.0</ele><time>2026-04-20T08:41:43.934Z</time></trkpt><trkpt lat="43.2966383" lon="11.5298733"><ele>308.0</ele><time>2026-04-20T08:41:44.934Z</time></trkpt><trkpt lat="43.296585" lon="11.5298017"><ele>308.0</ele><time>2026-04-20T08:41:45.934Z</time></trkpt><trkpt lat="43.2965133" lon="11.5297417"><ele>308.0</ele><time>2026-04-20T08:41:46.935Z</time></trkpt><trkpt lat="43.2964217" lon="11.529695"><ele>308.0</ele><time>2026-04-20T08:41:47.934Z</time></trkpt><trkpt lat="43.2963183" lon="11.5296617"><ele>308.0</ele><time>2026-04-20T08:41:48.934Z</time></trkpt><trkpt lat="43.2962117" lon="11.5296333"><ele>308.0</ele><time>2026-04-20T08:41:49.934Z</time></trkpt><trkpt lat="43.2961067" lon="11.5296167"><ele>308.0</ele><time>2026-04-20T08:41:50.934Z</time></trkpt><trkpt lat="43.2960067" lon="11.5296017"><ele>308.0</ele><time>2026-04-20T08:41:51.934Z</time></trkpt><trkpt lat="43.2959083" lon="11.52956"><ele>308.0</ele><time>2026-04-20T08:41:52.934Z</time></trkpt><trkpt lat="43.2958117" lon="11.529505"><ele>308.0</ele><time>2026-04-20T08:41:53.934Z</time></trkpt><trkpt lat="43.2957183" lon="11.529435"><ele>306.1666666666667</ele><time>2026-04-20T08:41:54.934Z</time></trkpt><trkpt lat="43.2956233" lon="11.5293717"><ele>304.33333333333337</ele><time>2026-04-20T08:41:55.934Z</time></trkpt><trkpt lat="43.29554" lon="11.5293217"><ele>302.5</ele><time>2026-04-20T08:41:56.935Z</time></trkpt><trkpt lat="43.29546" lon="11.5292883"><ele>300.6666666666667</ele><time>2026-04-20T08:41:57.935Z</time></trkpt><trkpt lat="43.295385" lon="11.5292583"><ele>298.8333333333333</ele><time>2026-04-20T08:41:58.934Z</time></trkpt><trkpt lat="43.2953333" lon="11.5292067"><ele>297.0</ele><time>2026-04-20T08:41:59.935Z</time></trkpt><trkpt lat="43.2953017" lon="11.5291317"><ele>297.0</ele><time>2026-04-20T08:42:00.934Z</time></trkpt><trkpt lat="43.2953067" lon="11.5290433"><ele>297.0</ele><time>2026-04-20T08:42:01.934Z</time></trkpt><trkpt lat="43.29533" lon="11.52896"><ele>297.0</ele><time>2026-04-20T08:42:02.934Z</time></trkpt><trkpt lat="43.29539" lon="11.5288883"><ele>297.0</ele><time>2026-04-20T08:42:03.934Z</time></trkpt><trkpt lat="43.2954667" lon="11.5288233"><ele>297.0</ele><time>2026-04-20T08:42:04.934Z</time></trkpt><trkpt lat="43.2955567" lon="11.5287583"><ele>297.0</ele><time>2026-04-20T08:42:05.934Z</time></trkpt><trkpt lat="43.29564" lon="11.5287"><ele>296.0</ele><time>2026-04-20T08:42:06.934Z</time></trkpt><trkpt lat="43.29572" lon="11.5286333"><ele>295.0</ele><time>2026-04-20T08:42:07.934Z</time></trkpt><trkpt lat="43.295785" lon="11.5285533"><ele>294.0</ele><time>2026-04-20T08:42:08.934Z</time></trkpt><trkpt lat="43.2958483" lon="11.5284583"><ele>293.0</ele><time>2026-04-20T08:42:09.934Z</time></trkpt><trkpt lat="43.2958883" lon="11.5283467"><ele>292.0</ele><time>2026-04-20T08:42:10.934Z</time></trkpt><trkpt lat="43.2959067" lon="11.5282067"><ele>292.0</ele><time>2026-04-20T08:42:11.934Z</time></trkpt><trkpt lat="43.2959233" lon="11.5280517"><ele>292.0</ele><time>2026-04-20T08:42:12.935Z</time></trkpt><trkpt lat="43.2959417" lon="11.5278783"><ele>292.0</ele><time>2026-04-20T08:42:13.934Z</time></trkpt><trkpt lat="43.2959567" lon="11.527695"><ele>292.0</ele><time>2026-04-20T08:42:14.934Z</time></trkpt><trkpt lat="43.2959767" lon="11.5275317"><ele>292.0</ele><time>2026-04-20T08:42:15.935Z</time></trkpt><trkpt lat="43.2960017" lon="11.5273867"><ele>292.0</ele><time>2026-04-20T08:42:16.934Z</time></trkpt><trkpt lat="43.2960317" lon="11.5272383"><ele>292.0</ele><time>2026-04-20T08:42:17.934Z</time></trkpt><trkpt lat="43.296085" lon="11.5270833"><ele>292.0</ele><time>2026-04-20T08:42:18.935Z</time></trkpt><trkpt lat="43.2961517" lon="11.5269383"><ele>291.25</ele><time>2026-04-20T08:42:19.935Z</time></trkpt><trkpt lat="43.2962183" lon="11.5268117"><ele>290.5</ele><time>2026-04-20T08:42:20.934Z</time></trkpt><trkpt lat="43.2962883" lon="11.5266867"><ele>289.75</ele><time>2026-04-20T08:42:21.935Z</time></trkpt><trkpt lat="43.2963717" lon="11.5265633"><ele>289.0</ele><time>2026-04-20T08:42:22.934Z</time></trkpt><trkpt lat="43.2964567" lon="11.5264417"><ele>289.0</ele><time>2026-04-20T08:42:23.935Z</time></trkpt><trkpt lat="43.2965383" lon="11.5263317"><ele>289.0</ele><time>2026-04-20T08:42:24.935Z</time></trkpt><trkpt lat="43.2966183" lon="11.52623"><ele>289.0</ele><time>2026-04-20T08:42:25.935Z</time></trkpt><trkpt lat="43.29669" lon="11.52615"><ele>289.0</ele><time>2026-04-20T08:42:26.934Z</time></trkpt><trkpt lat="43.296745" lon="11.5260633"><ele>289.0</ele><time>2026-04-20T08:42:27.934Z</time></trkpt><trkpt lat="43.29678" lon="11.5259633"><ele>289.0</ele><time>2026-04-20T08:42:28.934Z</time></trkpt><trkpt lat="43.29679" lon="11.5258433"><ele>289.0</ele><time>2026-04-20T08:42:29.934Z</time></trkpt><trkpt lat="43.2967817" lon="11.5257233"><ele>289.0</ele><time>2026-04-20T08:42:30.934Z</time></trkpt><trkpt lat="43.2967617" lon="11.5255917"><ele>289.0</ele><time>2026-04-20T08:42:31.934Z</time></trkpt><trkpt lat="43.2967433" lon="11.525445"><ele>289.0</ele><time>2026-04-20T08:42:32.934Z</time></trkpt><trkpt lat="43.2967517" lon="11.5252883"><ele>289.59999999999997</ele><time>2026-04-20T08:42:33.934Z</time></trkpt><trkpt lat="43.2967633" lon="11.52513"><ele>290.2</ele><time>2026-04-20T08:42:34.934Z</time></trkpt><trkpt lat="43.2967533" lon="11.5249933"><ele>290.79999999999995</ele><time>2026-04-20T08:42:35.934Z</time></trkpt><trkpt lat="43.2967283" lon="11.52486"><ele>291.4</ele><time>2026-04-20T08:42:36.934Z</time></trkpt><trkpt lat="43.29668" lon="11.5247333"><ele>292.0</ele><time>2026-04-20T08:42:37.935Z</time></trkpt><trkpt lat="43.2966267" lon="11.5246033"><ele>294.5</ele><time>2026-04-20T08:42:38.935Z</time></trkpt><trkpt lat="43.29659" lon="11.52446"><ele>297.0</ele><time>2026-04-20T08:42:39.934Z</time></trkpt><trkpt lat="43.29656" lon="11.52431"><ele>299.5</ele><time>2026-04-20T08:42:40.934Z</time></trkpt><trkpt lat="43.296535" lon="11.52415"><ele>302.0</ele><time>2026-04-20T08:42:41.934Z</time></trkpt><trkpt lat="43.2965183" lon="11.5240033"><ele>302.0</ele><time>2026-04-20T08:42:42.935Z</time></trkpt><trkpt lat="43.296505" lon="11.5238617"><ele>302.0</ele><time>2026-04-20T08:42:43.935Z</time></trkpt><trkpt lat="43.2964867" lon="11.523735"><ele>302.0</ele><time>2026-04-20T08:42:44.934Z</time></trkpt><trkpt lat="43.29646" lon="11.5235967"><ele>302.0</ele><time>2026-04-20T08:42:45.934Z</time></trkpt><trkpt lat="43.2964467" lon="11.5234633"><ele>302.0</ele><time>2026-04-20T08:42:46.934Z</time></trkpt><trkpt lat="43.2964367" lon="11.5233317"><ele>302.8</ele><time>2026-04-20T08:42:47.935Z</time></trkpt><trkpt lat="43.296425" lon="11.5231883"><ele>303.6</ele><time>2026-04-20T08:42:48.934Z</time></trkpt><trkpt lat="43.29642" lon="11.523035"><ele>304.40000000000003</ele><time>2026-04-20T08:42:49.934Z</time></trkpt><trkpt lat="43.296425" lon="11.52289"><ele>305.2</ele><time>2026-04-20T08:42:50.935Z</time></trkpt><trkpt lat="43.2964383" lon="11.5227567"><ele>306.0</ele><time>2026-04-20T08:42:51.934Z</time></trkpt><trkpt lat="43.296465" lon="11.5226317"><ele>306.0</ele><time>2026-04-20T08:42:52.934Z</time></trkpt><trkpt lat="43.2965083" lon="11.5225217"><ele>306.0</ele><time>2026-04-20T08:42:53.935Z</time></trkpt><trkpt lat="43.296565" lon="11.5224"><ele>306.0</ele><time>2026-04-20T08:42:54.934Z</time></trkpt><trkpt lat="43.2966283" lon="11.5222783"><ele>306.0</ele><time>2026-04-20T08:42:55.934Z</time></trkpt><trkpt lat="43.29668" lon="11.52214"><ele>306.0</ele><time>2026-04-20T08:42:56.934Z</time></trkpt><trkpt lat="43.2967017" lon="11.5220067"><ele>304.3333333333333</ele><time>2026-04-20T08:42:57.934Z</time></trkpt><trkpt lat="43.2967233" lon="11.5218833"><ele>302.6666666666667</ele><time>2026-04-20T08:42:58.934Z</time></trkpt><trkpt lat="43.2967483" lon="11.52177"><ele>301.0</ele><time>2026-04-20T08:42:59.934Z</time></trkpt><trkpt lat="43.2967817" lon="11.5216633"><ele>299.33333333333337</ele><time>2026-04-20T08:43:00.934Z</time></trkpt><trkpt lat="43.29684" lon="11.5215717"><ele>297.6666666666667</ele><time>2026-04-20T08:43:01.934Z</time></trkpt><trkpt lat="43.2969183" lon="11.5214983"><ele>296.0</ele><time>2026-04-20T08:43:02.934Z</time></trkpt><trkpt lat="43.2969983" lon="11.521435"><ele>296.0</ele><time>2026-04-20T08:43:03.934Z</time></trkpt><trkpt lat="43.2970883" lon="11.5213867"><ele>296.0</ele><time>2026-04-20T08:43:04.934Z</time></trkpt><trkpt lat="43.2971817" lon="11.5213633"><ele>296.0</ele><time>2026-04-20T08:43:05.935Z</time></trkpt><trkpt lat="43.297275" lon="11.5213433"><ele>296.0</ele><time>2026-04-20T08:43:06.934Z</time></trkpt><trkpt lat="43.2973733" lon="11.52134"><ele>296.0</ele><time>2026-04-20T08:43:07.934Z</time></trkpt><trkpt lat="43.2974717" lon="11.52135"><ele>297.6</ele><time>2026-04-20T08:43:08.934Z</time></trkpt><trkpt lat="43.2975633" lon="11.5213817"><ele>299.20000000000005</ele><time>2026-04-20T08:43:09.934Z</time></trkpt><trkpt lat="43.2976417" lon="11.5214383"><ele>300.79999999999995</ele><time>2026-04-20T08:43:10.934Z</time></trkpt><trkpt lat="43.2977167" lon="11.5215183"><ele>302.4</ele><time>2026-04-20T08:43:11.935Z</time></trkpt><trkpt lat="43.2977867" lon="11.5216017"><ele>304.0</ele><time>2026-04-20T08:43:12.934Z</time></trkpt><trkpt lat="43.2978567" lon="11.5216733"><ele>304.0</ele><time>2026-04-20T08:43:13.934Z</time></trkpt><trkpt lat="43.2979217" lon="11.521755"><ele>304.0</ele><time>2026-04-20T08:43:14.934Z</time></trkpt><trkpt lat="43.29798" lon="11.5218483"><ele>304.0</ele><time>2026-04-20T08:43:15.934Z</time></trkpt><trkpt lat="43.2980317" lon="11.5219517"><ele>304.0</ele><time>2026-04-20T08:43:16.934Z</time></trkpt><trkpt lat="43.298075" lon="11.5220567"><ele>304.0</ele><time>2026-04-20T08:43:17.934Z</time></trkpt><trkpt lat="43.2981267" lon="11.5221533"><ele>304.0</ele><time>2026-04-20T08:43:18.934Z</time></trkpt><trkpt lat="43.2981917" lon="11.522235"><ele>304.16666666666663</ele><time>2026-04-20T08:43:19.935Z</time></trkpt><trkpt lat="43.2982583" lon="11.5222883"><ele>304.3333333333333</ele><time>2026-04-20T08:43:20.935Z</time></trkpt><trkpt lat="43.2983367" lon="11.522315"><ele>304.5</ele><time>2026-04-20T08:43:21.934Z</time></trkpt><trkpt lat="43.2984183" lon="11.5223067"><ele>304.6666666666667</ele><time>2026-04-20T08:43:22.934Z</time></trkpt><trkpt lat="43.2984983" lon="11.5222833"><ele>304.83333333333337</ele><time>2026-04-20T08:43:23.934Z</time></trkpt><trkpt lat="43.2985767" lon="11.522265"><ele>305.0</ele><time>2026-04-20T08:43:24.934Z</time></trkpt><trkpt lat="43.2986517" lon="11.52227"><ele>305.0</ele><time>2026-04-20T08:43:25.935Z</time></trkpt><trkpt lat="43.2987267" lon="11.5223133"><ele>305.0</ele><time>2026-04-20T08:43:26.934Z</time></trkpt><trkpt lat="43.2988017" lon="11.5223767"><ele>305.0</ele><time>2026-04-20T08:43:27.934Z</time></trkpt><trkpt lat="43.2988667" lon="11.5224417"><ele>305.0</ele><time>2026-04-20T08:43:28.934Z</time></trkpt><trkpt lat="43.298935" lon="11.5225033"><ele>305.0</ele><time>2026-04-20T08:43:29.935Z</time></trkpt><trkpt lat="43.2990033" lon="11.52253"><ele>305.0</ele><time>2026-04-20T08:43:30.934Z</time></trkpt><trkpt lat="43.299075" lon="11.5225317"><ele>303.83333333333337</ele><time>2026-04-20T08:43:31.935Z</time></trkpt><trkpt lat="43.2991567" lon="11.5225267"><ele>302.6666666666667</ele><time>2026-04-20T08:43:32.934Z</time></trkpt><trkpt lat="43.2992483" lon="11.522515"><ele>301.5</ele><time>2026-04-20T08:43:33.935Z</time></trkpt><trkpt lat="43.2993367" lon="11.522495"><ele>300.3333333333333</ele><time>2026-04-20T08:43:34.934Z</time></trkpt><trkpt lat="43.299415" lon="11.5224717"><ele>299.16666666666663</ele><time>2026-04-20T08:43:35.934Z</time></trkpt><trkpt lat="43.2994933" lon="11.5224333"><ele>298.0</ele><time>2026-04-20T08:43:36.935Z</time></trkpt><trkpt lat="43.2995683" lon="11.5223817"><ele>298.0</ele><time>2026-04-20T08:43:37.935Z</time></trkpt><trkpt lat="43.2996383" lon="11.5223267"><ele>298.0</ele><time>2026-04-20T08:43:38.935Z</time></trkpt><trkpt lat="43.2997183" lon="11.52227"><ele>298.0</ele><time>2026-04-20T08:43:39.934Z</time></trkpt><trkpt lat="43.299815" lon="11.5222383"><ele>298.0</ele><time>2026-04-20T08:43:40.934Z</time></trkpt><trkpt lat="43.29991" lon="11.52222"><ele>298.0</ele><time>2026-04-20T08:43:41.934Z</time></trkpt><trkpt lat="43.3000083" lon="11.5222183"><ele>298.2</ele><time>2026-04-20T08:43:42.934Z</time></trkpt><trkpt lat="43.3001067" lon="11.5222333"><ele>298.4</ele><time>2026-04-20T08:43:43.935Z</time></trkpt><trkpt lat="43.3002117" lon="11.5222567"><ele>298.59999999999997</ele><time>2026-04-20T08:43:44.934Z</time></trkpt><trkpt lat="43.3003117" lon="11.5222983"><ele>298.8</ele><time>2026-04-20T08:43:45.934Z</time></trkpt><trkpt lat="43.3004033" lon="11.5223433"><ele>299.0</ele><time>2026-04-20T08:43:46.934Z</time></trkpt><trkpt lat="43.3004867" lon="11.5223933"><ele>299.0</ele><time>2026-04-20T08:43:47.934Z</time></trkpt><trkpt lat="43.300575" lon="11.5224383"><ele>299.0</ele><time>2026-04-20T08:43:48.935Z</time></trkpt><trkpt lat="43.30066" lon="11.5224867"><ele>299.0</ele><time>2026-04-20T08:43:49.934Z</time></trkpt><trkpt lat="43.30075" lon="11.5225117"><ele>299.0</ele><time>2026-04-20T08:43:50.934Z</time></trkpt><trkpt lat="43.300845" lon="11.5225383"><ele>299.0</ele><time>2026-04-20T08:43:51.934Z</time></trkpt><trkpt lat="43.3009417" lon="11.52257"><ele>298.0</ele><time>2026-04-20T08:43:52.934Z</time></trkpt><trkpt lat="43.3010367" lon="11.5225967"><ele>297.0</ele><time>2026-04-20T08:43:53.934Z</time></trkpt><trkpt lat="43.3011367" lon="11.5226383"><ele>296.0</ele><time>2026-04-20T08:43:54.934Z</time></trkpt><trkpt lat="43.3012483" lon="11.5226917"><ele>295.0</ele><time>2026-04-20T08:43:55.934Z</time></trkpt><trkpt lat="43.30135" lon="11.5227567"><ele>294.0</ele><time>2026-04-20T08:43:56.934Z</time></trkpt><trkpt lat="43.3014433" lon="11.522805"><ele>293.2</ele><time>2026-04-20T08:43:57.934Z</time></trkpt><trkpt lat="43.301525" lon="11.52284"><ele>292.4</ele><time>2026-04-20T08:43:58.934Z</time></trkpt><trkpt lat="43.3016083" lon="11.5228567"><ele>291.6</ele><time>2026-04-20T08:43:59.934Z</time></trkpt><trkpt lat="43.3016967" lon="11.5228817"><ele>290.8</ele><time>2026-04-20T08:44:00.934Z</time></trkpt><trkpt lat="43.3017917" lon="11.522895"><ele>290.0</ele><time>2026-04-20T08:44:01.934Z</time></trkpt><trkpt lat="43.3018883" lon="11.5229083"><ele>290.33333333333337</ele><time>2026-04-20T08:44:02.935Z</time></trkpt><trkpt lat="43.3019767" lon="11.5229233"><ele>290.6666666666667</ele><time>2026-04-20T08:44:03.935Z</time></trkpt><trkpt lat="43.3020617" lon="11.5229333"><ele>291.0</ele><time>2026-04-20T08:44:04.934Z</time></trkpt><trkpt lat="43.3021433" lon="11.5229317"><ele>291.3333333333333</ele><time>2026-04-20T08:44:05.935Z</time></trkpt><trkpt lat="43.3022233" lon="11.52291"><ele>291.66666666666663</ele><time>2026-04-20T08:44:06.934Z</time></trkpt><trkpt lat="43.3023033" lon="11.5228867"><ele>292.0</ele><time>2026-04-20T08:44:07.934Z</time></trkpt><trkpt lat="43.3023933" lon="11.52286"><ele>292.0</ele><time>2026-04-20T08:44:08.934Z</time></trkpt><trkpt lat="43.30248" lon="11.5228167"><ele>292.0</ele><time>2026-04-20T08:44:09.935Z</time></trkpt><trkpt lat="43.3025717" lon="11.522785"><ele>292.0</ele><time>2026-04-20T08:44:10.934Z</time></trkpt><trkpt lat="43.30266" lon="11.5227467"><ele>292.0</ele><time>2026-04-20T08:44:11.934Z</time></trkpt><trkpt lat="43.3027467" lon="11.5227133"><ele>292.0</ele><time>2026-04-20T08:44:12.934Z</time></trkpt><trkpt lat="43.3028267" lon="11.5226883"><ele>292.0</ele><time>2026-04-20T08:44:13.934Z</time></trkpt><trkpt lat="43.3029133" lon="11.52268"><ele>292.0</ele><time>2026-04-20T08:44:14.934Z</time></trkpt><trkpt lat="43.303" lon="11.5226767"><ele>292.0</ele><time>2026-04-20T08:44:15.935Z</time></trkpt><trkpt lat="43.3030833" lon="11.5226833"><ele>292.0</ele><time>2026-04-20T08:44:16.934Z</time></trkpt><trkpt lat="43.303175" lon="11.522695"><ele>292.0</ele><time>2026-04-20T08:44:17.934Z</time></trkpt><trkpt lat="43.3032533" lon="11.522715"><ele>292.0</ele><time>2026-04-20T08:44:18.935Z</time></trkpt><trkpt lat="43.303325" lon="11.522755"><ele>291.5</ele><time>2026-04-20T08:44:19.934Z</time></trkpt><trkpt lat="43.3033967" lon="11.5228283"><ele>291.0</ele><time>2026-04-20T08:44:20.934Z</time></trkpt><trkpt lat="43.3034583" lon="11.5229133"><ele>290.5</ele><time>2026-04-20T08:44:21.934Z</time></trkpt><trkpt lat="43.303515" lon="11.5230033"><ele>290.0</ele><time>2026-04-20T08:44:22.934Z</time></trkpt><trkpt lat="43.3035667" lon="11.523105"><ele>289.5</ele><time>2026-04-20T08:44:23.934Z</time></trkpt><trkpt lat="43.3036133" lon="11.5232133"><ele>289.0</ele><time>2026-04-20T08:44:24.934Z</time></trkpt><trkpt lat="43.303675" lon="11.52333"><ele>290.0</ele><time>2026-04-20T08:44:25.934Z</time></trkpt><trkpt lat="43.3037417" lon="11.523445"><ele>291.0</ele><time>2026-04-20T08:44:26.934Z</time></trkpt><trkpt lat="43.3038133" lon="11.5235517"><ele>292.0</ele><time>2026-04-20T08:44:27.934Z</time></trkpt><trkpt lat="43.3038767" lon="11.5236533"><ele>293.0</ele><time>2026-04-20T08:44:28.934Z</time></trkpt><trkpt lat="43.3039433" lon="11.523735"><ele>294.0</ele><time>2026-04-20T08:44:29.934Z</time></trkpt><trkpt lat="43.3040217" lon="11.5237983"><ele>294.0</ele><time>2026-04-20T08:44:30.935Z</time></trkpt><trkpt lat="43.304105" lon="11.5238417"><ele>294.0</ele><time>2026-04-20T08:44:31.934Z</time></trkpt><trkpt lat="43.3042033" lon="11.5238483"><ele>294.0</ele><time>2026-04-20T08:44:32.934Z</time></trkpt><trkpt lat="43.3042983" lon="11.5238217"><ele>294.0</ele><time>2026-04-20T08:44:33.934Z</time></trkpt><trkpt lat="43.304385" lon="11.5237667"><ele>294.0</ele><time>2026-04-20T08:44:34.935Z</time></trkpt><trkpt lat="43.30446" lon="11.5236833"><ele>294.0</ele><time>2026-04-20T08:44:35.934Z</time></trkpt><trkpt lat="43.3045283" lon="11.5235867"><ele>294.0</ele><time>2026-04-20T08:44:36.934Z</time></trkpt><trkpt lat="43.3045933" lon="11.5234817"><ele>294.0</ele><time>2026-04-20T08:44:37.934Z</time></trkpt><trkpt lat="43.304655" lon="11.5233733"><ele>294.0</ele><time>2026-04-20T08:44:38.934Z</time></trkpt><trkpt lat="43.3047233" lon="11.5232783"><ele>294.0</ele><time>2026-04-20T08:44:39.934Z</time></trkpt><trkpt lat="43.3048067" lon="11.523195"><ele>295.59999999999997</ele><time>2026-04-20T08:44:40.934Z</time></trkpt><trkpt lat="43.304895" lon="11.5231183"><ele>297.2</ele><time>2026-04-20T08:44:41.935Z</time></trkpt><trkpt lat="43.3049933" lon="11.523055"><ele>298.79999999999995</ele><time>2026-04-20T08:44:42.934Z</time></trkpt><trkpt lat="43.30509" lon="11.5229867"><ele>300.4</ele><time>2026-04-20T08:44:43.934Z</time></trkpt><trkpt lat="43.3051933" lon="11.52294"><ele>302.0</ele><time>2026-04-20T08:44:44.934Z</time></trkpt><trkpt lat="43.3052967" lon="11.522895"><ele>302.0</ele><time>2026-04-20T08:44:45.934Z</time></trkpt><trkpt lat="43.305395" lon="11.522855"><ele>302.0</ele><time>2026-04-20T08:44:46.935Z</time></trkpt><trkpt lat="43.3054933" lon="11.52282"><ele>302.0</ele><time>2026-04-20T08:44:47.934Z</time></trkpt><trkpt lat="43.3055883" lon="11.5227933"><ele>302.0</ele><time>2026-04-20T08:44:48.934Z</time></trkpt><trkpt lat="43.30568" lon="11.5227817"><ele>302.0</ele><time>2026-04-20T08:44:49.934Z</time></trkpt><trkpt lat="43.3057717" lon="11.5227917"><ele>304.4</ele><time>2026-04-20T08:44:50.934Z</time></trkpt><trkpt lat="43.3058683" lon="11.522825"><ele>306.79999999999995</ele><time>2026-04-20T08:44:51.935Z</time></trkpt><trkpt lat="43.3059633" lon="11.52286"><ele>309.2</ele><time>2026-04-20T08:44:52.934Z</time></trkpt><trkpt lat="43.3060567" lon="11.52291"><ele>311.59999999999997</ele><time>2026-04-20T08:44:53.934Z</time></trkpt><trkpt lat="43.3061633" lon="11.5229533"><ele>314.0</ele><time>2026-04-20T08:44:54.934Z</time></trkpt><trkpt lat="43.3062667" lon="11.5229883"><ele>314.8</ele><time>2026-04-20T08:44:55.935Z</time></trkpt><trkpt lat="43.30637" lon="11.5230133"><ele>315.59999999999997</ele><time>2026-04-20T08:44:56.934Z</time></trkpt><trkpt lat="43.3064717" lon="11.5230267"><ele>316.4</ele><time>2026-04-20T08:44:57.934Z</time></trkpt><trkpt lat="43.306575" lon="11.5230333"><ele>317.2</ele><time>2026-04-20T08:44:58.934Z</time></trkpt><trkpt lat="43.30668" lon="11.5230367"><ele>318.0</ele><time>2026-04-20T08:44:59.934Z</time></trkpt><trkpt lat="43.306785" lon="11.5230417"><ele>319.75</ele><time>2026-04-20T08:45:00.935Z</time></trkpt><trkpt lat="43.3068917" lon="11.5230417"><ele>321.5</ele><time>2026-04-20T08:45:01.934Z</time></trkpt><trkpt lat="43.30701" lon="11.5230483"><ele>323.25</ele><time>2026-04-20T08:45:02.934Z</time></trkpt><trkpt lat="43.3071283" lon="11.5230567"><ele>325.0</ele><time>2026-04-20T08:45:03.934Z</time></trkpt><trkpt lat="43.3072417" lon="11.5230667"><ele>325.16666666666663</ele><time>2026-04-20T08:45:04.934Z</time></trkpt><trkpt lat="43.3073483" lon="11.523085"><ele>325.3333333333333</ele><time>2026-04-20T08:45:05.934Z</time></trkpt><trkpt lat="43.3074317" lon="11.5231167"><ele>325.5</ele><time>2026-04-20T08:45:06.934Z</time></trkpt><trkpt lat="43.3075033" lon="11.5231617"><ele>325.6666666666667</ele><time>2026-04-20T08:45:07.934Z</time></trkpt><trkpt lat="43.3075717" lon="11.523215"><ele>325.83333333333337</ele><time>2026-04-20T08:45:08.934Z</time></trkpt><trkpt lat="43.30763" lon="11.523285"><ele>326.0</ele><time>2026-04-20T08:45:09.934Z</time></trkpt><trkpt lat="43.3077" lon="11.523365"><ele>326.0</ele><time>2026-04-20T08:45:10.935Z</time></trkpt><trkpt lat="43.3077633" lon="11.5234383"><ele>326.0</ele><time>2026-04-20T08:45:11.935Z</time></trkpt><trkpt lat="43.3078417" lon="11.5235117"><ele>326.0</ele><time>2026-04-20T08:45:12.934Z</time></trkpt><trkpt lat="43.3079267" lon="11.5235917"><ele>326.0</ele><time>2026-04-20T08:45:13.935Z</time></trkpt><trkpt lat="43.3080283" lon="11.5236783"><ele>326.0</ele><time>2026-04-20T08:45:14.934Z</time></trkpt><trkpt lat="43.3081317" lon="11.5237533"><ele>326.0</ele><time>2026-04-20T08:45:15.934Z</time></trkpt><trkpt lat="43.30822" lon="11.523815"><ele>326.0</ele><time>2026-04-20T08:45:16.934Z</time></trkpt><trkpt lat="43.308295" lon="11.52387"><ele>326.0</ele><time>2026-04-20T08:45:17.934Z</time></trkpt><trkpt lat="43.30837" lon="11.523915"><ele>326.0</ele><time>2026-04-20T08:45:18.934Z</time></trkpt><trkpt lat="43.30843" lon="11.5239683"><ele>326.0</ele><time>2026-04-20T08:45:19.934Z</time></trkpt><trkpt lat="43.308485" lon="11.5240333"><ele>326.0</ele><time>2026-04-20T08:45:20.935Z</time></trkpt><trkpt lat="43.308535" lon="11.5241017"><ele>326.0</ele><time>2026-04-20T08:45:21.934Z</time></trkpt><trkpt lat="43.3085717" lon="11.5241733"><ele>326.0</ele><time>2026-04-20T08:45:22.934Z</time></trkpt><trkpt lat="43.30861" lon="11.5242433"><ele>326.0</ele><time>2026-04-20T08:45:23.934Z</time></trkpt><trkpt lat="43.3086683" lon="11.5243517"><ele>326.0</ele><time>2026-04-20T08:45:25.933Z</time></trkpt><trkpt lat="43.30871" lon="11.5244483"><ele>326.0</ele><time>2026-04-20T08:45:27.933Z</time></trkpt><trkpt lat="43.3087867" lon="11.5244817"><ele>326.0</ele><time>2026-04-20T08:46:29.933Z</time></trkpt><trkpt lat="43.3088383" lon="11.524415"><ele>326.0</ele><time>2026-04-20T08:46:32.933Z</time></trkpt><trkpt lat="43.3088517" lon="11.5243267"><ele>326.0</ele><time>2026-04-20T08:46:34.933Z</time></trkpt><trkpt lat="43.30889" lon="11.524125"><ele>326.0</ele><time>2026-04-20T08:46:37.933Z</time></trkpt><trkpt lat="43.3089167" lon="11.5239683"><ele>326.0</ele><time>2026-04-20T08:46:39.933Z</time></trkpt><trkpt lat="43.30892" lon="11.5238617"><ele>326.0</ele><time>2026-04-20T08:46:40.934Z</time></trkpt><trkpt lat="43.308915" lon="11.523745"><ele>326.1666666666667</ele><time>2026-04-20T08:46:41.933Z</time></trkpt><trkpt lat="43.3088967" lon="11.523625"><ele>326.33333333333337</ele><time>2026-04-20T08:46:42.934Z</time></trkpt><trkpt lat="43.3088717" lon="11.5235167"><ele>326.5</ele><time>2026-04-20T08:46:43.934Z</time></trkpt><trkpt lat="43.30886" lon="11.5234117"><ele>326.6666666666667</ele><time>2026-04-20T08:46:44.933Z</time></trkpt><trkpt lat="43.3088633" lon="11.5233167"><ele>326.8333333333333</ele><time>2026-04-20T08:46:45.933Z</time></trkpt><trkpt lat="43.3088867" lon="11.52323"><ele>327.0</ele><time>2026-04-20T08:46:46.933Z</time></trkpt><trkpt lat="43.3089267" lon="11.52314"><ele>324.8</ele><time>2026-04-20T08:46:47.933Z</time></trkpt><trkpt lat="43.3089833" lon="11.5230517"><ele>322.6</ele><time>2026-04-20T08:46:48.933Z</time></trkpt><trkpt lat="43.309055" lon="11.52296"><ele>320.40000000000003</ele><time>2026-04-20T08:46:49.933Z</time></trkpt><trkpt lat="43.3091367" lon="11.5228717"><ele>318.20000000000005</ele><time>2026-04-20T08:46:50.934Z</time></trkpt><trkpt lat="43.3092233" lon="11.5227883"><ele>316.0</ele><time>2026-04-20T08:46:51.933Z</time></trkpt><trkpt lat="43.3093217" lon="11.52273"><ele>314.8</ele><time>2026-04-20T08:46:52.934Z</time></trkpt><trkpt lat="43.309425" lon="11.522665"><ele>313.6</ele><time>2026-04-20T08:46:53.933Z</time></trkpt><trkpt lat="43.3095233" lon="11.5225967"><ele>312.4</ele><time>2026-04-20T08:46:54.933Z</time></trkpt><trkpt lat="43.3096167" lon="11.522515"><ele>311.2</ele><time>2026-04-20T08:46:55.933Z</time></trkpt><trkpt lat="43.3097067" lon="11.5224217"><ele>310.0</ele><time>2026-04-20T08:46:56.933Z</time></trkpt><trkpt lat="43.30978" lon="11.5223117"><ele>309.4</ele><time>2026-04-20T08:46:57.933Z</time></trkpt><trkpt lat="43.3098367" lon="11.5221833"><ele>308.8</ele><time>2026-04-20T08:46:58.934Z</time></trkpt><trkpt lat="43.3098733" lon="11.522035"><ele>308.2</ele><time>2026-04-20T08:46:59.934Z</time></trkpt><trkpt lat="43.3098817" lon="11.5218883"><ele>307.6</ele><time>2026-04-20T08:47:00.934Z</time></trkpt><trkpt lat="43.3098833" lon="11.521735"><ele>307.0</ele><time>2026-04-20T08:47:01.933Z</time></trkpt><trkpt lat="43.309855" lon="11.5215883"><ele>306.6</ele><time>2026-04-20T08:47:02.933Z</time></trkpt><trkpt lat="43.30981" lon="11.5214517"><ele>306.2</ele><time>2026-04-20T08:47:03.933Z</time></trkpt><trkpt lat="43.309765" lon="11.5213167"><ele>305.8</ele><time>2026-04-20T08:47:04.933Z</time></trkpt><trkpt lat="43.309735" lon="11.5211717"><ele>305.4</ele><time>2026-04-20T08:47:05.933Z</time></trkpt><trkpt lat="43.309715" lon="11.5210133"><ele>305.0</ele><time>2026-04-20T08:47:06.934Z</time></trkpt><trkpt lat="43.309695" lon="11.520855"><ele>302.75</ele><time>2026-04-20T08:47:07.933Z</time></trkpt><trkpt lat="43.3096867" lon="11.5206867"><ele>300.5</ele><time>2026-04-20T08:47:08.933Z</time></trkpt><trkpt lat="43.3096733" lon="11.5205283"><ele>298.25</ele><time>2026-04-20T08:47:09.933Z</time></trkpt><trkpt lat="43.3096667" lon="11.5203667"><ele>296.0</ele><time>2026-04-20T08:47:10.933Z</time></trkpt><trkpt lat="43.3096617" lon="11.52021"><ele>296.0</ele><time>2026-04-20T08:47:11.933Z</time></trkpt><trkpt lat="43.3096433" lon="11.5200533"><ele>296.0</ele><time>2026-04-20T08:47:12.934Z</time></trkpt><trkpt lat="43.30964" lon="11.5199067"><ele>296.0</ele><time>2026-04-20T08:47:13.933Z</time></trkpt><trkpt lat="43.309655" lon="11.5197733"><ele>296.0</ele><time>2026-04-20T08:47:14.933Z</time></trkpt><trkpt lat="43.309685" lon="11.519625"><ele>296.0</ele><time>2026-04-20T08:47:15.933Z</time></trkpt><trkpt lat="43.3097267" lon="11.5194833"><ele>296.0</ele><time>2026-04-20T08:47:16.933Z</time></trkpt><trkpt lat="43.3097833" lon="11.519345"><ele>296.0</ele><time>2026-04-20T08:47:17.933Z</time></trkpt><trkpt lat="43.3098417" lon="11.5192033"><ele>296.0</ele><time>2026-04-20T08:47:18.933Z</time></trkpt><trkpt lat="43.309895" lon="11.5190567"><ele>296.0</ele><time>2026-04-20T08:47:19.934Z</time></trkpt><trkpt lat="43.309925" lon="11.5189017"><ele>296.0</ele><time>2026-04-20T08:47:20.933Z</time></trkpt><trkpt lat="43.3099367" lon="11.5187483"><ele>296.0</ele><time>2026-04-20T08:47:21.933Z</time></trkpt><trkpt lat="43.3099317" lon="11.5185883"><ele>296.0</ele><time>2026-04-20T08:47:22.933Z</time></trkpt><trkpt lat="43.3099133" lon="11.5184267"><ele>296.0</ele><time>2026-04-20T08:47:23.933Z</time></trkpt><trkpt lat="43.3098717" lon="11.51828"><ele>295.75</ele><time>2026-04-20T08:47:24.933Z</time></trkpt><trkpt lat="43.3098167" lon="11.5181317"><ele>295.5</ele><time>2026-04-20T08:47:25.933Z</time></trkpt><trkpt lat="43.3097633" lon="11.5179917"><ele>295.25</ele><time>2026-04-20T08:47:26.934Z</time></trkpt><trkpt lat="43.3096917" lon="11.5178617"><ele>295.0</ele><time>2026-04-20T08:47:27.933Z</time></trkpt><trkpt lat="43.30962" lon="11.5177467"><ele>293.75</ele><time>2026-04-20T08:47:28.933Z</time></trkpt><trkpt lat="43.30954" lon="11.5176317"><ele>292.5</ele><time>2026-04-20T08:47:29.933Z</time></trkpt><trkpt lat="43.309455" lon="11.5175283"><ele>291.25</ele><time>2026-04-20T08:47:30.933Z</time></trkpt><trkpt lat="43.3093633" lon="11.517415"><ele>290.0</ele><time>2026-04-20T08:47:31.934Z</time></trkpt><trkpt lat="43.3092817" lon="11.517305"><ele>290.0</ele><time>2026-04-20T08:47:32.933Z</time></trkpt><trkpt lat="43.3092117" lon="11.517185"><ele>290.0</ele><time>2026-04-20T08:47:33.933Z</time></trkpt><trkpt lat="43.3091733" lon="11.517045"><ele>290.0</ele><time>2026-04-20T08:47:34.933Z</time></trkpt><trkpt lat="43.3091583" lon="11.5168983"><ele>290.0</ele><time>2026-04-20T08:47:35.933Z</time></trkpt><trkpt lat="43.30917" lon="11.5167483"><ele>290.0</ele><time>2026-04-20T08:47:36.933Z</time></trkpt><trkpt lat="43.3092117" lon="11.51662"><ele>291.0</ele><time>2026-04-20T08:47:37.934Z</time></trkpt><trkpt lat="43.30927" lon="11.5165167"><ele>292.0</ele><time>2026-04-20T08:47:38.933Z</time></trkpt><trkpt lat="43.309355" lon="11.5164117"><ele>293.0</ele><time>2026-04-20T08:47:39.933Z</time></trkpt><trkpt lat="43.309455" lon="11.516305"><ele>294.0</ele><time>2026-04-20T08:47:40.933Z</time></trkpt><trkpt lat="43.3095633" lon="11.5161567"><ele>295.0</ele><time>2026-04-20T08:47:41.933Z</time></trkpt><trkpt lat="43.30967" lon="11.5160033"><ele>296.0</ele><time>2026-04-20T08:47:42.933Z</time></trkpt><trkpt lat="43.3097833" lon="11.5158717"><ele>297.0</ele><time>2026-04-20T08:47:43.933Z</time></trkpt><trkpt lat="43.309885" lon="11.51574"><ele>298.0</ele><time>2026-04-20T08:47:44.933Z</time></trkpt><trkpt lat="43.3099833" lon="11.515625"><ele>295.75</ele><time>2026-04-20T08:47:45.934Z</time></trkpt><trkpt lat="43.3100867" lon="11.515535"><ele>293.5</ele><time>2026-04-20T08:47:46.934Z</time></trkpt><trkpt lat="43.3102" lon="11.5154517"><ele>291.25</ele><time>2026-04-20T08:47:47.933Z</time></trkpt><trkpt lat="43.3103267" lon="11.51538"><ele>289.0</ele><time>2026-04-20T08:47:48.933Z</time></trkpt><trkpt lat="43.3104533" lon="11.5153217"><ele>287.5</ele><time>2026-04-20T08:47:49.933Z</time></trkpt><trkpt lat="43.3105867" lon="11.5152733"><ele>286.0</ele><time>2026-04-20T08:47:50.933Z</time></trkpt><trkpt lat="43.310725" lon="11.51523"><ele>284.5</ele><time>2026-04-20T08:47:51.933Z</time></trkpt><trkpt lat="43.3108617" lon="11.5152017"><ele>283.0</ele><time>2026-04-20T08:47:52.933Z</time></trkpt><trkpt lat="43.3109917" lon="11.51517"><ele>283.0</ele><time>2026-04-20T08:47:53.933Z</time></trkpt><trkpt lat="43.31113" lon="11.51515"><ele>283.0</ele><time>2026-04-20T08:47:54.933Z</time></trkpt><trkpt lat="43.3112667" lon="11.5151417"><ele>283.0</ele><time>2026-04-20T08:47:55.933Z</time></trkpt><trkpt lat="43.311395" lon="11.5151417"><ele>283.0</ele><time>2026-04-20T08:47:56.934Z</time></trkpt><trkpt lat="43.311525" lon="11.51515"><ele>285.0</ele><time>2026-04-20T08:47:57.933Z</time></trkpt><trkpt lat="43.3116483" lon="11.5151533"><ele>287.0</ele><time>2026-04-20T08:47:58.933Z</time></trkpt><trkpt lat="43.3117683" lon="11.5151417"><ele>289.0</ele><time>2026-04-20T08:47:59.933Z</time></trkpt><trkpt lat="43.3118817" lon="11.5151"><ele>291.0</ele><time>2026-04-20T08:48:00.933Z</time></trkpt><trkpt lat="43.3119867" lon="11.51503"><ele>291.0</ele><time>2026-04-20T08:48:01.933Z</time></trkpt><trkpt lat="43.31208" lon="11.5149267"><ele>291.0</ele><time>2026-04-20T08:48:02.933Z</time></trkpt><trkpt lat="43.3121517" lon="11.5148083"><ele>291.0</ele><time>2026-04-20T08:48:03.933Z</time></trkpt><trkpt lat="43.3122167" lon="11.51467"><ele>291.0</ele><time>2026-04-20T08:48:04.933Z</time></trkpt><trkpt lat="43.3122767" lon="11.5145333"><ele>292.5</ele><time>2026-04-20T08:48:05.934Z</time></trkpt><trkpt lat="43.3123433" lon="11.5143883"><ele>294.0</ele><time>2026-04-20T08:48:06.933Z</time></trkpt><trkpt lat="43.3124217" lon="11.5142667"><ele>295.5</ele><time>2026-04-20T08:48:07.933Z</time></trkpt><trkpt lat="43.3125117" lon="11.5141617"><ele>297.0</ele><time>2026-04-20T08:48:08.933Z</time></trkpt><trkpt lat="43.312615" lon="11.5140583"><ele>297.0</ele><time>2026-04-20T08:48:09.933Z</time></trkpt><trkpt lat="43.3127283" lon="11.51397"><ele>297.0</ele><time>2026-04-20T08:48:10.933Z</time></trkpt><trkpt lat="43.3128483" lon="11.5138933"><ele>297.0</ele><time>2026-04-20T08:48:11.934Z</time></trkpt><trkpt lat="43.3129733" lon="11.5138433"><ele>297.0</ele><time>2026-04-20T08:48:12.934Z</time></trkpt><trkpt lat="43.3130967" lon="11.513825"><ele>297.5</ele><time>2026-04-20T08:48:13.933Z</time></trkpt><trkpt lat="43.3132183" lon="11.5138317"><ele>298.0</ele><time>2026-04-20T08:48:14.933Z</time></trkpt><trkpt lat="43.3133383" lon="11.513875"><ele>298.5</ele><time>2026-04-20T08:48:15.933Z</time></trkpt><trkpt lat="43.3134567" lon="11.51393"><ele>299.0</ele><time>2026-04-20T08:48:16.933Z</time></trkpt><trkpt lat="43.31357" lon="11.5140167"><ele>299.0</ele><time>2026-04-20T08:48:17.933Z</time></trkpt><trkpt lat="43.3136833" lon="11.5141117"><ele>299.0</ele><time>2026-04-20T08:48:18.933Z</time></trkpt><trkpt lat="43.3137933" lon="11.514215"><ele>299.0</ele><time>2026-04-20T08:48:19.934Z</time></trkpt><trkpt lat="43.3138917" lon="11.5143233"><ele>299.0</ele><time>2026-04-20T08:48:20.933Z</time></trkpt><trkpt lat="43.3139783" lon="11.51444"><ele>299.0</ele><time>2026-04-20T08:48:21.933Z</time></trkpt><trkpt lat="43.31406" lon="11.5145417"><ele>299.0</ele><time>2026-04-20T08:48:22.933Z</time></trkpt><trkpt lat="43.3141433" lon="11.514615"><ele>299.0</ele><time>2026-04-20T08:48:23.934Z</time></trkpt><trkpt lat="43.3142417" lon="11.5146517"><ele>299.0</ele><time>2026-04-20T08:48:24.934Z</time></trkpt><trkpt lat="43.31433" lon="11.5146417"><ele>299.0</ele><time>2026-04-20T08:48:25.933Z</time></trkpt><trkpt lat="43.3144183" lon="11.5146017"><ele>299.2</ele><time>2026-04-20T08:48:26.933Z</time></trkpt><trkpt lat="43.3145067" lon="11.5145333"><ele>299.4</ele><time>2026-04-20T08:48:27.933Z</time></trkpt><trkpt lat="43.31458" lon="11.5144317"><ele>299.6</ele><time>2026-04-20T08:48:28.933Z</time></trkpt><trkpt lat="43.3146417" lon="11.514315"><ele>299.8</ele><time>2026-04-20T08:48:29.934Z</time></trkpt><trkpt lat="43.314695" lon="11.51419"><ele>300.0</ele><time>2026-04-20T08:48:30.934Z</time></trkpt><trkpt lat="43.3147483" lon="11.5140767"><ele>300.8</ele><time>2026-04-20T08:48:31.933Z</time></trkpt><trkpt lat="43.31481" lon="11.51399"><ele>301.6</ele><time>2026-04-20T08:48:32.933Z</time></trkpt><trkpt lat="43.3148983" lon="11.51391"><ele>302.4</ele><time>2026-04-20T08:48:33.934Z</time></trkpt><trkpt lat="43.315" lon="11.51387"><ele>303.2</ele><time>2026-04-20T08:48:34.933Z</time></trkpt><trkpt lat="43.3151183" lon="11.5138533"><ele>304.0</ele><time>2026-04-20T08:48:35.933Z</time></trkpt><trkpt lat="43.3152317" lon="11.513855"><ele>304.0</ele><time>2026-04-20T08:48:36.933Z</time></trkpt><trkpt lat="43.3153383" lon="11.51387"><ele>304.0</ele><time>2026-04-20T08:48:37.933Z</time></trkpt><trkpt lat="43.3154367" lon="11.5139067"><ele>304.0</ele><time>2026-04-20T08:48:38.934Z</time></trkpt><trkpt lat="43.3155117" lon="11.513975"><ele>304.0</ele><time>2026-04-20T08:48:39.933Z</time></trkpt><trkpt lat="43.31556" lon="11.51407"><ele>304.0</ele><time>2026-04-20T08:48:40.934Z</time></trkpt><trkpt lat="43.3155767" lon="11.5141867"><ele>302.75</ele><time>2026-04-20T08:48:41.933Z</time></trkpt><trkpt lat="43.315575" lon="11.5143283"><ele>301.5</ele><time>2026-04-20T08:48:42.934Z</time></trkpt><trkpt lat="43.3155833" lon="11.5144967"><ele>300.25</ele><time>2026-04-20T08:48:43.933Z</time></trkpt><trkpt lat="43.3156067" lon="11.5146833"><ele>299.0</ele><time>2026-04-20T08:48:44.933Z</time></trkpt><trkpt lat="43.3156533" lon="11.5148617"><ele>299.0</ele><time>2026-04-20T08:48:45.933Z</time></trkpt><trkpt lat="43.315725" lon="11.515"><ele>299.0</ele><time>2026-04-20T08:48:46.933Z</time></trkpt><trkpt lat="43.315815" lon="11.5151167"><ele>299.0</ele><time>2026-04-20T08:48:47.933Z</time></trkpt><trkpt lat="43.315925" lon="11.5152"><ele>299.0</ele><time>2026-04-20T08:48:48.933Z</time></trkpt><trkpt lat="43.3160433" lon="11.5152517"><ele>299.0</ele><time>2026-04-20T08:48:49.933Z</time></trkpt><trkpt lat="43.31617" lon="11.5152733"><ele>299.0</ele><time>2026-04-20T08:48:50.933Z</time></trkpt><trkpt lat="43.3162933" lon="11.5152567"><ele>299.0</ele><time>2026-04-20T08:48:51.934Z</time></trkpt><trkpt lat="43.316415" lon="11.5152217"><ele>299.0</ele><time>2026-04-20T08:48:52.933Z</time></trkpt><trkpt lat="43.3165433" lon="11.5151783"><ele>299.25</ele><time>2026-04-20T08:48:53.933Z</time></trkpt><trkpt lat="43.3166783" lon="11.5151167"><ele>299.5</ele><time>2026-04-20T08:48:54.933Z</time></trkpt><trkpt lat="43.3168167" lon="11.5150617"><ele>299.75</ele><time>2026-04-20T08:48:55.933Z</time></trkpt><trkpt lat="43.3169467" lon="11.514995"><ele>300.0</ele><time>2026-04-20T08:48:56.934Z</time></trkpt><trkpt lat="43.3170583" lon="11.5149367"><ele>300.0</ele><time>2026-04-20T08:48:57.934Z</time></trkpt><trkpt lat="43.3171733" lon="11.5148883"><ele>300.0</ele><time>2026-04-20T08:48:58.934Z</time></trkpt><trkpt lat="43.31729" lon="11.5148383"><ele>300.0</ele><time>2026-04-20T08:48:59.933Z</time></trkpt><trkpt lat="43.3173967" lon="11.51477"><ele>300.0</ele><time>2026-04-20T08:49:00.933Z</time></trkpt><trkpt lat="43.3174933" lon="11.51466"><ele>300.25</ele><time>2026-04-20T08:49:01.933Z</time></trkpt><trkpt lat="43.317565" lon="11.5145283"><ele>300.5</ele><time>2026-04-20T08:49:02.933Z</time></trkpt><trkpt lat="43.3176233" lon="11.5143717"><ele>300.75</ele><time>2026-04-20T08:49:03.933Z</time></trkpt><trkpt lat="43.31766" lon="11.5142133"><ele>301.0</ele><time>2026-04-20T08:49:04.934Z</time></trkpt><trkpt lat="43.3176933" lon="11.5140533"><ele>301.0</ele><time>2026-04-20T08:49:05.933Z</time></trkpt><trkpt lat="43.3177317" lon="11.5138933"><ele>301.0</ele><time>2026-04-20T08:49:06.933Z</time></trkpt><trkpt lat="43.31778" lon="11.513735"><ele>301.0</ele><time>2026-04-20T08:49:07.934Z</time></trkpt><trkpt lat="43.3178383" lon="11.5136"><ele>301.0</ele><time>2026-04-20T08:49:08.934Z</time></trkpt><trkpt lat="43.3179217" lon="11.5135033"><ele>300.25</ele><time>2026-04-20T08:49:09.933Z</time></trkpt><trkpt lat="43.3180233" lon="11.5134317"><ele>299.5</ele><time>2026-04-20T08:49:10.933Z</time></trkpt><trkpt lat="43.3181367" lon="11.5133867"><ele>298.75</ele><time>2026-04-20T08:49:11.934Z</time></trkpt><trkpt lat="43.3182567" lon="11.5133817"><ele>298.0</ele><time>2026-04-20T08:49:12.933Z</time></trkpt><trkpt lat="43.31837" lon="11.5133917"><ele>298.0</ele><time>2026-04-20T08:49:13.934Z</time></trkpt><trkpt lat="43.31848" lon="11.513425"><ele>298.0</ele><time>2026-04-20T08:49:14.933Z</time></trkpt><trkpt lat="43.3185683" lon="11.5134817"><ele>298.0</ele><time>2026-04-20T08:49:15.933Z</time></trkpt><trkpt lat="43.3186433" lon="11.5135583"><ele>298.0</ele><time>2026-04-20T08:49:16.933Z</time></trkpt><trkpt lat="43.318705" lon="11.513675"><ele>298.0</ele><time>2026-04-20T08:49:17.934Z</time></trkpt><trkpt lat="43.3187417" lon="11.513815"><ele>298.5</ele><time>2026-04-20T08:49:18.933Z</time></trkpt><trkpt lat="43.31875" lon="11.5139683"><ele>299.0</ele><time>2026-04-20T08:49:19.933Z</time></trkpt><trkpt lat="43.3187333" lon="11.5141233"><ele>299.5</ele><time>2026-04-20T08:49:20.933Z</time></trkpt><trkpt lat="43.3186917" lon="11.5142633"><ele>300.0</ele><time>2026-04-20T08:49:21.933Z</time></trkpt><trkpt lat="43.3186117" lon="11.5143933"><ele>300.0</ele><time>2026-04-20T08:49:22.933Z</time></trkpt><trkpt lat="43.3185317" lon="11.5144983"><ele>300.0</ele><time>2026-04-20T08:49:23.933Z</time></trkpt><trkpt lat="43.3184483" lon="11.5145983"><ele>300.0</ele><time>2026-04-20T08:49:24.933Z</time></trkpt><trkpt lat="43.3183867" lon="11.514695"><ele>300.0</ele><time>2026-04-20T08:49:25.934Z</time></trkpt><trkpt lat="43.31835" lon="11.5147983"><ele>300.0</ele><time>2026-04-20T08:49:26.933Z</time></trkpt><trkpt lat="43.3183333" lon="11.5148983"><ele>299.6</ele><time>2026-04-20T08:49:27.934Z</time></trkpt><trkpt lat="43.3183733" lon="11.5150417"><ele>299.2</ele><time>2026-04-20T08:49:29.933Z</time></trkpt><trkpt lat="43.318465" lon="11.5150483"><ele>298.8</ele><time>2026-04-20T08:49:31.933Z</time></trkpt><trkpt lat="43.3185583" lon="11.5149567"><ele>298.4</ele><time>2026-04-20T08:49:33.934Z</time></trkpt><trkpt lat="43.3186067" lon="11.5148733"><ele>298.0</ele><time>2026-04-20T08:49:34.933Z</time></trkpt><trkpt lat="43.3186583" lon="11.5147717"><ele>298.0</ele><time>2026-04-20T08:49:35.933Z</time></trkpt><trkpt lat="43.31872" lon="11.51467"><ele>298.0</ele><time>2026-04-20T08:49:36.933Z</time></trkpt><trkpt lat="43.3187983" lon="11.5145467"><ele>298.0</ele><time>2026-04-20T08:49:37.934Z</time></trkpt><trkpt lat="43.3188717" lon="11.5144267"><ele>298.0</ele><time>2026-04-20T08:49:38.933Z</time></trkpt><trkpt lat="43.3189333" lon="11.5142967"><ele>298.0</ele><time>2026-04-20T08:49:39.933Z</time></trkpt><trkpt lat="43.3189783" lon="11.514175"><ele>297.0</ele><time>2026-04-20T08:49:40.934Z</time></trkpt><trkpt lat="43.319" lon="11.5140617"><ele>296.0</ele><time>2026-04-20T08:49:41.933Z</time></trkpt><trkpt lat="43.3190033" lon="11.51394"><ele>295.0</ele><time>2026-04-20T08:49:42.933Z</time></trkpt><trkpt lat="43.3189967" lon="11.5137967"><ele>294.0</ele><time>2026-04-20T08:49:43.933Z</time></trkpt><trkpt lat="43.3189933" lon="11.5136517"><ele>293.0</ele><time>2026-04-20T08:49:44.933Z</time></trkpt><trkpt lat="43.318995" lon="11.5135033"><ele>292.4</ele><time>2026-04-20T08:49:45.934Z</time></trkpt><trkpt lat="43.3190133" lon="11.5133567"><ele>291.8</ele><time>2026-04-20T08:49:46.934Z</time></trkpt><trkpt lat="43.3190517" lon="11.51322"><ele>291.2</ele><time>2026-04-20T08:49:47.933Z</time></trkpt><trkpt lat="43.3191117" lon="11.51309"><ele>290.6</ele><time>2026-04-20T08:49:48.934Z</time></trkpt><trkpt lat="43.319165" lon="11.5129467"><ele>290.0</ele><time>2026-04-20T08:49:49.933Z</time></trkpt><trkpt lat="43.3192167" lon="11.5127917"><ele>287.75</ele><time>2026-04-20T08:49:50.933Z</time></trkpt><trkpt lat="43.3192517" lon="11.512625"><ele>285.5</ele><time>2026-04-20T08:49:51.933Z</time></trkpt><trkpt lat="43.31926" lon="11.5124533"><ele>283.25</ele><time>2026-04-20T08:49:52.933Z</time></trkpt><trkpt lat="43.31926" lon="11.5122767"><ele>281.0</ele><time>2026-04-20T08:49:53.934Z</time></trkpt><trkpt lat="43.3192483" lon="11.5121167"><ele>279.0</ele><time>2026-04-20T08:49:54.933Z</time></trkpt><trkpt lat="43.3192317" lon="11.51196"><ele>277.0</ele><time>2026-04-20T08:49:55.933Z</time></trkpt><trkpt lat="43.31921" lon="11.5117983"><ele>275.0</ele><time>2026-04-20T08:49:56.933Z</time></trkpt><trkpt lat="43.3191883" lon="11.5116467"><ele>273.0</ele><time>2026-04-20T08:49:57.933Z</time></trkpt><trkpt lat="43.319165" lon="11.5114917"><ele>273.0</ele><time>2026-04-20T08:49:58.933Z</time></trkpt><trkpt lat="43.3191417" lon="11.511335"><ele>273.0</ele><time>2026-04-20T08:49:59.933Z</time></trkpt><trkpt lat="43.3191267" lon="11.5111767"><ele>273.0</ele><time>2026-04-20T08:50:00.933Z</time></trkpt><trkpt lat="43.3191267" lon="11.5110133"><ele>273.0</ele><time>2026-04-20T08:50:01.933Z</time></trkpt><trkpt lat="43.3191383" lon="11.510845"><ele>270.75</ele><time>2026-04-20T08:50:02.933Z</time></trkpt><trkpt lat="43.319165" lon="11.5106833"><ele>268.5</ele><time>2026-04-20T08:50:03.933Z</time></trkpt><trkpt lat="43.3192133" lon="11.5105433"><ele>266.25</ele><time>2026-04-20T08:50:04.934Z</time></trkpt><trkpt lat="43.3192767" lon="11.5104133"><ele>264.0</ele><time>2026-04-20T08:50:05.932Z</time></trkpt><trkpt lat="43.3193467" lon="11.5102867"><ele>261.5</ele><time>2026-04-20T08:50:06.933Z</time></trkpt><trkpt lat="43.3194267" lon="11.5101667"><ele>259.0</ele><time>2026-04-20T08:50:07.933Z</time></trkpt><trkpt lat="43.319505" lon="11.510045"><ele>256.5</ele><time>2026-04-20T08:50:08.932Z</time></trkpt><trkpt lat="43.31958" lon="11.50992"><ele>254.0</ele><time>2026-04-20T08:50:09.932Z</time></trkpt><trkpt lat="43.3196467" lon="11.5097967"><ele>254.0</ele><time>2026-04-20T08:50:10.932Z</time></trkpt><trkpt lat="43.3197083" lon="11.5096583"><ele>254.0</ele><time>2026-04-20T08:50:11.932Z</time></trkpt><trkpt lat="43.3197567" lon="11.5095083"><ele>254.0</ele><time>2026-04-20T08:50:12.932Z</time></trkpt><trkpt lat="43.3197967" lon="11.5093567"><ele>254.0</ele><time>2026-04-20T08:50:13.932Z</time></trkpt><trkpt lat="43.3198267" lon="11.5092067"><ele>252.25</ele><time>2026-04-20T08:50:14.932Z</time></trkpt><trkpt lat="43.3198483" lon="11.5090533"><ele>250.5</ele><time>2026-04-20T08:50:15.933Z</time></trkpt><trkpt lat="43.3198633" lon="11.508895"><ele>248.75</ele><time>2026-04-20T08:50:16.932Z</time></trkpt><trkpt lat="43.319875" lon="11.5087367"><ele>247.0</ele><time>2026-04-20T08:50:17.932Z</time></trkpt><trkpt lat="43.3198733" lon="11.5085883"><ele>247.0</ele><time>2026-04-20T08:50:18.932Z</time></trkpt><trkpt lat="43.3198617" lon="11.5084367"><ele>247.0</ele><time>2026-04-20T08:50:19.932Z</time></trkpt><trkpt lat="43.3198433" lon="11.5082917"><ele>247.0</ele><time>2026-04-20T08:50:20.932Z</time></trkpt><trkpt lat="43.3198233" lon="11.50816"><ele>247.0</ele><time>2026-04-20T08:50:21.932Z</time></trkpt><trkpt lat="43.3198033" lon="11.5080317"><ele>247.0</ele><time>2026-04-20T08:50:22.932Z</time></trkpt><trkpt lat="43.3197933" lon="11.5078967"><ele>246.6</ele><time>2026-04-20T08:50:23.932Z</time></trkpt><trkpt lat="43.3197817" lon="11.50776"><ele>246.2</ele><time>2026-04-20T08:50:24.933Z</time></trkpt><trkpt lat="43.319765" lon="11.5076133"><ele>245.8</ele><time>2026-04-20T08:50:25.932Z</time></trkpt><trkpt lat="43.319745" lon="11.5074617"><ele>245.4</ele><time>2026-04-20T08:50:26.932Z</time></trkpt><trkpt lat="43.3197267" lon="11.507305"><ele>245.0</ele><time>2026-04-20T08:50:27.932Z</time></trkpt><trkpt lat="43.3197067" lon="11.50714"><ele>248.5</ele><time>2026-04-20T08:50:28.932Z</time></trkpt><trkpt lat="43.3196933" lon="11.5069617"><ele>252.0</ele><time>2026-04-20T08:50:29.932Z</time></trkpt><trkpt lat="43.319675" lon="11.50678"><ele>255.5</ele><time>2026-04-20T08:50:30.932Z</time></trkpt><trkpt lat="43.3196617" lon="11.5065967"><ele>259.0</ele><time>2026-04-20T08:50:31.932Z</time></trkpt><trkpt lat="43.3196633" lon="11.5064283"><ele>259.0</ele><time>2026-04-20T08:50:32.932Z</time></trkpt><trkpt lat="43.3196933" lon="11.50628"><ele>259.0</ele><time>2026-04-20T08:50:33.932Z</time></trkpt><trkpt lat="43.319755" lon="11.50616"><ele>259.0</ele><time>2026-04-20T08:50:34.932Z</time></trkpt><trkpt lat="43.3198483" lon="11.5060733"><ele>259.0</ele><time>2026-04-20T08:50:35.932Z</time></trkpt><trkpt lat="43.3199517" lon="11.50601"><ele>259.0</ele><time>2026-04-20T08:50:36.932Z</time></trkpt><trkpt lat="43.3200683" lon="11.5059683"><ele>256.0</ele><time>2026-04-20T08:50:37.932Z</time></trkpt><trkpt lat="43.3201883" lon="11.50591"><ele>253.0</ele><time>2026-04-20T08:50:38.933Z</time></trkpt><trkpt lat="43.3203317" lon="11.5058517"><ele>250.0</ele><time>2026-04-20T08:50:39.933Z</time></trkpt><trkpt lat="43.3204867" lon="11.5057917"><ele>247.0</ele><time>2026-04-20T08:50:40.932Z</time></trkpt><trkpt lat="43.320635" lon="11.5057333"><ele>247.0</ele><time>2026-04-20T08:50:41.932Z</time></trkpt><trkpt lat="43.3207833" lon="11.5056867"><ele>247.0</ele><time>2026-04-20T08:50:42.932Z</time></trkpt><trkpt lat="43.3209317" lon="11.5056617"><ele>247.0</ele><time>2026-04-20T08:50:43.933Z</time></trkpt><trkpt lat="43.321075" lon="11.5056717"><ele>247.0</ele><time>2026-04-20T08:50:44.932Z</time></trkpt><trkpt lat="43.3212217" lon="11.5057183"><ele>247.0</ele><time>2026-04-20T08:50:45.932Z</time></trkpt><trkpt lat="43.321355" lon="11.5058017"><ele>247.0</ele><time>2026-04-20T08:50:46.932Z</time></trkpt><trkpt lat="43.3214833" lon="11.505925"><ele>247.0</ele><time>2026-04-20T08:50:47.932Z</time></trkpt><trkpt lat="43.3216067" lon="11.5060667"><ele>249.66666666666666</ele><time>2026-04-20T08:50:48.932Z</time></trkpt><trkpt lat="43.3217317" lon="11.506235"><ele>252.33333333333331</ele><time>2026-04-20T08:50:49.932Z</time></trkpt><trkpt lat="43.3218433" lon="11.50641"><ele>255.0</ele><time>2026-04-20T08:50:50.932Z</time></trkpt><trkpt lat="43.32196" lon="11.506585"><ele>255.0</ele><time>2026-04-20T08:50:51.932Z</time></trkpt><trkpt lat="43.3220767" lon="11.50677"><ele>255.0</ele><time>2026-04-20T08:50:52.932Z</time></trkpt><trkpt lat="43.3221983" lon="11.5069567"><ele>255.0</ele><time>2026-04-20T08:50:53.932Z</time></trkpt><trkpt lat="43.3223283" lon="11.5071417"><ele>259.6666666666667</ele><time>2026-04-20T08:50:54.932Z</time></trkpt><trkpt lat="43.3224533" lon="11.5073217"><ele>264.33333333333337</ele><time>2026-04-20T08:50:55.932Z</time></trkpt><trkpt lat="43.32257" lon="11.5074717"><ele>269.0</ele><time>2026-04-20T08:50:56.932Z</time></trkpt><trkpt lat="43.3226867" lon="11.50757"><ele>269.0</ele><time>2026-04-20T08:50:57.933Z</time></trkpt><trkpt lat="43.322825" lon="11.5076267"><ele>269.0</ele><time>2026-04-20T08:50:58.932Z</time></trkpt><trkpt lat="43.3229833" lon="11.5076517"><ele>269.0</ele><time>2026-04-20T08:50:59.932Z</time></trkpt><trkpt lat="43.3231483" lon="11.5076617"><ele>271.0</ele><time>2026-04-20T08:51:00.932Z</time></trkpt><trkpt lat="43.3233167" lon="11.507665"><ele>273.0</ele><time>2026-04-20T08:51:01.932Z</time></trkpt><trkpt lat="43.3234833" lon="11.50766"><ele>275.0</ele><time>2026-04-20T08:51:02.932Z</time></trkpt><trkpt lat="43.3236517" lon="11.5076867"><ele>275.0</ele><time>2026-04-20T08:51:03.932Z</time></trkpt><trkpt lat="43.323805" lon="11.50776"><ele>275.0</ele><time>2026-04-20T08:51:04.932Z</time></trkpt><trkpt lat="43.323935" lon="11.5078767"><ele>275.0</ele><time>2026-04-20T08:51:05.933Z</time></trkpt><trkpt lat="43.3240467" lon="11.50804"><ele>278.0</ele><time>2026-04-20T08:51:06.932Z</time></trkpt><trkpt lat="43.3241367" lon="11.5082283"><ele>281.0</ele><time>2026-04-20T08:51:07.933Z</time></trkpt><trkpt lat="43.324215" lon="11.50844"><ele>284.0</ele><time>2026-04-20T08:51:08.932Z</time></trkpt><trkpt lat="43.3243033" lon="11.508655"><ele>286.6666666666667</ele><time>2026-04-20T08:51:09.932Z</time></trkpt><trkpt lat="43.324395" lon="11.5088717"><ele>289.3333333333333</ele><time>2026-04-20T08:51:10.933Z</time></trkpt><trkpt lat="43.32448" lon="11.5090733"><ele>292.0</ele><time>2026-04-20T08:51:11.932Z</time></trkpt><trkpt lat="43.3245717" lon="11.5092583"><ele>292.0</ele><time>2026-04-20T08:51:12.932Z</time></trkpt><trkpt lat="43.3246833" lon="11.5093833"><ele>292.0</ele><time>2026-04-20T08:51:13.932Z</time></trkpt><trkpt lat="43.3248067" lon="11.5094667"><ele>292.0</ele><time>2026-04-20T08:51:14.932Z</time></trkpt><trkpt lat="43.3249333" lon="11.50952"><ele>292.0</ele><time>2026-04-20T08:51:15.932Z</time></trkpt><trkpt lat="43.3250783" lon="11.5095217"><ele>291.3333333333333</ele><time>2026-04-20T08:51:16.932Z</time></trkpt><trkpt lat="43.3252383" lon="11.50949"><ele>290.6666666666667</ele><time>2026-04-20T08:51:17.932Z</time></trkpt><trkpt lat="43.3253983" lon="11.5094283"><ele>290.0</ele><time>2026-04-20T08:51:18.932Z</time></trkpt><trkpt lat="43.3255667" lon="11.5093517"><ele>290.0</ele><time>2026-04-20T08:51:19.932Z</time></trkpt><trkpt lat="43.3257467" lon="11.5092617"><ele>290.0</ele><time>2026-04-20T08:51:20.933Z</time></trkpt><trkpt lat="43.325925" lon="11.5091683"><ele>290.0</ele><time>2026-04-20T08:51:21.932Z</time></trkpt><trkpt lat="43.3261067" lon="11.5090833"><ele>290.0</ele><time>2026-04-20T08:51:22.932Z</time></trkpt><trkpt lat="43.3262983" lon="11.50899"><ele>290.0</ele><time>2026-04-20T08:51:23.932Z</time></trkpt><trkpt lat="43.3264883" lon="11.50889"><ele>290.0</ele><time>2026-04-20T08:51:24.932Z</time></trkpt><trkpt lat="43.3266767" lon="11.5087867"><ele>291.6666666666667</ele><time>2026-04-20T08:51:25.932Z</time></trkpt><trkpt lat="43.3268633" lon="11.508675"><ele>293.3333333333333</ele><time>2026-04-20T08:51:26.932Z</time></trkpt><trkpt lat="43.327065" lon="11.5085467"><ele>295.0</ele><time>2026-04-20T08:51:27.932Z</time></trkpt><trkpt lat="43.327265" lon="11.5084283"><ele>296.3333333333333</ele><time>2026-04-20T08:51:28.932Z</time></trkpt><trkpt lat="43.3274633" lon="11.508305"><ele>297.6666666666667</ele><time>2026-04-20T08:51:29.932Z</time></trkpt><trkpt lat="43.3276467" lon="11.508195"><ele>299.0</ele><time>2026-04-20T08:51:30.932Z</time></trkpt><trkpt lat="43.3278167" lon="11.5080867"><ele>299.0</ele><time>2026-04-20T08:51:31.932Z</time></trkpt><trkpt lat="43.3279883" lon="11.5079767"><ele>299.0</ele><time>2026-04-20T08:51:32.932Z</time></trkpt><trkpt lat="43.3281567" lon="11.507875"><ele>299.0</ele><time>2026-04-20T08:51:33.932Z</time></trkpt><trkpt lat="43.3283383" lon="11.5077667"><ele>300.33333333333337</ele><time>2026-04-20T08:51:34.932Z</time></trkpt><trkpt lat="43.3285117" lon="11.5076433"><ele>301.6666666666667</ele><time>2026-04-20T08:51:35.932Z</time></trkpt><trkpt lat="43.3286817" lon="11.507525"><ele>303.0</ele><time>2026-04-20T08:51:36.932Z</time></trkpt><trkpt lat="43.3288583" lon="11.50742"><ele>304.3333333333333</ele><time>2026-04-20T08:51:37.932Z</time></trkpt><trkpt lat="43.32904" lon="11.5073133"><ele>305.66666666666663</ele><time>2026-04-20T08:51:38.933Z</time></trkpt><trkpt lat="43.32923" lon="11.5072267"><ele>307.0</ele><time>2026-04-20T08:51:39.932Z</time></trkpt><trkpt lat="43.3294283" lon="11.5071717"><ele>307.0</ele><time>2026-04-20T08:51:40.932Z</time></trkpt><trkpt lat="43.32963" lon="11.5071183"><ele>307.0</ele><time>2026-04-20T08:51:41.932Z</time></trkpt><trkpt lat="43.3298367" lon="11.5070833"><ele>307.0</ele><time>2026-04-20T08:51:42.932Z</time></trkpt><trkpt lat="43.3300417" lon="11.50705"><ele>307.0</ele><time>2026-04-20T08:51:43.932Z</time></trkpt><trkpt lat="43.33025" lon="11.5070117"><ele>307.0</ele><time>2026-04-20T08:51:44.933Z</time></trkpt><trkpt lat="43.33046" lon="11.506965"><ele>307.0</ele><time>2026-04-20T08:51:45.932Z</time></trkpt><trkpt lat="43.3306817" lon="11.5069267"><ele>308.3333333333333</ele><time>2026-04-20T08:51:46.932Z</time></trkpt><trkpt lat="43.3308917" lon="11.50689"><ele>309.6666666666667</ele><time>2026-04-20T08:51:47.932Z</time></trkpt><trkpt lat="43.33109" lon="11.5068517"><ele>311.0</ele><time>2026-04-20T08:51:48.932Z</time></trkpt><trkpt lat="43.331295" lon="11.50678"><ele>312.0</ele><time>2026-04-20T08:51:49.933Z</time></trkpt><trkpt lat="43.3314983" lon="11.5066683"><ele>313.0</ele><time>2026-04-20T08:51:50.932Z</time></trkpt><trkpt lat="43.3316883" lon="11.5065467"><ele>314.0</ele><time>2026-04-20T08:51:51.932Z</time></trkpt><trkpt lat="43.33188" lon="11.50642"><ele>314.0</ele><time>2026-04-20T08:51:52.932Z</time></trkpt><trkpt lat="43.3320767" lon="11.506285"><ele>314.0</ele><time>2026-04-20T08:51:53.932Z</time></trkpt><trkpt lat="43.3322567" lon="11.5061633"><ele>314.0</ele><time>2026-04-20T08:51:54.932Z</time></trkpt><trkpt lat="43.332435" lon="11.5060483"><ele>314.6666666666667</ele><time>2026-04-20T08:51:55.932Z</time></trkpt><trkpt lat="43.332615" lon="11.5059467"><ele>315.3333333333333</ele><time>2026-04-20T08:51:56.932Z</time></trkpt><trkpt lat="43.3328033" lon="11.5058717"><ele>316.0</ele><time>2026-04-20T08:51:57.932Z</time></trkpt><trkpt lat="43.33302" lon="11.5058217"><ele>316.0</ele><time>2026-04-20T08:51:58.932Z</time></trkpt><trkpt lat="43.3332333" lon="11.5057733"><ele>316.0</ele><time>2026-04-20T08:51:59.932Z</time></trkpt><trkpt lat="43.333455" lon="11.50573"><ele>316.0</ele><time>2026-04-20T08:52:00.932Z</time></trkpt><trkpt lat="43.3336733" lon="11.5056817"><ele>315.5</ele><time>2026-04-20T08:52:01.932Z</time></trkpt><trkpt lat="43.3339017" lon="11.5056367"><ele>315.0</ele><time>2026-04-20T08:52:02.932Z</time></trkpt><trkpt lat="43.33413" lon="11.5056"><ele>315.0</ele><time>2026-04-20T08:52:03.932Z</time></trkpt><trkpt lat="43.3343533" lon="11.505555"><ele>315.0</ele><time>2026-04-20T08:52:04.932Z</time></trkpt><trkpt lat="43.334585" lon="11.5055133"><ele>314.5</ele><time>2026-04-20T08:52:05.932Z</time></trkpt><trkpt lat="43.334815" lon="11.505455"><ele>314.0</ele><time>2026-04-20T08:52:06.933Z</time></trkpt><trkpt lat="43.3350433" lon="11.5054117"><ele>317.5</ele><time>2026-04-20T08:52:07.932Z</time></trkpt><trkpt lat="43.3352683" lon="11.5053683"><ele>321.0</ele><time>2026-04-20T08:52:08.933Z</time></trkpt><trkpt lat="43.335505" lon="11.5053217"><ele>319.5</ele><time>2026-04-20T08:52:09.932Z</time></trkpt><trkpt lat="43.3357383" lon="11.5052767"><ele>318.0</ele><time>2026-04-20T08:52:10.933Z</time></trkpt><trkpt lat="43.3359533" lon="11.5052367"><ele>318.0</ele><time>2026-04-20T08:52:11.933Z</time></trkpt><trkpt lat="43.3361617" lon="11.5052017"><ele>318.0</ele><time>2026-04-20T08:52:12.932Z</time></trkpt><trkpt lat="43.3363517" lon="11.5051617"><ele>318.0</ele><time>2026-04-20T08:52:13.932Z</time></trkpt><trkpt lat="43.3365333" lon="11.505125"><ele>320.0</ele><time>2026-04-20T08:52:14.933Z</time></trkpt><trkpt lat="43.336705" lon="11.5051083"><ele>322.0</ele><time>2026-04-20T08:52:15.933Z</time></trkpt><trkpt lat="43.3368717" lon="11.5050967"><ele>324.0</ele><time>2026-04-20T08:52:16.933Z</time></trkpt><trkpt lat="43.3370533" lon="11.5051067"><ele>324.3333333333333</ele><time>2026-04-20T08:52:17.933Z</time></trkpt><trkpt lat="43.3372367" lon="11.50515"><ele>324.66666666666663</ele><time>2026-04-20T08:52:18.932Z</time></trkpt><trkpt lat="43.337415" lon="11.505245"><ele>325.0</ele><time>2026-04-20T08:52:19.932Z</time></trkpt><trkpt lat="43.3375967" lon="11.50536"><ele>326.3333333333333</ele><time>2026-04-20T08:52:20.932Z</time></trkpt><trkpt lat="43.3377733" lon="11.5054917"><ele>327.6666666666667</ele><time>2026-04-20T08:52:21.933Z</time></trkpt><trkpt lat="43.33794" lon="11.50561"><ele>329.0</ele><time>2026-04-20T08:52:22.932Z</time></trkpt><trkpt lat="43.3381117" lon="11.5057133"><ele>330.0</ele><time>2026-04-20T08:52:23.932Z</time></trkpt><trkpt lat="43.3382833" lon="11.5058"><ele>331.0</ele><time>2026-04-20T08:52:24.932Z</time></trkpt><trkpt lat="43.33846" lon="11.5058567"><ele>332.0</ele><time>2026-04-20T08:52:25.933Z</time></trkpt><trkpt lat="43.338645" lon="11.5058933"><ele>332.0</ele><time>2026-04-20T08:52:26.932Z</time></trkpt><trkpt lat="43.33883" lon="11.5059033"><ele>332.0</ele><time>2026-04-20T08:52:27.932Z</time></trkpt><trkpt lat="43.33901" lon="11.5058883"><ele>332.0</ele><time>2026-04-20T08:52:28.932Z</time></trkpt><trkpt lat="43.33917" lon="11.505835"><ele>333.0</ele><time>2026-04-20T08:52:29.932Z</time></trkpt><trkpt lat="43.3393183" lon="11.5057833"><ele>334.0</ele><time>2026-04-20T08:52:30.932Z</time></trkpt><trkpt lat="43.3394583" lon="11.50573"><ele>335.0</ele><time>2026-04-20T08:52:31.932Z</time></trkpt><trkpt lat="43.3395933" lon="11.50568"><ele>336.0</ele><time>2026-04-20T08:52:32.932Z</time></trkpt><trkpt lat="43.3397333" lon="11.5056217"><ele>336.0</ele><time>2026-04-20T08:52:33.932Z</time></trkpt><trkpt lat="43.3398717" lon="11.50557"><ele>336.0</ele><time>2026-04-20T08:52:34.933Z</time></trkpt><trkpt lat="43.3400083" lon="11.5055233"><ele>336.0</ele><time>2026-04-20T08:52:35.932Z</time></trkpt><trkpt lat="43.3401367" lon="11.5054817"><ele>336.0</ele><time>2026-04-20T08:52:36.932Z</time></trkpt><trkpt lat="43.3402533" lon="11.5054333"><ele>335.8333333333333</ele><time>2026-04-20T08:52:37.932Z</time></trkpt><trkpt lat="43.340355" lon="11.505395"><ele>335.6666666666667</ele><time>2026-04-20T08:52:38.932Z</time></trkpt><trkpt lat="43.34044" lon="11.5053717"><ele>335.5</ele><time>2026-04-20T08:52:39.933Z</time></trkpt><trkpt lat="43.3405267" lon="11.50535"><ele>335.33333333333337</ele><time>2026-04-20T08:52:40.932Z</time></trkpt><trkpt lat="43.340605" lon="11.50536"><ele>335.1666666666667</ele><time>2026-04-20T08:52:41.932Z</time></trkpt><trkpt lat="43.3406683" lon="11.505385"><ele>335.0</ele><time>2026-04-20T08:52:42.933Z</time></trkpt><trkpt lat="43.3407367" lon="11.505405"><ele>335.0</ele><time>2026-04-20T08:52:43.932Z</time></trkpt><trkpt lat="43.3408083" lon="11.50539"><ele>335.0</ele><time>2026-04-20T08:52:44.932Z</time></trkpt><trkpt lat="43.3408717" lon="11.5053483"><ele>335.0</ele><time>2026-04-20T08:52:45.932Z</time></trkpt><trkpt lat="43.3409367" lon="11.50528"><ele>335.0</ele><time>2026-04-20T08:52:46.932Z</time></trkpt><trkpt lat="43.341025" lon="11.50521"><ele>335.0</ele><time>2026-04-20T08:52:47.932Z</time></trkpt><trkpt lat="43.3411333" lon="11.5051567"><ele>335.0</ele><time>2026-04-20T08:52:48.932Z</time></trkpt><trkpt lat="43.34123" lon="11.5051183"><ele>335.0</ele><time>2026-04-20T08:52:49.933Z</time></trkpt><trkpt lat="43.3413283" lon="11.5050933"><ele>335.0</ele><time>2026-04-20T08:52:50.933Z</time></trkpt><trkpt lat="43.3414167" lon="11.505065"><ele>335.0</ele><time>2026-04-20T08:52:51.932Z</time></trkpt><trkpt lat="43.3414983" lon="11.5050417"><ele>335.0</ele><time>2026-04-20T08:52:52.932Z</time></trkpt><trkpt lat="43.341575" lon="11.505025"><ele>335.0</ele><time>2026-04-20T08:52:53.932Z</time></trkpt><trkpt lat="43.3416467" lon="11.5050067"><ele>335.0</ele><time>2026-04-20T08:52:54.933Z</time></trkpt><trkpt lat="43.3417167" lon="11.5049917"><ele>335.0</ele><time>2026-04-20T08:52:55.932Z</time></trkpt><trkpt lat="43.341795" lon="11.5049717"><ele>335.0</ele><time>2026-04-20T08:52:56.932Z</time></trkpt><trkpt lat="43.3418833" lon="11.5049583"><ele>335.0</ele><time>2026-04-20T08:52:57.932Z</time></trkpt><trkpt lat="43.341975" lon="11.5049417"><ele>335.0</ele><time>2026-04-20T08:52:58.933Z</time></trkpt><trkpt lat="43.3420667" lon="11.504905"><ele>335.0</ele><time>2026-04-20T08:52:59.932Z</time></trkpt><trkpt lat="43.342155" lon="11.5048733"><ele>335.0</ele><time>2026-04-20T08:53:00.932Z</time></trkpt><trkpt lat="43.3422433" lon="11.504855"><ele>335.6</ele><time>2026-04-20T08:53:01.933Z</time></trkpt><trkpt lat="43.3423383" lon="11.50484"><ele>336.2</ele><time>2026-04-20T08:53:02.932Z</time></trkpt><trkpt lat="43.342435" lon="11.5048283"><ele>336.79999999999995</ele><time>2026-04-20T08:53:03.932Z</time></trkpt><trkpt lat="43.3425367" lon="11.5048183"><ele>337.4</ele><time>2026-04-20T08:53:04.932Z</time></trkpt><trkpt lat="43.342635" lon="11.5047967"><ele>338.0</ele><time>2026-04-20T08:53:05.933Z</time></trkpt><trkpt lat="43.3427317" lon="11.5047767"><ele>338.0</ele><time>2026-04-20T08:53:06.932Z</time></trkpt><trkpt lat="43.3428383" lon="11.50476"><ele>338.0</ele><time>2026-04-20T08:53:07.932Z</time></trkpt><trkpt lat="43.3429467" lon="11.504745"><ele>338.0</ele><time>2026-04-20T08:53:08.933Z</time></trkpt><trkpt lat="43.3430567" lon="11.5047233"><ele>338.0</ele><time>2026-04-20T08:53:09.932Z</time></trkpt><trkpt lat="43.3431617" lon="11.5047033"><ele>338.0</ele><time>2026-04-20T08:53:10.933Z</time></trkpt><trkpt lat="43.3432767" lon="11.5046917"><ele>338.0</ele><time>2026-04-20T08:53:11.932Z</time></trkpt><trkpt lat="43.3433933" lon="11.5046817"><ele>338.0</ele><time>2026-04-20T08:53:12.932Z</time></trkpt><trkpt lat="43.3435017" lon="11.5046617"><ele>338.0</ele><time>2026-04-20T08:53:13.933Z</time></trkpt><trkpt lat="43.3435983" lon="11.504635"><ele>338.0</ele><time>2026-04-20T08:53:14.932Z</time></trkpt><trkpt lat="43.3436883" lon="11.5046183"><ele>338.0</ele><time>2026-04-20T08:53:15.932Z</time></trkpt><trkpt lat="43.3437683" lon="11.5046083"><ele>338.0</ele><time>2026-04-20T08:53:16.932Z</time></trkpt><trkpt lat="43.3438467" lon="11.5045883"><ele>338.0</ele><time>2026-04-20T08:53:17.933Z</time></trkpt><trkpt lat="43.3439317" lon="11.5045683"><ele>338.0</ele><time>2026-04-20T08:53:18.932Z</time></trkpt><trkpt lat="43.3440283" lon="11.50455"><ele>338.0</ele><time>2026-04-20T08:53:19.932Z</time></trkpt><trkpt lat="43.3441283" lon="11.50453"><ele>338.0</ele><time>2026-04-20T08:53:20.932Z</time></trkpt><trkpt lat="43.3442217" lon="11.5045083"><ele>337.6666666666667</ele><time>2026-04-20T08:53:21.932Z</time></trkpt><trkpt lat="43.3443117" lon="11.5044967"><ele>337.33333333333337</ele><time>2026-04-20T08:53:22.932Z</time></trkpt><trkpt lat="43.344405" lon="11.5044767"><ele>337.0</ele><time>2026-04-20T08:53:23.932Z</time></trkpt><trkpt lat="43.34449" lon="11.5044567"><ele>336.6666666666667</ele><time>2026-04-20T08:53:24.932Z</time></trkpt><trkpt lat="43.3445733" lon="11.5044517"><ele>336.3333333333333</ele><time>2026-04-20T08:53:25.932Z</time></trkpt><trkpt lat="43.3446467" lon="11.5044417"><ele>336.0</ele><time>2026-04-20T08:53:26.932Z</time></trkpt><trkpt lat="43.344715" lon="11.504425"><ele>337.1666666666667</ele><time>2026-04-20T08:53:27.933Z</time></trkpt><trkpt lat="43.3448017" lon="11.5043333"><ele>338.3333333333333</ele><time>2026-04-20T08:53:29.932Z</time></trkpt><trkpt lat="43.3448583" lon="11.5041667"><ele>339.5</ele><time>2026-04-20T08:53:31.933Z</time></trkpt><trkpt lat="43.3448917" lon="11.5040867"><ele>340.66666666666663</ele><time>2026-04-20T08:53:32.932Z</time></trkpt><trkpt lat="43.34492" lon="11.504005"><ele>341.8333333333333</ele><time>2026-04-20T08:53:33.932Z</time></trkpt><trkpt lat="43.3449567" lon="11.5039217"><ele>343.0</ele><time>2026-04-20T08:53:34.933Z</time></trkpt><trkpt lat="43.3450183" lon="11.5037733"><ele>343.0</ele><time>2026-04-20T08:53:36.933Z</time></trkpt><trkpt lat="43.3450583" lon="11.5036567"><ele>343.0</ele><time>2026-04-20T08:53:38.932Z</time></trkpt><trkpt lat="43.34505" lon="11.5035217"><ele>343.0</ele><time>2026-04-20T08:54:04.932Z</time></trkpt><trkpt lat="43.3449933" lon="11.5034517"><ele>343.0</ele><time>2026-04-20T08:54:06.932Z</time></trkpt><trkpt lat="43.3449367" lon="11.5033333"><ele>343.0</ele><time>2026-04-20T08:54:08.932Z</time></trkpt><trkpt lat="43.3448933" lon="11.5031917"><ele>343.0</ele><time>2026-04-20T08:54:10.933Z</time></trkpt><trkpt lat="43.3448867" lon="11.50302"><ele>343.0</ele><time>2026-04-20T08:54:12.933Z</time></trkpt><trkpt lat="43.3448917" lon="11.50293"><ele>343.0</ele><time>2026-04-20T08:54:13.932Z</time></trkpt><trkpt lat="43.34489" lon="11.502825"><ele>343.0</ele><time>2026-04-20T08:54:14.933Z</time></trkpt><trkpt lat="43.3449083" lon="11.5027267"><ele>343.0</ele><time>2026-04-20T08:54:15.932Z</time></trkpt><trkpt lat="43.3449367" lon="11.50263"><ele>343.0</ele><time>2026-04-20T08:54:16.932Z</time></trkpt><trkpt lat="43.344975" lon="11.502535"><ele>343.16666666666663</ele><time>2026-04-20T08:54:17.933Z</time></trkpt><trkpt lat="43.34501" lon="11.5024417"><ele>343.3333333333333</ele><time>2026-04-20T08:54:18.932Z</time></trkpt><trkpt lat="43.3450433" lon="11.5023467"><ele>343.5</ele><time>2026-04-20T08:54:19.932Z</time></trkpt><trkpt lat="43.345075" lon="11.50225"><ele>343.6666666666667</ele><time>2026-04-20T08:54:20.933Z</time></trkpt><trkpt lat="43.3451117" lon="11.5021583"><ele>343.83333333333337</ele><time>2026-04-20T08:54:21.932Z</time></trkpt><trkpt lat="43.345155" lon="11.5020667"><ele>344.0</ele><time>2026-04-20T08:54:22.932Z</time></trkpt><trkpt lat="43.34519" lon="11.5019633"><ele>342.8571428571429</ele><time>2026-04-20T08:54:23.932Z</time></trkpt><trkpt lat="43.34521" lon="11.5018583"><ele>341.7142857142857</ele><time>2026-04-20T08:54:24.932Z</time></trkpt><trkpt lat="43.3452283" lon="11.5017583"><ele>340.57142857142856</ele><time>2026-04-20T08:54:25.933Z</time></trkpt><trkpt lat="43.3452383" lon="11.50167"><ele>339.42857142857144</ele><time>2026-04-20T08:54:26.933Z</time></trkpt><trkpt lat="43.3452283" lon="11.5015733"><ele>338.2857142857143</ele><time>2026-04-20T08:54:27.932Z</time></trkpt><trkpt lat="43.3452167" lon="11.501485"><ele>337.14285714285717</ele><time>2026-04-20T08:54:28.933Z</time></trkpt><trkpt lat="43.34519" lon="11.5013983"><ele>336.0</ele><time>2026-04-20T08:54:29.932Z</time></trkpt><trkpt lat="43.345155" lon="11.5013083"><ele>335.8333333333333</ele><time>2026-04-20T08:54:30.932Z</time></trkpt><trkpt lat="43.34512" lon="11.501225"><ele>335.6666666666667</ele><time>2026-04-20T08:54:31.932Z</time></trkpt><trkpt lat="43.345085" lon="11.5011217"><ele>335.5</ele><time>2026-04-20T08:54:32.932Z</time></trkpt><trkpt lat="43.3450383" lon="11.5010417"><ele>335.33333333333337</ele><time>2026-04-20T08:54:33.931Z</time></trkpt><trkpt lat="43.3449933" lon="11.5009567"><ele>335.1666666666667</ele><time>2026-04-20T08:54:34.931Z</time></trkpt><trkpt lat="43.3449467" lon="11.500885"><ele>335.0</ele><time>2026-04-20T08:54:35.931Z</time></trkpt><trkpt lat="43.344925" lon="11.5007433"><ele>335.0</ele><time>2026-04-20T08:54:37.931Z</time></trkpt><trkpt lat="43.3449767" lon="11.5006317"><ele>335.0</ele><time>2026-04-20T08:54:39.931Z</time></trkpt><trkpt lat="43.3450333" lon="11.5005767"><ele>335.0</ele><time>2026-04-20T08:54:41.931Z</time></trkpt><trkpt lat="43.3450317" lon="11.500475"><ele>335.0</ele><time>2026-04-20T08:54:44.931Z</time></trkpt><trkpt lat="43.34498" lon="11.50037"><ele>335.0</ele><time>2026-04-20T08:54:46.931Z</time></trkpt><trkpt lat="43.34493" lon="11.5002217"><ele>335.0</ele><time>2026-04-20T08:54:48.931Z</time></trkpt><trkpt lat="43.344875" lon="11.5000383"><ele>335.0</ele><time>2026-04-20T08:54:50.931Z</time></trkpt><trkpt lat="43.3448317" lon="11.4999283"><ele>335.0</ele><time>2026-04-20T08:54:51.932Z</time></trkpt><trkpt lat="43.3447917" lon="11.499815"><ele>335.0</ele><time>2026-04-20T08:54:52.932Z</time></trkpt><trkpt lat="43.3447517" lon="11.4997017"><ele>335.0</ele><time>2026-04-20T08:54:53.931Z</time></trkpt><trkpt lat="43.344715" lon="11.49959"><ele>335.2</ele><time>2026-04-20T08:54:54.932Z</time></trkpt><trkpt lat="43.3446717" lon="11.499475"><ele>335.4</ele><time>2026-04-20T08:54:55.931Z</time></trkpt><trkpt lat="43.344625" lon="11.49936"><ele>335.6</ele><time>2026-04-20T08:54:56.931Z</time></trkpt><trkpt lat="43.3445817" lon="11.4992433"><ele>335.8</ele><time>2026-04-20T08:54:57.931Z</time></trkpt><trkpt lat="43.3445367" lon="11.4991217"><ele>336.0</ele><time>2026-04-20T08:54:58.931Z</time></trkpt><trkpt lat="43.3445017" lon="11.4989983"><ele>336.0</ele><time>2026-04-20T08:54:59.931Z</time></trkpt><trkpt lat="43.3444633" lon="11.49888"><ele>336.0</ele><time>2026-04-20T08:55:00.931Z</time></trkpt><trkpt lat="43.3444217" lon="11.4987533"><ele>336.0</ele><time>2026-04-20T08:55:01.932Z</time></trkpt><trkpt lat="43.3443783" lon="11.4986267"><ele>336.0</ele><time>2026-04-20T08:55:02.932Z</time></trkpt><trkpt lat="43.3443367" lon="11.4985017"><ele>336.0</ele><time>2026-04-20T08:55:03.932Z</time></trkpt><trkpt lat="43.3442933" lon="11.4983733"><ele>336.20000000000005</ele><time>2026-04-20T08:55:04.931Z</time></trkpt><trkpt lat="43.3442467" lon="11.4982433"><ele>336.40000000000003</ele><time>2026-04-20T08:55:05.931Z</time></trkpt><trkpt lat="43.3442" lon="11.4981117"><ele>336.6</ele><time>2026-04-20T08:55:06.931Z</time></trkpt><trkpt lat="43.3441467" lon="11.4979817"><ele>336.8</ele><time>2026-04-20T08:55:07.931Z</time></trkpt><trkpt lat="43.3441017" lon="11.49785"><ele>337.0</ele><time>2026-04-20T08:55:08.932Z</time></trkpt><trkpt lat="43.344055" lon="11.4977183"><ele>337.0</ele><time>2026-04-20T08:55:09.932Z</time></trkpt><trkpt lat="43.3440033" lon="11.497585"><ele>337.0</ele><time>2026-04-20T08:55:10.931Z</time></trkpt><trkpt lat="43.34396" lon="11.4974767"><ele>337.0</ele><time>2026-04-20T08:55:11.931Z</time></trkpt><trkpt lat="43.3439183" lon="11.49738"><ele>337.0</ele><time>2026-04-20T08:55:12.931Z</time></trkpt><trkpt lat="43.34388" lon="11.497285"><ele>337.0</ele><time>2026-04-20T08:55:13.931Z</time></trkpt><trkpt lat="43.34384" lon="11.4972017"><ele>337.0</ele><time>2026-04-20T08:55:14.932Z</time></trkpt><trkpt lat="43.3438083" lon="11.49712"><ele>336.5</ele><time>2026-04-20T08:55:15.932Z</time></trkpt><trkpt lat="43.3437633" lon="11.49704"><ele>336.0</ele><time>2026-04-20T08:55:16.931Z</time></trkpt><trkpt lat="43.3437167" lon="11.4969717"><ele>335.5</ele><time>2026-04-20T08:55:17.931Z</time></trkpt><trkpt lat="43.3436633" lon="11.4969017"><ele>335.0</ele><time>2026-04-20T08:55:18.932Z</time></trkpt><trkpt lat="43.3435967" lon="11.4968333"><ele>334.5</ele><time>2026-04-20T08:55:19.931Z</time></trkpt><trkpt lat="43.3435333" lon="11.4967567"><ele>334.0</ele><time>2026-04-20T08:55:20.931Z</time></trkpt><trkpt lat="43.34347" lon="11.496675"><ele>334.0</ele><time>2026-04-20T08:55:21.931Z</time></trkpt><trkpt lat="43.3434033" lon="11.4965867"><ele>334.0</ele><time>2026-04-20T08:55:22.931Z</time></trkpt><trkpt lat="43.3433383" lon="11.4965017"><ele>334.0</ele><time>2026-04-20T08:55:23.931Z</time></trkpt><trkpt lat="43.3432767" lon="11.4964167"><ele>334.0</ele><time>2026-04-20T08:55:24.93Z</time></trkpt><trkpt lat="43.3432133" lon="11.4963367"><ele>334.0</ele><time>2026-04-20T08:55:25.931Z</time></trkpt><trkpt lat="43.3431417" lon="11.4962517"><ele>333.4</ele><time>2026-04-20T08:55:26.931Z</time></trkpt><trkpt lat="43.3430633" lon="11.496165"><ele>332.79999999999995</ele><time>2026-04-20T08:55:27.932Z</time></trkpt><trkpt lat="43.3429867" lon="11.4960683"><ele>332.20000000000005</ele><time>2026-04-20T08:55:28.931Z</time></trkpt><trkpt lat="43.3429" lon="11.4959667"><ele>331.6</ele><time>2026-04-20T08:55:29.932Z</time></trkpt><trkpt lat="43.3428167" lon="11.4958567"><ele>331.0</ele><time>2026-04-20T08:55:30.931Z</time></trkpt><trkpt lat="43.3427267" lon="11.4957567"><ele>331.0</ele><time>2026-04-20T08:55:31.932Z</time></trkpt><trkpt lat="43.3426367" lon="11.4956467"><ele>331.0</ele><time>2026-04-20T08:55:32.931Z</time></trkpt><trkpt lat="43.3425467" lon="11.4955233"><ele>331.0</ele><time>2026-04-20T08:55:33.931Z</time></trkpt><trkpt lat="43.3424417" lon="11.4953967"><ele>331.0</ele><time>2026-04-20T08:55:34.931Z</time></trkpt><trkpt lat="43.3423217" lon="11.4952517"><ele>326.0</ele><time>2026-04-20T08:55:35.931Z</time></trkpt><trkpt lat="43.342205" lon="11.495115"><ele>321.0</ele><time>2026-04-20T08:55:36.931Z</time></trkpt><trkpt lat="43.3420733" lon="11.494975"><ele>316.0</ele><time>2026-04-20T08:55:37.931Z</time></trkpt><trkpt lat="43.34195" lon="11.494835"><ele>316.0</ele><time>2026-04-20T08:55:38.931Z</time></trkpt><trkpt lat="43.3418283" lon="11.4946933"><ele>316.0</ele><time>2026-04-20T08:55:39.932Z</time></trkpt><trkpt lat="43.34171" lon="11.4945517"><ele>316.0</ele><time>2026-04-20T08:55:40.931Z</time></trkpt><trkpt lat="43.3415967" lon="11.49442"><ele>315.0</ele><time>2026-04-20T08:55:41.931Z</time></trkpt><trkpt lat="43.3414783" lon="11.4942767"><ele>314.0</ele><time>2026-04-20T08:55:42.931Z</time></trkpt><trkpt lat="43.3413583" lon="11.4941317"><ele>313.0</ele><time>2026-04-20T08:55:43.931Z</time></trkpt><trkpt lat="43.341245" lon="11.493985"><ele>312.0</ele><time>2026-04-20T08:55:44.931Z</time></trkpt><trkpt lat="43.3411333" lon="11.49384"><ele>311.0</ele><time>2026-04-20T08:55:45.931Z</time></trkpt><trkpt lat="43.3410133" lon="11.4936967"><ele>310.0</ele><time>2026-04-20T08:55:46.931Z</time></trkpt><trkpt lat="43.3408917" lon="11.4935683"><ele>310.0</ele><time>2026-04-20T08:55:47.932Z</time></trkpt><trkpt lat="43.3407733" lon="11.4934317"><ele>310.0</ele><time>2026-04-20T08:55:48.931Z</time></trkpt><trkpt lat="43.3406483" lon="11.4932867"><ele>310.0</ele><time>2026-04-20T08:55:49.931Z</time></trkpt><trkpt lat="43.3405267" lon="11.493135"><ele>310.0</ele><time>2026-04-20T08:55:50.931Z</time></trkpt><trkpt lat="43.3403867" lon="11.4929667"><ele>310.0</ele><time>2026-04-20T08:55:51.931Z</time></trkpt><trkpt lat="43.340255" lon="11.492795"><ele>310.0</ele><time>2026-04-20T08:55:52.931Z</time></trkpt><trkpt lat="43.340125" lon="11.4926117"><ele>310.3333333333333</ele><time>2026-04-20T08:55:53.931Z</time></trkpt><trkpt lat="43.3399933" lon="11.4924283"><ele>310.6666666666667</ele><time>2026-04-20T08:55:54.931Z</time></trkpt><trkpt lat="43.3398667" lon="11.4922367"><ele>311.0</ele><time>2026-04-20T08:55:55.931Z</time></trkpt><trkpt lat="43.339735" lon="11.4920333"><ele>309.6666666666667</ele><time>2026-04-20T08:55:56.931Z</time></trkpt><trkpt lat="43.3396033" lon="11.4918317"><ele>308.3333333333333</ele><time>2026-04-20T08:55:57.931Z</time></trkpt><trkpt lat="43.3394733" lon="11.4916333"><ele>307.0</ele><time>2026-04-20T08:55:58.931Z</time></trkpt><trkpt lat="43.3393367" lon="11.4914333"><ele>306.66666666666663</ele><time>2026-04-20T08:55:59.931Z</time></trkpt><trkpt lat="43.3392067" lon="11.4912183"><ele>306.3333333333333</ele><time>2026-04-20T08:56:00.931Z</time></trkpt><trkpt lat="43.3390567" lon="11.4910333"><ele>306.0</ele><time>2026-04-20T08:56:01.931Z</time></trkpt><trkpt lat="43.3389033" lon="11.4908567"><ele>305.0</ele><time>2026-04-20T08:56:02.931Z</time></trkpt><trkpt lat="43.33874" lon="11.4906867"><ele>304.0</ele><time>2026-04-20T08:56:03.931Z</time></trkpt><trkpt lat="43.33858" lon="11.4905217"><ele>303.0</ele><time>2026-04-20T08:56:04.931Z</time></trkpt><trkpt lat="43.3384217" lon="11.4903517"><ele>303.0</ele><time>2026-04-20T08:56:05.932Z</time></trkpt><trkpt lat="43.3382633" lon="11.4901833"><ele>303.0</ele><time>2026-04-20T08:56:06.931Z</time></trkpt><trkpt lat="43.3381033" lon="11.4900183"><ele>303.0</ele><time>2026-04-20T08:56:07.931Z</time></trkpt><trkpt lat="43.3379433" lon="11.489845"><ele>301.3333333333333</ele><time>2026-04-20T08:56:08.931Z</time></trkpt><trkpt lat="43.3377783" lon="11.489675"><ele>299.66666666666663</ele><time>2026-04-20T08:56:09.931Z</time></trkpt><trkpt lat="43.3376133" lon="11.4894967"><ele>298.0</ele><time>2026-04-20T08:56:10.932Z</time></trkpt><trkpt lat="43.33745" lon="11.4893233"><ele>297.66666666666663</ele><time>2026-04-20T08:56:11.931Z</time></trkpt><trkpt lat="43.3372833" lon="11.4891633"><ele>297.3333333333333</ele><time>2026-04-20T08:56:12.931Z</time></trkpt><trkpt lat="43.3371283" lon="11.4890167"><ele>297.0</ele><time>2026-04-20T08:56:13.931Z</time></trkpt><trkpt lat="43.3369683" lon="11.4889"><ele>297.6666666666667</ele><time>2026-04-20T08:56:14.932Z</time></trkpt><trkpt lat="43.3368067" lon="11.488805"><ele>298.33333333333337</ele><time>2026-04-20T08:56:15.931Z</time></trkpt><trkpt lat="43.3366633" lon="11.48871"><ele>299.0</ele><time>2026-04-20T08:56:16.932Z</time></trkpt><trkpt lat="43.3365217" lon="11.488605"><ele>299.0</ele><time>2026-04-20T08:56:17.931Z</time></trkpt><trkpt lat="43.3363967" lon="11.4884767"><ele>299.0</ele><time>2026-04-20T08:56:18.931Z</time></trkpt><trkpt lat="43.3362983" lon="11.488325"><ele>299.0</ele><time>2026-04-20T08:56:19.931Z</time></trkpt><trkpt lat="43.3361983" lon="11.4881633"><ele>299.0</ele><time>2026-04-20T08:56:20.931Z</time></trkpt><trkpt lat="43.3360967" lon="11.4879917"><ele>299.0</ele><time>2026-04-20T08:56:21.931Z</time></trkpt><trkpt lat="43.3359667" lon="11.48783"><ele>299.0</ele><time>2026-04-20T08:56:22.931Z</time></trkpt><trkpt lat="43.3358317" lon="11.4876583"><ele>297.33333333333337</ele><time>2026-04-20T08:56:23.931Z</time></trkpt><trkpt lat="43.3357017" lon="11.4874817"><ele>295.6666666666667</ele><time>2026-04-20T08:56:24.931Z</time></trkpt><trkpt lat="43.3355783" lon="11.4872883"><ele>294.0</ele><time>2026-04-20T08:56:25.931Z</time></trkpt><trkpt lat="43.3354767" lon="11.4870767"><ele>294.0</ele><time>2026-04-20T08:56:26.931Z</time></trkpt><trkpt lat="43.3353767" lon="11.4868633"><ele>294.0</ele><time>2026-04-20T08:56:27.932Z</time></trkpt><trkpt lat="43.335285" lon="11.4866417"><ele>294.0</ele><time>2026-04-20T08:56:28.931Z</time></trkpt><trkpt lat="43.335195" lon="11.4864267"><ele>291.0</ele><time>2026-04-20T08:56:29.931Z</time></trkpt><trkpt lat="43.33511" lon="11.4862133"><ele>288.0</ele><time>2026-04-20T08:56:30.931Z</time></trkpt><trkpt lat="43.335035" lon="11.4859967"><ele>285.0</ele><time>2026-04-20T08:56:31.931Z</time></trkpt><trkpt lat="43.3349717" lon="11.4857767"><ele>285.0</ele><time>2026-04-20T08:56:32.931Z</time></trkpt><trkpt lat="43.3349183" lon="11.4855483"><ele>285.0</ele><time>2026-04-20T08:56:33.932Z</time></trkpt><trkpt lat="43.3348817" lon="11.4853"><ele>285.0</ele><time>2026-04-20T08:56:34.932Z</time></trkpt><trkpt lat="43.3348533" lon="11.4850517"><ele>283.0</ele><time>2026-04-20T08:56:35.931Z</time></trkpt><trkpt lat="43.3348267" lon="11.4848"><ele>281.0</ele><time>2026-04-20T08:56:36.931Z</time></trkpt><trkpt lat="43.3348017" lon="11.4845583"><ele>279.0</ele><time>2026-04-20T08:56:37.931Z</time></trkpt><trkpt lat="43.3347733" lon="11.4843267"><ele>277.6666666666667</ele><time>2026-04-20T08:56:38.931Z</time></trkpt><trkpt lat="43.334755" lon="11.48411"><ele>276.33333333333337</ele><time>2026-04-20T08:56:39.931Z</time></trkpt><trkpt lat="43.3347383" lon="11.4838983"><ele>275.0</ele><time>2026-04-20T08:56:40.931Z</time></trkpt><trkpt lat="43.334725" lon="11.4836967"><ele>276.5</ele><time>2026-04-20T08:56:41.932Z</time></trkpt><trkpt lat="43.3347117" lon="11.4834933"><ele>278.0</ele><time>2026-04-20T08:56:42.931Z</time></trkpt><trkpt lat="43.3346983" lon="11.483295"><ele>279.5</ele><time>2026-04-20T08:56:43.931Z</time></trkpt><trkpt lat="43.3346817" lon="11.4830983"><ele>281.0</ele><time>2026-04-20T08:56:44.931Z</time></trkpt><trkpt lat="43.3346683" lon="11.482895"><ele>281.0</ele><time>2026-04-20T08:56:45.932Z</time></trkpt><trkpt lat="43.3346467" lon="11.4826967"><ele>281.0</ele><time>2026-04-20T08:56:46.932Z</time></trkpt><trkpt lat="43.3346033" lon="11.4824967"><ele>281.0</ele><time>2026-04-20T08:56:47.931Z</time></trkpt><trkpt lat="43.334585" lon="11.4823117"><ele>281.0</ele><time>2026-04-20T08:56:48.931Z</time></trkpt><trkpt lat="43.334595" lon="11.4821233"><ele>279.25</ele><time>2026-04-20T08:56:49.931Z</time></trkpt><trkpt lat="43.3346367" lon="11.4819583"><ele>277.5</ele><time>2026-04-20T08:56:50.931Z</time></trkpt><trkpt lat="43.3346967" lon="11.4818"><ele>275.75</ele><time>2026-04-20T08:56:51.931Z</time></trkpt><trkpt lat="43.33476" lon="11.48164"><ele>274.0</ele><time>2026-04-20T08:56:52.932Z</time></trkpt><trkpt lat="43.3348533" lon="11.4814817"><ele>273.5</ele><time>2026-04-20T08:56:53.932Z</time></trkpt><trkpt lat="43.334945" lon="11.4813317"><ele>273.0</ele><time>2026-04-20T08:56:54.932Z</time></trkpt><trkpt lat="43.33504" lon="11.4811817"><ele>272.5</ele><time>2026-04-20T08:56:55.931Z</time></trkpt><trkpt lat="43.3351217" lon="11.4810367"><ele>272.0</ele><time>2026-04-20T08:56:56.931Z</time></trkpt><trkpt lat="43.335195" lon="11.4809133"><ele>273.1666666666667</ele><time>2026-04-20T08:56:57.931Z</time></trkpt><trkpt lat="43.3352533" lon="11.480795"><ele>274.33333333333337</ele><time>2026-04-20T08:56:58.931Z</time></trkpt><trkpt lat="43.335315" lon="11.4807033"><ele>275.5</ele><time>2026-04-20T08:56:59.931Z</time></trkpt><trkpt lat="43.3353767" lon="11.4806183"><ele>276.6666666666667</ele><time>2026-04-20T08:57:00.932Z</time></trkpt><trkpt lat="43.3354383" lon="11.48053"><ele>277.8333333333333</ele><time>2026-04-20T08:57:01.931Z</time></trkpt><trkpt lat="43.3354983" lon="11.4804683"><ele>279.0</ele><time>2026-04-20T08:57:02.932Z</time></trkpt><trkpt lat="43.3355633" lon="11.4804033"><ele>279.2</ele><time>2026-04-20T08:57:03.931Z</time></trkpt><trkpt lat="43.3356283" lon="11.4803383"><ele>279.4</ele><time>2026-04-20T08:57:04.931Z</time></trkpt><trkpt lat="43.3357117" lon="11.4802467"><ele>279.6</ele><time>2026-04-20T08:57:05.931Z</time></trkpt><trkpt lat="43.3358133" lon="11.4801517"><ele>279.8</ele><time>2026-04-20T08:57:06.931Z</time></trkpt><trkpt lat="43.3359267" lon="11.4800567"><ele>280.0</ele><time>2026-04-20T08:57:07.931Z</time></trkpt><trkpt lat="43.33604" lon="11.4799483"><ele>280.0</ele><time>2026-04-20T08:57:08.931Z</time></trkpt><trkpt lat="43.3361633" lon="11.47984"><ele>280.0</ele><time>2026-04-20T08:57:09.932Z</time></trkpt><trkpt lat="43.33629" lon="11.4797383"><ele>280.0</ele><time>2026-04-20T08:57:10.931Z</time></trkpt><trkpt lat="43.33641" lon="11.47964"><ele>280.0</ele><time>2026-04-20T08:57:11.931Z</time></trkpt><trkpt lat="43.336535" lon="11.4795533"><ele>279.0</ele><time>2026-04-20T08:57:12.931Z</time></trkpt><trkpt lat="43.3366533" lon="11.4794667"><ele>278.0</ele><time>2026-04-20T08:57:13.931Z</time></trkpt><trkpt lat="43.3367683" lon="11.4794033"><ele>277.0</ele><time>2026-04-20T08:57:14.931Z</time></trkpt><trkpt lat="43.336895" lon="11.479345"><ele>276.0</ele><time>2026-04-20T08:57:15.931Z</time></trkpt><trkpt lat="43.3370183" lon="11.4793133"><ele>276.0</ele><time>2026-04-20T08:57:16.932Z</time></trkpt><trkpt lat="43.3371517" lon="11.4792967"><ele>276.0</ele><time>2026-04-20T08:57:17.931Z</time></trkpt><trkpt lat="43.3372867" lon="11.4792933"><ele>276.0</ele><time>2026-04-20T08:57:18.931Z</time></trkpt><trkpt lat="43.3374217" lon="11.479285"><ele>276.0</ele><time>2026-04-20T08:57:19.931Z</time></trkpt><trkpt lat="43.3375567" lon="11.4792767"><ele>275.6</ele><time>2026-04-20T08:57:20.931Z</time></trkpt><trkpt lat="43.33767" lon="11.4792633"><ele>275.20000000000005</ele><time>2026-04-20T08:57:21.931Z</time></trkpt><trkpt lat="43.3377767" lon="11.4792083"><ele>274.79999999999995</ele><time>2026-04-20T08:57:22.931Z</time></trkpt><trkpt lat="43.3378533" lon="11.4791217"><ele>274.4</ele><time>2026-04-20T08:57:23.932Z</time></trkpt><trkpt lat="43.3379067" lon="11.479025"><ele>274.0</ele><time>2026-04-20T08:57:24.931Z</time></trkpt><trkpt lat="43.3379367" lon="11.4789217"><ele>274.0</ele><time>2026-04-20T08:57:25.932Z</time></trkpt><trkpt lat="43.3379417" lon="11.478785"><ele>274.0</ele><time>2026-04-20T08:57:26.932Z</time></trkpt><trkpt lat="43.3379183" lon="11.4786283"><ele>274.0</ele><time>2026-04-20T08:57:27.931Z</time></trkpt><trkpt lat="43.337875" lon="11.478465"><ele>274.0</ele><time>2026-04-20T08:57:28.931Z</time></trkpt><trkpt lat="43.337825" lon="11.4782783"><ele>273.0</ele><time>2026-04-20T08:57:29.931Z</time></trkpt><trkpt lat="43.3377767" lon="11.4780633"><ele>272.0</ele><time>2026-04-20T08:57:30.932Z</time></trkpt><trkpt lat="43.3377233" lon="11.4778383"><ele>271.0</ele><time>2026-04-20T08:57:31.931Z</time></trkpt><trkpt lat="43.337675" lon="11.4776117"><ele>269.3333333333333</ele><time>2026-04-20T08:57:32.931Z</time></trkpt><trkpt lat="43.3376267" lon="11.47739"><ele>267.6666666666667</ele><time>2026-04-20T08:57:33.931Z</time></trkpt><trkpt lat="43.3375867" lon="11.4771817"><ele>266.0</ele><time>2026-04-20T08:57:34.931Z</time></trkpt><trkpt lat="43.3375533" lon="11.4769983"><ele>265.25</ele><time>2026-04-20T08:57:35.931Z</time></trkpt><trkpt lat="43.3375317" lon="11.47682"><ele>264.5</ele><time>2026-04-20T08:57:36.931Z</time></trkpt><trkpt lat="43.3375233" lon="11.476635"><ele>263.75</ele><time>2026-04-20T08:57:37.931Z</time></trkpt><trkpt lat="43.3375317" lon="11.47646"><ele>263.0</ele><time>2026-04-20T08:57:38.932Z</time></trkpt><trkpt lat="43.3375583" lon="11.47628"><ele>262.5</ele><time>2026-04-20T08:57:39.931Z</time></trkpt><trkpt lat="43.3376033" lon="11.4761067"><ele>262.0</ele><time>2026-04-20T08:57:40.931Z</time></trkpt><trkpt lat="43.3376467" lon="11.475915"><ele>261.5</ele><time>2026-04-20T08:57:41.931Z</time></trkpt><trkpt lat="43.3376783" lon="11.4757183"><ele>261.0</ele><time>2026-04-20T08:57:42.931Z</time></trkpt><trkpt lat="43.3377067" lon="11.4755067"><ele>259.0</ele><time>2026-04-20T08:57:43.931Z</time></trkpt><trkpt lat="43.337735" lon="11.4753017"><ele>257.0</ele><time>2026-04-20T08:57:44.931Z</time></trkpt><trkpt lat="43.33776" lon="11.4751"><ele>255.0</ele><time>2026-04-20T08:57:45.931Z</time></trkpt><trkpt lat="43.3378083" lon="11.474915"><ele>253.0</ele><time>2026-04-20T08:57:46.931Z</time></trkpt><trkpt lat="43.3378583" lon="11.4747383"><ele>252.25</ele><time>2026-04-20T08:57:47.931Z</time></trkpt><trkpt lat="43.337905" lon="11.474565"><ele>251.5</ele><time>2026-04-20T08:57:48.932Z</time></trkpt><trkpt lat="43.3379467" lon="11.4744083"><ele>250.75</ele><time>2026-04-20T08:57:49.931Z</time></trkpt><trkpt lat="43.33801" lon="11.474255"><ele>250.0</ele><time>2026-04-20T08:57:50.931Z</time></trkpt><trkpt lat="43.33809" lon="11.4741167"><ele>250.0</ele><time>2026-04-20T08:57:51.931Z</time></trkpt><trkpt lat="43.3382033" lon="11.4740217"><ele>250.0</ele><time>2026-04-20T08:57:52.931Z</time></trkpt><trkpt lat="43.3383233" lon="11.473945"><ele>250.0</ele><time>2026-04-20T08:57:53.932Z</time></trkpt><trkpt lat="43.338455" lon="11.4739"><ele>250.0</ele><time>2026-04-20T08:57:54.931Z</time></trkpt><trkpt lat="43.3385967" lon="11.4738933"><ele>250.0</ele><time>2026-04-20T08:57:55.931Z</time></trkpt><trkpt lat="43.3387317" lon="11.4738983"><ele>250.0</ele><time>2026-04-20T08:57:56.931Z</time></trkpt><trkpt lat="43.3388583" lon="11.4739017"><ele>250.0</ele><time>2026-04-20T08:57:57.931Z</time></trkpt><trkpt lat="43.3389817" lon="11.4738717"><ele>250.0</ele><time>2026-04-20T08:57:58.931Z</time></trkpt><trkpt lat="43.3390933" lon="11.4738167"><ele>246.75</ele><time>2026-04-20T08:57:59.932Z</time></trkpt><trkpt lat="43.3391967" lon="11.473725"><ele>243.5</ele><time>2026-04-20T08:58:00.932Z</time></trkpt><trkpt lat="43.33929" lon="11.4736133"><ele>240.25</ele><time>2026-04-20T08:58:01.931Z</time></trkpt><trkpt lat="43.3393717" lon="11.4734633"><ele>237.0</ele><time>2026-04-20T08:58:02.931Z</time></trkpt><trkpt lat="43.33946" lon="11.4733033"><ele>237.0</ele><time>2026-04-20T08:58:03.931Z</time></trkpt><trkpt lat="43.339555" lon="11.4731367"><ele>237.0</ele><time>2026-04-20T08:58:04.931Z</time></trkpt><trkpt lat="43.33964" lon="11.4729333"><ele>237.0</ele><time>2026-04-20T08:58:05.931Z</time></trkpt><trkpt lat="43.33973" lon="11.4727217"><ele>233.66666666666669</ele><time>2026-04-20T08:58:06.931Z</time></trkpt><trkpt lat="43.3398167" lon="11.4725133"><ele>230.33333333333334</ele><time>2026-04-20T08:58:07.931Z</time></trkpt><trkpt lat="43.3399017" lon="11.4723283"><ele>227.0</ele><time>2026-04-20T08:58:08.931Z</time></trkpt><trkpt lat="43.3399833" lon="11.4721583"><ele>227.75</ele><time>2026-04-20T08:58:09.932Z</time></trkpt><trkpt lat="43.3400433" lon="11.47197"><ele>228.5</ele><time>2026-04-20T08:58:10.931Z</time></trkpt><trkpt lat="43.3400867" lon="11.4717767"><ele>229.25</ele><time>2026-04-20T08:58:11.931Z</time></trkpt><trkpt lat="43.3401033" lon="11.47158"><ele>230.0</ele><time>2026-04-20T08:58:12.931Z</time></trkpt><trkpt lat="43.3400967" lon="11.4713867"><ele>230.75</ele><time>2026-04-20T08:58:13.931Z</time></trkpt><trkpt lat="43.3400683" lon="11.4712033"><ele>231.5</ele><time>2026-04-20T08:58:14.931Z</time></trkpt><trkpt lat="43.340015" lon="11.4710333"><ele>232.25</ele><time>2026-04-20T08:58:15.931Z</time></trkpt><trkpt lat="43.339965" lon="11.470865"><ele>233.0</ele><time>2026-04-20T08:58:16.931Z</time></trkpt><trkpt lat="43.3399133" lon="11.4707133"><ele>233.0</ele><time>2026-04-20T08:58:17.931Z</time></trkpt><trkpt lat="43.3398767" lon="11.470555"><ele>233.0</ele><time>2026-04-20T08:58:18.931Z</time></trkpt><trkpt lat="43.339855" lon="11.47039"><ele>233.0</ele><time>2026-04-20T08:58:19.931Z</time></trkpt><trkpt lat="43.3398567" lon="11.4702317"><ele>233.0</ele><time>2026-04-20T08:58:20.931Z</time></trkpt><trkpt lat="43.3398817" lon="11.4700667"><ele>232.75</ele><time>2026-04-20T08:58:21.932Z</time></trkpt><trkpt lat="43.3399283" lon="11.469895"><ele>232.5</ele><time>2026-04-20T08:58:22.931Z</time></trkpt><trkpt lat="43.33999" lon="11.469725"><ele>232.25</ele><time>2026-04-20T08:58:23.931Z</time></trkpt><trkpt lat="43.34006" lon="11.4695533"><ele>232.0</ele><time>2026-04-20T08:58:24.931Z</time></trkpt><trkpt lat="43.3401483" lon="11.469415"><ele>232.0</ele><time>2026-04-20T08:58:25.932Z</time></trkpt><trkpt lat="43.340245" lon="11.46932"><ele>232.0</ele><time>2026-04-20T08:58:26.931Z</time></trkpt><trkpt lat="43.340345" lon="11.4692517"><ele>232.0</ele><time>2026-04-20T08:58:27.932Z</time></trkpt><trkpt lat="43.3404583" lon="11.4692067"><ele>232.0</ele><time>2026-04-20T08:58:28.931Z</time></trkpt><trkpt lat="43.3405783" lon="11.4691933"><ele>233.5</ele><time>2026-04-20T08:58:29.932Z</time></trkpt><trkpt lat="43.3406933" lon="11.46922"><ele>235.0</ele><time>2026-04-20T08:58:30.931Z</time></trkpt><trkpt lat="43.3408083" lon="11.469265"><ele>236.5</ele><time>2026-04-20T08:58:31.931Z</time></trkpt><trkpt lat="43.3409283" lon="11.469315"><ele>238.0</ele><time>2026-04-20T08:58:32.931Z</time></trkpt><trkpt lat="43.3410467" lon="11.46937"><ele>238.0</ele><time>2026-04-20T08:58:33.931Z</time></trkpt><trkpt lat="43.341165" lon="11.469405"><ele>238.0</ele><time>2026-04-20T08:58:34.932Z</time></trkpt><trkpt lat="43.3412967" lon="11.4694117"><ele>238.0</ele><time>2026-04-20T08:58:35.931Z</time></trkpt><trkpt lat="43.3414267" lon="11.469385"><ele>238.0</ele><time>2026-04-20T08:58:36.931Z</time></trkpt><trkpt lat="43.3415467" lon="11.4693183"><ele>239.0</ele><time>2026-04-20T08:58:37.931Z</time></trkpt><trkpt lat="43.3416583" lon="11.4692333"><ele>240.0</ele><time>2026-04-20T08:58:38.932Z</time></trkpt><trkpt lat="43.3417633" lon="11.469115"><ele>241.0</ele><time>2026-04-20T08:58:39.931Z</time></trkpt><trkpt lat="43.3418367" lon="11.4689733"><ele>242.0</ele><time>2026-04-20T08:58:40.931Z</time></trkpt><trkpt lat="43.3418817" lon="11.468805"><ele>241.75</ele><time>2026-04-20T08:58:41.931Z</time></trkpt><trkpt lat="43.34189" lon="11.4686217"><ele>241.5</ele><time>2026-04-20T08:58:42.931Z</time></trkpt><trkpt lat="43.341875" lon="11.46842"><ele>241.25</ele><time>2026-04-20T08:58:43.931Z</time></trkpt><trkpt lat="43.3418567" lon="11.46822"><ele>241.0</ele><time>2026-04-20T08:58:44.931Z</time></trkpt><trkpt lat="43.3418483" lon="11.4680117"><ele>243.0</ele><time>2026-04-20T08:58:45.932Z</time></trkpt><trkpt lat="43.3418383" lon="11.467795"><ele>245.0</ele><time>2026-04-20T08:58:46.931Z</time></trkpt><trkpt lat="43.34183" lon="11.4675567"><ele>247.0</ele><time>2026-04-20T08:58:47.931Z</time></trkpt><trkpt lat="43.341825" lon="11.4673233"><ele>249.0</ele><time>2026-04-20T08:58:48.932Z</time></trkpt><trkpt lat="43.3418217" lon="11.4670867"><ele>251.0</ele><time>2026-04-20T08:58:49.932Z</time></trkpt><trkpt lat="43.3418067" lon="11.4668467"><ele>253.0</ele><time>2026-04-20T08:58:50.931Z</time></trkpt><trkpt lat="43.341795" lon="11.4666033"><ele>253.0</ele><time>2026-04-20T08:58:51.931Z</time></trkpt><trkpt lat="43.3417517" lon="11.4663717"><ele>253.0</ele><time>2026-04-20T08:58:52.931Z</time></trkpt><trkpt lat="43.3416833" lon="11.4661617"><ele>253.0</ele><time>2026-04-20T08:58:53.93Z</time></trkpt><trkpt lat="43.341605" lon="11.4659717"><ele>253.5</ele><time>2026-04-20T08:58:54.93Z</time></trkpt><trkpt lat="43.3415333" lon="11.4657967"><ele>254.0</ele><time>2026-04-20T08:58:55.93Z</time></trkpt><trkpt lat="43.3414783" lon="11.4656233"><ele>254.5</ele><time>2026-04-20T08:58:56.93Z</time></trkpt><trkpt lat="43.34145" lon="11.465475"><ele>255.0</ele><time>2026-04-20T08:58:57.931Z</time></trkpt><trkpt lat="43.3414433" lon="11.4653367"><ele>255.4</ele><time>2026-04-20T08:58:58.93Z</time></trkpt><trkpt lat="43.3414733" lon="11.4651917"><ele>255.8</ele><time>2026-04-20T08:58:59.93Z</time></trkpt><trkpt lat="43.3415383" lon="11.4650733"><ele>256.2</ele><time>2026-04-20T08:59:00.93Z</time></trkpt><trkpt lat="43.3416267" lon="11.4649817"><ele>256.6</ele><time>2026-04-20T08:59:01.93Z</time></trkpt><trkpt lat="43.34174" lon="11.4649333"><ele>257.0</ele><time>2026-04-20T08:59:02.931Z</time></trkpt><trkpt lat="43.3418517" lon="11.4649333"><ele>257.0</ele><time>2026-04-20T08:59:03.931Z</time></trkpt><trkpt lat="43.3419517" lon="11.4649717"><ele>257.0</ele><time>2026-04-20T08:59:04.931Z</time></trkpt><trkpt lat="43.34206" lon="11.4650633"><ele>257.0</ele><time>2026-04-20T08:59:05.93Z</time></trkpt><trkpt lat="43.3421583" lon="11.46518"><ele>257.0</ele><time>2026-04-20T08:59:06.93Z</time></trkpt><trkpt lat="43.34226" lon="11.46531"><ele>257.75</ele><time>2026-04-20T08:59:07.931Z</time></trkpt><trkpt lat="43.3423633" lon="11.46543"><ele>258.5</ele><time>2026-04-20T08:59:08.931Z</time></trkpt><trkpt lat="43.342465" lon="11.4655317"><ele>259.25</ele><time>2026-04-20T08:59:09.93Z</time></trkpt><trkpt lat="43.342565" lon="11.4655983"><ele>260.0</ele><time>2026-04-20T08:59:10.931Z</time></trkpt><trkpt lat="43.34268" lon="11.46565"><ele>260.0</ele><time>2026-04-20T08:59:11.93Z</time></trkpt><trkpt lat="43.342805" lon="11.46568"><ele>260.0</ele><time>2026-04-20T08:59:12.93Z</time></trkpt><trkpt lat="43.34293" lon="11.4656567"><ele>260.0</ele><time>2026-04-20T08:59:13.931Z</time></trkpt><trkpt lat="43.343055" lon="11.4655867"><ele>260.0</ele><time>2026-04-20T08:59:14.93Z</time></trkpt><trkpt lat="43.3431767" lon="11.4655083"><ele>261.6666666666667</ele><time>2026-04-20T08:59:15.931Z</time></trkpt><trkpt lat="43.34331" lon="11.4654283"><ele>263.3333333333333</ele><time>2026-04-20T08:59:16.93Z</time></trkpt><trkpt lat="43.3434633" lon="11.4653833"><ele>265.0</ele><time>2026-04-20T08:59:17.93Z</time></trkpt><trkpt lat="43.34362" lon="11.465385"><ele>265.0</ele><time>2026-04-20T08:59:18.93Z</time></trkpt><trkpt lat="43.3437817" lon="11.4654033"><ele>265.0</ele><time>2026-04-20T08:59:19.93Z</time></trkpt><trkpt lat="43.3439533" lon="11.465455"><ele>265.0</ele><time>2026-04-20T08:59:20.93Z</time></trkpt><trkpt lat="43.3441283" lon="11.4655033"><ele>264.66666666666663</ele><time>2026-04-20T08:59:21.93Z</time></trkpt><trkpt lat="43.3443083" lon="11.46554"><ele>264.3333333333333</ele><time>2026-04-20T08:59:22.93Z</time></trkpt><trkpt lat="43.3444833" lon="11.4655833"><ele>264.0</ele><time>2026-04-20T08:59:23.931Z</time></trkpt><trkpt lat="43.3446483" lon="11.4656233"><ele>266.6666666666667</ele><time>2026-04-20T08:59:24.93Z</time></trkpt><trkpt lat="43.34481" lon="11.465675"><ele>269.33333333333337</ele><time>2026-04-20T08:59:25.93Z</time></trkpt><trkpt lat="43.3449667" lon="11.465745"><ele>272.0</ele><time>2026-04-20T08:59:26.931Z</time></trkpt><trkpt lat="43.34512" lon="11.465825"><ele>272.0</ele><time>2026-04-20T08:59:27.931Z</time></trkpt><trkpt lat="43.34526" lon="11.465915"><ele>272.0</ele><time>2026-04-20T08:59:28.93Z</time></trkpt><trkpt lat="43.3453917" lon="11.4659783"><ele>272.0</ele><time>2026-04-20T08:59:29.93Z</time></trkpt><trkpt lat="43.3455083" lon="11.46601"><ele>272.0</ele><time>2026-04-20T08:59:30.93Z</time></trkpt><trkpt lat="43.3456167" lon="11.4660233"><ele>273.25</ele><time>2026-04-20T08:59:31.93Z</time></trkpt><trkpt lat="43.3457267" lon="11.466"><ele>274.5</ele><time>2026-04-20T08:59:32.93Z</time></trkpt><trkpt lat="43.3458383" lon="11.46598"><ele>275.75</ele><time>2026-04-20T08:59:33.93Z</time></trkpt><trkpt lat="43.3459567" lon="11.4659517"><ele>277.0</ele><time>2026-04-20T08:59:34.931Z</time></trkpt><trkpt lat="43.3460767" lon="11.4659233"><ele>277.0</ele><time>2026-04-20T08:59:35.93Z</time></trkpt><trkpt lat="43.346205" lon="11.4659117"><ele>277.0</ele><time>2026-04-20T08:59:36.93Z</time></trkpt><trkpt lat="43.3463333" lon="11.46592"><ele>277.0</ele><time>2026-04-20T08:59:37.93Z</time></trkpt><trkpt lat="43.3464583" lon="11.4659283"><ele>277.0</ele><time>2026-04-20T08:59:38.93Z</time></trkpt><trkpt lat="43.3465867" lon="11.4659167"><ele>276.75</ele><time>2026-04-20T08:59:39.931Z</time></trkpt><trkpt lat="43.3467133" lon="11.4658817"><ele>276.5</ele><time>2026-04-20T08:59:40.93Z</time></trkpt><trkpt lat="43.3468383" lon="11.4658083"><ele>276.25</ele><time>2026-04-20T08:59:41.931Z</time></trkpt><trkpt lat="43.34695" lon="11.4656917"><ele>276.0</ele><time>2026-04-20T08:59:42.931Z</time></trkpt><trkpt lat="43.3470517" lon="11.46556"><ele>275.25</ele><time>2026-04-20T08:59:43.93Z</time></trkpt><trkpt lat="43.34715" lon="11.4654167"><ele>274.5</ele><time>2026-04-20T08:59:44.93Z</time></trkpt><trkpt lat="43.3472467" lon="11.46527"><ele>273.75</ele><time>2026-04-20T08:59:45.931Z</time></trkpt><trkpt lat="43.3473367" lon="11.4651283"><ele>273.0</ele><time>2026-04-20T08:59:46.93Z</time></trkpt><trkpt lat="43.3474267" lon="11.4649933"><ele>274.0</ele><time>2026-04-20T08:59:47.931Z</time></trkpt><trkpt lat="43.3475133" lon="11.4648617"><ele>275.0</ele><time>2026-04-20T08:59:48.93Z</time></trkpt><trkpt lat="43.34761" lon="11.4647283"><ele>276.0</ele><time>2026-04-20T08:59:49.93Z</time></trkpt><trkpt lat="43.3477167" lon="11.4646283"><ele>277.0</ele><time>2026-04-20T08:59:50.93Z</time></trkpt><trkpt lat="43.3478333" lon="11.46455"><ele>277.0</ele><time>2026-04-20T08:59:51.93Z</time></trkpt><trkpt lat="43.3479517" lon="11.4644983"><ele>277.0</ele><time>2026-04-20T08:59:52.931Z</time></trkpt><trkpt lat="43.3480817" lon="11.4644717"><ele>277.0</ele><time>2026-04-20T08:59:53.931Z</time></trkpt><trkpt lat="43.3482217" lon="11.4644617"><ele>277.0</ele><time>2026-04-20T08:59:54.93Z</time></trkpt><trkpt lat="43.348365" lon="11.46446"><ele>279.25</ele><time>2026-04-20T08:59:55.93Z</time></trkpt><trkpt lat="43.3485067" lon="11.4644567"><ele>281.5</ele><time>2026-04-20T08:59:56.931Z</time></trkpt><trkpt lat="43.3486517" lon="11.46445"><ele>283.75</ele><time>2026-04-20T08:59:57.93Z</time></trkpt><trkpt lat="43.3487867" lon="11.4644633"><ele>286.0</ele><time>2026-04-20T08:59:58.93Z</time></trkpt><trkpt lat="43.3489033" lon="11.464495"><ele>287.5</ele><time>2026-04-20T08:59:59.93Z</time></trkpt><trkpt lat="43.3490133" lon="11.464545"><ele>289.0</ele><time>2026-04-20T09:00:00.931Z</time></trkpt><trkpt lat="43.3491267" lon="11.4646317"><ele>290.5</ele><time>2026-04-20T09:00:01.93Z</time></trkpt><trkpt lat="43.3492433" lon="11.46474"><ele>292.0</ele><time>2026-04-20T09:00:02.931Z</time></trkpt><trkpt lat="43.34935" lon="11.4648517"><ele>295.0</ele><time>2026-04-20T09:00:03.93Z</time></trkpt><trkpt lat="43.349455" lon="11.46494"><ele>298.0</ele><time>2026-04-20T09:00:04.93Z</time></trkpt><trkpt lat="43.349565" lon="11.465005"><ele>301.0</ele><time>2026-04-20T09:00:05.93Z</time></trkpt><trkpt lat="43.3496783" lon="11.4650283"><ele>304.0</ele><time>2026-04-20T09:00:06.93Z</time></trkpt><trkpt lat="43.34979" lon="11.4650067"><ele>303.59999999999997</ele><time>2026-04-20T09:00:07.93Z</time></trkpt><trkpt lat="43.3498867" lon="11.4649433"><ele>303.2</ele><time>2026-04-20T09:00:08.93Z</time></trkpt><trkpt lat="43.3499683" lon="11.4648517"><ele>302.79999999999995</ele><time>2026-04-20T09:00:09.93Z</time></trkpt><trkpt lat="43.350025" lon="11.4647317"><ele>302.4</ele><time>2026-04-20T09:00:10.93Z</time></trkpt><trkpt lat="43.3500567" lon="11.4645833"><ele>302.0</ele><time>2026-04-20T09:00:11.931Z</time></trkpt><trkpt lat="43.3500783" lon="11.4644067"><ele>302.0</ele><time>2026-04-20T09:00:12.93Z</time></trkpt><trkpt lat="43.35011" lon="11.4642483"><ele>302.0</ele><time>2026-04-20T09:00:13.93Z</time></trkpt><trkpt lat="43.3501717" lon="11.4641"><ele>302.0</ele><time>2026-04-20T09:00:14.93Z</time></trkpt><trkpt lat="43.3502567" lon="11.463985"><ele>302.0</ele><time>2026-04-20T09:00:15.93Z</time></trkpt><trkpt lat="43.3503583" lon="11.4638867"><ele>302.0</ele><time>2026-04-20T09:00:16.93Z</time></trkpt><trkpt lat="43.3504567" lon="11.4637967"><ele>302.0</ele><time>2026-04-20T09:00:17.93Z</time></trkpt><trkpt lat="43.3505267" lon="11.4636967"><ele>302.0</ele><time>2026-04-20T09:00:18.93Z</time></trkpt><trkpt lat="43.3505633" lon="11.4635567"><ele>302.0</ele><time>2026-04-20T09:00:19.93Z</time></trkpt><trkpt lat="43.3505483" lon="11.46341"><ele>302.0</ele><time>2026-04-20T09:00:20.93Z</time></trkpt><trkpt lat="43.3505" lon="11.4632567"><ele>301.25</ele><time>2026-04-20T09:00:21.93Z</time></trkpt><trkpt lat="43.3504217" lon="11.463115"><ele>300.5</ele><time>2026-04-20T09:00:22.93Z</time></trkpt><trkpt lat="43.3503083" lon="11.4630033"><ele>299.75</ele><time>2026-04-20T09:00:23.93Z</time></trkpt><trkpt lat="43.3502183" lon="11.462905"><ele>299.0</ele><time>2026-04-20T09:00:24.931Z</time></trkpt><trkpt lat="43.3501483" lon="11.4627933"><ele>300.59999999999997</ele><time>2026-04-20T09:00:25.931Z</time></trkpt><trkpt lat="43.3501117" lon="11.462685"><ele>302.2</ele><time>2026-04-20T09:00:26.93Z</time></trkpt><trkpt lat="43.3501117" lon="11.46258"><ele>303.79999999999995</ele><time>2026-04-20T09:00:27.931Z</time></trkpt><trkpt lat="43.3501617" lon="11.4624917"><ele>305.4</ele><time>2026-04-20T09:00:28.931Z</time></trkpt><trkpt lat="43.35024" lon="11.4624283"><ele>307.0</ele><time>2026-04-20T09:00:29.93Z</time></trkpt><trkpt lat="43.35035" lon="11.462375"><ele>307.0</ele><time>2026-04-20T09:00:30.93Z</time></trkpt><trkpt lat="43.3504717" lon="11.46233"><ele>307.0</ele><time>2026-04-20T09:00:31.93Z</time></trkpt><trkpt lat="43.3506033" lon="11.4622733"><ele>307.0</ele><time>2026-04-20T09:00:32.93Z</time></trkpt><trkpt lat="43.3507317" lon="11.4622233"><ele>307.0</ele><time>2026-04-20T09:00:33.93Z</time></trkpt><trkpt lat="43.3508533" lon="11.462155"><ele>307.0</ele><time>2026-04-20T09:00:34.93Z</time></trkpt><trkpt lat="43.3509883" lon="11.46207"><ele>307.0</ele><time>2026-04-20T09:00:35.93Z</time></trkpt><trkpt lat="43.3511167" lon="11.4619583"><ele>307.0</ele><time>2026-04-20T09:00:36.931Z</time></trkpt><trkpt lat="43.3512333" lon="11.4618683"><ele>307.0</ele><time>2026-04-20T09:00:37.93Z</time></trkpt><trkpt lat="43.3513417" lon="11.4618017"><ele>308.2</ele><time>2026-04-20T09:00:38.93Z</time></trkpt><trkpt lat="43.3514383" lon="11.4617733"><ele>309.4</ele><time>2026-04-20T09:00:39.93Z</time></trkpt><trkpt lat="43.3515383" lon="11.461795"><ele>310.6</ele><time>2026-04-20T09:00:40.931Z</time></trkpt><trkpt lat="43.3516433" lon="11.46184"><ele>311.8</ele><time>2026-04-20T09:00:41.93Z</time></trkpt><trkpt lat="43.3517383" lon="11.4618883"><ele>313.0</ele><time>2026-04-20T09:00:42.93Z</time></trkpt><trkpt lat="43.3518383" lon="11.4619183"><ele>313.0</ele><time>2026-04-20T09:00:43.93Z</time></trkpt><trkpt lat="43.3519567" lon="11.4619167"><ele>313.0</ele><time>2026-04-20T09:00:44.93Z</time></trkpt><trkpt lat="43.3520583" lon="11.461885"><ele>313.0</ele><time>2026-04-20T09:00:45.93Z</time></trkpt><trkpt lat="43.3521483" lon="11.46182"><ele>313.0</ele><time>2026-04-20T09:00:46.93Z</time></trkpt><trkpt lat="43.3522433" lon="11.4617467"><ele>313.0</ele><time>2026-04-20T09:00:47.93Z</time></trkpt><trkpt lat="43.352335" lon="11.4616767"><ele>313.8</ele><time>2026-04-20T09:00:48.93Z</time></trkpt><trkpt lat="43.3524233" lon="11.4616333"><ele>314.6</ele><time>2026-04-20T09:00:49.93Z</time></trkpt><trkpt lat="43.3525217" lon="11.4615933"><ele>315.4</ele><time>2026-04-20T09:00:50.93Z</time></trkpt><trkpt lat="43.3526167" lon="11.4615567"><ele>316.2</ele><time>2026-04-20T09:00:51.93Z</time></trkpt><trkpt lat="43.35271" lon="11.461535"><ele>317.0</ele><time>2026-04-20T09:00:52.93Z</time></trkpt><trkpt lat="43.3527933" lon="11.4615017"><ele>317.0</ele><time>2026-04-20T09:00:53.931Z</time></trkpt><trkpt lat="43.352865" lon="11.4614433"><ele>317.0</ele><time>2026-04-20T09:00:54.931Z</time></trkpt><trkpt lat="43.352915" lon="11.4613617"><ele>317.0</ele><time>2026-04-20T09:00:55.931Z</time></trkpt><trkpt lat="43.35294" lon="11.46128"><ele>317.0</ele><time>2026-04-20T09:00:56.93Z</time></trkpt><trkpt lat="43.3529583" lon="11.4611567"><ele>317.0</ele><time>2026-04-20T09:00:57.93Z</time></trkpt><trkpt lat="43.3529683" lon="11.4610183"><ele>317.0</ele><time>2026-04-20T09:00:58.93Z</time></trkpt><trkpt lat="43.3529983" lon="11.4608933"><ele>316.2</ele><time>2026-04-20T09:00:59.93Z</time></trkpt><trkpt lat="43.3530533" lon="11.4607883"><ele>315.4</ele><time>2026-04-20T09:01:00.931Z</time></trkpt><trkpt lat="43.3531217" lon="11.4607033"><ele>314.6</ele><time>2026-04-20T09:01:01.931Z</time></trkpt><trkpt lat="43.3532017" lon="11.4606517"><ele>313.8</ele><time>2026-04-20T09:01:02.93Z</time></trkpt><trkpt lat="43.353295" lon="11.4606333"><ele>313.0</ele><time>2026-04-20T09:01:03.93Z</time></trkpt><trkpt lat="43.3533883" lon="11.46063"><ele>313.0</ele><time>2026-04-20T09:01:04.93Z</time></trkpt><trkpt lat="43.35348" lon="11.4606333"><ele>313.0</ele><time>2026-04-20T09:01:05.93Z</time></trkpt><trkpt lat="43.3535733" lon="11.46063"><ele>313.0</ele><time>2026-04-20T09:01:06.93Z</time></trkpt><trkpt lat="43.3536633" lon="11.46059"><ele>313.0</ele><time>2026-04-20T09:01:07.93Z</time></trkpt><trkpt lat="43.3537367" lon="11.4605333"><ele>313.0</ele><time>2026-04-20T09:01:08.93Z</time></trkpt><trkpt lat="43.353795" lon="11.4604567"><ele>313.0</ele><time>2026-04-20T09:01:09.93Z</time></trkpt><trkpt lat="43.35381" lon="11.46035"><ele>309.5</ele><time>2026-04-20T09:01:10.93Z</time></trkpt><trkpt lat="43.3538033" lon="11.460235"><ele>306.0</ele><time>2026-04-20T09:01:11.93Z</time></trkpt><trkpt lat="43.35377" lon="11.460115"><ele>302.5</ele><time>2026-04-20T09:01:12.93Z</time></trkpt><trkpt lat="43.353695" lon="11.459985"><ele>299.0</ele><time>2026-04-20T09:01:13.93Z</time></trkpt><trkpt lat="43.3535783" lon="11.4598483"><ele>299.0</ele><time>2026-04-20T09:01:14.93Z</time></trkpt><trkpt lat="43.353465" lon="11.459715"><ele>299.0</ele><time>2026-04-20T09:01:15.93Z</time></trkpt><trkpt lat="43.3533583" lon="11.4595933"><ele>299.0</ele><time>2026-04-20T09:01:16.931Z</time></trkpt><trkpt lat="43.353255" lon="11.4594633"><ele>299.0</ele><time>2026-04-20T09:01:17.93Z</time></trkpt><trkpt lat="43.3531633" lon="11.4593317"><ele>299.0</ele><time>2026-04-20T09:01:18.93Z</time></trkpt><trkpt lat="43.35308" lon="11.4591983"><ele>299.0</ele><time>2026-04-20T09:01:19.93Z</time></trkpt><trkpt lat="43.3529933" lon="11.4590533"><ele>299.0</ele><time>2026-04-20T09:01:20.93Z</time></trkpt><trkpt lat="43.35292" lon="11.45889"><ele>299.0</ele><time>2026-04-20T09:01:21.931Z</time></trkpt><trkpt lat="43.3528517" lon="11.4587167"><ele>295.25</ele><time>2026-04-20T09:01:22.93Z</time></trkpt><trkpt lat="43.35278" lon="11.4585417"><ele>291.5</ele><time>2026-04-20T09:01:23.93Z</time></trkpt><trkpt lat="43.35272" lon="11.458365"><ele>287.75</ele><time>2026-04-20T09:01:24.93Z</time></trkpt><trkpt lat="43.352655" lon="11.4581933"><ele>284.0</ele><time>2026-04-20T09:01:25.931Z</time></trkpt><trkpt lat="43.3525917" lon="11.4580233"><ele>283.75</ele><time>2026-04-20T09:01:26.93Z</time></trkpt><trkpt lat="43.35253" lon="11.45786"><ele>283.5</ele><time>2026-04-20T09:01:27.93Z</time></trkpt><trkpt lat="43.3524683" lon="11.4576983"><ele>283.25</ele><time>2026-04-20T09:01:28.93Z</time></trkpt><trkpt lat="43.352425" lon="11.4575367"><ele>283.0</ele><time>2026-04-20T09:01:29.93Z</time></trkpt><trkpt lat="43.352385" lon="11.4573867"><ele>283.0</ele><time>2026-04-20T09:01:30.93Z</time></trkpt><trkpt lat="43.3523467" lon="11.4572417"><ele>283.0</ele><time>2026-04-20T09:01:31.93Z</time></trkpt><trkpt lat="43.352305" lon="11.4570983"><ele>283.0</ele><time>2026-04-20T09:01:32.93Z</time></trkpt><trkpt lat="43.3522617" lon="11.4569517"><ele>283.0</ele><time>2026-04-20T09:01:33.93Z</time></trkpt><trkpt lat="43.3522417" lon="11.4567967"><ele>281.6</ele><time>2026-04-20T09:01:34.93Z</time></trkpt><trkpt lat="43.3522433" lon="11.45664"><ele>280.20000000000005</ele><time>2026-04-20T09:01:35.93Z</time></trkpt><trkpt lat="43.35227" lon="11.4564933"><ele>278.8</ele><time>2026-04-20T09:01:36.93Z</time></trkpt><trkpt lat="43.3523117" lon="11.4563517"><ele>277.40000000000003</ele><time>2026-04-20T09:01:37.93Z</time></trkpt><trkpt lat="43.35237" lon="11.4562283"><ele>276.0</ele><time>2026-04-20T09:01:38.93Z</time></trkpt><trkpt lat="43.3524383" lon="11.4561433"><ele>274.40000000000003</ele><time>2026-04-20T09:01:39.93Z</time></trkpt><trkpt lat="43.3525217" lon="11.4561033"><ele>272.8</ele><time>2026-04-20T09:01:40.93Z</time></trkpt><trkpt lat="43.35261" lon="11.4561133"><ele>271.20000000000005</ele><time>2026-04-20T09:01:41.93Z</time></trkpt><trkpt lat="43.3526983" lon="11.456155"><ele>269.6</ele><time>2026-04-20T09:01:42.93Z</time></trkpt><trkpt lat="43.3527967" lon="11.4561617"><ele>268.0</ele><time>2026-04-20T09:01:43.93Z</time></trkpt><trkpt lat="43.3528967" lon="11.4561467"><ele>268.0</ele><time>2026-04-20T09:01:44.93Z</time></trkpt><trkpt lat="43.35299" lon="11.4560933"><ele>268.0</ele><time>2026-04-20T09:01:45.93Z</time></trkpt><trkpt lat="43.3530667" lon="11.4560067"><ele>268.0</ele><time>2026-04-20T09:01:46.931Z</time></trkpt><trkpt lat="43.3531283" lon="11.4558883"><ele>268.0</ele><time>2026-04-20T09:01:47.93Z</time></trkpt><trkpt lat="43.3531867" lon="11.4557367"><ele>268.0</ele><time>2026-04-20T09:01:48.931Z</time></trkpt><trkpt lat="43.35325" lon="11.45558"><ele>266.6</ele><time>2026-04-20T09:01:49.93Z</time></trkpt><trkpt lat="43.353295" lon="11.4554383"><ele>265.20000000000005</ele><time>2026-04-20T09:01:50.93Z</time></trkpt><trkpt lat="43.3533317" lon="11.4553167"><ele>263.8</ele><time>2026-04-20T09:01:51.931Z</time></trkpt><trkpt lat="43.3533783" lon="11.4552117"><ele>262.40000000000003</ele><time>2026-04-20T09:01:52.93Z</time></trkpt><trkpt lat="43.353435" lon="11.4551283"><ele>261.0</ele><time>2026-04-20T09:01:53.93Z</time></trkpt><trkpt lat="43.3535117" lon="11.4550883"><ele>261.0</ele><time>2026-04-20T09:01:54.93Z</time></trkpt><trkpt lat="43.353595" lon="11.4550933"><ele>261.0</ele><time>2026-04-20T09:01:55.93Z</time></trkpt><trkpt lat="43.3536717" lon="11.4551417"><ele>261.0</ele><time>2026-04-20T09:01:56.93Z</time></trkpt><trkpt lat="43.3537417" lon="11.4552283"><ele>261.0</ele><time>2026-04-20T09:01:57.931Z</time></trkpt><trkpt lat="43.3538" lon="11.4553433"><ele>261.0</ele><time>2026-04-20T09:01:58.93Z</time></trkpt><trkpt lat="43.35386" lon="11.4554567"><ele>261.0</ele><time>2026-04-20T09:01:59.93Z</time></trkpt><trkpt lat="43.35392" lon="11.4555417"><ele>261.0</ele><time>2026-04-20T09:02:00.931Z</time></trkpt><trkpt lat="43.353985" lon="11.4555883"><ele>261.0</ele><time>2026-04-20T09:02:01.93Z</time></trkpt><trkpt lat="43.354055" lon="11.4555833"><ele>261.0</ele><time>2026-04-20T09:02:02.931Z</time></trkpt><trkpt lat="43.354115" lon="11.4555333"><ele>261.0</ele><time>2026-04-20T09:02:03.93Z</time></trkpt><trkpt lat="43.3541517" lon="11.4554533"><ele>261.0</ele><time>2026-04-20T09:02:04.93Z</time></trkpt><trkpt lat="43.3541433" lon="11.45534"><ele>261.0</ele><time>2026-04-20T09:02:05.93Z</time></trkpt><trkpt lat="43.354115" lon="11.45522"><ele>261.0</ele><time>2026-04-20T09:02:06.93Z</time></trkpt><trkpt lat="43.3540733" lon="11.4550733"><ele>261.0</ele><time>2026-04-20T09:02:07.93Z</time></trkpt><trkpt lat="43.3540267" lon="11.4549133"><ele>261.0</ele><time>2026-04-20T09:02:08.931Z</time></trkpt><trkpt lat="43.3539867" lon="11.4547517"><ele>259.25</ele><time>2026-04-20T09:02:09.931Z</time></trkpt><trkpt lat="43.3539417" lon="11.45458"><ele>257.5</ele><time>2026-04-20T09:02:10.93Z</time></trkpt><trkpt lat="43.35389" lon="11.4543933"><ele>255.75</ele><time>2026-04-20T09:02:11.93Z</time></trkpt><trkpt lat="43.35383" lon="11.4541967"><ele>254.0</ele><time>2026-04-20T09:02:12.93Z</time></trkpt><trkpt lat="43.3537483" lon="11.4540017"><ele>253.66666666666669</ele><time>2026-04-20T09:02:13.93Z</time></trkpt><trkpt lat="43.353655" lon="11.453815"><ele>253.33333333333331</ele><time>2026-04-20T09:02:14.93Z</time></trkpt><trkpt lat="43.353565" lon="11.4536467"><ele>253.0</ele><time>2026-04-20T09:02:15.93Z</time></trkpt><trkpt lat="43.35347" lon="11.4534883"><ele>252.25</ele><time>2026-04-20T09:02:16.93Z</time></trkpt><trkpt lat="43.3533717" lon="11.453325"><ele>251.5</ele><time>2026-04-20T09:02:17.93Z</time></trkpt><trkpt lat="43.353275" lon="11.4531833"><ele>250.75</ele><time>2026-04-20T09:02:18.93Z</time></trkpt><trkpt lat="43.3531767" lon="11.453065"><ele>250.0</ele><time>2026-04-20T09:02:19.93Z</time></trkpt><trkpt lat="43.3530733" lon="11.452945"><ele>247.0</ele><time>2026-04-20T09:02:20.93Z</time></trkpt><trkpt lat="43.3529933" lon="11.4528133"><ele>244.0</ele><time>2026-04-20T09:02:21.93Z</time></trkpt><trkpt lat="43.35291" lon="11.4526617"><ele>241.0</ele><time>2026-04-20T09:02:22.93Z</time></trkpt><trkpt lat="43.3528367" lon="11.4524983"><ele>238.0</ele><time>2026-04-20T09:02:23.931Z</time></trkpt><trkpt lat="43.3527617" lon="11.4523233"><ele>238.0</ele><time>2026-04-20T09:02:24.93Z</time></trkpt><trkpt lat="43.352705" lon="11.4521467"><ele>238.0</ele><time>2026-04-20T09:02:25.931Z</time></trkpt><trkpt lat="43.3526767" lon="11.4519467"><ele>238.0</ele><time>2026-04-20T09:02:26.93Z</time></trkpt><trkpt lat="43.3526717" lon="11.4517533"><ele>238.0</ele><time>2026-04-20T09:02:27.93Z</time></trkpt><trkpt lat="43.352685" lon="11.4515617"><ele>235.66666666666666</ele><time>2026-04-20T09:02:28.93Z</time></trkpt><trkpt lat="43.3527083" lon="11.4513517"><ele>233.33333333333331</ele><time>2026-04-20T09:02:29.93Z</time></trkpt><trkpt lat="43.3527367" lon="11.4511433"><ele>231.0</ele><time>2026-04-20T09:02:30.931Z</time></trkpt><trkpt lat="43.3527633" lon="11.4509317"><ele>229.66666666666669</ele><time>2026-04-20T09:02:31.93Z</time></trkpt><trkpt lat="43.352785" lon="11.4507083"><ele>228.33333333333334</ele><time>2026-04-20T09:02:32.93Z</time></trkpt><trkpt lat="43.3528017" lon="11.4504867"><ele>227.0</ele><time>2026-04-20T09:02:33.93Z</time></trkpt><trkpt lat="43.3528233" lon="11.4502717"><ele>226.75</ele><time>2026-04-20T09:02:34.93Z</time></trkpt><trkpt lat="43.3528467" lon="11.4500567"><ele>226.5</ele><time>2026-04-20T09:02:35.93Z</time></trkpt><trkpt lat="43.3528633" lon="11.4498583"><ele>226.25</ele><time>2026-04-20T09:02:36.93Z</time></trkpt><trkpt lat="43.3528667" lon="11.44966"><ele>226.0</ele><time>2026-04-20T09:02:37.93Z</time></trkpt><trkpt lat="43.352835" lon="11.4494783"><ele>227.5</ele><time>2026-04-20T09:02:38.931Z</time></trkpt><trkpt lat="43.352775" lon="11.4493217"><ele>229.0</ele><time>2026-04-20T09:02:39.93Z</time></trkpt><trkpt lat="43.3526917" lon="11.4491817"><ele>230.5</ele><time>2026-04-20T09:02:40.93Z</time></trkpt><trkpt lat="43.3525883" lon="11.4490533"><ele>232.0</ele><time>2026-04-20T09:02:41.93Z</time></trkpt><trkpt lat="43.3524617" lon="11.4489483"><ele>232.0</ele><time>2026-04-20T09:02:42.93Z</time></trkpt><trkpt lat="43.35232" lon="11.448855"><ele>232.0</ele><time>2026-04-20T09:02:43.93Z</time></trkpt><trkpt lat="43.3521767" lon="11.4487767"><ele>232.0</ele><time>2026-04-20T09:02:44.93Z</time></trkpt><trkpt lat="43.3520583" lon="11.4486783"><ele>232.5</ele><time>2026-04-20T09:02:45.93Z</time></trkpt><trkpt lat="43.35196" lon="11.4485633"><ele>233.0</ele><time>2026-04-20T09:02:46.931Z</time></trkpt><trkpt lat="43.3518833" lon="11.4484433"><ele>233.5</ele><time>2026-04-20T09:02:47.93Z</time></trkpt><trkpt lat="43.3518367" lon="11.4482883"><ele>234.0</ele><time>2026-04-20T09:02:48.93Z</time></trkpt><trkpt lat="43.3518067" lon="11.4481167"><ele>234.0</ele><time>2026-04-20T09:02:49.93Z</time></trkpt><trkpt lat="43.351795" lon="11.4479183"><ele>234.0</ele><time>2026-04-20T09:02:50.93Z</time></trkpt><trkpt lat="43.3517983" lon="11.4477117"><ele>234.0</ele><time>2026-04-20T09:02:51.93Z</time></trkpt><trkpt lat="43.351795" lon="11.4474883"><ele>234.0</ele><time>2026-04-20T09:02:52.931Z</time></trkpt><trkpt lat="43.3517883" lon="11.4472717"><ele>234.0</ele><time>2026-04-20T09:02:53.93Z</time></trkpt><trkpt lat="43.3517867" lon="11.4470617"><ele>234.0</ele><time>2026-04-20T09:02:54.931Z</time></trkpt><trkpt lat="43.3517817" lon="11.4468283"><ele>234.33333333333331</ele><time>2026-04-20T09:02:55.93Z</time></trkpt><trkpt lat="43.3517833" lon="11.4465883"><ele>234.66666666666666</ele><time>2026-04-20T09:02:56.93Z</time></trkpt><trkpt lat="43.35178" lon="11.4463483"><ele>235.0</ele><time>2026-04-20T09:02:57.93Z</time></trkpt><trkpt lat="43.3517783" lon="11.4461067"><ele>236.66666666666666</ele><time>2026-04-20T09:02:58.93Z</time></trkpt><trkpt lat="43.3517783" lon="11.445865"><ele>238.33333333333331</ele><time>2026-04-20T09:02:59.93Z</time></trkpt><trkpt lat="43.351775" lon="11.44562"><ele>240.0</ele><time>2026-04-20T09:03:00.931Z</time></trkpt><trkpt lat="43.35177" lon="11.4453717"><ele>241.33333333333331</ele><time>2026-04-20T09:03:01.93Z</time></trkpt><trkpt lat="43.3517567" lon="11.445145"><ele>242.66666666666666</ele><time>2026-04-20T09:03:02.93Z</time></trkpt><trkpt lat="43.3517283" lon="11.4449383"><ele>244.0</ele><time>2026-04-20T09:03:03.931Z</time></trkpt><trkpt lat="43.3516933" lon="11.4447567"><ele>244.5</ele><time>2026-04-20T09:03:04.93Z</time></trkpt><trkpt lat="43.3516567" lon="11.4445767"><ele>245.0</ele><time>2026-04-20T09:03:05.93Z</time></trkpt><trkpt lat="43.3516183" lon="11.4444117"><ele>245.5</ele><time>2026-04-20T09:03:06.931Z</time></trkpt><trkpt lat="43.35158" lon="11.444255"><ele>246.0</ele><time>2026-04-20T09:03:07.93Z</time></trkpt><trkpt lat="43.3515583" lon="11.444105"><ele>246.0</ele><time>2026-04-20T09:03:08.93Z</time></trkpt><trkpt lat="43.35154" lon="11.4439533"><ele>246.00000000000003</ele><time>2026-04-20T09:03:09.93Z</time></trkpt><trkpt lat="43.3515317" lon="11.443815"><ele>246.00000000000003</ele><time>2026-04-20T09:03:10.93Z</time></trkpt><trkpt lat="43.351535" lon="11.44367"><ele>246.0</ele><time>2026-04-20T09:03:11.93Z</time></trkpt><trkpt lat="43.3515567" lon="11.4435283"><ele>246.0</ele><time>2026-04-20T09:03:12.93Z</time></trkpt><trkpt lat="43.35159" lon="11.4434"><ele>244.60000000000002</ele><time>2026-04-20T09:03:13.93Z</time></trkpt><trkpt lat="43.3516533" lon="11.4432883"><ele>243.20000000000002</ele><time>2026-04-20T09:03:14.93Z</time></trkpt><trkpt lat="43.3517367" lon="11.4432033"><ele>241.79999999999998</ele><time>2026-04-20T09:03:15.93Z</time></trkpt><trkpt lat="43.3518333" lon="11.4431383"><ele>240.39999999999998</ele><time>2026-04-20T09:03:16.931Z</time></trkpt><trkpt lat="43.3519483" lon="11.4430783"><ele>239.0</ele><time>2026-04-20T09:03:17.93Z</time></trkpt><trkpt lat="43.352085" lon="11.4430217"><ele>239.5</ele><time>2026-04-20T09:03:18.93Z</time></trkpt><trkpt lat="43.3522083" lon="11.4429917"><ele>240.0</ele><time>2026-04-20T09:03:19.93Z</time></trkpt><trkpt lat="43.3523333" lon="11.4429633"><ele>240.5</ele><time>2026-04-20T09:03:20.93Z</time></trkpt><trkpt lat="43.352455" lon="11.442945"><ele>241.0</ele><time>2026-04-20T09:03:21.93Z</time></trkpt><trkpt lat="43.35257" lon="11.44291"><ele>239.20000000000002</ele><time>2026-04-20T09:03:22.93Z</time></trkpt><trkpt lat="43.3526683" lon="11.44285"><ele>237.40000000000003</ele><time>2026-04-20T09:03:23.93Z</time></trkpt><trkpt lat="43.35275" lon="11.4427517"><ele>235.6</ele><time>2026-04-20T09:03:24.929Z</time></trkpt><trkpt lat="43.3528117" lon="11.4426317"><ele>233.8</ele><time>2026-04-20T09:03:25.929Z</time></trkpt><trkpt lat="43.3528383" lon="11.442495"><ele>232.0</ele><time>2026-04-20T09:03:26.93Z</time></trkpt><trkpt lat="43.35283" lon="11.4423417"><ele>232.0</ele><time>2026-04-20T09:03:27.929Z</time></trkpt><trkpt lat="43.3528" lon="11.442185"><ele>232.0</ele><time>2026-04-20T09:03:28.93Z</time></trkpt><trkpt lat="43.3527567" lon="11.44202"><ele>232.0</ele><time>2026-04-20T09:03:29.929Z</time></trkpt><trkpt lat="43.352695" lon="11.4418483"><ele>232.0</ele><time>2026-04-20T09:03:30.929Z</time></trkpt><trkpt lat="43.352615" lon="11.4416883"><ele>234.0</ele><time>2026-04-20T09:03:31.929Z</time></trkpt><trkpt lat="43.3525167" lon="11.4415417"><ele>236.0</ele><time>2026-04-20T09:03:32.929Z</time></trkpt><trkpt lat="43.3524083" lon="11.441415"><ele>238.0</ele><time>2026-04-20T09:03:33.929Z</time></trkpt><trkpt lat="43.3522867" lon="11.4413133"><ele>240.0</ele><time>2026-04-20T09:03:34.929Z</time></trkpt><trkpt lat="43.3521517" lon="11.4412383"><ele>241.25</ele><time>2026-04-20T09:03:35.929Z</time></trkpt><trkpt lat="43.3520133" lon="11.4411967"><ele>242.5</ele><time>2026-04-20T09:03:36.929Z</time></trkpt><trkpt lat="43.3518767" lon="11.4411767"><ele>243.75</ele><time>2026-04-20T09:03:37.929Z</time></trkpt><trkpt lat="43.3517483" lon="11.4411583"><ele>245.0</ele><time>2026-04-20T09:03:38.929Z</time></trkpt><trkpt lat="43.3516417" lon="11.4411233"><ele>245.0</ele><time>2026-04-20T09:03:39.929Z</time></trkpt><trkpt lat="43.351565" lon="11.44106"><ele>245.0</ele><time>2026-04-20T09:03:40.93Z</time></trkpt><trkpt lat="43.3514983" lon="11.4409867"><ele>245.0</ele><time>2026-04-20T09:03:41.929Z</time></trkpt><trkpt lat="43.35145" lon="11.4408783"><ele>245.0</ele><time>2026-04-20T09:03:42.929Z</time></trkpt><trkpt lat="43.3514167" lon="11.44075"><ele>245.0</ele><time>2026-04-20T09:03:43.929Z</time></trkpt><trkpt lat="43.3514017" lon="11.440605"><ele>246.6</ele><time>2026-04-20T09:03:44.93Z</time></trkpt><trkpt lat="43.351395" lon="11.4404617"><ele>248.2</ele><time>2026-04-20T09:03:45.929Z</time></trkpt><trkpt lat="43.3513983" lon="11.4403267"><ele>249.8</ele><time>2026-04-20T09:03:46.929Z</time></trkpt><trkpt lat="43.3514067" lon="11.4402"><ele>251.4</ele><time>2026-04-20T09:03:47.929Z</time></trkpt><trkpt lat="43.351425" lon="11.440075"><ele>253.0</ele><time>2026-04-20T09:03:48.929Z</time></trkpt><trkpt lat="43.3514433" lon="11.4399733"><ele>253.0</ele><time>2026-04-20T09:03:49.93Z</time></trkpt><trkpt lat="43.351465" lon="11.439865"><ele>253.0</ele><time>2026-04-20T09:03:50.929Z</time></trkpt><trkpt lat="43.35151" lon="11.4397633"><ele>253.0</ele><time>2026-04-20T09:03:51.929Z</time></trkpt><trkpt lat="43.35157" lon="11.4396683"><ele>253.0</ele><time>2026-04-20T09:03:52.929Z</time></trkpt><trkpt lat="43.351655" lon="11.4395967"><ele>253.0</ele><time>2026-04-20T09:03:53.929Z</time></trkpt><trkpt lat="43.3517517" lon="11.439525"><ele>252.5</ele><time>2026-04-20T09:03:54.929Z</time></trkpt><trkpt lat="43.3518633" lon="11.4394617"><ele>252.0</ele><time>2026-04-20T09:03:55.929Z</time></trkpt><trkpt lat="43.3519817" lon="11.4394083"><ele>251.5</ele><time>2026-04-20T09:03:56.929Z</time></trkpt><trkpt lat="43.352095" lon="11.4393833"><ele>251.0</ele><time>2026-04-20T09:03:57.929Z</time></trkpt><trkpt lat="43.35221" lon="11.4393567"><ele>252.75</ele><time>2026-04-20T09:03:58.929Z</time></trkpt><trkpt lat="43.352315" lon="11.4393033"><ele>254.5</ele><time>2026-04-20T09:03:59.929Z</time></trkpt><trkpt lat="43.3524083" lon="11.4392283"><ele>256.25</ele><time>2026-04-20T09:04:00.93Z</time></trkpt><trkpt lat="43.3524917" lon="11.4391167"><ele>258.0</ele><time>2026-04-20T09:04:01.929Z</time></trkpt><trkpt lat="43.3525783" lon="11.4390017"><ele>258.0</ele><time>2026-04-20T09:04:02.929Z</time></trkpt><trkpt lat="43.3526683" lon="11.438895"><ele>258.0</ele><time>2026-04-20T09:04:03.93Z</time></trkpt><trkpt lat="43.35276" lon="11.43879"><ele>258.0</ele><time>2026-04-20T09:04:04.929Z</time></trkpt><trkpt lat="43.3528617" lon="11.4386967"><ele>258.0</ele><time>2026-04-20T09:04:05.93Z</time></trkpt><trkpt lat="43.35296" lon="11.438605"><ele>259.75</ele><time>2026-04-20T09:04:06.929Z</time></trkpt><trkpt lat="43.3530683" lon="11.4385333"><ele>261.5</ele><time>2026-04-20T09:04:07.929Z</time></trkpt><trkpt lat="43.3531767" lon="11.4384733"><ele>263.25</ele><time>2026-04-20T09:04:08.929Z</time></trkpt><trkpt lat="43.353285" lon="11.4384183"><ele>265.0</ele><time>2026-04-20T09:04:09.929Z</time></trkpt><trkpt lat="43.3533967" lon="11.4383717"><ele>265.0</ele><time>2026-04-20T09:04:10.929Z</time></trkpt><trkpt lat="43.353515" lon="11.438335"><ele>265.0</ele><time>2026-04-20T09:04:11.929Z</time></trkpt><trkpt lat="43.3536333" lon="11.43831"><ele>265.0</ele><time>2026-04-20T09:04:12.929Z</time></trkpt><trkpt lat="43.3537567" lon="11.4382867"><ele>265.0</ele><time>2026-04-20T09:04:13.929Z</time></trkpt><trkpt lat="43.35388" lon="11.43827"><ele>265.25</ele><time>2026-04-20T09:04:14.929Z</time></trkpt><trkpt lat="43.353995" lon="11.438235"><ele>265.5</ele><time>2026-04-20T09:04:15.929Z</time></trkpt><trkpt lat="43.35411" lon="11.4382117"><ele>265.75</ele><time>2026-04-20T09:04:16.929Z</time></trkpt><trkpt lat="43.3542233" lon="11.4381883"><ele>266.0</ele><time>2026-04-20T09:04:17.929Z</time></trkpt><trkpt lat="43.3543367" lon="11.4381733"><ele>266.0</ele><time>2026-04-20T09:04:18.929Z</time></trkpt><trkpt lat="43.3544383" lon="11.4381533"><ele>266.0</ele><time>2026-04-20T09:04:19.929Z</time></trkpt><trkpt lat="43.3545433" lon="11.4381417"><ele>266.0</ele><time>2026-04-20T09:04:20.93Z</time></trkpt><trkpt lat="43.3546483" lon="11.43815"><ele>266.0</ele><time>2026-04-20T09:04:21.929Z</time></trkpt><trkpt lat="43.35476" lon="11.438155"><ele>266.0</ele><time>2026-04-20T09:04:22.929Z</time></trkpt><trkpt lat="43.3548683" lon="11.43817"><ele>266.40000000000003</ele><time>2026-04-20T09:04:23.929Z</time></trkpt><trkpt lat="43.3549783" lon="11.43819"><ele>266.8</ele><time>2026-04-20T09:04:24.93Z</time></trkpt><trkpt lat="43.355085" lon="11.438205"><ele>267.20000000000005</ele><time>2026-04-20T09:04:25.929Z</time></trkpt><trkpt lat="43.3551933" lon="11.4382217"><ele>267.6</ele><time>2026-04-20T09:04:26.929Z</time></trkpt><trkpt lat="43.3552967" lon="11.4382467"><ele>268.0</ele><time>2026-04-20T09:04:27.93Z</time></trkpt><trkpt lat="43.35539" lon="11.4382717"><ele>268.0</ele><time>2026-04-20T09:04:28.93Z</time></trkpt><trkpt lat="43.35548" lon="11.438295"><ele>268.0</ele><time>2026-04-20T09:04:29.929Z</time></trkpt><trkpt lat="43.3555617" lon="11.4383083"><ele>268.0</ele><time>2026-04-20T09:04:30.929Z</time></trkpt><trkpt lat="43.355635" lon="11.438325"><ele>268.0</ele><time>2026-04-20T09:04:31.93Z</time></trkpt><trkpt lat="43.35571" lon="11.4383383"><ele>268.0</ele><time>2026-04-20T09:04:32.929Z</time></trkpt><trkpt lat="43.3557817" lon="11.4383467"><ele>268.0</ele><time>2026-04-20T09:04:33.929Z</time></trkpt><trkpt lat="43.35585" lon="11.4383583"><ele>267.66666666666663</ele><time>2026-04-20T09:04:34.929Z</time></trkpt><trkpt lat="43.3559167" lon="11.4383733"><ele>267.3333333333333</ele><time>2026-04-20T09:04:35.929Z</time></trkpt><trkpt lat="43.35602" lon="11.43841"><ele>267.0</ele><time>2026-04-20T09:04:37.93Z</time></trkpt><trkpt lat="43.3560933" lon="11.4384383"><ele>266.6666666666667</ele><time>2026-04-20T09:04:39.929Z</time></trkpt><trkpt lat="43.3561617" lon="11.43845"><ele>266.33333333333337</ele><time>2026-04-20T09:04:41.929Z</time></trkpt><trkpt lat="43.3562467" lon="11.4384567"><ele>266.0</ele><time>2026-04-20T09:04:43.929Z</time></trkpt><trkpt lat="43.3563117" lon="11.4384717"><ele>265.8</ele><time>2026-04-20T09:04:44.929Z</time></trkpt><trkpt lat="43.35639" lon="11.4384817"><ele>265.6</ele><time>2026-04-20T09:04:45.929Z</time></trkpt><trkpt lat="43.3564733" lon="11.4385"><ele>265.4</ele><time>2026-04-20T09:04:46.929Z</time></trkpt><trkpt lat="43.356565" lon="11.438515"><ele>265.2</ele><time>2026-04-20T09:04:47.929Z</time></trkpt><trkpt lat="43.356665" lon="11.4385367"><ele>265.0</ele><time>2026-04-20T09:04:48.93Z</time></trkpt><trkpt lat="43.3567733" lon="11.4385567"><ele>265.0</ele><time>2026-04-20T09:04:49.929Z</time></trkpt><trkpt lat="43.35689" lon="11.4385767"><ele>265.0</ele><time>2026-04-20T09:04:50.929Z</time></trkpt><trkpt lat="43.357" lon="11.4385917"><ele>265.0</ele><time>2026-04-20T09:04:51.929Z</time></trkpt><trkpt lat="43.3571233" lon="11.43859"><ele>265.0</ele><time>2026-04-20T09:04:52.929Z</time></trkpt><trkpt lat="43.357255" lon="11.43857"><ele>265.0</ele><time>2026-04-20T09:04:53.93Z</time></trkpt><trkpt lat="43.3573833" lon="11.438535"><ele>265.0</ele><time>2026-04-20T09:04:54.93Z</time></trkpt><trkpt lat="43.3575183" lon="11.4384983"><ele>265.0</ele><time>2026-04-20T09:04:55.929Z</time></trkpt><trkpt lat="43.35766" lon="11.43845"><ele>265.0</ele><time>2026-04-20T09:04:56.929Z</time></trkpt><trkpt lat="43.3577967" lon="11.43841"><ele>265.0</ele><time>2026-04-20T09:04:57.929Z</time></trkpt><trkpt lat="43.3579267" lon="11.4383633"><ele>265.0</ele><time>2026-04-20T09:04:58.93Z</time></trkpt><trkpt lat="43.3580433" lon="11.438305"><ele>265.0</ele><time>2026-04-20T09:04:59.93Z</time></trkpt><trkpt lat="43.3581483" lon="11.4382317"><ele>265.0</ele><time>2026-04-20T09:05:00.929Z</time></trkpt><trkpt lat="43.3582367" lon="11.438145"><ele>265.5</ele><time>2026-04-20T09:05:01.929Z</time></trkpt><trkpt lat="43.35831" lon="11.4380267"><ele>266.0</ele><time>2026-04-20T09:05:02.929Z</time></trkpt><trkpt lat="43.358365" lon="11.4378833"><ele>266.5</ele><time>2026-04-20T09:05:03.93Z</time></trkpt><trkpt lat="43.3583983" lon="11.4377183"><ele>267.0</ele><time>2026-04-20T09:05:04.929Z</time></trkpt><trkpt lat="43.3584167" lon="11.437535"><ele>267.5</ele><time>2026-04-20T09:05:05.93Z</time></trkpt><trkpt lat="43.3584133" lon="11.437355"><ele>268.0</ele><time>2026-04-20T09:05:06.93Z</time></trkpt><trkpt lat="43.3584" lon="11.4371667"><ele>268.5</ele><time>2026-04-20T09:05:07.93Z</time></trkpt><trkpt lat="43.3583783" lon="11.43698"><ele>269.0</ele><time>2026-04-20T09:05:08.929Z</time></trkpt><trkpt lat="43.3583633" lon="11.4368083"><ele>269.0</ele><time>2026-04-20T09:05:09.929Z</time></trkpt><trkpt lat="43.3583667" lon="11.4366467"><ele>269.0</ele><time>2026-04-20T09:05:10.929Z</time></trkpt><trkpt lat="43.3583917" lon="11.4364883"><ele>269.0</ele><time>2026-04-20T09:05:11.929Z</time></trkpt><trkpt lat="43.3584283" lon="11.4363233"><ele>269.0</ele><time>2026-04-20T09:05:12.929Z</time></trkpt><trkpt lat="43.3584617" lon="11.4361567"><ele>269.0</ele><time>2026-04-20T09:05:13.929Z</time></trkpt><trkpt lat="43.3584967" lon="11.4359817"><ele>269.0</ele><time>2026-04-20T09:05:14.929Z</time></trkpt><trkpt lat="43.35853" lon="11.4358083"><ele>269.0</ele><time>2026-04-20T09:05:15.93Z</time></trkpt><trkpt lat="43.3585733" lon="11.4356333"><ele>269.0</ele><time>2026-04-20T09:05:16.929Z</time></trkpt><trkpt lat="43.3586333" lon="11.435445"><ele>269.5</ele><time>2026-04-20T09:05:17.929Z</time></trkpt><trkpt lat="43.3586917" lon="11.435265"><ele>270.0</ele><time>2026-04-20T09:05:18.929Z</time></trkpt><trkpt lat="43.358755" lon="11.4350883"><ele>270.5</ele><time>2026-04-20T09:05:19.93Z</time></trkpt><trkpt lat="43.35883" lon="11.434895"><ele>271.0</ele><time>2026-04-20T09:05:20.929Z</time></trkpt><trkpt lat="43.3588983" lon="11.4346883"><ele>268.3333333333333</ele><time>2026-04-20T09:05:21.929Z</time></trkpt><trkpt lat="43.358935" lon="11.434475"><ele>265.6666666666667</ele><time>2026-04-20T09:05:22.929Z</time></trkpt><trkpt lat="43.35896" lon="11.4342733"><ele>263.0</ele><time>2026-04-20T09:05:23.929Z</time></trkpt><trkpt lat="43.35897" lon="11.4340583"><ele>263.0</ele><time>2026-04-20T09:05:24.929Z</time></trkpt><trkpt lat="43.358965" lon="11.43385"><ele>263.0</ele><time>2026-04-20T09:05:25.929Z</time></trkpt><trkpt lat="43.3589367" lon="11.43365"><ele>263.0</ele><time>2026-04-20T09:05:26.93Z</time></trkpt><trkpt lat="43.3589067" lon="11.4334317"><ele>263.0</ele><time>2026-04-20T09:05:27.929Z</time></trkpt><trkpt lat="43.35888" lon="11.4332183"><ele>263.0</ele><time>2026-04-20T09:05:28.929Z</time></trkpt><trkpt lat="43.358865" lon="11.4330033"><ele>263.0</ele><time>2026-04-20T09:05:29.929Z</time></trkpt><trkpt lat="43.3588517" lon="11.4327883"><ele>263.0</ele><time>2026-04-20T09:05:30.929Z</time></trkpt><trkpt lat="43.3588467" lon="11.4325867"><ele>263.0</ele><time>2026-04-20T09:05:31.929Z</time></trkpt><trkpt lat="43.3588517" lon="11.43238"><ele>263.0</ele><time>2026-04-20T09:05:32.929Z</time></trkpt><trkpt lat="43.3588833" lon="11.4321733"><ele>262.33333333333337</ele><time>2026-04-20T09:05:33.93Z</time></trkpt><trkpt lat="43.3589117" lon="11.43197"><ele>261.6666666666667</ele><time>2026-04-20T09:05:34.929Z</time></trkpt><trkpt lat="43.3589533" lon="11.4317717"><ele>261.0</ele><time>2026-04-20T09:05:35.929Z</time></trkpt><trkpt lat="43.3589967" lon="11.4315667"><ele>261.0</ele><time>2026-04-20T09:05:36.929Z</time></trkpt><trkpt lat="43.35905" lon="11.4313533"><ele>261.0</ele><time>2026-04-20T09:05:37.929Z</time></trkpt><trkpt lat="43.359095" lon="11.4311467"><ele>261.0</ele><time>2026-04-20T09:05:38.929Z</time></trkpt><trkpt lat="43.3591333" lon="11.4309417"><ele>262.0</ele><time>2026-04-20T09:05:39.929Z</time></trkpt><trkpt lat="43.3591717" lon="11.4307333"><ele>263.0</ele><time>2026-04-20T09:05:40.929Z</time></trkpt><trkpt lat="43.3592" lon="11.4305183"><ele>264.0</ele><time>2026-04-20T09:05:41.93Z</time></trkpt><trkpt lat="43.35922" lon="11.4303067"><ele>264.3333333333333</ele><time>2026-04-20T09:05:42.929Z</time></trkpt><trkpt lat="43.3592217" lon="11.4300917"><ele>264.66666666666663</ele><time>2026-04-20T09:05:43.929Z</time></trkpt><trkpt lat="43.3592133" lon="11.4298817"><ele>265.0</ele><time>2026-04-20T09:05:44.929Z</time></trkpt><trkpt lat="43.3591967" lon="11.42967"><ele>263.5</ele><time>2026-04-20T09:05:45.929Z</time></trkpt><trkpt lat="43.3591583" lon="11.4294783"><ele>262.0</ele><time>2026-04-20T09:05:46.929Z</time></trkpt><trkpt lat="43.3591267" lon="11.429275"><ele>260.5</ele><time>2026-04-20T09:05:47.929Z</time></trkpt><trkpt lat="43.3590833" lon="11.42909"><ele>259.0</ele><time>2026-04-20T09:05:48.929Z</time></trkpt><trkpt lat="43.3590083" lon="11.4289183"><ele>257.0</ele><time>2026-04-20T09:05:49.929Z</time></trkpt><trkpt lat="43.35892" lon="11.4287617"><ele>255.0</ele><time>2026-04-20T09:05:50.929Z</time></trkpt><trkpt lat="43.35881" lon="11.42862"><ele>253.0</ele><time>2026-04-20T09:05:51.929Z</time></trkpt><trkpt lat="43.35869" lon="11.4284683"><ele>254.0</ele><time>2026-04-20T09:05:52.929Z</time></trkpt><trkpt lat="43.358575" lon="11.4283017"><ele>255.0</ele><time>2026-04-20T09:05:53.93Z</time></trkpt><trkpt lat="43.3584667" lon="11.428135"><ele>256.0</ele><time>2026-04-20T09:05:54.929Z</time></trkpt><trkpt lat="43.3583617" lon="11.4279567"><ele>256.0</ele><time>2026-04-20T09:05:55.929Z</time></trkpt><trkpt lat="43.3582583" lon="11.4277883"><ele>256.0</ele><time>2026-04-20T09:05:56.93Z</time></trkpt><trkpt lat="43.3581633" lon="11.4276167"><ele>256.0</ele><time>2026-04-20T09:05:57.929Z</time></trkpt><trkpt lat="43.3580633" lon="11.4274517"><ele>255.0</ele><time>2026-04-20T09:05:58.929Z</time></trkpt><trkpt lat="43.3579317" lon="11.4273"><ele>254.0</ele><time>2026-04-20T09:05:59.929Z</time></trkpt><trkpt lat="43.3577933" lon="11.4271683"><ele>253.0</ele><time>2026-04-20T09:06:00.929Z</time></trkpt><trkpt lat="43.357645" lon="11.4270583"><ele>253.0</ele><time>2026-04-20T09:06:01.929Z</time></trkpt><trkpt lat="43.35749" lon="11.4269633"><ele>253.0</ele><time>2026-04-20T09:06:02.929Z</time></trkpt><trkpt lat="43.3573367" lon="11.4268683"><ele>253.0</ele><time>2026-04-20T09:06:03.929Z</time></trkpt><trkpt lat="43.3571867" lon="11.4267733"><ele>254.0</ele><time>2026-04-20T09:06:04.929Z</time></trkpt><trkpt lat="43.3570467" lon="11.42668"><ele>255.0</ele><time>2026-04-20T09:06:05.929Z</time></trkpt><trkpt lat="43.3569083" lon="11.426585"><ele>256.0</ele><time>2026-04-20T09:06:06.929Z</time></trkpt><trkpt lat="43.3567733" lon="11.4264917"><ele>256.0</ele><time>2026-04-20T09:06:07.929Z</time></trkpt><trkpt lat="43.3566467" lon="11.4263967"><ele>256.0</ele><time>2026-04-20T09:06:08.929Z</time></trkpt><trkpt lat="43.3565283" lon="11.426285"><ele>256.0</ele><time>2026-04-20T09:06:09.929Z</time></trkpt><trkpt lat="43.3564117" lon="11.426155"><ele>256.0</ele><time>2026-04-20T09:06:10.929Z</time></trkpt><trkpt lat="43.3562983" lon="11.42602"><ele>252.66666666666666</ele><time>2026-04-20T09:06:11.929Z</time></trkpt><trkpt lat="43.3561767" lon="11.4258767"><ele>249.33333333333331</ele><time>2026-04-20T09:06:12.929Z</time></trkpt><trkpt lat="43.3560583" lon="11.42573"><ele>246.0</ele><time>2026-04-20T09:06:13.93Z</time></trkpt><trkpt lat="43.35594" lon="11.42556"><ele>244.0</ele><time>2026-04-20T09:06:14.929Z</time></trkpt><trkpt lat="43.3558267" lon="11.4253833"><ele>242.0</ele><time>2026-04-20T09:06:15.929Z</time></trkpt><trkpt lat="43.355705" lon="11.4252217"><ele>240.0</ele><time>2026-04-20T09:06:16.929Z</time></trkpt><trkpt lat="43.3555883" lon="11.4250583"><ele>240.0</ele><time>2026-04-20T09:06:17.929Z</time></trkpt><trkpt lat="43.3554767" lon="11.4249017"><ele>240.0</ele><time>2026-04-20T09:06:18.929Z</time></trkpt><trkpt lat="43.3553683" lon="11.4247617"><ele>240.0</ele><time>2026-04-20T09:06:19.93Z</time></trkpt><trkpt lat="43.35526" lon="11.4246217"><ele>239.0</ele><time>2026-04-20T09:06:20.929Z</time></trkpt><trkpt lat="43.3551683" lon="11.4244967"><ele>238.0</ele><time>2026-04-20T09:06:21.929Z</time></trkpt><trkpt lat="43.3550867" lon="11.4243733"><ele>237.0</ele><time>2026-04-20T09:06:22.929Z</time></trkpt><trkpt lat="43.3550183" lon="11.4242633"><ele>236.0</ele><time>2026-04-20T09:06:23.929Z</time></trkpt><trkpt lat="43.3549733" lon="11.4241333"><ele>236.0</ele><time>2026-04-20T09:06:24.93Z</time></trkpt><trkpt lat="43.35495" lon="11.4239983"><ele>236.00000000000003</ele><time>2026-04-20T09:06:25.929Z</time></trkpt><trkpt lat="43.35495" lon="11.42386"><ele>236.00000000000003</ele><time>2026-04-20T09:06:26.929Z</time></trkpt><trkpt lat="43.354975" lon="11.4237167"><ele>236.0</ele><time>2026-04-20T09:06:27.929Z</time></trkpt><trkpt lat="43.35501" lon="11.42357"><ele>236.0</ele><time>2026-04-20T09:06:28.929Z</time></trkpt><trkpt lat="43.35505" lon="11.4234283"><ele>235.0</ele><time>2026-04-20T09:06:29.93Z</time></trkpt><trkpt lat="43.3550967" lon="11.4232683"><ele>234.0</ele><time>2026-04-20T09:06:30.93Z</time></trkpt><trkpt lat="43.3551467" lon="11.4230867"><ele>233.0</ele><time>2026-04-20T09:06:31.93Z</time></trkpt><trkpt lat="43.3551867" lon="11.4229"><ele>232.0</ele><time>2026-04-20T09:06:32.93Z</time></trkpt><trkpt lat="43.355225" lon="11.4227067"><ele>230.25</ele><time>2026-04-20T09:06:33.93Z</time></trkpt><trkpt lat="43.3552617" lon="11.4225233"><ele>228.5</ele><time>2026-04-20T09:06:34.929Z</time></trkpt><trkpt lat="43.3552883" lon="11.4223367"><ele>226.75</ele><time>2026-04-20T09:06:35.929Z</time></trkpt><trkpt lat="43.3553083" lon="11.4221583"><ele>225.0</ele><time>2026-04-20T09:06:36.93Z</time></trkpt><trkpt lat="43.35532" lon="11.4219867"><ele>223.25</ele><time>2026-04-20T09:06:37.929Z</time></trkpt><trkpt lat="43.3553367" lon="11.4218033"><ele>221.5</ele><time>2026-04-20T09:06:38.929Z</time></trkpt><trkpt lat="43.3553533" lon="11.4216367"><ele>219.75</ele><time>2026-04-20T09:06:39.93Z</time></trkpt><trkpt lat="43.3553683" lon="11.42145"><ele>218.0</ele><time>2026-04-20T09:06:40.929Z</time></trkpt><trkpt lat="43.3553917" lon="11.4212767"><ele>217.25</ele><time>2026-04-20T09:06:41.929Z</time></trkpt><trkpt lat="43.3554183" lon="11.4210967"><ele>216.5</ele><time>2026-04-20T09:06:42.929Z</time></trkpt><trkpt lat="43.3554417" lon="11.4209183"><ele>215.75</ele><time>2026-04-20T09:06:43.929Z</time></trkpt><trkpt lat="43.355475" lon="11.420745"><ele>215.0</ele><time>2026-04-20T09:06:44.93Z</time></trkpt><trkpt lat="43.35551" lon="11.4205683"><ele>215.5</ele><time>2026-04-20T09:06:45.929Z</time></trkpt><trkpt lat="43.3555433" lon="11.4203917"><ele>216.0</ele><time>2026-04-20T09:06:46.93Z</time></trkpt><trkpt lat="43.3555783" lon="11.420215"><ele>216.5</ele><time>2026-04-20T09:06:47.929Z</time></trkpt><trkpt lat="43.3556167" lon="11.420025"><ele>217.0</ele><time>2026-04-20T09:06:48.929Z</time></trkpt><trkpt lat="43.35566" lon="11.4198433"><ele>217.0</ele><time>2026-04-20T09:06:49.929Z</time></trkpt><trkpt lat="43.3557133" lon="11.419665"><ele>217.0</ele><time>2026-04-20T09:06:50.93Z</time></trkpt><trkpt lat="43.3557717" lon="11.4195017"><ele>217.0</ele><time>2026-04-20T09:06:51.93Z</time></trkpt><trkpt lat="43.3558367" lon="11.4193383"><ele>217.0</ele><time>2026-04-20T09:06:52.929Z</time></trkpt><trkpt lat="43.3559133" lon="11.4191783"><ele>216.75</ele><time>2026-04-20T09:06:53.93Z</time></trkpt><trkpt lat="43.35598" lon="11.4190167"><ele>216.5</ele><time>2026-04-20T09:06:54.929Z</time></trkpt><trkpt lat="43.35606" lon="11.4188533"><ele>216.25</ele><time>2026-04-20T09:06:55.929Z</time></trkpt><trkpt lat="43.3561367" lon="11.41869"><ele>216.0</ele><time>2026-04-20T09:06:56.929Z</time></trkpt><trkpt lat="43.3562167" lon="11.418525"><ele>216.25</ele><time>2026-04-20T09:06:57.929Z</time></trkpt><trkpt lat="43.356295" lon="11.418365"><ele>216.5</ele><time>2026-04-20T09:06:58.929Z</time></trkpt><trkpt lat="43.3563683" lon="11.4181933"><ele>216.75</ele><time>2026-04-20T09:06:59.929Z</time></trkpt><trkpt lat="43.356445" lon="11.4180467"><ele>217.0</ele><time>2026-04-20T09:07:00.929Z</time></trkpt><trkpt lat="43.35652" lon="11.41789"><ele>217.5</ele><time>2026-04-20T09:07:01.93Z</time></trkpt><trkpt lat="43.35659" lon="11.4177483"><ele>218.0</ele><time>2026-04-20T09:07:02.929Z</time></trkpt><trkpt lat="43.3566483" lon="11.41761"><ele>218.5</ele><time>2026-04-20T09:07:03.93Z</time></trkpt><trkpt lat="43.3567067" lon="11.41748"><ele>219.0</ele><time>2026-04-20T09:07:04.929Z</time></trkpt><trkpt lat="43.356765" lon="11.4173583"><ele>219.0</ele><time>2026-04-20T09:07:05.93Z</time></trkpt><trkpt lat="43.3568133" lon="11.4172417"><ele>218.99999999999997</ele><time>2026-04-20T09:07:06.929Z</time></trkpt><trkpt lat="43.3568367" lon="11.4171183"><ele>218.99999999999997</ele><time>2026-04-20T09:07:07.929Z</time></trkpt><trkpt lat="43.35685" lon="11.417"><ele>219.0</ele><time>2026-04-20T09:07:08.93Z</time></trkpt><trkpt lat="43.356885" lon="11.4168783"><ele>219.0</ele><time>2026-04-20T09:07:10.929Z</time></trkpt><trkpt lat="43.3569783" lon="11.4168617"><ele>219.0</ele><time>2026-04-20T09:07:13.929Z</time></trkpt><trkpt lat="43.3570733" lon="11.4169833"><ele>218.99999999999997</ele><time>2026-04-20T09:07:15.929Z</time></trkpt><trkpt lat="43.357135" lon="11.4170717"><ele>218.99999999999997</ele><time>2026-04-20T09:07:16.93Z</time></trkpt><trkpt lat="43.3572" lon="11.4171717"><ele>219.0</ele><time>2026-04-20T09:07:17.929Z</time></trkpt><trkpt lat="43.3572667" lon="11.417275"><ele>219.0</ele><time>2026-04-20T09:07:18.929Z</time></trkpt><trkpt lat="43.3573467" lon="11.4173917"><ele>219.25</ele><time>2026-04-20T09:07:19.929Z</time></trkpt><trkpt lat="43.357435" lon="11.417515"><ele>219.5</ele><time>2026-04-20T09:07:20.929Z</time></trkpt><trkpt lat="43.3575217" lon="11.4176517"><ele>219.75</ele><time>2026-04-20T09:07:21.929Z</time></trkpt><trkpt lat="43.35761" lon="11.4177883"><ele>220.0</ele><time>2026-04-20T09:07:22.929Z</time></trkpt><trkpt lat="43.3576983" lon="11.4179333"><ele>219.66666666666666</ele><time>2026-04-20T09:07:23.929Z</time></trkpt><trkpt lat="43.3577967" lon="11.4180883"><ele>219.33333333333331</ele><time>2026-04-20T09:07:24.929Z</time></trkpt><trkpt lat="43.3579033" lon="11.418255"><ele>219.0</ele><time>2026-04-20T09:07:25.93Z</time></trkpt><trkpt lat="43.3580083" lon="11.4184233"><ele>219.66666666666669</ele><time>2026-04-20T09:07:26.929Z</time></trkpt><trkpt lat="43.358115" lon="11.41859"><ele>220.33333333333334</ele><time>2026-04-20T09:07:27.929Z</time></trkpt><trkpt lat="43.3582167" lon="11.4187517"><ele>221.0</ele><time>2026-04-20T09:07:28.929Z</time></trkpt><trkpt lat="43.358325" lon="11.4189183"><ele>221.33333333333334</ele><time>2026-04-20T09:07:29.929Z</time></trkpt><trkpt lat="43.3584317" lon="11.419085"><ele>221.66666666666669</ele><time>2026-04-20T09:07:30.929Z</time></trkpt><trkpt lat="43.3585483" lon="11.4192533"><ele>222.0</ele><time>2026-04-20T09:07:31.929Z</time></trkpt><trkpt lat="43.358655" lon="11.4194217"><ele>222.0</ele><time>2026-04-20T09:07:32.929Z</time></trkpt><trkpt lat="43.358755" lon="11.4195783"><ele>222.0</ele><time>2026-04-20T09:07:33.93Z</time></trkpt><trkpt lat="43.3588417" lon="11.4197083"><ele>222.0</ele><time>2026-04-20T09:07:34.929Z</time></trkpt><trkpt lat="43.3589267" lon="11.4198083"><ele>222.0</ele><time>2026-04-20T09:07:35.929Z</time></trkpt><trkpt lat="43.3590067" lon="11.419895"><ele>223.5</ele><time>2026-04-20T09:07:36.929Z</time></trkpt><trkpt lat="43.3590983" lon="11.4199517"><ele>225.0</ele><time>2026-04-20T09:07:37.929Z</time></trkpt><trkpt lat="43.3592033" lon="11.4199717"><ele>226.5</ele><time>2026-04-20T09:07:38.929Z</time></trkpt><trkpt lat="43.3593283" lon="11.4199517"><ele>228.0</ele><time>2026-04-20T09:07:39.929Z</time></trkpt><trkpt lat="43.3594617" lon="11.4199083"><ele>228.0</ele><time>2026-04-20T09:07:40.929Z</time></trkpt><trkpt lat="43.3596083" lon="11.4198583"><ele>228.0</ele><time>2026-04-20T09:07:41.929Z</time></trkpt><trkpt lat="43.35977" lon="11.419805"><ele>228.0</ele><time>2026-04-20T09:07:42.929Z</time></trkpt><trkpt lat="43.359935" lon="11.419735"><ele>228.66666666666669</ele><time>2026-04-20T09:07:43.93Z</time></trkpt><trkpt lat="43.3600967" lon="11.4196683"><ele>229.33333333333334</ele><time>2026-04-20T09:07:44.929Z</time></trkpt><trkpt lat="43.3602617" lon="11.419615"><ele>230.0</ele><time>2026-04-20T09:07:45.93Z</time></trkpt><trkpt lat="43.360425" lon="11.4195567"><ele>230.66666666666669</ele><time>2026-04-20T09:07:46.929Z</time></trkpt><trkpt lat="43.3606017" lon="11.419495"><ele>231.33333333333331</ele><time>2026-04-20T09:07:47.929Z</time></trkpt><trkpt lat="43.3607867" lon="11.4194233"><ele>232.0</ele><time>2026-04-20T09:07:48.93Z</time></trkpt><trkpt lat="43.360975" lon="11.419355"><ele>232.0</ele><time>2026-04-20T09:07:49.929Z</time></trkpt><trkpt lat="43.3611467" lon="11.4193"><ele>232.0</ele><time>2026-04-20T09:07:50.929Z</time></trkpt><trkpt lat="43.3613017" lon="11.4192417"><ele>232.0</ele><time>2026-04-20T09:07:51.929Z</time></trkpt><trkpt lat="43.3614483" lon="11.4192033"><ele>231.75</ele><time>2026-04-20T09:07:52.928Z</time></trkpt><trkpt lat="43.3615733" lon="11.4191333"><ele>231.5</ele><time>2026-04-20T09:07:53.928Z</time></trkpt><trkpt lat="43.3616833" lon="11.4190433"><ele>231.25</ele><time>2026-04-20T09:07:54.928Z</time></trkpt><trkpt lat="43.3617733" lon="11.418925"><ele>231.0</ele><time>2026-04-20T09:07:55.929Z</time></trkpt><trkpt lat="43.3618533" lon="11.41878"><ele>231.0</ele><time>2026-04-20T09:07:56.928Z</time></trkpt><trkpt lat="43.3619283" lon="11.4186467"><ele>231.00000000000003</ele><time>2026-04-20T09:07:57.928Z</time></trkpt><trkpt lat="43.362" lon="11.418535"><ele>231.00000000000003</ele><time>2026-04-20T09:07:58.928Z</time></trkpt><trkpt lat="43.3620733" lon="11.4184417"><ele>231.0</ele><time>2026-04-20T09:07:59.928Z</time></trkpt><trkpt lat="43.3621517" lon="11.41836"><ele>231.0</ele><time>2026-04-20T09:08:00.928Z</time></trkpt><trkpt lat="43.3622367" lon="11.4183067"><ele>232.5</ele><time>2026-04-20T09:08:01.928Z</time></trkpt><trkpt lat="43.3623333" lon="11.4182717"><ele>234.0</ele><time>2026-04-20T09:08:02.928Z</time></trkpt><trkpt lat="43.362445" lon="11.41827"><ele>235.5</ele><time>2026-04-20T09:08:03.928Z</time></trkpt><trkpt lat="43.3625717" lon="11.4183"><ele>237.0</ele><time>2026-04-20T09:08:04.929Z</time></trkpt><trkpt lat="43.362705" lon="11.4183383"><ele>237.0</ele><time>2026-04-20T09:08:05.928Z</time></trkpt><trkpt lat="43.3628383" lon="11.4183917"><ele>237.0</ele><time>2026-04-20T09:08:06.929Z</time></trkpt><trkpt lat="43.3629833" lon="11.418435"><ele>237.0</ele><time>2026-04-20T09:08:07.928Z</time></trkpt><trkpt lat="43.3631317" lon="11.4184583"><ele>237.0</ele><time>2026-04-20T09:08:08.928Z</time></trkpt><trkpt lat="43.3632567" lon="11.4184733"><ele>237.6</ele><time>2026-04-20T09:08:09.928Z</time></trkpt><trkpt lat="43.3633767" lon="11.4184767"><ele>238.2</ele><time>2026-04-20T09:08:10.928Z</time></trkpt><trkpt lat="43.3634817" lon="11.41848"><ele>238.8</ele><time>2026-04-20T09:08:11.928Z</time></trkpt><trkpt lat="43.3635767" lon="11.418495"><ele>239.4</ele><time>2026-04-20T09:08:12.928Z</time></trkpt><trkpt lat="43.363665" lon="11.4185117"><ele>240.0</ele><time>2026-04-20T09:08:13.928Z</time></trkpt><trkpt lat="43.3637467" lon="11.4185383"><ele>240.0</ele><time>2026-04-20T09:08:14.928Z</time></trkpt><trkpt lat="43.363825" lon="11.41858"><ele>240.0</ele><time>2026-04-20T09:08:15.928Z</time></trkpt><trkpt lat="43.363895" lon="11.41864"><ele>240.0</ele><time>2026-04-20T09:08:16.928Z</time></trkpt><trkpt lat="43.3639533" lon="11.41872"><ele>240.0</ele><time>2026-04-20T09:08:17.928Z</time></trkpt><trkpt lat="43.3640033" lon="11.4188083"><ele>240.0</ele><time>2026-04-20T09:08:18.928Z</time></trkpt><trkpt lat="43.364025" lon="11.4189117"><ele>240.0</ele><time>2026-04-20T09:08:19.928Z</time></trkpt><trkpt lat="43.3640317" lon="11.419035"><ele>242.0</ele><time>2026-04-20T09:08:20.928Z</time></trkpt><trkpt lat="43.364035" lon="11.4191817"><ele>244.0</ele><time>2026-04-20T09:08:21.928Z</time></trkpt><trkpt lat="43.36403" lon="11.4193333"><ele>246.0</ele><time>2026-04-20T09:08:22.928Z</time></trkpt><trkpt lat="43.36403" lon="11.4194867"><ele>248.0</ele><time>2026-04-20T09:08:23.928Z</time></trkpt><trkpt lat="43.3640383" lon="11.4196433"><ele>250.0</ele><time>2026-04-20T09:08:24.928Z</time></trkpt><trkpt lat="43.3640517" lon="11.4197983"><ele>251.0</ele><time>2026-04-20T09:08:25.928Z</time></trkpt><trkpt lat="43.364065" lon="11.4199567"><ele>252.0</ele><time>2026-04-20T09:08:26.928Z</time></trkpt><trkpt lat="43.36408" lon="11.4201133"><ele>253.0</ele><time>2026-04-20T09:08:27.929Z</time></trkpt><trkpt lat="43.364095" lon="11.4202783"><ele>254.0</ele><time>2026-04-20T09:08:28.928Z</time></trkpt><trkpt lat="43.364115" lon="11.4204533"><ele>254.5</ele><time>2026-04-20T09:08:29.929Z</time></trkpt><trkpt lat="43.3641517" lon="11.420625"><ele>255.0</ele><time>2026-04-20T09:08:30.928Z</time></trkpt><trkpt lat="43.3641983" lon="11.4207933"><ele>255.5</ele><time>2026-04-20T09:08:31.928Z</time></trkpt><trkpt lat="43.364245" lon="11.42096"><ele>256.0</ele><time>2026-04-20T09:08:32.928Z</time></trkpt><trkpt lat="43.364295" lon="11.4211267"><ele>256.0</ele><time>2026-04-20T09:08:33.929Z</time></trkpt><trkpt lat="43.3643417" lon="11.4213067"><ele>256.0</ele><time>2026-04-20T09:08:34.929Z</time></trkpt><trkpt lat="43.364385" lon="11.4214917"><ele>256.0</ele><time>2026-04-20T09:08:35.928Z</time></trkpt><trkpt lat="43.36441" lon="11.4216867"><ele>256.0</ele><time>2026-04-20T09:08:36.928Z</time></trkpt><trkpt lat="43.3644267" lon="11.421885"><ele>256.25</ele><time>2026-04-20T09:08:37.929Z</time></trkpt><trkpt lat="43.3644383" lon="11.42209"><ele>256.5</ele><time>2026-04-20T09:08:38.928Z</time></trkpt><trkpt lat="43.36445" lon="11.4222883"><ele>256.75</ele><time>2026-04-20T09:08:39.929Z</time></trkpt><trkpt lat="43.364455" lon="11.4225"><ele>257.0</ele><time>2026-04-20T09:08:40.928Z</time></trkpt><trkpt lat="43.3644567" lon="11.4227183"><ele>259.33333333333337</ele><time>2026-04-20T09:08:41.928Z</time></trkpt><trkpt lat="43.364475" lon="11.422935"><ele>261.6666666666667</ele><time>2026-04-20T09:08:42.929Z</time></trkpt><trkpt lat="43.3644917" lon="11.4231467"><ele>264.0</ele><time>2026-04-20T09:08:43.928Z</time></trkpt><trkpt lat="43.36451" lon="11.42337"><ele>266.3333333333333</ele><time>2026-04-20T09:08:44.928Z</time></trkpt><trkpt lat="43.364525" lon="11.4235833"><ele>268.66666666666663</ele><time>2026-04-20T09:08:45.929Z</time></trkpt><trkpt lat="43.3645367" lon="11.4238017"><ele>271.0</ele><time>2026-04-20T09:08:46.928Z</time></trkpt><trkpt lat="43.3645617" lon="11.4240067"><ele>272.75</ele><time>2026-04-20T09:08:47.928Z</time></trkpt><trkpt lat="43.3646117" lon="11.4242083"><ele>274.5</ele><time>2026-04-20T09:08:48.928Z</time></trkpt><trkpt lat="43.3646683" lon="11.4243983"><ele>276.25</ele><time>2026-04-20T09:08:49.928Z</time></trkpt><trkpt lat="43.3647333" lon="11.4245667"><ele>278.0</ele><time>2026-04-20T09:08:50.928Z</time></trkpt><trkpt lat="43.36481" lon="11.4247383"><ele>278.75</ele><time>2026-04-20T09:08:51.928Z</time></trkpt><trkpt lat="43.3649067" lon="11.4248983"><ele>279.5</ele><time>2026-04-20T09:08:52.929Z</time></trkpt><trkpt lat="43.3650017" lon="11.42505"><ele>280.25</ele><time>2026-04-20T09:08:53.928Z</time></trkpt><trkpt lat="43.3650883" lon="11.4251983"><ele>281.0</ele><time>2026-04-20T09:08:54.928Z</time></trkpt><trkpt lat="43.3651867" lon="11.4253383"><ele>281.25</ele><time>2026-04-20T09:08:55.929Z</time></trkpt><trkpt lat="43.3652883" lon="11.425485"><ele>281.5</ele><time>2026-04-20T09:08:56.928Z</time></trkpt><trkpt lat="43.3653867" lon="11.4256417"><ele>281.75</ele><time>2026-04-20T09:08:57.928Z</time></trkpt><trkpt lat="43.3654867" lon="11.4257933"><ele>282.0</ele><time>2026-04-20T09:08:58.929Z</time></trkpt><trkpt lat="43.3655717" lon="11.425925"><ele>283.0</ele><time>2026-04-20T09:08:59.928Z</time></trkpt><trkpt lat="43.3656417" lon="11.4260467"><ele>284.0</ele><time>2026-04-20T09:09:00.928Z</time></trkpt><trkpt lat="43.365705" lon="11.42616"><ele>285.0</ele><time>2026-04-20T09:09:01.928Z</time></trkpt><trkpt lat="43.3657717" lon="11.426255"><ele>286.0</ele><time>2026-04-20T09:09:02.928Z</time></trkpt><trkpt lat="43.36585" lon="11.4263233"><ele>287.0</ele><time>2026-04-20T09:09:03.928Z</time></trkpt><trkpt lat="43.36594" lon="11.4263783"><ele>287.0</ele><time>2026-04-20T09:09:04.929Z</time></trkpt><trkpt lat="43.3660383" lon="11.426415"><ele>287.0</ele><time>2026-04-20T09:09:05.928Z</time></trkpt><trkpt lat="43.3661417" lon="11.4264217"><ele>287.0</ele><time>2026-04-20T09:09:06.928Z</time></trkpt><trkpt lat="43.3662433" lon="11.42641"><ele>287.0</ele><time>2026-04-20T09:09:07.928Z</time></trkpt><trkpt lat="43.3663467" lon="11.426385"><ele>287.0</ele><time>2026-04-20T09:09:08.929Z</time></trkpt><trkpt lat="43.3664583" lon="11.4263633"><ele>287.5</ele><time>2026-04-20T09:09:09.929Z</time></trkpt><trkpt lat="43.3665767" lon="11.4263683"><ele>288.0</ele><time>2026-04-20T09:09:10.929Z</time></trkpt><trkpt lat="43.3667017" lon="11.4264"><ele>288.5</ele><time>2026-04-20T09:09:11.928Z</time></trkpt><trkpt lat="43.3668283" lon="11.4264433"><ele>289.0</ele><time>2026-04-20T09:09:12.928Z</time></trkpt><trkpt lat="43.3669567" lon="11.426495"><ele>289.0</ele><time>2026-04-20T09:09:13.928Z</time></trkpt><trkpt lat="43.3670917" lon="11.4265517"><ele>289.0</ele><time>2026-04-20T09:09:14.928Z</time></trkpt><trkpt lat="43.3672217" lon="11.4265983"><ele>289.0</ele><time>2026-04-20T09:09:15.928Z</time></trkpt><trkpt lat="43.3673417" lon="11.426655"><ele>289.0</ele><time>2026-04-20T09:09:16.928Z</time></trkpt><trkpt lat="43.367455" lon="11.4267067"><ele>288.0</ele><time>2026-04-20T09:09:17.928Z</time></trkpt><trkpt lat="43.3675583" lon="11.4267467"><ele>287.0</ele><time>2026-04-20T09:09:18.929Z</time></trkpt><trkpt lat="43.36766" lon="11.4268083"><ele>286.0</ele><time>2026-04-20T09:09:19.928Z</time></trkpt><trkpt lat="43.36776" lon="11.4268817"><ele>285.0</ele><time>2026-04-20T09:09:20.929Z</time></trkpt><trkpt lat="43.3678417" lon="11.4269917"><ele>284.0</ele><time>2026-04-20T09:09:21.928Z</time></trkpt><trkpt lat="43.3679033" lon="11.42711"><ele>283.75</ele><time>2026-04-20T09:09:22.928Z</time></trkpt><trkpt lat="43.3679533" lon="11.4272433"><ele>283.5</ele><time>2026-04-20T09:09:23.928Z</time></trkpt><trkpt lat="43.3680067" lon="11.4273917"><ele>283.25</ele><time>2026-04-20T09:09:24.929Z</time></trkpt><trkpt lat="43.3680433" lon="11.4275483"><ele>283.0</ele><time>2026-04-20T09:09:25.928Z</time></trkpt><trkpt lat="43.3680833" lon="11.4277017"><ele>283.25</ele><time>2026-04-20T09:09:26.928Z</time></trkpt><trkpt lat="43.3681317" lon="11.4278467"><ele>283.5</ele><time>2026-04-20T09:09:27.928Z</time></trkpt><trkpt lat="43.3681883" lon="11.4279733"><ele>283.75</ele><time>2026-04-20T09:09:28.928Z</time></trkpt><trkpt lat="43.36827" lon="11.428085"><ele>284.0</ele><time>2026-04-20T09:09:29.928Z</time></trkpt><trkpt lat="43.368355" lon="11.4281817"><ele>284.0</ele><time>2026-04-20T09:09:30.928Z</time></trkpt><trkpt lat="43.36845" lon="11.4282667"><ele>284.0</ele><time>2026-04-20T09:09:31.928Z</time></trkpt><trkpt lat="43.36855" lon="11.4283417"><ele>284.0</ele><time>2026-04-20T09:09:32.928Z</time></trkpt><trkpt lat="43.36866" lon="11.42841"><ele>284.0</ele><time>2026-04-20T09:09:33.929Z</time></trkpt><trkpt lat="43.3687817" lon="11.428455"><ele>283.5</ele><time>2026-04-20T09:09:34.929Z</time></trkpt><trkpt lat="43.3689083" lon="11.4284767"><ele>283.0</ele><time>2026-04-20T09:09:35.929Z</time></trkpt><trkpt lat="43.3690483" lon="11.4284883"><ele>282.5</ele><time>2026-04-20T09:09:36.929Z</time></trkpt><trkpt lat="43.3691867" lon="11.4285"><ele>282.0</ele><time>2026-04-20T09:09:37.928Z</time></trkpt><trkpt lat="43.3693233" lon="11.428505"><ele>282.0</ele><time>2026-04-20T09:09:38.929Z</time></trkpt><trkpt lat="43.3694617" lon="11.4285133"><ele>282.0</ele><time>2026-04-20T09:09:39.928Z</time></trkpt><trkpt lat="43.369605" lon="11.42852"><ele>282.0</ele><time>2026-04-20T09:09:40.928Z</time></trkpt><trkpt lat="43.3697567" lon="11.4285283"><ele>282.0</ele><time>2026-04-20T09:09:41.928Z</time></trkpt><trkpt lat="43.3699017" lon="11.4285433"><ele>283.25</ele><time>2026-04-20T09:09:42.928Z</time></trkpt><trkpt lat="43.3700383" lon="11.428565"><ele>284.5</ele><time>2026-04-20T09:09:43.928Z</time></trkpt><trkpt lat="43.3701817" lon="11.428585"><ele>285.75</ele><time>2026-04-20T09:09:44.928Z</time></trkpt><trkpt lat="43.3703217" lon="11.4286083"><ele>287.0</ele><time>2026-04-20T09:09:45.928Z</time></trkpt><trkpt lat="43.3704683" lon="11.4286333"><ele>288.75</ele><time>2026-04-20T09:09:46.928Z</time></trkpt><trkpt lat="43.3706083" lon="11.4286517"><ele>290.5</ele><time>2026-04-20T09:09:47.928Z</time></trkpt><trkpt lat="43.3707517" lon="11.4286717"><ele>292.25</ele><time>2026-04-20T09:09:48.928Z</time></trkpt><trkpt lat="43.3708833" lon="11.4286967"><ele>294.0</ele><time>2026-04-20T09:09:49.928Z</time></trkpt><trkpt lat="43.371015" lon="11.428725"><ele>294.0</ele><time>2026-04-20T09:09:50.928Z</time></trkpt><trkpt lat="43.37115" lon="11.4287617"><ele>294.0</ele><time>2026-04-20T09:09:51.928Z</time></trkpt><trkpt lat="43.3712783" lon="11.4287967"><ele>294.0</ele><time>2026-04-20T09:09:52.928Z</time></trkpt><trkpt lat="43.3714033" lon="11.42884"><ele>294.0</ele><time>2026-04-20T09:09:53.928Z</time></trkpt><trkpt lat="43.3715317" lon="11.4289067"><ele>293.75</ele><time>2026-04-20T09:09:54.928Z</time></trkpt><trkpt lat="43.3716617" lon="11.4289733"><ele>293.5</ele><time>2026-04-20T09:09:55.928Z</time></trkpt><trkpt lat="43.3717983" lon="11.4290417"><ele>293.25</ele><time>2026-04-20T09:09:56.929Z</time></trkpt><trkpt lat="43.3719367" lon="11.429115"><ele>293.0</ele><time>2026-04-20T09:09:57.928Z</time></trkpt><trkpt lat="43.3720833" lon="11.429195"><ele>294.33333333333337</ele><time>2026-04-20T09:09:58.928Z</time></trkpt><trkpt lat="43.37223" lon="11.4292783"><ele>295.6666666666667</ele><time>2026-04-20T09:09:59.929Z</time></trkpt><trkpt lat="43.3723717" lon="11.42936"><ele>297.0</ele><time>2026-04-20T09:10:00.928Z</time></trkpt><trkpt lat="43.3725233" lon="11.4294483"><ele>297.0</ele><time>2026-04-20T09:10:01.928Z</time></trkpt><trkpt lat="43.372665" lon="11.429525"><ele>297.0</ele><time>2026-04-20T09:10:02.928Z</time></trkpt><trkpt lat="43.3728" lon="11.4296117"><ele>297.0</ele><time>2026-04-20T09:10:03.928Z</time></trkpt><trkpt lat="43.3729367" lon="11.4296917"><ele>298.75</ele><time>2026-04-20T09:10:04.928Z</time></trkpt><trkpt lat="43.3730667" lon="11.4297783"><ele>300.5</ele><time>2026-04-20T09:10:05.928Z</time></trkpt><trkpt lat="43.373205" lon="11.4298633"><ele>302.25</ele><time>2026-04-20T09:10:06.928Z</time></trkpt><trkpt lat="43.3733383" lon="11.4299483"><ele>304.0</ele><time>2026-04-20T09:10:07.928Z</time></trkpt><trkpt lat="43.373475" lon="11.430015"><ele>304.0</ele><time>2026-04-20T09:10:08.928Z</time></trkpt><trkpt lat="43.373615" lon="11.43008"><ele>304.0</ele><time>2026-04-20T09:10:09.928Z</time></trkpt><trkpt lat="43.3737483" lon="11.4301367"><ele>304.0</ele><time>2026-04-20T09:10:10.928Z</time></trkpt><trkpt lat="43.3738817" lon="11.4301917"><ele>304.0</ele><time>2026-04-20T09:10:11.928Z</time></trkpt><trkpt lat="43.37402" lon="11.4302567"><ele>304.25</ele><time>2026-04-20T09:10:12.929Z</time></trkpt><trkpt lat="43.3741583" lon="11.4303033"><ele>304.5</ele><time>2026-04-20T09:10:13.928Z</time></trkpt><trkpt lat="43.3743" lon="11.4303467"><ele>304.75</ele><time>2026-04-20T09:10:14.928Z</time></trkpt><trkpt lat="43.3744333" lon="11.4303867"><ele>305.0</ele><time>2026-04-20T09:10:15.928Z</time></trkpt><trkpt lat="43.3745618" lon="11.4304311"><ele>304.75</ele><time>2026-04-20T09:10:16.928Z</time></trkpt><trkpt lat="43.3746928" lon="11.4304819"><ele>304.5</ele><time>2026-04-20T09:10:17.928Z</time></trkpt><trkpt lat="43.3748206" lon="11.4305344"><ele>304.25</ele><time>2026-04-20T09:10:18.928Z</time></trkpt><trkpt lat="43.3749504" lon="11.4305892"><ele>304.0</ele><time>2026-04-20T09:10:19.928Z</time></trkpt><trkpt lat="43.3750808" lon="11.4306579"><ele>304.0</ele><time>2026-04-20T09:10:20.929Z</time></trkpt><trkpt lat="43.3752147" lon="11.4307475"><ele>304.0</ele><time>2026-04-20T09:10:21.928Z</time></trkpt><trkpt lat="43.3753445" lon="11.4308435"><ele>304.0</ele><time>2026-04-20T09:10:22.928Z</time></trkpt><trkpt lat="43.3754706" lon="11.4309438"><ele>304.0</ele><time>2026-04-20T09:10:23.928Z</time></trkpt><trkpt lat="43.3755967" lon="11.4310441"><ele>306.25</ele><time>2026-04-20T09:10:24.928Z</time></trkpt><trkpt lat="43.3757089" lon="11.4311325"><ele>308.5</ele><time>2026-04-20T09:10:25.928Z</time></trkpt><trkpt lat="43.375824" lon="11.4311969"><ele>310.75</ele><time>2026-04-20T09:10:26.928Z</time></trkpt><trkpt lat="43.3759356" lon="11.4312417"><ele>313.0</ele><time>2026-04-20T09:10:27.928Z</time></trkpt><trkpt lat="43.3760445" lon="11.431269"><ele>313.0</ele><time>2026-04-20T09:10:28.928Z</time></trkpt><trkpt lat="43.376155" lon="11.4312767"><ele>313.0</ele><time>2026-04-20T09:10:29.928Z</time></trkpt><trkpt lat="43.37627" lon="11.431285"><ele>313.0</ele><time>2026-04-20T09:10:30.928Z</time></trkpt><trkpt lat="43.3763833" lon="11.4312817"><ele>313.0</ele><time>2026-04-20T09:10:31.928Z</time></trkpt><trkpt lat="43.3764917" lon="11.4312983"><ele>313.0</ele><time>2026-04-20T09:10:32.928Z</time></trkpt><trkpt lat="43.3765967" lon="11.43131"><ele>313.6</ele><time>2026-04-20T09:10:33.928Z</time></trkpt><trkpt lat="43.3767033" lon="11.4313267"><ele>314.20000000000005</ele><time>2026-04-20T09:10:34.928Z</time></trkpt><trkpt lat="43.3768083" lon="11.4313383"><ele>314.8</ele><time>2026-04-20T09:10:35.928Z</time></trkpt><trkpt lat="43.3769217" lon="11.4313567"><ele>315.40000000000003</ele><time>2026-04-20T09:10:36.928Z</time></trkpt><trkpt lat="43.3770367" lon="11.4313683"><ele>316.0</ele><time>2026-04-20T09:10:37.928Z</time></trkpt><trkpt lat="43.377155" lon="11.4313933"><ele>316.75</ele><time>2026-04-20T09:10:38.928Z</time></trkpt><trkpt lat="43.3772783" lon="11.4314217"><ele>317.5</ele><time>2026-04-20T09:10:39.929Z</time></trkpt><trkpt lat="43.3774" lon="11.4314667"><ele>318.25</ele><time>2026-04-20T09:10:40.928Z</time></trkpt><trkpt lat="43.3775233" lon="11.4315167"><ele>319.0</ele><time>2026-04-20T09:10:41.929Z</time></trkpt><trkpt lat="43.3776467" lon="11.4315767"><ele>319.0</ele><time>2026-04-20T09:10:42.928Z</time></trkpt><trkpt lat="43.3777683" lon="11.4316383"><ele>319.0</ele><time>2026-04-20T09:10:43.928Z</time></trkpt><trkpt lat="43.37789" lon="11.4316983"><ele>319.0</ele><time>2026-04-20T09:10:44.929Z</time></trkpt><trkpt lat="43.37801" lon="11.43176"><ele>319.0</ele><time>2026-04-20T09:10:45.928Z</time></trkpt><trkpt lat="43.3781333" lon="11.4318267"><ele>318.5</ele><time>2026-04-20T09:10:46.929Z</time></trkpt><trkpt lat="43.3782567" lon="11.4318817"><ele>318.0</ele><time>2026-04-20T09:10:47.928Z</time></trkpt><trkpt lat="43.3783733" lon="11.4319383"><ele>317.5</ele><time>2026-04-20T09:10:48.928Z</time></trkpt><trkpt lat="43.3784883" lon="11.4319933"><ele>317.0</ele><time>2026-04-20T09:10:49.929Z</time></trkpt><trkpt lat="43.3786" lon="11.43205"><ele>317.0</ele><time>2026-04-20T09:10:50.928Z</time></trkpt><trkpt lat="43.3787133" lon="11.4321117"><ele>317.0</ele><time>2026-04-20T09:10:51.929Z</time></trkpt><trkpt lat="43.3788333" lon="11.4321667"><ele>317.0</ele><time>2026-04-20T09:10:52.928Z</time></trkpt><trkpt lat="43.3789517" lon="11.4322233"><ele>317.0</ele><time>2026-04-20T09:10:53.928Z</time></trkpt><trkpt lat="43.3790667" lon="11.4322817"><ele>317.2</ele><time>2026-04-20T09:10:54.928Z</time></trkpt><trkpt lat="43.3791783" lon="11.4323367"><ele>317.4</ele><time>2026-04-20T09:10:55.928Z</time></trkpt><trkpt lat="43.3792817" lon="11.4323867"><ele>317.6</ele><time>2026-04-20T09:10:56.928Z</time></trkpt><trkpt lat="43.3793883" lon="11.432435"><ele>317.8</ele><time>2026-04-20T09:10:57.928Z</time></trkpt><trkpt lat="43.37949" lon="11.4324817"><ele>318.0</ele><time>2026-04-20T09:10:58.928Z</time></trkpt><trkpt lat="43.3795967" lon="11.432525"><ele>318.75</ele><time>2026-04-20T09:10:59.929Z</time></trkpt><trkpt lat="43.3797033" lon="11.432565"><ele>319.5</ele><time>2026-04-20T09:11:00.928Z</time></trkpt><trkpt lat="43.37982" lon="11.4326017"><ele>320.25</ele><time>2026-04-20T09:11:01.929Z</time></trkpt><trkpt lat="43.3799383" lon="11.4326233"><ele>321.0</ele><time>2026-04-20T09:11:02.929Z</time></trkpt><trkpt lat="43.3800567" lon="11.4326383"><ele>321.0</ele><time>2026-04-20T09:11:03.929Z</time></trkpt><trkpt lat="43.380175" lon="11.4326483"><ele>321.0</ele><time>2026-04-20T09:11:04.928Z</time></trkpt><trkpt lat="43.3802883" lon="11.432675"><ele>321.0</ele><time>2026-04-20T09:11:05.928Z</time></trkpt><trkpt lat="43.3804017" lon="11.4327133"><ele>321.0</ele><time>2026-04-20T09:11:06.928Z</time></trkpt><trkpt lat="43.3805133" lon="11.43276"><ele>320.40000000000003</ele><time>2026-04-20T09:11:07.928Z</time></trkpt><trkpt lat="43.38061" lon="11.432825"><ele>319.8</ele><time>2026-04-20T09:11:08.929Z</time></trkpt><trkpt lat="43.3806883" lon="11.4329133"><ele>319.20000000000005</ele><time>2026-04-20T09:11:09.929Z</time></trkpt><trkpt lat="43.3807517" lon="11.43303"><ele>318.6</ele><time>2026-04-20T09:11:10.928Z</time></trkpt><trkpt lat="43.38081" lon="11.4331633"><ele>318.0</ele><time>2026-04-20T09:11:11.928Z</time></trkpt><trkpt lat="43.3808883" lon="11.4333033"><ele>317.75</ele><time>2026-04-20T09:11:12.928Z</time></trkpt><trkpt lat="43.380985" lon="11.433425"><ele>317.5</ele><time>2026-04-20T09:11:13.928Z</time></trkpt><trkpt lat="43.381085" lon="11.433535"><ele>317.25</ele><time>2026-04-20T09:11:14.928Z</time></trkpt><trkpt lat="43.3812017" lon="11.4336217"><ele>317.0</ele><time>2026-04-20T09:11:15.928Z</time></trkpt><trkpt lat="43.381315" lon="11.4337017"><ele>317.75</ele><time>2026-04-20T09:11:16.929Z</time></trkpt><trkpt lat="43.381435" lon="11.43378"><ele>318.5</ele><time>2026-04-20T09:11:17.928Z</time></trkpt><trkpt lat="43.3815517" lon="11.4338583"><ele>319.25</ele><time>2026-04-20T09:11:18.928Z</time></trkpt><trkpt lat="43.3816583" lon="11.4339267"><ele>320.0</ele><time>2026-04-20T09:11:19.929Z</time></trkpt><trkpt lat="43.3817583" lon="11.43396"><ele>321.0</ele><time>2026-04-20T09:11:20.929Z</time></trkpt><trkpt lat="43.3818583" lon="11.4339883"><ele>322.0</ele><time>2026-04-20T09:11:21.928Z</time></trkpt><trkpt lat="43.381965" lon="11.4340033"><ele>323.0</ele><time>2026-04-20T09:11:22.928Z</time></trkpt><trkpt lat="43.3820717" lon="11.4340167"><ele>324.0</ele><time>2026-04-20T09:11:23.928Z</time></trkpt><trkpt lat="43.38218" lon="11.434035"><ele>325.0</ele><time>2026-04-20T09:11:24.928Z</time></trkpt><trkpt lat="43.3822883" lon="11.4340517"><ele>325.4</ele><time>2026-04-20T09:11:25.928Z</time></trkpt><trkpt lat="43.38239" lon="11.4340683"><ele>325.8</ele><time>2026-04-20T09:11:26.929Z</time></trkpt><trkpt lat="43.3824883" lon="11.434095"><ele>326.20000000000005</ele><time>2026-04-20T09:11:27.929Z</time></trkpt><trkpt lat="43.3825967" lon="11.43412"><ele>326.6</ele><time>2026-04-20T09:11:28.928Z</time></trkpt><trkpt lat="43.3827" lon="11.4341633"><ele>327.0</ele><time>2026-04-20T09:11:29.929Z</time></trkpt><trkpt lat="43.3827983" lon="11.4342267"><ele>327.0</ele><time>2026-04-20T09:11:30.928Z</time></trkpt><trkpt lat="43.3828983" lon="11.4343067"><ele>327.0</ele><time>2026-04-20T09:11:31.928Z</time></trkpt><trkpt lat="43.3829967" lon="11.434395"><ele>327.0</ele><time>2026-04-20T09:11:32.928Z</time></trkpt><trkpt lat="43.383095" lon="11.43448"><ele>327.0</ele><time>2026-04-20T09:11:33.928Z</time></trkpt><trkpt lat="43.3831917" lon="11.4345717"><ele>326.25</ele><time>2026-04-20T09:11:34.928Z</time></trkpt><trkpt lat="43.3832867" lon="11.4346567"><ele>325.5</ele><time>2026-04-20T09:11:35.928Z</time></trkpt><trkpt lat="43.383385" lon="11.4347317"><ele>324.75</ele><time>2026-04-20T09:11:36.928Z</time></trkpt><trkpt lat="43.38349" lon="11.4348033"><ele>324.0</ele><time>2026-04-20T09:11:37.928Z</time></trkpt><trkpt lat="43.383605" lon="11.4348733"><ele>324.0</ele><time>2026-04-20T09:11:38.928Z</time></trkpt><trkpt lat="43.3837283" lon="11.4349233"><ele>324.0</ele><time>2026-04-20T09:11:39.929Z</time></trkpt><trkpt lat="43.3838533" lon="11.4349633"><ele>324.0</ele><time>2026-04-20T09:11:40.928Z</time></trkpt><trkpt lat="43.38397" lon="11.4349967"><ele>324.0</ele><time>2026-04-20T09:11:41.928Z</time></trkpt><trkpt lat="43.3840833" lon="11.4350217"><ele>324.25</ele><time>2026-04-20T09:11:42.928Z</time></trkpt><trkpt lat="43.3841967" lon="11.435045"><ele>324.5</ele><time>2026-04-20T09:11:43.928Z</time></trkpt><trkpt lat="43.384315" lon="11.4350767"><ele>324.75</ele><time>2026-04-20T09:11:44.929Z</time></trkpt><trkpt lat="43.384435" lon="11.435105"><ele>325.0</ele><time>2026-04-20T09:11:45.928Z</time></trkpt><trkpt lat="43.3845583" lon="11.4351317"><ele>326.0</ele><time>2026-04-20T09:11:46.928Z</time></trkpt><trkpt lat="43.3846883" lon="11.4351667"><ele>327.0</ele><time>2026-04-20T09:11:47.929Z</time></trkpt><trkpt lat="43.3848133" lon="11.4352017"><ele>328.0</ele><time>2026-04-20T09:11:48.928Z</time></trkpt><trkpt lat="43.3849383" lon="11.4352467"><ele>329.0</ele><time>2026-04-20T09:11:49.928Z</time></trkpt><trkpt lat="43.3850567" lon="11.4353167"><ele>329.0</ele><time>2026-04-20T09:11:50.928Z</time></trkpt><trkpt lat="43.3851717" lon="11.4354"><ele>329.0</ele><time>2026-04-20T09:11:51.928Z</time></trkpt><trkpt lat="43.38528" lon="11.43549"><ele>329.0</ele><time>2026-04-20T09:11:52.928Z</time></trkpt><trkpt lat="43.3853933" lon="11.4355833"><ele>329.0</ele><time>2026-04-20T09:11:53.929Z</time></trkpt><trkpt lat="43.3855033" lon="11.4356767"><ele>330.75</ele><time>2026-04-20T09:11:54.928Z</time></trkpt><trkpt lat="43.3856033" lon="11.4357617"><ele>332.5</ele><time>2026-04-20T09:11:55.928Z</time></trkpt><trkpt lat="43.3857033" lon="11.43584"><ele>334.25</ele><time>2026-04-20T09:11:56.928Z</time></trkpt><trkpt lat="43.3857917" lon="11.435925"><ele>336.0</ele><time>2026-04-20T09:11:57.928Z</time></trkpt><trkpt lat="43.38588" lon="11.4360233"><ele>336.0</ele><time>2026-04-20T09:11:58.929Z</time></trkpt><trkpt lat="43.3859717" lon="11.4361383"><ele>336.0</ele><time>2026-04-20T09:11:59.928Z</time></trkpt><trkpt lat="43.3860567" lon="11.4362617"><ele>336.0</ele><time>2026-04-20T09:12:00.928Z</time></trkpt><trkpt lat="43.38614" lon="11.4363783"><ele>336.0</ele><time>2026-04-20T09:12:01.928Z</time></trkpt><trkpt lat="43.3862333" lon="11.4364967"><ele>336.0</ele><time>2026-04-20T09:12:02.928Z</time></trkpt><trkpt lat="43.38633" lon="11.436605"><ele>336.0</ele><time>2026-04-20T09:12:03.929Z</time></trkpt><trkpt lat="43.3864317" lon="11.4367217"><ele>336.0</ele><time>2026-04-20T09:12:04.928Z</time></trkpt><trkpt lat="43.386535" lon="11.4368267"><ele>336.0</ele><time>2026-04-20T09:12:05.928Z</time></trkpt><trkpt lat="43.38663" lon="11.4369333"><ele>336.0</ele><time>2026-04-20T09:12:06.928Z</time></trkpt><trkpt lat="43.3867133" lon="11.4370417"><ele>336.0</ele><time>2026-04-20T09:12:07.928Z</time></trkpt><trkpt lat="43.3867867" lon="11.437175"><ele>336.0</ele><time>2026-04-20T09:12:08.929Z</time></trkpt><trkpt lat="43.3868483" lon="11.4373183"><ele>336.0</ele><time>2026-04-20T09:12:09.928Z</time></trkpt><trkpt lat="43.3868917" lon="11.4374767"><ele>337.75</ele><time>2026-04-20T09:12:10.928Z</time></trkpt><trkpt lat="43.3869317" lon="11.437645"><ele>339.5</ele><time>2026-04-20T09:12:11.928Z</time></trkpt><trkpt lat="43.3869733" lon="11.4378233"><ele>341.25</ele><time>2026-04-20T09:12:12.929Z</time></trkpt><trkpt lat="43.3870083" lon="11.4379967"><ele>343.0</ele><time>2026-04-20T09:12:13.929Z</time></trkpt><trkpt lat="43.3870433" lon="11.4381533"><ele>343.0</ele><time>2026-04-20T09:12:14.929Z</time></trkpt><trkpt lat="43.38708" lon="11.438315"><ele>343.0</ele><time>2026-04-20T09:12:15.928Z</time></trkpt><trkpt lat="43.3871267" lon="11.4384733"><ele>343.0</ele><time>2026-04-20T09:12:16.929Z</time></trkpt><trkpt lat="43.3871917" lon="11.4386233"><ele>343.0</ele><time>2026-04-20T09:12:17.928Z</time></trkpt><trkpt lat="43.3872683" lon="11.438765"><ele>342.75</ele><time>2026-04-20T09:12:18.929Z</time></trkpt><trkpt lat="43.387355" lon="11.4388983"><ele>342.5</ele><time>2026-04-20T09:12:19.928Z</time></trkpt><trkpt lat="43.3874467" lon="11.4390383"><ele>342.25</ele><time>2026-04-20T09:12:20.928Z</time></trkpt><trkpt lat="43.3875433" lon="11.4391867"><ele>342.0</ele><time>2026-04-20T09:12:21.928Z</time></trkpt><trkpt lat="43.387635" lon="11.4393367"><ele>342.0</ele><time>2026-04-20T09:12:22.928Z</time></trkpt><trkpt lat="43.3877217" lon="11.4394917"><ele>342.0</ele><time>2026-04-20T09:12:23.928Z</time></trkpt><trkpt lat="43.387805" lon="11.4396317"><ele>342.0</ele><time>2026-04-20T09:12:24.928Z</time></trkpt><trkpt lat="43.3878817" lon="11.4397917"><ele>342.0</ele><time>2026-04-20T09:12:25.928Z</time></trkpt><trkpt lat="43.38796" lon="11.4399433"><ele>342.75</ele><time>2026-04-20T09:12:26.928Z</time></trkpt><trkpt lat="43.3880483" lon="11.4400883"><ele>343.5</ele><time>2026-04-20T09:12:27.929Z</time></trkpt><trkpt lat="43.3881367" lon="11.4402317"><ele>344.25</ele><time>2026-04-20T09:12:28.929Z</time></trkpt><trkpt lat="43.3882317" lon="11.4403617"><ele>345.0</ele><time>2026-04-20T09:12:29.928Z</time></trkpt><trkpt lat="43.3883267" lon="11.4404917"><ele>347.25</ele><time>2026-04-20T09:12:30.928Z</time></trkpt><trkpt lat="43.3884233" lon="11.440615"><ele>349.5</ele><time>2026-04-20T09:12:31.928Z</time></trkpt><trkpt lat="43.3885233" lon="11.4407317"><ele>351.75</ele><time>2026-04-20T09:12:32.927Z</time></trkpt><trkpt lat="43.3886233" lon="11.4408467"><ele>354.0</ele><time>2026-04-20T09:12:33.927Z</time></trkpt><trkpt lat="43.3887217" lon="11.440965"><ele>354.0</ele><time>2026-04-20T09:12:34.927Z</time></trkpt><trkpt lat="43.38882" lon="11.4410933"><ele>354.0</ele><time>2026-04-20T09:12:35.927Z</time></trkpt><trkpt lat="43.3889133" lon="11.44122"><ele>354.0</ele><time>2026-04-20T09:12:36.927Z</time></trkpt><trkpt lat="43.389005" lon="11.4413533"><ele>354.0</ele><time>2026-04-20T09:12:37.927Z</time></trkpt><trkpt lat="43.3890933" lon="11.44148"><ele>354.75</ele><time>2026-04-20T09:12:38.927Z</time></trkpt><trkpt lat="43.38918" lon="11.4416183"><ele>355.5</ele><time>2026-04-20T09:12:39.927Z</time></trkpt><trkpt lat="43.3892717" lon="11.4417517"><ele>356.25</ele><time>2026-04-20T09:12:40.927Z</time></trkpt><trkpt lat="43.38936" lon="11.44188"><ele>357.0</ele><time>2026-04-20T09:12:41.927Z</time></trkpt><trkpt lat="43.389445" lon="11.4420183"><ele>357.0</ele><time>2026-04-20T09:12:42.927Z</time></trkpt><trkpt lat="43.3895233" lon="11.4421483"><ele>357.0</ele><time>2026-04-20T09:12:43.926Z</time></trkpt><trkpt lat="43.3895917" lon="11.4422733"><ele>357.0</ele><time>2026-04-20T09:12:44.927Z</time></trkpt><trkpt lat="43.3896567" lon="11.44241"><ele>357.0</ele><time>2026-04-20T09:12:45.927Z</time></trkpt><trkpt lat="43.38972" lon="11.442555"><ele>358.6</ele><time>2026-04-20T09:12:46.927Z</time></trkpt><trkpt lat="43.3897717" lon="11.44269"><ele>360.20000000000005</ele><time>2026-04-20T09:12:47.927Z</time></trkpt><trkpt lat="43.3898367" lon="11.442785"><ele>361.8</ele><time>2026-04-20T09:12:48.927Z</time></trkpt><trkpt lat="43.3899167" lon="11.4428567"><ele>363.4</ele><time>2026-04-20T09:12:49.927Z</time></trkpt><trkpt lat="43.3900167" lon="11.4429017"><ele>365.0</ele><time>2026-04-20T09:12:50.927Z</time></trkpt><trkpt lat="43.3901217" lon="11.4429283"><ele>365.0</ele><time>2026-04-20T09:12:51.928Z</time></trkpt><trkpt lat="43.39024" lon="11.4429417"><ele>365.0</ele><time>2026-04-20T09:12:52.928Z</time></trkpt><trkpt lat="43.3903567" lon="11.442955"><ele>365.0</ele><time>2026-04-20T09:12:53.928Z</time></trkpt><trkpt lat="43.39048" lon="11.442965"><ele>365.0</ele><time>2026-04-20T09:12:54.928Z</time></trkpt><trkpt lat="43.3906083" lon="11.4429617"><ele>365.75</ele><time>2026-04-20T09:12:55.927Z</time></trkpt><trkpt lat="43.3907333" lon="11.4429517"><ele>366.5</ele><time>2026-04-20T09:12:56.927Z</time></trkpt><trkpt lat="43.39087" lon="11.4429267"><ele>367.25</ele><time>2026-04-20T09:12:57.928Z</time></trkpt><trkpt lat="43.3910067" lon="11.4428983"><ele>368.0</ele><time>2026-04-20T09:12:58.927Z</time></trkpt><trkpt lat="43.39114" lon="11.4428767"><ele>368.0</ele><time>2026-04-20T09:12:59.927Z</time></trkpt><trkpt lat="43.39127" lon="11.4428617"><ele>368.0</ele><time>2026-04-20T09:13:00.928Z</time></trkpt><trkpt lat="43.3913917" lon="11.4428583"><ele>368.0</ele><time>2026-04-20T09:13:01.927Z</time></trkpt><trkpt lat="43.39151" lon="11.44286"><ele>368.0</ele><time>2026-04-20T09:13:02.927Z</time></trkpt><trkpt lat="43.39162" lon="11.4428483"><ele>367.5</ele><time>2026-04-20T09:13:03.927Z</time></trkpt><trkpt lat="43.3917317" lon="11.442825"><ele>367.0</ele><time>2026-04-20T09:13:04.927Z</time></trkpt><trkpt lat="43.3918517" lon="11.4427817"><ele>366.5</ele><time>2026-04-20T09:13:05.928Z</time></trkpt><trkpt lat="43.3919667" lon="11.4427183"><ele>366.0</ele><time>2026-04-20T09:13:06.927Z</time></trkpt><trkpt lat="43.3920783" lon="11.4426317"><ele>366.75</ele><time>2026-04-20T09:13:07.927Z</time></trkpt><trkpt lat="43.3922" lon="11.4425467"><ele>367.5</ele><time>2026-04-20T09:13:08.927Z</time></trkpt><trkpt lat="43.392325" lon="11.4424717"><ele>368.25</ele><time>2026-04-20T09:13:09.927Z</time></trkpt><trkpt lat="43.39245" lon="11.44241"><ele>369.0</ele><time>2026-04-20T09:13:10.927Z</time></trkpt><trkpt lat="43.392575" lon="11.44237"><ele>369.0</ele><time>2026-04-20T09:13:11.927Z</time></trkpt><trkpt lat="43.3927117" lon="11.4423333"><ele>369.0</ele><time>2026-04-20T09:13:12.927Z</time></trkpt><trkpt lat="43.39284" lon="11.4423133"><ele>369.0</ele><time>2026-04-20T09:13:13.927Z</time></trkpt><trkpt lat="43.3929667" lon="11.4423033"><ele>369.0</ele><time>2026-04-20T09:13:14.927Z</time></trkpt><trkpt lat="43.39309" lon="11.4423333"><ele>368.75</ele><time>2026-04-20T09:13:15.927Z</time></trkpt><trkpt lat="43.3932133" lon="11.4423767"><ele>368.5</ele><time>2026-04-20T09:13:16.927Z</time></trkpt><trkpt lat="43.3933417" lon="11.4424417"><ele>368.25</ele><time>2026-04-20T09:13:17.927Z</time></trkpt><trkpt lat="43.3934717" lon="11.4425017"><ele>368.0</ele><time>2026-04-20T09:13:18.927Z</time></trkpt><trkpt lat="43.3936017" lon="11.4425567"><ele>368.0</ele><time>2026-04-20T09:13:19.927Z</time></trkpt><trkpt lat="43.3937433" lon="11.4425933"><ele>368.0</ele><time>2026-04-20T09:13:20.925Z</time></trkpt><trkpt lat="43.39388" lon="11.4426267"><ele>368.0</ele><time>2026-04-20T09:13:21.927Z</time></trkpt><trkpt lat="43.3940183" lon="11.4426417"><ele>368.0</ele><time>2026-04-20T09:13:22.928Z</time></trkpt><trkpt lat="43.39415" lon="11.4426567"><ele>368.0</ele><time>2026-04-20T09:13:23.927Z</time></trkpt><trkpt lat="43.394275" lon="11.4426767"><ele>368.0</ele><time>2026-04-20T09:13:24.928Z</time></trkpt><trkpt lat="43.3944017" lon="11.442685"><ele>368.0</ele><time>2026-04-20T09:13:25.927Z</time></trkpt><trkpt lat="43.39454" lon="11.442705"><ele>368.0</ele><time>2026-04-20T09:13:26.927Z</time></trkpt><trkpt lat="43.3946533" lon="11.4427167"><ele>368.0</ele><time>2026-04-20T09:13:27.928Z</time></trkpt><trkpt lat="43.3947683" lon="11.442705"><ele>368.0</ele><time>2026-04-20T09:13:28.927Z</time></trkpt><trkpt lat="43.3948783" lon="11.4426917"><ele>368.0</ele><time>2026-04-20T09:13:29.927Z</time></trkpt><trkpt lat="43.3949917" lon="11.4426833"><ele>368.0</ele><time>2026-04-20T09:13:30.927Z</time></trkpt><trkpt lat="43.3951" lon="11.4426683"><ele>368.0</ele><time>2026-04-20T09:13:31.927Z</time></trkpt><trkpt lat="43.3952183" lon="11.442665"><ele>368.0</ele><time>2026-04-20T09:13:32.927Z</time></trkpt><trkpt lat="43.3953383" lon="11.4426783"><ele>368.0</ele><time>2026-04-20T09:13:33.927Z</time></trkpt><trkpt lat="43.395455" lon="11.4427067"><ele>368.0</ele><time>2026-04-20T09:13:34.927Z</time></trkpt><trkpt lat="43.39558" lon="11.4427517"><ele>368.0</ele><time>2026-04-20T09:13:35.927Z</time></trkpt><trkpt lat="43.3957117" lon="11.4428167"><ele>367.75</ele><time>2026-04-20T09:13:36.928Z</time></trkpt><trkpt lat="43.3958483" lon="11.4428717"><ele>367.5</ele><time>2026-04-20T09:13:37.927Z</time></trkpt><trkpt lat="43.3959833" lon="11.4429233"><ele>367.25</ele><time>2026-04-20T09:13:38.928Z</time></trkpt><trkpt lat="43.3961233" lon="11.4429767"><ele>367.0</ele><time>2026-04-20T09:13:39.927Z</time></trkpt><trkpt lat="43.3962583" lon="11.4430367"><ele>368.0</ele><time>2026-04-20T09:13:40.927Z</time></trkpt><trkpt lat="43.3963917" lon="11.4430883"><ele>369.0</ele><time>2026-04-20T09:13:41.927Z</time></trkpt><trkpt lat="43.396525" lon="11.443145"><ele>370.0</ele><time>2026-04-20T09:13:42.928Z</time></trkpt><trkpt lat="43.3966617" lon="11.4431883"><ele>371.0</ele><time>2026-04-20T09:13:43.927Z</time></trkpt><trkpt lat="43.3968033" lon="11.4432383"><ele>371.0</ele><time>2026-04-20T09:13:44.927Z</time></trkpt><trkpt lat="43.3969417" lon="11.443295"><ele>371.0</ele><time>2026-04-20T09:13:45.927Z</time></trkpt><trkpt lat="43.3970783" lon="11.44335"><ele>371.0</ele><time>2026-04-20T09:13:46.927Z</time></trkpt><trkpt lat="43.3972183" lon="11.4434033"><ele>371.0</ele><time>2026-04-20T09:13:47.927Z</time></trkpt><trkpt lat="43.3973467" lon="11.4434483"><ele>371.5</ele><time>2026-04-20T09:13:48.927Z</time></trkpt><trkpt lat="43.397475" lon="11.44349"><ele>372.0</ele><time>2026-04-20T09:13:49.927Z</time></trkpt><trkpt lat="43.3975933" lon="11.4435317"><ele>372.5</ele><time>2026-04-20T09:13:50.927Z</time></trkpt><trkpt lat="43.3977067" lon="11.4435717"><ele>373.0</ele><time>2026-04-20T09:13:51.928Z</time></trkpt><trkpt lat="43.3978083" lon="11.4436067"><ele>373.0</ele><time>2026-04-20T09:13:52.927Z</time></trkpt><trkpt lat="43.3979117" lon="11.4436283"><ele>373.0</ele><time>2026-04-20T09:13:53.927Z</time></trkpt><trkpt lat="43.3980033" lon="11.4436367"><ele>373.0</ele><time>2026-04-20T09:13:54.928Z</time></trkpt><trkpt lat="43.398095" lon="11.443635"><ele>373.0</ele><time>2026-04-20T09:13:55.927Z</time></trkpt><trkpt lat="43.398185" lon="11.4436117"><ele>373.0</ele><time>2026-04-20T09:13:56.927Z</time></trkpt><trkpt lat="43.39828" lon="11.4435917"><ele>373.59999999999997</ele><time>2026-04-20T09:13:57.927Z</time></trkpt><trkpt lat="43.3983783" lon="11.443575"><ele>374.2</ele><time>2026-04-20T09:13:58.927Z</time></trkpt><trkpt lat="43.39847" lon="11.4435533"><ele>374.8</ele><time>2026-04-20T09:13:59.928Z</time></trkpt><trkpt lat="43.39856" lon="11.443535"><ele>375.4</ele><time>2026-04-20T09:14:00.928Z</time></trkpt><trkpt lat="43.398645" lon="11.44352"><ele>376.0</ele><time>2026-04-20T09:14:01.927Z</time></trkpt><trkpt lat="43.3987283" lon="11.443495"><ele>376.0</ele><time>2026-04-20T09:14:02.927Z</time></trkpt><trkpt lat="43.3988067" lon="11.443475"><ele>376.0</ele><time>2026-04-20T09:14:03.927Z</time></trkpt><trkpt lat="43.3988867" lon="11.4434583"><ele>376.0</ele><time>2026-04-20T09:14:04.927Z</time></trkpt><trkpt lat="43.3989617" lon="11.4434533"><ele>376.0</ele><time>2026-04-20T09:14:05.928Z</time></trkpt><trkpt lat="43.3990367" lon="11.4434617"><ele>376.0</ele><time>2026-04-20T09:14:06.927Z</time></trkpt><trkpt lat="43.39911" lon="11.4434817"><ele>376.0</ele><time>2026-04-20T09:14:07.927Z</time></trkpt><trkpt lat="43.3991967" lon="11.4435167"><ele>376.0</ele><time>2026-04-20T09:14:08.927Z</time></trkpt><trkpt lat="43.3992867" lon="11.443555"><ele>376.0</ele><time>2026-04-20T09:14:09.927Z</time></trkpt><trkpt lat="43.3993783" lon="11.4435917"><ele>376.0</ele><time>2026-04-20T09:14:10.927Z</time></trkpt><trkpt lat="43.399475" lon="11.4436283"><ele>376.0</ele><time>2026-04-20T09:14:11.927Z</time></trkpt><trkpt lat="43.39957" lon="11.44367"><ele>376.0</ele><time>2026-04-20T09:14:12.928Z</time></trkpt><trkpt lat="43.39966" lon="11.44371"><ele>376.20000000000005</ele><time>2026-04-20T09:14:13.928Z</time></trkpt><trkpt lat="43.3997483" lon="11.4437633"><ele>376.40000000000003</ele><time>2026-04-20T09:14:14.927Z</time></trkpt><trkpt lat="43.3998317" lon="11.4438417"><ele>376.6</ele><time>2026-04-20T09:14:15.927Z</time></trkpt><trkpt lat="43.399915" lon="11.4439317"><ele>376.8</ele><time>2026-04-20T09:14:16.928Z</time></trkpt><trkpt lat="43.3999983" lon="11.44404"><ele>377.0</ele><time>2026-04-20T09:14:17.927Z</time></trkpt><trkpt lat="43.4000783" lon="11.4441567"><ele>377.0</ele><time>2026-04-20T09:14:18.927Z</time></trkpt><trkpt lat="43.40016" lon="11.44427"><ele>377.0</ele><time>2026-04-20T09:14:19.927Z</time></trkpt><trkpt lat="43.4002483" lon="11.4443933"><ele>377.0</ele><time>2026-04-20T09:14:20.927Z</time></trkpt><trkpt lat="43.4003383" lon="11.4445217"><ele>377.0</ele><time>2026-04-20T09:14:21.928Z</time></trkpt><trkpt lat="43.400435" lon="11.444655"><ele>378.25</ele><time>2026-04-20T09:14:22.927Z</time></trkpt><trkpt lat="43.4005333" lon="11.4447883"><ele>379.5</ele><time>2026-04-20T09:14:23.927Z</time></trkpt><trkpt lat="43.4006367" lon="11.4449267"><ele>380.75</ele><time>2026-04-20T09:14:24.927Z</time></trkpt><trkpt lat="43.400735" lon="11.44506"><ele>382.0</ele><time>2026-04-20T09:14:25.927Z</time></trkpt><trkpt lat="43.4008283" lon="11.4451817"><ele>382.0</ele><time>2026-04-20T09:14:26.927Z</time></trkpt><trkpt lat="43.40091" lon="11.445295"><ele>382.0</ele><time>2026-04-20T09:14:27.927Z</time></trkpt><trkpt lat="43.4009933" lon="11.4454183"><ele>382.0</ele><time>2026-04-20T09:14:28.927Z</time></trkpt><trkpt lat="43.4010733" lon="11.4455483"><ele>382.0</ele><time>2026-04-20T09:14:29.928Z</time></trkpt><trkpt lat="43.4011517" lon="11.445685"><ele>382.25</ele><time>2026-04-20T09:14:30.927Z</time></trkpt><trkpt lat="43.4012383" lon="11.4458233"><ele>382.5</ele><time>2026-04-20T09:14:31.927Z</time></trkpt><trkpt lat="43.4013217" lon="11.4459583"><ele>382.75</ele><time>2026-04-20T09:14:32.927Z</time></trkpt><trkpt lat="43.4014167" lon="11.4460867"><ele>383.0</ele><time>2026-04-20T09:14:33.927Z</time></trkpt><trkpt lat="43.4015083" lon="11.44621"><ele>384.25</ele><time>2026-04-20T09:14:34.927Z</time></trkpt><trkpt lat="43.4016083" lon="11.44634"><ele>385.5</ele><time>2026-04-20T09:14:35.928Z</time></trkpt><trkpt lat="43.4017067" lon="11.4464517"><ele>386.75</ele><time>2026-04-20T09:14:36.927Z</time></trkpt><trkpt lat="43.401805" lon="11.4465717"><ele>388.0</ele><time>2026-04-20T09:14:37.928Z</time></trkpt><trkpt lat="43.4019083" lon="11.4466783"><ele>388.0</ele><time>2026-04-20T09:14:38.928Z</time></trkpt><trkpt lat="43.4020117" lon="11.44678"><ele>388.0</ele><time>2026-04-20T09:14:39.927Z</time></trkpt><trkpt lat="43.4021183" lon="11.44687"><ele>388.0</ele><time>2026-04-20T09:14:40.928Z</time></trkpt><trkpt lat="43.40224" lon="11.4469617"><ele>388.0</ele><time>2026-04-20T09:14:41.927Z</time></trkpt><trkpt lat="43.4023617" lon="11.44704"><ele>388.75</ele><time>2026-04-20T09:14:42.927Z</time></trkpt><trkpt lat="43.40249" lon="11.4471117"><ele>389.5</ele><time>2026-04-20T09:14:43.927Z</time></trkpt><trkpt lat="43.40262" lon="11.447185"><ele>390.25</ele><time>2026-04-20T09:14:44.927Z</time></trkpt><trkpt lat="43.4027483" lon="11.447265"><ele>391.0</ele><time>2026-04-20T09:14:45.927Z</time></trkpt><trkpt lat="43.4028767" lon="11.44734"><ele>393.0</ele><time>2026-04-20T09:14:46.927Z</time></trkpt><trkpt lat="43.403" lon="11.4474067"><ele>395.0</ele><time>2026-04-20T09:14:47.927Z</time></trkpt><trkpt lat="43.4031267" lon="11.4474783"><ele>397.0</ele><time>2026-04-20T09:14:48.928Z</time></trkpt><trkpt lat="43.4032533" lon="11.44755"><ele>399.0</ele><time>2026-04-20T09:14:49.927Z</time></trkpt><trkpt lat="43.4033817" lon="11.4476267"><ele>399.0</ele><time>2026-04-20T09:14:50.927Z</time></trkpt><trkpt lat="43.4035133" lon="11.4477"><ele>399.0</ele><time>2026-04-20T09:14:51.927Z</time></trkpt><trkpt lat="43.4036367" lon="11.447755"><ele>399.0</ele><time>2026-04-20T09:14:52.927Z</time></trkpt><trkpt lat="43.4037617" lon="11.4478133"><ele>399.0</ele><time>2026-04-20T09:14:53.927Z</time></trkpt><trkpt lat="43.4038933" lon="11.44787"><ele>398.75</ele><time>2026-04-20T09:14:54.927Z</time></trkpt><trkpt lat="43.4040183" lon="11.4479417"><ele>398.5</ele><time>2026-04-20T09:14:55.927Z</time></trkpt><trkpt lat="43.4041483" lon="11.4480167"><ele>398.25</ele><time>2026-04-20T09:14:56.927Z</time></trkpt><trkpt lat="43.4042767" lon="11.448105"><ele>398.0</ele><time>2026-04-20T09:14:57.927Z</time></trkpt><trkpt lat="43.4044067" lon="11.4482017"><ele>398.0</ele><time>2026-04-20T09:14:58.927Z</time></trkpt><trkpt lat="43.4045183" lon="11.44829"><ele>398.0</ele><time>2026-04-20T09:14:59.927Z</time></trkpt><trkpt lat="43.4046267" lon="11.448375"><ele>398.0</ele><time>2026-04-20T09:15:00.927Z</time></trkpt><trkpt lat="43.4047283" lon="11.448455"><ele>398.0</ele><time>2026-04-20T09:15:01.927Z</time></trkpt><trkpt lat="43.4048267" lon="11.448535"><ele>398.16666666666663</ele><time>2026-04-20T09:15:02.928Z</time></trkpt><trkpt lat="43.4049183" lon="11.4486117"><ele>398.3333333333333</ele><time>2026-04-20T09:15:03.927Z</time></trkpt><trkpt lat="43.405" lon="11.4486783"><ele>398.5</ele><time>2026-04-20T09:15:04.927Z</time></trkpt><trkpt lat="43.4050567" lon="11.448725"><ele>398.66666666666663</ele><time>2026-04-20T09:15:05.928Z</time></trkpt><trkpt lat="43.4051183" lon="11.44881"><ele>398.8333333333333</ele><time>2026-04-20T09:15:07.927Z</time></trkpt><trkpt lat="43.4051433" lon="11.4489117"><ele>399.0</ele><time>2026-04-20T09:15:11.927Z</time></trkpt><trkpt lat="43.40516" lon="11.449045"><ele>399.3333333333333</ele><time>2026-04-20T09:15:14.927Z</time></trkpt><trkpt lat="43.40521" lon="11.4491567"><ele>399.66666666666663</ele><time>2026-04-20T09:15:16.927Z</time></trkpt><trkpt lat="43.4052517" lon="11.4492267"><ele>400.0</ele><time>2026-04-20T09:15:17.928Z</time></trkpt><trkpt lat="43.4053017" lon="11.4493033"><ele>400.3333333333333</ele><time>2026-04-20T09:15:18.927Z</time></trkpt><trkpt lat="43.4053567" lon="11.4493833"><ele>400.66666666666663</ele><time>2026-04-20T09:15:19.927Z</time></trkpt><trkpt lat="43.40541" lon="11.4494733"><ele>401.0</ele><time>2026-04-20T09:15:20.927Z</time></trkpt><trkpt lat="43.405465" lon="11.449575"><ele>402.4</ele><time>2026-04-20T09:15:21.927Z</time></trkpt><trkpt lat="43.405525" lon="11.44968"><ele>403.8</ele><time>2026-04-20T09:15:22.928Z</time></trkpt><trkpt lat="43.40558" lon="11.449785"><ele>405.2</ele><time>2026-04-20T09:15:23.927Z</time></trkpt><trkpt lat="43.405635" lon="11.44989"><ele>406.59999999999997</ele><time>2026-04-20T09:15:24.927Z</time></trkpt><trkpt lat="43.4056833" lon="11.4499967"><ele>408.0</ele><time>2026-04-20T09:15:25.928Z</time></trkpt><trkpt lat="43.4057383" lon="11.4501167"><ele>408.0</ele><time>2026-04-20T09:15:26.928Z</time></trkpt><trkpt lat="43.4057867" lon="11.4502367"><ele>408.0</ele><time>2026-04-20T09:15:27.928Z</time></trkpt><trkpt lat="43.40583" lon="11.4503617"><ele>408.0</ele><time>2026-04-20T09:15:28.927Z</time></trkpt><trkpt lat="43.4058683" lon="11.4504883"><ele>408.0</ele><time>2026-04-20T09:15:29.927Z</time></trkpt><trkpt lat="43.4059" lon="11.450625"><ele>408.0</ele><time>2026-04-20T09:15:30.927Z</time></trkpt><trkpt lat="43.405935" lon="11.4507567"><ele>408.59999999999997</ele><time>2026-04-20T09:15:31.927Z</time></trkpt><trkpt lat="43.405975" lon="11.45088"><ele>409.2</ele><time>2026-04-20T09:15:32.927Z</time></trkpt><trkpt lat="43.406025" lon="11.45101"><ele>409.8</ele><time>2026-04-20T09:15:33.927Z</time></trkpt><trkpt lat="43.4060817" lon="11.45113"><ele>410.4</ele><time>2026-04-20T09:15:34.927Z</time></trkpt><trkpt lat="43.40615" lon="11.451255"><ele>411.0</ele><time>2026-04-20T09:15:35.927Z</time></trkpt><trkpt lat="43.40622" lon="11.4513817"><ele>411.0</ele><time>2026-04-20T09:15:36.927Z</time></trkpt><trkpt lat="43.40629" lon="11.4515133"><ele>411.0</ele><time>2026-04-20T09:15:37.927Z</time></trkpt><trkpt lat="43.4063517" lon="11.45164"><ele>411.0</ele><time>2026-04-20T09:15:38.927Z</time></trkpt><trkpt lat="43.40641" lon="11.4517533"><ele>411.0</ele><time>2026-04-20T09:15:39.927Z</time></trkpt><trkpt lat="43.40646" lon="11.451885"><ele>411.0</ele><time>2026-04-20T09:15:40.927Z</time></trkpt><trkpt lat="43.4064933" lon="11.4520283"><ele>410.6</ele><time>2026-04-20T09:15:41.927Z</time></trkpt><trkpt lat="43.406505" lon="11.45217"><ele>410.20000000000005</ele><time>2026-04-20T09:15:42.928Z</time></trkpt><trkpt lat="43.4065133" lon="11.4523167"><ele>409.79999999999995</ele><time>2026-04-20T09:15:43.928Z</time></trkpt><trkpt lat="43.4065167" lon="11.4524633"><ele>409.4</ele><time>2026-04-20T09:15:44.927Z</time></trkpt><trkpt lat="43.4065017" lon="11.45262"><ele>409.0</ele><time>2026-04-20T09:15:45.928Z</time></trkpt><trkpt lat="43.4064817" lon="11.4527867"><ele>409.0</ele><time>2026-04-20T09:15:46.927Z</time></trkpt><trkpt lat="43.4064633" lon="11.4529483"><ele>409.0</ele><time>2026-04-20T09:15:47.927Z</time></trkpt><trkpt lat="43.4064433" lon="11.4530967"><ele>409.0</ele><time>2026-04-20T09:15:48.927Z</time></trkpt><trkpt lat="43.4064433" lon="11.453235"><ele>409.0</ele><time>2026-04-20T09:15:49.927Z</time></trkpt><trkpt lat="43.4064583" lon="11.4533717"><ele>409.0</ele><time>2026-04-20T09:15:50.928Z</time></trkpt><trkpt lat="43.4064917" lon="11.4535133"><ele>409.6</ele><time>2026-04-20T09:15:51.927Z</time></trkpt><trkpt lat="43.406525" lon="11.4536633"><ele>410.2</ele><time>2026-04-20T09:15:52.927Z</time></trkpt><trkpt lat="43.4065383" lon="11.4538067"><ele>410.8</ele><time>2026-04-20T09:15:53.928Z</time></trkpt><trkpt lat="43.40654" lon="11.4539417"><ele>411.40000000000003</ele><time>2026-04-20T09:15:54.927Z</time></trkpt><trkpt lat="43.4065217" lon="11.4540967"><ele>412.0</ele><time>2026-04-20T09:15:55.927Z</time></trkpt><trkpt lat="43.4064867" lon="11.4542367"><ele>412.0</ele><time>2026-04-20T09:15:56.927Z</time></trkpt><trkpt lat="43.40644" lon="11.4543633"><ele>412.0</ele><time>2026-04-20T09:15:57.928Z</time></trkpt><trkpt lat="43.40638" lon="11.454485"><ele>412.0</ele><time>2026-04-20T09:15:58.927Z</time></trkpt><trkpt lat="43.40631" lon="11.4546"><ele>412.0</ele><time>2026-04-20T09:15:59.927Z</time></trkpt><trkpt lat="43.4062467" lon="11.454715"><ele>412.0</ele><time>2026-04-20T09:16:00.927Z</time></trkpt><trkpt lat="43.406195" lon="11.454845"><ele>414.0</ele><time>2026-04-20T09:16:01.927Z</time></trkpt><trkpt lat="43.4061517" lon="11.4549883"><ele>416.0</ele><time>2026-04-20T09:16:02.927Z</time></trkpt><trkpt lat="43.4061183" lon="11.455145"><ele>418.0</ele><time>2026-04-20T09:16:03.927Z</time></trkpt><trkpt lat="43.4060867" lon="11.4552867"><ele>420.0</ele><time>2026-04-20T09:16:04.927Z</time></trkpt><trkpt lat="43.4060633" lon="11.4554317"><ele>422.0</ele><time>2026-04-20T09:16:05.927Z</time></trkpt><trkpt lat="43.406045" lon="11.455585"><ele>422.8</ele><time>2026-04-20T09:16:06.927Z</time></trkpt><trkpt lat="43.406025" lon="11.4557383"><ele>423.6</ele><time>2026-04-20T09:16:07.928Z</time></trkpt><trkpt lat="43.4059867" lon="11.4558817"><ele>424.40000000000003</ele><time>2026-04-20T09:16:08.927Z</time></trkpt><trkpt lat="43.4059367" lon="11.45602"><ele>425.20000000000005</ele><time>2026-04-20T09:16:09.927Z</time></trkpt><trkpt lat="43.405875" lon="11.4561333"><ele>426.0</ele><time>2026-04-20T09:16:10.928Z</time></trkpt><trkpt lat="43.405805" lon="11.45623"><ele>426.20000000000005</ele><time>2026-04-20T09:16:11.927Z</time></trkpt><trkpt lat="43.405725" lon="11.4563133"><ele>426.40000000000003</ele><time>2026-04-20T09:16:12.927Z</time></trkpt><trkpt lat="43.4056417" lon="11.456375"><ele>426.6</ele><time>2026-04-20T09:16:13.927Z</time></trkpt><trkpt lat="43.4055533" lon="11.4564117"><ele>426.8</ele><time>2026-04-20T09:16:14.927Z</time></trkpt><trkpt lat="43.4054667" lon="11.456415"><ele>427.0</ele><time>2026-04-20T09:16:15.927Z</time></trkpt><trkpt lat="43.40537" lon="11.456405"><ele>428.8</ele><time>2026-04-20T09:16:16.927Z</time></trkpt><trkpt lat="43.4052683" lon="11.4563833"><ele>430.6</ele><time>2026-04-20T09:16:17.927Z</time></trkpt><trkpt lat="43.4051567" lon="11.4563583"><ele>432.40000000000003</ele><time>2026-04-20T09:16:18.927Z</time></trkpt><trkpt lat="43.4050583" lon="11.4563483"><ele>434.20000000000005</ele><time>2026-04-20T09:16:19.927Z</time></trkpt><trkpt lat="43.4049685" lon="11.4563428"><ele>436.0</ele><time>2026-04-20T09:16:20.927Z</time></trkpt><trkpt lat="43.4048958" lon="11.4563478"><ele>436.0</ele><time>2026-04-20T09:16:21.927Z</time></trkpt><trkpt lat="43.4048342" lon="11.456375"><ele>436.0</ele><time>2026-04-20T09:16:22.927Z</time></trkpt><trkpt lat="43.4047683" lon="11.456495"><ele>436.0</ele><time>2026-04-20T09:16:24.927Z</time></trkpt><trkpt lat="43.4048" lon="11.4566483"><ele>436.0</ele><time>2026-04-20T09:16:26.927Z</time></trkpt><trkpt lat="43.4048433" lon="11.456735"><ele>436.0</ele><time>2026-04-20T09:16:27.927Z</time></trkpt><trkpt lat="43.4048867" lon="11.4568333"><ele>436.00000000000006</ele><time>2026-04-20T09:16:28.927Z</time></trkpt><trkpt lat="43.4049233" lon="11.4569433"><ele>436.0</ele><time>2026-04-20T09:16:29.927Z</time></trkpt><trkpt lat="43.4049567" lon="11.4570667"><ele>436.0</ele><time>2026-04-20T09:16:30.927Z</time></trkpt><trkpt lat="43.40498" lon="11.4571817"><ele>436.0</ele><time>2026-04-20T09:16:31.927Z</time></trkpt><trkpt lat="43.404995" lon="11.457295"><ele>436.00000000000006</ele><time>2026-04-20T09:16:32.927Z</time></trkpt><trkpt lat="43.4050067" lon="11.4573917"><ele>436.0</ele><time>2026-04-20T09:16:33.927Z</time></trkpt><trkpt lat="43.40503" lon="11.4574917"><ele>437.4</ele><time>2026-04-20T09:16:35.928Z</time></trkpt><trkpt lat="43.4050317" lon="11.4576117"><ele>438.8</ele><time>2026-04-20T09:17:41.926Z</time></trkpt><trkpt lat="43.4050333" lon="11.4577917"><ele>440.19999999999993</ele><time>2026-04-20T09:17:43.926Z</time></trkpt><trkpt lat="43.40503" lon="11.4578783"><ele>441.59999999999997</ele><time>2026-04-20T09:17:44.926Z</time></trkpt><trkpt lat="43.404975" lon="11.458035"><ele>443.0</ele><time>2026-04-20T09:17:46.927Z</time></trkpt><trkpt lat="43.4049333" lon="11.4581083"><ele>444.14285714285717</ele><time>2026-04-20T09:17:47.926Z</time></trkpt><trkpt lat="43.4048917" lon="11.4581783"><ele>445.28571428571433</ele><time>2026-04-20T09:17:48.926Z</time></trkpt><trkpt lat="43.40486" lon="11.4582567"><ele>446.42857142857144</ele><time>2026-04-20T09:17:49.926Z</time></trkpt><trkpt lat="43.404835" lon="11.458355"><ele>447.57142857142856</ele><time>2026-04-20T09:17:50.926Z</time></trkpt><trkpt lat="43.4048167" lon="11.45846"><ele>448.7142857142857</ele><time>2026-04-20T09:17:51.926Z</time></trkpt><trkpt lat="43.4047917" lon="11.4585667"><ele>449.85714285714283</ele><time>2026-04-20T09:17:52.926Z</time></trkpt><trkpt lat="43.4047567" lon="11.458665"><ele>451.0</ele><time>2026-04-20T09:17:53.927Z</time></trkpt><trkpt lat="43.4047167" lon="11.4587533"><ele>451.6</ele><time>2026-04-20T09:17:54.926Z</time></trkpt><trkpt lat="43.40467" lon="11.4588317"><ele>452.20000000000005</ele><time>2026-04-20T09:17:55.927Z</time></trkpt><trkpt lat="43.4046083" lon="11.4589167"><ele>452.79999999999995</ele><time>2026-04-20T09:17:56.926Z</time></trkpt><trkpt lat="43.40454" lon="11.4590033"><ele>453.4</ele><time>2026-04-20T09:17:57.926Z</time></trkpt><trkpt lat="43.4044633" lon="11.4590967"><ele>454.0</ele><time>2026-04-20T09:17:58.927Z</time></trkpt><trkpt lat="43.40439" lon="11.4592033"><ele>454.2</ele><time>2026-04-20T09:17:59.927Z</time></trkpt><trkpt lat="43.404325" lon="11.4593167"><ele>454.4</ele><time>2026-04-20T09:18:00.926Z</time></trkpt><trkpt lat="43.4042683" lon="11.4594333"><ele>454.6</ele><time>2026-04-20T09:18:01.926Z</time></trkpt><trkpt lat="43.404225" lon="11.45955"><ele>454.8</ele><time>2026-04-20T09:18:02.926Z</time></trkpt><trkpt lat="43.4041917" lon="11.4596683"><ele>455.0</ele><time>2026-04-20T09:18:03.926Z</time></trkpt><trkpt lat="43.404165" lon="11.4598"><ele>455.2</ele><time>2026-04-20T09:18:04.926Z</time></trkpt><trkpt lat="43.4041417" lon="11.45993"><ele>455.4</ele><time>2026-04-20T09:18:05.926Z</time></trkpt><trkpt lat="43.40412" lon="11.4600583"><ele>455.6</ele><time>2026-04-20T09:18:06.926Z</time></trkpt><trkpt lat="43.4041083" lon="11.4601817"><ele>455.8</ele><time>2026-04-20T09:18:07.926Z</time></trkpt><trkpt lat="43.4040917" lon="11.4603"><ele>456.0</ele><time>2026-04-20T09:18:08.927Z</time></trkpt><trkpt lat="43.4040867" lon="11.46043"><ele>456.4</ele><time>2026-04-20T09:18:09.926Z</time></trkpt><trkpt lat="43.4040967" lon="11.4605633"><ele>456.8</ele><time>2026-04-20T09:18:10.926Z</time></trkpt><trkpt lat="43.4041217" lon="11.4606917"><ele>457.19999999999993</ele><time>2026-04-20T09:18:11.926Z</time></trkpt><trkpt lat="43.4041633" lon="11.4608183"><ele>457.59999999999997</ele><time>2026-04-20T09:18:12.926Z</time></trkpt><trkpt lat="43.404225" lon="11.4609467"><ele>458.0</ele><time>2026-04-20T09:18:13.927Z</time></trkpt><trkpt lat="43.404285" lon="11.46108"><ele>458.0</ele><time>2026-04-20T09:18:14.926Z</time></trkpt><trkpt lat="43.40435" lon="11.4612133"><ele>457.99999999999994</ele><time>2026-04-20T09:18:15.926Z</time></trkpt><trkpt lat="43.40441" lon="11.4613283"><ele>457.99999999999994</ele><time>2026-04-20T09:18:16.926Z</time></trkpt><trkpt lat="43.4044683" lon="11.4614417"><ele>458.0</ele><time>2026-04-20T09:18:17.927Z</time></trkpt><trkpt lat="43.4045233" lon="11.4615633"><ele>458.0</ele><time>2026-04-20T09:18:18.926Z</time></trkpt><trkpt lat="43.4045683" lon="11.4616983"><ele>457.59999999999997</ele><time>2026-04-20T09:18:19.926Z</time></trkpt><trkpt lat="43.4045983" lon="11.4618433"><ele>457.19999999999993</ele><time>2026-04-20T09:18:20.926Z</time></trkpt><trkpt lat="43.4046183" lon="11.46198"><ele>456.8</ele><time>2026-04-20T09:18:21.927Z</time></trkpt><trkpt lat="43.4046433" lon="11.4621167"><ele>456.4</ele><time>2026-04-20T09:18:22.926Z</time></trkpt><trkpt lat="43.40467" lon="11.462265"><ele>456.0</ele><time>2026-04-20T09:18:23.926Z</time></trkpt><trkpt lat="43.4046933" lon="11.4624117"><ele>455.4</ele><time>2026-04-20T09:18:24.926Z</time></trkpt><trkpt lat="43.4047083" lon="11.4625517"><ele>454.8</ele><time>2026-04-20T09:18:25.926Z</time></trkpt><trkpt lat="43.404725" lon="11.4626833"><ele>454.19999999999993</ele><time>2026-04-20T09:18:26.926Z</time></trkpt><trkpt lat="43.4047517" lon="11.4627967"><ele>453.59999999999997</ele><time>2026-04-20T09:18:27.926Z</time></trkpt><trkpt lat="43.40479" lon="11.4628967"><ele>453.0</ele><time>2026-04-20T09:18:28.926Z</time></trkpt><trkpt lat="43.4048433" lon="11.4629933"><ele>453.0</ele><time>2026-04-20T09:18:29.926Z</time></trkpt><trkpt lat="43.404895" lon="11.463085"><ele>453.0</ele><time>2026-04-20T09:18:30.926Z</time></trkpt><trkpt lat="43.4049433" lon="11.4631617"><ele>453.0</ele><time>2026-04-20T09:18:31.926Z</time></trkpt><trkpt lat="43.404985" lon="11.4632283"><ele>453.0</ele><time>2026-04-20T09:18:32.926Z</time></trkpt><trkpt lat="43.405065" lon="11.4633567"><ele>453.0</ele><time>2026-04-20T09:18:34.926Z</time></trkpt><trkpt lat="43.4051133" lon="11.463415"><ele>453.0</ele><time>2026-04-20T09:18:35.926Z</time></trkpt><trkpt lat="43.405165" lon="11.4634867"><ele>453.0</ele><time>2026-04-20T09:18:36.926Z</time></trkpt><trkpt lat="43.40522" lon="11.4635617"><ele>453.0</ele><time>2026-04-20T09:18:37.926Z</time></trkpt><trkpt lat="43.4052767" lon="11.46364"><ele>453.0</ele><time>2026-04-20T09:18:38.926Z</time></trkpt><trkpt lat="43.4053383" lon="11.46372"><ele>453.0</ele><time>2026-04-20T09:18:39.927Z</time></trkpt><trkpt lat="43.4054067" lon="11.4637983"><ele>453.0</ele><time>2026-04-20T09:18:40.926Z</time></trkpt><trkpt lat="43.4054833" lon="11.4638717"><ele>453.0</ele><time>2026-04-20T09:18:41.926Z</time></trkpt><trkpt lat="43.4055583" lon="11.4639383"><ele>456.0</ele><time>2026-04-20T09:18:42.926Z</time></trkpt><trkpt lat="43.4056383" lon="11.4640033"><ele>458.99999999999994</ele><time>2026-04-20T09:18:43.926Z</time></trkpt><trkpt lat="43.4057218" lon="11.4640761"><ele>461.99999999999994</ele><time>2026-04-20T09:18:44.926Z</time></trkpt><trkpt lat="43.4058078" lon="11.4641531"><ele>465.0</ele><time>2026-04-20T09:18:45.927Z</time></trkpt><trkpt lat="43.4058949" lon="11.4642241"><ele>468.0</ele><time>2026-04-20T09:18:46.926Z</time></trkpt><trkpt lat="43.4059892" lon="11.4642895"><ele>468.0</ele><time>2026-04-20T09:18:47.927Z</time></trkpt><trkpt lat="43.4060858" lon="11.4643485"><ele>467.99999999999994</ele><time>2026-04-20T09:18:48.927Z</time></trkpt><trkpt lat="43.4061855" lon="11.4643989"><ele>467.99999999999994</ele><time>2026-04-20T09:18:49.927Z</time></trkpt><trkpt lat="43.4062884" lon="11.4644422"><ele>468.0</ele><time>2026-04-20T09:18:50.926Z</time></trkpt><trkpt lat="43.4063912" lon="11.4644767"><ele>468.0</ele><time>2026-04-20T09:18:51.926Z</time></trkpt><trkpt lat="43.4064961" lon="11.4645133"><ele>469.2</ele><time>2026-04-20T09:18:52.927Z</time></trkpt><trkpt lat="43.4066021" lon="11.464545"><ele>470.4</ele><time>2026-04-20T09:18:53.926Z</time></trkpt><trkpt lat="43.4067019" lon="11.4645782"><ele>471.59999999999997</ele><time>2026-04-20T09:18:54.927Z</time></trkpt><trkpt lat="43.4067954" lon="11.4646096"><ele>472.79999999999995</ele><time>2026-04-20T09:18:55.926Z</time></trkpt><trkpt lat="43.4068879" lon="11.4646409"><ele>474.0</ele><time>2026-04-20T09:18:56.927Z</time></trkpt><trkpt lat="43.4069821" lon="11.4646634"><ele>474.79999999999995</ele><time>2026-04-20T09:18:57.926Z</time></trkpt><trkpt lat="43.4070842" lon="11.4646747"><ele>475.59999999999997</ele><time>2026-04-20T09:18:58.926Z</time></trkpt><trkpt lat="43.4071897" lon="11.4646794"><ele>476.4</ele><time>2026-04-20T09:18:59.926Z</time></trkpt><trkpt lat="43.4072945" lon="11.4646702"><ele>477.2</ele><time>2026-04-20T09:19:00.926Z</time></trkpt><trkpt lat="43.4074015" lon="11.4646522"><ele>478.0</ele><time>2026-04-20T09:19:01.926Z</time></trkpt><trkpt lat="43.4075158" lon="11.4646345"><ele>478.2</ele><time>2026-04-20T09:19:02.926Z</time></trkpt><trkpt lat="43.4076333" lon="11.4646137"><ele>478.4</ele><time>2026-04-20T09:19:03.926Z</time></trkpt><trkpt lat="43.4077487" lon="11.4645985"><ele>478.59999999999997</ele><time>2026-04-20T09:19:04.926Z</time></trkpt><trkpt lat="43.4078554" lon="11.4645873"><ele>478.79999999999995</ele><time>2026-04-20T09:19:05.927Z</time></trkpt><trkpt lat="43.4079619" lon="11.4645745"><ele>479.0</ele><time>2026-04-20T09:19:06.926Z</time></trkpt><trkpt lat="43.40807" lon="11.4645661"><ele>481.0</ele><time>2026-04-20T09:19:07.926Z</time></trkpt><trkpt lat="43.4081824" lon="11.4645625"><ele>483.0</ele><time>2026-04-20T09:19:08.927Z</time></trkpt><trkpt lat="43.4082947" lon="11.4645572"><ele>485.0</ele><time>2026-04-20T09:19:09.927Z</time></trkpt><trkpt lat="43.4084005" lon="11.4645593"><ele>487.0</ele><time>2026-04-20T09:19:10.926Z</time></trkpt><trkpt lat="43.4085042" lon="11.464566"><ele>489.0</ele><time>2026-04-20T09:19:11.926Z</time></trkpt><trkpt lat="43.4086104" lon="11.4645764"><ele>489.0</ele><time>2026-04-20T09:19:12.926Z</time></trkpt><trkpt lat="43.4087196" lon="11.4645831"><ele>489.0</ele><time>2026-04-20T09:19:13.926Z</time></trkpt><trkpt lat="43.408828" lon="11.4645762"><ele>489.0</ele><time>2026-04-20T09:19:14.926Z</time></trkpt><trkpt lat="43.4089357" lon="11.464562"><ele>489.0</ele><time>2026-04-20T09:19:15.926Z</time></trkpt><trkpt lat="43.4090429" lon="11.4645492"><ele>489.0</ele><time>2026-04-20T09:19:16.927Z</time></trkpt><trkpt lat="43.4091499" lon="11.4645362"><ele>489.79999999999995</ele><time>2026-04-20T09:19:17.927Z</time></trkpt><trkpt lat="43.4092489" lon="11.4645254"><ele>490.59999999999997</ele><time>2026-04-20T09:19:18.926Z</time></trkpt><trkpt lat="43.4093451" lon="11.4645144"><ele>491.4</ele><time>2026-04-20T09:19:19.926Z</time></trkpt><trkpt lat="43.409444" lon="11.4645042"><ele>492.2</ele><time>2026-04-20T09:19:20.926Z</time></trkpt><trkpt lat="43.4095467" lon="11.4645002"><ele>493.0</ele><time>2026-04-20T09:19:21.926Z</time></trkpt><trkpt lat="43.4096531" lon="11.4644986"><ele>492.79999999999995</ele><time>2026-04-20T09:19:22.926Z</time></trkpt><trkpt lat="43.4097617" lon="11.4644976"><ele>492.59999999999997</ele><time>2026-04-20T09:19:23.926Z</time></trkpt><trkpt lat="43.4098739" lon="11.4644962"><ele>492.40000000000003</ele><time>2026-04-20T09:19:24.926Z</time></trkpt><trkpt lat="43.4099857" lon="11.4644945"><ele>492.20000000000005</ele><time>2026-04-20T09:19:25.926Z</time></trkpt><trkpt lat="43.4100981" lon="11.464491"><ele>492.0</ele><time>2026-04-20T09:19:26.926Z</time></trkpt><trkpt lat="43.4102082" lon="11.4644878"><ele>492.0</ele><time>2026-04-20T09:19:27.926Z</time></trkpt><trkpt lat="43.4103182" lon="11.4644862"><ele>492.00000000000006</ele><time>2026-04-20T09:19:28.926Z</time></trkpt><trkpt lat="43.4104304" lon="11.4644849"><ele>492.00000000000006</ele><time>2026-04-20T09:19:29.926Z</time></trkpt><trkpt lat="43.4105332" lon="11.4644879"><ele>492.0</ele><time>2026-04-20T09:19:30.926Z</time></trkpt><trkpt lat="43.410633" lon="11.4644826"><ele>492.0</ele><time>2026-04-20T09:19:31.926Z</time></trkpt><trkpt lat="43.4107169" lon="11.4644754"><ele>492.3333333333333</ele><time>2026-04-20T09:19:32.926Z</time></trkpt><trkpt lat="43.4108013" lon="11.4644597"><ele>492.66666666666663</ele><time>2026-04-20T09:19:33.926Z</time></trkpt><trkpt lat="43.4108838" lon="11.4644519"><ele>493.0</ele><time>2026-04-20T09:19:34.926Z</time></trkpt><trkpt lat="43.4109583" lon="11.4644488"><ele>493.3333333333333</ele><time>2026-04-20T09:19:35.927Z</time></trkpt><trkpt lat="43.4110222" lon="11.4644539"><ele>493.66666666666663</ele><time>2026-04-20T09:19:36.926Z</time></trkpt><trkpt lat="43.4111273" lon="11.4644953"><ele>494.0</ele><time>2026-04-20T09:19:38.927Z</time></trkpt><trkpt lat="43.4112358" lon="11.4645843"><ele>494.3333333333333</ele><time>2026-04-20T09:19:40.926Z</time></trkpt><trkpt lat="43.4112974" lon="11.4646413"><ele>494.66666666666663</ele><time>2026-04-20T09:19:41.926Z</time></trkpt><trkpt lat="43.4113668" lon="11.4646924"><ele>495.0</ele><time>2026-04-20T09:19:42.926Z</time></trkpt><trkpt lat="43.4114423" lon="11.4647344"><ele>495.33333333333337</ele><time>2026-04-20T09:19:43.926Z</time></trkpt><trkpt lat="43.4115171" lon="11.4647693"><ele>495.6666666666667</ele><time>2026-04-20T09:19:44.926Z</time></trkpt><trkpt lat="43.4115974" lon="11.4648"><ele>496.0</ele><time>2026-04-20T09:19:45.926Z</time></trkpt><trkpt lat="43.4116741" lon="11.4648177"><ele>496.50000000000006</ele><time>2026-04-20T09:19:46.926Z</time></trkpt><trkpt lat="43.4117394" lon="11.4648182"><ele>497.0</ele><time>2026-04-20T09:19:47.926Z</time></trkpt><trkpt lat="43.4118597" lon="11.4647639"><ele>497.5</ele><time>2026-04-20T09:19:49.926Z</time></trkpt><trkpt lat="43.4119242" lon="11.4647129"><ele>498.0</ele><time>2026-04-20T09:19:50.926Z</time></trkpt><trkpt lat="43.4119891" lon="11.4646584"><ele>498.50000000000006</ele><time>2026-04-20T09:19:51.926Z</time></trkpt><trkpt lat="43.4120617" lon="11.4646056"><ele>499.0</ele><time>2026-04-20T09:19:52.927Z</time></trkpt><trkpt lat="43.4121403" lon="11.4645592"><ele>501.50000000000006</ele><time>2026-04-20T09:19:53.927Z</time></trkpt><trkpt lat="43.4122141" lon="11.4645097"><ele>504.0</ele><time>2026-04-20T09:19:54.926Z</time></trkpt><trkpt lat="43.4122876" lon="11.4644576"><ele>506.5</ele><time>2026-04-20T09:19:55.926Z</time></trkpt><trkpt lat="43.4123612" lon="11.4643982"><ele>509.0</ele><time>2026-04-20T09:19:56.926Z</time></trkpt><trkpt lat="43.4124327" lon="11.4643609"><ele>511.50000000000006</ele><time>2026-04-20T09:19:57.926Z</time></trkpt><trkpt lat="43.4125049" lon="11.4643424"><ele>514.0</ele><time>2026-04-20T09:19:58.926Z</time></trkpt><trkpt lat="43.4125794" lon="11.4643315"><ele>514.0</ele><time>2026-04-20T09:19:59.926Z</time></trkpt><trkpt lat="43.4126523" lon="11.4643317"><ele>514.0</ele><time>2026-04-20T09:20:00.926Z</time></trkpt><trkpt lat="43.4127317" lon="11.4643444"><ele>514.0</ele><time>2026-04-20T09:20:01.926Z</time></trkpt><trkpt lat="43.4128138" lon="11.4643615"><ele>514.0</ele><time>2026-04-20T09:20:02.926Z</time></trkpt><trkpt lat="43.4128912" lon="11.4643713"><ele>514.0</ele><time>2026-04-20T09:20:03.926Z</time></trkpt><trkpt lat="43.4129579" lon="11.4643803"><ele>514.0</ele><time>2026-04-20T09:20:04.926Z</time></trkpt><trkpt lat="43.4130536" lon="11.4643896"><ele>516.8333333333334</ele><time>2026-04-20T09:20:06.926Z</time></trkpt><trkpt lat="43.413145" lon="11.4643704"><ele>519.6666666666667</ele><time>2026-04-20T09:20:08.927Z</time></trkpt><trkpt lat="43.4132581" lon="11.4643212"><ele>522.5</ele><time>2026-04-20T09:20:10.927Z</time></trkpt><trkpt lat="43.4133243" lon="11.4642937"><ele>525.3333333333334</ele><time>2026-04-20T09:20:11.926Z</time></trkpt><trkpt lat="43.41339" lon="11.4642767"><ele>528.1666666666666</ele><time>2026-04-20T09:20:12.926Z</time></trkpt><trkpt lat="43.4134531" lon="11.4642563"><ele>531.0</ele><time>2026-04-20T09:20:13.926Z</time></trkpt><trkpt lat="43.4135768" lon="11.4642394"><ele>531.0</ele><time>2026-04-20T09:20:15.926Z</time></trkpt><trkpt lat="43.4136415" lon="11.4642228"><ele>531.0</ele><time>2026-04-20T09:20:16.927Z</time></trkpt><trkpt lat="43.4137616" lon="11.4642031"><ele>531.0</ele><time>2026-04-20T09:20:18.926Z</time></trkpt><trkpt lat="43.4138576" lon="11.4641844"><ele>531.0</ele><time>2026-04-20T09:20:20.926Z</time></trkpt><trkpt lat="43.413922" lon="11.464093"><ele>531.0</ele><time>2026-04-20T09:20:23.926Z</time></trkpt><trkpt lat="43.4139489" lon="11.4639954"><ele>530.5</ele><time>2026-04-20T09:20:26.926Z</time></trkpt><trkpt lat="43.4140281" lon="11.4639499"><ele>530.0</ele><time>2026-04-20T09:20:30.926Z</time></trkpt><trkpt lat="43.4141092" lon="11.4638946"><ele>529.5</ele><time>2026-04-20T09:20:33.926Z</time></trkpt><trkpt lat="43.4141667" lon="11.4638183"><ele>529.0</ele><time>2026-04-20T09:20:35.926Z</time></trkpt><trkpt lat="43.4142233" lon="11.46375"><ele>528.5</ele><time>2026-04-20T09:20:37.927Z</time></trkpt><trkpt lat="43.4142517" lon="11.4636617"><ele>528.0</ele><time>2026-04-20T09:20:41.926Z</time></trkpt><trkpt lat="43.4142567" lon="11.4637567"><ele>527.3333333333334</ele><time>2026-04-20T09:20:47.926Z</time></trkpt><trkpt lat="43.4142217" lon="11.4638733"><ele>526.6666666666666</ele><time>2026-04-20T09:20:50.926Z</time></trkpt><trkpt lat="43.4141567" lon="11.4639567"><ele>526.0</ele><time>2026-04-20T09:20:53.926Z</time></trkpt><trkpt lat="43.41409" lon="11.4640267"><ele>525.3333333333333</ele><time>2026-04-20T09:20:57.927Z</time></trkpt><trkpt lat="43.4140533" lon="11.4641167"><ele>524.6666666666666</ele><time>2026-04-20T09:20:59.926Z</time></trkpt><trkpt lat="43.413975" lon="11.4642183"><ele>524.0</ele><time>2026-04-20T09:21:01.926Z</time></trkpt><trkpt lat="43.41387" lon="11.4642617"><ele>525.4</ele><time>2026-04-20T09:21:03.926Z</time></trkpt><trkpt lat="43.41376" lon="11.4642817"><ele>526.8</ele><time>2026-04-20T09:21:05.926Z</time></trkpt><trkpt lat="43.41363" lon="11.4642933"><ele>528.2</ele><time>2026-04-20T09:21:07.927Z</time></trkpt><trkpt lat="43.4135533" lon="11.4643017"><ele>529.6</ele><time>2026-04-20T09:21:08.927Z</time></trkpt><trkpt lat="43.4134667" lon="11.464315"><ele>531.0</ele><time>2026-04-20T09:21:09.926Z</time></trkpt><trkpt lat="43.4133733" lon="11.4643183"><ele>531.0</ele><time>2026-04-20T09:21:10.926Z</time></trkpt><trkpt lat="43.4132967" lon="11.4643083"><ele>531.0</ele><time>2026-04-20T09:21:11.926Z</time></trkpt><trkpt lat="43.4131983" lon="11.4643217"><ele>531.0</ele><time>2026-04-20T09:21:13.926Z</time></trkpt><trkpt lat="43.4131383" lon="11.4643717"><ele>531.0</ele><time>2026-04-20T09:21:15.927Z</time></trkpt><trkpt lat="43.413155" lon="11.4644767"><ele>531.0</ele><time>2026-04-20T09:21:18.926Z</time></trkpt><trkpt lat="43.4132017" lon="11.4645533"><ele>531.0</ele><time>2026-04-20T09:21:20.927Z</time></trkpt><trkpt lat="43.4132917" lon="11.4646183"><ele>531.0</ele><time>2026-04-20T09:21:22.926Z</time></trkpt><trkpt lat="43.4134117" lon="11.4646317"><ele>531.0</ele><time>2026-04-20T09:21:24.927Z</time></trkpt><trkpt lat="43.4135333" lon="11.4646283"><ele>531.0</ele><time>2026-04-20T09:21:26.926Z</time></trkpt><trkpt lat="43.413635" lon="11.4646033"><ele>531.0</ele><time>2026-04-20T09:21:28.926Z</time></trkpt><trkpt lat="43.413745" lon="11.4645567"><ele>529.6</ele><time>2026-04-20T09:21:30.926Z</time></trkpt><trkpt lat="43.41386" lon="11.4645133"><ele>528.2</ele><time>2026-04-20T09:21:32.927Z</time></trkpt><trkpt lat="43.4139167" lon="11.464475"><ele>526.8</ele><time>2026-04-20T09:21:33.926Z</time></trkpt><trkpt lat="43.4140067" lon="11.4644017"><ele>525.4</ele><time>2026-04-20T09:21:35.927Z</time></trkpt><trkpt lat="43.4140983" lon="11.464315"><ele>524.0</ele><time>2026-04-20T09:21:37.926Z</time></trkpt><trkpt lat="43.41419" lon="11.4642383"><ele>524.0</ele><time>2026-04-20T09:21:39.926Z</time></trkpt><trkpt lat="43.414305" lon="11.4641333"><ele>524.0</ele><time>2026-04-20T09:21:41.926Z</time></trkpt><trkpt lat="43.41438" lon="11.464015"><ele>524.0</ele><time>2026-04-20T09:21:43.926Z</time></trkpt><trkpt lat="43.4144233" lon="11.46393"><ele>524.0</ele><time>2026-04-20T09:21:44.926Z</time></trkpt><trkpt lat="43.41446" lon="11.46384"><ele>524.0</ele><time>2026-04-20T09:21:45.927Z</time></trkpt><trkpt lat="43.4145017" lon="11.46374"><ele>524.6666666666666</ele><time>2026-04-20T09:21:46.926Z</time></trkpt><trkpt lat="43.4145217" lon="11.4636433"><ele>525.3333333333333</ele><time>2026-04-20T09:21:47.926Z</time></trkpt><trkpt lat="43.4145383" lon="11.463545"><ele>526.0</ele><time>2026-04-20T09:21:48.927Z</time></trkpt><trkpt lat="43.4145433" lon="11.46344"><ele>526.6666666666666</ele><time>2026-04-20T09:21:49.926Z</time></trkpt><trkpt lat="43.4145383" lon="11.4633367"><ele>527.3333333333334</ele><time>2026-04-20T09:21:50.926Z</time></trkpt><trkpt lat="43.4145283" lon="11.4632133"><ele>528.0</ele><time>2026-04-20T09:21:51.926Z</time></trkpt><trkpt lat="43.4145133" lon="11.4631067"><ele>528.0</ele><time>2026-04-20T09:21:52.926Z</time></trkpt><trkpt lat="43.4145033" lon="11.4630083"><ele>528.0</ele><time>2026-04-20T09:21:53.926Z</time></trkpt><trkpt lat="43.4145233" lon="11.4628433"><ele>528.0</ele><time>2026-04-20T09:21:55.926Z</time></trkpt><trkpt lat="43.4145567" lon="11.4627383"><ele>528.0</ele><time>2026-04-20T09:21:56.926Z</time></trkpt><trkpt lat="43.4145983" lon="11.4626417"><ele>528.0</ele><time>2026-04-20T09:21:57.926Z</time></trkpt><trkpt lat="43.414635" lon="11.462555"><ele>528.0</ele><time>2026-04-20T09:21:58.926Z</time></trkpt><trkpt lat="43.4146733" lon="11.46246"><ele>523.0</ele><time>2026-04-20T09:21:59.926Z</time></trkpt><trkpt lat="43.4147233" lon="11.46231"><ele>518.0</ele><time>2026-04-20T09:22:01.925Z</time></trkpt><trkpt lat="43.41477" lon="11.4622283"><ele>513.0</ele><time>2026-04-20T09:22:02.926Z</time></trkpt><trkpt lat="43.4148167" lon="11.4621433"><ele>508.0</ele><time>2026-04-20T09:22:03.925Z</time></trkpt><trkpt lat="43.4148633" lon="11.46206"><ele>503.0</ele><time>2026-04-20T09:22:04.925Z</time></trkpt><trkpt lat="43.414905" lon="11.461965"><ele>498.0</ele><time>2026-04-20T09:22:05.925Z</time></trkpt><trkpt lat="43.4149417" lon="11.4618683"><ele>496.6666666666667</ele><time>2026-04-20T09:22:06.925Z</time></trkpt><trkpt lat="43.4149683" lon="11.4617717"><ele>495.33333333333337</ele><time>2026-04-20T09:22:07.925Z</time></trkpt><trkpt lat="43.4149767" lon="11.4616833"><ele>494.0</ele><time>2026-04-20T09:22:08.925Z</time></trkpt><trkpt lat="43.4150017" lon="11.4615217"><ele>492.6666666666667</ele><time>2026-04-20T09:22:10.925Z</time></trkpt><trkpt lat="43.4150533" lon="11.4614117"><ele>491.33333333333337</ele><time>2026-04-20T09:22:12.926Z</time></trkpt><trkpt lat="43.4151217" lon="11.4614017"><ele>490.0</ele><time>2026-04-20T09:22:14.925Z</time></trkpt><trkpt lat="43.4151833" lon="11.4614683"><ele>490.0</ele><time>2026-04-20T09:22:16.925Z</time></trkpt><trkpt lat="43.4152183" lon="11.4616067"><ele>490.0</ele><time>2026-04-20T09:22:18.925Z</time></trkpt><trkpt lat="43.4152467" lon="11.4617433"><ele>490.0</ele><time>2026-04-20T09:22:20.926Z</time></trkpt><trkpt lat="43.4153283" lon="11.46173"><ele>490.0</ele><time>2026-04-20T09:22:24.925Z</time></trkpt><trkpt lat="43.4153617" lon="11.4616"><ele>490.0</ele><time>2026-04-20T09:22:26.926Z</time></trkpt><trkpt lat="43.415395" lon="11.4614383"><ele>490.0</ele><time>2026-04-20T09:22:28.925Z</time></trkpt><trkpt lat="43.41542" lon="11.4613567"><ele>490.0</ele><time>2026-04-20T09:22:29.925Z</time></trkpt><trkpt lat="43.4154467" lon="11.46127"><ele>490.0</ele><time>2026-04-20T09:22:30.925Z</time></trkpt><trkpt lat="43.4154433" lon="11.4611317"><ele>490.0</ele><time>2026-04-20T09:22:32.925Z</time></trkpt><trkpt lat="43.4153917" lon="11.460995"><ele>490.0</ele><time>2026-04-20T09:22:34.925Z</time></trkpt><trkpt lat="43.4153283" lon="11.46088"><ele>488.33333333333337</ele><time>2026-04-20T09:22:36.925Z</time></trkpt><trkpt lat="43.4152567" lon="11.4608017"><ele>486.6666666666667</ele><time>2026-04-20T09:22:38.925Z</time></trkpt><trkpt lat="43.4152367" lon="11.460685"><ele>485.0</ele><time>2026-04-20T09:22:40.925Z</time></trkpt><trkpt lat="43.4152733" lon="11.460595"><ele>483.33333333333337</ele><time>2026-04-20T09:22:42.925Z</time></trkpt><trkpt lat="43.4153517" lon="11.460595"><ele>481.6666666666667</ele><time>2026-04-20T09:22:44.926Z</time></trkpt><trkpt lat="43.4154433" lon="11.4606867"><ele>480.0</ele><time>2026-04-20T09:22:46.926Z</time></trkpt><trkpt lat="43.4155283" lon="11.460795"><ele>479.25</ele><time>2026-04-20T09:22:48.925Z</time></trkpt><trkpt lat="43.415575" lon="11.4609367"><ele>478.5</ele><time>2026-04-20T09:22:50.925Z</time></trkpt><trkpt lat="43.415595" lon="11.4610967"><ele>477.75</ele><time>2026-04-20T09:22:52.925Z</time></trkpt><trkpt lat="43.4156267" lon="11.4612533"><ele>477.0</ele><time>2026-04-20T09:22:54.925Z</time></trkpt><trkpt lat="43.4156917" lon="11.4613867"><ele>477.0</ele><time>2026-04-20T09:22:56.925Z</time></trkpt><trkpt lat="43.4157833" lon="11.4614417"><ele>477.0</ele><time>2026-04-20T09:22:58.926Z</time></trkpt><trkpt lat="43.4158817" lon="11.4614267"><ele>477.0</ele><time>2026-04-20T09:23:00.925Z</time></trkpt><trkpt lat="43.415945" lon="11.4613767"><ele>477.0</ele><time>2026-04-20T09:23:01.926Z</time></trkpt><trkpt lat="43.4160067" lon="11.4613217"><ele>477.0</ele><time>2026-04-20T09:23:02.925Z</time></trkpt><trkpt lat="43.4160667" lon="11.4612533"><ele>477.0</ele><time>2026-04-20T09:23:03.925Z</time></trkpt><trkpt lat="43.4161033" lon="11.4611267"><ele>476.0</ele><time>2026-04-20T09:23:05.925Z</time></trkpt><trkpt lat="43.4160917" lon="11.460985"><ele>475.0</ele><time>2026-04-20T09:23:07.926Z</time></trkpt><trkpt lat="43.4160183" lon="11.46086"><ele>474.0</ele><time>2026-04-20T09:23:09.925Z</time></trkpt><trkpt lat="43.4159867" lon="11.4607833"><ele>473.0</ele><time>2026-04-20T09:23:10.925Z</time></trkpt><trkpt lat="43.4159667" lon="11.460685"><ele>472.0</ele><time>2026-04-20T09:23:11.926Z</time></trkpt><trkpt lat="43.4159517" lon="11.4605933"><ele>471.0</ele><time>2026-04-20T09:23:12.925Z</time></trkpt><trkpt lat="43.4159417" lon="11.46049"><ele>469.00000000000006</ele><time>2026-04-20T09:23:13.925Z</time></trkpt><trkpt lat="43.4159333" lon="11.4604017"><ele>467.0</ele><time>2026-04-20T09:23:14.925Z</time></trkpt><trkpt lat="43.4159217" lon="11.460315"><ele>465.00000000000006</ele><time>2026-04-20T09:23:15.925Z</time></trkpt><trkpt lat="43.41592" lon="11.4602183"><ele>463.00000000000006</ele><time>2026-04-20T09:23:16.926Z</time></trkpt><trkpt lat="43.415915" lon="11.4601183"><ele>461.0</ele><time>2026-04-20T09:23:17.925Z</time></trkpt><trkpt lat="43.415915" lon="11.4600233"><ele>459.00000000000006</ele><time>2026-04-20T09:23:18.926Z</time></trkpt><trkpt lat="43.415905" lon="11.4599183"><ele>457.00000000000006</ele><time>2026-04-20T09:23:19.925Z</time></trkpt><trkpt lat="43.4158967" lon="11.4598217"><ele>457.00000000000006</ele><time>2026-04-20T09:23:20.925Z</time></trkpt><trkpt lat="43.4158883" lon="11.4597233"><ele>457.0</ele><time>2026-04-20T09:23:21.925Z</time></trkpt><trkpt lat="43.4158817" lon="11.4596283"><ele>457.0</ele><time>2026-04-20T09:23:22.926Z</time></trkpt><trkpt lat="43.415875" lon="11.4594933"><ele>457.0</ele><time>2026-04-20T09:23:24.925Z</time></trkpt><trkpt lat="43.415875" lon="11.4593883"><ele>457.00000000000006</ele><time>2026-04-20T09:23:26.925Z</time></trkpt><trkpt lat="43.41589" lon="11.4592483"><ele>457.0</ele><time>2026-04-20T09:23:28.926Z</time></trkpt><trkpt lat="43.4158917" lon="11.4591583"><ele>450.0</ele><time>2026-04-20T09:23:29.925Z</time></trkpt><trkpt lat="43.4158933" lon="11.4590683"><ele>450.0</ele><time>2026-04-20T09:23:30.926Z</time></trkpt><trkpt lat="43.4159" lon="11.45898"><ele>450.0</ele><time>2026-04-20T09:23:31.926Z</time></trkpt><trkpt lat="43.4159083" lon="11.45889"><ele>450.0</ele><time>2026-04-20T09:23:32.926Z</time></trkpt><trkpt lat="43.4159367" lon="11.4587483"><ele>446.0</ele><time>2026-04-20T09:23:34.926Z</time></trkpt><trkpt lat="43.415985" lon="11.45868"><ele>446.0</ele><time>2026-04-20T09:23:37.926Z</time></trkpt><trkpt lat="43.4159867" lon="11.45878"><ele>446.0</ele><time>2026-04-20T09:23:42.925Z</time></trkpt></trkseg><trkseg><trkpt lat="43.4159483" lon="11.4587067"><ele>445.99999999999994</ele><time>2026-04-20T09:44:24.92Z</time></trkpt><trkpt lat="43.415965" lon="11.458615"><ele>446.0</ele><time>2026-04-20T09:44:26.92Z</time></trkpt><trkpt lat="43.415995" lon="11.458525"><ele>446.0</ele><time>2026-04-20T09:44:28.92Z</time></trkpt><trkpt lat="43.4160583" lon="11.4583967"><ele>446.0</ele><time>2026-04-20T09:44:30.92Z</time></trkpt><trkpt lat="43.416105" lon="11.4583233"><ele>445.99999999999994</ele><time>2026-04-20T09:44:31.92Z</time></trkpt><trkpt lat="43.4161583" lon="11.4582517"><ele>446.0</ele><time>2026-04-20T09:44:32.92Z</time></trkpt><trkpt lat="43.416225" lon="11.4581867"><ele>445.99999999999994</ele><time>2026-04-20T09:44:33.921Z</time></trkpt><trkpt lat="43.41629" lon="11.45813"><ele>446.0</ele><time>2026-04-20T09:44:34.92Z</time></trkpt><trkpt lat="43.4163617" lon="11.4580717"><ele>446.0</ele><time>2026-04-20T09:44:35.921Z</time></trkpt><trkpt lat="43.4164333" lon="11.4580217"><ele>446.0</ele><time>2026-04-20T09:44:36.92Z</time></trkpt><trkpt lat="43.4165117" lon="11.457985"><ele>445.99999999999994</ele><time>2026-04-20T09:44:37.92Z</time></trkpt><trkpt lat="43.4165867" lon="11.4579783"><ele>446.0</ele><time>2026-04-20T09:44:38.921Z</time></trkpt><trkpt lat="43.4166717" lon="11.4579767"><ele>445.0</ele><time>2026-04-20T09:44:39.92Z</time></trkpt><trkpt lat="43.4167767" lon="11.4579883"><ele>444.0</ele><time>2026-04-20T09:44:40.92Z</time></trkpt><trkpt lat="43.4168917" lon="11.4579967"><ele>443.0</ele><time>2026-04-20T09:44:41.921Z</time></trkpt><trkpt lat="43.4169967" lon="11.45801"><ele>442.0</ele><time>2026-04-20T09:44:42.921Z</time></trkpt><trkpt lat="43.4170933" lon="11.4580267"><ele>441.0</ele><time>2026-04-20T09:44:43.92Z</time></trkpt><trkpt lat="43.4171917" lon="11.4580533"><ele>440.6</ele><time>2026-04-20T09:44:44.92Z</time></trkpt><trkpt lat="43.41728" lon="11.458095"><ele>440.20000000000005</ele><time>2026-04-20T09:44:45.92Z</time></trkpt><trkpt lat="43.4173667" lon="11.4581483"><ele>439.79999999999995</ele><time>2026-04-20T09:44:46.921Z</time></trkpt><trkpt lat="43.4174583" lon="11.4582067"><ele>439.4</ele><time>2026-04-20T09:44:47.92Z</time></trkpt><trkpt lat="43.4175433" lon="11.4582767"><ele>439.0</ele><time>2026-04-20T09:44:48.92Z</time></trkpt><trkpt lat="43.4176333" lon="11.45834"><ele>439.0</ele><time>2026-04-20T09:44:49.92Z</time></trkpt><trkpt lat="43.4177417" lon="11.4583933"><ele>439.0</ele><time>2026-04-20T09:44:50.921Z</time></trkpt><trkpt lat="43.41785" lon="11.4584233"><ele>439.0</ele><time>2026-04-20T09:44:51.92Z</time></trkpt><trkpt lat="43.417955" lon="11.4584267"><ele>439.0</ele><time>2026-04-20T09:44:52.92Z</time></trkpt><trkpt lat="43.4180633" lon="11.4584"><ele>439.0</ele><time>2026-04-20T09:44:53.92Z</time></trkpt><trkpt lat="43.4181833" lon="11.458325"><ele>437.5</ele><time>2026-04-20T09:44:54.921Z</time></trkpt><trkpt lat="43.4183067" lon="11.458235"><ele>436.0</ele><time>2026-04-20T09:44:55.92Z</time></trkpt><trkpt lat="43.4184167" lon="11.458135"><ele>434.5</ele><time>2026-04-20T09:44:56.92Z</time></trkpt><trkpt lat="43.41852" lon="11.4580483"><ele>433.0</ele><time>2026-04-20T09:44:57.92Z</time></trkpt><trkpt lat="43.4186183" lon="11.45797"><ele>433.0</ele><time>2026-04-20T09:44:58.92Z</time></trkpt><trkpt lat="43.4187067" lon="11.45789"><ele>432.99999999999994</ele><time>2026-04-20T09:44:59.92Z</time></trkpt><trkpt lat="43.4187983" lon="11.4578117"><ele>432.99999999999994</ele><time>2026-04-20T09:45:00.92Z</time></trkpt><trkpt lat="43.418885" lon="11.4577183"><ele>433.0</ele><time>2026-04-20T09:45:01.921Z</time></trkpt><trkpt lat="43.41896" lon="11.457615"><ele>433.0</ele><time>2026-04-20T09:45:02.92Z</time></trkpt><trkpt lat="43.4190083" lon="11.4574933"><ele>433.0</ele><time>2026-04-20T09:45:03.921Z</time></trkpt><trkpt lat="43.4190367" lon="11.4573633"><ele>432.99999999999994</ele><time>2026-04-20T09:45:04.921Z</time></trkpt><trkpt lat="43.4190483" lon="11.45723"><ele>432.99999999999994</ele><time>2026-04-20T09:45:05.921Z</time></trkpt><trkpt lat="43.4190783" lon="11.4571033"><ele>433.0</ele><time>2026-04-20T09:45:06.92Z</time></trkpt><trkpt lat="43.419125" lon="11.456995"><ele>433.0</ele><time>2026-04-20T09:45:07.921Z</time></trkpt><trkpt lat="43.4192083" lon="11.4569133"><ele>433.75</ele><time>2026-04-20T09:45:08.92Z</time></trkpt><trkpt lat="43.419315" lon="11.456855"><ele>434.5</ele><time>2026-04-20T09:45:09.92Z</time></trkpt><trkpt lat="43.41943" lon="11.456825"><ele>435.25</ele><time>2026-04-20T09:45:10.92Z</time></trkpt><trkpt lat="43.4195417" lon="11.4567917"><ele>436.0</ele><time>2026-04-20T09:45:11.92Z</time></trkpt><trkpt lat="43.4196367" lon="11.4567233"><ele>434.0</ele><time>2026-04-20T09:45:12.92Z</time></trkpt><trkpt lat="43.4197317" lon="11.45662"><ele>432.0</ele><time>2026-04-20T09:45:13.92Z</time></trkpt><trkpt lat="43.4198233" lon="11.4565067"><ele>430.0</ele><time>2026-04-20T09:45:14.92Z</time></trkpt><trkpt lat="43.4199183" lon="11.4563867"><ele>428.0</ele><time>2026-04-20T09:45:15.92Z</time></trkpt><trkpt lat="43.4200117" lon="11.456255"><ele>428.0</ele><time>2026-04-20T09:45:16.92Z</time></trkpt><trkpt lat="43.4200983" lon="11.45613"><ele>428.0</ele><time>2026-04-20T09:45:17.92Z</time></trkpt><trkpt lat="43.4201783" lon="11.45601"><ele>428.0</ele><time>2026-04-20T09:45:18.921Z</time></trkpt><trkpt lat="43.4202517" lon="11.455895"><ele>428.0</ele><time>2026-04-20T09:45:19.92Z</time></trkpt><trkpt lat="43.4203233" lon="11.455775"><ele>428.0</ele><time>2026-04-20T09:45:20.92Z</time></trkpt><trkpt lat="43.420395" lon="11.4556583"><ele>427.99999999999994</ele><time>2026-04-20T09:45:21.92Z</time></trkpt><trkpt lat="43.42047" lon="11.4555483"><ele>427.99999999999994</ele><time>2026-04-20T09:45:22.921Z</time></trkpt><trkpt lat="43.4205417" lon="11.45546"><ele>428.0</ele><time>2026-04-20T09:45:23.921Z</time></trkpt><trkpt lat="43.4206133" lon="11.455375"><ele>428.0</ele><time>2026-04-20T09:45:24.92Z</time></trkpt><trkpt lat="43.4206967" lon="11.4552767"><ele>426.5</ele><time>2026-04-20T09:45:25.921Z</time></trkpt><trkpt lat="43.4207833" lon="11.4551367"><ele>425.0</ele><time>2026-04-20T09:45:26.921Z</time></trkpt><trkpt lat="43.4208717" lon="11.4549817"><ele>423.5</ele><time>2026-04-20T09:45:27.92Z</time></trkpt><trkpt lat="43.420955" lon="11.4548283"><ele>422.0</ele><time>2026-04-20T09:45:28.92Z</time></trkpt><trkpt lat="43.42105" lon="11.4547"><ele>423.5</ele><time>2026-04-20T09:45:29.92Z</time></trkpt><trkpt lat="43.4211583" lon="11.4545917"><ele>425.0</ele><time>2026-04-20T09:45:30.921Z</time></trkpt><trkpt lat="43.4212717" lon="11.4544933"><ele>426.5</ele><time>2026-04-20T09:45:31.92Z</time></trkpt><trkpt lat="43.4213883" lon="11.4544167"><ele>428.0</ele><time>2026-04-20T09:45:32.92Z</time></trkpt><trkpt lat="43.4214933" lon="11.4543283"><ele>424.25</ele><time>2026-04-20T09:45:33.92Z</time></trkpt><trkpt lat="43.4215967" lon="11.45424"><ele>420.5</ele><time>2026-04-20T09:45:34.92Z</time></trkpt><trkpt lat="43.4216917" lon="11.4541367"><ele>416.75</ele><time>2026-04-20T09:45:35.921Z</time></trkpt><trkpt lat="43.4217617" lon="11.4540183"><ele>413.0</ele><time>2026-04-20T09:45:36.921Z</time></trkpt><trkpt lat="43.4218183" lon="11.45389"><ele>413.5</ele><time>2026-04-20T09:45:37.92Z</time></trkpt><trkpt lat="43.4218417" lon="11.4537517"><ele>414.0</ele><time>2026-04-20T09:45:38.92Z</time></trkpt><trkpt lat="43.42184" lon="11.453595"><ele>414.5</ele><time>2026-04-20T09:45:39.921Z</time></trkpt><trkpt lat="43.4218133" lon="11.4534367"><ele>415.0</ele><time>2026-04-20T09:45:40.92Z</time></trkpt><trkpt lat="43.421755" lon="11.453295"><ele>415.0</ele><time>2026-04-20T09:45:41.92Z</time></trkpt><trkpt lat="43.4216933" lon="11.453155"><ele>415.0</ele><time>2026-04-20T09:45:42.92Z</time></trkpt><trkpt lat="43.421625" lon="11.453035"><ele>415.0</ele><time>2026-04-20T09:45:43.921Z</time></trkpt><trkpt lat="43.4215767" lon="11.4529017"><ele>415.0</ele><time>2026-04-20T09:45:44.92Z</time></trkpt><trkpt lat="43.4215817" lon="11.4527567"><ele>415.0</ele><time>2026-04-20T09:45:45.92Z</time></trkpt><trkpt lat="43.4216133" lon="11.4526233"><ele>416.0</ele><time>2026-04-20T09:45:46.921Z</time></trkpt><trkpt lat="43.4216633" lon="11.4524917"><ele>417.0</ele><time>2026-04-20T09:45:47.921Z</time></trkpt><trkpt lat="43.421715" lon="11.4523367"><ele>418.0</ele><time>2026-04-20T09:45:48.92Z</time></trkpt><trkpt lat="43.4217633" lon="11.4521817"><ele>419.0</ele><time>2026-04-20T09:45:49.92Z</time></trkpt><trkpt lat="43.4217917" lon="11.4520317"><ele>420.79999999999995</ele><time>2026-04-20T09:45:50.92Z</time></trkpt><trkpt lat="43.4217967" lon="11.4518817"><ele>422.59999999999997</ele><time>2026-04-20T09:45:51.92Z</time></trkpt><trkpt lat="43.4218" lon="11.4517467"><ele>424.4</ele><time>2026-04-20T09:45:52.92Z</time></trkpt><trkpt lat="43.42182" lon="11.451615"><ele>426.2</ele><time>2026-04-20T09:45:53.92Z</time></trkpt><trkpt lat="43.421855" lon="11.4515017"><ele>428.0</ele><time>2026-04-20T09:45:54.92Z</time></trkpt><trkpt lat="43.421905" lon="11.451405"><ele>428.0</ele><time>2026-04-20T09:45:55.921Z</time></trkpt><trkpt lat="43.4219933" lon="11.4513417"><ele>428.0</ele><time>2026-04-20T09:45:56.92Z</time></trkpt><trkpt lat="43.4220983" lon="11.451315"><ele>428.0</ele><time>2026-04-20T09:45:57.92Z</time></trkpt><trkpt lat="43.4222183" lon="11.4513067"><ele>428.0</ele><time>2026-04-20T09:45:58.92Z</time></trkpt><trkpt lat="43.422345" lon="11.4512933"><ele>426.0</ele><time>2026-04-20T09:45:59.92Z</time></trkpt><trkpt lat="43.42248" lon="11.45127"><ele>424.0</ele><time>2026-04-20T09:46:00.92Z</time></trkpt><trkpt lat="43.4226033" lon="11.4512183"><ele>422.0</ele><time>2026-04-20T09:46:01.921Z</time></trkpt><trkpt lat="43.4227033" lon="11.4511467"><ele>420.0</ele><time>2026-04-20T09:46:02.92Z</time></trkpt><trkpt lat="43.4228167" lon="11.4510567"><ele>420.0</ele><time>2026-04-20T09:46:03.92Z</time></trkpt><trkpt lat="43.4229367" lon="11.45096"><ele>420.0</ele><time>2026-04-20T09:46:04.92Z</time></trkpt><trkpt lat="43.4230567" lon="11.4508533"><ele>420.0</ele><time>2026-04-20T09:46:05.92Z</time></trkpt><trkpt lat="43.4231683" lon="11.4507483"><ele>420.0</ele><time>2026-04-20T09:46:06.921Z</time></trkpt><trkpt lat="43.4232733" lon="11.4506367"><ele>418.0</ele><time>2026-04-20T09:46:07.92Z</time></trkpt><trkpt lat="43.4233733" lon="11.4505167"><ele>416.0</ele><time>2026-04-20T09:46:08.92Z</time></trkpt><trkpt lat="43.4234617" lon="11.4504083"><ele>414.0</ele><time>2026-04-20T09:46:09.92Z</time></trkpt><trkpt lat="43.4235483" lon="11.450295"><ele>412.0</ele><time>2026-04-20T09:46:10.92Z</time></trkpt><trkpt lat="43.4236317" lon="11.4501783"><ele>412.0</ele><time>2026-04-20T09:46:11.92Z</time></trkpt><trkpt lat="43.42372" lon="11.450055"><ele>412.0</ele><time>2026-04-20T09:46:12.92Z</time></trkpt><trkpt lat="43.4238033" lon="11.4499283"><ele>412.0</ele><time>2026-04-20T09:46:13.921Z</time></trkpt><trkpt lat="43.423875" lon="11.449785"><ele>412.0</ele><time>2026-04-20T09:46:14.92Z</time></trkpt><trkpt lat="43.4239333" lon="11.4496383"><ele>407.0</ele><time>2026-04-20T09:46:15.92Z</time></trkpt><trkpt lat="43.4239833" lon="11.4494733"><ele>402.0</ele><time>2026-04-20T09:46:16.921Z</time></trkpt><trkpt lat="43.42401" lon="11.449315"><ele>397.0</ele><time>2026-04-20T09:46:17.92Z</time></trkpt><trkpt lat="43.4240217" lon="11.4491433"><ele>392.0</ele><time>2026-04-20T09:46:18.92Z</time></trkpt><trkpt lat="43.424005" lon="11.4489783"><ele>392.0</ele><time>2026-04-20T09:46:19.92Z</time></trkpt><trkpt lat="43.4239717" lon="11.4488267"><ele>392.0</ele><time>2026-04-20T09:46:20.92Z</time></trkpt><trkpt lat="43.4239233" lon="11.448675"><ele>392.0</ele><time>2026-04-20T09:46:21.92Z</time></trkpt><trkpt lat="43.4238833" lon="11.44853"><ele>392.0</ele><time>2026-04-20T09:46:22.92Z</time></trkpt><trkpt lat="43.42385" lon="11.4483933"><ele>392.0</ele><time>2026-04-20T09:46:23.921Z</time></trkpt><trkpt lat="43.42384" lon="11.4482467"><ele>392.0</ele><time>2026-04-20T09:46:24.92Z</time></trkpt><trkpt lat="43.4238617" lon="11.4481083"><ele>392.0</ele><time>2026-04-20T09:46:25.92Z</time></trkpt><trkpt lat="43.4239017" lon="11.4479833"><ele>392.0</ele><time>2026-04-20T09:46:26.92Z</time></trkpt><trkpt lat="43.42398" lon="11.4478683"><ele>392.0</ele><time>2026-04-20T09:46:27.92Z</time></trkpt><trkpt lat="43.4240817" lon="11.44776"><ele>392.5</ele><time>2026-04-20T09:46:28.921Z</time></trkpt><trkpt lat="43.4241867" lon="11.4476433"><ele>393.0</ele><time>2026-04-20T09:46:29.921Z</time></trkpt><trkpt lat="43.42429" lon="11.4475133"><ele>393.5</ele><time>2026-04-20T09:46:30.921Z</time></trkpt><trkpt lat="43.424375" lon="11.447375"><ele>394.0</ele><time>2026-04-20T09:46:31.921Z</time></trkpt><trkpt lat="43.42444" lon="11.4472217"><ele>393.0</ele><time>2026-04-20T09:46:32.92Z</time></trkpt><trkpt lat="43.4244867" lon="11.4470533"><ele>392.0</ele><time>2026-04-20T09:46:33.921Z</time></trkpt><trkpt lat="43.4245117" lon="11.4468817"><ele>391.0</ele><time>2026-04-20T09:46:34.92Z</time></trkpt><trkpt lat="43.4245267" lon="11.446725"><ele>390.0</ele><time>2026-04-20T09:46:35.92Z</time></trkpt><trkpt lat="43.42451" lon="11.44657"><ele>390.0</ele><time>2026-04-20T09:46:36.92Z</time></trkpt><trkpt lat="43.4244733" lon="11.4464267"><ele>390.0</ele><time>2026-04-20T09:46:37.921Z</time></trkpt><trkpt lat="43.4244183" lon="11.446305"><ele>390.0</ele><time>2026-04-20T09:46:38.92Z</time></trkpt><trkpt lat="43.4243333" lon="11.4462117"><ele>390.0</ele><time>2026-04-20T09:46:39.921Z</time></trkpt><trkpt lat="43.4242383" lon="11.4461483"><ele>390.0</ele><time>2026-04-20T09:46:40.92Z</time></trkpt><trkpt lat="43.424135" lon="11.44611"><ele>388.0</ele><time>2026-04-20T09:46:41.92Z</time></trkpt><trkpt lat="43.4240483" lon="11.446055"><ele>386.0</ele><time>2026-04-20T09:46:42.92Z</time></trkpt><trkpt lat="43.42398" lon="11.445985"><ele>384.0</ele><time>2026-04-20T09:46:43.919Z</time></trkpt><trkpt lat="43.4239317" lon="11.4458833"><ele>382.0</ele><time>2026-04-20T09:46:44.919Z</time></trkpt><trkpt lat="43.4239033" lon="11.445775"><ele>380.0</ele><time>2026-04-20T09:46:45.919Z</time></trkpt><trkpt lat="43.423915" lon="11.44564"><ele>380.0</ele><time>2026-04-20T09:46:46.919Z</time></trkpt><trkpt lat="43.4239533" lon="11.4455033"><ele>380.0</ele><time>2026-04-20T09:46:47.919Z</time></trkpt><trkpt lat="43.424015" lon="11.445355"><ele>380.0</ele><time>2026-04-20T09:46:48.92Z</time></trkpt><trkpt lat="43.4240767" lon="11.445205"><ele>380.0</ele><time>2026-04-20T09:46:49.919Z</time></trkpt><trkpt lat="43.4241333" lon="11.445065"><ele>380.0</ele><time>2026-04-20T09:46:50.92Z</time></trkpt><trkpt lat="43.4241883" lon="11.4449267"><ele>380.0</ele><time>2026-04-20T09:46:51.919Z</time></trkpt><trkpt lat="43.4242567" lon="11.444775"><ele>380.0</ele><time>2026-04-20T09:46:52.919Z</time></trkpt><trkpt lat="43.4243283" lon="11.4446233"><ele>380.0</ele><time>2026-04-20T09:46:53.92Z</time></trkpt><trkpt lat="43.4244017" lon="11.4444783"><ele>380.75</ele><time>2026-04-20T09:46:54.919Z</time></trkpt><trkpt lat="43.4244717" lon="11.444345"><ele>381.5</ele><time>2026-04-20T09:46:55.919Z</time></trkpt><trkpt lat="43.4245483" lon="11.4442183"><ele>382.25</ele><time>2026-04-20T09:46:56.919Z</time></trkpt><trkpt lat="43.424615" lon="11.4440917"><ele>383.0</ele><time>2026-04-20T09:46:57.919Z</time></trkpt><trkpt lat="43.4246933" lon="11.4439767"><ele>379.25</ele><time>2026-04-20T09:46:58.92Z</time></trkpt><trkpt lat="43.42476" lon="11.4438667"><ele>375.5</ele><time>2026-04-20T09:46:59.92Z</time></trkpt><trkpt lat="43.4248183" lon="11.4437383"><ele>371.75</ele><time>2026-04-20T09:47:00.919Z</time></trkpt><trkpt lat="43.42485" lon="11.4435883"><ele>368.0</ele><time>2026-04-20T09:47:01.919Z</time></trkpt><trkpt lat="43.4248717" lon="11.443415"><ele>368.0</ele><time>2026-04-20T09:47:02.919Z</time></trkpt><trkpt lat="43.4248767" lon="11.4432567"><ele>368.0</ele><time>2026-04-20T09:47:03.919Z</time></trkpt><trkpt lat="43.42488" lon="11.4430917"><ele>368.0</ele><time>2026-04-20T09:47:04.92Z</time></trkpt><trkpt lat="43.4249033" lon="11.4429233"><ele>368.0</ele><time>2026-04-20T09:47:05.92Z</time></trkpt><trkpt lat="43.42494" lon="11.44275"><ele>368.25</ele><time>2026-04-20T09:47:06.919Z</time></trkpt><trkpt lat="43.42499" lon="11.4425633"><ele>368.5</ele><time>2026-04-20T09:47:07.919Z</time></trkpt><trkpt lat="43.4250417" lon="11.44238"><ele>368.75</ele><time>2026-04-20T09:47:08.92Z</time></trkpt><trkpt lat="43.4251033" lon="11.4422117"><ele>369.0</ele><time>2026-04-20T09:47:09.919Z</time></trkpt><trkpt lat="43.4251833" lon="11.44206"><ele>369.75</ele><time>2026-04-20T09:47:10.919Z</time></trkpt><trkpt lat="43.4252717" lon="11.4419333"><ele>370.5</ele><time>2026-04-20T09:47:11.92Z</time></trkpt><trkpt lat="43.425375" lon="11.4418317"><ele>371.25</ele><time>2026-04-20T09:47:12.919Z</time></trkpt><trkpt lat="43.42549" lon="11.44175"><ele>372.0</ele><time>2026-04-20T09:47:13.919Z</time></trkpt><trkpt lat="43.4256117" lon="11.44169"><ele>370.0</ele><time>2026-04-20T09:47:14.92Z</time></trkpt><trkpt lat="43.425735" lon="11.4416283"><ele>368.0</ele><time>2026-04-20T09:47:15.919Z</time></trkpt><trkpt lat="43.4258517" lon="11.4415717"><ele>366.0</ele><time>2026-04-20T09:47:16.919Z</time></trkpt><trkpt lat="43.425965" lon="11.4415117"><ele>364.0</ele><time>2026-04-20T09:47:17.919Z</time></trkpt><trkpt lat="43.4260567" lon="11.44144"><ele>364.0</ele><time>2026-04-20T09:47:18.919Z</time></trkpt><trkpt lat="43.4261267" lon="11.4413383"><ele>364.0</ele><time>2026-04-20T09:47:19.92Z</time></trkpt><trkpt lat="43.4261833" lon="11.4412067"><ele>364.0</ele><time>2026-04-20T09:47:20.919Z</time></trkpt><trkpt lat="43.4261933" lon="11.4410617"><ele>364.0</ele><time>2026-04-20T09:47:21.919Z</time></trkpt><trkpt lat="43.4261783" lon="11.4408917"><ele>364.0</ele><time>2026-04-20T09:47:22.919Z</time></trkpt><trkpt lat="43.426155" lon="11.4407133"><ele>364.5</ele><time>2026-04-20T09:47:23.919Z</time></trkpt><trkpt lat="43.42615" lon="11.4405167"><ele>365.0</ele><time>2026-04-20T09:47:24.919Z</time></trkpt><trkpt lat="43.4261433" lon="11.4403233"><ele>365.5</ele><time>2026-04-20T09:47:25.919Z</time></trkpt><trkpt lat="43.426135" lon="11.44014"><ele>366.0</ele><time>2026-04-20T09:47:26.919Z</time></trkpt><trkpt lat="43.42613" lon="11.4399583"><ele>364.75</ele><time>2026-04-20T09:47:27.919Z</time></trkpt><trkpt lat="43.426115" lon="11.4397883"><ele>363.5</ele><time>2026-04-20T09:47:28.919Z</time></trkpt><trkpt lat="43.4260833" lon="11.4396433"><ele>362.25</ele><time>2026-04-20T09:47:29.919Z</time></trkpt><trkpt lat="43.4260283" lon="11.4394967"><ele>361.0</ele><time>2026-04-20T09:47:30.919Z</time></trkpt><trkpt lat="43.425955" lon="11.4393767"><ele>359.8</ele><time>2026-04-20T09:47:31.919Z</time></trkpt><trkpt lat="43.4258517" lon="11.43932"><ele>358.6</ele><time>2026-04-20T09:47:32.919Z</time></trkpt><trkpt lat="43.4257417" lon="11.4393017"><ele>357.4</ele><time>2026-04-20T09:47:33.919Z</time></trkpt><trkpt lat="43.4256283" lon="11.4393167"><ele>356.2</ele><time>2026-04-20T09:47:34.919Z</time></trkpt><trkpt lat="43.4255167" lon="11.439315"><ele>355.0</ele><time>2026-04-20T09:47:35.919Z</time></trkpt><trkpt lat="43.4254217" lon="11.439265"><ele>356.5</ele><time>2026-04-20T09:47:36.919Z</time></trkpt><trkpt lat="43.42533" lon="11.4391833"><ele>358.0</ele><time>2026-04-20T09:47:37.919Z</time></trkpt><trkpt lat="43.4252517" lon="11.4390667"><ele>359.5</ele><time>2026-04-20T09:47:38.919Z</time></trkpt><trkpt lat="43.4252033" lon="11.4388933"><ele>361.0</ele><time>2026-04-20T09:47:39.919Z</time></trkpt><trkpt lat="43.4251783" lon="11.438695"><ele>361.0</ele><time>2026-04-20T09:47:40.919Z</time></trkpt><trkpt lat="43.4251417" lon="11.438485"><ele>361.0</ele><time>2026-04-20T09:47:41.919Z</time></trkpt><trkpt lat="43.4251033" lon="11.43828"><ele>361.0</ele><time>2026-04-20T09:47:42.919Z</time></trkpt><trkpt lat="43.4250617" lon="11.4380917"><ele>359.5</ele><time>2026-04-20T09:47:43.919Z</time></trkpt><trkpt lat="43.425025" lon="11.4379083"><ele>358.0</ele><time>2026-04-20T09:47:44.919Z</time></trkpt><trkpt lat="43.4249933" lon="11.4377267"><ele>356.5</ele><time>2026-04-20T09:47:45.92Z</time></trkpt><trkpt lat="43.4249617" lon="11.4375517"><ele>355.0</ele><time>2026-04-20T09:47:46.919Z</time></trkpt><trkpt lat="43.4249433" lon="11.4373733"><ele>355.0</ele><time>2026-04-20T09:47:47.919Z</time></trkpt><trkpt lat="43.4249433" lon="11.4371917"><ele>355.0</ele><time>2026-04-20T09:47:48.919Z</time></trkpt><trkpt lat="43.4249467" lon="11.437015"><ele>355.0</ele><time>2026-04-20T09:47:49.919Z</time></trkpt><trkpt lat="43.4249483" lon="11.43685"><ele>355.0</ele><time>2026-04-20T09:47:50.92Z</time></trkpt><trkpt lat="43.42497" lon="11.4366833"><ele>355.0</ele><time>2026-04-20T09:47:51.919Z</time></trkpt><trkpt lat="43.42501" lon="11.4365133"><ele>355.0</ele><time>2026-04-20T09:47:52.92Z</time></trkpt><trkpt lat="43.4250633" lon="11.4363483"><ele>355.0</ele><time>2026-04-20T09:47:53.919Z</time></trkpt><trkpt lat="43.4251267" lon="11.4361967"><ele>355.0</ele><time>2026-04-20T09:47:54.919Z</time></trkpt><trkpt lat="43.4252017" lon="11.436065"><ele>354.4</ele><time>2026-04-20T09:47:55.919Z</time></trkpt><trkpt lat="43.42528" lon="11.4359483"><ele>353.8</ele><time>2026-04-20T09:47:56.919Z</time></trkpt><trkpt lat="43.4253467" lon="11.4358333"><ele>353.20000000000005</ele><time>2026-04-20T09:47:57.919Z</time></trkpt><trkpt lat="43.425375" lon="11.4357017"><ele>352.6</ele><time>2026-04-20T09:47:58.92Z</time></trkpt><trkpt lat="43.4253633" lon="11.43557"><ele>352.0</ele><time>2026-04-20T09:47:59.919Z</time></trkpt><trkpt lat="43.4253" lon="11.4354533"><ele>349.75</ele><time>2026-04-20T09:48:00.919Z</time></trkpt><trkpt lat="43.4252017" lon="11.4353683"><ele>347.5</ele><time>2026-04-20T09:48:01.919Z</time></trkpt><trkpt lat="43.4250817" lon="11.4353017"><ele>345.25</ele><time>2026-04-20T09:48:02.919Z</time></trkpt><trkpt lat="43.4249567" lon="11.4352367"><ele>343.0</ele><time>2026-04-20T09:48:03.919Z</time></trkpt><trkpt lat="43.42483" lon="11.4351617"><ele>343.0</ele><time>2026-04-20T09:48:04.919Z</time></trkpt><trkpt lat="43.4247167" lon="11.4350883"><ele>343.0</ele><time>2026-04-20T09:48:05.92Z</time></trkpt><trkpt lat="43.4246033" lon="11.43501"><ele>343.0</ele><time>2026-04-20T09:48:06.919Z</time></trkpt><trkpt lat="43.42452" lon="11.4349133"><ele>343.0</ele><time>2026-04-20T09:48:07.919Z</time></trkpt><trkpt lat="43.4244433" lon="11.4347883"><ele>345.0</ele><time>2026-04-20T09:48:08.92Z</time></trkpt><trkpt lat="43.42439" lon="11.43463"><ele>347.0</ele><time>2026-04-20T09:48:09.919Z</time></trkpt><trkpt lat="43.4243667" lon="11.43445"><ele>349.0</ele><time>2026-04-20T09:48:10.919Z</time></trkpt><trkpt lat="43.4243717" lon="11.434265"><ele>351.0</ele><time>2026-04-20T09:48:11.919Z</time></trkpt><trkpt lat="43.4243967" lon="11.434085"><ele>351.0</ele><time>2026-04-20T09:48:12.919Z</time></trkpt><trkpt lat="43.424435" lon="11.4339033"><ele>351.0</ele><time>2026-04-20T09:48:13.919Z</time></trkpt><trkpt lat="43.42448" lon="11.4337267"><ele>351.0</ele><time>2026-04-20T09:48:14.919Z</time></trkpt><trkpt lat="43.4245333" lon="11.4335533"><ele>351.0</ele><time>2026-04-20T09:48:15.919Z</time></trkpt><trkpt lat="43.424595" lon="11.433385"><ele>348.25</ele><time>2026-04-20T09:48:16.92Z</time></trkpt><trkpt lat="43.4246583" lon="11.4332183"><ele>345.5</ele><time>2026-04-20T09:48:17.919Z</time></trkpt><trkpt lat="43.424715" lon="11.4330633"><ele>342.75</ele><time>2026-04-20T09:48:18.919Z</time></trkpt><trkpt lat="43.4247733" lon="11.4329"><ele>340.0</ele><time>2026-04-20T09:48:19.919Z</time></trkpt><trkpt lat="43.4248183" lon="11.432755"><ele>340.0</ele><time>2026-04-20T09:48:20.919Z</time></trkpt><trkpt lat="43.42487" lon="11.432605"><ele>340.0</ele><time>2026-04-20T09:48:21.919Z</time></trkpt><trkpt lat="43.4249283" lon="11.432475"><ele>340.0</ele><time>2026-04-20T09:48:22.919Z</time></trkpt><trkpt lat="43.42499" lon="11.4323517"><ele>340.0</ele><time>2026-04-20T09:48:23.92Z</time></trkpt><trkpt lat="43.4250667" lon="11.43226"><ele>340.0</ele><time>2026-04-20T09:48:24.919Z</time></trkpt><trkpt lat="43.42516" lon="11.4322067"><ele>340.0</ele><time>2026-04-20T09:48:25.919Z</time></trkpt><trkpt lat="43.4252517" lon="11.432165"><ele>340.0</ele><time>2026-04-20T09:48:26.919Z</time></trkpt><trkpt lat="43.4253267" lon="11.432105"><ele>340.0</ele><time>2026-04-20T09:48:27.919Z</time></trkpt><trkpt lat="43.42539" lon="11.4320167"><ele>340.0</ele><time>2026-04-20T09:48:28.92Z</time></trkpt><trkpt lat="43.4254367" lon="11.431875"><ele>340.0</ele><time>2026-04-20T09:48:29.919Z</time></trkpt><trkpt lat="43.4254883" lon="11.4317033"><ele>340.0</ele><time>2026-04-20T09:48:30.919Z</time></trkpt><trkpt lat="43.42555" lon="11.4315233"><ele>340.0</ele><time>2026-04-20T09:48:31.919Z</time></trkpt><trkpt lat="43.42562" lon="11.4313467"><ele>340.0</ele><time>2026-04-20T09:48:32.92Z</time></trkpt><trkpt lat="43.425685" lon="11.4311633"><ele>340.0</ele><time>2026-04-20T09:48:33.92Z</time></trkpt><trkpt lat="43.425765" lon="11.4309467"><ele>338.0</ele><time>2026-04-20T09:48:34.919Z</time></trkpt><trkpt lat="43.4258417" lon="11.4307317"><ele>336.0</ele><time>2026-04-20T09:48:35.919Z</time></trkpt><trkpt lat="43.425905" lon="11.4305033"><ele>334.0</ele><time>2026-04-20T09:48:36.919Z</time></trkpt><trkpt lat="43.4259383" lon="11.43026"><ele>333.3333333333333</ele><time>2026-04-20T09:48:37.919Z</time></trkpt><trkpt lat="43.425945" lon="11.43002"><ele>332.6666666666667</ele><time>2026-04-20T09:48:38.919Z</time></trkpt><trkpt lat="43.42594" lon="11.4297683"><ele>332.0</ele><time>2026-04-20T09:48:39.919Z</time></trkpt><trkpt lat="43.425935" lon="11.4295183"><ele>332.0</ele><time>2026-04-20T09:48:40.919Z</time></trkpt><trkpt lat="43.4259283" lon="11.42925"><ele>332.0</ele><time>2026-04-20T09:48:41.919Z</time></trkpt><trkpt lat="43.4259267" lon="11.4289783"><ele>332.0</ele><time>2026-04-20T09:48:42.92Z</time></trkpt><trkpt lat="43.4259233" lon="11.4287217"><ele>330.6666666666667</ele><time>2026-04-20T09:48:43.919Z</time></trkpt><trkpt lat="43.4259217" lon="11.4284733"><ele>329.3333333333333</ele><time>2026-04-20T09:48:44.919Z</time></trkpt><trkpt lat="43.4259267" lon="11.4282367"><ele>328.0</ele><time>2026-04-20T09:48:45.919Z</time></trkpt><trkpt lat="43.4259217" lon="11.4280167"><ele>327.75</ele><time>2026-04-20T09:48:46.919Z</time></trkpt><trkpt lat="43.42592" lon="11.4278167"><ele>327.5</ele><time>2026-04-20T09:48:47.92Z</time></trkpt><trkpt lat="43.4259267" lon="11.4276383"><ele>327.25</ele><time>2026-04-20T09:48:48.919Z</time></trkpt><trkpt lat="43.4259567" lon="11.4274733"><ele>327.0</ele><time>2026-04-20T09:48:49.919Z</time></trkpt><trkpt lat="43.426025" lon="11.427315"><ele>327.0</ele><time>2026-04-20T09:48:50.92Z</time></trkpt><trkpt lat="43.4261183" lon="11.42717"><ele>327.0</ele><time>2026-04-20T09:48:51.919Z</time></trkpt><trkpt lat="43.42622" lon="11.4270217"><ele>327.0</ele><time>2026-04-20T09:48:52.919Z</time></trkpt><trkpt lat="43.426315" lon="11.4268517"><ele>327.0</ele><time>2026-04-20T09:48:53.919Z</time></trkpt><trkpt lat="43.4263933" lon="11.4266633"><ele>328.0</ele><time>2026-04-20T09:48:54.919Z</time></trkpt><trkpt lat="43.426455" lon="11.4264633"><ele>329.0</ele><time>2026-04-20T09:48:55.919Z</time></trkpt><trkpt lat="43.4265133" lon="11.4262517"><ele>330.0</ele><time>2026-04-20T09:48:56.919Z</time></trkpt><trkpt lat="43.42655" lon="11.4260417"><ele>330.0</ele><time>2026-04-20T09:48:57.919Z</time></trkpt><trkpt lat="43.4265633" lon="11.4258417"><ele>330.0</ele><time>2026-04-20T09:48:58.92Z</time></trkpt><trkpt lat="43.426585" lon="11.425635"><ele>330.0</ele><time>2026-04-20T09:48:59.919Z</time></trkpt><trkpt lat="43.42659" lon="11.42542"><ele>329.6666666666667</ele><time>2026-04-20T09:49:00.919Z</time></trkpt><trkpt lat="43.4265667" lon="11.4252117"><ele>329.33333333333337</ele><time>2026-04-20T09:49:01.919Z</time></trkpt><trkpt lat="43.4265217" lon="11.4250017"><ele>329.0</ele><time>2026-04-20T09:49:02.919Z</time></trkpt><trkpt lat="43.42647" lon="11.4247967"><ele>330.33333333333337</ele><time>2026-04-20T09:49:03.919Z</time></trkpt><trkpt lat="43.42642" lon="11.4245933"><ele>331.6666666666667</ele><time>2026-04-20T09:49:04.919Z</time></trkpt><trkpt lat="43.4263817" lon="11.4243867"><ele>333.0</ele><time>2026-04-20T09:49:05.919Z</time></trkpt><trkpt lat="43.4263433" lon="11.4241767"><ele>329.25</ele><time>2026-04-20T09:49:06.919Z</time></trkpt><trkpt lat="43.4262967" lon="11.4239783"><ele>325.5</ele><time>2026-04-20T09:49:07.919Z</time></trkpt><trkpt lat="43.4262517" lon="11.4237983"><ele>321.75</ele><time>2026-04-20T09:49:08.919Z</time></trkpt><trkpt lat="43.4262167" lon="11.42363"><ele>318.0</ele><time>2026-04-20T09:49:09.919Z</time></trkpt><trkpt lat="43.4261833" lon="11.42346"><ele>317.4</ele><time>2026-04-20T09:49:10.919Z</time></trkpt><trkpt lat="43.4261767" lon="11.4233083"><ele>316.8</ele><time>2026-04-20T09:49:11.919Z</time></trkpt><trkpt lat="43.4262" lon="11.42317"><ele>316.2</ele><time>2026-04-20T09:49:12.919Z</time></trkpt><trkpt lat="43.4262633" lon="11.4230517"><ele>315.6</ele><time>2026-04-20T09:49:13.919Z</time></trkpt><trkpt lat="43.4263533" lon="11.422975"><ele>315.0</ele><time>2026-04-20T09:49:14.92Z</time></trkpt><trkpt lat="43.4264683" lon="11.422925"><ele>314.6666666666667</ele><time>2026-04-20T09:49:15.92Z</time></trkpt><trkpt lat="43.42661" lon="11.4228917"><ele>314.33333333333337</ele><time>2026-04-20T09:49:16.919Z</time></trkpt><trkpt lat="43.4267683" lon="11.4228617"><ele>314.0</ele><time>2026-04-20T09:49:17.919Z</time></trkpt><trkpt lat="43.42694" lon="11.4228267"><ele>314.0</ele><time>2026-04-20T09:49:18.92Z</time></trkpt><trkpt lat="43.4271067" lon="11.4228"><ele>314.0</ele><time>2026-04-20T09:49:19.919Z</time></trkpt><trkpt lat="43.4272617" lon="11.42277"><ele>314.0</ele><time>2026-04-20T09:49:20.919Z</time></trkpt><trkpt lat="43.4274083" lon="11.422725"><ele>315.0</ele><time>2026-04-20T09:49:21.919Z</time></trkpt><trkpt lat="43.4275283" lon="11.422665"><ele>316.0</ele><time>2026-04-20T09:49:22.919Z</time></trkpt><trkpt lat="43.42762" lon="11.4225833"><ele>317.0</ele><time>2026-04-20T09:49:23.919Z</time></trkpt><trkpt lat="43.4276983" lon="11.42245"><ele>318.0</ele><time>2026-04-20T09:49:24.919Z</time></trkpt><trkpt lat="43.427755" lon="11.422285"><ele>315.3333333333333</ele><time>2026-04-20T09:49:25.919Z</time></trkpt><trkpt lat="43.4278017" lon="11.4220967"><ele>312.66666666666663</ele><time>2026-04-20T09:49:26.919Z</time></trkpt><trkpt lat="43.4278333" lon="11.4218917"><ele>310.0</ele><time>2026-04-20T09:49:27.919Z</time></trkpt><trkpt lat="43.4278617" lon="11.4216517"><ele>310.0</ele><time>2026-04-20T09:49:28.919Z</time></trkpt><trkpt lat="43.4278717" lon="11.4214117"><ele>310.0</ele><time>2026-04-20T09:49:29.919Z</time></trkpt><trkpt lat="43.4278767" lon="11.4211783"><ele>310.0</ele><time>2026-04-20T09:49:30.919Z</time></trkpt><trkpt lat="43.427855" lon="11.4209667"><ele>310.25</ele><time>2026-04-20T09:49:31.92Z</time></trkpt><trkpt lat="43.4278217" lon="11.4207667"><ele>310.5</ele><time>2026-04-20T09:49:32.92Z</time></trkpt><trkpt lat="43.427795" lon="11.4205867"><ele>310.75</ele><time>2026-04-20T09:49:33.92Z</time></trkpt><trkpt lat="43.42776" lon="11.4204267"><ele>311.0</ele><time>2026-04-20T09:49:34.92Z</time></trkpt><trkpt lat="43.427745" lon="11.420285"><ele>311.5</ele><time>2026-04-20T09:49:35.92Z</time></trkpt><trkpt lat="43.4277633" lon="11.4201433"><ele>312.0</ele><time>2026-04-20T09:49:36.92Z</time></trkpt><trkpt lat="43.4278167" lon="11.419995"><ele>312.5</ele><time>2026-04-20T09:49:37.919Z</time></trkpt><trkpt lat="43.4279" lon="11.4198417"><ele>313.0</ele><time>2026-04-20T09:49:38.92Z</time></trkpt><trkpt lat="43.4280017" lon="11.4196917"><ele>312.3333333333333</ele><time>2026-04-20T09:49:39.919Z</time></trkpt><trkpt lat="43.4281133" lon="11.419555"><ele>311.6666666666667</ele><time>2026-04-20T09:49:40.919Z</time></trkpt><trkpt lat="43.4282383" lon="11.4194217"><ele>311.0</ele><time>2026-04-20T09:49:41.92Z</time></trkpt><trkpt lat="43.4283667" lon="11.419315"><ele>311.0</ele><time>2026-04-20T09:49:42.919Z</time></trkpt><trkpt lat="43.4285" lon="11.419225"><ele>311.0</ele><time>2026-04-20T09:49:43.92Z</time></trkpt><trkpt lat="43.4286467" lon="11.4191633"><ele>311.0</ele><time>2026-04-20T09:49:44.919Z</time></trkpt><trkpt lat="43.4288117" lon="11.4191233"><ele>310.6666666666667</ele><time>2026-04-20T09:49:45.919Z</time></trkpt><trkpt lat="43.428965" lon="11.4191083"><ele>310.3333333333333</ele><time>2026-04-20T09:49:46.919Z</time></trkpt><trkpt lat="43.4291233" lon="11.4190617"><ele>310.0</ele><time>2026-04-20T09:49:47.919Z</time></trkpt><trkpt lat="43.4292733" lon="11.41901"><ele>310.0</ele><time>2026-04-20T09:49:48.92Z</time></trkpt><trkpt lat="43.4294217" lon="11.418935"><ele>310.0</ele><time>2026-04-20T09:49:49.919Z</time></trkpt><trkpt lat="43.429565" lon="11.4188317"><ele>310.0</ele><time>2026-04-20T09:49:50.919Z</time></trkpt><trkpt lat="43.4297067" lon="11.4187233"><ele>307.3333333333333</ele><time>2026-04-20T09:49:51.919Z</time></trkpt><trkpt lat="43.42985" lon="11.4186133"><ele>304.6666666666667</ele><time>2026-04-20T09:49:52.919Z</time></trkpt><trkpt lat="43.4299833" lon="11.418515"><ele>302.0</ele><time>2026-04-20T09:49:53.919Z</time></trkpt><trkpt lat="43.4301283" lon="11.4184167"><ele>302.0</ele><time>2026-04-20T09:49:54.919Z</time></trkpt><trkpt lat="43.430275" lon="11.4183017"><ele>302.0</ele><time>2026-04-20T09:49:55.919Z</time></trkpt><trkpt lat="43.4304133" lon="11.418195"><ele>302.0</ele><time>2026-04-20T09:49:56.919Z</time></trkpt><trkpt lat="43.4305417" lon="11.4181"><ele>302.25</ele><time>2026-04-20T09:49:57.919Z</time></trkpt><trkpt lat="43.4306567" lon="11.4180083"><ele>302.5</ele><time>2026-04-20T09:49:58.919Z</time></trkpt><trkpt lat="43.4307617" lon="11.417925"><ele>302.75</ele><time>2026-04-20T09:49:59.92Z</time></trkpt><trkpt lat="43.43087" lon="11.4178467"><ele>303.0</ele><time>2026-04-20T09:50:00.919Z</time></trkpt><trkpt lat="43.4309717" lon="11.417765"><ele>302.6</ele><time>2026-04-20T09:50:01.919Z</time></trkpt><trkpt lat="43.4310733" lon="11.4176983"><ele>302.20000000000005</ele><time>2026-04-20T09:50:02.92Z</time></trkpt><trkpt lat="43.4311667" lon="11.4176433"><ele>301.8</ele><time>2026-04-20T09:50:03.92Z</time></trkpt><trkpt lat="43.4312483" lon="11.4176367"><ele>301.40000000000003</ele><time>2026-04-20T09:50:04.919Z</time></trkpt><trkpt lat="43.4313267" lon="11.4176683"><ele>301.0</ele><time>2026-04-20T09:50:05.919Z</time></trkpt><trkpt lat="43.431405" lon="11.4177067"><ele>300.5</ele><time>2026-04-20T09:50:06.92Z</time></trkpt><trkpt lat="43.4314817" lon="11.4177783"><ele>300.0</ele><time>2026-04-20T09:50:07.919Z</time></trkpt><trkpt lat="43.431555" lon="11.4178933"><ele>299.5</ele><time>2026-04-20T09:50:08.919Z</time></trkpt><trkpt lat="43.431645" lon="11.4180183"><ele>299.0</ele><time>2026-04-20T09:50:09.919Z</time></trkpt><trkpt lat="43.43174" lon="11.418165"><ele>299.0</ele><time>2026-04-20T09:50:10.919Z</time></trkpt><trkpt lat="43.4318367" lon="11.4183033"><ele>299.0</ele><time>2026-04-20T09:50:11.919Z</time></trkpt><trkpt lat="43.431925" lon="11.418445"><ele>299.0</ele><time>2026-04-20T09:50:12.92Z</time></trkpt><trkpt lat="43.432015" lon="11.4185983"><ele>299.0</ele><time>2026-04-20T09:50:13.919Z</time></trkpt><trkpt lat="43.4321117" lon="11.4187517"><ele>300.6666666666667</ele><time>2026-04-20T09:50:14.919Z</time></trkpt><trkpt lat="43.432215" lon="11.4189017"><ele>302.3333333333333</ele><time>2026-04-20T09:50:15.919Z</time></trkpt><trkpt lat="43.43232" lon="11.4190517"><ele>304.0</ele><time>2026-04-20T09:50:16.919Z</time></trkpt><trkpt lat="43.4324267" lon="11.4192133"><ele>304.0</ele><time>2026-04-20T09:50:17.92Z</time></trkpt><trkpt lat="43.4325333" lon="11.4193817"><ele>304.0</ele><time>2026-04-20T09:50:18.919Z</time></trkpt><trkpt lat="43.43264" lon="11.419545"><ele>304.0</ele><time>2026-04-20T09:50:19.919Z</time></trkpt><trkpt lat="43.432735" lon="11.419725"><ele>303.0</ele><time>2026-04-20T09:50:20.919Z</time></trkpt><trkpt lat="43.4328283" lon="11.41991"><ele>302.0</ele><time>2026-04-20T09:50:21.919Z</time></trkpt><trkpt lat="43.432905" lon="11.4200983"><ele>301.0</ele><time>2026-04-20T09:50:22.919Z</time></trkpt><trkpt lat="43.4329717" lon="11.42028"><ele>301.5</ele><time>2026-04-20T09:50:23.92Z</time></trkpt><trkpt lat="43.4330367" lon="11.4204517"><ele>302.0</ele><time>2026-04-20T09:50:24.919Z</time></trkpt><trkpt lat="43.43311" lon="11.4206033"><ele>302.5</ele><time>2026-04-20T09:50:25.92Z</time></trkpt><trkpt lat="43.43319" lon="11.4207333"><ele>303.0</ele><time>2026-04-20T09:50:26.919Z</time></trkpt><trkpt lat="43.43327" lon="11.4208333"><ele>303.0</ele><time>2026-04-20T09:50:27.919Z</time></trkpt><trkpt lat="43.4333633" lon="11.420895"><ele>303.0</ele><time>2026-04-20T09:50:28.919Z</time></trkpt><trkpt lat="43.4334783" lon="11.4209117"><ele>303.0</ele><time>2026-04-20T09:50:29.92Z</time></trkpt><trkpt lat="43.433585" lon="11.4208717"><ele>303.0</ele><time>2026-04-20T09:50:30.919Z</time></trkpt><trkpt lat="43.4336817" lon="11.420785"><ele>303.0</ele><time>2026-04-20T09:50:31.919Z</time></trkpt><trkpt lat="43.4337817" lon="11.42066"><ele>303.0</ele><time>2026-04-20T09:50:32.92Z</time></trkpt><trkpt lat="43.43388" lon="11.4205117"><ele>303.0</ele><time>2026-04-20T09:50:33.919Z</time></trkpt><trkpt lat="43.4339917" lon="11.4203733"><ele>303.0</ele><time>2026-04-20T09:50:34.918Z</time></trkpt><trkpt lat="43.4341" lon="11.42023"><ele>303.0</ele><time>2026-04-20T09:50:35.919Z</time></trkpt><trkpt lat="43.4342033" lon="11.4200967"><ele>306.25</ele><time>2026-04-20T09:50:36.918Z</time></trkpt><trkpt lat="43.4343067" lon="11.4199667"><ele>309.5</ele><time>2026-04-20T09:50:37.918Z</time></trkpt><trkpt lat="43.4344167" lon="11.4198417"><ele>312.75</ele><time>2026-04-20T09:50:38.919Z</time></trkpt><trkpt lat="43.4345267" lon="11.41972"><ele>316.0</ele><time>2026-04-20T09:50:39.918Z</time></trkpt><trkpt lat="43.4346333" lon="11.419605"><ele>316.75</ele><time>2026-04-20T09:50:40.918Z</time></trkpt><trkpt lat="43.4347417" lon="11.4194933"><ele>317.5</ele><time>2026-04-20T09:50:41.918Z</time></trkpt><trkpt lat="43.4348483" lon="11.4193917"><ele>318.25</ele><time>2026-04-20T09:50:42.919Z</time></trkpt><trkpt lat="43.43495" lon="11.4193017"><ele>319.0</ele><time>2026-04-20T09:50:43.918Z</time></trkpt><trkpt lat="43.4350467" lon="11.4192217"><ele>319.0</ele><time>2026-04-20T09:50:44.918Z</time></trkpt><trkpt lat="43.4351483" lon="11.4191517"><ele>319.0</ele><time>2026-04-20T09:50:45.918Z</time></trkpt><trkpt lat="43.43526" lon="11.4190933"><ele>319.0</ele><time>2026-04-20T09:50:46.918Z</time></trkpt><trkpt lat="43.4353917" lon="11.4190667"><ele>319.0</ele><time>2026-04-20T09:50:47.918Z</time></trkpt><trkpt lat="43.435525" lon="11.4190733"><ele>318.0</ele><time>2026-04-20T09:50:48.918Z</time></trkpt><trkpt lat="43.435665" lon="11.419095"><ele>317.0</ele><time>2026-04-20T09:50:49.918Z</time></trkpt><trkpt lat="43.43582" lon="11.419125"><ele>316.0</ele><time>2026-04-20T09:50:50.918Z</time></trkpt><trkpt lat="43.435985" lon="11.4191583"><ele>316.0</ele><time>2026-04-20T09:50:51.919Z</time></trkpt><trkpt lat="43.4361467" lon="11.4191967"><ele>316.0</ele><time>2026-04-20T09:50:52.918Z</time></trkpt><trkpt lat="43.4363067" lon="11.4192367"><ele>316.0</ele><time>2026-04-20T09:50:53.918Z</time></trkpt><trkpt lat="43.4364717" lon="11.4192733"><ele>317.3333333333333</ele><time>2026-04-20T09:50:54.919Z</time></trkpt><trkpt lat="43.4366417" lon="11.4193083"><ele>318.6666666666667</ele><time>2026-04-20T09:50:55.918Z</time></trkpt><trkpt lat="43.436815" lon="11.4193383"><ele>320.0</ele><time>2026-04-20T09:50:56.918Z</time></trkpt><trkpt lat="43.4369883" lon="11.4193683"><ele>321.0</ele><time>2026-04-20T09:50:57.919Z</time></trkpt><trkpt lat="43.4371583" lon="11.4194017"><ele>322.0</ele><time>2026-04-20T09:50:58.918Z</time></trkpt><trkpt lat="43.4373267" lon="11.4194317"><ele>323.0</ele><time>2026-04-20T09:50:59.918Z</time></trkpt><trkpt lat="43.4374983" lon="11.4194633"><ele>323.0</ele><time>2026-04-20T09:51:00.918Z</time></trkpt><trkpt lat="43.437665" lon="11.4194967"><ele>323.0</ele><time>2026-04-20T09:51:01.918Z</time></trkpt><trkpt lat="43.4378317" lon="11.41953"><ele>323.0</ele><time>2026-04-20T09:51:02.918Z</time></trkpt><trkpt lat="43.4379967" lon="11.4195583"><ele>324.6666666666667</ele><time>2026-04-20T09:51:03.919Z</time></trkpt><trkpt lat="43.4381633" lon="11.41958"><ele>326.3333333333333</ele><time>2026-04-20T09:51:04.919Z</time></trkpt><trkpt lat="43.43833" lon="11.4195983"><ele>328.0</ele><time>2026-04-20T09:51:05.918Z</time></trkpt><trkpt lat="43.4384867" lon="11.4196117"><ele>328.0</ele><time>2026-04-20T09:51:06.918Z</time></trkpt><trkpt lat="43.4386333" lon="11.4196283"><ele>328.0</ele><time>2026-04-20T09:51:07.918Z</time></trkpt><trkpt lat="43.43878" lon="11.4196517"><ele>328.0</ele><time>2026-04-20T09:51:08.918Z</time></trkpt><trkpt lat="43.43893" lon="11.4196783"><ele>328.0</ele><time>2026-04-20T09:51:09.918Z</time></trkpt><trkpt lat="43.43908" lon="11.419725"><ele>324.66666666666663</ele><time>2026-04-20T09:51:10.918Z</time></trkpt><trkpt lat="43.43923" lon="11.4197967"><ele>321.3333333333333</ele><time>2026-04-20T09:51:11.919Z</time></trkpt><trkpt lat="43.4393767" lon="11.419885"><ele>318.0</ele><time>2026-04-20T09:51:12.918Z</time></trkpt><trkpt lat="43.43951" lon="11.42001"><ele>321.6666666666667</ele><time>2026-04-20T09:51:13.918Z</time></trkpt><trkpt lat="43.43966" lon="11.4201383"><ele>325.33333333333337</ele><time>2026-04-20T09:51:14.918Z</time></trkpt><trkpt lat="43.4398133" lon="11.42026"><ele>329.0</ele><time>2026-04-20T09:51:15.918Z</time></trkpt><trkpt lat="43.4399633" lon="11.420395"><ele>325.0</ele><time>2026-04-20T09:51:16.918Z</time></trkpt><trkpt lat="43.4401217" lon="11.4205267"><ele>321.0</ele><time>2026-04-20T09:51:17.919Z</time></trkpt><trkpt lat="43.4402817" lon="11.4206517"><ele>317.0</ele><time>2026-04-20T09:51:18.918Z</time></trkpt><trkpt lat="43.44043" lon="11.4207717"><ele>321.33333333333337</ele><time>2026-04-20T09:51:19.918Z</time></trkpt><trkpt lat="43.4405667" lon="11.4208933"><ele>325.6666666666667</ele><time>2026-04-20T09:51:20.918Z</time></trkpt><trkpt lat="43.4407067" lon="11.4210133"><ele>330.0</ele><time>2026-04-20T09:51:21.918Z</time></trkpt><trkpt lat="43.440845" lon="11.421135"><ele>330.0</ele><time>2026-04-20T09:51:22.918Z</time></trkpt><trkpt lat="43.440985" lon="11.4212383"><ele>330.0</ele><time>2026-04-20T09:51:23.918Z</time></trkpt><trkpt lat="43.44114" lon="11.42132"><ele>330.0</ele><time>2026-04-20T09:51:24.918Z</time></trkpt><trkpt lat="43.4413067" lon="11.4213833"><ele>327.6666666666667</ele><time>2026-04-20T09:51:25.918Z</time></trkpt><trkpt lat="43.4414683" lon="11.4214367"><ele>325.33333333333337</ele><time>2026-04-20T09:51:26.919Z</time></trkpt><trkpt lat="43.4416417" lon="11.4214567"><ele>323.0</ele><time>2026-04-20T09:51:27.918Z</time></trkpt><trkpt lat="43.4418067" lon="11.42148"><ele>323.0</ele><time>2026-04-20T09:51:28.918Z</time></trkpt><trkpt lat="43.4419683" lon="11.421505"><ele>323.0</ele><time>2026-04-20T09:51:29.918Z</time></trkpt><trkpt lat="43.442135" lon="11.4215167"><ele>323.0</ele><time>2026-04-20T09:51:30.919Z</time></trkpt><trkpt lat="43.442295" lon="11.4215417"><ele>324.6666666666667</ele><time>2026-04-20T09:51:31.918Z</time></trkpt><trkpt lat="43.4424583" lon="11.4215533"><ele>326.3333333333333</ele><time>2026-04-20T09:51:32.919Z</time></trkpt><trkpt lat="43.44262" lon="11.421565"><ele>328.0</ele><time>2026-04-20T09:51:33.919Z</time></trkpt><trkpt lat="43.4427817" lon="11.4215833"><ele>328.0</ele><time>2026-04-20T09:51:34.919Z</time></trkpt><trkpt lat="43.44294" lon="11.4215883"><ele>328.0</ele><time>2026-04-20T09:51:35.918Z</time></trkpt><trkpt lat="43.443095" lon="11.4215767"><ele>328.0</ele><time>2026-04-20T09:51:36.919Z</time></trkpt><trkpt lat="43.4432583" lon="11.421535"><ele>328.0</ele><time>2026-04-20T09:51:37.918Z</time></trkpt><trkpt lat="43.44341" lon="11.42146"><ele>328.0</ele><time>2026-04-20T09:51:38.918Z</time></trkpt><trkpt lat="43.4435617" lon="11.4213667"><ele>328.0</ele><time>2026-04-20T09:51:39.918Z</time></trkpt><trkpt lat="43.4437167" lon="11.4212467"><ele>331.0</ele><time>2026-04-20T09:51:40.918Z</time></trkpt><trkpt lat="43.4438717" lon="11.4211367"><ele>334.0</ele><time>2026-04-20T09:51:41.918Z</time></trkpt><trkpt lat="43.4440183" lon="11.421025"><ele>337.0</ele><time>2026-04-20T09:51:42.918Z</time></trkpt><trkpt lat="43.44415" lon="11.42091"><ele>337.0</ele><time>2026-04-20T09:51:43.918Z</time></trkpt><trkpt lat="43.4442817" lon="11.420785"><ele>337.0</ele><time>2026-04-20T09:51:44.918Z</time></trkpt><trkpt lat="43.4443967" lon="11.4206317"><ele>337.0</ele><time>2026-04-20T09:51:45.918Z</time></trkpt><trkpt lat="43.4445033" lon="11.4204733"><ele>337.5</ele><time>2026-04-20T09:51:46.918Z</time></trkpt><trkpt lat="43.4446017" lon="11.42034"><ele>338.0</ele><time>2026-04-20T09:51:47.918Z</time></trkpt><trkpt lat="43.4447167" lon="11.4202167"><ele>338.5</ele><time>2026-04-20T09:51:48.918Z</time></trkpt><trkpt lat="43.444845" lon="11.4201183"><ele>339.0</ele><time>2026-04-20T09:51:49.918Z</time></trkpt><trkpt lat="43.44498" lon="11.420035"><ele>339.0</ele><time>2026-04-20T09:51:50.918Z</time></trkpt><trkpt lat="43.4451217" lon="11.4199617"><ele>339.0</ele><time>2026-04-20T09:51:51.918Z</time></trkpt><trkpt lat="43.4452517" lon="11.419885"><ele>339.0</ele><time>2026-04-20T09:51:52.918Z</time></trkpt><trkpt lat="43.4453733" lon="11.4198117"><ele>339.0</ele><time>2026-04-20T09:51:53.918Z</time></trkpt><trkpt lat="43.445485" lon="11.419735"><ele>337.75</ele><time>2026-04-20T09:51:54.918Z</time></trkpt><trkpt lat="43.4455767" lon="11.419645"><ele>336.5</ele><time>2026-04-20T09:51:55.918Z</time></trkpt><trkpt lat="43.4456383" lon="11.4195217"><ele>335.25</ele><time>2026-04-20T09:51:56.918Z</time></trkpt><trkpt lat="43.4456733" lon="11.419355"><ele>334.0</ele><time>2026-04-20T09:51:57.918Z</time></trkpt><trkpt lat="43.4456783" lon="11.4191683"><ele>334.0</ele><time>2026-04-20T09:51:58.918Z</time></trkpt><trkpt lat="43.4456767" lon="11.4189717"><ele>334.0</ele><time>2026-04-20T09:51:59.918Z</time></trkpt><trkpt lat="43.4456717" lon="11.418785"><ele>334.0</ele><time>2026-04-20T09:52:00.918Z</time></trkpt><trkpt lat="43.44568" lon="11.4186133"><ele>334.0</ele><time>2026-04-20T09:52:01.918Z</time></trkpt><trkpt lat="43.44571" lon="11.4184417"><ele>336.0</ele><time>2026-04-20T09:52:02.918Z</time></trkpt><trkpt lat="43.445745" lon="11.4182683"><ele>338.0</ele><time>2026-04-20T09:52:03.918Z</time></trkpt><trkpt lat="43.4457867" lon="11.4181033"><ele>340.0</ele><time>2026-04-20T09:52:04.918Z</time></trkpt><trkpt lat="43.4458367" lon="11.4179433"><ele>342.0</ele><time>2026-04-20T09:52:05.918Z</time></trkpt><trkpt lat="43.4458967" lon="11.4177967"><ele>344.5</ele><time>2026-04-20T09:52:06.918Z</time></trkpt><trkpt lat="43.4459617" lon="11.41765"><ele>347.0</ele><time>2026-04-20T09:52:07.918Z</time></trkpt><trkpt lat="43.4460417" lon="11.417545"><ele>349.5</ele><time>2026-04-20T09:52:08.918Z</time></trkpt><trkpt lat="43.4461433" lon="11.41748"><ele>352.0</ele><time>2026-04-20T09:52:09.918Z</time></trkpt><trkpt lat="43.4462667" lon="11.4174567"><ele>349.0</ele><time>2026-04-20T09:52:10.918Z</time></trkpt><trkpt lat="43.4464" lon="11.4174717"><ele>346.0</ele><time>2026-04-20T09:52:11.918Z</time></trkpt><trkpt lat="43.4465467" lon="11.4175183"><ele>343.0</ele><time>2026-04-20T09:52:12.918Z</time></trkpt><trkpt lat="43.446705" lon="11.4175683"><ele>340.0</ele><time>2026-04-20T09:52:13.918Z</time></trkpt><trkpt lat="43.4468717" lon="11.417615"><ele>340.0</ele><time>2026-04-20T09:52:14.918Z</time></trkpt><trkpt lat="43.44703" lon="11.41766"><ele>340.0</ele><time>2026-04-20T09:52:15.918Z</time></trkpt><trkpt lat="43.447185" lon="11.4177"><ele>340.0</ele><time>2026-04-20T09:52:16.918Z</time></trkpt><trkpt lat="43.447325" lon="11.417735"><ele>339.5</ele><time>2026-04-20T09:52:17.918Z</time></trkpt><trkpt lat="43.4474717" lon="11.417775"><ele>339.0</ele><time>2026-04-20T09:52:18.919Z</time></trkpt><trkpt lat="43.4476083" lon="11.4178317"><ele>338.5</ele><time>2026-04-20T09:52:19.919Z</time></trkpt><trkpt lat="43.4477417" lon="11.4179233"><ele>338.0</ele><time>2026-04-20T09:52:20.918Z</time></trkpt><trkpt lat="43.44787" lon="11.4180383"><ele>336.25</ele><time>2026-04-20T09:52:21.919Z</time></trkpt><trkpt lat="43.44799" lon="11.4181583"><ele>334.5</ele><time>2026-04-20T09:52:22.919Z</time></trkpt><trkpt lat="43.448115" lon="11.4182833"><ele>332.75</ele><time>2026-04-20T09:52:23.918Z</time></trkpt><trkpt lat="43.4482367" lon="11.4183933"><ele>331.0</ele><time>2026-04-20T09:52:24.918Z</time></trkpt><trkpt lat="43.4483617" lon="11.418475"><ele>331.0</ele><time>2026-04-20T09:52:25.919Z</time></trkpt><trkpt lat="43.448495" lon="11.4185217"><ele>331.0</ele><time>2026-04-20T09:52:26.918Z</time></trkpt><trkpt lat="43.44864" lon="11.4185417"><ele>331.0</ele><time>2026-04-20T09:52:27.918Z</time></trkpt><trkpt lat="43.4487783" lon="11.4185567"><ele>331.0</ele><time>2026-04-20T09:52:28.918Z</time></trkpt><trkpt lat="43.44893" lon="11.4185717"><ele>331.0</ele><time>2026-04-20T09:52:29.918Z</time></trkpt><trkpt lat="43.4490817" lon="11.4185867"><ele>331.0</ele><time>2026-04-20T09:52:30.918Z</time></trkpt><trkpt lat="43.4492233" lon="11.4186067"><ele>331.0</ele><time>2026-04-20T09:52:31.918Z</time></trkpt><trkpt lat="43.44936" lon="11.4186417"><ele>331.0</ele><time>2026-04-20T09:52:32.918Z</time></trkpt><trkpt lat="43.4494833" lon="11.41869"><ele>331.0</ele><time>2026-04-20T09:52:33.918Z</time></trkpt><trkpt lat="43.4496133" lon="11.4187433"><ele>331.0</ele><time>2026-04-20T09:52:34.918Z</time></trkpt><trkpt lat="43.44974" lon="11.4187983"><ele>331.0</ele><time>2026-04-20T09:52:35.918Z</time></trkpt><trkpt lat="43.4498533" lon="11.41885"><ele>331.0</ele><time>2026-04-20T09:52:36.918Z</time></trkpt><trkpt lat="43.4499583" lon="11.4188983"><ele>329.25</ele><time>2026-04-20T09:52:37.918Z</time></trkpt><trkpt lat="43.4500667" lon="11.41894"><ele>327.5</ele><time>2026-04-20T09:52:38.918Z</time></trkpt><trkpt lat="43.4501767" lon="11.4189733"><ele>325.75</ele><time>2026-04-20T09:52:39.918Z</time></trkpt><trkpt lat="43.45029" lon="11.4189983"><ele>324.0</ele><time>2026-04-20T09:52:40.918Z</time></trkpt><trkpt lat="43.4504033" lon="11.4190217"><ele>324.5</ele><time>2026-04-20T09:52:41.918Z</time></trkpt><trkpt lat="43.4505217" lon="11.4190433"><ele>325.0</ele><time>2026-04-20T09:52:42.918Z</time></trkpt><trkpt lat="43.45065" lon="11.4190717"><ele>325.5</ele><time>2026-04-20T09:52:43.918Z</time></trkpt><trkpt lat="43.4507867" lon="11.4191083"><ele>326.0</ele><time>2026-04-20T09:52:44.918Z</time></trkpt><trkpt lat="43.4509167" lon="11.4191467"><ele>326.0</ele><time>2026-04-20T09:52:45.919Z</time></trkpt><trkpt lat="43.451045" lon="11.4192017"><ele>326.0</ele><time>2026-04-20T09:52:46.918Z</time></trkpt><trkpt lat="43.4511633" lon="11.41928"><ele>326.0</ele><time>2026-04-20T09:52:47.918Z</time></trkpt><trkpt lat="43.4512717" lon="11.419365"><ele>326.0</ele><time>2026-04-20T09:52:48.918Z</time></trkpt><trkpt lat="43.4513683" lon="11.4194683"><ele>327.25</ele><time>2026-04-20T09:52:49.918Z</time></trkpt><trkpt lat="43.45147" lon="11.41958"><ele>328.5</ele><time>2026-04-20T09:52:50.918Z</time></trkpt><trkpt lat="43.4515683" lon="11.419705"><ele>329.75</ele><time>2026-04-20T09:52:51.918Z</time></trkpt><trkpt lat="43.4516717" lon="11.4198433"><ele>331.0</ele><time>2026-04-20T09:52:52.918Z</time></trkpt><trkpt lat="43.4517717" lon="11.4199933"><ele>331.0</ele><time>2026-04-20T09:52:53.918Z</time></trkpt><trkpt lat="43.451875" lon="11.4201417"><ele>331.0</ele><time>2026-04-20T09:52:54.918Z</time></trkpt><trkpt lat="43.4519817" lon="11.4202967"><ele>331.0</ele><time>2026-04-20T09:52:55.918Z</time></trkpt><trkpt lat="43.45208" lon="11.4204633"><ele>332.0</ele><time>2026-04-20T09:52:56.919Z</time></trkpt><trkpt lat="43.452175" lon="11.4206117"><ele>333.0</ele><time>2026-04-20T09:52:57.918Z</time></trkpt><trkpt lat="43.4522733" lon="11.4207667"><ele>334.0</ele><time>2026-04-20T09:52:58.919Z</time></trkpt><trkpt lat="43.4523683" lon="11.4209017"><ele>335.0</ele><time>2026-04-20T09:52:59.918Z</time></trkpt><trkpt lat="43.45246" lon="11.4210317"><ele>335.0</ele><time>2026-04-20T09:53:00.918Z</time></trkpt><trkpt lat="43.4525567" lon="11.421155"><ele>335.0</ele><time>2026-04-20T09:53:01.918Z</time></trkpt><trkpt lat="43.4526667" lon="11.4212683"><ele>335.0</ele><time>2026-04-20T09:53:02.918Z</time></trkpt><trkpt lat="43.452775" lon="11.4213583"><ele>335.0</ele><time>2026-04-20T09:53:03.918Z</time></trkpt><trkpt lat="43.4528817" lon="11.4214333"><ele>334.25</ele><time>2026-04-20T09:53:04.918Z</time></trkpt><trkpt lat="43.45298" lon="11.421515"><ele>333.5</ele><time>2026-04-20T09:53:05.918Z</time></trkpt><trkpt lat="43.4530733" lon="11.421615"><ele>332.75</ele><time>2026-04-20T09:53:06.918Z</time></trkpt><trkpt lat="43.45317" lon="11.42173"><ele>332.0</ele><time>2026-04-20T09:53:07.919Z</time></trkpt><trkpt lat="43.4532733" lon="11.42187"><ele>332.0</ele><time>2026-04-20T09:53:08.919Z</time></trkpt><trkpt lat="43.45339" lon="11.4220367"><ele>332.0</ele><time>2026-04-20T09:53:09.919Z</time></trkpt><trkpt lat="43.4535133" lon="11.4222333"><ele>332.0</ele><time>2026-04-20T09:53:10.918Z</time></trkpt><trkpt lat="43.4536317" lon="11.4224217"><ele>332.75</ele><time>2026-04-20T09:53:11.918Z</time></trkpt><trkpt lat="43.4537383" lon="11.422595"><ele>333.5</ele><time>2026-04-20T09:53:12.918Z</time></trkpt><trkpt lat="43.4538283" lon="11.42273"><ele>334.25</ele><time>2026-04-20T09:53:13.918Z</time></trkpt><trkpt lat="43.4539083" lon="11.4228583"><ele>335.0</ele><time>2026-04-20T09:53:14.918Z</time></trkpt><trkpt lat="43.4539917" lon="11.4229767"><ele>334.2</ele><time>2026-04-20T09:53:15.919Z</time></trkpt><trkpt lat="43.4540567" lon="11.4230883"><ele>333.4</ele><time>2026-04-20T09:53:16.918Z</time></trkpt><trkpt lat="43.4541267" lon="11.4231983"><ele>332.6</ele><time>2026-04-20T09:53:17.918Z</time></trkpt><trkpt lat="43.4541967" lon="11.4233017"><ele>331.8</ele><time>2026-04-20T09:53:18.918Z</time></trkpt><trkpt lat="43.4542583" lon="11.4233817"><ele>331.0</ele><time>2026-04-20T09:53:19.919Z</time></trkpt><trkpt lat="43.4543067" lon="11.4234717"><ele>331.0</ele><time>2026-04-20T09:53:20.919Z</time></trkpt><trkpt lat="43.4543717" lon="11.4235483"><ele>331.0</ele><time>2026-04-20T09:53:21.919Z</time></trkpt><trkpt lat="43.4544417" lon="11.4236117"><ele>331.0</ele><time>2026-04-20T09:53:22.918Z</time></trkpt><trkpt lat="43.4545167" lon="11.4236833"><ele>331.0</ele><time>2026-04-20T09:53:23.919Z</time></trkpt><trkpt lat="43.4546" lon="11.423765"><ele>331.0</ele><time>2026-04-20T09:53:24.918Z</time></trkpt><trkpt lat="43.4547" lon="11.4238767"><ele>331.5</ele><time>2026-04-20T09:53:25.919Z</time></trkpt><trkpt lat="43.45481" lon="11.4240033"><ele>332.0</ele><time>2026-04-20T09:53:26.918Z</time></trkpt><trkpt lat="43.4549183" lon="11.4241367"><ele>332.5</ele><time>2026-04-20T09:53:27.919Z</time></trkpt><trkpt lat="43.45503" lon="11.4242633"><ele>333.0</ele><time>2026-04-20T09:53:28.918Z</time></trkpt><trkpt lat="43.45515" lon="11.424395"><ele>333.0</ele><time>2026-04-20T09:53:29.918Z</time></trkpt><trkpt lat="43.4552833" lon="11.4245317"><ele>333.0</ele><time>2026-04-20T09:53:30.918Z</time></trkpt><trkpt lat="43.4554217" lon="11.424675"><ele>333.0</ele><time>2026-04-20T09:53:31.918Z</time></trkpt><trkpt lat="43.4555517" lon="11.424805"><ele>334.3333333333333</ele><time>2026-04-20T09:53:32.918Z</time></trkpt><trkpt lat="43.455675" lon="11.4249367"><ele>335.66666666666663</ele><time>2026-04-20T09:53:33.918Z</time></trkpt><trkpt lat="43.4558017" lon="11.4250717"><ele>337.0</ele><time>2026-04-20T09:53:34.918Z</time></trkpt><trkpt lat="43.4559283" lon="11.425205"><ele>337.0</ele><time>2026-04-20T09:53:35.918Z</time></trkpt><trkpt lat="43.4560517" lon="11.4253233"><ele>337.0</ele><time>2026-04-20T09:53:36.919Z</time></trkpt><trkpt lat="43.4561783" lon="11.42542"><ele>337.0</ele><time>2026-04-20T09:53:37.918Z</time></trkpt><trkpt lat="43.4563133" lon="11.42549"><ele>337.0</ele><time>2026-04-20T09:53:38.918Z</time></trkpt><trkpt lat="43.4564567" lon="11.4255167"><ele>338.66666666666663</ele><time>2026-04-20T09:53:39.918Z</time></trkpt><trkpt lat="43.4566083" lon="11.42553"><ele>340.3333333333333</ele><time>2026-04-20T09:53:40.918Z</time></trkpt><trkpt lat="43.45677" lon="11.425555"><ele>342.0</ele><time>2026-04-20T09:53:41.919Z</time></trkpt><trkpt lat="43.4569283" lon="11.42559"><ele>342.0</ele><time>2026-04-20T09:53:42.919Z</time></trkpt><trkpt lat="43.4570883" lon="11.4256367"><ele>342.0</ele><time>2026-04-20T09:53:43.918Z</time></trkpt><trkpt lat="43.45726" lon="11.425705"><ele>342.0</ele><time>2026-04-20T09:53:44.918Z</time></trkpt><trkpt lat="43.4574283" lon="11.425785"><ele>340.0</ele><time>2026-04-20T09:53:45.918Z</time></trkpt><trkpt lat="43.457595" lon="11.4258583"><ele>338.0</ele><time>2026-04-20T09:53:46.918Z</time></trkpt><trkpt lat="43.4577667" lon="11.4259333"><ele>336.0</ele><time>2026-04-20T09:53:47.918Z</time></trkpt><trkpt lat="43.4579567" lon="11.42601"><ele>336.0</ele><time>2026-04-20T09:53:48.918Z</time></trkpt><trkpt lat="43.4581483" lon="11.4260983"><ele>336.0</ele><time>2026-04-20T09:53:49.919Z</time></trkpt><trkpt lat="43.4583333" lon="11.42618"><ele>336.0</ele><time>2026-04-20T09:53:50.918Z</time></trkpt><trkpt lat="43.458525" lon="11.4262533"><ele>336.3333333333333</ele><time>2026-04-20T09:53:51.918Z</time></trkpt><trkpt lat="43.45871" lon="11.4263383"><ele>336.66666666666663</ele><time>2026-04-20T09:53:52.919Z</time></trkpt><trkpt lat="43.4589" lon="11.42643"><ele>337.0</ele><time>2026-04-20T09:53:53.918Z</time></trkpt><trkpt lat="43.4590883" lon="11.4265117"><ele>337.66666666666663</ele><time>2026-04-20T09:53:54.919Z</time></trkpt><trkpt lat="43.45928" lon="11.4266017"><ele>338.3333333333333</ele><time>2026-04-20T09:53:55.918Z</time></trkpt><trkpt lat="43.459475" lon="11.4266883"><ele>339.0</ele><time>2026-04-20T09:53:56.919Z</time></trkpt><trkpt lat="43.459665" lon="11.4267667"><ele>340.3333333333333</ele><time>2026-04-20T09:53:57.918Z</time></trkpt><trkpt lat="43.4598417" lon="11.4268467"><ele>341.66666666666663</ele><time>2026-04-20T09:53:58.918Z</time></trkpt><trkpt lat="43.46001" lon="11.42692"><ele>343.0</ele><time>2026-04-20T09:53:59.918Z</time></trkpt><trkpt lat="43.460175" lon="11.426995"><ele>343.0</ele><time>2026-04-20T09:54:00.918Z</time></trkpt><trkpt lat="43.4603317" lon="11.4270683"><ele>343.0</ele><time>2026-04-20T09:54:01.918Z</time></trkpt><trkpt lat="43.46048" lon="11.42716"><ele>343.0</ele><time>2026-04-20T09:54:02.918Z</time></trkpt><trkpt lat="43.4606333" lon="11.427285"><ele>342.0</ele><time>2026-04-20T09:54:03.918Z</time></trkpt><trkpt lat="43.46079" lon="11.427405"><ele>341.0</ele><time>2026-04-20T09:54:04.919Z</time></trkpt><trkpt lat="43.4609417" lon="11.4275467"><ele>340.0</ele><time>2026-04-20T09:54:05.918Z</time></trkpt><trkpt lat="43.461095" lon="11.4276983"><ele>340.0</ele><time>2026-04-20T09:54:06.919Z</time></trkpt><trkpt lat="43.4612417" lon="11.4278533"><ele>340.0</ele><time>2026-04-20T09:54:07.918Z</time></trkpt><trkpt lat="43.4613867" lon="11.4280117"><ele>340.0</ele><time>2026-04-20T09:54:08.918Z</time></trkpt><trkpt lat="43.461535" lon="11.42818"><ele>340.66666666666663</ele><time>2026-04-20T09:54:09.918Z</time></trkpt><trkpt lat="43.4616867" lon="11.428345"><ele>341.3333333333333</ele><time>2026-04-20T09:54:10.919Z</time></trkpt><trkpt lat="43.4618383" lon="11.4285117"><ele>342.0</ele><time>2026-04-20T09:54:11.918Z</time></trkpt><trkpt lat="43.4619867" lon="11.4286867"><ele>343.3333333333333</ele><time>2026-04-20T09:54:12.918Z</time></trkpt><trkpt lat="43.46213" lon="11.4288667"><ele>344.66666666666663</ele><time>2026-04-20T09:54:13.918Z</time></trkpt><trkpt lat="43.4622683" lon="11.4290267"><ele>346.0</ele><time>2026-04-20T09:54:14.918Z</time></trkpt><trkpt lat="43.462395" lon="11.4291883"><ele>346.0</ele><time>2026-04-20T09:54:15.918Z</time></trkpt><trkpt lat="43.4625117" lon="11.4293383"><ele>346.0</ele><time>2026-04-20T09:54:16.919Z</time></trkpt><trkpt lat="43.4626217" lon="11.42948"><ele>346.0</ele><time>2026-04-20T09:54:17.918Z</time></trkpt><trkpt lat="43.462725" lon="11.4296067"><ele>346.0</ele><time>2026-04-20T09:54:18.918Z</time></trkpt><trkpt lat="43.4628233" lon="11.42974"><ele>346.0</ele><time>2026-04-20T09:54:19.918Z</time></trkpt><trkpt lat="43.462915" lon="11.429885"><ele>346.0</ele><time>2026-04-20T09:54:20.918Z</time></trkpt><trkpt lat="43.4630067" lon="11.4300467"><ele>346.0</ele><time>2026-04-20T09:54:21.918Z</time></trkpt><trkpt lat="43.4630983" lon="11.4302133"><ele>346.0</ele><time>2026-04-20T09:54:22.919Z</time></trkpt><trkpt lat="43.46319" lon="11.4303917"><ele>346.3333333333333</ele><time>2026-04-20T09:54:23.918Z</time></trkpt><trkpt lat="43.4632967" lon="11.4305617"><ele>346.6666666666667</ele><time>2026-04-20T09:54:24.918Z</time></trkpt><trkpt lat="43.4634" lon="11.4307333"><ele>347.0</ele><time>2026-04-20T09:54:25.918Z</time></trkpt><trkpt lat="43.4635083" lon="11.4308983"><ele>347.0</ele><time>2026-04-20T09:54:26.918Z</time></trkpt><trkpt lat="43.4636083" lon="11.4310717"><ele>347.0</ele><time>2026-04-20T09:54:27.918Z</time></trkpt><trkpt lat="43.4636967" lon="11.431255"><ele>347.0</ele><time>2026-04-20T09:54:28.918Z</time></trkpt><trkpt lat="43.4637767" lon="11.4314433"><ele>349.6666666666667</ele><time>2026-04-20T09:54:29.918Z</time></trkpt><trkpt lat="43.4638467" lon="11.431635"><ele>352.3333333333333</ele><time>2026-04-20T09:54:30.918Z</time></trkpt><trkpt lat="43.4639183" lon="11.4318233"><ele>355.0</ele><time>2026-04-20T09:54:31.918Z</time></trkpt><trkpt lat="43.46398" lon="11.4320017"><ele>353.5</ele><time>2026-04-20T09:54:32.918Z</time></trkpt><trkpt lat="43.4640433" lon="11.4321667"><ele>352.0</ele><time>2026-04-20T09:54:33.919Z</time></trkpt><trkpt lat="43.4641083" lon="11.43232"><ele>350.5</ele><time>2026-04-20T09:54:34.919Z</time></trkpt><trkpt lat="43.4641583" lon="11.432465"><ele>349.0</ele><time>2026-04-20T09:54:35.917Z</time></trkpt><trkpt lat="43.4642117" lon="11.4325933"><ele>349.0</ele><time>2026-04-20T09:54:36.917Z</time></trkpt><trkpt lat="43.464275" lon="11.43271"><ele>349.0</ele><time>2026-04-20T09:54:37.917Z</time></trkpt><trkpt lat="43.4643467" lon="11.43282"><ele>349.0</ele><time>2026-04-20T09:54:38.918Z</time></trkpt><trkpt lat="43.4644367" lon="11.4329133"><ele>349.0</ele><time>2026-04-20T09:54:39.918Z</time></trkpt><trkpt lat="43.4645367" lon="11.4329983"><ele>349.0</ele><time>2026-04-20T09:54:40.917Z</time></trkpt><trkpt lat="43.4646317" lon="11.43307"><ele>348.8333333333333</ele><time>2026-04-20T09:54:41.917Z</time></trkpt><trkpt lat="43.4647233" lon="11.4331283"><ele>348.66666666666663</ele><time>2026-04-20T09:54:42.917Z</time></trkpt><trkpt lat="43.46481" lon="11.4331733"><ele>348.5</ele><time>2026-04-20T09:54:43.917Z</time></trkpt><trkpt lat="43.4648933" lon="11.4332217"><ele>348.3333333333333</ele><time>2026-04-20T09:54:44.917Z</time></trkpt><trkpt lat="43.4649683" lon="11.4332567"><ele>348.1666666666667</ele><time>2026-04-20T09:54:45.917Z</time></trkpt><trkpt lat="43.4650317" lon="11.4332767"><ele>348.0</ele><time>2026-04-20T09:54:46.917Z</time></trkpt><trkpt lat="43.465145" lon="11.4332283"><ele>348.0</ele><time>2026-04-20T09:54:48.917Z</time></trkpt><trkpt lat="43.4652167" lon="11.4331517"><ele>348.0</ele><time>2026-04-20T09:54:50.917Z</time></trkpt><trkpt lat="43.4653233" lon="11.4331683"><ele>348.0</ele><time>2026-04-20T09:54:52.918Z</time></trkpt><trkpt lat="43.4653867" lon="11.4332167"><ele>348.0</ele><time>2026-04-20T09:54:53.918Z</time></trkpt><trkpt lat="43.46545" lon="11.4332683"><ele>348.0</ele><time>2026-04-20T09:54:54.917Z</time></trkpt><trkpt lat="43.4655333" lon="11.433315"><ele>348.0</ele><time>2026-04-20T09:54:55.918Z</time></trkpt><trkpt lat="43.4656217" lon="11.4333483"><ele>348.0</ele><time>2026-04-20T09:54:56.917Z</time></trkpt><trkpt lat="43.4657117" lon="11.4333633"><ele>348.0</ele><time>2026-04-20T09:54:57.918Z</time></trkpt><trkpt lat="43.4658033" lon="11.4333783"><ele>348.0</ele><time>2026-04-20T09:54:58.917Z</time></trkpt><trkpt lat="43.465895" lon="11.4333917"><ele>348.0</ele><time>2026-04-20T09:54:59.917Z</time></trkpt><trkpt lat="43.4659767" lon="11.4334133"><ele>348.0</ele><time>2026-04-20T09:55:00.917Z</time></trkpt><trkpt lat="43.4660517" lon="11.433425"><ele>348.0</ele><time>2026-04-20T09:55:01.918Z</time></trkpt><trkpt lat="43.4661217" lon="11.4334267"><ele>348.0</ele><time>2026-04-20T09:55:02.917Z</time></trkpt><trkpt lat="43.4661917" lon="11.433415"><ele>348.0</ele><time>2026-04-20T09:55:03.918Z</time></trkpt><trkpt lat="43.46627" lon="11.4334"><ele>348.0</ele><time>2026-04-20T09:55:04.917Z</time></trkpt><trkpt lat="43.46635" lon="11.4333733"><ele>348.0</ele><time>2026-04-20T09:55:05.917Z</time></trkpt><trkpt lat="43.466435" lon="11.4333283"><ele>348.0</ele><time>2026-04-20T09:55:06.917Z</time></trkpt><trkpt lat="43.466515" lon="11.433275"><ele>348.0</ele><time>2026-04-20T09:55:07.917Z</time></trkpt><trkpt lat="43.46659" lon="11.4332267"><ele>348.79999999999995</ele><time>2026-04-20T09:55:08.917Z</time></trkpt><trkpt lat="43.4666833" lon="11.4331817"><ele>349.6</ele><time>2026-04-20T09:55:09.917Z</time></trkpt><trkpt lat="43.46677" lon="11.43312"><ele>350.4</ele><time>2026-04-20T09:55:10.917Z</time></trkpt><trkpt lat="43.4668533" lon="11.43306"><ele>351.20000000000005</ele><time>2026-04-20T09:55:11.918Z</time></trkpt><trkpt lat="43.466935" lon="11.43301"><ele>352.0</ele><time>2026-04-20T09:55:12.917Z</time></trkpt><trkpt lat="43.4670167" lon="11.4329583"><ele>353.3333333333333</ele><time>2026-04-20T09:55:13.917Z</time></trkpt><trkpt lat="43.46709" lon="11.43291"><ele>354.66666666666663</ele><time>2026-04-20T09:55:14.917Z</time></trkpt><trkpt lat="43.4671633" lon="11.4328617"><ele>356.0</ele><time>2026-04-20T09:55:15.918Z</time></trkpt><trkpt lat="43.46724" lon="11.432815"><ele>357.3333333333333</ele><time>2026-04-20T09:55:16.917Z</time></trkpt><trkpt lat="43.4673233" lon="11.4327683"><ele>358.6666666666667</ele><time>2026-04-20T09:55:17.917Z</time></trkpt><trkpt lat="43.46741" lon="11.432715"><ele>360.0</ele><time>2026-04-20T09:55:18.917Z</time></trkpt><trkpt lat="43.4674967" lon="11.4326617"><ele>360.3333333333333</ele><time>2026-04-20T09:55:19.917Z</time></trkpt><trkpt lat="43.4675817" lon="11.4326017"><ele>360.6666666666667</ele><time>2026-04-20T09:55:20.917Z</time></trkpt><trkpt lat="43.467665" lon="11.43254"><ele>361.0</ele><time>2026-04-20T09:55:21.917Z</time></trkpt><trkpt lat="43.4677483" lon="11.4324917"><ele>361.33333333333337</ele><time>2026-04-20T09:55:22.918Z</time></trkpt><trkpt lat="43.4678283" lon="11.432445"><ele>361.6666666666667</ele><time>2026-04-20T09:55:23.917Z</time></trkpt><trkpt lat="43.4678983" lon="11.432405"><ele>362.0</ele><time>2026-04-20T09:55:24.917Z</time></trkpt><trkpt lat="43.4679583" lon="11.432375"><ele>362.33333333333337</ele><time>2026-04-20T09:55:25.918Z</time></trkpt><trkpt lat="43.4680317" lon="11.4323483"><ele>362.6666666666667</ele><time>2026-04-20T09:55:27.917Z</time></trkpt><trkpt lat="43.4681" lon="11.43231"><ele>363.0</ele><time>2026-04-20T09:55:30.917Z</time></trkpt><trkpt lat="43.4681667" lon="11.4322767"><ele>363.3333333333333</ele><time>2026-04-20T09:55:33.918Z</time></trkpt><trkpt lat="43.4681783" lon="11.4321883"><ele>363.66666666666663</ele><time>2026-04-20T09:55:35.917Z</time></trkpt><trkpt lat="43.4680933" lon="11.4320667"><ele>364.0</ele><time>2026-04-20T09:55:37.917Z</time></trkpt><trkpt lat="43.4680383" lon="11.4320017"><ele>365.8333333333333</ele><time>2026-04-20T09:55:38.918Z</time></trkpt><trkpt lat="43.467985" lon="11.4319417"><ele>367.66666666666663</ele><time>2026-04-20T09:55:39.917Z</time></trkpt><trkpt lat="43.4679283" lon="11.4318767"><ele>369.5</ele><time>2026-04-20T09:55:40.918Z</time></trkpt><trkpt lat="43.4678667" lon="11.4318133"><ele>371.3333333333333</ele><time>2026-04-20T09:55:41.917Z</time></trkpt><trkpt lat="43.4678" lon="11.4317333"><ele>373.1666666666667</ele><time>2026-04-20T09:55:42.917Z</time></trkpt><trkpt lat="43.4677233" lon="11.4316617"><ele>375.0</ele><time>2026-04-20T09:55:43.918Z</time></trkpt><trkpt lat="43.467635" lon="11.4315917"><ele>375.2</ele><time>2026-04-20T09:55:44.917Z</time></trkpt><trkpt lat="43.46755" lon="11.4315317"><ele>375.4</ele><time>2026-04-20T09:55:45.917Z</time></trkpt><trkpt lat="43.4674633" lon="11.431475"><ele>375.6</ele><time>2026-04-20T09:55:46.917Z</time></trkpt><trkpt lat="43.467385" lon="11.4314083"><ele>375.8</ele><time>2026-04-20T09:55:47.918Z</time></trkpt><trkpt lat="43.4672883" lon="11.43136"><ele>376.0</ele><time>2026-04-20T09:55:48.918Z</time></trkpt><trkpt lat="43.4671817" lon="11.4313183"><ele>378.4</ele><time>2026-04-20T09:55:49.917Z</time></trkpt><trkpt lat="43.4670733" lon="11.4312867"><ele>380.8</ele><time>2026-04-20T09:55:50.917Z</time></trkpt><trkpt lat="43.4669717" lon="11.4312517"><ele>383.2</ele><time>2026-04-20T09:55:51.917Z</time></trkpt><trkpt lat="43.4668667" lon="11.4312083"><ele>385.59999999999997</ele><time>2026-04-20T09:55:52.917Z</time></trkpt><trkpt lat="43.4667833" lon="11.4311367"><ele>388.0</ele><time>2026-04-20T09:55:53.917Z</time></trkpt><trkpt lat="43.4667083" lon="11.4310433"><ele>388.00000000000006</ele><time>2026-04-20T09:55:54.917Z</time></trkpt><trkpt lat="43.4666517" lon="11.430935"><ele>388.0</ele><time>2026-04-20T09:55:55.917Z</time></trkpt><trkpt lat="43.4666217" lon="11.4308433"><ele>388.0</ele><time>2026-04-20T09:55:56.917Z</time></trkpt><trkpt lat="43.466645" lon="11.4307417"><ele>388.0</ele><time>2026-04-20T09:55:58.917Z</time></trkpt><trkpt lat="43.466735" lon="11.43067"><ele>388.00000000000006</ele><time>2026-04-20T09:56:00.917Z</time></trkpt><trkpt lat="43.4667983" lon="11.43063"><ele>388.0</ele><time>2026-04-20T09:56:01.917Z</time></trkpt><trkpt lat="43.4668617" lon="11.4305917"><ele>388.0</ele><time>2026-04-20T09:56:02.917Z</time></trkpt><trkpt lat="43.4669367" lon="11.430545"><ele>388.0</ele><time>2026-04-20T09:56:03.917Z</time></trkpt><trkpt lat="43.4670217" lon="11.430485"><ele>388.0</ele><time>2026-04-20T09:56:04.917Z</time></trkpt><trkpt lat="43.4671083" lon="11.4304233"><ele>388.0</ele><time>2026-04-20T09:56:05.917Z</time></trkpt><trkpt lat="43.4672017" lon="11.4303683"><ele>388.0</ele><time>2026-04-20T09:56:06.917Z</time></trkpt><trkpt lat="43.4673033" lon="11.4302967"><ele>390.5</ele><time>2026-04-20T09:56:07.917Z</time></trkpt><trkpt lat="43.4674067" lon="11.4302283"><ele>393.0</ele><time>2026-04-20T09:56:08.918Z</time></trkpt><trkpt lat="43.467515" lon="11.43016"><ele>395.5</ele><time>2026-04-20T09:56:09.917Z</time></trkpt><trkpt lat="43.4676217" lon="11.4300883"><ele>398.0</ele><time>2026-04-20T09:56:10.917Z</time></trkpt><trkpt lat="43.46772" lon="11.43002"><ele>398.0</ele><time>2026-04-20T09:56:11.917Z</time></trkpt><trkpt lat="43.4678217" lon="11.42995"><ele>398.0</ele><time>2026-04-20T09:56:12.917Z</time></trkpt><trkpt lat="43.4679267" lon="11.429885"><ele>398.0</ele><time>2026-04-20T09:56:13.917Z</time></trkpt><trkpt lat="43.46802" lon="11.42982"><ele>398.0</ele><time>2026-04-20T09:56:14.918Z</time></trkpt><trkpt lat="43.4681117" lon="11.4297533"><ele>398.0</ele><time>2026-04-20T09:56:15.918Z</time></trkpt><trkpt lat="43.4682033" lon="11.4296833"><ele>400.0</ele><time>2026-04-20T09:56:16.917Z</time></trkpt><trkpt lat="43.4682967" lon="11.42962"><ele>402.0</ele><time>2026-04-20T09:56:17.917Z</time></trkpt><trkpt lat="43.4683917" lon="11.4295383"><ele>404.0</ele><time>2026-04-20T09:56:18.918Z</time></trkpt><trkpt lat="43.46848" lon="11.4294433"><ele>406.0</ele><time>2026-04-20T09:56:19.918Z</time></trkpt><trkpt lat="43.4685567" lon="11.4293167"><ele>408.0</ele><time>2026-04-20T09:56:20.917Z</time></trkpt><trkpt lat="43.4686317" lon="11.429185"><ele>408.0</ele><time>2026-04-20T09:56:21.917Z</time></trkpt><trkpt lat="43.4687133" lon="11.4290483"><ele>408.0</ele><time>2026-04-20T09:56:22.917Z</time></trkpt><trkpt lat="43.4688033" lon="11.4289033"><ele>408.0</ele><time>2026-04-20T09:56:23.917Z</time></trkpt><trkpt lat="43.4688967" lon="11.4287533"><ele>408.0</ele><time>2026-04-20T09:56:24.917Z</time></trkpt><trkpt lat="43.4689833" lon="11.4286067"><ele>411.25</ele><time>2026-04-20T09:56:25.917Z</time></trkpt><trkpt lat="43.4690767" lon="11.428465"><ele>414.5</ele><time>2026-04-20T09:56:26.917Z</time></trkpt><trkpt lat="43.4691667" lon="11.4283167"><ele>417.75</ele><time>2026-04-20T09:56:27.917Z</time></trkpt><trkpt lat="43.4692617" lon="11.4281617"><ele>421.0</ele><time>2026-04-20T09:56:28.917Z</time></trkpt><trkpt lat="43.46936" lon="11.428005"><ele>421.25</ele><time>2026-04-20T09:56:29.917Z</time></trkpt><trkpt lat="43.4694567" lon="11.4278533"><ele>421.5</ele><time>2026-04-20T09:56:30.917Z</time></trkpt><trkpt lat="43.4695567" lon="11.4276967"><ele>421.75</ele><time>2026-04-20T09:56:31.918Z</time></trkpt><trkpt lat="43.4696517" lon="11.427535"><ele>422.0</ele><time>2026-04-20T09:56:32.917Z</time></trkpt><trkpt lat="43.4697317" lon="11.4273683"><ele>424.5</ele><time>2026-04-20T09:56:33.918Z</time></trkpt><trkpt lat="43.4697933" lon="11.42719"><ele>427.0</ele><time>2026-04-20T09:56:34.917Z</time></trkpt><trkpt lat="43.469835" lon="11.4270133"><ele>429.5</ele><time>2026-04-20T09:56:35.917Z</time></trkpt><trkpt lat="43.46986" lon="11.42682"><ele>432.0</ele><time>2026-04-20T09:56:36.918Z</time></trkpt><trkpt lat="43.4698933" lon="11.4266333"><ele>434.0</ele><time>2026-04-20T09:56:37.918Z</time></trkpt><trkpt lat="43.46991" lon="11.4264333"><ele>436.0</ele><time>2026-04-20T09:56:38.917Z</time></trkpt><trkpt lat="43.4699217" lon="11.4262383"><ele>438.0</ele><time>2026-04-20T09:56:39.917Z</time></trkpt><trkpt lat="43.4699267" lon="11.4260367"><ele>440.0</ele><time>2026-04-20T09:56:40.917Z</time></trkpt><trkpt lat="43.4699267" lon="11.4258317"><ele>442.0</ele><time>2026-04-20T09:56:41.917Z</time></trkpt><trkpt lat="43.4699133" lon="11.42564"><ele>444.0</ele><time>2026-04-20T09:56:42.917Z</time></trkpt><trkpt lat="43.4698983" lon="11.4254417"><ele>446.0</ele><time>2026-04-20T09:56:43.917Z</time></trkpt><trkpt lat="43.46989" lon="11.4252483"><ele>448.0</ele><time>2026-04-20T09:56:44.917Z</time></trkpt><trkpt lat="43.4698683" lon="11.4250833"><ele>450.4</ele><time>2026-04-20T09:56:45.917Z</time></trkpt><trkpt lat="43.4698517" lon="11.4249367"><ele>452.79999999999995</ele><time>2026-04-20T09:56:46.917Z</time></trkpt><trkpt lat="43.4698283" lon="11.42481"><ele>455.2</ele><time>2026-04-20T09:56:47.917Z</time></trkpt><trkpt lat="43.4697933" lon="11.4246967"><ele>457.6</ele><time>2026-04-20T09:56:48.918Z</time></trkpt><trkpt lat="43.469735" lon="11.4245933"><ele>460.0</ele><time>2026-04-20T09:56:49.918Z</time></trkpt><trkpt lat="43.4696517" lon="11.4245167"><ele>461.75</ele><time>2026-04-20T09:56:50.917Z</time></trkpt><trkpt lat="43.4695533" lon="11.42446"><ele>463.5</ele><time>2026-04-20T09:56:51.918Z</time></trkpt><trkpt lat="43.469445" lon="11.4244167"><ele>465.25</ele><time>2026-04-20T09:56:52.917Z</time></trkpt><trkpt lat="43.469325" lon="11.4243883"><ele>467.0</ele><time>2026-04-20T09:56:53.917Z</time></trkpt><trkpt lat="43.469205" lon="11.4243633"><ele>467.0</ele><time>2026-04-20T09:56:54.917Z</time></trkpt><trkpt lat="43.4690817" lon="11.4243467"><ele>467.0</ele><time>2026-04-20T09:56:55.917Z</time></trkpt><trkpt lat="43.4689583" lon="11.4243267"><ele>467.0</ele><time>2026-04-20T09:56:56.917Z</time></trkpt><trkpt lat="43.4688333" lon="11.4243167"><ele>467.0</ele><time>2026-04-20T09:56:57.917Z</time></trkpt><trkpt lat="43.4687317" lon="11.4243083"><ele>467.40000000000003</ele><time>2026-04-20T09:56:58.917Z</time></trkpt><trkpt lat="43.4686417" lon="11.424305"><ele>467.80000000000007</ele><time>2026-04-20T09:56:59.918Z</time></trkpt><trkpt lat="43.4685583" lon="11.42429"><ele>468.2</ele><time>2026-04-20T09:57:00.917Z</time></trkpt><trkpt lat="43.4684717" lon="11.4242467"><ele>468.6</ele><time>2026-04-20T09:57:01.917Z</time></trkpt><trkpt lat="43.4683867" lon="11.4241767"><ele>469.0</ele><time>2026-04-20T09:57:02.917Z</time></trkpt><trkpt lat="43.4683017" lon="11.4240883"><ele>469.0</ele><time>2026-04-20T09:57:03.917Z</time></trkpt><trkpt lat="43.4682083" lon="11.424005"><ele>469.0</ele><time>2026-04-20T09:57:04.917Z</time></trkpt><trkpt lat="43.4681133" lon="11.4239117"><ele>469.0</ele><time>2026-04-20T09:57:05.917Z</time></trkpt><trkpt lat="43.4680167" lon="11.4238183"><ele>469.0</ele><time>2026-04-20T09:57:06.917Z</time></trkpt><trkpt lat="43.4679217" lon="11.4237333"><ele>471.0</ele><time>2026-04-20T09:57:07.917Z</time></trkpt><trkpt lat="43.46783" lon="11.4236567"><ele>473.0</ele><time>2026-04-20T09:57:08.917Z</time></trkpt><trkpt lat="43.46775" lon="11.4235767"><ele>475.0</ele><time>2026-04-20T09:57:09.918Z</time></trkpt><trkpt lat="43.467695" lon="11.42347"><ele>477.0</ele><time>2026-04-20T09:57:10.917Z</time></trkpt><trkpt lat="43.4676767" lon="11.4233567"><ele>479.0</ele><time>2026-04-20T09:57:11.917Z</time></trkpt><trkpt lat="43.4676917" lon="11.4232483"><ele>479.0</ele><time>2026-04-20T09:57:12.917Z</time></trkpt><trkpt lat="43.467725" lon="11.4231583"><ele>479.0</ele><time>2026-04-20T09:57:13.917Z</time></trkpt><trkpt lat="43.4677883" lon="11.4230917"><ele>479.0</ele><time>2026-04-20T09:57:14.917Z</time></trkpt><trkpt lat="43.467875" lon="11.4230433"><ele>479.0</ele><time>2026-04-20T09:57:15.917Z</time></trkpt><trkpt lat="43.4679833" lon="11.4230233"><ele>479.0</ele><time>2026-04-20T09:57:16.917Z</time></trkpt><trkpt lat="43.46812" lon="11.4229983"><ele>478.25</ele><time>2026-04-20T09:57:17.917Z</time></trkpt><trkpt lat="43.4682533" lon="11.4229417"><ele>477.5</ele><time>2026-04-20T09:57:18.917Z</time></trkpt><trkpt lat="43.4683833" lon="11.4228633"><ele>476.75</ele><time>2026-04-20T09:57:19.917Z</time></trkpt><trkpt lat="43.468505" lon="11.422775"><ele>476.0</ele><time>2026-04-20T09:57:20.917Z</time></trkpt><trkpt lat="43.4686267" lon="11.422685"><ele>476.0</ele><time>2026-04-20T09:57:21.917Z</time></trkpt><trkpt lat="43.4687533" lon="11.4225867"><ele>476.0</ele><time>2026-04-20T09:57:22.917Z</time></trkpt><trkpt lat="43.4688867" lon="11.4224767"><ele>476.0</ele><time>2026-04-20T09:57:23.917Z</time></trkpt><trkpt lat="43.469025" lon="11.4223767"><ele>477.3333333333333</ele><time>2026-04-20T09:57:24.917Z</time></trkpt><trkpt lat="43.4691683" lon="11.422275"><ele>478.66666666666663</ele><time>2026-04-20T09:57:25.917Z</time></trkpt><trkpt lat="43.4693133" lon="11.4221817"><ele>480.0</ele><time>2026-04-20T09:57:26.917Z</time></trkpt><trkpt lat="43.46946" lon="11.4220767"><ele>480.0</ele><time>2026-04-20T09:57:27.917Z</time></trkpt><trkpt lat="43.4696" lon="11.4219783"><ele>480.0</ele><time>2026-04-20T09:57:28.917Z</time></trkpt><trkpt lat="43.4697283" lon="11.42189"><ele>480.0</ele><time>2026-04-20T09:57:29.918Z</time></trkpt><trkpt lat="43.4698483" lon="11.42181"><ele>480.0</ele><time>2026-04-20T09:57:30.917Z</time></trkpt><trkpt lat="43.4699583" lon="11.4217267"><ele>482.6</ele><time>2026-04-20T09:57:31.917Z</time></trkpt><trkpt lat="43.4700617" lon="11.4216467"><ele>485.2</ele><time>2026-04-20T09:57:32.918Z</time></trkpt><trkpt lat="43.4701567" lon="11.4215733"><ele>487.79999999999995</ele><time>2026-04-20T09:57:33.917Z</time></trkpt><trkpt lat="43.4702433" lon="11.421515"><ele>490.4</ele><time>2026-04-20T09:57:34.917Z</time></trkpt><trkpt lat="43.470315" lon="11.4214317"><ele>493.0</ele><time>2026-04-20T09:57:35.917Z</time></trkpt><trkpt lat="43.4703683" lon="11.4213317"><ele>492.4</ele><time>2026-04-20T09:57:36.917Z</time></trkpt><trkpt lat="43.4703933" lon="11.4212117"><ele>491.79999999999995</ele><time>2026-04-20T09:57:37.917Z</time></trkpt><trkpt lat="43.47038" lon="11.4210717"><ele>491.2</ele><time>2026-04-20T09:57:38.917Z</time></trkpt><trkpt lat="43.4703367" lon="11.4209267"><ele>490.6</ele><time>2026-04-20T09:57:39.917Z</time></trkpt><trkpt lat="43.4702767" lon="11.4207967"><ele>490.0</ele><time>2026-04-20T09:57:40.917Z</time></trkpt><trkpt lat="43.4702083" lon="11.4206533"><ele>490.0</ele><time>2026-04-20T09:57:41.918Z</time></trkpt><trkpt lat="43.4701317" lon="11.4205033"><ele>490.0</ele><time>2026-04-20T09:57:42.917Z</time></trkpt><trkpt lat="43.4700567" lon="11.42035"><ele>490.0</ele><time>2026-04-20T09:57:43.918Z</time></trkpt><trkpt lat="43.4699767" lon="11.420195"><ele>490.0</ele><time>2026-04-20T09:57:44.918Z</time></trkpt><trkpt lat="43.469895" lon="11.42005"><ele>492.2</ele><time>2026-04-20T09:57:45.917Z</time></trkpt><trkpt lat="43.4698233" lon="11.4199033"><ele>494.4</ele><time>2026-04-20T09:57:46.918Z</time></trkpt><trkpt lat="43.4697717" lon="11.4197767"><ele>496.6</ele><time>2026-04-20T09:57:47.917Z</time></trkpt><trkpt lat="43.4697267" lon="11.4196567"><ele>498.8</ele><time>2026-04-20T09:57:48.917Z</time></trkpt><trkpt lat="43.4697067" lon="11.4195317"><ele>501.0</ele><time>2026-04-20T09:57:49.918Z</time></trkpt><trkpt lat="43.4697067" lon="11.41942"><ele>501.5</ele><time>2026-04-20T09:57:50.918Z</time></trkpt><trkpt lat="43.46973" lon="11.4193233"><ele>502.0</ele><time>2026-04-20T09:57:51.918Z</time></trkpt><trkpt lat="43.469765" lon="11.419235"><ele>502.5</ele><time>2026-04-20T09:57:52.917Z</time></trkpt><trkpt lat="43.469805" lon="11.419165"><ele>503.0</ele><time>2026-04-20T09:57:53.917Z</time></trkpt><trkpt lat="43.46988" lon="11.4190817"><ele>503.5</ele><time>2026-04-20T09:57:55.918Z</time></trkpt><trkpt lat="43.4699417" lon="11.4189883"><ele>504.0</ele><time>2026-04-20T09:57:57.917Z</time></trkpt><trkpt lat="43.47001" lon="11.4188867"><ele>503.6</ele><time>2026-04-20T09:57:59.917Z</time></trkpt><trkpt lat="43.47009" lon="11.4187583"><ele>503.2</ele><time>2026-04-20T09:58:01.917Z</time></trkpt><trkpt lat="43.47016" lon="11.4186383"><ele>502.80000000000007</ele><time>2026-04-20T09:58:03.917Z</time></trkpt><trkpt lat="43.4702383" lon="11.41857"><ele>502.40000000000003</ele><time>2026-04-20T09:58:05.918Z</time></trkpt><trkpt lat="43.470315" lon="11.4186117"><ele>502.0</ele><time>2026-04-20T09:58:07.917Z</time></trkpt><trkpt lat="43.4703583" lon="11.4186783"><ele>502.00000000000006</ele><time>2026-04-20T09:58:08.917Z</time></trkpt><trkpt lat="43.4704067" lon="11.4187483"><ele>502.0</ele><time>2026-04-20T09:58:09.918Z</time></trkpt><trkpt lat="43.4704517" lon="11.41883"><ele>502.0</ele><time>2026-04-20T09:58:10.918Z</time></trkpt><trkpt lat="43.470505" lon="11.4189217"><ele>502.0</ele><time>2026-04-20T09:58:11.917Z</time></trkpt><trkpt lat="43.4705617" lon="11.4190183"><ele>502.00000000000006</ele><time>2026-04-20T09:58:12.917Z</time></trkpt><trkpt lat="43.470625" lon="11.4191233"><ele>502.0</ele><time>2026-04-20T09:58:13.917Z</time></trkpt><trkpt lat="43.4706833" lon="11.419245"><ele>502.8</ele><time>2026-04-20T09:58:14.917Z</time></trkpt><trkpt lat="43.47075" lon="11.4193567"><ele>503.6</ele><time>2026-04-20T09:58:15.917Z</time></trkpt><trkpt lat="43.470815" lon="11.4194617"><ele>504.40000000000003</ele><time>2026-04-20T09:58:16.917Z</time></trkpt><trkpt lat="43.4708883" lon="11.419565"><ele>505.20000000000005</ele><time>2026-04-20T09:58:17.917Z</time></trkpt><trkpt lat="43.470965" lon="11.4196717"><ele>506.0</ele><time>2026-04-20T09:58:18.918Z</time></trkpt><trkpt lat="43.471035" lon="11.4197783"><ele>507.75</ele><time>2026-04-20T09:58:19.917Z</time></trkpt><trkpt lat="43.4711067" lon="11.41989"><ele>509.5</ele><time>2026-04-20T09:58:20.918Z</time></trkpt><trkpt lat="43.4711817" lon="11.4200167"><ele>511.25</ele><time>2026-04-20T09:58:21.918Z</time></trkpt><trkpt lat="43.4712567" lon="11.4201467"><ele>513.0</ele><time>2026-04-20T09:58:22.917Z</time></trkpt><trkpt lat="43.471335" lon="11.42028"><ele>514.0</ele><time>2026-04-20T09:58:23.917Z</time></trkpt><trkpt lat="43.4714067" lon="11.420405"><ele>515.0</ele><time>2026-04-20T09:58:24.917Z</time></trkpt><trkpt lat="43.47147" lon="11.4205217"><ele>516.0</ele><time>2026-04-20T09:58:25.917Z</time></trkpt><trkpt lat="43.471535" lon="11.420625"><ele>517.0</ele><time>2026-04-20T09:58:26.917Z</time></trkpt><trkpt lat="43.4715983" lon="11.4207167"><ele>518.0</ele><time>2026-04-20T09:58:27.917Z</time></trkpt><trkpt lat="43.471655" lon="11.4207983"><ele>518.5714285714286</ele><time>2026-04-20T09:58:28.917Z</time></trkpt><trkpt lat="43.47171" lon="11.4208767"><ele>519.1428571428571</ele><time>2026-04-20T09:58:29.917Z</time></trkpt><trkpt lat="43.471765" lon="11.4209467"><ele>519.7142857142858</ele><time>2026-04-20T09:58:30.917Z</time></trkpt><trkpt lat="43.4718233" lon="11.4210117"><ele>520.2857142857142</ele><time>2026-04-20T09:58:31.917Z</time></trkpt><trkpt lat="43.4718833" lon="11.42108"><ele>520.8571428571429</ele><time>2026-04-20T09:58:32.917Z</time></trkpt><trkpt lat="43.471945" lon="11.4211167"><ele>521.4285714285714</ele><time>2026-04-20T09:58:33.917Z</time></trkpt><trkpt lat="43.47201" lon="11.4211533"><ele>522.0</ele><time>2026-04-20T09:58:34.917Z</time></trkpt><trkpt lat="43.472075" lon="11.4211933"><ele>521.3333333333334</ele><time>2026-04-20T09:58:35.917Z</time></trkpt><trkpt lat="43.472145" lon="11.4212233"><ele>520.6666666666666</ele><time>2026-04-20T09:58:36.917Z</time></trkpt><trkpt lat="43.4722167" lon="11.42126"><ele>520.0</ele><time>2026-04-20T09:58:37.917Z</time></trkpt><trkpt lat="43.4723" lon="11.4213067"><ele>519.3333333333333</ele><time>2026-04-20T09:58:38.917Z</time></trkpt><trkpt lat="43.4723933" lon="11.4213567"><ele>518.6666666666666</ele><time>2026-04-20T09:58:39.917Z</time></trkpt><trkpt lat="43.4724883" lon="11.4214167"><ele>518.0</ele><time>2026-04-20T09:58:40.917Z</time></trkpt><trkpt lat="43.472575" lon="11.421495"><ele>517.8</ele><time>2026-04-20T09:58:41.917Z</time></trkpt><trkpt lat="43.4726617" lon="11.4215667"><ele>517.5999999999999</ele><time>2026-04-20T09:58:42.917Z</time></trkpt><trkpt lat="43.4727467" lon="11.42165"><ele>517.4000000000001</ele><time>2026-04-20T09:58:43.916Z</time></trkpt><trkpt lat="43.4728267" lon="11.4217467"><ele>517.2</ele><time>2026-04-20T09:58:44.916Z</time></trkpt><trkpt lat="43.4729067" lon="11.421845"><ele>517.0</ele><time>2026-04-20T09:58:45.916Z</time></trkpt><trkpt lat="43.4729833" lon="11.4219417"><ele>517.2</ele><time>2026-04-20T09:58:46.916Z</time></trkpt><trkpt lat="43.4730567" lon="11.4220417"><ele>517.4000000000001</ele><time>2026-04-20T09:58:47.916Z</time></trkpt><trkpt lat="43.4731433" lon="11.4221217"><ele>517.5999999999999</ele><time>2026-04-20T09:58:48.916Z</time></trkpt><trkpt lat="43.4732483" lon="11.4221833"><ele>517.8</ele><time>2026-04-20T09:58:49.917Z</time></trkpt><trkpt lat="43.4733533" lon="11.4222267"><ele>518.0</ele><time>2026-04-20T09:58:50.916Z</time></trkpt><trkpt lat="43.4734583" lon="11.4222683"><ele>518.0</ele><time>2026-04-20T09:58:51.916Z</time></trkpt><trkpt lat="43.47356" lon="11.4223017"><ele>518.0</ele><time>2026-04-20T09:58:52.917Z</time></trkpt><trkpt lat="43.4736633" lon="11.4223433"><ele>518.0</ele><time>2026-04-20T09:58:53.916Z</time></trkpt><trkpt lat="43.4737683" lon="11.4223733"><ele>518.0</ele><time>2026-04-20T09:58:54.917Z</time></trkpt><trkpt lat="43.4738717" lon="11.422395"><ele>518.0</ele><time>2026-04-20T09:58:55.916Z</time></trkpt><trkpt lat="43.473975" lon="11.4224133"><ele>518.4</ele><time>2026-04-20T09:58:56.916Z</time></trkpt><trkpt lat="43.4740767" lon="11.422425"><ele>518.8</ele><time>2026-04-20T09:58:57.916Z</time></trkpt><trkpt lat="43.4741883" lon="11.4224433"><ele>519.2</ele><time>2026-04-20T09:58:58.916Z</time></trkpt><trkpt lat="43.474295" lon="11.4224717"><ele>519.6</ele><time>2026-04-20T09:58:59.916Z</time></trkpt><trkpt lat="43.4744017" lon="11.422505"><ele>520.0</ele><time>2026-04-20T09:59:00.916Z</time></trkpt><trkpt lat="43.4745033" lon="11.42254"><ele>520.0</ele><time>2026-04-20T09:59:01.916Z</time></trkpt><trkpt lat="43.4745967" lon="11.4225767"><ele>520.0</ele><time>2026-04-20T09:59:02.917Z</time></trkpt><trkpt lat="43.4746867" lon="11.4225983"><ele>520.0</ele><time>2026-04-20T09:59:03.916Z</time></trkpt><trkpt lat="43.47477" lon="11.4226167"><ele>520.0</ele><time>2026-04-20T09:59:04.917Z</time></trkpt><trkpt lat="43.4748517" lon="11.4226333"><ele>520.0</ele><time>2026-04-20T09:59:05.916Z</time></trkpt><trkpt lat="43.4749233" lon="11.422635"><ele>520.0</ele><time>2026-04-20T09:59:06.916Z</time></trkpt><trkpt lat="43.4750117" lon="11.4226117"><ele>519.4</ele><time>2026-04-20T09:59:07.917Z</time></trkpt><trkpt lat="43.4751" lon="11.4225867"><ele>518.8</ele><time>2026-04-20T09:59:08.916Z</time></trkpt><trkpt lat="43.47519" lon="11.4225383"><ele>518.2</ele><time>2026-04-20T09:59:09.917Z</time></trkpt><trkpt lat="43.475275" lon="11.42249"><ele>517.6</ele><time>2026-04-20T09:59:10.916Z</time></trkpt><trkpt lat="43.4753633" lon="11.4224483"><ele>517.0</ele><time>2026-04-20T09:59:11.917Z</time></trkpt><trkpt lat="43.4754467" lon="11.4224"><ele>514.8000000000001</ele><time>2026-04-20T09:59:12.916Z</time></trkpt><trkpt lat="43.4755383" lon="11.42237"><ele>512.6</ele><time>2026-04-20T09:59:13.916Z</time></trkpt><trkpt lat="43.4756317" lon="11.4223533"><ele>510.40000000000003</ele><time>2026-04-20T09:59:14.916Z</time></trkpt><trkpt lat="43.475725" lon="11.4223533"><ele>508.20000000000005</ele><time>2026-04-20T09:59:15.916Z</time></trkpt><trkpt lat="43.4758167" lon="11.42238"><ele>506.0</ele><time>2026-04-20T09:59:16.916Z</time></trkpt><trkpt lat="43.4759167" lon="11.42242"><ele>506.0</ele><time>2026-04-20T09:59:17.916Z</time></trkpt><trkpt lat="43.47601" lon="11.4224733"><ele>506.0</ele><time>2026-04-20T09:59:18.916Z</time></trkpt><trkpt lat="43.476105" lon="11.42253"><ele>506.0</ele><time>2026-04-20T09:59:19.916Z</time></trkpt><trkpt lat="43.4762017" lon="11.4225883"><ele>506.0</ele><time>2026-04-20T09:59:20.916Z</time></trkpt><trkpt lat="43.4763033" lon="11.4226433"><ele>506.0</ele><time>2026-04-20T09:59:21.916Z</time></trkpt><trkpt lat="43.4764067" lon="11.422705"><ele>506.0</ele><time>2026-04-20T09:59:22.916Z</time></trkpt><trkpt lat="43.47651" lon="11.4227683"><ele>506.0</ele><time>2026-04-20T09:59:23.917Z</time></trkpt><trkpt lat="43.476605" lon="11.4228317"><ele>506.0</ele><time>2026-04-20T09:59:24.916Z</time></trkpt><trkpt lat="43.4766967" lon="11.4229033"><ele>506.0</ele><time>2026-04-20T09:59:25.917Z</time></trkpt><trkpt lat="43.476785" lon="11.4229817"><ele>506.0</ele><time>2026-04-20T09:59:26.916Z</time></trkpt><trkpt lat="43.4768717" lon="11.4230683"><ele>506.0</ele><time>2026-04-20T09:59:27.916Z</time></trkpt><trkpt lat="43.4769583" lon="11.4231683"><ele>506.0</ele><time>2026-04-20T09:59:28.916Z</time></trkpt><trkpt lat="43.4770417" lon="11.4232767"><ele>506.0</ele><time>2026-04-20T09:59:29.916Z</time></trkpt><trkpt lat="43.4771267" lon="11.423385"><ele>506.0</ele><time>2026-04-20T09:59:30.916Z</time></trkpt><trkpt lat="43.4772083" lon="11.4234883"><ele>506.4</ele><time>2026-04-20T09:59:31.916Z</time></trkpt><trkpt lat="43.4772767" lon="11.4235817"><ele>506.8</ele><time>2026-04-20T09:59:32.916Z</time></trkpt><trkpt lat="43.4773483" lon="11.4236717"><ele>507.19999999999993</ele><time>2026-04-20T09:59:33.917Z</time></trkpt><trkpt lat="43.4774183" lon="11.4237683"><ele>507.59999999999997</ele><time>2026-04-20T09:59:34.916Z</time></trkpt><trkpt lat="43.4774883" lon="11.4238633"><ele>508.0</ele><time>2026-04-20T09:59:35.916Z</time></trkpt><trkpt lat="43.4775567" lon="11.4239617"><ele>508.0</ele><time>2026-04-20T09:59:36.916Z</time></trkpt><trkpt lat="43.4776233" lon="11.4240617"><ele>507.99999999999994</ele><time>2026-04-20T09:59:37.916Z</time></trkpt><trkpt lat="43.4776883" lon="11.4241583"><ele>507.99999999999994</ele><time>2026-04-20T09:59:38.916Z</time></trkpt><trkpt lat="43.477755" lon="11.4242567"><ele>508.0</ele><time>2026-04-20T09:59:39.917Z</time></trkpt><trkpt lat="43.4778117" lon="11.4243633"><ele>508.0</ele><time>2026-04-20T09:59:40.916Z</time></trkpt><trkpt lat="43.4778633" lon="11.4244617"><ele>508.00000000000006</ele><time>2026-04-20T09:59:41.916Z</time></trkpt><trkpt lat="43.477905" lon="11.4245517"><ele>508.0</ele><time>2026-04-20T09:59:42.917Z</time></trkpt><trkpt lat="43.4779517" lon="11.42462"><ele>508.0</ele><time>2026-04-20T09:59:43.916Z</time></trkpt><trkpt lat="43.47802" lon="11.4246917"><ele>508.0</ele><time>2026-04-20T09:59:45.916Z</time></trkpt><trkpt lat="43.478095" lon="11.4247183"><ele>508.00000000000006</ele><time>2026-04-20T09:59:47.917Z</time></trkpt><trkpt lat="43.478185" lon="11.4246767"><ele>508.0</ele><time>2026-04-20T09:59:49.917Z</time></trkpt><trkpt lat="43.4783" lon="11.4245933"><ele>510.33333333333337</ele><time>2026-04-20T09:59:51.917Z</time></trkpt><trkpt lat="43.4783617" lon="11.4245433"><ele>512.6666666666667</ele><time>2026-04-20T09:59:52.916Z</time></trkpt><trkpt lat="43.4784267" lon="11.4244883"><ele>515.0</ele><time>2026-04-20T09:59:53.916Z</time></trkpt><trkpt lat="43.478495" lon="11.424445"><ele>517.3333333333334</ele><time>2026-04-20T09:59:54.916Z</time></trkpt><trkpt lat="43.4785717" lon="11.42441"><ele>519.6666666666666</ele><time>2026-04-20T09:59:55.917Z</time></trkpt><trkpt lat="43.4786517" lon="11.4243633"><ele>522.0</ele><time>2026-04-20T09:59:56.917Z</time></trkpt><trkpt lat="43.4787283" lon="11.4242967"><ele>523.2</ele><time>2026-04-20T09:59:57.916Z</time></trkpt><trkpt lat="43.4788083" lon="11.424235"><ele>524.4000000000001</ele><time>2026-04-20T09:59:58.916Z</time></trkpt><trkpt lat="43.4788917" lon="11.424175"><ele>525.5999999999999</ele><time>2026-04-20T09:59:59.916Z</time></trkpt><trkpt lat="43.47897" lon="11.424095"><ele>526.8</ele><time>2026-04-20T10:00:00.917Z</time></trkpt><trkpt lat="43.4790367" lon="11.4240033"><ele>528.0</ele><time>2026-04-20T10:00:01.916Z</time></trkpt><trkpt lat="43.4791017" lon="11.4239083"><ele>528.0</ele><time>2026-04-20T10:00:02.916Z</time></trkpt><trkpt lat="43.4791617" lon="11.4238167"><ele>528.0</ele><time>2026-04-20T10:00:03.916Z</time></trkpt><trkpt lat="43.4792217" lon="11.4237233"><ele>528.0</ele><time>2026-04-20T10:00:04.917Z</time></trkpt><trkpt lat="43.4792817" lon="11.4236267"><ele>528.0</ele><time>2026-04-20T10:00:05.917Z</time></trkpt><trkpt lat="43.479335" lon="11.423525"><ele>528.0</ele><time>2026-04-20T10:00:06.916Z</time></trkpt><trkpt lat="43.4793883" lon="11.423425"><ele>527.6</ele><time>2026-04-20T10:00:07.916Z</time></trkpt><trkpt lat="43.4794383" lon="11.4233167"><ele>527.1999999999999</ele><time>2026-04-20T10:00:08.916Z</time></trkpt><trkpt lat="43.4794933" lon="11.423205"><ele>526.8</ele><time>2026-04-20T10:00:09.916Z</time></trkpt><trkpt lat="43.47956" lon="11.4230967"><ele>526.4</ele><time>2026-04-20T10:00:10.916Z</time></trkpt><trkpt lat="43.47963" lon="11.42299"><ele>526.0</ele><time>2026-04-20T10:00:11.916Z</time></trkpt><trkpt lat="43.4797033" lon="11.42289"><ele>527.75</ele><time>2026-04-20T10:00:12.917Z</time></trkpt><trkpt lat="43.4797867" lon="11.422785"><ele>529.5</ele><time>2026-04-20T10:00:13.916Z</time></trkpt><trkpt lat="43.4798733" lon="11.42269"><ele>531.25</ele><time>2026-04-20T10:00:14.917Z</time></trkpt><trkpt lat="43.479965" lon="11.4225967"><ele>533.0</ele><time>2026-04-20T10:00:15.917Z</time></trkpt><trkpt lat="43.4800583" lon="11.422505"><ele>533.0</ele><time>2026-04-20T10:00:16.916Z</time></trkpt><trkpt lat="43.4801433" lon="11.4224067"><ele>533.0</ele><time>2026-04-20T10:00:17.916Z</time></trkpt><trkpt lat="43.480235" lon="11.4223183"><ele>533.0</ele><time>2026-04-20T10:00:18.916Z</time></trkpt><trkpt lat="43.4803217" lon="11.422235"><ele>533.0</ele><time>2026-04-20T10:00:19.916Z</time></trkpt><trkpt lat="43.4804167" lon="11.422165"><ele>533.0</ele><time>2026-04-20T10:00:20.916Z</time></trkpt><trkpt lat="43.48052" lon="11.422095"><ele>534.25</ele><time>2026-04-20T10:00:21.916Z</time></trkpt><trkpt lat="43.48062" lon="11.4220317"><ele>535.5</ele><time>2026-04-20T10:00:22.916Z</time></trkpt><trkpt lat="43.480725" lon="11.4219617"><ele>536.75</ele><time>2026-04-20T10:00:23.917Z</time></trkpt><trkpt lat="43.4808233" lon="11.4218833"><ele>538.0</ele><time>2026-04-20T10:00:24.916Z</time></trkpt><trkpt lat="43.480925" lon="11.4218017"><ele>538.0</ele><time>2026-04-20T10:00:25.917Z</time></trkpt><trkpt lat="43.481025" lon="11.42172"><ele>538.0</ele><time>2026-04-20T10:00:26.916Z</time></trkpt><trkpt lat="43.48113" lon="11.4216417"><ele>538.0</ele><time>2026-04-20T10:00:27.916Z</time></trkpt><trkpt lat="43.4812333" lon="11.4215567"><ele>538.0</ele><time>2026-04-20T10:00:28.916Z</time></trkpt><trkpt lat="43.48133" lon="11.4214717"><ele>537.75</ele><time>2026-04-20T10:00:29.917Z</time></trkpt><trkpt lat="43.48143" lon="11.42138"><ele>537.5</ele><time>2026-04-20T10:00:30.917Z</time></trkpt><trkpt lat="43.481525" lon="11.4212933"><ele>537.25</ele><time>2026-04-20T10:00:31.916Z</time></trkpt><trkpt lat="43.4816317" lon="11.4212083"><ele>537.0</ele><time>2026-04-20T10:00:32.916Z</time></trkpt><trkpt lat="43.48174" lon="11.4211233"><ele>537.0</ele><time>2026-04-20T10:00:33.916Z</time></trkpt><trkpt lat="43.4818483" lon="11.4210317"><ele>537.0</ele><time>2026-04-20T10:00:34.916Z</time></trkpt><trkpt lat="43.4819583" lon="11.4209467"><ele>537.0</ele><time>2026-04-20T10:00:35.917Z</time></trkpt><trkpt lat="43.4820767" lon="11.4208617"><ele>537.0</ele><time>2026-04-20T10:00:36.917Z</time></trkpt><trkpt lat="43.4821933" lon="11.420775"><ele>536.75</ele><time>2026-04-20T10:00:37.917Z</time></trkpt><trkpt lat="43.4823067" lon="11.4206933"><ele>536.5</ele><time>2026-04-20T10:00:38.917Z</time></trkpt><trkpt lat="43.4824267" lon="11.420605"><ele>536.25</ele><time>2026-04-20T10:00:39.916Z</time></trkpt><trkpt lat="43.4825517" lon="11.4205183"><ele>536.0</ele><time>2026-04-20T10:00:40.916Z</time></trkpt><trkpt lat="43.48268" lon="11.420435"><ele>536.0</ele><time>2026-04-20T10:00:41.916Z</time></trkpt><trkpt lat="43.4828117" lon="11.42034"><ele>536.0</ele><time>2026-04-20T10:00:42.916Z</time></trkpt><trkpt lat="43.4829417" lon="11.42025"><ele>536.0</ele><time>2026-04-20T10:00:43.916Z</time></trkpt><trkpt lat="43.4830733" lon="11.4201683"><ele>536.0</ele><time>2026-04-20T10:00:44.916Z</time></trkpt><trkpt lat="43.4832183" lon="11.4200883"><ele>538.25</ele><time>2026-04-20T10:00:45.916Z</time></trkpt><trkpt lat="43.48335" lon="11.42"><ele>540.5</ele><time>2026-04-20T10:00:46.916Z</time></trkpt><trkpt lat="43.4834867" lon="11.4199133"><ele>542.75</ele><time>2026-04-20T10:00:47.916Z</time></trkpt><trkpt lat="43.48362" lon="11.4198233"><ele>545.0</ele><time>2026-04-20T10:00:48.916Z</time></trkpt><trkpt lat="43.483745" lon="11.419745"><ele>545.6</ele><time>2026-04-20T10:00:49.917Z</time></trkpt><trkpt lat="43.4838617" lon="11.4196733"><ele>546.2</ele><time>2026-04-20T10:00:50.917Z</time></trkpt><trkpt lat="43.48397" lon="11.4196133"><ele>546.8</ele><time>2026-04-20T10:00:51.916Z</time></trkpt><trkpt lat="43.4840717" lon="11.4195517"><ele>547.4</ele><time>2026-04-20T10:00:52.916Z</time></trkpt><trkpt lat="43.4841567" lon="11.4195083"><ele>548.0</ele><time>2026-04-20T10:00:53.916Z</time></trkpt><trkpt lat="43.4842417" lon="11.4194783"><ele>548.0</ele><time>2026-04-20T10:00:54.916Z</time></trkpt><trkpt lat="43.4843167" lon="11.4194583"><ele>548.0</ele><time>2026-04-20T10:00:55.917Z</time></trkpt><trkpt lat="43.4843917" lon="11.4194567"><ele>548.0</ele><time>2026-04-20T10:00:56.916Z</time></trkpt><trkpt lat="43.4844617" lon="11.4194667"><ele>548.0</ele><time>2026-04-20T10:00:57.916Z</time></trkpt><trkpt lat="43.4845417" lon="11.4194883"><ele>548.0</ele><time>2026-04-20T10:00:58.916Z</time></trkpt><trkpt lat="43.48463" lon="11.4195183"><ele>548.0</ele><time>2026-04-20T10:00:59.917Z</time></trkpt><trkpt lat="43.484725" lon="11.41956"><ele>547.5</ele><time>2026-04-20T10:01:00.916Z</time></trkpt><trkpt lat="43.4848333" lon="11.4196167"><ele>547.0</ele><time>2026-04-20T10:01:01.916Z</time></trkpt><trkpt lat="43.4849417" lon="11.419675"><ele>546.5</ele><time>2026-04-20T10:01:02.916Z</time></trkpt><trkpt lat="43.48505" lon="11.4197367"><ele>546.0</ele><time>2026-04-20T10:01:03.916Z</time></trkpt><trkpt lat="43.4851583" lon="11.4198017"><ele>546.25</ele><time>2026-04-20T10:01:04.916Z</time></trkpt><trkpt lat="43.4852717" lon="11.4198667"><ele>546.5</ele><time>2026-04-20T10:01:05.917Z</time></trkpt><trkpt lat="43.4853817" lon="11.41993"><ele>546.75</ele><time>2026-04-20T10:01:06.916Z</time></trkpt><trkpt lat="43.4855" lon="11.4199933"><ele>547.0</ele><time>2026-04-20T10:01:07.916Z</time></trkpt><trkpt lat="43.4856117" lon="11.4200617"><ele>547.0</ele><time>2026-04-20T10:01:08.916Z</time></trkpt><trkpt lat="43.48572" lon="11.42013"><ele>547.0</ele><time>2026-04-20T10:01:09.916Z</time></trkpt><trkpt lat="43.48583" lon="11.42019"><ele>547.0</ele><time>2026-04-20T10:01:10.917Z</time></trkpt><trkpt lat="43.4859433" lon="11.42025"><ele>547.0</ele><time>2026-04-20T10:01:11.916Z</time></trkpt><trkpt lat="43.4860533" lon="11.4203233"><ele>547.0</ele><time>2026-04-20T10:01:12.916Z</time></trkpt><trkpt lat="43.4861617" lon="11.4204017"><ele>547.0</ele><time>2026-04-20T10:01:13.916Z</time></trkpt><trkpt lat="43.4862683" lon="11.4204767"><ele>547.0</ele><time>2026-04-20T10:01:14.916Z</time></trkpt><trkpt lat="43.4863667" lon="11.420575"><ele>547.0</ele><time>2026-04-20T10:01:15.916Z</time></trkpt><trkpt lat="43.486465" lon="11.42069"><ele>545.75</ele><time>2026-04-20T10:01:16.916Z</time></trkpt><trkpt lat="43.4865533" lon="11.4208133"><ele>544.5</ele><time>2026-04-20T10:01:17.916Z</time></trkpt><trkpt lat="43.4866333" lon="11.4209483"><ele>543.25</ele><time>2026-04-20T10:01:18.916Z</time></trkpt><trkpt lat="43.4867117" lon="11.4210917"><ele>542.0</ele><time>2026-04-20T10:01:19.916Z</time></trkpt><trkpt lat="43.4867883" lon="11.4212367"><ele>542.25</ele><time>2026-04-20T10:01:20.916Z</time></trkpt><trkpt lat="43.4868667" lon="11.4213867"><ele>542.5</ele><time>2026-04-20T10:01:21.916Z</time></trkpt><trkpt lat="43.4869417" lon="11.4215283"><ele>542.75</ele><time>2026-04-20T10:01:22.916Z</time></trkpt><trkpt lat="43.4870167" lon="11.4216717"><ele>543.0</ele><time>2026-04-20T10:01:23.917Z</time></trkpt><trkpt lat="43.487105" lon="11.4218017"><ele>542.5</ele><time>2026-04-20T10:01:24.916Z</time></trkpt><trkpt lat="43.4871833" lon="11.42194"><ele>542.0</ele><time>2026-04-20T10:01:25.916Z</time></trkpt><trkpt lat="43.4872717" lon="11.4220667"><ele>541.5</ele><time>2026-04-20T10:01:26.917Z</time></trkpt><trkpt lat="43.4873733" lon="11.4221783"><ele>541.0</ele><time>2026-04-20T10:01:27.917Z</time></trkpt><trkpt lat="43.4874767" lon="11.422275"><ele>543.6</ele><time>2026-04-20T10:01:28.916Z</time></trkpt><trkpt lat="43.487585" lon="11.4223667"><ele>546.2</ele><time>2026-04-20T10:01:29.916Z</time></trkpt><trkpt lat="43.4876767" lon="11.4224567"><ele>548.8</ele><time>2026-04-20T10:01:30.916Z</time></trkpt><trkpt lat="43.4877533" lon="11.422535"><ele>551.4</ele><time>2026-04-20T10:01:31.916Z</time></trkpt><trkpt lat="43.4878283" lon="11.4225983"><ele>554.0</ele><time>2026-04-20T10:01:32.917Z</time></trkpt><trkpt lat="43.4879033" lon="11.4226517"><ele>554.6666666666666</ele><time>2026-04-20T10:01:33.916Z</time></trkpt><trkpt lat="43.487965" lon="11.422705"><ele>555.3333333333333</ele><time>2026-04-20T10:01:34.917Z</time></trkpt><trkpt lat="43.48803" lon="11.422755"><ele>556.0</ele><time>2026-04-20T10:01:35.917Z</time></trkpt><trkpt lat="43.4880983" lon="11.42279"><ele>556.6666666666666</ele><time>2026-04-20T10:01:36.917Z</time></trkpt><trkpt lat="43.48821" lon="11.422815"><ele>557.3333333333334</ele><time>2026-04-20T10:01:38.916Z</time></trkpt><trkpt lat="43.4882683" lon="11.4227633"><ele>558.0</ele><time>2026-04-20T10:01:39.916Z</time></trkpt><trkpt lat="43.4883033" lon="11.422675"><ele>558.0</ele><time>2026-04-20T10:01:40.916Z</time></trkpt><trkpt lat="43.4883267" lon="11.422565"><ele>558.0</ele><time>2026-04-20T10:01:41.917Z</time></trkpt><trkpt lat="43.488345" lon="11.4224467"><ele>558.0</ele><time>2026-04-20T10:01:42.916Z</time></trkpt><trkpt lat="43.4883667" lon="11.4223333"><ele>558.0</ele><time>2026-04-20T10:01:43.916Z</time></trkpt><trkpt lat="43.4884017" lon="11.4222333"><ele>558.0</ele><time>2026-04-20T10:01:44.916Z</time></trkpt><trkpt lat="43.4884517" lon="11.4221417"><ele>558.0</ele><time>2026-04-20T10:01:45.916Z</time></trkpt><trkpt lat="43.488515" lon="11.4220883"><ele>557.0</ele><time>2026-04-20T10:01:46.916Z</time></trkpt><trkpt lat="43.4885917" lon="11.4220317"><ele>556.0</ele><time>2026-04-20T10:01:47.916Z</time></trkpt><trkpt lat="43.4886783" lon="11.42199"><ele>555.0</ele><time>2026-04-20T10:01:48.916Z</time></trkpt><trkpt lat="43.4887733" lon="11.421955"><ele>554.0</ele><time>2026-04-20T10:01:49.916Z</time></trkpt><trkpt lat="43.48886" lon="11.4219283"><ele>553.0</ele><time>2026-04-20T10:01:50.916Z</time></trkpt><trkpt lat="43.4889433" lon="11.4219267"><ele>552.0</ele><time>2026-04-20T10:01:51.916Z</time></trkpt><trkpt lat="43.48904" lon="11.4219283"><ele>552.0</ele><time>2026-04-20T10:01:52.916Z</time></trkpt><trkpt lat="43.4891383" lon="11.42193"><ele>552.0</ele><time>2026-04-20T10:01:53.917Z</time></trkpt><trkpt lat="43.4892383" lon="11.421915"><ele>552.0</ele><time>2026-04-20T10:01:54.916Z</time></trkpt><trkpt lat="43.48934" lon="11.421865"><ele>552.0</ele><time>2026-04-20T10:01:55.916Z</time></trkpt><trkpt lat="43.4894483" lon="11.4218017"><ele>552.0</ele><time>2026-04-20T10:01:56.916Z</time></trkpt><trkpt lat="43.48955" lon="11.4217383"><ele>555.2</ele><time>2026-04-20T10:01:57.917Z</time></trkpt><trkpt lat="43.48965" lon="11.421675"><ele>558.4000000000001</ele><time>2026-04-20T10:01:58.916Z</time></trkpt><trkpt lat="43.4897367" lon="11.4216183"><ele>561.5999999999999</ele><time>2026-04-20T10:01:59.916Z</time></trkpt><trkpt lat="43.489835" lon="11.4215817"><ele>564.8</ele><time>2026-04-20T10:02:00.917Z</time></trkpt><trkpt lat="43.489935" lon="11.4215533"><ele>568.0</ele><time>2026-04-20T10:02:01.916Z</time></trkpt><trkpt lat="43.4900267" lon="11.4215217"><ele>568.0</ele><time>2026-04-20T10:02:02.916Z</time></trkpt><trkpt lat="43.4901183" lon="11.4214917"><ele>568.0</ele><time>2026-04-20T10:02:03.917Z</time></trkpt><trkpt lat="43.490215" lon="11.4214533"><ele>568.0</ele><time>2026-04-20T10:02:04.917Z</time></trkpt><trkpt lat="43.4903183" lon="11.4214283"><ele>568.0</ele><time>2026-04-20T10:02:05.916Z</time></trkpt><trkpt lat="43.4904233" lon="11.4214017"><ele>568.0</ele><time>2026-04-20T10:02:06.916Z</time></trkpt><trkpt lat="43.4905217" lon="11.4213667"><ele>569.6</ele><time>2026-04-20T10:02:07.917Z</time></trkpt><trkpt lat="43.4906217" lon="11.4213317"><ele>571.1999999999999</ele><time>2026-04-20T10:02:08.916Z</time></trkpt><trkpt lat="43.490715" lon="11.4213"><ele>572.8</ele><time>2026-04-20T10:02:09.916Z</time></trkpt><trkpt lat="43.49081" lon="11.42127"><ele>574.4</ele><time>2026-04-20T10:02:10.916Z</time></trkpt><trkpt lat="43.4908933" lon="11.421255"><ele>576.0</ele><time>2026-04-20T10:02:11.917Z</time></trkpt><trkpt lat="43.4909667" lon="11.4212333"><ele>572.8</ele><time>2026-04-20T10:02:12.916Z</time></trkpt><trkpt lat="43.4910367" lon="11.42122"><ele>569.6</ele><time>2026-04-20T10:02:13.916Z</time></trkpt><trkpt lat="43.4911467" lon="11.4211883"><ele>566.4</ele><time>2026-04-20T10:02:15.916Z</time></trkpt><trkpt lat="43.4912283" lon="11.4211767"><ele>563.2</ele><time>2026-04-20T10:02:17.916Z</time></trkpt><trkpt lat="43.4912983" lon="11.4211183"><ele>560.0</ele><time>2026-04-20T10:02:19.916Z</time></trkpt><trkpt lat="43.491345" lon="11.420965"><ele>560.0</ele><time>2026-04-20T10:02:21.916Z</time></trkpt><trkpt lat="43.4913467" lon="11.420845"><ele>560.0</ele><time>2026-04-20T10:02:22.916Z</time></trkpt><trkpt lat="43.49133" lon="11.4206933"><ele>560.0</ele><time>2026-04-20T10:02:23.916Z</time></trkpt><trkpt lat="43.4913" lon="11.420535"><ele>560.0</ele><time>2026-04-20T10:02:24.917Z</time></trkpt><trkpt lat="43.4912683" lon="11.420375"><ele>560.0</ele><time>2026-04-20T10:02:25.916Z</time></trkpt><trkpt lat="43.4912417" lon="11.4202117"><ele>559.25</ele><time>2026-04-20T10:02:26.916Z</time></trkpt><trkpt lat="43.491215" lon="11.4200533"><ele>558.5</ele><time>2026-04-20T10:02:27.916Z</time></trkpt><trkpt lat="43.4911883" lon="11.41989"><ele>557.75</ele><time>2026-04-20T10:02:28.916Z</time></trkpt><trkpt lat="43.491165" lon="11.4197233"><ele>557.0</ele><time>2026-04-20T10:02:29.916Z</time></trkpt><trkpt lat="43.4911317" lon="11.419555"><ele>558.5</ele><time>2026-04-20T10:02:30.916Z</time></trkpt><trkpt lat="43.4910917" lon="11.4193817"><ele>560.0</ele><time>2026-04-20T10:02:31.916Z</time></trkpt><trkpt lat="43.4910417" lon="11.4192067"><ele>561.5</ele><time>2026-04-20T10:02:32.916Z</time></trkpt><trkpt lat="43.4910083" lon="11.4190283"><ele>563.0</ele><time>2026-04-20T10:02:33.916Z</time></trkpt><trkpt lat="43.4909933" lon="11.4188533"><ele>564.25</ele><time>2026-04-20T10:02:34.917Z</time></trkpt><trkpt lat="43.49099" lon="11.4186733"><ele>565.5</ele><time>2026-04-20T10:02:35.917Z</time></trkpt><trkpt lat="43.49099" lon="11.4185017"><ele>566.75</ele><time>2026-04-20T10:02:36.916Z</time></trkpt><trkpt lat="43.49097" lon="11.4183483"><ele>568.0</ele><time>2026-04-20T10:02:37.916Z</time></trkpt><trkpt lat="43.4909267" lon="11.4182117"><ele>568.0</ele><time>2026-04-20T10:02:38.916Z</time></trkpt><trkpt lat="43.490845" lon="11.4181033"><ele>568.0</ele><time>2026-04-20T10:02:39.916Z</time></trkpt><trkpt lat="43.490745" lon="11.4180317"><ele>568.0</ele><time>2026-04-20T10:02:40.916Z</time></trkpt><trkpt lat="43.4906283" lon="11.4179767"><ele>568.0</ele><time>2026-04-20T10:02:41.917Z</time></trkpt><trkpt lat="43.4905167" lon="11.417905"><ele>567.5</ele><time>2026-04-20T10:02:42.916Z</time></trkpt><trkpt lat="43.490415" lon="11.4178067"><ele>567.0</ele><time>2026-04-20T10:02:43.916Z</time></trkpt><trkpt lat="43.490325" lon="11.4176783"><ele>566.5</ele><time>2026-04-20T10:02:44.917Z</time></trkpt><trkpt lat="43.490245" lon="11.417535"><ele>566.0</ele><time>2026-04-20T10:02:45.916Z</time></trkpt><trkpt lat="43.4901833" lon="11.4173717"><ele>566.0</ele><time>2026-04-20T10:02:46.916Z</time></trkpt><trkpt lat="43.490145" lon="11.417185"><ele>566.0</ele><time>2026-04-20T10:02:47.916Z</time></trkpt><trkpt lat="43.4901117" lon="11.4169967"><ele>566.0</ele><time>2026-04-20T10:02:48.917Z</time></trkpt><trkpt lat="43.490085" lon="11.4168183"><ele>566.0</ele><time>2026-04-20T10:02:49.916Z</time></trkpt><trkpt lat="43.49008" lon="11.4166267"><ele>565.0</ele><time>2026-04-20T10:02:50.916Z</time></trkpt><trkpt lat="43.4901017" lon="11.416435"><ele>564.0</ele><time>2026-04-20T10:02:51.917Z</time></trkpt><trkpt lat="43.49014" lon="11.416235"><ele>563.0</ele><time>2026-04-20T10:02:52.916Z</time></trkpt><trkpt lat="43.490185" lon="11.4160367"><ele>562.0</ele><time>2026-04-20T10:02:53.916Z</time></trkpt><trkpt lat="43.490235" lon="11.415835"><ele>560.0</ele><time>2026-04-20T10:02:54.916Z</time></trkpt><trkpt lat="43.4902817" lon="11.4156283"><ele>558.0</ele><time>2026-04-20T10:02:55.916Z</time></trkpt><trkpt lat="43.49032" lon="11.4154183"><ele>556.0</ele><time>2026-04-20T10:02:56.915Z</time></trkpt><trkpt lat="43.490365" lon="11.4152"><ele>555.3333333333334</ele><time>2026-04-20T10:02:57.916Z</time></trkpt><trkpt lat="43.4904017" lon="11.4149883"><ele>554.6666666666666</ele><time>2026-04-20T10:02:58.915Z</time></trkpt><trkpt lat="43.49044" lon="11.4147733"><ele>554.0</ele><time>2026-04-20T10:02:59.915Z</time></trkpt><trkpt lat="43.490465" lon="11.4145717"><ele>553.75</ele><time>2026-04-20T10:03:00.916Z</time></trkpt><trkpt lat="43.4904917" lon="11.414375"><ele>553.5</ele><time>2026-04-20T10:03:01.916Z</time></trkpt><trkpt lat="43.4905267" lon="11.414175"><ele>553.25</ele><time>2026-04-20T10:03:02.915Z</time></trkpt><trkpt lat="43.4905617" lon="11.413985"><ele>553.0</ele><time>2026-04-20T10:03:03.915Z</time></trkpt><trkpt lat="43.4905917" lon="11.413795"><ele>552.0</ele><time>2026-04-20T10:03:04.915Z</time></trkpt><trkpt lat="43.4906183" lon="11.4136083"><ele>551.0</ele><time>2026-04-20T10:03:05.915Z</time></trkpt><trkpt lat="43.4906333" lon="11.4134267"><ele>550.0</ele><time>2026-04-20T10:03:06.915Z</time></trkpt><trkpt lat="43.490605" lon="11.4132517"><ele>549.0</ele><time>2026-04-20T10:03:07.915Z</time></trkpt><trkpt lat="43.490535" lon="11.4130833"><ele>549.25</ele><time>2026-04-20T10:03:08.915Z</time></trkpt><trkpt lat="43.4904467" lon="11.4129267"><ele>549.5</ele><time>2026-04-20T10:03:09.915Z</time></trkpt><trkpt lat="43.4903417" lon="11.412775"><ele>549.75</ele><time>2026-04-20T10:03:10.916Z</time></trkpt><trkpt lat="43.4902333" lon="11.4126267"><ele>550.0</ele><time>2026-04-20T10:03:11.915Z</time></trkpt><trkpt lat="43.490115" lon="11.4124783"><ele>552.0</ele><time>2026-04-20T10:03:12.916Z</time></trkpt><trkpt lat="43.4899867" lon="11.4123483"><ele>554.0</ele><time>2026-04-20T10:03:13.915Z</time></trkpt><trkpt lat="43.4898717" lon="11.412225"><ele>556.0</ele><time>2026-04-20T10:03:14.916Z</time></trkpt><trkpt lat="43.4897617" lon="11.4121017"><ele>558.0</ele><time>2026-04-20T10:03:15.915Z</time></trkpt><trkpt lat="43.4896567" lon="11.4119733"><ele>556.5</ele><time>2026-04-20T10:03:16.915Z</time></trkpt><trkpt lat="43.489565" lon="11.4118317"><ele>555.0</ele><time>2026-04-20T10:03:17.916Z</time></trkpt><trkpt lat="43.4895" lon="11.411655"><ele>553.5</ele><time>2026-04-20T10:03:18.915Z</time></trkpt><trkpt lat="43.4894583" lon="11.4114817"><ele>552.0</ele><time>2026-04-20T10:03:19.915Z</time></trkpt><trkpt lat="43.4894367" lon="11.4113067"><ele>551.25</ele><time>2026-04-20T10:03:20.915Z</time></trkpt><trkpt lat="43.4894467" lon="11.41113"><ele>550.5</ele><time>2026-04-20T10:03:21.916Z</time></trkpt><trkpt lat="43.4894917" lon="11.4109517"><ele>549.75</ele><time>2026-04-20T10:03:22.915Z</time></trkpt><trkpt lat="43.4895583" lon="11.4107917"><ele>549.0</ele><time>2026-04-20T10:03:23.915Z</time></trkpt><trkpt lat="43.4896483" lon="11.4106567"><ele>548.75</ele><time>2026-04-20T10:03:24.916Z</time></trkpt><trkpt lat="43.48975" lon="11.4105083"><ele>548.5</ele><time>2026-04-20T10:03:25.915Z</time></trkpt><trkpt lat="43.48984" lon="11.410345"><ele>548.25</ele><time>2026-04-20T10:03:26.915Z</time></trkpt><trkpt lat="43.48991" lon="11.4101633"><ele>548.0</ele><time>2026-04-20T10:03:27.915Z</time></trkpt><trkpt lat="43.4899667" lon="11.4099683"><ele>548.0</ele><time>2026-04-20T10:03:28.915Z</time></trkpt><trkpt lat="43.490005" lon="11.4097617"><ele>548.0</ele><time>2026-04-20T10:03:29.915Z</time></trkpt><trkpt lat="43.490025" lon="11.409545"><ele>548.0</ele><time>2026-04-20T10:03:30.915Z</time></trkpt><trkpt lat="43.4900367" lon="11.4093267"><ele>547.3333333333333</ele><time>2026-04-20T10:03:31.915Z</time></trkpt><trkpt lat="43.4900433" lon="11.4091133"><ele>546.6666666666666</ele><time>2026-04-20T10:03:32.916Z</time></trkpt><trkpt lat="43.4900467" lon="11.408905"><ele>546.0</ele><time>2026-04-20T10:03:33.915Z</time></trkpt><trkpt lat="43.4900433" lon="11.40869"><ele>544.6666666666666</ele><time>2026-04-20T10:03:34.915Z</time></trkpt><trkpt lat="43.49004" lon="11.4084667"><ele>543.3333333333333</ele><time>2026-04-20T10:03:35.916Z</time></trkpt><trkpt lat="43.490035" lon="11.408255"><ele>542.0</ele><time>2026-04-20T10:03:36.915Z</time></trkpt><trkpt lat="43.4900183" lon="11.408045"><ele>541.5</ele><time>2026-04-20T10:03:37.915Z</time></trkpt><trkpt lat="43.4899967" lon="11.4078483"><ele>541.0</ele><time>2026-04-20T10:03:38.915Z</time></trkpt><trkpt lat="43.4899667" lon="11.4076617"><ele>540.5</ele><time>2026-04-20T10:03:39.915Z</time></trkpt><trkpt lat="43.4899233" lon="11.407485"><ele>540.0</ele><time>2026-04-20T10:03:40.915Z</time></trkpt><trkpt lat="43.4898617" lon="11.4073183"><ele>538.3333333333334</ele><time>2026-04-20T10:03:41.915Z</time></trkpt><trkpt lat="43.48977" lon="11.40716"><ele>536.6666666666667</ele><time>2026-04-20T10:03:42.915Z</time></trkpt><trkpt lat="43.4896667" lon="11.4070033"><ele>535.0</ele><time>2026-04-20T10:03:43.915Z</time></trkpt><trkpt lat="43.4895567" lon="11.406845"><ele>534.6666666666667</ele><time>2026-04-20T10:03:44.915Z</time></trkpt><trkpt lat="43.4894483" lon="11.40669"><ele>534.3333333333334</ele><time>2026-04-20T10:03:45.916Z</time></trkpt><trkpt lat="43.489345" lon="11.4065283"><ele>534.0</ele><time>2026-04-20T10:03:46.915Z</time></trkpt><trkpt lat="43.4892567" lon="11.4063633"><ele>534.0</ele><time>2026-04-20T10:03:47.915Z</time></trkpt><trkpt lat="43.489185" lon="11.4061883"><ele>534.0</ele><time>2026-04-20T10:03:48.915Z</time></trkpt><trkpt lat="43.48913" lon="11.4060017"><ele>534.0</ele><time>2026-04-20T10:03:49.916Z</time></trkpt><trkpt lat="43.4890867" lon="11.405805"><ele>534.0</ele><time>2026-04-20T10:03:50.915Z</time></trkpt><trkpt lat="43.4890517" lon="11.4056117"><ele>531.3333333333334</ele><time>2026-04-20T10:03:51.915Z</time></trkpt><trkpt lat="43.4890167" lon="11.405405"><ele>528.6666666666667</ele><time>2026-04-20T10:03:52.915Z</time></trkpt><trkpt lat="43.4889717" lon="11.40521"><ele>526.0</ele><time>2026-04-20T10:03:53.915Z</time></trkpt><trkpt lat="43.488915" lon="11.4050167"><ele>526.0</ele><time>2026-04-20T10:03:54.915Z</time></trkpt><trkpt lat="43.4888533" lon="11.404845"><ele>526.0</ele><time>2026-04-20T10:03:55.915Z</time></trkpt><trkpt lat="43.4887917" lon="11.40468"><ele>526.0</ele><time>2026-04-20T10:03:56.915Z</time></trkpt><trkpt lat="43.4887367" lon="11.40451"><ele>526.0</ele><time>2026-04-20T10:03:57.916Z</time></trkpt><trkpt lat="43.4887017" lon="11.404335"><ele>529.0</ele><time>2026-04-20T10:03:58.915Z</time></trkpt><trkpt lat="43.4886967" lon="11.4041367"><ele>532.0</ele><time>2026-04-20T10:03:59.915Z</time></trkpt><trkpt lat="43.4887033" lon="11.403935"><ele>535.0</ele><time>2026-04-20T10:04:00.916Z</time></trkpt><trkpt lat="43.4887283" lon="11.4037433"><ele>538.0</ele><time>2026-04-20T10:04:01.916Z</time></trkpt><trkpt lat="43.488755" lon="11.4035583"><ele>532.25</ele><time>2026-04-20T10:04:02.915Z</time></trkpt><trkpt lat="43.4887667" lon="11.4033583"><ele>526.5</ele><time>2026-04-20T10:04:03.915Z</time></trkpt><trkpt lat="43.48876" lon="11.4031583"><ele>520.75</ele><time>2026-04-20T10:04:04.915Z</time></trkpt><trkpt lat="43.4887617" lon="11.4029567"><ele>515.0</ele><time>2026-04-20T10:04:05.915Z</time></trkpt><trkpt lat="43.4887717" lon="11.4027517"><ele>514.5</ele><time>2026-04-20T10:04:06.916Z</time></trkpt><trkpt lat="43.4887867" lon="11.4025633"><ele>514.0</ele><time>2026-04-20T10:04:07.915Z</time></trkpt><trkpt lat="43.488795" lon="11.4023833"><ele>513.5</ele><time>2026-04-20T10:04:08.915Z</time></trkpt><trkpt lat="43.4888083" lon="11.4022117"><ele>513.0</ele><time>2026-04-20T10:04:09.915Z</time></trkpt><trkpt lat="43.4888417" lon="11.4020433"><ele>512.75</ele><time>2026-04-20T10:04:10.915Z</time></trkpt><trkpt lat="43.4888867" lon="11.401875"><ele>512.5</ele><time>2026-04-20T10:04:11.915Z</time></trkpt><trkpt lat="43.4889367" lon="11.401725"><ele>512.25</ele><time>2026-04-20T10:04:12.916Z</time></trkpt><trkpt lat="43.488955" lon="11.40157"><ele>512.0</ele><time>2026-04-20T10:04:13.916Z</time></trkpt><trkpt lat="43.48895" lon="11.4014317"><ele>512.25</ele><time>2026-04-20T10:04:14.915Z</time></trkpt><trkpt lat="43.48891" lon="11.4013017"><ele>512.5</ele><time>2026-04-20T10:04:15.915Z</time></trkpt><trkpt lat="43.4888333" lon="11.4011833"><ele>512.75</ele><time>2026-04-20T10:04:16.915Z</time></trkpt><trkpt lat="43.488735" lon="11.4011033"><ele>513.0</ele><time>2026-04-20T10:04:17.915Z</time></trkpt><trkpt lat="43.4886183" lon="11.4010217"><ele>513.0</ele><time>2026-04-20T10:04:18.915Z</time></trkpt><trkpt lat="43.488505" lon="11.4009383"><ele>513.0</ele><time>2026-04-20T10:04:19.915Z</time></trkpt><trkpt lat="43.4884" lon="11.4008583"><ele>513.0</ele><time>2026-04-20T10:04:20.915Z</time></trkpt><trkpt lat="43.488295" lon="11.4007833"><ele>513.0</ele><time>2026-04-20T10:04:21.915Z</time></trkpt><trkpt lat="43.488185" lon="11.4007183"><ele>513.0</ele><time>2026-04-20T10:04:22.915Z</time></trkpt><trkpt lat="43.4880833" lon="11.4006817"><ele>513.0</ele><time>2026-04-20T10:04:23.915Z</time></trkpt><trkpt lat="43.4879783" lon="11.4007033"><ele>513.0</ele><time>2026-04-20T10:04:24.915Z</time></trkpt><trkpt lat="43.4878917" lon="11.4007733"><ele>513.0</ele><time>2026-04-20T10:04:25.915Z</time></trkpt><trkpt lat="43.487825" lon="11.4008817"><ele>513.0</ele><time>2026-04-20T10:04:26.915Z</time></trkpt><trkpt lat="43.4877683" lon="11.4009983"><ele>511.6666666666667</ele><time>2026-04-20T10:04:27.915Z</time></trkpt><trkpt lat="43.4877117" lon="11.4010983"><ele>510.33333333333337</ele><time>2026-04-20T10:04:28.915Z</time></trkpt><trkpt lat="43.487655" lon="11.401185"><ele>509.0</ele><time>2026-04-20T10:04:29.915Z</time></trkpt><trkpt lat="43.4875967" lon="11.401235"><ele>507.6666666666667</ele><time>2026-04-20T10:04:30.915Z</time></trkpt><trkpt lat="43.4875283" lon="11.401255"><ele>506.33333333333337</ele><time>2026-04-20T10:04:31.915Z</time></trkpt><trkpt lat="43.487475" lon="11.4011933"><ele>505.0</ele><time>2026-04-20T10:04:32.915Z</time></trkpt><trkpt lat="43.4874583" lon="11.4011033"><ele>505.0</ele><time>2026-04-20T10:04:33.915Z</time></trkpt><trkpt lat="43.48748" lon="11.400985"><ele>505.0</ele><time>2026-04-20T10:04:34.915Z</time></trkpt><trkpt lat="43.4875183" lon="11.4008367"><ele>505.0</ele><time>2026-04-20T10:04:35.915Z</time></trkpt><trkpt lat="43.4875583" lon="11.40065"><ele>505.0</ele><time>2026-04-20T10:04:36.915Z</time></trkpt><trkpt lat="43.4875767" lon="11.4004467"><ele>504.2</ele><time>2026-04-20T10:04:37.915Z</time></trkpt><trkpt lat="43.4875933" lon="11.400255"><ele>503.4</ele><time>2026-04-20T10:04:38.915Z</time></trkpt><trkpt lat="43.4875967" lon="11.4000867"><ele>502.6</ele><time>2026-04-20T10:04:39.916Z</time></trkpt><trkpt lat="43.487615" lon="11.39995"><ele>501.8</ele><time>2026-04-20T10:04:40.915Z</time></trkpt><trkpt lat="43.4876483" lon="11.3998417"><ele>501.0</ele><time>2026-04-20T10:04:41.915Z</time></trkpt><trkpt lat="43.4876983" lon="11.3997517"><ele>501.0</ele><time>2026-04-20T10:04:42.915Z</time></trkpt><trkpt lat="43.4877667" lon="11.3997167"><ele>501.0</ele><time>2026-04-20T10:04:43.915Z</time></trkpt><trkpt lat="43.487845" lon="11.3997133"><ele>501.0</ele><time>2026-04-20T10:04:44.916Z</time></trkpt><trkpt lat="43.4879333" lon="11.399725"><ele>501.0</ele><time>2026-04-20T10:04:45.916Z</time></trkpt><trkpt lat="43.488035" lon="11.3997217"><ele>501.0</ele><time>2026-04-20T10:04:46.915Z</time></trkpt><trkpt lat="43.488135" lon="11.3996917"><ele>501.0</ele><time>2026-04-20T10:04:47.915Z</time></trkpt><trkpt lat="43.4882433" lon="11.3996433"><ele>500.75</ele><time>2026-04-20T10:04:48.915Z</time></trkpt><trkpt lat="43.4883483" lon="11.3995717"><ele>500.5</ele><time>2026-04-20T10:04:49.915Z</time></trkpt><trkpt lat="43.4884367" lon="11.3994567"><ele>500.25</ele><time>2026-04-20T10:04:50.915Z</time></trkpt><trkpt lat="43.4885183" lon="11.3993033"><ele>500.0</ele><time>2026-04-20T10:04:51.915Z</time></trkpt><trkpt lat="43.4885983" lon="11.39914"><ele>500.0</ele><time>2026-04-20T10:04:52.915Z</time></trkpt><trkpt lat="43.488675" lon="11.3989783"><ele>500.0</ele><time>2026-04-20T10:04:53.915Z</time></trkpt><trkpt lat="43.4887583" lon="11.3987983"><ele>500.0</ele><time>2026-04-20T10:04:54.915Z</time></trkpt><trkpt lat="43.48884" lon="11.3986167"><ele>497.5</ele><time>2026-04-20T10:04:55.915Z</time></trkpt><trkpt lat="43.4889233" lon="11.3984317"><ele>495.0</ele><time>2026-04-20T10:04:56.915Z</time></trkpt><trkpt lat="43.489" lon="11.398265"><ele>492.5</ele><time>2026-04-20T10:04:57.915Z</time></trkpt><trkpt lat="43.489075" lon="11.3980967"><ele>490.0</ele><time>2026-04-20T10:04:58.915Z</time></trkpt><trkpt lat="43.4891467" lon="11.3979383"><ele>490.0</ele><time>2026-04-20T10:04:59.915Z</time></trkpt><trkpt lat="43.4892167" lon="11.3977833"><ele>490.0</ele><time>2026-04-20T10:05:00.915Z</time></trkpt><trkpt lat="43.4892917" lon="11.3976267"><ele>490.0</ele><time>2026-04-20T10:05:01.915Z</time></trkpt><trkpt lat="43.48936" lon="11.3974817"><ele>490.0</ele><time>2026-04-20T10:05:02.915Z</time></trkpt><trkpt lat="43.4894183" lon="11.397345"><ele>490.0</ele><time>2026-04-20T10:05:03.915Z</time></trkpt><trkpt lat="43.4894817" lon="11.3971967"><ele>490.0</ele><time>2026-04-20T10:05:04.915Z</time></trkpt><trkpt lat="43.489555" lon="11.3970483"><ele>490.0</ele><time>2026-04-20T10:05:05.915Z</time></trkpt><trkpt lat="43.4896233" lon="11.39691"><ele>490.0</ele><time>2026-04-20T10:05:06.915Z</time></trkpt><trkpt lat="43.4897033" lon="11.3967717"><ele>485.75</ele><time>2026-04-20T10:05:07.915Z</time></trkpt><trkpt lat="43.4897883" lon="11.39665"><ele>481.5</ele><time>2026-04-20T10:05:08.915Z</time></trkpt><trkpt lat="43.4898717" lon="11.3965417"><ele>477.25</ele><time>2026-04-20T10:05:09.915Z</time></trkpt><trkpt lat="43.489955" lon="11.396425"><ele>473.0</ele><time>2026-04-20T10:05:10.916Z</time></trkpt><trkpt lat="43.49002" lon="11.3962983"><ele>473.0</ele><time>2026-04-20T10:05:11.915Z</time></trkpt><trkpt lat="43.4900683" lon="11.3961533"><ele>473.0</ele><time>2026-04-20T10:05:12.915Z</time></trkpt><trkpt lat="43.4900983" lon="11.3959983"><ele>473.0</ele><time>2026-04-20T10:05:13.915Z</time></trkpt><trkpt lat="43.4901167" lon="11.3958333"><ele>473.0</ele><time>2026-04-20T10:05:14.915Z</time></trkpt><trkpt lat="43.490135" lon="11.3956617"><ele>472.0</ele><time>2026-04-20T10:05:15.915Z</time></trkpt><trkpt lat="43.490145" lon="11.3954817"><ele>471.0</ele><time>2026-04-20T10:05:16.915Z</time></trkpt><trkpt lat="43.490145" lon="11.3953017"><ele>470.0</ele><time>2026-04-20T10:05:17.915Z</time></trkpt><trkpt lat="43.4901417" lon="11.39513"><ele>469.0</ele><time>2026-04-20T10:05:18.915Z</time></trkpt><trkpt lat="43.4901333" lon="11.39496"><ele>469.0</ele><time>2026-04-20T10:05:19.916Z</time></trkpt><trkpt lat="43.4901183" lon="11.3947967"><ele>469.0</ele><time>2026-04-20T10:05:20.915Z</time></trkpt><trkpt lat="43.4901183" lon="11.39464"><ele>469.0</ele><time>2026-04-20T10:05:21.915Z</time></trkpt><trkpt lat="43.490125" lon="11.3944783"><ele>469.0</ele><time>2026-04-20T10:05:22.915Z</time></trkpt><trkpt lat="43.4901533" lon="11.3943217"><ele>467.75</ele><time>2026-04-20T10:05:23.915Z</time></trkpt><trkpt lat="43.4901933" lon="11.3941667"><ele>466.5</ele><time>2026-04-20T10:05:24.915Z</time></trkpt><trkpt lat="43.4902483" lon="11.3940183"><ele>465.25</ele><time>2026-04-20T10:05:25.915Z</time></trkpt><trkpt lat="43.4903117" lon="11.3938717"><ele>464.0</ele><time>2026-04-20T10:05:26.916Z</time></trkpt><trkpt lat="43.4903683" lon="11.3937333"><ele>463.0</ele><time>2026-04-20T10:05:27.915Z</time></trkpt><trkpt lat="43.4904083" lon="11.3935883"><ele>462.0</ele><time>2026-04-20T10:05:28.915Z</time></trkpt><trkpt lat="43.490435" lon="11.3934333"><ele>461.0</ele><time>2026-04-20T10:05:29.915Z</time></trkpt><trkpt lat="43.4904317" lon="11.3932767"><ele>460.0</ele><time>2026-04-20T10:05:30.915Z</time></trkpt><trkpt lat="43.4904183" lon="11.393125"><ele>459.25</ele><time>2026-04-20T10:05:31.915Z</time></trkpt><trkpt lat="43.490385" lon="11.3929783"><ele>458.5</ele><time>2026-04-20T10:05:32.916Z</time></trkpt><trkpt lat="43.490345" lon="11.39283"><ele>457.75</ele><time>2026-04-20T10:05:33.915Z</time></trkpt><trkpt lat="43.4903017" lon="11.3926767"><ele>457.0</ele><time>2026-04-20T10:05:34.915Z</time></trkpt><trkpt lat="43.49026" lon="11.39253"><ele>457.0</ele><time>2026-04-20T10:05:35.916Z</time></trkpt><trkpt lat="43.49023" lon="11.3923783"><ele>457.0</ele><time>2026-04-20T10:05:36.915Z</time></trkpt><trkpt lat="43.490215" lon="11.3922167"><ele>457.0</ele><time>2026-04-20T10:05:37.915Z</time></trkpt><trkpt lat="43.4902083" lon="11.3920467"><ele>457.0</ele><time>2026-04-20T10:05:38.916Z</time></trkpt><trkpt lat="43.4902067" lon="11.39188"><ele>456.75</ele><time>2026-04-20T10:05:39.915Z</time></trkpt><trkpt lat="43.490215" lon="11.3917167"><ele>456.5</ele><time>2026-04-20T10:05:40.915Z</time></trkpt><trkpt lat="43.4902183" lon="11.39156"><ele>456.25</ele><time>2026-04-20T10:05:41.916Z</time></trkpt><trkpt lat="43.4902117" lon="11.3914083"><ele>456.0</ele><time>2026-04-20T10:05:42.916Z</time></trkpt><trkpt lat="43.4901767" lon="11.3912583"><ele>456.6</ele><time>2026-04-20T10:05:43.915Z</time></trkpt><trkpt lat="43.4901183" lon="11.3911233"><ele>457.20000000000005</ele><time>2026-04-20T10:05:44.915Z</time></trkpt><trkpt lat="43.4900367" lon="11.3910167"><ele>457.79999999999995</ele><time>2026-04-20T10:05:45.915Z</time></trkpt><trkpt lat="43.4899533" lon="11.3909133"><ele>458.4</ele><time>2026-04-20T10:05:46.915Z</time></trkpt><trkpt lat="43.4898783" lon="11.3908067"><ele>459.0</ele><time>2026-04-20T10:05:47.915Z</time></trkpt><trkpt lat="43.48982" lon="11.3907083"><ele>459.0</ele><time>2026-04-20T10:05:48.915Z</time></trkpt><trkpt lat="43.4897633" lon="11.390605"><ele>459.0</ele><time>2026-04-20T10:05:49.916Z</time></trkpt><trkpt lat="43.4897133" lon="11.3904983"><ele>459.0</ele><time>2026-04-20T10:05:50.916Z</time></trkpt><trkpt lat="43.4896717" lon="11.39039"><ele>459.0</ele><time>2026-04-20T10:05:51.915Z</time></trkpt><trkpt lat="43.48963" lon="11.3902767"><ele>459.0</ele><time>2026-04-20T10:05:52.915Z</time></trkpt><trkpt lat="43.4895933" lon="11.39015"><ele>458.3333333333333</ele><time>2026-04-20T10:05:53.915Z</time></trkpt><trkpt lat="43.4895483" lon="11.3900333"><ele>457.66666666666663</ele><time>2026-04-20T10:05:54.915Z</time></trkpt><trkpt lat="43.4895083" lon="11.3899217"><ele>457.0</ele><time>2026-04-20T10:05:55.916Z</time></trkpt><trkpt lat="43.489465" lon="11.3898067"><ele>456.3333333333333</ele><time>2026-04-20T10:05:56.915Z</time></trkpt><trkpt lat="43.4894183" lon="11.3897017"><ele>455.66666666666663</ele><time>2026-04-20T10:05:57.915Z</time></trkpt><trkpt lat="43.489385" lon="11.3896017"><ele>455.0</ele><time>2026-04-20T10:05:58.915Z</time></trkpt><trkpt lat="43.4893467" lon="11.3894967"><ele>455.0</ele><time>2026-04-20T10:05:59.915Z</time></trkpt><trkpt lat="43.48931" lon="11.3893833"><ele>455.0</ele><time>2026-04-20T10:06:00.915Z</time></trkpt><trkpt lat="43.4892817" lon="11.389265"><ele>455.0</ele><time>2026-04-20T10:06:01.915Z</time></trkpt><trkpt lat="43.4892733" lon="11.3891467"><ele>455.0</ele><time>2026-04-20T10:06:02.915Z</time></trkpt><trkpt lat="43.4892867" lon="11.389015"><ele>455.0</ele><time>2026-04-20T10:06:03.916Z</time></trkpt><trkpt lat="43.4893217" lon="11.3888883"><ele>454.0</ele><time>2026-04-20T10:06:04.915Z</time></trkpt><trkpt lat="43.489375" lon="11.3887383"><ele>453.0</ele><time>2026-04-20T10:06:05.915Z</time></trkpt><trkpt lat="43.4894083" lon="11.3885733"><ele>452.0</ele><time>2026-04-20T10:06:06.916Z</time></trkpt><trkpt lat="43.48943" lon="11.388405"><ele>451.0</ele><time>2026-04-20T10:06:07.915Z</time></trkpt><trkpt lat="43.4894467" lon="11.388245"><ele>451.0</ele><time>2026-04-20T10:06:08.916Z</time></trkpt><trkpt lat="43.489465" lon="11.3880817"><ele>451.0</ele><time>2026-04-20T10:06:09.915Z</time></trkpt><trkpt lat="43.48948" lon="11.3879133"><ele>451.0</ele><time>2026-04-20T10:06:10.915Z</time></trkpt><trkpt lat="43.489505" lon="11.3877433"><ele>451.0</ele><time>2026-04-20T10:06:11.915Z</time></trkpt><trkpt lat="43.4895233" lon="11.3875683"><ele>450.25</ele><time>2026-04-20T10:06:12.916Z</time></trkpt><trkpt lat="43.4895367" lon="11.3873933"><ele>449.5</ele><time>2026-04-20T10:06:13.915Z</time></trkpt><trkpt lat="43.48955" lon="11.3872233"><ele>448.75</ele><time>2026-04-20T10:06:14.915Z</time></trkpt><trkpt lat="43.48957" lon="11.3870567"><ele>448.0</ele><time>2026-04-20T10:06:15.916Z</time></trkpt><trkpt lat="43.4895933" lon="11.3869033"><ele>449.83333333333337</ele><time>2026-04-20T10:06:16.916Z</time></trkpt><trkpt lat="43.48962" lon="11.3867767"><ele>451.6666666666667</ele><time>2026-04-20T10:06:17.916Z</time></trkpt><trkpt lat="43.48965" lon="11.3866483"><ele>453.5</ele><time>2026-04-20T10:06:18.916Z</time></trkpt><trkpt lat="43.4896967" lon="11.38654"><ele>455.33333333333337</ele><time>2026-04-20T10:06:19.915Z</time></trkpt><trkpt lat="43.489755" lon="11.3864583"><ele>457.1666666666667</ele><time>2026-04-20T10:06:20.915Z</time></trkpt><trkpt lat="43.4898067" lon="11.3863933"><ele>459.0</ele><time>2026-04-20T10:06:21.915Z</time></trkpt><trkpt lat="43.4898633" lon="11.38626"><ele>459.0</ele><time>2026-04-20T10:06:23.915Z</time></trkpt><trkpt lat="43.4898367" lon="11.3860867"><ele>459.0</ele><time>2026-04-20T10:06:25.915Z</time></trkpt><trkpt lat="43.4898317" lon="11.385985"><ele>459.0</ele><time>2026-04-20T10:06:26.915Z</time></trkpt><trkpt lat="43.489845" lon="11.3858767"><ele>459.0</ele><time>2026-04-20T10:06:27.915Z</time></trkpt><trkpt lat="43.4898717" lon="11.3857383"><ele>459.0</ele><time>2026-04-20T10:06:28.915Z</time></trkpt><trkpt lat="43.4898983" lon="11.3856067"><ele>458.79999999999995</ele><time>2026-04-20T10:06:29.915Z</time></trkpt><trkpt lat="43.48993" lon="11.38548"><ele>458.59999999999997</ele><time>2026-04-20T10:06:30.915Z</time></trkpt><trkpt lat="43.4899767" lon="11.385355"><ele>458.4</ele><time>2026-04-20T10:06:31.915Z</time></trkpt><trkpt lat="43.4900317" lon="11.385235"><ele>458.2</ele><time>2026-04-20T10:06:32.916Z</time></trkpt><trkpt lat="43.4901017" lon="11.3851233"><ele>458.0</ele><time>2026-04-20T10:06:33.915Z</time></trkpt><trkpt lat="43.4901867" lon="11.3850267"><ele>458.0</ele><time>2026-04-20T10:06:34.915Z</time></trkpt><trkpt lat="43.4902767" lon="11.3849317"><ele>458.0</ele><time>2026-04-20T10:06:35.915Z</time></trkpt><trkpt lat="43.490375" lon="11.38482"><ele>458.0</ele><time>2026-04-20T10:06:36.916Z</time></trkpt><trkpt lat="43.49048" lon="11.384705"><ele>458.0</ele><time>2026-04-20T10:06:37.915Z</time></trkpt><trkpt lat="43.4905833" lon="11.384595"><ele>457.79999999999995</ele><time>2026-04-20T10:06:38.916Z</time></trkpt><trkpt lat="43.4906717" lon="11.3844933"><ele>457.59999999999997</ele><time>2026-04-20T10:06:39.915Z</time></trkpt><trkpt lat="43.49077" lon="11.3844083"><ele>457.40000000000003</ele><time>2026-04-20T10:06:40.915Z</time></trkpt><trkpt lat="43.490855" lon="11.3843217"><ele>457.20000000000005</ele><time>2026-04-20T10:06:41.915Z</time></trkpt><trkpt lat="43.4909383" lon="11.384235"><ele>457.0</ele><time>2026-04-20T10:06:42.915Z</time></trkpt><trkpt lat="43.491025" lon="11.3841333"><ele>457.0</ele><time>2026-04-20T10:06:43.915Z</time></trkpt><trkpt lat="43.491105" lon="11.384005"><ele>457.0</ele><time>2026-04-20T10:06:44.915Z</time></trkpt><trkpt lat="43.491175" lon="11.3838633"><ele>457.0</ele><time>2026-04-20T10:06:45.915Z</time></trkpt><trkpt lat="43.4912317" lon="11.3837117"><ele>457.0</ele><time>2026-04-20T10:06:46.915Z</time></trkpt><trkpt lat="43.4912817" lon="11.3835483"><ele>451.25</ele><time>2026-04-20T10:06:47.915Z</time></trkpt><trkpt lat="43.4913167" lon="11.38337"><ele>445.5</ele><time>2026-04-20T10:06:48.915Z</time></trkpt><trkpt lat="43.49133" lon="11.383195"><ele>439.75</ele><time>2026-04-20T10:06:49.915Z</time></trkpt><trkpt lat="43.4913317" lon="11.383025"><ele>434.0</ele><time>2026-04-20T10:06:50.916Z</time></trkpt><trkpt lat="43.49132" lon="11.3828683"><ele>433.0</ele><time>2026-04-20T10:06:51.915Z</time></trkpt><trkpt lat="43.49128" lon="11.3827233"><ele>432.0</ele><time>2026-04-20T10:06:52.915Z</time></trkpt><trkpt lat="43.491215" lon="11.3825967"><ele>431.0</ele><time>2026-04-20T10:06:53.916Z</time></trkpt><trkpt lat="43.491125" lon="11.3824867"><ele>430.0</ele><time>2026-04-20T10:06:54.916Z</time></trkpt><trkpt lat="43.491025" lon="11.3824117"><ele>430.5</ele><time>2026-04-20T10:06:55.915Z</time></trkpt><trkpt lat="43.4909217" lon="11.382335"><ele>431.0</ele><time>2026-04-20T10:06:56.915Z</time></trkpt><trkpt lat="43.49083" lon="11.3822567"><ele>431.5</ele><time>2026-04-20T10:06:57.915Z</time></trkpt><trkpt lat="43.4907483" lon="11.3821467"><ele>432.0</ele><time>2026-04-20T10:06:58.915Z</time></trkpt><trkpt lat="43.4906833" lon="11.3820167"><ele>432.0</ele><time>2026-04-20T10:06:59.915Z</time></trkpt><trkpt lat="43.4906133" lon="11.3818883"><ele>432.0</ele><time>2026-04-20T10:07:00.916Z</time></trkpt><trkpt lat="43.4905683" lon="11.381705"><ele>432.0</ele><time>2026-04-20T10:07:01.915Z</time></trkpt><trkpt lat="43.49053" lon="11.3815433"><ele>432.0</ele><time>2026-04-20T10:07:02.915Z</time></trkpt><trkpt lat="43.49049" lon="11.3813917"><ele>429.5</ele><time>2026-04-20T10:07:03.915Z</time></trkpt><trkpt lat="43.4904333" lon="11.38125"><ele>427.0</ele><time>2026-04-20T10:07:04.915Z</time></trkpt><trkpt lat="43.490365" lon="11.3811167"><ele>424.5</ele><time>2026-04-20T10:07:05.914Z</time></trkpt><trkpt lat="43.490305" lon="11.3809767"><ele>422.0</ele><time>2026-04-20T10:07:06.914Z</time></trkpt><trkpt lat="43.490245" lon="11.3808283"><ele>426.5</ele><time>2026-04-20T10:07:07.914Z</time></trkpt><trkpt lat="43.4902167" lon="11.3806617"><ele>431.0</ele><time>2026-04-20T10:07:08.915Z</time></trkpt><trkpt lat="43.4902167" lon="11.3805"><ele>435.5</ele><time>2026-04-20T10:07:09.914Z</time></trkpt><trkpt lat="43.4902433" lon="11.3803333"><ele>440.0</ele><time>2026-04-20T10:07:10.914Z</time></trkpt><trkpt lat="43.4902867" lon="11.380165"><ele>440.0</ele><time>2026-04-20T10:07:11.914Z</time></trkpt><trkpt lat="43.4903417" lon="11.3800033"><ele>440.0</ele><time>2026-04-20T10:07:12.915Z</time></trkpt><trkpt lat="43.4904033" lon="11.3798617"><ele>440.0</ele><time>2026-04-20T10:07:13.914Z</time></trkpt><trkpt lat="43.490475" lon="11.379715"><ele>440.0</ele><time>2026-04-20T10:07:14.914Z</time></trkpt><trkpt lat="43.490555" lon="11.379575"><ele>436.5</ele><time>2026-04-20T10:07:15.914Z</time></trkpt><trkpt lat="43.49063" lon="11.3794433"><ele>433.0</ele><time>2026-04-20T10:07:16.914Z</time></trkpt><trkpt lat="43.4907" lon="11.3793117"><ele>429.5</ele><time>2026-04-20T10:07:17.915Z</time></trkpt><trkpt lat="43.490755" lon="11.3791767"><ele>426.0</ele><time>2026-04-20T10:07:18.914Z</time></trkpt><trkpt lat="43.4907983" lon="11.37903"><ele>426.0</ele><time>2026-04-20T10:07:19.914Z</time></trkpt><trkpt lat="43.4908133" lon="11.37887"><ele>426.0</ele><time>2026-04-20T10:07:20.915Z</time></trkpt><trkpt lat="43.4908183" lon="11.3787033"><ele>426.0</ele><time>2026-04-20T10:07:21.914Z</time></trkpt><trkpt lat="43.4908" lon="11.3785333"><ele>426.0</ele><time>2026-04-20T10:07:22.914Z</time></trkpt><trkpt lat="43.4907783" lon="11.3783483"><ele>425.75</ele><time>2026-04-20T10:07:23.914Z</time></trkpt><trkpt lat="43.4907483" lon="11.3781717"><ele>425.5</ele><time>2026-04-20T10:07:24.914Z</time></trkpt><trkpt lat="43.4907233" lon="11.3779883"><ele>425.25</ele><time>2026-04-20T10:07:25.914Z</time></trkpt><trkpt lat="43.4906983" lon="11.3778067"><ele>425.0</ele><time>2026-04-20T10:07:26.914Z</time></trkpt><trkpt lat="43.4906733" lon="11.3776333"><ele>423.75</ele><time>2026-04-20T10:07:27.914Z</time></trkpt><trkpt lat="43.4906467" lon="11.3774467"><ele>422.5</ele><time>2026-04-20T10:07:28.914Z</time></trkpt><trkpt lat="43.4906217" lon="11.3772667"><ele>421.25</ele><time>2026-04-20T10:07:29.914Z</time></trkpt><trkpt lat="43.4906033" lon="11.377085"><ele>420.0</ele><time>2026-04-20T10:07:30.915Z</time></trkpt><trkpt lat="43.4905767" lon="11.3768933"><ele>418.75</ele><time>2026-04-20T10:07:31.915Z</time></trkpt><trkpt lat="43.4905517" lon="11.3767067"><ele>417.5</ele><time>2026-04-20T10:07:32.914Z</time></trkpt><trkpt lat="43.490525" lon="11.3765233"><ele>416.25</ele><time>2026-04-20T10:07:33.914Z</time></trkpt><trkpt lat="43.4904967" lon="11.37634"><ele>415.0</ele><time>2026-04-20T10:07:34.915Z</time></trkpt><trkpt lat="43.490475" lon="11.37616"><ele>413.5</ele><time>2026-04-20T10:07:35.914Z</time></trkpt><trkpt lat="43.490455" lon="11.3759717"><ele>412.0</ele><time>2026-04-20T10:07:36.914Z</time></trkpt><trkpt lat="43.4904383" lon="11.3757867"><ele>410.5</ele><time>2026-04-20T10:07:37.914Z</time></trkpt><trkpt lat="43.4904333" lon="11.3756067"><ele>409.0</ele><time>2026-04-20T10:07:38.914Z</time></trkpt><trkpt lat="43.490425" lon="11.375415"><ele>408.75</ele><time>2026-04-20T10:07:39.914Z</time></trkpt><trkpt lat="43.4904267" lon="11.3752183"><ele>408.5</ele><time>2026-04-20T10:07:40.915Z</time></trkpt><trkpt lat="43.4904383" lon="11.3750133"><ele>408.25</ele><time>2026-04-20T10:07:41.914Z</time></trkpt><trkpt lat="43.49045" lon="11.3748233"><ele>408.0</ele><time>2026-04-20T10:07:42.914Z</time></trkpt><trkpt lat="43.490465" lon="11.3746383"><ele>408.0</ele><time>2026-04-20T10:07:43.914Z</time></trkpt><trkpt lat="43.49049" lon="11.3744633"><ele>408.0</ele><time>2026-04-20T10:07:44.914Z</time></trkpt><trkpt lat="43.4905267" lon="11.3742883"><ele>408.0</ele><time>2026-04-20T10:07:45.914Z</time></trkpt><trkpt lat="43.4905683" lon="11.3741167"><ele>408.0</ele><time>2026-04-20T10:07:46.914Z</time></trkpt><trkpt lat="43.49062" lon="11.3739517"><ele>408.0</ele><time>2026-04-20T10:07:47.914Z</time></trkpt><trkpt lat="43.4906733" lon="11.37379"><ele>408.0</ele><time>2026-04-20T10:07:48.914Z</time></trkpt><trkpt lat="43.49073" lon="11.3736333"><ele>408.0</ele><time>2026-04-20T10:07:49.914Z</time></trkpt><trkpt lat="43.4907817" lon="11.3734733"><ele>408.0</ele><time>2026-04-20T10:07:50.914Z</time></trkpt><trkpt lat="43.49082" lon="11.373325"><ele>408.0</ele><time>2026-04-20T10:07:51.914Z</time></trkpt><trkpt lat="43.490835" lon="11.3731683"><ele>408.0</ele><time>2026-04-20T10:07:52.914Z</time></trkpt><trkpt lat="43.49082" lon="11.3730017"><ele>408.0</ele><time>2026-04-20T10:07:53.914Z</time></trkpt><trkpt lat="43.4907883" lon="11.3728283"><ele>408.0</ele><time>2026-04-20T10:07:54.914Z</time></trkpt><trkpt lat="43.4907417" lon="11.372675"><ele>406.5</ele><time>2026-04-20T10:07:55.914Z</time></trkpt><trkpt lat="43.4906867" lon="11.3725267"><ele>405.0</ele><time>2026-04-20T10:07:56.914Z</time></trkpt><trkpt lat="43.4906217" lon="11.3723817"><ele>403.5</ele><time>2026-04-20T10:07:57.914Z</time></trkpt><trkpt lat="43.4905517" lon="11.37224"><ele>402.0</ele><time>2026-04-20T10:07:58.914Z</time></trkpt><trkpt lat="43.4904867" lon="11.3721067"><ele>401.6</ele><time>2026-04-20T10:07:59.914Z</time></trkpt><trkpt lat="43.4904283" lon="11.3719767"><ele>401.20000000000005</ele><time>2026-04-20T10:08:00.915Z</time></trkpt><trkpt lat="43.4903917" lon="11.3718367"><ele>400.8</ele><time>2026-04-20T10:08:01.914Z</time></trkpt><trkpt lat="43.4903767" lon="11.3717017"><ele>400.4</ele><time>2026-04-20T10:08:02.914Z</time></trkpt><trkpt lat="43.4904033" lon="11.371565"><ele>400.0</ele><time>2026-04-20T10:08:03.914Z</time></trkpt><trkpt lat="43.4904483" lon="11.3714667"><ele>400.0</ele><time>2026-04-20T10:08:04.914Z</time></trkpt><trkpt lat="43.49053" lon="11.3713983"><ele>400.0</ele><time>2026-04-20T10:08:05.914Z</time></trkpt><trkpt lat="43.4906217" lon="11.3713717"><ele>400.0</ele><time>2026-04-20T10:08:06.914Z</time></trkpt><trkpt lat="43.490735" lon="11.3713683"><ele>400.0</ele><time>2026-04-20T10:08:07.915Z</time></trkpt><trkpt lat="43.4908467" lon="11.371375"><ele>400.0</ele><time>2026-04-20T10:08:08.914Z</time></trkpt><trkpt lat="43.49096" lon="11.371365"><ele>399.2</ele><time>2026-04-20T10:08:09.914Z</time></trkpt><trkpt lat="43.49106" lon="11.371345"><ele>398.4</ele><time>2026-04-20T10:08:10.914Z</time></trkpt><trkpt lat="43.4911617" lon="11.3713017"><ele>397.6</ele><time>2026-04-20T10:08:11.914Z</time></trkpt><trkpt lat="43.4912583" lon="11.37125"><ele>396.8</ele><time>2026-04-20T10:08:12.914Z</time></trkpt><trkpt lat="43.491355" lon="11.3711817"><ele>396.0</ele><time>2026-04-20T10:08:13.914Z</time></trkpt><trkpt lat="43.4914517" lon="11.3710917"><ele>396.0</ele><time>2026-04-20T10:08:14.914Z</time></trkpt><trkpt lat="43.4915333" lon="11.3709817"><ele>396.0</ele><time>2026-04-20T10:08:15.915Z</time></trkpt><trkpt lat="43.491595" lon="11.3708583"><ele>396.0</ele><time>2026-04-20T10:08:16.914Z</time></trkpt><trkpt lat="43.4916567" lon="11.370725"><ele>396.0</ele><time>2026-04-20T10:08:17.914Z</time></trkpt><trkpt lat="43.4917033" lon="11.3705833"><ele>396.6</ele><time>2026-04-20T10:08:18.914Z</time></trkpt><trkpt lat="43.4917517" lon="11.3704383"><ele>397.20000000000005</ele><time>2026-04-20T10:08:19.915Z</time></trkpt><trkpt lat="43.4917933" lon="11.370295"><ele>397.79999999999995</ele><time>2026-04-20T10:08:20.914Z</time></trkpt><trkpt lat="43.4918317" lon="11.3701483"><ele>398.4</ele><time>2026-04-20T10:08:21.914Z</time></trkpt><trkpt lat="43.4918617" lon="11.3700083"><ele>399.0</ele><time>2026-04-20T10:08:22.914Z</time></trkpt><trkpt lat="43.49188" lon="11.3698683"><ele>399.0</ele><time>2026-04-20T10:08:23.914Z</time></trkpt><trkpt lat="43.4918833" lon="11.3697217"><ele>399.0</ele><time>2026-04-20T10:08:24.914Z</time></trkpt><trkpt lat="43.491865" lon="11.36957"><ele>399.0</ele><time>2026-04-20T10:08:25.914Z</time></trkpt><trkpt lat="43.4918267" lon="11.369425"><ele>399.0</ele><time>2026-04-20T10:08:26.915Z</time></trkpt><trkpt lat="43.4917783" lon="11.369285"><ele>399.0</ele><time>2026-04-20T10:08:27.914Z</time></trkpt><trkpt lat="43.4917083" lon="11.36914"><ele>398.5</ele><time>2026-04-20T10:08:28.914Z</time></trkpt><trkpt lat="43.4916333" lon="11.3689933"><ele>398.0</ele><time>2026-04-20T10:08:29.914Z</time></trkpt><trkpt lat="43.49156" lon="11.3688617"><ele>397.5</ele><time>2026-04-20T10:08:30.914Z</time></trkpt><trkpt lat="43.49149" lon="11.3687267"><ele>397.0</ele><time>2026-04-20T10:08:31.914Z</time></trkpt><trkpt lat="43.4914117" lon="11.3686017"><ele>396.75</ele><time>2026-04-20T10:08:32.915Z</time></trkpt><trkpt lat="43.4913233" lon="11.3684917"><ele>396.5</ele><time>2026-04-20T10:08:33.914Z</time></trkpt><trkpt lat="43.49123" lon="11.36839"><ele>396.25</ele><time>2026-04-20T10:08:34.914Z</time></trkpt><trkpt lat="43.49114" lon="11.3683033"><ele>396.0</ele><time>2026-04-20T10:08:35.914Z</time></trkpt><trkpt lat="43.4910517" lon="11.3682333"><ele>396.0</ele><time>2026-04-20T10:08:36.914Z</time></trkpt><trkpt lat="43.49095" lon="11.3681833"><ele>396.0</ele><time>2026-04-20T10:08:37.914Z</time></trkpt><trkpt lat="43.49085" lon="11.3681417"><ele>396.0</ele><time>2026-04-20T10:08:38.915Z</time></trkpt><trkpt lat="43.490755" lon="11.3681083"><ele>396.0</ele><time>2026-04-20T10:08:39.914Z</time></trkpt><trkpt lat="43.49067" lon="11.36807"><ele>396.0</ele><time>2026-04-20T10:08:40.915Z</time></trkpt><trkpt lat="43.4905967" lon="11.368015"><ele>396.14285714285717</ele><time>2026-04-20T10:08:41.914Z</time></trkpt><trkpt lat="43.4905417" lon="11.367945"><ele>396.2857142857143</ele><time>2026-04-20T10:08:42.915Z</time></trkpt><trkpt lat="43.4905083" lon="11.3678633"><ele>396.42857142857144</ele><time>2026-04-20T10:08:43.915Z</time></trkpt><trkpt lat="43.4905267" lon="11.3677633"><ele>396.57142857142856</ele><time>2026-04-20T10:08:44.914Z</time></trkpt><trkpt lat="43.4905617" lon="11.36767"><ele>396.71428571428567</ele><time>2026-04-20T10:08:45.914Z</time></trkpt><trkpt lat="43.4906233" lon="11.36762"><ele>396.85714285714283</ele><time>2026-04-20T10:08:46.914Z</time></trkpt><trkpt lat="43.4906917" lon="11.367605"><ele>397.0</ele><time>2026-04-20T10:08:47.915Z</time></trkpt><trkpt lat="43.490775" lon="11.3676"><ele>397.0</ele><time>2026-04-20T10:08:48.914Z</time></trkpt><trkpt lat="43.4908633" lon="11.3676"><ele>397.0</ele><time>2026-04-20T10:08:49.914Z</time></trkpt><trkpt lat="43.4909633" lon="11.3676083"><ele>397.0</ele><time>2026-04-20T10:08:50.914Z</time></trkpt><trkpt lat="43.4910617" lon="11.367615"><ele>397.0</ele><time>2026-04-20T10:08:51.914Z</time></trkpt><trkpt lat="43.4911567" lon="11.3676417"><ele>397.0</ele><time>2026-04-20T10:08:52.915Z</time></trkpt><trkpt lat="43.4912583" lon="11.3676767"><ele>396.75</ele><time>2026-04-20T10:08:53.914Z</time></trkpt><trkpt lat="43.49137" lon="11.367725"><ele>396.5</ele><time>2026-04-20T10:08:54.914Z</time></trkpt><trkpt lat="43.491465" lon="11.367795"><ele>396.25</ele><time>2026-04-20T10:08:55.914Z</time></trkpt><trkpt lat="43.49156" lon="11.3678767"><ele>396.0</ele><time>2026-04-20T10:08:56.914Z</time></trkpt><trkpt lat="43.491655" lon="11.3679683"><ele>393.8</ele><time>2026-04-20T10:08:57.914Z</time></trkpt><trkpt lat="43.4917433" lon="11.3680617"><ele>391.6</ele><time>2026-04-20T10:08:58.914Z</time></trkpt><trkpt lat="43.4918267" lon="11.3681583"><ele>389.4</ele><time>2026-04-20T10:08:59.914Z</time></trkpt><trkpt lat="43.491915" lon="11.3682533"><ele>387.2</ele><time>2026-04-20T10:09:00.914Z</time></trkpt><trkpt lat="43.4920033" lon="11.3683517"><ele>385.0</ele><time>2026-04-20T10:09:01.914Z</time></trkpt><trkpt lat="43.49209" lon="11.36844"><ele>383.0</ele><time>2026-04-20T10:09:02.915Z</time></trkpt><trkpt lat="43.4921783" lon="11.368525"><ele>381.0</ele><time>2026-04-20T10:09:03.914Z</time></trkpt><trkpt lat="43.4922683" lon="11.3686067"><ele>379.0</ele><time>2026-04-20T10:09:04.914Z</time></trkpt><trkpt lat="43.4923583" lon="11.3686833"><ele>377.0</ele><time>2026-04-20T10:09:05.915Z</time></trkpt><trkpt lat="43.4924567" lon="11.3687467"><ele>375.0</ele><time>2026-04-20T10:09:06.914Z</time></trkpt><trkpt lat="43.492565" lon="11.3688"><ele>375.0</ele><time>2026-04-20T10:09:07.914Z</time></trkpt><trkpt lat="43.4926783" lon="11.36885"><ele>375.0</ele><time>2026-04-20T10:09:08.914Z</time></trkpt><trkpt lat="43.492795" lon="11.368895"><ele>375.0</ele><time>2026-04-20T10:09:09.914Z</time></trkpt><trkpt lat="43.4929033" lon="11.3689267"><ele>375.0</ele><time>2026-04-20T10:09:10.914Z</time></trkpt><trkpt lat="43.4930133" lon="11.368965"><ele>371.0</ele><time>2026-04-20T10:09:11.914Z</time></trkpt><trkpt lat="43.4931217" lon="11.3690083"><ele>367.0</ele><time>2026-04-20T10:09:12.914Z</time></trkpt><trkpt lat="43.4932333" lon="11.3690533"><ele>363.0</ele><time>2026-04-20T10:09:13.914Z</time></trkpt><trkpt lat="43.4933483" lon="11.3690933"><ele>359.0</ele><time>2026-04-20T10:09:14.915Z</time></trkpt><trkpt lat="43.4934633" lon="11.3691317"><ele>359.0</ele><time>2026-04-20T10:09:15.915Z</time></trkpt><trkpt lat="43.4935783" lon="11.369165"><ele>359.0</ele><time>2026-04-20T10:09:16.914Z</time></trkpt><trkpt lat="43.493695" lon="11.369175"><ele>359.0</ele><time>2026-04-20T10:09:17.914Z</time></trkpt><trkpt lat="43.49381" lon="11.3691883"><ele>359.0</ele><time>2026-04-20T10:09:18.914Z</time></trkpt><trkpt lat="43.4939267" lon="11.3692183"><ele>356.25</ele><time>2026-04-20T10:09:19.915Z</time></trkpt><trkpt lat="43.4940433" lon="11.3692567"><ele>353.5</ele><time>2026-04-20T10:09:20.914Z</time></trkpt><trkpt lat="43.4941667" lon="11.3692867"><ele>350.75</ele><time>2026-04-20T10:09:21.914Z</time></trkpt><trkpt lat="43.49429" lon="11.3693167"><ele>348.0</ele><time>2026-04-20T10:09:22.915Z</time></trkpt><trkpt lat="43.494415" lon="11.3693433"><ele>348.0</ele><time>2026-04-20T10:09:23.915Z</time></trkpt><trkpt lat="43.4945417" lon="11.3693733"><ele>348.0</ele><time>2026-04-20T10:09:24.914Z</time></trkpt><trkpt lat="43.494665" lon="11.369405"><ele>348.0</ele><time>2026-04-20T10:09:25.914Z</time></trkpt><trkpt lat="43.49478" lon="11.3694567"><ele>348.0</ele><time>2026-04-20T10:09:26.914Z</time></trkpt><trkpt lat="43.494895" lon="11.3695267"><ele>347.0</ele><time>2026-04-20T10:09:27.915Z</time></trkpt><trkpt lat="43.4950117" lon="11.369615"><ele>346.0</ele><time>2026-04-20T10:09:28.914Z</time></trkpt><trkpt lat="43.4951267" lon="11.36972"><ele>345.0</ele><time>2026-04-20T10:09:29.914Z</time></trkpt><trkpt lat="43.4952433" lon="11.36985"><ele>344.0</ele><time>2026-04-20T10:09:30.914Z</time></trkpt><trkpt lat="43.4953667" lon="11.369985"><ele>345.75</ele><time>2026-04-20T10:09:31.914Z</time></trkpt><trkpt lat="43.4954867" lon="11.3701133"><ele>347.5</ele><time>2026-04-20T10:09:32.914Z</time></trkpt><trkpt lat="43.4956" lon="11.3702333"><ele>349.25</ele><time>2026-04-20T10:09:33.914Z</time></trkpt><trkpt lat="43.4957017" lon="11.370355"><ele>351.0</ele><time>2026-04-20T10:09:34.915Z</time></trkpt><trkpt lat="43.49578" lon="11.3704833"><ele>351.5</ele><time>2026-04-20T10:09:35.914Z</time></trkpt><trkpt lat="43.495835" lon="11.3706233"><ele>352.0</ele><time>2026-04-20T10:09:36.914Z</time></trkpt><trkpt lat="43.49586" lon="11.3707417"><ele>352.5</ele><time>2026-04-20T10:09:37.914Z</time></trkpt><trkpt lat="43.4958617" lon="11.3708467"><ele>353.0</ele><time>2026-04-20T10:09:38.914Z</time></trkpt><trkpt lat="43.4958367" lon="11.3709517"><ele>353.5</ele><time>2026-04-20T10:09:39.914Z</time></trkpt><trkpt lat="43.4958033" lon="11.371055"><ele>354.0</ele><time>2026-04-20T10:09:40.914Z</time></trkpt><trkpt lat="43.4957667" lon="11.371165"><ele>354.0</ele><time>2026-04-20T10:09:41.914Z</time></trkpt><trkpt lat="43.4957333" lon="11.3712783"><ele>354.0</ele><time>2026-04-20T10:09:42.914Z</time></trkpt><trkpt lat="43.4957083" lon="11.37138"><ele>354.0</ele><time>2026-04-20T10:09:43.914Z</time></trkpt><trkpt lat="43.4956783" lon="11.3714783"><ele>354.0</ele><time>2026-04-20T10:09:44.914Z</time></trkpt><trkpt lat="43.4956417" lon="11.3716"><ele>354.0</ele><time>2026-04-20T10:09:45.914Z</time></trkpt><trkpt lat="43.4955967" lon="11.37174"><ele>354.0</ele><time>2026-04-20T10:09:46.914Z</time></trkpt><trkpt lat="43.495555" lon="11.3718917"><ele>354.0</ele><time>2026-04-20T10:09:47.914Z</time></trkpt><trkpt lat="43.4955133" lon="11.3720517"><ele>354.0</ele><time>2026-04-20T10:09:48.914Z</time></trkpt><trkpt lat="43.4954817" lon="11.3722133"><ele>354.0</ele><time>2026-04-20T10:09:49.914Z</time></trkpt><trkpt lat="43.4954683" lon="11.372375"><ele>355.0</ele><time>2026-04-20T10:09:50.915Z</time></trkpt><trkpt lat="43.495475" lon="11.3725483"><ele>356.0</ele><time>2026-04-20T10:09:51.914Z</time></trkpt><trkpt lat="43.495505" lon="11.3727167"><ele>357.0</ele><time>2026-04-20T10:09:52.914Z</time></trkpt><trkpt lat="43.4955517" lon="11.3728717"><ele>358.0</ele><time>2026-04-20T10:09:53.914Z</time></trkpt><trkpt lat="43.4956167" lon="11.3730067"><ele>358.0</ele><time>2026-04-20T10:09:54.914Z</time></trkpt><trkpt lat="43.495695" lon="11.3731367"><ele>358.0</ele><time>2026-04-20T10:09:55.914Z</time></trkpt><trkpt lat="43.4957967" lon="11.37324"><ele>358.0</ele><time>2026-04-20T10:09:56.914Z</time></trkpt><trkpt lat="43.4959133" lon="11.3733183"><ele>358.0</ele><time>2026-04-20T10:09:57.914Z</time></trkpt><trkpt lat="43.4960283" lon="11.3733933"><ele>358.0</ele><time>2026-04-20T10:09:58.914Z</time></trkpt><trkpt lat="43.496135" lon="11.3734867"><ele>358.0</ele><time>2026-04-20T10:09:59.915Z</time></trkpt><trkpt lat="43.4962033" lon="11.3736167"><ele>358.0</ele><time>2026-04-20T10:10:00.914Z</time></trkpt><trkpt lat="43.4962733" lon="11.3737667"><ele>358.0</ele><time>2026-04-20T10:10:01.914Z</time></trkpt><trkpt lat="43.4963217" lon="11.3739183"><ele>360.5</ele><time>2026-04-20T10:10:02.914Z</time></trkpt><trkpt lat="43.4963833" lon="11.374065"><ele>363.0</ele><time>2026-04-20T10:10:03.914Z</time></trkpt><trkpt lat="43.49646" lon="11.3741933"><ele>365.5</ele><time>2026-04-20T10:10:04.914Z</time></trkpt><trkpt lat="43.496545" lon="11.3742967"><ele>368.0</ele><time>2026-04-20T10:10:05.914Z</time></trkpt><trkpt lat="43.4966417" lon="11.3743867"><ele>368.0</ele><time>2026-04-20T10:10:06.914Z</time></trkpt><trkpt lat="43.496735" lon="11.3745033"><ele>368.0</ele><time>2026-04-20T10:10:07.915Z</time></trkpt><trkpt lat="43.49681" lon="11.3746483"><ele>368.0</ele><time>2026-04-20T10:10:08.914Z</time></trkpt><trkpt lat="43.4968717" lon="11.3748"><ele>368.0</ele><time>2026-04-20T10:10:09.914Z</time></trkpt><trkpt lat="43.4969317" lon="11.3749483"><ele>366.5</ele><time>2026-04-20T10:10:10.914Z</time></trkpt><trkpt lat="43.4969967" lon="11.37509"><ele>365.0</ele><time>2026-04-20T10:10:11.914Z</time></trkpt><trkpt lat="43.4970683" lon="11.3752283"><ele>363.5</ele><time>2026-04-20T10:10:12.914Z</time></trkpt><trkpt lat="43.4971483" lon="11.37536"><ele>362.0</ele><time>2026-04-20T10:10:13.914Z</time></trkpt><trkpt lat="43.497235" lon="11.3754833"><ele>364.5</ele><time>2026-04-20T10:10:14.915Z</time></trkpt><trkpt lat="43.4973167" lon="11.375595"><ele>367.0</ele><time>2026-04-20T10:10:15.914Z</time></trkpt><trkpt lat="43.4974" lon="11.375705"><ele>369.5</ele><time>2026-04-20T10:10:16.914Z</time></trkpt><trkpt lat="43.49749" lon="11.3758117"><ele>372.0</ele><time>2026-04-20T10:10:17.914Z</time></trkpt><trkpt lat="43.497595" lon="11.3759083"><ele>372.0</ele><time>2026-04-20T10:10:18.914Z</time></trkpt><trkpt lat="43.4977067" lon="11.3759967"><ele>372.0</ele><time>2026-04-20T10:10:19.914Z</time></trkpt><trkpt lat="43.4978267" lon="11.376085"><ele>372.0</ele><time>2026-04-20T10:10:20.914Z</time></trkpt><trkpt lat="43.4979383" lon="11.3761683"><ele>372.0</ele><time>2026-04-20T10:10:21.915Z</time></trkpt><trkpt lat="43.4980583" lon="11.3762467"><ele>373.6666666666667</ele><time>2026-04-20T10:10:22.914Z</time></trkpt><trkpt lat="43.4981583" lon="11.3763267"><ele>375.3333333333333</ele><time>2026-04-20T10:10:23.914Z</time></trkpt><trkpt lat="43.498255" lon="11.376385"><ele>377.0</ele><time>2026-04-20T10:10:24.914Z</time></trkpt><trkpt lat="43.4983317" lon="11.3764367"><ele>378.66666666666663</ele><time>2026-04-20T10:10:25.915Z</time></trkpt><trkpt lat="43.498405" lon="11.3764633"><ele>380.3333333333333</ele><time>2026-04-20T10:10:26.914Z</time></trkpt><trkpt lat="43.4984683" lon="11.3764667"><ele>382.0</ele><time>2026-04-20T10:10:27.915Z</time></trkpt><trkpt lat="43.498545" lon="11.3763733"><ele>382.66666666666663</ele><time>2026-04-20T10:10:29.914Z</time></trkpt><trkpt lat="43.4985583" lon="11.3762883"><ele>383.3333333333333</ele><time>2026-04-20T10:10:30.914Z</time></trkpt><trkpt lat="43.498545" lon="11.37618"><ele>384.0</ele><time>2026-04-20T10:10:31.915Z</time></trkpt><trkpt lat="43.4985167" lon="11.3760567"><ele>384.66666666666663</ele><time>2026-04-20T10:10:32.915Z</time></trkpt><trkpt lat="43.4984783" lon="11.375925"><ele>385.3333333333333</ele><time>2026-04-20T10:10:33.914Z</time></trkpt><trkpt lat="43.498435" lon="11.375795"><ele>386.0</ele><time>2026-04-20T10:10:34.914Z</time></trkpt><trkpt lat="43.498415" lon="11.3756583"><ele>385.99999999999994</ele><time>2026-04-20T10:10:35.914Z</time></trkpt><trkpt lat="43.49841" lon="11.3755417"><ele>386.0</ele><time>2026-04-20T10:10:36.914Z</time></trkpt><trkpt lat="43.4984283" lon="11.3754383"><ele>386.0</ele><time>2026-04-20T10:10:37.915Z</time></trkpt><trkpt lat="43.4984767" lon="11.3753583"><ele>386.0</ele><time>2026-04-20T10:10:38.915Z</time></trkpt><trkpt lat="43.4985533" lon="11.3753083"><ele>385.99999999999994</ele><time>2026-04-20T10:10:39.914Z</time></trkpt><trkpt lat="43.4986483" lon="11.37527"><ele>386.0</ele><time>2026-04-20T10:10:40.914Z</time></trkpt><trkpt lat="43.4987517" lon="11.37524"><ele>387.25</ele><time>2026-04-20T10:10:41.915Z</time></trkpt><trkpt lat="43.4988567" lon="11.3752133"><ele>388.5</ele><time>2026-04-20T10:10:42.914Z</time></trkpt><trkpt lat="43.4989683" lon="11.3751883"><ele>389.75</ele><time>2026-04-20T10:10:43.914Z</time></trkpt><trkpt lat="43.4990933" lon="11.375175"><ele>391.0</ele><time>2026-04-20T10:10:44.914Z</time></trkpt><trkpt lat="43.4992233" lon="11.3751717"><ele>391.0</ele><time>2026-04-20T10:10:45.914Z</time></trkpt><trkpt lat="43.49936" lon="11.3751783"><ele>391.0</ele><time>2026-04-20T10:10:46.915Z</time></trkpt><trkpt lat="43.4995" lon="11.3751917"><ele>391.0</ele><time>2026-04-20T10:10:47.914Z</time></trkpt><trkpt lat="43.4996333" lon="11.3752217"><ele>391.0</ele><time>2026-04-20T10:10:48.915Z</time></trkpt><trkpt lat="43.4997683" lon="11.3752517"><ele>392.0</ele><time>2026-04-20T10:10:49.915Z</time></trkpt><trkpt lat="43.4999067" lon="11.37528"><ele>393.0</ele><time>2026-04-20T10:10:50.914Z</time></trkpt><trkpt lat="43.5000483" lon="11.3753067"><ele>394.0</ele><time>2026-04-20T10:10:51.914Z</time></trkpt><trkpt lat="43.5001917" lon="11.3753333"><ele>395.0</ele><time>2026-04-20T10:10:52.914Z</time></trkpt><trkpt lat="43.50033" lon="11.3753667"><ele>395.25</ele><time>2026-04-20T10:10:53.914Z</time></trkpt><trkpt lat="43.5004783" lon="11.3753983"><ele>395.5</ele><time>2026-04-20T10:10:54.914Z</time></trkpt><trkpt lat="43.50063" lon="11.3754233"><ele>395.75</ele><time>2026-04-20T10:10:55.914Z</time></trkpt><trkpt lat="43.5007717" lon="11.3754533"><ele>396.0</ele><time>2026-04-20T10:10:56.914Z</time></trkpt><trkpt lat="43.5009" lon="11.3754867"><ele>396.8</ele><time>2026-04-20T10:10:57.915Z</time></trkpt><trkpt lat="43.5010183" lon="11.375525"><ele>397.6</ele><time>2026-04-20T10:10:58.914Z</time></trkpt><trkpt lat="43.5011183" lon="11.375575"><ele>398.4</ele><time>2026-04-20T10:10:59.914Z</time></trkpt><trkpt lat="43.5011933" lon="11.3756383"><ele>399.2</ele><time>2026-04-20T10:11:00.914Z</time></trkpt><trkpt lat="43.50125" lon="11.37575"><ele>400.0</ele><time>2026-04-20T10:11:01.914Z</time></trkpt><trkpt lat="43.5012967" lon="11.3758867"><ele>400.0</ele><time>2026-04-20T10:11:02.914Z</time></trkpt><trkpt lat="43.5013283" lon="11.3760467"><ele>400.0</ele><time>2026-04-20T10:11:03.914Z</time></trkpt><trkpt lat="43.501355" lon="11.3762183"><ele>400.0</ele><time>2026-04-20T10:11:04.914Z</time></trkpt><trkpt lat="43.5013633" lon="11.376415"><ele>400.0</ele><time>2026-04-20T10:11:05.914Z</time></trkpt><trkpt lat="43.50137" lon="11.3766033"><ele>401.75</ele><time>2026-04-20T10:11:06.914Z</time></trkpt><trkpt lat="43.501395" lon="11.37679"><ele>403.5</ele><time>2026-04-20T10:11:07.914Z</time></trkpt><trkpt lat="43.5014333" lon="11.3769667"><ele>405.25</ele><time>2026-04-20T10:11:08.914Z</time></trkpt><trkpt lat="43.5014983" lon="11.3771167"><ele>407.0</ele><time>2026-04-20T10:11:09.915Z</time></trkpt><trkpt lat="43.5015783" lon="11.37726"><ele>409.25</ele><time>2026-04-20T10:11:10.913Z</time></trkpt><trkpt lat="43.5016683" lon="11.377395"><ele>411.5</ele><time>2026-04-20T10:11:11.913Z</time></trkpt><trkpt lat="43.5017667" lon="11.3775267"><ele>413.75</ele><time>2026-04-20T10:11:12.913Z</time></trkpt><trkpt lat="43.5018783" lon="11.37764"><ele>416.0</ele><time>2026-04-20T10:11:13.913Z</time></trkpt><trkpt lat="43.5020017" lon="11.3777233"><ele>415.25</ele><time>2026-04-20T10:11:14.913Z</time></trkpt><trkpt lat="43.5021383" lon="11.3777883"><ele>414.5</ele><time>2026-04-20T10:11:15.913Z</time></trkpt><trkpt lat="43.5022833" lon="11.3778433"><ele>413.75</ele><time>2026-04-20T10:11:16.913Z</time></trkpt><trkpt lat="43.5024217" lon="11.3779033"><ele>413.0</ele><time>2026-04-20T10:11:17.913Z</time></trkpt><trkpt lat="43.5025633" lon="11.3779367"><ele>413.0</ele><time>2026-04-20T10:11:18.914Z</time></trkpt><trkpt lat="43.502715" lon="11.3779517"><ele>413.0</ele><time>2026-04-20T10:11:19.914Z</time></trkpt><trkpt lat="43.5028567" lon="11.3779617"><ele>413.0</ele><time>2026-04-20T10:11:20.913Z</time></trkpt><trkpt lat="43.5029933" lon="11.37797"><ele>413.0</ele><time>2026-04-20T10:11:21.913Z</time></trkpt><trkpt lat="43.50312" lon="11.3779817"><ele>415.0</ele><time>2026-04-20T10:11:22.914Z</time></trkpt><trkpt lat="43.5032533" lon="11.3779867"><ele>417.0</ele><time>2026-04-20T10:11:23.914Z</time></trkpt><trkpt lat="43.5033883" lon="11.378"><ele>419.0</ele><time>2026-04-20T10:11:24.913Z</time></trkpt><trkpt lat="43.50352" lon="11.378035"><ele>421.0</ele><time>2026-04-20T10:11:25.914Z</time></trkpt><trkpt lat="43.5036467" lon="11.3780983"><ele>424.0</ele><time>2026-04-20T10:11:26.913Z</time></trkpt><trkpt lat="43.5037667" lon="11.3781617"><ele>427.0</ele><time>2026-04-20T10:11:27.913Z</time></trkpt><trkpt lat="43.50389" lon="11.3782283"><ele>430.0</ele><time>2026-04-20T10:11:28.913Z</time></trkpt><trkpt lat="43.5040133" lon="11.3782867"><ele>433.0</ele><time>2026-04-20T10:11:29.914Z</time></trkpt><trkpt lat="43.504145" lon="11.3783433"><ele>433.0</ele><time>2026-04-20T10:11:30.913Z</time></trkpt><trkpt lat="43.5042833" lon="11.3783967"><ele>433.0</ele><time>2026-04-20T10:11:31.913Z</time></trkpt><trkpt lat="43.5044217" lon="11.3784367"><ele>433.0</ele><time>2026-04-20T10:11:32.914Z</time></trkpt><trkpt lat="43.5045517" lon="11.3784833"><ele>433.0</ele><time>2026-04-20T10:11:33.913Z</time></trkpt><trkpt lat="43.504685" lon="11.3785283"><ele>435.75</ele><time>2026-04-20T10:11:34.914Z</time></trkpt><trkpt lat="43.5048183" lon="11.3785917"><ele>438.5</ele><time>2026-04-20T10:11:35.913Z</time></trkpt><trkpt lat="43.5049367" lon="11.3786833"><ele>441.25</ele><time>2026-04-20T10:11:36.913Z</time></trkpt><trkpt lat="43.5050533" lon="11.3788033"><ele>444.0</ele><time>2026-04-20T10:11:37.913Z</time></trkpt><trkpt lat="43.5051467" lon="11.3789467"><ele>444.0</ele><time>2026-04-20T10:11:38.913Z</time></trkpt><trkpt lat="43.5052283" lon="11.3790983"><ele>444.0</ele><time>2026-04-20T10:11:39.913Z</time></trkpt><trkpt lat="43.5053017" lon="11.3792433"><ele>444.0</ele><time>2026-04-20T10:11:40.913Z</time></trkpt><trkpt lat="43.505375" lon="11.3793633"><ele>444.0</ele><time>2026-04-20T10:11:41.913Z</time></trkpt><trkpt lat="43.505445" lon="11.3794583"><ele>447.2</ele><time>2026-04-20T10:11:42.914Z</time></trkpt><trkpt lat="43.5055167" lon="11.3795217"><ele>450.4</ele><time>2026-04-20T10:11:43.913Z</time></trkpt><trkpt lat="43.5055933" lon="11.3795517"><ele>453.6</ele><time>2026-04-20T10:11:44.913Z</time></trkpt><trkpt lat="43.5057017" lon="11.3794717"><ele>456.8</ele><time>2026-04-20T10:11:46.913Z</time></trkpt><trkpt lat="43.505725" lon="11.3793683"><ele>460.0</ele><time>2026-04-20T10:11:47.913Z</time></trkpt><trkpt lat="43.505705" lon="11.3792333"><ele>460.0</ele><time>2026-04-20T10:11:48.914Z</time></trkpt><trkpt lat="43.50566" lon="11.3790783"><ele>460.0</ele><time>2026-04-20T10:11:49.913Z</time></trkpt><trkpt lat="43.5055967" lon="11.37891"><ele>460.0</ele><time>2026-04-20T10:11:50.913Z</time></trkpt><trkpt lat="43.5055667" lon="11.3787433"><ele>460.0</ele><time>2026-04-20T10:11:51.913Z</time></trkpt><trkpt lat="43.5055517" lon="11.378585"><ele>459.8</ele><time>2026-04-20T10:11:52.913Z</time></trkpt><trkpt lat="43.50556" lon="11.37845"><ele>459.6</ele><time>2026-04-20T10:11:53.914Z</time></trkpt><trkpt lat="43.5055917" lon="11.3783417"><ele>459.4</ele><time>2026-04-20T10:11:54.913Z</time></trkpt><trkpt lat="43.5056567" lon="11.378275"><ele>459.2</ele><time>2026-04-20T10:11:55.913Z</time></trkpt><trkpt lat="43.5057433" lon="11.3782317"><ele>459.0</ele><time>2026-04-20T10:11:56.913Z</time></trkpt><trkpt lat="43.50584" lon="11.3782383"><ele>459.0</ele><time>2026-04-20T10:11:57.913Z</time></trkpt><trkpt lat="43.5059467" lon="11.3783417"><ele>459.0</ele><time>2026-04-20T10:11:58.914Z</time></trkpt><trkpt lat="43.50604" lon="11.37846"><ele>459.0</ele><time>2026-04-20T10:11:59.914Z</time></trkpt><trkpt lat="43.5061267" lon="11.3786017"><ele>459.0</ele><time>2026-04-20T10:12:00.913Z</time></trkpt><trkpt lat="43.5062017" lon="11.3787583"><ele>460.79999999999995</ele><time>2026-04-20T10:12:01.913Z</time></trkpt><trkpt lat="43.5062617" lon="11.3788967"><ele>462.59999999999997</ele><time>2026-04-20T10:12:02.913Z</time></trkpt><trkpt lat="43.5063317" lon="11.37899"><ele>464.4</ele><time>2026-04-20T10:12:03.913Z</time></trkpt><trkpt lat="43.50642" lon="11.37906"><ele>466.2</ele><time>2026-04-20T10:12:04.913Z</time></trkpt><trkpt lat="43.506525" lon="11.379125"><ele>468.0</ele><time>2026-04-20T10:12:05.913Z</time></trkpt><trkpt lat="43.5066467" lon="11.3791867"><ele>468.0</ele><time>2026-04-20T10:12:06.913Z</time></trkpt><trkpt lat="43.5067667" lon="11.3792517"><ele>468.0</ele><time>2026-04-20T10:12:07.913Z</time></trkpt><trkpt lat="43.5068833" lon="11.37931"><ele>468.0</ele><time>2026-04-20T10:12:08.913Z</time></trkpt><trkpt lat="43.507" lon="11.3793733"><ele>468.0</ele><time>2026-04-20T10:12:09.913Z</time></trkpt><trkpt lat="43.5071233" lon="11.3794367"><ele>470.75</ele><time>2026-04-20T10:12:10.913Z</time></trkpt><trkpt lat="43.5072533" lon="11.379505"><ele>473.5</ele><time>2026-04-20T10:12:11.913Z</time></trkpt><trkpt lat="43.50739" lon="11.37957"><ele>476.25</ele><time>2026-04-20T10:12:12.913Z</time></trkpt><trkpt lat="43.5075317" lon="11.3796"><ele>479.0</ele><time>2026-04-20T10:12:13.913Z</time></trkpt><trkpt lat="43.5076717" lon="11.3796167"><ele>479.0</ele><time>2026-04-20T10:12:14.913Z</time></trkpt><trkpt lat="43.5078117" lon="11.3796267"><ele>479.0</ele><time>2026-04-20T10:12:15.913Z</time></trkpt><trkpt lat="43.50795" lon="11.3796467"><ele>479.0</ele><time>2026-04-20T10:12:16.914Z</time></trkpt><trkpt lat="43.5080817" lon="11.379685"><ele>479.0</ele><time>2026-04-20T10:12:17.913Z</time></trkpt><trkpt lat="43.508215" lon="11.37974"><ele>481.25</ele><time>2026-04-20T10:12:18.913Z</time></trkpt><trkpt lat="43.5083483" lon="11.3798083"><ele>483.5</ele><time>2026-04-20T10:12:19.913Z</time></trkpt><trkpt lat="43.5084817" lon="11.3798817"><ele>485.75</ele><time>2026-04-20T10:12:20.914Z</time></trkpt><trkpt lat="43.508615" lon="11.3799583"><ele>488.0</ele><time>2026-04-20T10:12:21.913Z</time></trkpt><trkpt lat="43.5087467" lon="11.3800317"><ele>491.0</ele><time>2026-04-20T10:12:22.913Z</time></trkpt><trkpt lat="43.508885" lon="11.380095"><ele>494.0</ele><time>2026-04-20T10:12:23.913Z</time></trkpt><trkpt lat="43.509015" lon="11.3801567"><ele>497.0</ele><time>2026-04-20T10:12:24.913Z</time></trkpt><trkpt lat="43.5091633" lon="11.380205"><ele>500.0</ele><time>2026-04-20T10:12:25.913Z</time></trkpt><trkpt lat="43.5093067" lon="11.3802383"><ele>500.0</ele><time>2026-04-20T10:12:26.913Z</time></trkpt><trkpt lat="43.5094433" lon="11.3802567"><ele>500.0</ele><time>2026-04-20T10:12:27.913Z</time></trkpt><trkpt lat="43.5095683" lon="11.3802517"><ele>500.0</ele><time>2026-04-20T10:12:28.913Z</time></trkpt><trkpt lat="43.5096667" lon="11.3802083"><ele>500.0</ele><time>2026-04-20T10:12:29.913Z</time></trkpt><trkpt lat="43.50974" lon="11.380125"><ele>501.2</ele><time>2026-04-20T10:12:30.913Z</time></trkpt><trkpt lat="43.509805" lon="11.380035"><ele>502.4</ele><time>2026-04-20T10:12:31.914Z</time></trkpt><trkpt lat="43.509875" lon="11.37997"><ele>503.6</ele><time>2026-04-20T10:12:32.913Z</time></trkpt><trkpt lat="43.50997" lon="11.3799333"><ele>504.8</ele><time>2026-04-20T10:12:33.913Z</time></trkpt><trkpt lat="43.5100783" lon="11.379955"><ele>506.0</ele><time>2026-04-20T10:12:34.913Z</time></trkpt><trkpt lat="43.5101833" lon="11.3800083"><ele>506.0</ele><time>2026-04-20T10:12:35.914Z</time></trkpt><trkpt lat="43.5102733" lon="11.3800917"><ele>506.0</ele><time>2026-04-20T10:12:36.913Z</time></trkpt><trkpt lat="43.51035" lon="11.3801933"><ele>506.0</ele><time>2026-04-20T10:12:37.913Z</time></trkpt><trkpt lat="43.510435" lon="11.3802883"><ele>506.0</ele><time>2026-04-20T10:12:38.913Z</time></trkpt><trkpt lat="43.51054" lon="11.3803567"><ele>506.0</ele><time>2026-04-20T10:12:39.913Z</time></trkpt><trkpt lat="43.51066" lon="11.3803917"><ele>508.20000000000005</ele><time>2026-04-20T10:12:40.913Z</time></trkpt><trkpt lat="43.51077" lon="11.3803917"><ele>510.40000000000003</ele><time>2026-04-20T10:12:41.914Z</time></trkpt><trkpt lat="43.510865" lon="11.3803617"><ele>512.6</ele><time>2026-04-20T10:12:42.914Z</time></trkpt><trkpt lat="43.5109433" lon="11.3802867"><ele>514.8000000000001</ele><time>2026-04-20T10:12:43.913Z</time></trkpt><trkpt lat="43.5110067" lon="11.3802117"><ele>517.0</ele><time>2026-04-20T10:12:44.914Z</time></trkpt><trkpt lat="43.5110783" lon="11.3801583"><ele>517.0</ele><time>2026-04-20T10:12:45.913Z</time></trkpt><trkpt lat="43.5111683" lon="11.3801367"><ele>517.0</ele><time>2026-04-20T10:12:46.913Z</time></trkpt><trkpt lat="43.5112583" lon="11.3801633"><ele>517.0</ele><time>2026-04-20T10:12:47.914Z</time></trkpt><trkpt lat="43.5113217" lon="11.3802433"><ele>517.0</ele><time>2026-04-20T10:12:48.913Z</time></trkpt><trkpt lat="43.5113683" lon="11.380345"><ele>517.0</ele><time>2026-04-20T10:12:49.913Z</time></trkpt><trkpt lat="43.5114183" lon="11.38045"><ele>517.0</ele><time>2026-04-20T10:12:50.913Z</time></trkpt><trkpt lat="43.511495" lon="11.3805333"><ele>520.0</ele><time>2026-04-20T10:12:51.913Z</time></trkpt><trkpt lat="43.5115933" lon="11.3805867"><ele>523.0</ele><time>2026-04-20T10:12:52.913Z</time></trkpt><trkpt lat="43.5116917" lon="11.3806433"><ele>526.0</ele><time>2026-04-20T10:12:53.913Z</time></trkpt><trkpt lat="43.5117817" lon="11.3807317"><ele>529.0</ele><time>2026-04-20T10:12:54.913Z</time></trkpt><trkpt lat="43.5118383" lon="11.3808683"><ele>532.0</ele><time>2026-04-20T10:12:55.913Z</time></trkpt><trkpt lat="43.51186" lon="11.3810283"><ele>532.0</ele><time>2026-04-20T10:12:56.913Z</time></trkpt><trkpt lat="43.5118683" lon="11.38118"><ele>532.0</ele><time>2026-04-20T10:12:57.913Z</time></trkpt><trkpt lat="43.5119083" lon="11.3813183"><ele>532.0</ele><time>2026-04-20T10:12:58.913Z</time></trkpt><trkpt lat="43.5119667" lon="11.3814483"><ele>532.0</ele><time>2026-04-20T10:12:59.914Z</time></trkpt><trkpt lat="43.5120283" lon="11.3815783"><ele>532.0</ele><time>2026-04-20T10:13:00.913Z</time></trkpt><trkpt lat="43.5120683" lon="11.3817067"><ele>532.4</ele><time>2026-04-20T10:13:01.914Z</time></trkpt><trkpt lat="43.512085" lon="11.3818467"><ele>532.8000000000001</ele><time>2026-04-20T10:13:02.914Z</time></trkpt><trkpt lat="43.5120667" lon="11.3820017"><ele>533.2</ele><time>2026-04-20T10:13:03.913Z</time></trkpt><trkpt lat="43.5120183" lon="11.3821433"><ele>533.6</ele><time>2026-04-20T10:13:04.913Z</time></trkpt><trkpt lat="43.511965" lon="11.3822767"><ele>534.0</ele><time>2026-04-20T10:13:05.913Z</time></trkpt><trkpt lat="43.5119267" lon="11.382395"><ele>535.0</ele><time>2026-04-20T10:13:06.913Z</time></trkpt><trkpt lat="43.5119067" lon="11.3825217"><ele>536.0</ele><time>2026-04-20T10:13:07.913Z</time></trkpt><trkpt lat="43.5119117" lon="11.38264"><ele>537.0</ele><time>2026-04-20T10:13:08.913Z</time></trkpt><trkpt lat="43.5119417" lon="11.3827483"><ele>538.0</ele><time>2026-04-20T10:13:09.913Z</time></trkpt><trkpt lat="43.5120117" lon="11.3828133"><ele>539.0</ele><time>2026-04-20T10:13:10.913Z</time></trkpt><trkpt lat="43.5120917" lon="11.38283"><ele>540.0</ele><time>2026-04-20T10:13:11.913Z</time></trkpt><trkpt lat="43.512185" lon="11.3828067"><ele>542.75</ele><time>2026-04-20T10:13:12.914Z</time></trkpt><trkpt lat="43.5122883" lon="11.3827567"><ele>545.5</ele><time>2026-04-20T10:13:13.914Z</time></trkpt><trkpt lat="43.5124033" lon="11.382695"><ele>548.25</ele><time>2026-04-20T10:13:14.913Z</time></trkpt><trkpt lat="43.5125283" lon="11.3826267"><ele>551.0</ele><time>2026-04-20T10:13:15.913Z</time></trkpt><trkpt lat="43.5126667" lon="11.382565"><ele>551.0</ele><time>2026-04-20T10:13:16.914Z</time></trkpt><trkpt lat="43.512805" lon="11.3825067"><ele>551.0</ele><time>2026-04-20T10:13:17.913Z</time></trkpt><trkpt lat="43.51294" lon="11.38246"><ele>551.0</ele><time>2026-04-20T10:13:18.914Z</time></trkpt><trkpt lat="43.5130783" lon="11.3824283"><ele>551.0</ele><time>2026-04-20T10:13:19.913Z</time></trkpt><trkpt lat="43.513205" lon="11.3824083"><ele>552.75</ele><time>2026-04-20T10:13:20.913Z</time></trkpt><trkpt lat="43.5133333" lon="11.382385"><ele>554.5</ele><time>2026-04-20T10:13:21.913Z</time></trkpt><trkpt lat="43.513475" lon="11.3823733"><ele>556.25</ele><time>2026-04-20T10:13:22.913Z</time></trkpt><trkpt lat="43.5136267" lon="11.3823617"><ele>558.0</ele><time>2026-04-20T10:13:23.913Z</time></trkpt><trkpt lat="43.51379" lon="11.3823567"><ele>560.3333333333334</ele><time>2026-04-20T10:13:24.913Z</time></trkpt><trkpt lat="43.5139483" lon="11.3823433"><ele>562.6666666666667</ele><time>2026-04-20T10:13:25.913Z</time></trkpt><trkpt lat="43.514105" lon="11.382335"><ele>565.0</ele><time>2026-04-20T10:13:26.913Z</time></trkpt><trkpt lat="43.51426" lon="11.382315"><ele>565.0</ele><time>2026-04-20T10:13:27.914Z</time></trkpt><trkpt lat="43.5144183" lon="11.3822817"><ele>565.0</ele><time>2026-04-20T10:13:28.913Z</time></trkpt><trkpt lat="43.51457" lon="11.3822383"><ele>565.0</ele><time>2026-04-20T10:13:29.913Z</time></trkpt><trkpt lat="43.5147167" lon="11.3821917"><ele>570.25</ele><time>2026-04-20T10:13:30.913Z</time></trkpt><trkpt lat="43.514855" lon="11.3821667"><ele>575.5</ele><time>2026-04-20T10:13:31.913Z</time></trkpt><trkpt lat="43.5149817" lon="11.3821667"><ele>580.75</ele><time>2026-04-20T10:13:32.913Z</time></trkpt><trkpt lat="43.5150883" lon="11.38217"><ele>586.0</ele><time>2026-04-20T10:13:33.913Z</time></trkpt><trkpt lat="43.5151833" lon="11.3821467"><ele>586.0</ele><time>2026-04-20T10:13:34.913Z</time></trkpt><trkpt lat="43.51527" lon="11.382105"><ele>586.0</ele><time>2026-04-20T10:13:35.913Z</time></trkpt><trkpt lat="43.5153517" lon="11.3820433"><ele>586.0</ele><time>2026-04-20T10:13:36.913Z</time></trkpt><trkpt lat="43.5154367" lon="11.3819783"><ele>586.0</ele><time>2026-04-20T10:13:37.913Z</time></trkpt><trkpt lat="43.5155283" lon="11.3819417"><ele>586.0</ele><time>2026-04-20T10:13:38.913Z</time></trkpt><trkpt lat="43.5156217" lon="11.3819433"><ele>587.6666666666667</ele><time>2026-04-20T10:13:39.913Z</time></trkpt><trkpt lat="43.51571" lon="11.381975"><ele>589.3333333333334</ele><time>2026-04-20T10:13:40.914Z</time></trkpt><trkpt lat="43.5157983" lon="11.3820167"><ele>591.0</ele><time>2026-04-20T10:13:41.913Z</time></trkpt><trkpt lat="43.5158767" lon="11.3820683"><ele>592.6666666666666</ele><time>2026-04-20T10:13:42.914Z</time></trkpt><trkpt lat="43.5159583" lon="11.38209"><ele>594.3333333333333</ele><time>2026-04-20T10:13:43.913Z</time></trkpt><trkpt lat="43.5160517" lon="11.3821017"><ele>596.0</ele><time>2026-04-20T10:13:44.913Z</time></trkpt><trkpt lat="43.516145" lon="11.3821083"><ele>598.4</ele><time>2026-04-20T10:13:45.913Z</time></trkpt><trkpt lat="43.5162417" lon="11.3821017"><ele>600.8</ele><time>2026-04-20T10:13:46.914Z</time></trkpt><trkpt lat="43.5163383" lon="11.382105"><ele>603.1999999999999</ele><time>2026-04-20T10:13:47.914Z</time></trkpt><trkpt lat="43.516435" lon="11.3821083"><ele>605.6</ele><time>2026-04-20T10:13:48.913Z</time></trkpt><trkpt lat="43.5165317" lon="11.382095"><ele>608.0</ele><time>2026-04-20T10:13:49.913Z</time></trkpt><trkpt lat="43.516625" lon="11.3820767"><ele>608.0</ele><time>2026-04-20T10:13:50.913Z</time></trkpt><trkpt lat="43.5167183" lon="11.3820617"><ele>608.0</ele><time>2026-04-20T10:13:51.913Z</time></trkpt><trkpt lat="43.51681" lon="11.382035"><ele>608.0</ele><time>2026-04-20T10:13:52.913Z</time></trkpt><trkpt lat="43.5168817" lon="11.3820083"><ele>608.0</ele><time>2026-04-20T10:13:53.913Z</time></trkpt><trkpt lat="43.5169433" lon="11.38196"><ele>608.0</ele><time>2026-04-20T10:13:54.913Z</time></trkpt><trkpt lat="43.5169783" lon="11.3818283"><ele>608.0</ele><time>2026-04-20T10:13:56.913Z</time></trkpt><trkpt lat="43.51694" lon="11.3817517"><ele>608.0</ele><time>2026-04-20T10:13:57.913Z</time></trkpt><trkpt lat="43.516875" lon="11.38169"><ele>608.0</ele><time>2026-04-20T10:13:58.914Z</time></trkpt><trkpt lat="43.5167867" lon="11.3816733"><ele>608.0</ele><time>2026-04-20T10:13:59.913Z</time></trkpt><trkpt lat="43.516695" lon="11.381685"><ele>608.0</ele><time>2026-04-20T10:14:00.913Z</time></trkpt><trkpt lat="43.5166083" lon="11.3816983"><ele>608.0</ele><time>2026-04-20T10:14:01.913Z</time></trkpt><trkpt lat="43.5165433" lon="11.3816967"><ele>608.0</ele><time>2026-04-20T10:14:02.913Z</time></trkpt><trkpt lat="43.5164517" lon="11.38162"><ele>608.0</ele><time>2026-04-20T10:14:04.913Z</time></trkpt><trkpt lat="43.5164317" lon="11.38151"><ele>608.0</ele><time>2026-04-20T10:14:06.914Z</time></trkpt><trkpt lat="43.5164883" lon="11.381365"><ele>608.0</ele><time>2026-04-20T10:14:08.913Z</time></trkpt><trkpt lat="43.51655" lon="11.3812317"><ele>608.0</ele><time>2026-04-20T10:14:10.913Z</time></trkpt><trkpt lat="43.5166" lon="11.381125"><ele>608.0</ele><time>2026-04-20T10:14:12.914Z</time></trkpt><trkpt lat="43.516635" lon="11.3810433"><ele>608.5</ele><time>2026-04-20T10:14:14.913Z</time></trkpt><trkpt lat="43.5166683" lon="11.3809133"><ele>609.0</ele><time>2026-04-20T10:14:28.913Z</time></trkpt><trkpt lat="43.5167033" lon="11.3808183"><ele>609.5</ele><time>2026-04-20T10:14:30.913Z</time></trkpt><trkpt lat="43.51674" lon="11.3807417"><ele>610.0</ele><time>2026-04-20T10:14:32.913Z</time></trkpt><trkpt lat="43.51678" lon="11.3806583"><ele>610.5</ele><time>2026-04-20T10:14:35.913Z</time></trkpt><trkpt lat="43.51682" lon="11.3805733"><ele>611.0</ele><time>2026-04-20T10:14:39.913Z</time></trkpt><trkpt lat="43.5168167" lon="11.3804817"><ele>611.0</ele><time>2026-04-20T10:14:55.913Z</time></trkpt><trkpt lat="43.516755" lon="11.3804183"><ele>611.0</ele><time>2026-04-20T10:14:58.913Z</time></trkpt><trkpt lat="43.51671" lon="11.3804917"><ele>611.0</ele><time>2026-04-20T10:15:02.913Z</time></trkpt><trkpt lat="43.5167667" lon="11.380535"><ele>611.0</ele><time>2026-04-20T10:15:05.913Z</time></trkpt><trkpt lat="43.5167717" lon="11.38064"><ele>611.0</ele><time>2026-04-20T10:15:08.913Z</time></trkpt><trkpt lat="43.51674" lon="11.3807617"><ele>611.0</ele><time>2026-04-20T10:15:11.913Z</time></trkpt><trkpt lat="43.5166883" lon="11.3808633"><ele>611.0000000000001</ele><time>2026-04-20T10:15:13.913Z</time></trkpt><trkpt lat="43.51666" lon="11.3809483"><ele>611.0</ele><time>2026-04-20T10:15:15.914Z</time></trkpt><trkpt lat="43.5166583" lon="11.3810417"><ele>611.0</ele><time>2026-04-20T10:15:17.913Z</time></trkpt><trkpt lat="43.5166633" lon="11.3811383"><ele>611.0</ele><time>2026-04-20T10:15:19.913Z</time></trkpt><trkpt lat="43.516685" lon="11.3812283"><ele>611.0</ele><time>2026-04-20T10:15:21.913Z</time></trkpt><trkpt lat="43.5167217" lon="11.381305"><ele>611.0000000000001</ele><time>2026-04-20T10:15:23.913Z</time></trkpt><trkpt lat="43.5167783" lon="11.3813667"><ele>611.0</ele><time>2026-04-20T10:15:25.913Z</time></trkpt><trkpt lat="43.5168367" lon="11.381425"><ele>611.1666666666666</ele><time>2026-04-20T10:15:27.913Z</time></trkpt><trkpt lat="43.5169133" lon="11.3814683"><ele>611.3333333333333</ele><time>2026-04-20T10:15:30.913Z</time></trkpt><trkpt lat="43.5169817" lon="11.38144"><ele>611.5</ele><time>2026-04-20T10:15:32.914Z</time></trkpt><trkpt lat="43.5170683" lon="11.3814"><ele>611.6666666666666</ele><time>2026-04-20T10:15:34.913Z</time></trkpt><trkpt lat="43.5171433" lon="11.38139"><ele>611.8333333333334</ele><time>2026-04-20T10:15:36.913Z</time></trkpt><trkpt lat="43.5172167" lon="11.381395"><ele>612.0</ele><time>2026-04-20T10:15:38.913Z</time></trkpt><trkpt lat="43.517305" lon="11.38137"><ele>612.0</ele><time>2026-04-20T10:15:40.913Z</time></trkpt><trkpt lat="43.5173933" lon="11.3813433"><ele>612.0</ele><time>2026-04-20T10:15:42.912Z</time></trkpt><trkpt lat="43.517495" lon="11.3813517"><ele>612.0</ele><time>2026-04-20T10:15:44.912Z</time></trkpt><trkpt lat="43.5176167" lon="11.381375"><ele>612.0</ele><time>2026-04-20T10:15:46.912Z</time></trkpt><trkpt lat="43.517735" lon="11.38139"><ele>612.0</ele><time>2026-04-20T10:15:48.912Z</time></trkpt><trkpt lat="43.5178383" lon="11.3814633"><ele>612.0</ele><time>2026-04-20T10:15:50.913Z</time></trkpt><trkpt lat="43.517895" lon="11.3815333"><ele>612.0</ele><time>2026-04-20T10:15:51.912Z</time></trkpt><trkpt lat="43.517955" lon="11.3816117"><ele>612.0</ele><time>2026-04-20T10:15:52.912Z</time></trkpt><trkpt lat="43.5180167" lon="11.3816717"><ele>612.0</ele><time>2026-04-20T10:15:53.912Z</time></trkpt><trkpt lat="43.5180883" lon="11.381705"><ele>612.0</ele><time>2026-04-20T10:15:54.912Z</time></trkpt><trkpt lat="43.51816" lon="11.3817367"><ele>612.0</ele><time>2026-04-20T10:15:55.912Z</time></trkpt><trkpt lat="43.5182317" lon="11.3817667"><ele>613.4285714285714</ele><time>2026-04-20T10:15:56.912Z</time></trkpt><trkpt lat="43.5183" lon="11.3817867"><ele>614.8571428571429</ele><time>2026-04-20T10:15:57.912Z</time></trkpt><trkpt lat="43.5183667" lon="11.3818067"><ele>616.2857142857142</ele><time>2026-04-20T10:15:58.912Z</time></trkpt><trkpt lat="43.5184317" lon="11.3818033"><ele>617.7142857142858</ele><time>2026-04-20T10:15:59.912Z</time></trkpt><trkpt lat="43.5185017" lon="11.381795"><ele>619.1428571428572</ele><time>2026-04-20T10:16:00.912Z</time></trkpt><trkpt lat="43.5185683" lon="11.381785"><ele>620.5714285714286</ele><time>2026-04-20T10:16:01.912Z</time></trkpt><trkpt lat="43.518635" lon="11.38176"><ele>622.0</ele><time>2026-04-20T10:16:02.912Z</time></trkpt><trkpt lat="43.5187083" lon="11.3817367"><ele>624.8000000000001</ele><time>2026-04-20T10:16:03.913Z</time></trkpt><trkpt lat="43.51878" lon="11.3817267"><ele>627.6</ele><time>2026-04-20T10:16:04.913Z</time></trkpt><trkpt lat="43.5188533" lon="11.3817317"><ele>630.4000000000001</ele><time>2026-04-20T10:16:05.912Z</time></trkpt><trkpt lat="43.5189183" lon="11.38175"><ele>633.2</ele><time>2026-04-20T10:16:06.912Z</time></trkpt><trkpt lat="43.51902" lon="11.38183"><ele>636.0</ele><time>2026-04-20T10:16:08.913Z</time></trkpt><trkpt lat="43.519115" lon="11.3819467"><ele>636.0</ele><time>2026-04-20T10:16:10.912Z</time></trkpt><trkpt lat="43.5191783" lon="11.3820033"><ele>636.0</ele><time>2026-04-20T10:16:11.912Z</time></trkpt><trkpt lat="43.5192417" lon="11.38206"><ele>636.0</ele><time>2026-04-20T10:16:12.912Z</time></trkpt><trkpt lat="43.5193" lon="11.3821283"><ele>636.0</ele><time>2026-04-20T10:16:13.912Z</time></trkpt><trkpt lat="43.5193483" lon="11.3821983"><ele>636.0</ele><time>2026-04-20T10:16:14.912Z</time></trkpt><trkpt lat="43.5193783" lon="11.3822767"><ele>636.0</ele><time>2026-04-20T10:16:15.912Z</time></trkpt><trkpt lat="43.519395" lon="11.3823617"><ele>636.0</ele><time>2026-04-20T10:16:16.912Z</time></trkpt><trkpt lat="43.5194083" lon="11.3824517"><ele>636.6666666666666</ele><time>2026-04-20T10:16:17.912Z</time></trkpt><trkpt lat="43.5194283" lon="11.3825433"><ele>637.3333333333334</ele><time>2026-04-20T10:16:18.913Z</time></trkpt><trkpt lat="43.519455" lon="11.38263"><ele>638.0</ele><time>2026-04-20T10:16:19.912Z</time></trkpt><trkpt lat="43.519485" lon="11.38271"><ele>638.6666666666667</ele><time>2026-04-20T10:16:20.912Z</time></trkpt><trkpt lat="43.51957" lon="11.3828267"><ele>639.3333333333334</ele><time>2026-04-20T10:16:22.913Z</time></trkpt><trkpt lat="43.5196733" lon="11.38289"><ele>640.0</ele><time>2026-04-20T10:16:24.912Z</time></trkpt><trkpt lat="43.5197883" lon="11.382915"><ele>642.8</ele><time>2026-04-20T10:16:26.912Z</time></trkpt><trkpt lat="43.51989" lon="11.38295"><ele>645.6</ele><time>2026-04-20T10:16:28.913Z</time></trkpt><trkpt lat="43.5200017" lon="11.3829983"><ele>648.4000000000001</ele><time>2026-04-20T10:16:30.913Z</time></trkpt><trkpt lat="43.5201367" lon="11.3830417"><ele>651.2</ele><time>2026-04-20T10:16:32.912Z</time></trkpt><trkpt lat="43.5202067" lon="11.3830683"><ele>654.0</ele><time>2026-04-20T10:16:33.912Z</time></trkpt><trkpt lat="43.5202817" lon="11.38311"><ele>654.6666666666666</ele><time>2026-04-20T10:16:34.912Z</time></trkpt><trkpt lat="43.52036" lon="11.3831733"><ele>655.3333333333334</ele><time>2026-04-20T10:16:35.912Z</time></trkpt><trkpt lat="43.5204133" lon="11.3832383"><ele>656.0</ele><time>2026-04-20T10:16:36.912Z</time></trkpt><trkpt lat="43.5204583" lon="11.3833133"><ele>656.6666666666667</ele><time>2026-04-20T10:16:37.912Z</time></trkpt><trkpt lat="43.5204983" lon="11.3833983"><ele>657.3333333333334</ele><time>2026-04-20T10:16:38.912Z</time></trkpt><trkpt lat="43.5205333" lon="11.38349"><ele>658.0</ele><time>2026-04-20T10:16:39.912Z</time></trkpt><trkpt lat="43.520555" lon="11.3835883"><ele>658.8333333333334</ele><time>2026-04-20T10:16:40.912Z</time></trkpt><trkpt lat="43.52057" lon="11.3836883"><ele>659.6666666666667</ele><time>2026-04-20T10:16:41.912Z</time></trkpt><trkpt lat="43.5205783" lon="11.3837883"><ele>660.5</ele><time>2026-04-20T10:16:42.912Z</time></trkpt><trkpt lat="43.5205883" lon="11.3838917"><ele>661.3333333333334</ele><time>2026-04-20T10:16:43.912Z</time></trkpt><trkpt lat="43.5206" lon="11.3840033"><ele>662.1666666666666</ele><time>2026-04-20T10:16:44.912Z</time></trkpt><trkpt lat="43.5206133" lon="11.3841083"><ele>663.0</ele><time>2026-04-20T10:16:45.912Z</time></trkpt><trkpt lat="43.5206283" lon="11.384215"><ele>664.2857142857142</ele><time>2026-04-20T10:16:46.913Z</time></trkpt><trkpt lat="43.5206467" lon="11.3843083"><ele>665.5714285714286</ele><time>2026-04-20T10:16:47.912Z</time></trkpt><trkpt lat="43.5206783" lon="11.3844067"><ele>666.8571428571429</ele><time>2026-04-20T10:16:48.912Z</time></trkpt><trkpt lat="43.5207133" lon="11.3844933"><ele>668.1428571428571</ele><time>2026-04-20T10:16:49.912Z</time></trkpt><trkpt lat="43.5207533" lon="11.3845683"><ele>669.4285714285714</ele><time>2026-04-20T10:16:50.912Z</time></trkpt><trkpt lat="43.5207967" lon="11.3846517"><ele>670.7142857142857</ele><time>2026-04-20T10:16:51.912Z</time></trkpt><trkpt lat="43.520835" lon="11.384745"><ele>672.0</ele><time>2026-04-20T10:16:52.912Z</time></trkpt><trkpt lat="43.5208617" lon="11.3848517"><ele>672.2857142857143</ele><time>2026-04-20T10:16:53.913Z</time></trkpt><trkpt lat="43.5208917" lon="11.38495"><ele>672.5714285714286</ele><time>2026-04-20T10:16:54.912Z</time></trkpt><trkpt lat="43.5209233" lon="11.38504"><ele>672.8571428571429</ele><time>2026-04-20T10:16:55.912Z</time></trkpt><trkpt lat="43.5209667" lon="11.38512"><ele>673.1428571428571</ele><time>2026-04-20T10:16:56.912Z</time></trkpt><trkpt lat="43.521015" lon="11.385195"><ele>673.4285714285714</ele><time>2026-04-20T10:16:57.912Z</time></trkpt><trkpt lat="43.5210733" lon="11.3852583"><ele>673.7142857142858</ele><time>2026-04-20T10:16:58.913Z</time></trkpt><trkpt lat="43.5211333" lon="11.3853117"><ele>674.0</ele><time>2026-04-20T10:16:59.913Z</time></trkpt><trkpt lat="43.5211917" lon="11.3853567"><ele>676.4285714285714</ele><time>2026-04-20T10:17:00.912Z</time></trkpt><trkpt lat="43.5212467" lon="11.3854133"><ele>678.8571428571429</ele><time>2026-04-20T10:17:01.912Z</time></trkpt><trkpt lat="43.5213017" lon="11.3854733"><ele>681.2857142857142</ele><time>2026-04-20T10:17:02.913Z</time></trkpt><trkpt lat="43.5213633" lon="11.38553"><ele>683.7142857142858</ele><time>2026-04-20T10:17:03.912Z</time></trkpt><trkpt lat="43.5214317" lon="11.38558"><ele>686.1428571428571</ele><time>2026-04-20T10:17:04.912Z</time></trkpt><trkpt lat="43.5214983" lon="11.3856383"><ele>688.5714285714286</ele><time>2026-04-20T10:17:05.912Z</time></trkpt><trkpt lat="43.521565" lon="11.3856933"><ele>691.0</ele><time>2026-04-20T10:17:06.912Z</time></trkpt><trkpt lat="43.5216183" lon="11.3857483"><ele>691.0</ele><time>2026-04-20T10:17:07.912Z</time></trkpt><trkpt lat="43.521675" lon="11.3858133"><ele>691.0</ele><time>2026-04-20T10:17:08.912Z</time></trkpt><trkpt lat="43.5217283" lon="11.3858917"><ele>691.0</ele><time>2026-04-20T10:17:09.912Z</time></trkpt><trkpt lat="43.521765" lon="11.3859833"><ele>691.0</ele><time>2026-04-20T10:17:10.912Z</time></trkpt><trkpt lat="43.5217867" lon="11.3860883"><ele>691.0</ele><time>2026-04-20T10:17:11.912Z</time></trkpt><trkpt lat="43.5218" lon="11.3861867"><ele>691.0</ele><time>2026-04-20T10:17:12.913Z</time></trkpt><trkpt lat="43.5218" lon="11.386295"><ele>690.9999999999999</ele><time>2026-04-20T10:17:13.912Z</time></trkpt><trkpt lat="43.5217783" lon="11.3863967"><ele>691.0</ele><time>2026-04-20T10:17:14.913Z</time></trkpt><trkpt lat="43.5217567" lon="11.3864833"><ele>691.0</ele><time>2026-04-20T10:17:15.912Z</time></trkpt><trkpt lat="43.5217267" lon="11.3865733"><ele>691.0</ele><time>2026-04-20T10:17:16.912Z</time></trkpt><trkpt lat="43.5217183" lon="11.38667"><ele>691.0</ele><time>2026-04-20T10:17:17.912Z</time></trkpt><trkpt lat="43.5217317" lon="11.3867583"><ele>690.9999999999999</ele><time>2026-04-20T10:17:18.912Z</time></trkpt><trkpt lat="43.521755" lon="11.38684"><ele>691.0</ele><time>2026-04-20T10:17:19.912Z</time></trkpt><trkpt lat="43.5217833" lon="11.3869267"><ele>691.0</ele><time>2026-04-20T10:17:20.912Z</time></trkpt><trkpt lat="43.5218283" lon="11.387005"><ele>691.0</ele><time>2026-04-20T10:17:21.912Z</time></trkpt><trkpt lat="43.521885" lon="11.3870717"><ele>691.0</ele><time>2026-04-20T10:17:22.912Z</time></trkpt><trkpt lat="43.52196" lon="11.3871283"><ele>691.0</ele><time>2026-04-20T10:17:23.913Z</time></trkpt><trkpt lat="43.5220417" lon="11.38718"><ele>691.0</ele><time>2026-04-20T10:17:24.912Z</time></trkpt><trkpt lat="43.52212" lon="11.387225"><ele>691.0</ele><time>2026-04-20T10:17:25.912Z</time></trkpt><trkpt lat="43.5221933" lon="11.387255"><ele>691.5</ele><time>2026-04-20T10:17:26.912Z</time></trkpt><trkpt lat="43.52227" lon="11.387275"><ele>692.0</ele><time>2026-04-20T10:17:27.912Z</time></trkpt><trkpt lat="43.5223583" lon="11.38728"><ele>692.5</ele><time>2026-04-20T10:17:28.912Z</time></trkpt><trkpt lat="43.5224517" lon="11.3872683"><ele>693.0</ele><time>2026-04-20T10:17:29.912Z</time></trkpt><trkpt lat="43.5225417" lon="11.387265"><ele>693.5</ele><time>2026-04-20T10:17:30.912Z</time></trkpt><trkpt lat="43.522635" lon="11.3872667"><ele>694.0</ele><time>2026-04-20T10:17:31.912Z</time></trkpt><trkpt lat="43.5227267" lon="11.3872633"><ele>694.0</ele><time>2026-04-20T10:17:32.912Z</time></trkpt><trkpt lat="43.5228083" lon="11.38725"><ele>694.0</ele><time>2026-04-20T10:17:33.912Z</time></trkpt><trkpt lat="43.52289" lon="11.3872217"><ele>694.0</ele><time>2026-04-20T10:17:34.913Z</time></trkpt><trkpt lat="43.52298" lon="11.3871817"><ele>694.0</ele><time>2026-04-20T10:17:35.912Z</time></trkpt><trkpt lat="43.5230767" lon="11.3871333"><ele>694.0</ele><time>2026-04-20T10:17:36.912Z</time></trkpt><trkpt lat="43.5231733" lon="11.3870783"><ele>696.8000000000001</ele><time>2026-04-20T10:17:37.912Z</time></trkpt><trkpt lat="43.52327" lon="11.38702"><ele>699.6</ele><time>2026-04-20T10:17:38.912Z</time></trkpt><trkpt lat="43.52337" lon="11.3869633"><ele>702.4</ele><time>2026-04-20T10:17:39.913Z</time></trkpt><trkpt lat="43.5234717" lon="11.3869017"><ele>705.2</ele><time>2026-04-20T10:17:40.912Z</time></trkpt><trkpt lat="43.523575" lon="11.38684"><ele>708.0</ele><time>2026-04-20T10:17:41.912Z</time></trkpt><trkpt lat="43.52367" lon="11.3867783"><ele>707.5999999999999</ele><time>2026-04-20T10:17:42.912Z</time></trkpt><trkpt lat="43.523765" lon="11.3867"><ele>707.1999999999999</ele><time>2026-04-20T10:17:43.913Z</time></trkpt><trkpt lat="43.5238583" lon="11.386615"><ele>706.8</ele><time>2026-04-20T10:17:44.912Z</time></trkpt><trkpt lat="43.5239517" lon="11.3865367"><ele>706.4</ele><time>2026-04-20T10:17:45.913Z</time></trkpt><trkpt lat="43.5240433" lon="11.3864767"><ele>706.0</ele><time>2026-04-20T10:17:46.912Z</time></trkpt><trkpt lat="43.5241417" lon="11.3864283"><ele>706.0</ele><time>2026-04-20T10:17:47.912Z</time></trkpt><trkpt lat="43.5242383" lon="11.3864017"><ele>706.0</ele><time>2026-04-20T10:17:48.912Z</time></trkpt><trkpt lat="43.5243383" lon="11.3863833"><ele>706.0</ele><time>2026-04-20T10:17:49.912Z</time></trkpt><trkpt lat="43.52444" lon="11.3863767"><ele>706.0</ele><time>2026-04-20T10:17:50.912Z</time></trkpt><trkpt lat="43.52454" lon="11.38638"><ele>706.0</ele><time>2026-04-20T10:17:51.913Z</time></trkpt><trkpt lat="43.5246333" lon="11.386385"><ele>705.5</ele><time>2026-04-20T10:17:52.912Z</time></trkpt><trkpt lat="43.52472" lon="11.3863733"><ele>705.0</ele><time>2026-04-20T10:17:53.913Z</time></trkpt><trkpt lat="43.524795" lon="11.3863533"><ele>704.5</ele><time>2026-04-20T10:17:54.912Z</time></trkpt><trkpt lat="43.52486" lon="11.3863017"><ele>704.0</ele><time>2026-04-20T10:17:55.912Z</time></trkpt><trkpt lat="43.5249067" lon="11.38623"><ele>703.5</ele><time>2026-04-20T10:17:56.912Z</time></trkpt><trkpt lat="43.524935" lon="11.3861317"><ele>703.0</ele><time>2026-04-20T10:17:57.912Z</time></trkpt><trkpt lat="43.524955" lon="11.38602"><ele>704.5999999999999</ele><time>2026-04-20T10:17:58.912Z</time></trkpt><trkpt lat="43.524975" lon="11.3858983"><ele>706.1999999999999</ele><time>2026-04-20T10:17:59.913Z</time></trkpt><trkpt lat="43.525015" lon="11.3857817"><ele>707.8</ele><time>2026-04-20T10:18:00.912Z</time></trkpt><trkpt lat="43.5250717" lon="11.3856617"><ele>709.4</ele><time>2026-04-20T10:18:01.913Z</time></trkpt><trkpt lat="43.5251383" lon="11.3855467"><ele>711.0</ele><time>2026-04-20T10:18:02.912Z</time></trkpt><trkpt lat="43.52521" lon="11.3854367"><ele>711.0</ele><time>2026-04-20T10:18:03.913Z</time></trkpt><trkpt lat="43.5253" lon="11.3853417"><ele>711.0</ele><time>2026-04-20T10:18:04.912Z</time></trkpt><trkpt lat="43.5254033" lon="11.3852583"><ele>711.0</ele><time>2026-04-20T10:18:05.912Z</time></trkpt><trkpt lat="43.52551" lon="11.38519"><ele>711.0</ele><time>2026-04-20T10:18:06.912Z</time></trkpt><trkpt lat="43.525625" lon="11.38512"><ele>712.0</ele><time>2026-04-20T10:18:07.912Z</time></trkpt><trkpt lat="43.525735" lon="11.3850583"><ele>713.0</ele><time>2026-04-20T10:18:08.912Z</time></trkpt><trkpt lat="43.525835" lon="11.3849967"><ele>714.0</ele><time>2026-04-20T10:18:09.912Z</time></trkpt><trkpt lat="43.5259167" lon="11.3849183"><ele>715.0</ele><time>2026-04-20T10:18:10.912Z</time></trkpt><trkpt lat="43.5259817" lon="11.38483"><ele>716.0</ele><time>2026-04-20T10:18:11.913Z</time></trkpt><trkpt lat="43.526035" lon="11.3847367"><ele>715.8</ele><time>2026-04-20T10:18:12.912Z</time></trkpt><trkpt lat="43.526085" lon="11.3846367"><ele>715.5999999999999</ele><time>2026-04-20T10:18:13.912Z</time></trkpt><trkpt lat="43.526115" lon="11.3844917"><ele>715.4</ele><time>2026-04-20T10:18:14.912Z</time></trkpt><trkpt lat="43.5261367" lon="11.38432"><ele>715.2</ele><time>2026-04-20T10:18:15.913Z</time></trkpt><trkpt lat="43.5261583" lon="11.3841617"><ele>715.0</ele><time>2026-04-20T10:18:16.912Z</time></trkpt><trkpt lat="43.5261733" lon="11.383995"><ele>715.5</ele><time>2026-04-20T10:18:17.912Z</time></trkpt><trkpt lat="43.5261767" lon="11.383845"><ele>716.0</ele><time>2026-04-20T10:18:18.912Z</time></trkpt><trkpt lat="43.5261883" lon="11.3837083"><ele>716.5</ele><time>2026-04-20T10:18:19.912Z</time></trkpt><trkpt lat="43.5262033" lon="11.3835967"><ele>717.0</ele><time>2026-04-20T10:18:20.913Z</time></trkpt><trkpt lat="43.5262117" lon="11.3834867"><ele>717.5</ele><time>2026-04-20T10:18:21.913Z</time></trkpt><trkpt lat="43.5262433" lon="11.3834"><ele>718.0</ele><time>2026-04-20T10:18:22.912Z</time></trkpt><trkpt lat="43.52633" lon="11.38332"><ele>718.0</ele><time>2026-04-20T10:18:24.912Z</time></trkpt><trkpt lat="43.5264583" lon="11.3833467"><ele>718.0</ele><time>2026-04-20T10:18:26.913Z</time></trkpt><trkpt lat="43.5265467" lon="11.3833833"><ele>718.0</ele><time>2026-04-20T10:18:27.912Z</time></trkpt><trkpt lat="43.5266433" lon="11.3834283"><ele>718.0</ele><time>2026-04-20T10:18:28.912Z</time></trkpt><trkpt lat="43.5267433" lon="11.3834783"><ele>718.0</ele><time>2026-04-20T10:18:29.912Z</time></trkpt><trkpt lat="43.5268383" lon="11.383515"><ele>718.0</ele><time>2026-04-20T10:18:30.913Z</time></trkpt><trkpt lat="43.5269367" lon="11.3835333"><ele>718.0</ele><time>2026-04-20T10:18:31.912Z</time></trkpt><trkpt lat="43.5270383" lon="11.3835317"><ele>718.0</ele><time>2026-04-20T10:18:32.912Z</time></trkpt><trkpt lat="43.5271467" lon="11.3834983"><ele>718.0</ele><time>2026-04-20T10:18:33.912Z</time></trkpt><trkpt lat="43.5272383" lon="11.3834367"><ele>718.0</ele><time>2026-04-20T10:18:34.913Z</time></trkpt><trkpt lat="43.5273183" lon="11.3833567"><ele>718.8333333333334</ele><time>2026-04-20T10:18:35.912Z</time></trkpt><trkpt lat="43.5273767" lon="11.3832517"><ele>719.6666666666667</ele><time>2026-04-20T10:18:36.912Z</time></trkpt><trkpt lat="43.5274217" lon="11.38314"><ele>720.5</ele><time>2026-04-20T10:18:37.913Z</time></trkpt><trkpt lat="43.5274483" lon="11.3830233"><ele>721.3333333333334</ele><time>2026-04-20T10:18:38.913Z</time></trkpt><trkpt lat="43.5274533" lon="11.3829183"><ele>722.1666666666666</ele><time>2026-04-20T10:18:39.913Z</time></trkpt><trkpt lat="43.5274267" lon="11.382815"><ele>723.0</ele><time>2026-04-20T10:18:40.913Z</time></trkpt><trkpt lat="43.5273933" lon="11.382715"><ele>723.3333333333334</ele><time>2026-04-20T10:18:41.912Z</time></trkpt><trkpt lat="43.5273533" lon="11.3826067"><ele>723.6666666666666</ele><time>2026-04-20T10:18:42.913Z</time></trkpt><trkpt lat="43.5273333" lon="11.382505"><ele>724.0</ele><time>2026-04-20T10:18:43.912Z</time></trkpt><trkpt lat="43.5273283" lon="11.3824067"><ele>724.3333333333333</ele><time>2026-04-20T10:18:44.912Z</time></trkpt><trkpt lat="43.5273367" lon="11.3823067"><ele>724.6666666666666</ele><time>2026-04-20T10:18:45.913Z</time></trkpt><trkpt lat="43.52737" lon="11.3822233"><ele>725.0</ele><time>2026-04-20T10:18:46.912Z</time></trkpt><trkpt lat="43.5274133" lon="11.3821333"><ele>725.0</ele><time>2026-04-20T10:18:47.912Z</time></trkpt><trkpt lat="43.5274783" lon="11.3820583"><ele>725.0</ele><time>2026-04-20T10:18:48.912Z</time></trkpt><trkpt lat="43.52755" lon="11.3819817"><ele>725.0</ele><time>2026-04-20T10:18:49.912Z</time></trkpt><trkpt lat="43.5276133" lon="11.381905"><ele>725.0</ele><time>2026-04-20T10:18:50.912Z</time></trkpt><trkpt lat="43.5276733" lon="11.3818233"><ele>725.0</ele><time>2026-04-20T10:18:51.912Z</time></trkpt><trkpt lat="43.5277333" lon="11.3817333"><ele>725.0</ele><time>2026-04-20T10:18:52.912Z</time></trkpt><trkpt lat="43.527795" lon="11.3816283"><ele>725.0</ele><time>2026-04-20T10:18:53.912Z</time></trkpt><trkpt lat="43.5278567" lon="11.3815267"><ele>725.0</ele><time>2026-04-20T10:18:54.912Z</time></trkpt><trkpt lat="43.5279167" lon="11.3814317"><ele>725.0</ele><time>2026-04-20T10:18:55.912Z</time></trkpt><trkpt lat="43.5279817" lon="11.3813283"><ele>725.0</ele><time>2026-04-20T10:18:56.912Z</time></trkpt><trkpt lat="43.5280433" lon="11.3812217"><ele>725.0</ele><time>2026-04-20T10:18:57.912Z</time></trkpt><trkpt lat="43.5280967" lon="11.38112"><ele>728.1666666666666</ele><time>2026-04-20T10:18:58.912Z</time></trkpt><trkpt lat="43.5281467" lon="11.38103"><ele>731.3333333333333</ele><time>2026-04-20T10:18:59.912Z</time></trkpt><trkpt lat="43.5281967" lon="11.3809433"><ele>734.5</ele><time>2026-04-20T10:19:00.912Z</time></trkpt><trkpt lat="43.5282467" lon="11.38086"><ele>737.6666666666666</ele><time>2026-04-20T10:19:01.912Z</time></trkpt><trkpt lat="43.5283017" lon="11.38079"><ele>740.8333333333334</ele><time>2026-04-20T10:19:02.913Z</time></trkpt><trkpt lat="43.5283633" lon="11.3807217"><ele>744.0</ele><time>2026-04-20T10:19:03.912Z</time></trkpt><trkpt lat="43.5284333" lon="11.38067"><ele>744.0</ele><time>2026-04-20T10:19:04.913Z</time></trkpt><trkpt lat="43.5285183" lon="11.380635"><ele>744.0</ele><time>2026-04-20T10:19:05.912Z</time></trkpt><trkpt lat="43.5286017" lon="11.3806117"><ele>744.0</ele><time>2026-04-20T10:19:06.912Z</time></trkpt><trkpt lat="43.5286767" lon="11.3805967"><ele>744.0</ele><time>2026-04-20T10:19:07.912Z</time></trkpt><trkpt lat="43.5287817" lon="11.380515"><ele>744.0</ele><time>2026-04-20T10:19:09.912Z</time></trkpt><trkpt lat="43.5288017" lon="11.3803817"><ele>746.2</ele><time>2026-04-20T10:19:11.912Z</time></trkpt><trkpt lat="43.5287283" lon="11.38025"><ele>748.4000000000001</ele><time>2026-04-20T10:19:13.912Z</time></trkpt><trkpt lat="43.52866" lon="11.3801867"><ele>750.6</ele><time>2026-04-20T10:19:14.912Z</time></trkpt><trkpt lat="43.5285933" lon="11.3801083"><ele>752.8</ele><time>2026-04-20T10:19:15.912Z</time></trkpt><trkpt lat="43.5285267" lon="11.3800317"><ele>755.0</ele><time>2026-04-20T10:19:16.912Z</time></trkpt><trkpt lat="43.52846" lon="11.3799567"><ele>755.0</ele><time>2026-04-20T10:19:17.913Z</time></trkpt><trkpt lat="43.528385" lon="11.3798967"><ele>755.0</ele><time>2026-04-20T10:19:18.913Z</time></trkpt><trkpt lat="43.528295" lon="11.3798483"><ele>755.0</ele><time>2026-04-20T10:19:19.912Z</time></trkpt><trkpt lat="43.5281983" lon="11.3798133"><ele>755.0</ele><time>2026-04-20T10:19:20.912Z</time></trkpt><trkpt lat="43.5281033" lon="11.379815"><ele>755.0</ele><time>2026-04-20T10:19:21.912Z</time></trkpt><trkpt lat="43.5280167" lon="11.3798167"><ele>755.0</ele><time>2026-04-20T10:19:22.912Z</time></trkpt><trkpt lat="43.5279317" lon="11.3798067"><ele>755.0</ele><time>2026-04-20T10:19:23.912Z</time></trkpt><trkpt lat="43.52785" lon="11.37978"><ele>755.0</ele><time>2026-04-20T10:19:24.912Z</time></trkpt><trkpt lat="43.527775" lon="11.3797283"><ele>755.0</ele><time>2026-04-20T10:19:25.912Z</time></trkpt><trkpt lat="43.5277017" lon="11.3796833"><ele>755.0</ele><time>2026-04-20T10:19:26.913Z</time></trkpt><trkpt lat="43.52762" lon="11.3796633"><ele>755.0</ele><time>2026-04-20T10:19:27.913Z</time></trkpt><trkpt lat="43.5275417" lon="11.3796683"><ele>754.4285714285714</ele><time>2026-04-20T10:19:28.912Z</time></trkpt><trkpt lat="43.5274733" lon="11.3796933"><ele>753.8571428571429</ele><time>2026-04-20T10:19:29.912Z</time></trkpt><trkpt lat="43.5274067" lon="11.3797083"><ele>753.2857142857143</ele><time>2026-04-20T10:19:30.912Z</time></trkpt><trkpt lat="43.5273417" lon="11.3797017"><ele>752.7142857142858</ele><time>2026-04-20T10:19:31.913Z</time></trkpt><trkpt lat="43.527275" lon="11.3796633"><ele>752.1428571428571</ele><time>2026-04-20T10:19:32.913Z</time></trkpt><trkpt lat="43.5272217" lon="11.3795967"><ele>751.5714285714287</ele><time>2026-04-20T10:19:33.912Z</time></trkpt><trkpt lat="43.52718" lon="11.3795083"><ele>751.0</ele><time>2026-04-20T10:19:34.912Z</time></trkpt><trkpt lat="43.52714" lon="11.3794133"><ele>750.8</ele><time>2026-04-20T10:19:35.912Z</time></trkpt><trkpt lat="43.5271017" lon="11.37931"><ele>750.5999999999999</ele><time>2026-04-20T10:19:36.913Z</time></trkpt><trkpt lat="43.5270633" lon="11.3791933"><ele>750.4</ele><time>2026-04-20T10:19:37.913Z</time></trkpt><trkpt lat="43.5270333" lon="11.3790733"><ele>750.2</ele><time>2026-04-20T10:19:38.912Z</time></trkpt><trkpt lat="43.5270133" lon="11.3789483"><ele>750.0</ele><time>2026-04-20T10:19:39.912Z</time></trkpt><trkpt lat="43.5270033" lon="11.3788067"><ele>752.2</ele><time>2026-04-20T10:19:40.912Z</time></trkpt><trkpt lat="43.5269917" lon="11.3786617"><ele>754.4</ele><time>2026-04-20T10:19:41.913Z</time></trkpt><trkpt lat="43.5269717" lon="11.378525"><ele>756.5999999999999</ele><time>2026-04-20T10:19:42.912Z</time></trkpt><trkpt lat="43.5269383" lon="11.3784083"><ele>758.8</ele><time>2026-04-20T10:19:43.912Z</time></trkpt><trkpt lat="43.52689" lon="11.3782967"><ele>761.0</ele><time>2026-04-20T10:19:44.912Z</time></trkpt><trkpt lat="43.5268383" lon="11.37819"><ele>761.0</ele><time>2026-04-20T10:19:45.912Z</time></trkpt><trkpt lat="43.5267783" lon="11.3780867"><ele>761.0</ele><time>2026-04-20T10:19:46.912Z</time></trkpt><trkpt lat="43.5267233" lon="11.3779917"><ele>761.0</ele><time>2026-04-20T10:19:47.913Z</time></trkpt><trkpt lat="43.5266917" lon="11.3778983"><ele>761.0</ele><time>2026-04-20T10:19:48.912Z</time></trkpt><trkpt lat="43.5266767" lon="11.3778117"><ele>761.0</ele><time>2026-04-20T10:19:49.912Z</time></trkpt><trkpt lat="43.5266733" lon="11.3777117"><ele>761.0</ele><time>2026-04-20T10:19:50.912Z</time></trkpt><trkpt lat="43.5266867" lon="11.377615"><ele>761.0</ele><time>2026-04-20T10:19:51.912Z</time></trkpt><trkpt lat="43.526725" lon="11.3775283"><ele>761.0</ele><time>2026-04-20T10:19:52.912Z</time></trkpt><trkpt lat="43.526775" lon="11.3774467"><ele>761.0</ele><time>2026-04-20T10:19:53.912Z</time></trkpt><trkpt lat="43.526845" lon="11.3773717"><ele>761.0</ele><time>2026-04-20T10:19:54.912Z</time></trkpt><trkpt lat="43.5269183" lon="11.3772833"><ele>761.0</ele><time>2026-04-20T10:19:55.912Z</time></trkpt><trkpt lat="43.526985" lon="11.3771867"><ele>761.0</ele><time>2026-04-20T10:19:56.912Z</time></trkpt><trkpt lat="43.527045" lon="11.3770767"><ele>762.8333333333333</ele><time>2026-04-20T10:19:57.912Z</time></trkpt><trkpt lat="43.5271033" lon="11.3769633"><ele>764.6666666666666</ele><time>2026-04-20T10:19:58.912Z</time></trkpt><trkpt lat="43.52717" lon="11.376885"><ele>766.5</ele><time>2026-04-20T10:19:59.912Z</time></trkpt><trkpt lat="43.5272317" lon="11.3768117"><ele>768.3333333333333</ele><time>2026-04-20T10:20:00.913Z</time></trkpt><trkpt lat="43.5272917" lon="11.3767317"><ele>770.1666666666666</ele><time>2026-04-20T10:20:01.912Z</time></trkpt><trkpt lat="43.52733" lon="11.3766483"><ele>772.0</ele><time>2026-04-20T10:20:02.912Z</time></trkpt><trkpt lat="43.5273533" lon="11.3765533"><ele>771.9999999999999</ele><time>2026-04-20T10:20:03.912Z</time></trkpt><trkpt lat="43.5273583" lon="11.3764483"><ele>772.0</ele><time>2026-04-20T10:20:04.912Z</time></trkpt><trkpt lat="43.5273283" lon="11.3763417"><ele>772.0</ele><time>2026-04-20T10:20:05.912Z</time></trkpt><trkpt lat="43.5272767" lon="11.3762433"><ele>772.0</ele><time>2026-04-20T10:20:06.912Z</time></trkpt><trkpt lat="43.527205" lon="11.3761533"><ele>771.9999999999999</ele><time>2026-04-20T10:20:07.912Z</time></trkpt><trkpt lat="43.527125" lon="11.3760717"><ele>772.0</ele><time>2026-04-20T10:20:08.912Z</time></trkpt><trkpt lat="43.5270433" lon="11.376"><ele>769.3333333333333</ele><time>2026-04-20T10:20:09.913Z</time></trkpt><trkpt lat="43.5269617" lon="11.3759467"><ele>766.6666666666666</ele><time>2026-04-20T10:20:10.912Z</time></trkpt><trkpt lat="43.52688" lon="11.375875"><ele>764.0</ele><time>2026-04-20T10:20:11.912Z</time></trkpt><trkpt lat="43.52681" lon="11.37581"><ele>761.3333333333333</ele><time>2026-04-20T10:20:12.912Z</time></trkpt><trkpt lat="43.5267467" lon="11.375725"><ele>758.6666666666666</ele><time>2026-04-20T10:20:13.912Z</time></trkpt><trkpt lat="43.5267033" lon="11.3756333"><ele>756.0</ele><time>2026-04-20T10:20:14.913Z</time></trkpt><trkpt lat="43.5266817" lon="11.3755283"><ele>755.6666666666666</ele><time>2026-04-20T10:20:15.912Z</time></trkpt><trkpt lat="43.526685" lon="11.3754133"><ele>755.3333333333334</ele><time>2026-04-20T10:20:16.912Z</time></trkpt><trkpt lat="43.526715" lon="11.375305"><ele>755.0</ele><time>2026-04-20T10:20:17.912Z</time></trkpt><trkpt lat="43.5267617" lon="11.3752217"><ele>754.6666666666667</ele><time>2026-04-20T10:20:18.912Z</time></trkpt><trkpt lat="43.52683" lon="11.3751467"><ele>754.3333333333334</ele><time>2026-04-20T10:20:19.912Z</time></trkpt><trkpt lat="43.5269083" lon="11.3750933"><ele>754.0</ele><time>2026-04-20T10:20:20.912Z</time></trkpt><trkpt lat="43.5269883" lon="11.375075"><ele>753.4000000000001</ele><time>2026-04-20T10:20:21.912Z</time></trkpt><trkpt lat="43.5270767" lon="11.375075"><ele>752.8</ele><time>2026-04-20T10:20:22.912Z</time></trkpt><trkpt lat="43.527165" lon="11.3751017"><ele>752.2</ele><time>2026-04-20T10:20:23.912Z</time></trkpt><trkpt lat="43.527265" lon="11.3751417"><ele>751.5999999999999</ele><time>2026-04-20T10:20:24.913Z</time></trkpt><trkpt lat="43.52737" lon="11.3751967"><ele>751.0</ele><time>2026-04-20T10:20:25.913Z</time></trkpt><trkpt lat="43.5274567" lon="11.3752683"><ele>751.0</ele><time>2026-04-20T10:20:26.913Z</time></trkpt><trkpt lat="43.5275417" lon="11.375325"><ele>751.0</ele><time>2026-04-20T10:20:27.913Z</time></trkpt><trkpt lat="43.5276333" lon="11.375365"><ele>751.0</ele><time>2026-04-20T10:20:28.913Z</time></trkpt><trkpt lat="43.527725" lon="11.3753933"><ele>751.0</ele><time>2026-04-20T10:20:29.913Z</time></trkpt><trkpt lat="43.527805" lon="11.375415"><ele>751.0</ele><time>2026-04-20T10:20:30.912Z</time></trkpt><trkpt lat="43.5278967" lon="11.3754383"><ele>752.3333333333334</ele><time>2026-04-20T10:20:31.912Z</time></trkpt><trkpt lat="43.5279867" lon="11.3754717"><ele>753.6666666666667</ele><time>2026-04-20T10:20:32.912Z</time></trkpt><trkpt lat="43.5280683" lon="11.3755167"><ele>755.0</ele><time>2026-04-20T10:20:33.913Z</time></trkpt><trkpt lat="43.52815" lon="11.375565"><ele>756.3333333333334</ele><time>2026-04-20T10:20:34.912Z</time></trkpt><trkpt lat="43.5282233" lon="11.3756167"><ele>757.6666666666666</ele><time>2026-04-20T10:20:35.911Z</time></trkpt><trkpt lat="43.528295" lon="11.375655"><ele>759.0</ele><time>2026-04-20T10:20:36.911Z</time></trkpt><trkpt lat="43.5283617" lon="11.3756467"><ele>759.0</ele><time>2026-04-20T10:20:37.911Z</time></trkpt><trkpt lat="43.5284717" lon="11.3755533"><ele>759.0</ele><time>2026-04-20T10:20:39.911Z</time></trkpt><trkpt lat="43.5284983" lon="11.3754733"><ele>759.0</ele><time>2026-04-20T10:20:40.911Z</time></trkpt><trkpt lat="43.52848" lon="11.3753733"><ele>759.0</ele><time>2026-04-20T10:20:41.911Z</time></trkpt><trkpt lat="43.52844" lon="11.3752767"><ele>759.0</ele><time>2026-04-20T10:20:42.911Z</time></trkpt><trkpt lat="43.5283867" lon="11.3751883"><ele>759.0</ele><time>2026-04-20T10:20:43.912Z</time></trkpt><trkpt lat="43.5283317" lon="11.3750983"><ele>759.0</ele><time>2026-04-20T10:20:44.911Z</time></trkpt><trkpt lat="43.5282733" lon="11.375"><ele>759.0</ele><time>2026-04-20T10:20:45.912Z</time></trkpt><trkpt lat="43.5282183" lon="11.37489"><ele>759.0</ele><time>2026-04-20T10:20:46.911Z</time></trkpt><trkpt lat="43.5281717" lon="11.3747783"><ele>759.0</ele><time>2026-04-20T10:20:47.911Z</time></trkpt><trkpt lat="43.5281417" lon="11.3746467"><ele>759.0</ele><time>2026-04-20T10:20:48.911Z</time></trkpt><trkpt lat="43.5281067" lon="11.3745233"><ele>760.0</ele><time>2026-04-20T10:20:49.912Z</time></trkpt><trkpt lat="43.528075" lon="11.3743867"><ele>761.0</ele><time>2026-04-20T10:20:50.912Z</time></trkpt><trkpt lat="43.5280383" lon="11.3742433"><ele>762.0</ele><time>2026-04-20T10:20:51.911Z</time></trkpt><trkpt lat="43.5279933" lon="11.3741067"><ele>763.0</ele><time>2026-04-20T10:20:52.911Z</time></trkpt><trkpt lat="43.5279517" lon="11.37398"><ele>764.0</ele><time>2026-04-20T10:20:53.911Z</time></trkpt><trkpt lat="43.5279117" lon="11.3738583"><ele>761.2</ele><time>2026-04-20T10:20:54.912Z</time></trkpt><trkpt lat="43.5278783" lon="11.3737317"><ele>758.4000000000001</ele><time>2026-04-20T10:20:55.911Z</time></trkpt><trkpt lat="43.5278517" lon="11.3736067"><ele>755.6</ele><time>2026-04-20T10:20:56.911Z</time></trkpt><trkpt lat="43.527815" lon="11.3734867"><ele>752.8</ele><time>2026-04-20T10:20:57.911Z</time></trkpt><trkpt lat="43.52777" lon="11.3733683"><ele>750.0</ele><time>2026-04-20T10:20:58.912Z</time></trkpt><trkpt lat="43.5277233" lon="11.3732533"><ele>750.0</ele><time>2026-04-20T10:20:59.911Z</time></trkpt><trkpt lat="43.52768" lon="11.3731467"><ele>750.0</ele><time>2026-04-20T10:21:00.912Z</time></trkpt><trkpt lat="43.5276533" lon="11.3730183"><ele>750.0</ele><time>2026-04-20T10:21:01.911Z</time></trkpt><trkpt lat="43.527635" lon="11.3728817"><ele>750.0</ele><time>2026-04-20T10:21:02.911Z</time></trkpt><trkpt lat="43.527635" lon="11.372755"><ele>750.0</ele><time>2026-04-20T10:21:03.912Z</time></trkpt><trkpt lat="43.5276333" lon="11.37263"><ele>750.4</ele><time>2026-04-20T10:21:04.911Z</time></trkpt><trkpt lat="43.527615" lon="11.37252"><ele>750.8</ele><time>2026-04-20T10:21:05.911Z</time></trkpt><trkpt lat="43.5275783" lon="11.37242"><ele>751.2</ele><time>2026-04-20T10:21:06.911Z</time></trkpt><trkpt lat="43.52753" lon="11.3723233"><ele>751.6</ele><time>2026-04-20T10:21:07.911Z</time></trkpt><trkpt lat="43.5274583" lon="11.37223"><ele>752.0</ele><time>2026-04-20T10:21:08.911Z</time></trkpt><trkpt lat="43.5273733" lon="11.3721433"><ele>752.0</ele><time>2026-04-20T10:21:09.911Z</time></trkpt><trkpt lat="43.5272833" lon="11.3720683"><ele>752.0</ele><time>2026-04-20T10:21:10.911Z</time></trkpt><trkpt lat="43.5272033" lon="11.3719917"><ele>752.0</ele><time>2026-04-20T10:21:11.912Z</time></trkpt><trkpt lat="43.5271267" lon="11.3719233"><ele>752.0</ele><time>2026-04-20T10:21:12.911Z</time></trkpt><trkpt lat="43.5270517" lon="11.37184"><ele>752.0</ele><time>2026-04-20T10:21:13.911Z</time></trkpt><trkpt lat="43.5269867" lon="11.37177"><ele>750.1666666666666</ele><time>2026-04-20T10:21:14.911Z</time></trkpt><trkpt lat="43.52694" lon="11.3716867"><ele>748.3333333333333</ele><time>2026-04-20T10:21:15.911Z</time></trkpt><trkpt lat="43.5269183" lon="11.3715917"><ele>746.5</ele><time>2026-04-20T10:21:16.911Z</time></trkpt><trkpt lat="43.52692" lon="11.3714867"><ele>744.6666666666666</ele><time>2026-04-20T10:21:17.911Z</time></trkpt><trkpt lat="43.5269417" lon="11.371385"><ele>742.8333333333334</ele><time>2026-04-20T10:21:18.911Z</time></trkpt><trkpt lat="43.5269833" lon="11.371285"><ele>741.0</ele><time>2026-04-20T10:21:19.911Z</time></trkpt><trkpt lat="43.527045" lon="11.371185"><ele>741.3333333333334</ele><time>2026-04-20T10:21:20.912Z</time></trkpt><trkpt lat="43.5271067" lon="11.3710867"><ele>741.6666666666666</ele><time>2026-04-20T10:21:21.911Z</time></trkpt><trkpt lat="43.5271683" lon="11.3709883"><ele>742.0</ele><time>2026-04-20T10:21:22.912Z</time></trkpt><trkpt lat="43.5272133" lon="11.3708917"><ele>742.3333333333333</ele><time>2026-04-20T10:21:23.911Z</time></trkpt><trkpt lat="43.5272483" lon="11.3707983"><ele>742.6666666666666</ele><time>2026-04-20T10:21:24.911Z</time></trkpt><trkpt lat="43.52726" lon="11.3706983"><ele>743.0</ele><time>2026-04-20T10:21:25.911Z</time></trkpt><trkpt lat="43.5272617" lon="11.3705817"><ele>741.5</ele><time>2026-04-20T10:21:26.911Z</time></trkpt><trkpt lat="43.52724" lon="11.3704783"><ele>740.0</ele><time>2026-04-20T10:21:27.911Z</time></trkpt><trkpt lat="43.5272067" lon="11.3703767"><ele>738.5</ele><time>2026-04-20T10:21:28.911Z</time></trkpt><trkpt lat="43.527165" lon="11.370275"><ele>737.0</ele><time>2026-04-20T10:21:29.911Z</time></trkpt><trkpt lat="43.5271083" lon="11.3701917"><ele>735.5</ele><time>2026-04-20T10:21:30.911Z</time></trkpt><trkpt lat="43.52704" lon="11.370125"><ele>734.0</ele><time>2026-04-20T10:21:31.911Z</time></trkpt><trkpt lat="43.5269567" lon="11.3700767"><ele>734.0</ele><time>2026-04-20T10:21:32.911Z</time></trkpt><trkpt lat="43.526865" lon="11.3700283"><ele>734.0</ele><time>2026-04-20T10:21:33.911Z</time></trkpt><trkpt lat="43.5267833" lon="11.3699783"><ele>734.0</ele><time>2026-04-20T10:21:34.911Z</time></trkpt><trkpt lat="43.5267133" lon="11.369905"><ele>734.0</ele><time>2026-04-20T10:21:35.911Z</time></trkpt><trkpt lat="43.5266533" lon="11.3698217"><ele>734.0</ele><time>2026-04-20T10:21:36.912Z</time></trkpt><trkpt lat="43.5266033" lon="11.3697283"><ele>734.0</ele><time>2026-04-20T10:21:37.911Z</time></trkpt><trkpt lat="43.5265667" lon="11.3696267"><ele>732.8000000000001</ele><time>2026-04-20T10:21:38.911Z</time></trkpt><trkpt lat="43.5265283" lon="11.3695"><ele>731.6</ele><time>2026-04-20T10:21:39.911Z</time></trkpt><trkpt lat="43.5264933" lon="11.3693617"><ele>730.4</ele><time>2026-04-20T10:21:40.911Z</time></trkpt><trkpt lat="43.5264617" lon="11.3692267"><ele>729.2</ele><time>2026-04-20T10:21:41.911Z</time></trkpt><trkpt lat="43.5264383" lon="11.3691067"><ele>728.0</ele><time>2026-04-20T10:21:42.911Z</time></trkpt><trkpt lat="43.5264083" lon="11.3689883"><ele>728.0</ele><time>2026-04-20T10:21:43.911Z</time></trkpt><trkpt lat="43.526365" lon="11.3688717"><ele>728.0</ele><time>2026-04-20T10:21:44.911Z</time></trkpt><trkpt lat="43.5263083" lon="11.3687533"><ele>728.0</ele><time>2026-04-20T10:21:45.911Z</time></trkpt><trkpt lat="43.5262517" lon="11.3686517"><ele>728.0</ele><time>2026-04-20T10:21:46.911Z</time></trkpt><trkpt lat="43.5261817" lon="11.3685483"><ele>728.0</ele><time>2026-04-20T10:21:47.911Z</time></trkpt><trkpt lat="43.5260983" lon="11.36845"><ele>725.5999999999999</ele><time>2026-04-20T10:21:48.912Z</time></trkpt><trkpt lat="43.52601" lon="11.3683583"><ele>723.1999999999999</ele><time>2026-04-20T10:21:49.911Z</time></trkpt><trkpt lat="43.52593" lon="11.3682683"><ele>720.8</ele><time>2026-04-20T10:21:50.911Z</time></trkpt><trkpt lat="43.5258467" lon="11.36818"><ele>718.4</ele><time>2026-04-20T10:21:51.911Z</time></trkpt><trkpt lat="43.52577" lon="11.3681"><ele>716.0</ele><time>2026-04-20T10:21:52.912Z</time></trkpt><trkpt lat="43.5256933" lon="11.3680183"><ele>715.8333333333333</ele><time>2026-04-20T10:21:53.912Z</time></trkpt><trkpt lat="43.5256233" lon="11.3679333"><ele>715.6666666666666</ele><time>2026-04-20T10:21:54.911Z</time></trkpt><trkpt lat="43.5255617" lon="11.367845"><ele>715.5</ele><time>2026-04-20T10:21:55.911Z</time></trkpt><trkpt lat="43.5255183" lon="11.3677367"><ele>715.3333333333334</ele><time>2026-04-20T10:21:56.911Z</time></trkpt><trkpt lat="43.525505" lon="11.36762"><ele>715.1666666666667</ele><time>2026-04-20T10:21:57.912Z</time></trkpt><trkpt lat="43.52551" lon="11.3675067"><ele>715.0</ele><time>2026-04-20T10:21:58.911Z</time></trkpt><trkpt lat="43.5255417" lon="11.36741"><ele>715.0</ele><time>2026-04-20T10:21:59.911Z</time></trkpt><trkpt lat="43.5255983" lon="11.367325"><ele>715.0</ele><time>2026-04-20T10:22:00.912Z</time></trkpt><trkpt lat="43.5256633" lon="11.3672617"><ele>715.0</ele><time>2026-04-20T10:22:01.912Z</time></trkpt><trkpt lat="43.5257467" lon="11.3672233"><ele>715.0</ele><time>2026-04-20T10:22:02.912Z</time></trkpt><trkpt lat="43.52584" lon="11.3672217"><ele>715.0</ele><time>2026-04-20T10:22:03.911Z</time></trkpt><trkpt lat="43.5259333" lon="11.3672617"><ele>715.0</ele><time>2026-04-20T10:22:04.911Z</time></trkpt><trkpt lat="43.5260217" lon="11.367335"><ele>715.0</ele><time>2026-04-20T10:22:05.911Z</time></trkpt><trkpt lat="43.5261083" lon="11.3674283"><ele>715.0</ele><time>2026-04-20T10:22:06.912Z</time></trkpt><trkpt lat="43.5261867" lon="11.3675283"><ele>715.0</ele><time>2026-04-20T10:22:07.911Z</time></trkpt><trkpt lat="43.52626" lon="11.3676233"><ele>715.0</ele><time>2026-04-20T10:22:08.911Z</time></trkpt><trkpt lat="43.5263217" lon="11.36771"><ele>715.0</ele><time>2026-04-20T10:22:09.912Z</time></trkpt><trkpt lat="43.5263917" lon="11.3677833"><ele>714.1666666666667</ele><time>2026-04-20T10:22:10.911Z</time></trkpt><trkpt lat="43.5264567" lon="11.367855"><ele>713.3333333333334</ele><time>2026-04-20T10:22:11.911Z</time></trkpt><trkpt lat="43.526525" lon="11.3679083"><ele>712.5</ele><time>2026-04-20T10:22:12.911Z</time></trkpt><trkpt lat="43.526595" lon="11.3679367"><ele>711.6666666666666</ele><time>2026-04-20T10:22:13.912Z</time></trkpt><trkpt lat="43.5266667" lon="11.36794"><ele>710.8333333333333</ele><time>2026-04-20T10:22:14.911Z</time></trkpt><trkpt lat="43.5267367" lon="11.3679217"><ele>710.0</ele><time>2026-04-20T10:22:15.912Z</time></trkpt><trkpt lat="43.5268133" lon="11.3678767"><ele>710.0</ele><time>2026-04-20T10:22:16.911Z</time></trkpt><trkpt lat="43.5268783" lon="11.3678033"><ele>710.0</ele><time>2026-04-20T10:22:17.912Z</time></trkpt><trkpt lat="43.5269217" lon="11.3677"><ele>710.0</ele><time>2026-04-20T10:22:18.911Z</time></trkpt><trkpt lat="43.52694" lon="11.3675867"><ele>710.0</ele><time>2026-04-20T10:22:19.911Z</time></trkpt><trkpt lat="43.5269433" lon="11.367475"><ele>710.0</ele><time>2026-04-20T10:22:20.911Z</time></trkpt><trkpt lat="43.5269267" lon="11.36737"><ele>710.0</ele><time>2026-04-20T10:22:21.911Z</time></trkpt><trkpt lat="43.5268667" lon="11.3672517"><ele>709.6</ele><time>2026-04-20T10:22:22.911Z</time></trkpt><trkpt lat="43.5267983" lon="11.36713"><ele>709.2</ele><time>2026-04-20T10:22:23.912Z</time></trkpt><trkpt lat="43.5267267" lon="11.3670083"><ele>708.8</ele><time>2026-04-20T10:22:24.911Z</time></trkpt><trkpt lat="43.5266617" lon="11.3668917"><ele>708.4</ele><time>2026-04-20T10:22:25.912Z</time></trkpt><trkpt lat="43.5265967" lon="11.3667833"><ele>708.0</ele><time>2026-04-20T10:22:26.911Z</time></trkpt><trkpt lat="43.52653" lon="11.3666783"><ele>708.0</ele><time>2026-04-20T10:22:27.911Z</time></trkpt><trkpt lat="43.5264733" lon="11.3665733"><ele>708.0</ele><time>2026-04-20T10:22:28.911Z</time></trkpt><trkpt lat="43.5264283" lon="11.3664617"><ele>708.0</ele><time>2026-04-20T10:22:29.911Z</time></trkpt><trkpt lat="43.526395" lon="11.3663467"><ele>708.0</ele><time>2026-04-20T10:22:30.911Z</time></trkpt><trkpt lat="43.526375" lon="11.36623"><ele>708.0</ele><time>2026-04-20T10:22:31.911Z</time></trkpt><trkpt lat="43.5263683" lon="11.36611"><ele>707.4</ele><time>2026-04-20T10:22:32.912Z</time></trkpt><trkpt lat="43.5263783" lon="11.3659867"><ele>706.8</ele><time>2026-04-20T10:22:33.912Z</time></trkpt><trkpt lat="43.5264" lon="11.36586"><ele>706.2</ele><time>2026-04-20T10:22:34.911Z</time></trkpt><trkpt lat="43.526435" lon="11.36573"><ele>705.6</ele><time>2026-04-20T10:22:35.911Z</time></trkpt><trkpt lat="43.52647" lon="11.3656017"><ele>705.0</ele><time>2026-04-20T10:22:36.912Z</time></trkpt><trkpt lat="43.5265133" lon="11.3654767"><ele>704.3333333333334</ele><time>2026-04-20T10:22:37.911Z</time></trkpt><trkpt lat="43.5265517" lon="11.36536"><ele>703.6666666666666</ele><time>2026-04-20T10:22:38.912Z</time></trkpt><trkpt lat="43.5265783" lon="11.36525"><ele>703.0</ele><time>2026-04-20T10:22:39.912Z</time></trkpt><trkpt lat="43.5265917" lon="11.3651333"><ele>702.3333333333333</ele><time>2026-04-20T10:22:40.911Z</time></trkpt><trkpt lat="43.5265917" lon="11.3650067"><ele>701.6666666666666</ele><time>2026-04-20T10:22:41.911Z</time></trkpt><trkpt lat="43.5265667" lon="11.364885"><ele>701.0</ele><time>2026-04-20T10:22:42.911Z</time></trkpt><trkpt lat="43.5265283" lon="11.3647667"><ele>699.4</ele><time>2026-04-20T10:22:43.912Z</time></trkpt><trkpt lat="43.5264783" lon="11.364655"><ele>697.8</ele><time>2026-04-20T10:22:44.911Z</time></trkpt><trkpt lat="43.5264133" lon="11.364545"><ele>696.1999999999999</ele><time>2026-04-20T10:22:45.912Z</time></trkpt><trkpt lat="43.5263483" lon="11.3644383"><ele>694.5999999999999</ele><time>2026-04-20T10:22:46.911Z</time></trkpt><trkpt lat="43.5262817" lon="11.3643333"><ele>693.0</ele><time>2026-04-20T10:22:47.911Z</time></trkpt><trkpt lat="43.5262167" lon="11.364225"><ele>693.0</ele><time>2026-04-20T10:22:48.912Z</time></trkpt><trkpt lat="43.526155" lon="11.3641217"><ele>693.0</ele><time>2026-04-20T10:22:49.911Z</time></trkpt><trkpt lat="43.5261083" lon="11.3640017"><ele>693.0</ele><time>2026-04-20T10:22:50.911Z</time></trkpt><trkpt lat="43.5260767" lon="11.3638667"><ele>693.0</ele><time>2026-04-20T10:22:51.911Z</time></trkpt><trkpt lat="43.5260483" lon="11.36372"><ele>693.0</ele><time>2026-04-20T10:22:52.911Z</time></trkpt><trkpt lat="43.5260267" lon="11.363575"><ele>693.0</ele><time>2026-04-20T10:22:53.911Z</time></trkpt><trkpt lat="43.5260067" lon="11.3634283"><ele>693.0</ele><time>2026-04-20T10:22:54.911Z</time></trkpt><trkpt lat="43.52599" lon="11.36328"><ele>693.0</ele><time>2026-04-20T10:22:55.911Z</time></trkpt><trkpt lat="43.5259767" lon="11.3631283"><ele>693.0</ele><time>2026-04-20T10:22:56.911Z</time></trkpt><trkpt lat="43.5259667" lon="11.36296"><ele>693.75</ele><time>2026-04-20T10:22:57.912Z</time></trkpt><trkpt lat="43.5259567" lon="11.3627883"><ele>694.5</ele><time>2026-04-20T10:22:58.912Z</time></trkpt><trkpt lat="43.525945" lon="11.3626033"><ele>695.25</ele><time>2026-04-20T10:22:59.912Z</time></trkpt><trkpt lat="43.5259233" lon="11.36241"><ele>696.0</ele><time>2026-04-20T10:23:00.912Z</time></trkpt><trkpt lat="43.5258967" lon="11.3621983"><ele>695.25</ele><time>2026-04-20T10:23:01.911Z</time></trkpt><trkpt lat="43.5258783" lon="11.3619933"><ele>694.5</ele><time>2026-04-20T10:23:02.911Z</time></trkpt><trkpt lat="43.5258533" lon="11.3618017"><ele>693.75</ele><time>2026-04-20T10:23:03.911Z</time></trkpt><trkpt lat="43.5258333" lon="11.36162"><ele>693.0</ele><time>2026-04-20T10:23:04.911Z</time></trkpt><trkpt lat="43.525815" lon="11.3614467"><ele>692.4</ele><time>2026-04-20T10:23:05.912Z</time></trkpt><trkpt lat="43.5258083" lon="11.3612783"><ele>691.8</ele><time>2026-04-20T10:23:06.911Z</time></trkpt><trkpt lat="43.5258067" lon="11.36112"><ele>691.2</ele><time>2026-04-20T10:23:07.911Z</time></trkpt><trkpt lat="43.525815" lon="11.360975"><ele>690.6</ele><time>2026-04-20T10:23:08.911Z</time></trkpt><trkpt lat="43.5258383" lon="11.3608367"><ele>690.0</ele><time>2026-04-20T10:23:09.911Z</time></trkpt><trkpt lat="43.5258767" lon="11.3607033"><ele>690.0</ele><time>2026-04-20T10:23:10.912Z</time></trkpt><trkpt lat="43.5259367" lon="11.3605717"><ele>690.0</ele><time>2026-04-20T10:23:11.911Z</time></trkpt><trkpt lat="43.5260133" lon="11.360445"><ele>690.0</ele><time>2026-04-20T10:23:12.911Z</time></trkpt><trkpt lat="43.5261017" lon="11.360325"><ele>690.0</ele><time>2026-04-20T10:23:13.912Z</time></trkpt><trkpt lat="43.5261933" lon="11.3602033"><ele>688.75</ele><time>2026-04-20T10:23:14.911Z</time></trkpt><trkpt lat="43.52628" lon="11.360085"><ele>687.5</ele><time>2026-04-20T10:23:15.912Z</time></trkpt><trkpt lat="43.5263617" lon="11.3599667"><ele>686.25</ele><time>2026-04-20T10:23:16.911Z</time></trkpt><trkpt lat="43.5264417" lon="11.359845"><ele>685.0</ele><time>2026-04-20T10:23:17.911Z</time></trkpt><trkpt lat="43.5265217" lon="11.3597233"><ele>687.75</ele><time>2026-04-20T10:23:18.911Z</time></trkpt><trkpt lat="43.5266067" lon="11.3596067"><ele>690.5</ele><time>2026-04-20T10:23:19.912Z</time></trkpt><trkpt lat="43.5267033" lon="11.3594967"><ele>693.25</ele><time>2026-04-20T10:23:20.911Z</time></trkpt><trkpt lat="43.5267983" lon="11.3593883"><ele>696.0</ele><time>2026-04-20T10:23:21.912Z</time></trkpt><trkpt lat="43.526895" lon="11.3592833"><ele>696.0</ele><time>2026-04-20T10:23:22.911Z</time></trkpt><trkpt lat="43.5269917" lon="11.3591833"><ele>696.0</ele><time>2026-04-20T10:23:23.911Z</time></trkpt><trkpt lat="43.5270867" lon="11.3591017"><ele>696.0</ele><time>2026-04-20T10:23:24.911Z</time></trkpt><trkpt lat="43.5271833" lon="11.3590083"><ele>696.0</ele><time>2026-04-20T10:23:25.911Z</time></trkpt><trkpt lat="43.5272667" lon="11.3589183"><ele>692.4</ele><time>2026-04-20T10:23:26.912Z</time></trkpt><trkpt lat="43.5273367" lon="11.358805"><ele>688.8</ele><time>2026-04-20T10:23:27.911Z</time></trkpt><trkpt lat="43.527405" lon="11.3586833"><ele>685.1999999999999</ele><time>2026-04-20T10:23:28.911Z</time></trkpt><trkpt lat="43.527465" lon="11.3585483"><ele>681.5999999999999</ele><time>2026-04-20T10:23:29.911Z</time></trkpt><trkpt lat="43.5275117" lon="11.35841"><ele>678.0</ele><time>2026-04-20T10:23:30.911Z</time></trkpt><trkpt lat="43.5275483" lon="11.3582717"><ele>678.0</ele><time>2026-04-20T10:23:31.911Z</time></trkpt><trkpt lat="43.5275617" lon="11.358135"><ele>678.0</ele><time>2026-04-20T10:23:32.911Z</time></trkpt><trkpt lat="43.5275617" lon="11.3579983"><ele>678.0</ele><time>2026-04-20T10:23:33.911Z</time></trkpt><trkpt lat="43.52755" lon="11.3578633"><ele>678.0</ele><time>2026-04-20T10:23:34.911Z</time></trkpt><trkpt lat="43.5275333" lon="11.357735"><ele>678.0</ele><time>2026-04-20T10:23:35.911Z</time></trkpt><trkpt lat="43.5275283" lon="11.3576167"><ele>677.8</ele><time>2026-04-20T10:23:36.912Z</time></trkpt><trkpt lat="43.527535" lon="11.3575"><ele>677.5999999999999</ele><time>2026-04-20T10:23:37.911Z</time></trkpt><trkpt lat="43.527545" lon="11.3573817"><ele>677.4000000000001</ele><time>2026-04-20T10:23:38.911Z</time></trkpt><trkpt lat="43.527575" lon="11.357265"><ele>677.2</ele><time>2026-04-20T10:23:39.912Z</time></trkpt><trkpt lat="43.5276183" lon="11.35715"><ele>677.0</ele><time>2026-04-20T10:23:40.911Z</time></trkpt><trkpt lat="43.52767" lon="11.35703"><ele>676.6</ele><time>2026-04-20T10:23:41.911Z</time></trkpt><trkpt lat="43.5277217" lon="11.356915"><ele>676.2</ele><time>2026-04-20T10:23:42.911Z</time></trkpt><trkpt lat="43.5277717" lon="11.3568033"><ele>675.8</ele><time>2026-04-20T10:23:43.911Z</time></trkpt><trkpt lat="43.5278233" lon="11.3566867"><ele>675.4</ele><time>2026-04-20T10:23:44.911Z</time></trkpt><trkpt lat="43.527875" lon="11.3565667"><ele>675.0</ele><time>2026-04-20T10:23:45.912Z</time></trkpt><trkpt lat="43.527925" lon="11.3564483"><ele>672.8</ele><time>2026-04-20T10:23:46.911Z</time></trkpt><trkpt lat="43.52797" lon="11.3563383"><ele>670.6</ele><time>2026-04-20T10:23:47.911Z</time></trkpt><trkpt lat="43.5280183" lon="11.3562283"><ele>668.4000000000001</ele><time>2026-04-20T10:23:48.912Z</time></trkpt><trkpt lat="43.5280667" lon="11.35612"><ele>666.2</ele><time>2026-04-20T10:23:49.911Z</time></trkpt><trkpt lat="43.5281217" lon="11.35601"><ele>664.0</ele><time>2026-04-20T10:23:50.912Z</time></trkpt><trkpt lat="43.5281833" lon="11.3559083"><ele>664.0</ele><time>2026-04-20T10:23:51.911Z</time></trkpt><trkpt lat="43.5282483" lon="11.3558233"><ele>664.0</ele><time>2026-04-20T10:23:52.912Z</time></trkpt><trkpt lat="43.52832" lon="11.35574"><ele>664.0</ele><time>2026-04-20T10:23:53.912Z</time></trkpt><trkpt lat="43.5283933" lon="11.3556733"><ele>664.0</ele><time>2026-04-20T10:23:54.911Z</time></trkpt><trkpt lat="43.5284717" lon="11.3556167"><ele>664.0</ele><time>2026-04-20T10:23:55.911Z</time></trkpt><trkpt lat="43.5285533" lon="11.3555617"><ele>662.4000000000001</ele><time>2026-04-20T10:23:56.911Z</time></trkpt><trkpt lat="43.528645" lon="11.3555183"><ele>660.8</ele><time>2026-04-20T10:23:57.912Z</time></trkpt><trkpt lat="43.5287333" lon="11.355465"><ele>659.2</ele><time>2026-04-20T10:23:58.912Z</time></trkpt><trkpt lat="43.52882" lon="11.355415"><ele>657.5999999999999</ele><time>2026-04-20T10:23:59.911Z</time></trkpt><trkpt lat="43.528905" lon="11.3553633"><ele>656.0</ele><time>2026-04-20T10:24:00.912Z</time></trkpt><trkpt lat="43.5289917" lon="11.3553383"><ele>656.0</ele><time>2026-04-20T10:24:01.911Z</time></trkpt><trkpt lat="43.52908" lon="11.3553267"><ele>656.0</ele><time>2026-04-20T10:24:02.911Z</time></trkpt><trkpt lat="43.5291683" lon="11.355335"><ele>656.0</ele><time>2026-04-20T10:24:03.911Z</time></trkpt><trkpt lat="43.52926" lon="11.3553583"><ele>656.0</ele><time>2026-04-20T10:24:04.911Z</time></trkpt><trkpt lat="43.5293517" lon="11.355385"><ele>656.0</ele><time>2026-04-20T10:24:05.911Z</time></trkpt><trkpt lat="43.5294517" lon="11.3554267"><ele>656.0</ele><time>2026-04-20T10:24:06.912Z</time></trkpt><trkpt lat="43.5295533" lon="11.355465"><ele>656.0</ele><time>2026-04-20T10:24:07.911Z</time></trkpt><trkpt lat="43.5296517" lon="11.3554983"><ele>656.0</ele><time>2026-04-20T10:24:08.911Z</time></trkpt><trkpt lat="43.5297467" lon="11.3555183"><ele>656.0</ele><time>2026-04-20T10:24:09.911Z</time></trkpt><trkpt lat="43.5298367" lon="11.3555517"><ele>656.0</ele><time>2026-04-20T10:24:10.911Z</time></trkpt><trkpt lat="43.5299233" lon="11.3555933"><ele>658.0</ele><time>2026-04-20T10:24:11.911Z</time></trkpt><trkpt lat="43.53001" lon="11.3556383"><ele>660.0</ele><time>2026-04-20T10:24:12.911Z</time></trkpt><trkpt lat="43.5300983" lon="11.3556917"><ele>662.0</ele><time>2026-04-20T10:24:13.912Z</time></trkpt><trkpt lat="43.530185" lon="11.3557467"><ele>664.0</ele><time>2026-04-20T10:24:14.912Z</time></trkpt><trkpt lat="43.530265" lon="11.355795"><ele>666.0</ele><time>2026-04-20T10:24:15.911Z</time></trkpt><trkpt lat="43.530345" lon="11.3558283"><ele>665.7142857142858</ele><time>2026-04-20T10:24:16.912Z</time></trkpt><trkpt lat="43.5304217" lon="11.3558467"><ele>665.4285714285713</ele><time>2026-04-20T10:24:17.911Z</time></trkpt><trkpt lat="43.5304983" lon="11.3558567"><ele>665.1428571428571</ele><time>2026-04-20T10:24:18.912Z</time></trkpt><trkpt lat="43.5305683" lon="11.3558533"><ele>664.8571428571429</ele><time>2026-04-20T10:24:19.911Z</time></trkpt><trkpt lat="43.530635" lon="11.3558333"><ele>664.5714285714287</ele><time>2026-04-20T10:24:20.911Z</time></trkpt><trkpt lat="43.5307017" lon="11.3558"><ele>664.2857142857142</ele><time>2026-04-20T10:24:21.911Z</time></trkpt><trkpt lat="43.530775" lon="11.355745"><ele>664.0</ele><time>2026-04-20T10:24:22.911Z</time></trkpt><trkpt lat="43.5308467" lon="11.3556717"><ele>664.0</ele><time>2026-04-20T10:24:23.912Z</time></trkpt><trkpt lat="43.5309183" lon="11.3555717"><ele>664.0</ele><time>2026-04-20T10:24:24.911Z</time></trkpt><trkpt lat="43.5309733" lon="11.3554717"><ele>664.0</ele><time>2026-04-20T10:24:25.911Z</time></trkpt><trkpt lat="43.5310183" lon="11.3553517"><ele>664.0</ele><time>2026-04-20T10:24:26.912Z</time></trkpt><trkpt lat="43.5310583" lon="11.35521"><ele>664.0</ele><time>2026-04-20T10:24:27.911Z</time></trkpt><trkpt lat="43.531105" lon="11.3550733"><ele>663.6</ele><time>2026-04-20T10:24:28.911Z</time></trkpt><trkpt lat="43.5311533" lon="11.35494"><ele>663.2</ele><time>2026-04-20T10:24:29.911Z</time></trkpt><trkpt lat="43.53119" lon="11.354815"><ele>662.8000000000001</ele><time>2026-04-20T10:24:30.911Z</time></trkpt><trkpt lat="43.5312283" lon="11.35469"><ele>662.4000000000001</ele><time>2026-04-20T10:24:31.911Z</time></trkpt><trkpt lat="43.5312633" lon="11.3545667"><ele>662.0</ele><time>2026-04-20T10:24:32.911Z</time></trkpt><trkpt lat="43.5312983" lon="11.354455"><ele>662.0</ele><time>2026-04-20T10:24:33.911Z</time></trkpt><trkpt lat="43.531325" lon="11.3543533"><ele>662.0</ele><time>2026-04-20T10:24:34.911Z</time></trkpt><trkpt lat="43.5313517" lon="11.354245"><ele>662.0</ele><time>2026-04-20T10:24:35.912Z</time></trkpt><trkpt lat="43.5313833" lon="11.354135"><ele>662.0</ele><time>2026-04-20T10:24:36.911Z</time></trkpt><trkpt lat="43.53141" lon="11.35402"><ele>662.0</ele><time>2026-04-20T10:24:37.911Z</time></trkpt><trkpt lat="43.5314383" lon="11.3539017"><ele>662.0</ele><time>2026-04-20T10:24:38.911Z</time></trkpt><trkpt lat="43.5314583" lon="11.353775"><ele>662.6</ele><time>2026-04-20T10:24:39.911Z</time></trkpt><trkpt lat="43.5314817" lon="11.3536333"><ele>663.2</ele><time>2026-04-20T10:24:40.911Z</time></trkpt><trkpt lat="43.531505" lon="11.3534917"><ele>663.8</ele><time>2026-04-20T10:24:41.911Z</time></trkpt><trkpt lat="43.5315183" lon="11.3533483"><ele>664.4</ele><time>2026-04-20T10:24:42.911Z</time></trkpt><trkpt lat="43.5315333" lon="11.3532017"><ele>665.0</ele><time>2026-04-20T10:24:43.911Z</time></trkpt><trkpt lat="43.5315483" lon="11.3530467"><ele>665.6</ele><time>2026-04-20T10:24:44.911Z</time></trkpt><trkpt lat="43.5315617" lon="11.352895"><ele>666.2</ele><time>2026-04-20T10:24:45.912Z</time></trkpt><trkpt lat="43.5315683" lon="11.3527517"><ele>666.8</ele><time>2026-04-20T10:24:46.911Z</time></trkpt><trkpt lat="43.5315833" lon="11.3526067"><ele>667.4</ele><time>2026-04-20T10:24:47.911Z</time></trkpt><trkpt lat="43.53161" lon="11.3524583"><ele>668.0</ele><time>2026-04-20T10:24:48.911Z</time></trkpt><trkpt lat="43.5316217" lon="11.3523067"><ele>667.75</ele><time>2026-04-20T10:24:49.911Z</time></trkpt><trkpt lat="43.53164" lon="11.3521467"><ele>667.5</ele><time>2026-04-20T10:24:50.911Z</time></trkpt><trkpt lat="43.53166" lon="11.3519967"><ele>667.25</ele><time>2026-04-20T10:24:51.911Z</time></trkpt><trkpt lat="43.53168" lon="11.3518533"><ele>667.0</ele><time>2026-04-20T10:24:52.912Z</time></trkpt><trkpt lat="43.5317033" lon="11.3516933"><ele>667.0</ele><time>2026-04-20T10:24:53.911Z</time></trkpt><trkpt lat="43.5317233" lon="11.3515533"><ele>667.0</ele><time>2026-04-20T10:24:54.911Z</time></trkpt><trkpt lat="43.5317433" lon="11.3514317"><ele>667.0</ele><time>2026-04-20T10:24:55.911Z</time></trkpt><trkpt lat="43.5317583" lon="11.3513"><ele>667.0</ele><time>2026-04-20T10:24:56.911Z</time></trkpt><trkpt lat="43.5317667" lon="11.3511567"><ele>667.0</ele><time>2026-04-20T10:24:57.911Z</time></trkpt><trkpt lat="43.5317733" lon="11.351025"><ele>666.0</ele><time>2026-04-20T10:24:58.911Z</time></trkpt><trkpt lat="43.5317917" lon="11.3508783"><ele>665.0</ele><time>2026-04-20T10:24:59.911Z</time></trkpt><trkpt lat="43.5318083" lon="11.3507383"><ele>664.0</ele><time>2026-04-20T10:25:00.911Z</time></trkpt><trkpt lat="43.5318383" lon="11.3506033"><ele>663.0</ele><time>2026-04-20T10:25:01.912Z</time></trkpt><trkpt lat="43.531875" lon="11.3504683"><ele>662.0</ele><time>2026-04-20T10:25:02.911Z</time></trkpt><trkpt lat="43.531925" lon="11.3503517"><ele>662.8</ele><time>2026-04-20T10:25:03.911Z</time></trkpt><trkpt lat="43.5319783" lon="11.3502467"><ele>663.6</ele><time>2026-04-20T10:25:04.911Z</time></trkpt><trkpt lat="43.5320383" lon="11.3501483"><ele>664.4</ele><time>2026-04-20T10:25:05.911Z</time></trkpt><trkpt lat="43.5321083" lon="11.350065"><ele>665.1999999999999</ele><time>2026-04-20T10:25:06.912Z</time></trkpt><trkpt lat="43.532185" lon="11.349985"><ele>666.0</ele><time>2026-04-20T10:25:07.911Z</time></trkpt><trkpt lat="43.5322733" lon="11.34991"><ele>666.0</ele><time>2026-04-20T10:25:08.911Z</time></trkpt><trkpt lat="43.5323717" lon="11.3498367"><ele>666.0</ele><time>2026-04-20T10:25:09.911Z</time></trkpt><trkpt lat="43.5324717" lon="11.3497583"><ele>666.0</ele><time>2026-04-20T10:25:10.911Z</time></trkpt><trkpt lat="43.53257" lon="11.34968"><ele>666.0</ele><time>2026-04-20T10:25:11.911Z</time></trkpt><trkpt lat="43.5326767" lon="11.3495967"><ele>664.25</ele><time>2026-04-20T10:25:12.911Z</time></trkpt><trkpt lat="43.5327833" lon="11.349505"><ele>662.5</ele><time>2026-04-20T10:25:13.911Z</time></trkpt><trkpt lat="43.5328883" lon="11.3494117"><ele>660.75</ele><time>2026-04-20T10:25:14.911Z</time></trkpt><trkpt lat="43.5329967" lon="11.349315"><ele>659.0</ele><time>2026-04-20T10:25:15.911Z</time></trkpt><trkpt lat="43.5331083" lon="11.3492233"><ele>659.0</ele><time>2026-04-20T10:25:16.912Z</time></trkpt><trkpt lat="43.5332183" lon="11.3491283"><ele>659.0</ele><time>2026-04-20T10:25:17.911Z</time></trkpt><trkpt lat="43.533325" lon="11.3490367"><ele>659.0</ele><time>2026-04-20T10:25:18.911Z</time></trkpt><trkpt lat="43.5334317" lon="11.3489467"><ele>659.0</ele><time>2026-04-20T10:25:19.911Z</time></trkpt><trkpt lat="43.5335367" lon="11.34886"><ele>657.25</ele><time>2026-04-20T10:25:20.911Z</time></trkpt><trkpt lat="43.5336433" lon="11.3487733"><ele>655.5</ele><time>2026-04-20T10:25:21.912Z</time></trkpt><trkpt lat="43.5337517" lon="11.34868"><ele>653.75</ele><time>2026-04-20T10:25:22.911Z</time></trkpt><trkpt lat="43.5338567" lon="11.3485883"><ele>652.0</ele><time>2026-04-20T10:25:23.912Z</time></trkpt><trkpt lat="43.5339683" lon="11.3484983"><ele>652.0</ele><time>2026-04-20T10:25:24.912Z</time></trkpt><trkpt lat="43.5340783" lon="11.3484083"><ele>652.0</ele><time>2026-04-20T10:25:25.912Z</time></trkpt><trkpt lat="43.5341833" lon="11.3483183"><ele>652.0</ele><time>2026-04-20T10:25:26.911Z</time></trkpt><trkpt lat="43.53429" lon="11.3482283"><ele>652.0</ele><time>2026-04-20T10:25:27.912Z</time></trkpt><trkpt lat="43.5343967" lon="11.3481367"><ele>652.0</ele><time>2026-04-20T10:25:28.911Z</time></trkpt><trkpt lat="43.5344983" lon="11.3480517"><ele>652.0</ele><time>2026-04-20T10:25:29.912Z</time></trkpt><trkpt lat="43.5345967" lon="11.347975"><ele>652.0</ele><time>2026-04-20T10:25:30.911Z</time></trkpt><trkpt lat="43.534685" lon="11.3478983"><ele>652.0</ele><time>2026-04-20T10:25:31.911Z</time></trkpt><trkpt lat="43.5347667" lon="11.3478233"><ele>652.0</ele><time>2026-04-20T10:25:32.911Z</time></trkpt><trkpt lat="43.5348483" lon="11.34776"><ele>652.6</ele><time>2026-04-20T10:25:33.912Z</time></trkpt><trkpt lat="43.534925" lon="11.3476917"><ele>653.2</ele><time>2026-04-20T10:25:34.911Z</time></trkpt><trkpt lat="43.5350017" lon="11.3476267"><ele>653.8</ele><time>2026-04-20T10:25:35.911Z</time></trkpt><trkpt lat="43.5350783" lon="11.3475583"><ele>654.4</ele><time>2026-04-20T10:25:36.912Z</time></trkpt><trkpt lat="43.535155" lon="11.34749"><ele>655.0</ele><time>2026-04-20T10:25:37.911Z</time></trkpt><trkpt lat="43.5352267" lon="11.3474183"><ele>655.0</ele><time>2026-04-20T10:25:38.911Z</time></trkpt><trkpt lat="43.5352933" lon="11.34735"><ele>655.0</ele><time>2026-04-20T10:25:39.911Z</time></trkpt><trkpt lat="43.535355" lon="11.34729"><ele>655.0</ele><time>2026-04-20T10:25:40.911Z</time></trkpt><trkpt lat="43.5354117" lon="11.3472417"><ele>655.0</ele><time>2026-04-20T10:25:41.911Z</time></trkpt><trkpt lat="43.5354683" lon="11.3471917"><ele>655.0</ele><time>2026-04-20T10:25:42.911Z</time></trkpt><trkpt lat="43.53553" lon="11.3471417"><ele>655.0</ele><time>2026-04-20T10:25:43.912Z</time></trkpt><trkpt lat="43.5356417" lon="11.347045"><ele>653.6666666666667</ele><time>2026-04-20T10:25:45.912Z</time></trkpt><trkpt lat="43.535705" lon="11.34698"><ele>652.3333333333334</ele><time>2026-04-20T10:25:46.911Z</time></trkpt><trkpt lat="43.5357717" lon="11.34691"><ele>651.0</ele><time>2026-04-20T10:25:47.911Z</time></trkpt><trkpt lat="43.535835" lon="11.3468367"><ele>649.6666666666666</ele><time>2026-04-20T10:25:48.912Z</time></trkpt><trkpt lat="43.5358933" lon="11.3467533"><ele>648.3333333333333</ele><time>2026-04-20T10:25:49.911Z</time></trkpt><trkpt lat="43.53594" lon="11.3466517"><ele>647.0</ele><time>2026-04-20T10:25:50.912Z</time></trkpt><trkpt lat="43.535985" lon="11.3465333"><ele>647.0</ele><time>2026-04-20T10:25:51.912Z</time></trkpt><trkpt lat="43.5360283" lon="11.346405"><ele>647.0</ele><time>2026-04-20T10:25:52.911Z</time></trkpt><trkpt lat="43.53607" lon="11.346265"><ele>647.0</ele><time>2026-04-20T10:25:53.911Z</time></trkpt><trkpt lat="43.5361133" lon="11.3461333"><ele>647.0</ele><time>2026-04-20T10:25:54.911Z</time></trkpt><trkpt lat="43.53615" lon="11.3460067"><ele>647.0</ele><time>2026-04-20T10:25:55.911Z</time></trkpt><trkpt lat="43.5361933" lon="11.3458783"><ele>645.5</ele><time>2026-04-20T10:25:56.911Z</time></trkpt><trkpt lat="43.5362317" lon="11.3457567"><ele>644.0</ele><time>2026-04-20T10:25:57.911Z</time></trkpt><trkpt lat="43.5362717" lon="11.3456433"><ele>642.5</ele><time>2026-04-20T10:25:58.911Z</time></trkpt><trkpt lat="43.5363117" lon="11.3455333"><ele>641.0</ele><time>2026-04-20T10:25:59.911Z</time></trkpt><trkpt lat="43.5363467" lon="11.3454267"><ele>639.5</ele><time>2026-04-20T10:26:00.911Z</time></trkpt><trkpt lat="43.5363817" lon="11.3453217"><ele>638.0</ele><time>2026-04-20T10:26:01.911Z</time></trkpt><trkpt lat="43.5364183" lon="11.3452183"><ele>638.0</ele><time>2026-04-20T10:26:02.911Z</time></trkpt><trkpt lat="43.536455" lon="11.3451167"><ele>638.0</ele><time>2026-04-20T10:26:03.912Z</time></trkpt><trkpt lat="43.5364933" lon="11.345015"><ele>638.0</ele><time>2026-04-20T10:26:04.911Z</time></trkpt><trkpt lat="43.53653" lon="11.344915"><ele>638.0</ele><time>2026-04-20T10:26:05.911Z</time></trkpt><trkpt lat="43.5365667" lon="11.344815"><ele>638.0</ele><time>2026-04-20T10:26:06.911Z</time></trkpt><trkpt lat="43.5366017" lon="11.344715"><ele>638.0</ele><time>2026-04-20T10:26:07.91Z</time></trkpt><trkpt lat="43.53664" lon="11.3446117"><ele>637.1666666666666</ele><time>2026-04-20T10:26:08.91Z</time></trkpt><trkpt lat="43.5366717" lon="11.3445033"><ele>636.3333333333333</ele><time>2026-04-20T10:26:09.91Z</time></trkpt><trkpt lat="43.5367" lon="11.3443933"><ele>635.5</ele><time>2026-04-20T10:26:10.91Z</time></trkpt><trkpt lat="43.5367317" lon="11.3442883"><ele>634.6666666666666</ele><time>2026-04-20T10:26:11.91Z</time></trkpt><trkpt lat="43.5367633" lon="11.3441833"><ele>633.8333333333334</ele><time>2026-04-20T10:26:12.91Z</time></trkpt><trkpt lat="43.536795" lon="11.3440783"><ele>633.0</ele><time>2026-04-20T10:26:13.91Z</time></trkpt><trkpt lat="43.536825" lon="11.3439767"><ele>631.6666666666666</ele><time>2026-04-20T10:26:14.91Z</time></trkpt><trkpt lat="43.536855" lon="11.34387"><ele>630.3333333333334</ele><time>2026-04-20T10:26:15.91Z</time></trkpt><trkpt lat="43.536885" lon="11.3437567"><ele>629.0</ele><time>2026-04-20T10:26:16.91Z</time></trkpt><trkpt lat="43.5369167" lon="11.34364"><ele>627.6666666666667</ele><time>2026-04-20T10:26:17.91Z</time></trkpt><trkpt lat="43.5369483" lon="11.3435283"><ele>626.3333333333334</ele><time>2026-04-20T10:26:18.91Z</time></trkpt><trkpt lat="43.5369733" lon="11.343415"><ele>625.0</ele><time>2026-04-20T10:26:19.91Z</time></trkpt><trkpt lat="43.5369883" lon="11.3433"><ele>625.0</ele><time>2026-04-20T10:26:20.91Z</time></trkpt><trkpt lat="43.5369917" lon="11.3431883"><ele>625.0</ele><time>2026-04-20T10:26:21.91Z</time></trkpt><trkpt lat="43.536995" lon="11.343075"><ele>625.0</ele><time>2026-04-20T10:26:22.911Z</time></trkpt><trkpt lat="43.5370033" lon="11.3429567"><ele>625.0</ele><time>2026-04-20T10:26:23.91Z</time></trkpt><trkpt lat="43.5369983" lon="11.342845"><ele>625.0</ele><time>2026-04-20T10:26:24.91Z</time></trkpt><trkpt lat="43.5369983" lon="11.3427383"><ele>625.0</ele><time>2026-04-20T10:26:25.91Z</time></trkpt><trkpt lat="43.536995" lon="11.3426267"><ele>622.8333333333334</ele><time>2026-04-20T10:26:26.91Z</time></trkpt><trkpt lat="43.53699" lon="11.3425183"><ele>620.6666666666667</ele><time>2026-04-20T10:26:27.911Z</time></trkpt><trkpt lat="43.536995" lon="11.3424"><ele>618.5</ele><time>2026-04-20T10:26:28.91Z</time></trkpt><trkpt lat="43.5369917" lon="11.3422833"><ele>616.3333333333334</ele><time>2026-04-20T10:26:29.91Z</time></trkpt><trkpt lat="43.5369917" lon="11.3421667"><ele>614.1666666666666</ele><time>2026-04-20T10:26:30.91Z</time></trkpt><trkpt lat="43.5369883" lon="11.3420517"><ele>612.0</ele><time>2026-04-20T10:26:31.91Z</time></trkpt><trkpt lat="43.5369833" lon="11.3419367"><ele>611.8333333333334</ele><time>2026-04-20T10:26:32.911Z</time></trkpt><trkpt lat="43.5369767" lon="11.3418233"><ele>611.6666666666666</ele><time>2026-04-20T10:26:33.91Z</time></trkpt><trkpt lat="43.5369767" lon="11.341705"><ele>611.5</ele><time>2026-04-20T10:26:34.911Z</time></trkpt><trkpt lat="43.5369683" lon="11.3415983"><ele>611.3333333333333</ele><time>2026-04-20T10:26:35.911Z</time></trkpt><trkpt lat="43.5369517" lon="11.3414933"><ele>611.1666666666666</ele><time>2026-04-20T10:26:36.911Z</time></trkpt><trkpt lat="43.5369317" lon="11.3413983"><ele>611.0</ele><time>2026-04-20T10:26:37.91Z</time></trkpt><trkpt lat="43.5369" lon="11.341315"><ele>611.0</ele><time>2026-04-20T10:26:38.91Z</time></trkpt><trkpt lat="43.5367933" lon="11.3412117"><ele>611.0</ele><time>2026-04-20T10:26:40.911Z</time></trkpt><trkpt lat="43.5367267" lon="11.341175"><ele>611.0</ele><time>2026-04-20T10:26:41.91Z</time></trkpt><trkpt lat="43.5366583" lon="11.3411433"><ele>611.0</ele><time>2026-04-20T10:26:42.911Z</time></trkpt><trkpt lat="43.536595" lon="11.34111"><ele>611.0</ele><time>2026-04-20T10:26:43.91Z</time></trkpt><trkpt lat="43.5365233" lon="11.341075"><ele>611.0</ele><time>2026-04-20T10:26:44.91Z</time></trkpt><trkpt lat="43.5364467" lon="11.341025"><ele>611.0</ele><time>2026-04-20T10:26:45.91Z</time></trkpt><trkpt lat="43.5363683" lon="11.34096"><ele>611.0</ele><time>2026-04-20T10:26:46.91Z</time></trkpt><trkpt lat="43.53629" lon="11.3409083"><ele>611.0</ele><time>2026-04-20T10:26:47.91Z</time></trkpt><trkpt lat="43.53622" lon="11.3408433"><ele>611.0</ele><time>2026-04-20T10:26:48.91Z</time></trkpt><trkpt lat="43.5361467" lon="11.3407817"><ele>611.0</ele><time>2026-04-20T10:26:49.91Z</time></trkpt><trkpt lat="43.5360683" lon="11.3407267"><ele>611.0</ele><time>2026-04-20T10:26:50.91Z</time></trkpt><trkpt lat="43.5359883" lon="11.3406617"><ele>610.0</ele><time>2026-04-20T10:26:51.91Z</time></trkpt><trkpt lat="43.5359083" lon="11.3406117"><ele>609.0</ele><time>2026-04-20T10:26:52.91Z</time></trkpt><trkpt lat="43.53583" lon="11.3405683"><ele>608.0</ele><time>2026-04-20T10:26:53.91Z</time></trkpt><trkpt lat="43.5357483" lon="11.3405217"><ele>607.0</ele><time>2026-04-20T10:26:54.91Z</time></trkpt><trkpt lat="43.5356733" lon="11.3404667"><ele>606.0</ele><time>2026-04-20T10:26:55.91Z</time></trkpt><trkpt lat="43.535595" lon="11.3404083"><ele>605.0</ele><time>2026-04-20T10:26:56.91Z</time></trkpt><trkpt lat="43.5355167" lon="11.3403483"><ele>605.0</ele><time>2026-04-20T10:26:57.911Z</time></trkpt><trkpt lat="43.53544" lon="11.3402867"><ele>605.0</ele><time>2026-04-20T10:26:58.911Z</time></trkpt><trkpt lat="43.5353683" lon="11.3402217"><ele>605.0</ele><time>2026-04-20T10:26:59.91Z</time></trkpt><trkpt lat="43.5353017" lon="11.3401483"><ele>605.0</ele><time>2026-04-20T10:27:00.91Z</time></trkpt><trkpt lat="43.53523" lon="11.3400683"><ele>605.0</ele><time>2026-04-20T10:27:01.91Z</time></trkpt><trkpt lat="43.535165" lon="11.3399867"><ele>605.0</ele><time>2026-04-20T10:27:02.91Z</time></trkpt><trkpt lat="43.5351067" lon="11.3398983"><ele>601.5</ele><time>2026-04-20T10:27:03.91Z</time></trkpt><trkpt lat="43.5350633" lon="11.3398083"><ele>598.0</ele><time>2026-04-20T10:27:04.91Z</time></trkpt><trkpt lat="43.5350217" lon="11.3397133"><ele>594.5</ele><time>2026-04-20T10:27:05.911Z</time></trkpt><trkpt lat="43.5349817" lon="11.3396183"><ele>591.0</ele><time>2026-04-20T10:27:06.91Z</time></trkpt><trkpt lat="43.53494" lon="11.3395217"><ele>587.5</ele><time>2026-04-20T10:27:07.911Z</time></trkpt><trkpt lat="43.5348983" lon="11.3394283"><ele>584.0</ele><time>2026-04-20T10:27:08.91Z</time></trkpt><trkpt lat="43.5348617" lon="11.3393317"><ele>584.0</ele><time>2026-04-20T10:27:09.91Z</time></trkpt><trkpt lat="43.53482" lon="11.3392333"><ele>584.0</ele><time>2026-04-20T10:27:10.911Z</time></trkpt><trkpt lat="43.53478" lon="11.339135"><ele>584.0</ele><time>2026-04-20T10:27:11.91Z</time></trkpt><trkpt lat="43.5347383" lon="11.3390383"><ele>584.0</ele><time>2026-04-20T10:27:12.91Z</time></trkpt><trkpt lat="43.534695" lon="11.3389433"><ele>584.0</ele><time>2026-04-20T10:27:13.91Z</time></trkpt><trkpt lat="43.534645" lon="11.3388483"><ele>584.0</ele><time>2026-04-20T10:27:14.91Z</time></trkpt><trkpt lat="43.5345983" lon="11.3387567"><ele>583.1666666666666</ele><time>2026-04-20T10:27:15.91Z</time></trkpt><trkpt lat="43.534555" lon="11.3386733"><ele>582.3333333333333</ele><time>2026-04-20T10:27:16.91Z</time></trkpt><trkpt lat="43.53452" lon="11.3385867"><ele>581.5</ele><time>2026-04-20T10:27:17.91Z</time></trkpt><trkpt lat="43.534485" lon="11.33851"><ele>580.6666666666666</ele><time>2026-04-20T10:27:18.911Z</time></trkpt><trkpt lat="43.5344467" lon="11.338435"><ele>579.8333333333334</ele><time>2026-04-20T10:27:19.91Z</time></trkpt><trkpt lat="43.5344083" lon="11.3383567"><ele>579.0</ele><time>2026-04-20T10:27:20.91Z</time></trkpt><trkpt lat="43.5343517" lon="11.3382333"><ele>575.1666666666666</ele><time>2026-04-20T10:27:22.91Z</time></trkpt><trkpt lat="43.53432" lon="11.3381217"><ele>571.3333333333334</ele><time>2026-04-20T10:27:24.91Z</time></trkpt><trkpt lat="43.534335" lon="11.3379733"><ele>567.5</ele><time>2026-04-20T10:27:26.91Z</time></trkpt><trkpt lat="43.5343683" lon="11.3378983"><ele>563.6666666666667</ele><time>2026-04-20T10:27:27.91Z</time></trkpt><trkpt lat="43.5344133" lon="11.3378333"><ele>559.8333333333334</ele><time>2026-04-20T10:27:28.91Z</time></trkpt><trkpt lat="43.5344667" lon="11.3377667"><ele>556.0</ele><time>2026-04-20T10:27:29.911Z</time></trkpt><trkpt lat="43.534525" lon="11.33771"><ele>556.5</ele><time>2026-04-20T10:27:30.91Z</time></trkpt><trkpt lat="43.534585" lon="11.337655"><ele>557.0</ele><time>2026-04-20T10:27:31.91Z</time></trkpt><trkpt lat="43.5346483" lon="11.337595"><ele>557.5</ele><time>2026-04-20T10:27:32.91Z</time></trkpt><trkpt lat="43.5347167" lon="11.3375317"><ele>558.0</ele><time>2026-04-20T10:27:33.911Z</time></trkpt><trkpt lat="43.534785" lon="11.3374683"><ele>558.5</ele><time>2026-04-20T10:27:34.91Z</time></trkpt><trkpt lat="43.5348483" lon="11.337415"><ele>559.0</ele><time>2026-04-20T10:27:35.911Z</time></trkpt><trkpt lat="43.5349167" lon="11.3373583"><ele>559.0</ele><time>2026-04-20T10:27:36.911Z</time></trkpt><trkpt lat="43.5349883" lon="11.337305"><ele>559.0</ele><time>2026-04-20T10:27:37.91Z</time></trkpt><trkpt lat="43.5350617" lon="11.337255"><ele>559.0</ele><time>2026-04-20T10:27:38.91Z</time></trkpt><trkpt lat="43.5351367" lon="11.33719"><ele>559.0</ele><time>2026-04-20T10:27:39.91Z</time></trkpt><trkpt lat="43.53521" lon="11.337125"><ele>559.0</ele><time>2026-04-20T10:27:40.91Z</time></trkpt><trkpt lat="43.5352917" lon="11.3370633"><ele>559.0</ele><time>2026-04-20T10:27:41.91Z</time></trkpt><trkpt lat="43.5353633" lon="11.337"><ele>556.6666666666667</ele><time>2026-04-20T10:27:42.91Z</time></trkpt><trkpt lat="43.5354383" lon="11.33694"><ele>554.3333333333334</ele><time>2026-04-20T10:27:43.911Z</time></trkpt><trkpt lat="43.5355183" lon="11.336875"><ele>552.0</ele><time>2026-04-20T10:27:44.91Z</time></trkpt><trkpt lat="43.5355967" lon="11.3368067"><ele>549.6666666666666</ele><time>2026-04-20T10:27:45.91Z</time></trkpt><trkpt lat="43.53566" lon="11.3367267"><ele>547.3333333333333</ele><time>2026-04-20T10:27:46.91Z</time></trkpt><trkpt lat="43.5357133" lon="11.3366517"><ele>545.0</ele><time>2026-04-20T10:27:47.91Z</time></trkpt><trkpt lat="43.5357417" lon="11.3365583"><ele>545.0</ele><time>2026-04-20T10:27:48.91Z</time></trkpt><trkpt lat="43.5357567" lon="11.3364683"><ele>545.0</ele><time>2026-04-20T10:27:49.91Z</time></trkpt><trkpt lat="43.53576" lon="11.3363733"><ele>545.0</ele><time>2026-04-20T10:27:50.911Z</time></trkpt><trkpt lat="43.5357617" lon="11.336275"><ele>545.0</ele><time>2026-04-20T10:27:51.91Z</time></trkpt><trkpt lat="43.53578" lon="11.3361867"><ele>545.0</ele><time>2026-04-20T10:27:52.911Z</time></trkpt><trkpt lat="43.53581" lon="11.3361067"><ele>545.0</ele><time>2026-04-20T10:27:53.91Z</time></trkpt><trkpt lat="43.535865" lon="11.3360383"><ele>545.0</ele><time>2026-04-20T10:27:54.91Z</time></trkpt><trkpt lat="43.5359367" lon="11.335995"><ele>542.3333333333333</ele><time>2026-04-20T10:27:55.91Z</time></trkpt><trkpt lat="43.53601" lon="11.33599"><ele>539.6666666666666</ele><time>2026-04-20T10:27:56.91Z</time></trkpt><trkpt lat="43.5360783" lon="11.3359967"><ele>537.0</ele><time>2026-04-20T10:27:57.91Z</time></trkpt><trkpt lat="43.536145" lon="11.3360167"><ele>534.3333333333334</ele><time>2026-04-20T10:27:58.91Z</time></trkpt><trkpt lat="43.53621" lon="11.3360383"><ele>531.6666666666667</ele><time>2026-04-20T10:27:59.91Z</time></trkpt><trkpt lat="43.5363383" lon="11.33605"><ele>529.0</ele><time>2026-04-20T10:28:01.91Z</time></trkpt><trkpt lat="43.5364067" lon="11.33603"><ele>528.8333333333334</ele><time>2026-04-20T10:28:02.911Z</time></trkpt><trkpt lat="43.5364767" lon="11.3360017"><ele>528.6666666666667</ele><time>2026-04-20T10:28:03.91Z</time></trkpt><trkpt lat="43.5365483" lon="11.33597"><ele>528.5</ele><time>2026-04-20T10:28:04.91Z</time></trkpt><trkpt lat="43.5366167" lon="11.3359367"><ele>528.3333333333334</ele><time>2026-04-20T10:28:05.911Z</time></trkpt><trkpt lat="43.536685" lon="11.3358983"><ele>528.1666666666666</ele><time>2026-04-20T10:28:06.91Z</time></trkpt><trkpt lat="43.53676" lon="11.3358683"><ele>528.0</ele><time>2026-04-20T10:28:07.91Z</time></trkpt><trkpt lat="43.5368333" lon="11.3358283"><ele>528.0</ele><time>2026-04-20T10:28:08.91Z</time></trkpt><trkpt lat="43.5369017" lon="11.3357783"><ele>528.0</ele><time>2026-04-20T10:28:09.91Z</time></trkpt><trkpt lat="43.536965" lon="11.33572"><ele>528.0</ele><time>2026-04-20T10:28:10.91Z</time></trkpt><trkpt lat="43.5370217" lon="11.3356517"><ele>528.0</ele><time>2026-04-20T10:28:11.911Z</time></trkpt><trkpt lat="43.5370683" lon="11.3355617"><ele>528.0</ele><time>2026-04-20T10:28:12.911Z</time></trkpt><trkpt lat="43.5371083" lon="11.3354683"><ele>528.0</ele><time>2026-04-20T10:28:13.91Z</time></trkpt><trkpt lat="43.537145" lon="11.335365"><ele>526.2857142857142</ele><time>2026-04-20T10:28:14.911Z</time></trkpt><trkpt lat="43.53718" lon="11.33527"><ele>524.5714285714286</ele><time>2026-04-20T10:28:15.91Z</time></trkpt><trkpt lat="43.53721" lon="11.33517"><ele>522.8571428571429</ele><time>2026-04-20T10:28:16.91Z</time></trkpt><trkpt lat="43.5372367" lon="11.3350683"><ele>521.1428571428571</ele><time>2026-04-20T10:28:17.911Z</time></trkpt><trkpt lat="43.5372583" lon="11.33497"><ele>519.4285714285714</ele><time>2026-04-20T10:28:18.911Z</time></trkpt><trkpt lat="43.5372767" lon="11.3348783"><ele>517.7142857142857</ele><time>2026-04-20T10:28:19.911Z</time></trkpt><trkpt lat="43.5373" lon="11.334795"><ele>516.0</ele><time>2026-04-20T10:28:20.911Z</time></trkpt><trkpt lat="43.537315" lon="11.334705"><ele>515.0</ele><time>2026-04-20T10:28:21.91Z</time></trkpt><trkpt lat="43.5373367" lon="11.3346133"><ele>514.0</ele><time>2026-04-20T10:28:22.91Z</time></trkpt><trkpt lat="43.5373517" lon="11.3345117"><ele>513.0</ele><time>2026-04-20T10:28:23.91Z</time></trkpt><trkpt lat="43.5373767" lon="11.3343883"><ele>512.0</ele><time>2026-04-20T10:28:24.911Z</time></trkpt><trkpt lat="43.5373917" lon="11.3342583"><ele>511.0</ele><time>2026-04-20T10:28:25.91Z</time></trkpt><trkpt lat="43.5374033" lon="11.3341283"><ele>510.0</ele><time>2026-04-20T10:28:26.91Z</time></trkpt><trkpt lat="43.5374083" lon="11.33401"><ele>509.6666666666667</ele><time>2026-04-20T10:28:27.91Z</time></trkpt><trkpt lat="43.53741" lon="11.3338883"><ele>509.33333333333337</ele><time>2026-04-20T10:28:28.911Z</time></trkpt><trkpt lat="43.5374067" lon="11.3337817"><ele>509.0</ele><time>2026-04-20T10:28:29.91Z</time></trkpt><trkpt lat="43.53739" lon="11.33366"><ele>508.6666666666667</ele><time>2026-04-20T10:28:30.911Z</time></trkpt><trkpt lat="43.5373783" lon="11.3335383"><ele>508.33333333333337</ele><time>2026-04-20T10:28:31.91Z</time></trkpt><trkpt lat="43.537375" lon="11.3334083"><ele>508.0</ele><time>2026-04-20T10:28:32.91Z</time></trkpt><trkpt lat="43.5373833" lon="11.3332767"><ele>508.00000000000006</ele><time>2026-04-20T10:28:33.91Z</time></trkpt><trkpt lat="43.5374083" lon="11.3331533"><ele>508.0</ele><time>2026-04-20T10:28:34.91Z</time></trkpt><trkpt lat="43.53744" lon="11.333035"><ele>508.0</ele><time>2026-04-20T10:28:35.91Z</time></trkpt><trkpt lat="43.5374717" lon="11.3329183"><ele>508.0</ele><time>2026-04-20T10:28:36.911Z</time></trkpt><trkpt lat="43.5375033" lon="11.33281"><ele>508.00000000000006</ele><time>2026-04-20T10:28:37.91Z</time></trkpt><trkpt lat="43.537535" lon="11.33272"><ele>508.0</ele><time>2026-04-20T10:28:38.91Z</time></trkpt><trkpt lat="43.5375667" lon="11.3326117"><ele>508.2</ele><time>2026-04-20T10:28:39.91Z</time></trkpt><trkpt lat="43.5376017" lon="11.332505"><ele>508.4</ele><time>2026-04-20T10:28:40.911Z</time></trkpt><trkpt lat="43.5376483" lon="11.3323883"><ele>508.59999999999997</ele><time>2026-04-20T10:28:41.911Z</time></trkpt><trkpt lat="43.5377067" lon="11.3322733"><ele>508.79999999999995</ele><time>2026-04-20T10:28:42.91Z</time></trkpt><trkpt lat="43.5377667" lon="11.33217"><ele>509.0</ele><time>2026-04-20T10:28:43.911Z</time></trkpt><trkpt lat="43.5378367" lon="11.3320583"><ele>510.0</ele><time>2026-04-20T10:28:44.91Z</time></trkpt><trkpt lat="43.5379" lon="11.3319583"><ele>511.0</ele><time>2026-04-20T10:28:45.91Z</time></trkpt><trkpt lat="43.5379633" lon="11.33185"><ele>512.0</ele><time>2026-04-20T10:28:46.91Z</time></trkpt><trkpt lat="43.5380183" lon="11.3317367"><ele>513.0</ele><time>2026-04-20T10:28:47.91Z</time></trkpt><trkpt lat="43.5380633" lon="11.3316133"><ele>514.0</ele><time>2026-04-20T10:28:48.91Z</time></trkpt><trkpt lat="43.5381017" lon="11.3314833"><ele>514.8</ele><time>2026-04-20T10:28:49.91Z</time></trkpt><trkpt lat="43.538125" lon="11.331355"><ele>515.5999999999999</ele><time>2026-04-20T10:28:50.91Z</time></trkpt><trkpt lat="43.5381317" lon="11.3312117"><ele>516.4</ele><time>2026-04-20T10:28:51.91Z</time></trkpt><trkpt lat="43.538125" lon="11.3310667"><ele>517.1999999999999</ele><time>2026-04-20T10:28:52.91Z</time></trkpt><trkpt lat="43.5381133" lon="11.33091"><ele>518.0</ele><time>2026-04-20T10:28:53.91Z</time></trkpt><trkpt lat="43.538105" lon="11.330745"><ele>518.0</ele><time>2026-04-20T10:28:54.91Z</time></trkpt><trkpt lat="43.5380933" lon="11.3305867"><ele>518.0</ele><time>2026-04-20T10:28:55.91Z</time></trkpt><trkpt lat="43.5380817" lon="11.3304267"><ele>518.0</ele><time>2026-04-20T10:28:56.91Z</time></trkpt><trkpt lat="43.538065" lon="11.3302783"><ele>518.0</ele><time>2026-04-20T10:28:57.911Z</time></trkpt><trkpt lat="43.5380517" lon="11.3301283"><ele>519.4</ele><time>2026-04-20T10:28:58.91Z</time></trkpt><trkpt lat="43.5380383" lon="11.3299833"><ele>520.8</ele><time>2026-04-20T10:28:59.91Z</time></trkpt><trkpt lat="43.5380217" lon="11.3298383"><ele>522.2</ele><time>2026-04-20T10:29:00.91Z</time></trkpt><trkpt lat="43.53801" lon="11.3296917"><ele>523.6</ele><time>2026-04-20T10:29:01.911Z</time></trkpt><trkpt lat="43.537995" lon="11.3295517"><ele>525.0</ele><time>2026-04-20T10:29:02.91Z</time></trkpt><trkpt lat="43.5379883" lon="11.3293983"><ele>525.6</ele><time>2026-04-20T10:29:03.91Z</time></trkpt><trkpt lat="43.5379867" lon="11.3292433"><ele>526.2</ele><time>2026-04-20T10:29:04.91Z</time></trkpt><trkpt lat="43.5379867" lon="11.3290917"><ele>526.8</ele><time>2026-04-20T10:29:05.91Z</time></trkpt><trkpt lat="43.5379983" lon="11.3289467"><ele>527.4</ele><time>2026-04-20T10:29:06.91Z</time></trkpt><trkpt lat="43.538015" lon="11.3288117"><ele>528.0</ele><time>2026-04-20T10:29:07.91Z</time></trkpt><trkpt lat="43.5380317" lon="11.3286917"><ele>527.0</ele><time>2026-04-20T10:29:08.911Z</time></trkpt><trkpt lat="43.538055" lon="11.3285833"><ele>526.0</ele><time>2026-04-20T10:29:09.91Z</time></trkpt><trkpt lat="43.5381" lon="11.3284783"><ele>525.0</ele><time>2026-04-20T10:29:10.91Z</time></trkpt><trkpt lat="43.53815" lon="11.328385"><ele>524.0</ele><time>2026-04-20T10:29:11.91Z</time></trkpt><trkpt lat="43.5382017" lon="11.3282983"><ele>523.0</ele><time>2026-04-20T10:29:12.91Z</time></trkpt><trkpt lat="43.5382567" lon="11.32821"><ele>522.0</ele><time>2026-04-20T10:29:13.91Z</time></trkpt><trkpt lat="43.5383067" lon="11.3281217"><ele>519.8000000000001</ele><time>2026-04-20T10:29:14.91Z</time></trkpt><trkpt lat="43.5383633" lon="11.3280317"><ele>517.6</ele><time>2026-04-20T10:29:15.91Z</time></trkpt><trkpt lat="43.5384217" lon="11.327945"><ele>515.4000000000001</ele><time>2026-04-20T10:29:16.911Z</time></trkpt><trkpt lat="43.538485" lon="11.327845"><ele>513.2</ele><time>2026-04-20T10:29:17.91Z</time></trkpt><trkpt lat="43.5385533" lon="11.327735"><ele>511.0</ele><time>2026-04-20T10:29:18.91Z</time></trkpt><trkpt lat="43.53862" lon="11.3276167"><ele>511.0</ele><time>2026-04-20T10:29:19.91Z</time></trkpt><trkpt lat="43.53868" lon="11.3274917"><ele>511.0</ele><time>2026-04-20T10:29:20.91Z</time></trkpt><trkpt lat="43.538725" lon="11.32737"><ele>511.0</ele><time>2026-04-20T10:29:21.91Z</time></trkpt><trkpt lat="43.538765" lon="11.32724"><ele>511.0</ele><time>2026-04-20T10:29:22.911Z</time></trkpt><trkpt lat="43.538795" lon="11.3271083"><ele>511.0</ele><time>2026-04-20T10:29:23.91Z</time></trkpt><trkpt lat="43.5388117" lon="11.326975"><ele>509.4</ele><time>2026-04-20T10:29:24.911Z</time></trkpt><trkpt lat="43.5388067" lon="11.3268433"><ele>507.8</ele><time>2026-04-20T10:29:25.91Z</time></trkpt><trkpt lat="43.53878" lon="11.3267217"><ele>506.19999999999993</ele><time>2026-04-20T10:29:26.91Z</time></trkpt><trkpt lat="43.5387483" lon="11.326605"><ele>504.59999999999997</ele><time>2026-04-20T10:29:27.91Z</time></trkpt><trkpt lat="43.53872" lon="11.3264867"><ele>503.0</ele><time>2026-04-20T10:29:28.911Z</time></trkpt><trkpt lat="43.5387017" lon="11.326365"><ele>503.0</ele><time>2026-04-20T10:29:29.91Z</time></trkpt><trkpt lat="43.5386833" lon="11.3262417"><ele>502.99999999999994</ele><time>2026-04-20T10:29:30.911Z</time></trkpt><trkpt lat="43.53867" lon="11.3261167"><ele>502.99999999999994</ele><time>2026-04-20T10:29:31.91Z</time></trkpt><trkpt lat="43.5386633" lon="11.3259867"><ele>503.0</ele><time>2026-04-20T10:29:32.91Z</time></trkpt><trkpt lat="43.53867" lon="11.3258483"><ele>503.0</ele><time>2026-04-20T10:29:33.911Z</time></trkpt><trkpt lat="43.538685" lon="11.3257217"><ele>503.0</ele><time>2026-04-20T10:29:34.91Z</time></trkpt><trkpt lat="43.5387067" lon="11.3256033"><ele>502.99999999999994</ele><time>2026-04-20T10:29:35.91Z</time></trkpt><trkpt lat="43.5387317" lon="11.3254783"><ele>502.99999999999994</ele><time>2026-04-20T10:29:36.91Z</time></trkpt><trkpt lat="43.5387667" lon="11.3253583"><ele>503.0</ele><time>2026-04-20T10:29:37.911Z</time></trkpt><trkpt lat="43.5388067" lon="11.3252333"><ele>503.0</ele><time>2026-04-20T10:29:38.911Z</time></trkpt><trkpt lat="43.5388517" lon="11.3250967"><ele>503.4</ele><time>2026-04-20T10:29:39.91Z</time></trkpt><trkpt lat="43.5388983" lon="11.3249683"><ele>503.79999999999995</ele><time>2026-04-20T10:29:40.91Z</time></trkpt><trkpt lat="43.5389417" lon="11.32484"><ele>504.2</ele><time>2026-04-20T10:29:41.91Z</time></trkpt><trkpt lat="43.538985" lon="11.3247117"><ele>504.6</ele><time>2026-04-20T10:29:42.911Z</time></trkpt><trkpt lat="43.5390283" lon="11.3245667"><ele>505.0</ele><time>2026-04-20T10:29:43.91Z</time></trkpt><trkpt lat="43.53908" lon="11.3244183"><ele>505.0</ele><time>2026-04-20T10:29:44.91Z</time></trkpt><trkpt lat="43.539135" lon="11.324275"><ele>505.0</ele><time>2026-04-20T10:29:45.911Z</time></trkpt><trkpt lat="43.5391967" lon="11.32414"><ele>505.0</ele><time>2026-04-20T10:29:46.91Z</time></trkpt><trkpt lat="43.5392633" lon="11.3239983"><ele>505.0</ele><time>2026-04-20T10:29:47.911Z</time></trkpt><trkpt lat="43.5393267" lon="11.3238517"><ele>504.5</ele><time>2026-04-20T10:29:48.91Z</time></trkpt><trkpt lat="43.5393983" lon="11.3237133"><ele>504.0</ele><time>2026-04-20T10:29:49.91Z</time></trkpt><trkpt lat="43.5394733" lon="11.32358"><ele>503.5</ele><time>2026-04-20T10:29:50.911Z</time></trkpt><trkpt lat="43.5395383" lon="11.323445"><ele>503.0</ele><time>2026-04-20T10:29:51.911Z</time></trkpt><trkpt lat="43.5396117" lon="11.32332"><ele>502.59999999999997</ele><time>2026-04-20T10:29:52.91Z</time></trkpt><trkpt lat="43.5396783" lon="11.3231783"><ele>502.19999999999993</ele><time>2026-04-20T10:29:53.911Z</time></trkpt><trkpt lat="43.5397533" lon="11.323055"><ele>501.8</ele><time>2026-04-20T10:29:54.91Z</time></trkpt><trkpt lat="43.539825" lon="11.3229467"><ele>501.4</ele><time>2026-04-20T10:29:55.911Z</time></trkpt><trkpt lat="43.5399" lon="11.3228583"><ele>501.0</ele><time>2026-04-20T10:29:56.91Z</time></trkpt><trkpt lat="43.5399733" lon="11.3227933"><ele>503.1666666666667</ele><time>2026-04-20T10:29:57.911Z</time></trkpt><trkpt lat="43.540045" lon="11.3227283"><ele>505.33333333333337</ele><time>2026-04-20T10:29:58.91Z</time></trkpt><trkpt lat="43.540105" lon="11.322665"><ele>507.5</ele><time>2026-04-20T10:29:59.91Z</time></trkpt><trkpt lat="43.5401567" lon="11.322585"><ele>509.6666666666667</ele><time>2026-04-20T10:30:00.911Z</time></trkpt><trkpt lat="43.5402017" lon="11.3224833"><ele>511.83333333333337</ele><time>2026-04-20T10:30:01.91Z</time></trkpt><trkpt lat="43.5402383" lon="11.3223667"><ele>514.0</ele><time>2026-04-20T10:30:02.91Z</time></trkpt><trkpt lat="43.54027" lon="11.3222517"><ele>514.0</ele><time>2026-04-20T10:30:03.91Z</time></trkpt><trkpt lat="43.5403" lon="11.3221333"><ele>514.0</ele><time>2026-04-20T10:30:04.91Z</time></trkpt><trkpt lat="43.5403367" lon="11.3220233"><ele>514.0</ele><time>2026-04-20T10:30:05.91Z</time></trkpt><trkpt lat="43.5403767" lon="11.3219033"><ele>514.0</ele><time>2026-04-20T10:30:06.91Z</time></trkpt><trkpt lat="43.5404217" lon="11.3217867"><ele>514.0</ele><time>2026-04-20T10:30:07.911Z</time></trkpt><trkpt lat="43.5404683" lon="11.3216717"><ele>512.5</ele><time>2026-04-20T10:30:08.91Z</time></trkpt><trkpt lat="43.5405183" lon="11.3215683"><ele>511.0</ele><time>2026-04-20T10:30:09.91Z</time></trkpt><trkpt lat="43.5405667" lon="11.321465"><ele>509.5</ele><time>2026-04-20T10:30:10.91Z</time></trkpt><trkpt lat="43.5406183" lon="11.3213617"><ele>508.0</ele><time>2026-04-20T10:30:11.911Z</time></trkpt><trkpt lat="43.5406683" lon="11.3212733"><ele>506.50000000000006</ele><time>2026-04-20T10:30:12.91Z</time></trkpt><trkpt lat="43.54072" lon="11.3211767"><ele>505.0</ele><time>2026-04-20T10:30:13.91Z</time></trkpt><trkpt lat="43.5407617" lon="11.32108"><ele>505.00000000000006</ele><time>2026-04-20T10:30:14.91Z</time></trkpt><trkpt lat="43.5407983" lon="11.3209867"><ele>505.0</ele><time>2026-04-20T10:30:15.91Z</time></trkpt><trkpt lat="43.54084" lon="11.320895"><ele>505.0</ele><time>2026-04-20T10:30:16.91Z</time></trkpt><trkpt lat="43.5408783" lon="11.3207883"><ele>505.0</ele><time>2026-04-20T10:30:17.91Z</time></trkpt><trkpt lat="43.5409217" lon="11.3206817"><ele>505.00000000000006</ele><time>2026-04-20T10:30:18.91Z</time></trkpt><trkpt lat="43.54097" lon="11.32057"><ele>505.0</ele><time>2026-04-20T10:30:19.91Z</time></trkpt><trkpt lat="43.5410233" lon="11.32046"><ele>504.0</ele><time>2026-04-20T10:30:20.91Z</time></trkpt><trkpt lat="43.5410867" lon="11.3203617"><ele>503.0</ele><time>2026-04-20T10:30:21.911Z</time></trkpt><trkpt lat="43.54116" lon="11.3202783"><ele>502.0</ele><time>2026-04-20T10:30:22.911Z</time></trkpt><trkpt lat="43.5412433" lon="11.3201967"><ele>501.0</ele><time>2026-04-20T10:30:23.911Z</time></trkpt><trkpt lat="43.5413367" lon="11.3201017"><ele>500.0</ele><time>2026-04-20T10:30:24.91Z</time></trkpt><trkpt lat="43.5414367" lon="11.3200083"><ele>499.0</ele><time>2026-04-20T10:30:25.911Z</time></trkpt><trkpt lat="43.5415283" lon="11.3199117"><ele>498.0</ele><time>2026-04-20T10:30:26.911Z</time></trkpt><trkpt lat="43.54161" lon="11.319825"><ele>497.0</ele><time>2026-04-20T10:30:27.911Z</time></trkpt><trkpt lat="43.54169" lon="11.3197383"><ele>496.0</ele><time>2026-04-20T10:30:28.911Z</time></trkpt><trkpt lat="43.5417783" lon="11.3196483"><ele>495.0</ele><time>2026-04-20T10:30:29.91Z</time></trkpt><trkpt lat="43.5418717" lon="11.3195533"><ele>494.6</ele><time>2026-04-20T10:30:30.91Z</time></trkpt><trkpt lat="43.54196" lon="11.3194617"><ele>494.2</ele><time>2026-04-20T10:30:31.91Z</time></trkpt><trkpt lat="43.5420433" lon="11.3193617"><ele>493.79999999999995</ele><time>2026-04-20T10:30:32.911Z</time></trkpt><trkpt lat="43.5421367" lon="11.31927"><ele>493.4</ele><time>2026-04-20T10:30:33.91Z</time></trkpt><trkpt lat="43.5422217" lon="11.3191767"><ele>493.0</ele><time>2026-04-20T10:30:34.911Z</time></trkpt><trkpt lat="43.542305" lon="11.31908"><ele>492.4</ele><time>2026-04-20T10:30:35.911Z</time></trkpt><trkpt lat="43.5423883" lon="11.3189933"><ele>491.79999999999995</ele><time>2026-04-20T10:30:36.911Z</time></trkpt><trkpt lat="43.542465" lon="11.3189133"><ele>491.2</ele><time>2026-04-20T10:30:37.91Z</time></trkpt><trkpt lat="43.5425483" lon="11.318835"><ele>490.6</ele><time>2026-04-20T10:30:38.91Z</time></trkpt><trkpt lat="43.54263" lon="11.3187483"><ele>490.0</ele><time>2026-04-20T10:30:39.91Z</time></trkpt><trkpt lat="43.5427067" lon="11.3186667"><ele>489.6</ele><time>2026-04-20T10:30:40.91Z</time></trkpt><trkpt lat="43.5427883" lon="11.3185783"><ele>489.2</ele><time>2026-04-20T10:30:41.91Z</time></trkpt><trkpt lat="43.5428633" lon="11.3185"><ele>488.79999999999995</ele><time>2026-04-20T10:30:42.91Z</time></trkpt><trkpt lat="43.5429317" lon="11.31842"><ele>488.4</ele><time>2026-04-20T10:30:43.91Z</time></trkpt><trkpt lat="43.543" lon="11.3183483"><ele>488.0</ele><time>2026-04-20T10:30:44.91Z</time></trkpt><trkpt lat="43.5430617" lon="11.31827"><ele>487.99999999999994</ele><time>2026-04-20T10:30:45.91Z</time></trkpt><trkpt lat="43.5431217" lon="11.318185"><ele>488.0</ele><time>2026-04-20T10:30:46.91Z</time></trkpt><trkpt lat="43.54317" lon="11.3181033"><ele>488.0</ele><time>2026-04-20T10:30:47.91Z</time></trkpt><trkpt lat="43.5432133" lon="11.3180233"><ele>488.0</ele><time>2026-04-20T10:30:48.91Z</time></trkpt><trkpt lat="43.5432783" lon="11.3178867"><ele>487.99999999999994</ele><time>2026-04-20T10:30:50.91Z</time></trkpt><trkpt lat="43.5432933" lon="11.31776"><ele>488.0</ele><time>2026-04-20T10:30:52.91Z</time></trkpt><trkpt lat="43.5432433" lon="11.3176967"><ele>488.4</ele><time>2026-04-20T10:30:54.91Z</time></trkpt><trkpt lat="43.54313" lon="11.3176883"><ele>488.79999999999995</ele><time>2026-04-20T10:30:56.91Z</time></trkpt><trkpt lat="43.543015" lon="11.3176533"><ele>489.2</ele><time>2026-04-20T10:30:58.911Z</time></trkpt><trkpt lat="43.5429" lon="11.31763"><ele>489.6</ele><time>2026-04-20T10:31:00.91Z</time></trkpt><trkpt lat="43.5428383" lon="11.3176483"><ele>490.0</ele><time>2026-04-20T10:31:01.91Z</time></trkpt><trkpt lat="43.5427783" lon="11.3176833"><ele>488.33333333333337</ele><time>2026-04-20T10:31:02.91Z</time></trkpt><trkpt lat="43.5427133" lon="11.3177283"><ele>486.6666666666667</ele><time>2026-04-20T10:31:03.91Z</time></trkpt><trkpt lat="43.54265" lon="11.3177933"><ele>485.0</ele><time>2026-04-20T10:31:04.911Z</time></trkpt><trkpt lat="43.5425833" lon="11.3178683"><ele>483.33333333333337</ele><time>2026-04-20T10:31:05.91Z</time></trkpt><trkpt lat="43.54251" lon="11.317935"><ele>481.6666666666667</ele><time>2026-04-20T10:31:06.91Z</time></trkpt><trkpt lat="43.5424383" lon="11.3180067"><ele>480.0</ele><time>2026-04-20T10:31:07.911Z</time></trkpt><trkpt lat="43.542365" lon="11.3180633"><ele>479.0</ele><time>2026-04-20T10:31:08.911Z</time></trkpt><trkpt lat="43.5422817" lon="11.3181017"><ele>478.0</ele><time>2026-04-20T10:31:09.91Z</time></trkpt><trkpt lat="43.542195" lon="11.318115"><ele>477.0</ele><time>2026-04-20T10:31:10.91Z</time></trkpt><trkpt lat="43.5421117" lon="11.3181033"><ele>476.0</ele><time>2026-04-20T10:31:11.91Z</time></trkpt><trkpt lat="43.5420333" lon="11.31806"><ele>475.0</ele><time>2026-04-20T10:31:12.91Z</time></trkpt><trkpt lat="43.5419517" lon="11.3180017"><ele>474.0</ele><time>2026-04-20T10:31:13.91Z</time></trkpt><trkpt lat="43.5418733" lon="11.317945"><ele>474.0</ele><time>2026-04-20T10:31:14.911Z</time></trkpt><trkpt lat="43.5417883" lon="11.31789"><ele>474.0</ele><time>2026-04-20T10:31:15.91Z</time></trkpt><trkpt lat="43.5417067" lon="11.3178333"><ele>474.0</ele><time>2026-04-20T10:31:16.91Z</time></trkpt><trkpt lat="43.5416267" lon="11.3177833"><ele>474.0</ele><time>2026-04-20T10:31:17.911Z</time></trkpt><trkpt lat="43.5415517" lon="11.3177367"><ele>474.0</ele><time>2026-04-20T10:31:18.91Z</time></trkpt><trkpt lat="43.5414733" lon="11.3176917"><ele>474.0</ele><time>2026-04-20T10:31:19.911Z</time></trkpt><trkpt lat="43.5413917" lon="11.317665"><ele>474.0</ele><time>2026-04-20T10:31:20.91Z</time></trkpt><trkpt lat="43.5413067" lon="11.3176567"><ele>474.0</ele><time>2026-04-20T10:31:21.91Z</time></trkpt><trkpt lat="43.541215" lon="11.31765"><ele>474.0</ele><time>2026-04-20T10:31:22.91Z</time></trkpt><trkpt lat="43.54112" lon="11.3176417"><ele>474.0</ele><time>2026-04-20T10:31:23.91Z</time></trkpt><trkpt lat="43.5410317" lon="11.3176267"><ele>474.0</ele><time>2026-04-20T10:31:24.91Z</time></trkpt><trkpt lat="43.5409367" lon="11.3176117"><ele>473.1666666666667</ele><time>2026-04-20T10:31:25.91Z</time></trkpt><trkpt lat="43.540845" lon="11.3175983"><ele>472.33333333333337</ele><time>2026-04-20T10:31:26.91Z</time></trkpt><trkpt lat="43.54076" lon="11.31759"><ele>471.5</ele><time>2026-04-20T10:31:27.91Z</time></trkpt><trkpt lat="43.5406733" lon="11.31758"><ele>470.6666666666667</ele><time>2026-04-20T10:31:28.91Z</time></trkpt><trkpt lat="43.5405917" lon="11.3175733"><ele>469.83333333333337</ele><time>2026-04-20T10:31:29.91Z</time></trkpt><trkpt lat="43.5405133" lon="11.3175667"><ele>469.0</ele><time>2026-04-20T10:31:30.91Z</time></trkpt><trkpt lat="43.5404467" lon="11.3175467"><ele>467.50000000000006</ele><time>2026-04-20T10:31:31.91Z</time></trkpt><trkpt lat="43.5403433" lon="11.3174917"><ele>466.0</ele><time>2026-04-20T10:31:33.911Z</time></trkpt><trkpt lat="43.5402867" lon="11.3174017"><ele>464.5</ele><time>2026-04-20T10:31:35.91Z</time></trkpt><trkpt lat="43.54026" lon="11.3173083"><ele>463.0</ele><time>2026-04-20T10:31:37.91Z</time></trkpt><trkpt lat="43.540205" lon="11.3172617"><ele>461.50000000000006</ele><time>2026-04-20T10:31:39.91Z</time></trkpt><trkpt lat="43.540095" lon="11.317245"><ele>460.0</ele><time>2026-04-20T10:31:41.909Z</time></trkpt><trkpt lat="43.540025" lon="11.3172533"><ele>460.00000000000006</ele><time>2026-04-20T10:31:42.909Z</time></trkpt><trkpt lat="43.53995" lon="11.3172783"><ele>460.0</ele><time>2026-04-20T10:31:43.909Z</time></trkpt><trkpt lat="43.5398733" lon="11.3172933"><ele>460.0</ele><time>2026-04-20T10:31:44.909Z</time></trkpt><trkpt lat="43.5397983" lon="11.317305"><ele>460.0</ele><time>2026-04-20T10:31:45.909Z</time></trkpt><trkpt lat="43.539735" lon="11.3173067"><ele>460.00000000000006</ele><time>2026-04-20T10:31:46.909Z</time></trkpt><trkpt lat="43.53963" lon="11.3172617"><ele>460.0</ele><time>2026-04-20T10:31:48.909Z</time></trkpt><trkpt lat="43.5395317" lon="11.3171967"><ele>456.5</ele><time>2026-04-20T10:31:50.909Z</time></trkpt><trkpt lat="43.539465" lon="11.3170683"><ele>453.0</ele><time>2026-04-20T10:31:52.909Z</time></trkpt><trkpt lat="43.5394833" lon="11.3169117"><ele>449.5</ele><time>2026-04-20T10:31:54.91Z</time></trkpt><trkpt lat="43.5396083" lon="11.3168067"><ele>446.0</ele><time>2026-04-20T10:31:56.909Z</time></trkpt><trkpt lat="43.5396967" lon="11.3167817"><ele>446.0</ele><time>2026-04-20T10:31:57.91Z</time></trkpt><trkpt lat="43.5397917" lon="11.31676"><ele>446.0</ele><time>2026-04-20T10:31:58.909Z</time></trkpt><trkpt lat="43.5398933" lon="11.31673"><ele>446.0</ele><time>2026-04-20T10:31:59.909Z</time></trkpt><trkpt lat="43.5399967" lon="11.3166933"><ele>446.0</ele><time>2026-04-20T10:32:00.909Z</time></trkpt><trkpt lat="43.5400933" lon="11.316635"><ele>446.0</ele><time>2026-04-20T10:32:01.91Z</time></trkpt><trkpt lat="43.54018" lon="11.31655"><ele>446.0</ele><time>2026-04-20T10:32:02.909Z</time></trkpt><trkpt lat="43.5402533" lon="11.3164517"><ele>446.0</ele><time>2026-04-20T10:32:03.909Z</time></trkpt><trkpt lat="43.540325" lon="11.3163317"><ele>446.0</ele><time>2026-04-20T10:32:04.91Z</time></trkpt><trkpt lat="43.5403833" lon="11.3162167"><ele>446.0</ele><time>2026-04-20T10:32:05.909Z</time></trkpt><trkpt lat="43.5404533" lon="11.3161067"><ele>446.0</ele><time>2026-04-20T10:32:06.909Z</time></trkpt><trkpt lat="43.5405167" lon="11.316005"><ele>444.4</ele><time>2026-04-20T10:32:07.909Z</time></trkpt><trkpt lat="43.540595" lon="11.31592"><ele>442.8</ele><time>2026-04-20T10:32:08.909Z</time></trkpt><trkpt lat="43.5406733" lon="11.3158517"><ele>441.19999999999993</ele><time>2026-04-20T10:32:09.909Z</time></trkpt><trkpt lat="43.5407583" lon="11.3158017"><ele>439.59999999999997</ele><time>2026-04-20T10:32:10.909Z</time></trkpt><trkpt lat="43.54084" lon="11.31576"><ele>438.0</ele><time>2026-04-20T10:32:11.909Z</time></trkpt><trkpt lat="43.5409183" lon="11.3157183"><ele>438.0</ele><time>2026-04-20T10:32:12.91Z</time></trkpt><trkpt lat="43.5409967" lon="11.315675"><ele>438.0</ele><time>2026-04-20T10:32:13.909Z</time></trkpt><trkpt lat="43.5410767" lon="11.31566"><ele>438.0</ele><time>2026-04-20T10:32:14.909Z</time></trkpt><trkpt lat="43.541155" lon="11.3156583"><ele>438.0</ele><time>2026-04-20T10:32:15.909Z</time></trkpt><trkpt lat="43.5412383" lon="11.31566"><ele>438.0</ele><time>2026-04-20T10:32:16.91Z</time></trkpt><trkpt lat="43.541325" lon="11.3156683"><ele>438.0</ele><time>2026-04-20T10:32:17.909Z</time></trkpt><trkpt lat="43.54141" lon="11.3156967"><ele>438.2</ele><time>2026-04-20T10:32:18.909Z</time></trkpt><trkpt lat="43.5414967" lon="11.315735"><ele>438.4</ele><time>2026-04-20T10:32:19.909Z</time></trkpt><trkpt lat="43.5415867" lon="11.3157733"><ele>438.59999999999997</ele><time>2026-04-20T10:32:20.909Z</time></trkpt><trkpt lat="43.541675" lon="11.3158017"><ele>438.79999999999995</ele><time>2026-04-20T10:32:21.909Z</time></trkpt><trkpt lat="43.5417683" lon="11.3158083"><ele>439.0</ele><time>2026-04-20T10:32:22.909Z</time></trkpt><trkpt lat="43.5418633" lon="11.315795"><ele>439.0</ele><time>2026-04-20T10:32:23.909Z</time></trkpt><trkpt lat="43.5419583" lon="11.3157567"><ele>439.0</ele><time>2026-04-20T10:32:24.909Z</time></trkpt><trkpt lat="43.54205" lon="11.31572"><ele>439.0</ele><time>2026-04-20T10:32:25.91Z</time></trkpt><trkpt lat="43.5421417" lon="11.31568"><ele>439.0</ele><time>2026-04-20T10:32:26.91Z</time></trkpt><trkpt lat="43.54223" lon="11.3156417"><ele>439.0</ele><time>2026-04-20T10:32:27.909Z</time></trkpt><trkpt lat="43.54232" lon="11.3156017"><ele>438.2</ele><time>2026-04-20T10:32:28.91Z</time></trkpt><trkpt lat="43.5424133" lon="11.3155583"><ele>437.4</ele><time>2026-04-20T10:32:29.909Z</time></trkpt><trkpt lat="43.5425067" lon="11.3155167"><ele>436.6</ele><time>2026-04-20T10:32:30.91Z</time></trkpt><trkpt lat="43.5426017" lon="11.31547"><ele>435.8</ele><time>2026-04-20T10:32:31.909Z</time></trkpt><trkpt lat="43.5426983" lon="11.3154233"><ele>435.0</ele><time>2026-04-20T10:32:32.91Z</time></trkpt><trkpt lat="43.5428" lon="11.3153733"><ele>437.8</ele><time>2026-04-20T10:32:33.909Z</time></trkpt><trkpt lat="43.5429017" lon="11.3153233"><ele>440.6</ele><time>2026-04-20T10:32:34.909Z</time></trkpt><trkpt lat="43.543" lon="11.31527"><ele>443.4</ele><time>2026-04-20T10:32:35.909Z</time></trkpt><trkpt lat="43.5430933" lon="11.3152267"><ele>446.2</ele><time>2026-04-20T10:32:36.909Z</time></trkpt><trkpt lat="43.54319" lon="11.315175"><ele>449.0</ele><time>2026-04-20T10:32:37.91Z</time></trkpt><trkpt lat="43.5432833" lon="11.315115"><ele>449.0</ele><time>2026-04-20T10:32:38.909Z</time></trkpt><trkpt lat="43.5433767" lon="11.3150417"><ele>449.0</ele><time>2026-04-20T10:32:39.909Z</time></trkpt><trkpt lat="43.5434633" lon="11.314965"><ele>449.0</ele><time>2026-04-20T10:32:40.909Z</time></trkpt><trkpt lat="43.54354" lon="11.31489"><ele>449.0</ele><time>2026-04-20T10:32:41.909Z</time></trkpt><trkpt lat="43.5436117" lon="11.31482"><ele>449.0</ele><time>2026-04-20T10:32:42.91Z</time></trkpt><trkpt lat="43.5436817" lon="11.3147517"><ele>449.99999999999994</ele><time>2026-04-20T10:32:43.909Z</time></trkpt><trkpt lat="43.5437467" lon="11.3146833"><ele>451.0</ele><time>2026-04-20T10:32:44.909Z</time></trkpt><trkpt lat="43.5438083" lon="11.3146167"><ele>452.0</ele><time>2026-04-20T10:32:45.909Z</time></trkpt><trkpt lat="43.5438617" lon="11.3145467"><ele>453.0</ele><time>2026-04-20T10:32:46.91Z</time></trkpt><trkpt lat="43.5439067" lon="11.3144667"><ele>453.99999999999994</ele><time>2026-04-20T10:32:47.909Z</time></trkpt><trkpt lat="43.5439417" lon="11.3143767"><ele>455.0</ele><time>2026-04-20T10:32:48.909Z</time></trkpt><trkpt lat="43.5439683" lon="11.3142833"><ele>454.99999999999994</ele><time>2026-04-20T10:32:49.909Z</time></trkpt><trkpt lat="43.54399" lon="11.3141833"><ele>455.0</ele><time>2026-04-20T10:32:50.91Z</time></trkpt><trkpt lat="43.5440017" lon="11.3140683"><ele>455.0</ele><time>2026-04-20T10:32:51.909Z</time></trkpt><trkpt lat="43.543995" lon="11.313955"><ele>455.0</ele><time>2026-04-20T10:32:52.909Z</time></trkpt><trkpt lat="43.54397" lon="11.3138317"><ele>454.99999999999994</ele><time>2026-04-20T10:32:53.909Z</time></trkpt><trkpt lat="43.5439267" lon="11.3137067"><ele>455.0</ele><time>2026-04-20T10:32:54.909Z</time></trkpt><trkpt lat="43.5438867" lon="11.3135783"><ele>454.66666666666663</ele><time>2026-04-20T10:32:55.909Z</time></trkpt><trkpt lat="43.5438517" lon="11.3134683"><ele>454.3333333333333</ele><time>2026-04-20T10:32:56.909Z</time></trkpt><trkpt lat="43.54382" lon="11.3133617"><ele>454.0</ele><time>2026-04-20T10:32:57.909Z</time></trkpt><trkpt lat="43.5437933" lon="11.3132533"><ele>453.66666666666663</ele><time>2026-04-20T10:32:58.909Z</time></trkpt><trkpt lat="43.5437783" lon="11.3131517"><ele>453.3333333333333</ele><time>2026-04-20T10:32:59.91Z</time></trkpt><trkpt lat="43.5437917" lon="11.3130517"><ele>453.0</ele><time>2026-04-20T10:33:00.909Z</time></trkpt><trkpt lat="43.5438333" lon="11.312955"><ele>452.0</ele><time>2026-04-20T10:33:01.909Z</time></trkpt><trkpt lat="43.5438883" lon="11.312875"><ele>450.99999999999994</ele><time>2026-04-20T10:33:02.909Z</time></trkpt><trkpt lat="43.5439583" lon="11.3128033"><ele>449.99999999999994</ele><time>2026-04-20T10:33:03.909Z</time></trkpt><trkpt lat="43.5440367" lon="11.3127217"><ele>449.0</ele><time>2026-04-20T10:33:04.909Z</time></trkpt><trkpt lat="43.5441217" lon="11.31264"><ele>448.0</ele><time>2026-04-20T10:33:05.909Z</time></trkpt><trkpt lat="43.5442017" lon="11.3125633"><ele>448.0</ele><time>2026-04-20T10:33:06.909Z</time></trkpt><trkpt lat="43.5442817" lon="11.31249"><ele>447.99999999999994</ele><time>2026-04-20T10:33:07.909Z</time></trkpt><trkpt lat="43.544355" lon="11.3124133"><ele>447.99999999999994</ele><time>2026-04-20T10:33:08.909Z</time></trkpt><trkpt lat="43.5444317" lon="11.3123467"><ele>448.0</ele><time>2026-04-20T10:33:09.909Z</time></trkpt><trkpt lat="43.5445083" lon="11.3122667"><ele>448.0</ele><time>2026-04-20T10:33:10.909Z</time></trkpt><trkpt lat="43.54458" lon="11.312185"><ele>448.33333333333337</ele><time>2026-04-20T10:33:11.909Z</time></trkpt><trkpt lat="43.54465" lon="11.31211"><ele>448.6666666666667</ele><time>2026-04-20T10:33:12.909Z</time></trkpt><trkpt lat="43.5447183" lon="11.3120417"><ele>449.0</ele><time>2026-04-20T10:33:13.909Z</time></trkpt><trkpt lat="43.5447767" lon="11.31198"><ele>449.33333333333337</ele><time>2026-04-20T10:33:14.909Z</time></trkpt><trkpt lat="43.544835" lon="11.3119183"><ele>449.6666666666667</ele><time>2026-04-20T10:33:15.909Z</time></trkpt><trkpt lat="43.5448983" lon="11.3118483"><ele>450.0</ele><time>2026-04-20T10:33:16.91Z</time></trkpt><trkpt lat="43.5449683" lon="11.3117633"><ele>450.0</ele><time>2026-04-20T10:33:17.91Z</time></trkpt><trkpt lat="43.54503" lon="11.3116667"><ele>450.0</ele><time>2026-04-20T10:33:18.909Z</time></trkpt><trkpt lat="43.54508" lon="11.3115617"><ele>450.0</ele><time>2026-04-20T10:33:19.91Z</time></trkpt><trkpt lat="43.5451167" lon="11.31144"><ele>450.0</ele><time>2026-04-20T10:33:20.909Z</time></trkpt><trkpt lat="43.54514" lon="11.3113083"><ele>450.0</ele><time>2026-04-20T10:33:21.909Z</time></trkpt><trkpt lat="43.54516" lon="11.311175"><ele>449.6666666666667</ele><time>2026-04-20T10:33:22.909Z</time></trkpt><trkpt lat="43.5451783" lon="11.3110417"><ele>449.33333333333337</ele><time>2026-04-20T10:33:23.909Z</time></trkpt><trkpt lat="43.5451983" lon="11.310915"><ele>449.0</ele><time>2026-04-20T10:33:24.909Z</time></trkpt><trkpt lat="43.5452233" lon="11.3107917"><ele>448.6666666666667</ele><time>2026-04-20T10:33:25.909Z</time></trkpt><trkpt lat="43.545245" lon="11.3106767"><ele>448.33333333333337</ele><time>2026-04-20T10:33:26.91Z</time></trkpt><trkpt lat="43.5452717" lon="11.3105817"><ele>448.0</ele><time>2026-04-20T10:33:27.91Z</time></trkpt><trkpt lat="43.545335" lon="11.3104667"><ele>450.2</ele><time>2026-04-20T10:33:29.909Z</time></trkpt><trkpt lat="43.5454017" lon="11.3103733"><ele>452.4</ele><time>2026-04-20T10:33:32.909Z</time></trkpt><trkpt lat="43.5454033" lon="11.31023"><ele>454.59999999999997</ele><time>2026-04-20T10:33:34.909Z</time></trkpt><trkpt lat="43.5453983" lon="11.3100467"><ele>456.79999999999995</ele><time>2026-04-20T10:33:36.909Z</time></trkpt><trkpt lat="43.5454067" lon="11.30994"><ele>459.0</ele><time>2026-04-20T10:33:37.909Z</time></trkpt><trkpt lat="43.545415" lon="11.309835"><ele>458.1666666666667</ele><time>2026-04-20T10:33:38.909Z</time></trkpt><trkpt lat="43.5454233" lon="11.30972"><ele>457.33333333333337</ele><time>2026-04-20T10:33:39.909Z</time></trkpt><trkpt lat="43.5454517" lon="11.309615"><ele>456.5</ele><time>2026-04-20T10:33:40.909Z</time></trkpt><trkpt lat="43.5454883" lon="11.3095267"><ele>455.6666666666667</ele><time>2026-04-20T10:33:41.91Z</time></trkpt><trkpt lat="43.5455317" lon="11.3094383"><ele>454.83333333333337</ele><time>2026-04-20T10:33:42.91Z</time></trkpt><trkpt lat="43.5455767" lon="11.3093533"><ele>454.0</ele><time>2026-04-20T10:33:43.909Z</time></trkpt><trkpt lat="43.5456533" lon="11.3092017"><ele>454.0</ele><time>2026-04-20T10:33:45.909Z</time></trkpt><trkpt lat="43.5456883" lon="11.3091233"><ele>454.00000000000006</ele><time>2026-04-20T10:33:46.909Z</time></trkpt><trkpt lat="43.5457267" lon="11.3090433"><ele>454.0</ele><time>2026-04-20T10:33:47.91Z</time></trkpt><trkpt lat="43.5457633" lon="11.3089617"><ele>454.0</ele><time>2026-04-20T10:33:48.909Z</time></trkpt><trkpt lat="43.5458033" lon="11.3088683"><ele>454.00000000000006</ele><time>2026-04-20T10:33:49.909Z</time></trkpt><trkpt lat="43.5458417" lon="11.308775"><ele>454.0</ele><time>2026-04-20T10:33:50.909Z</time></trkpt><trkpt lat="43.5458817" lon="11.308675"><ele>454.0</ele><time>2026-04-20T10:33:51.91Z</time></trkpt><trkpt lat="43.545935" lon="11.308575"><ele>452.6</ele><time>2026-04-20T10:33:52.909Z</time></trkpt><trkpt lat="43.5460033" lon="11.3084817"><ele>451.2</ele><time>2026-04-20T10:33:53.909Z</time></trkpt><trkpt lat="43.54608" lon="11.3083917"><ele>449.80000000000007</ele><time>2026-04-20T10:33:54.909Z</time></trkpt><trkpt lat="43.5461533" lon="11.3083"><ele>448.40000000000003</ele><time>2026-04-20T10:33:55.909Z</time></trkpt><trkpt lat="43.546225" lon="11.30819"><ele>447.0</ele><time>2026-04-20T10:33:56.909Z</time></trkpt><trkpt lat="43.54629" lon="11.3080783"><ele>448.8</ele><time>2026-04-20T10:33:57.909Z</time></trkpt><trkpt lat="43.5463667" lon="11.3079817"><ele>450.6</ele><time>2026-04-20T10:33:58.909Z</time></trkpt><trkpt lat="43.5464367" lon="11.3078917"><ele>452.40000000000003</ele><time>2026-04-20T10:33:59.909Z</time></trkpt><trkpt lat="43.5465133" lon="11.3078117"><ele>454.20000000000005</ele><time>2026-04-20T10:34:00.909Z</time></trkpt><trkpt lat="43.5465767" lon="11.3077183"><ele>456.0</ele><time>2026-04-20T10:34:01.91Z</time></trkpt><trkpt lat="43.54663" lon="11.3076083"><ele>456.0</ele><time>2026-04-20T10:34:02.909Z</time></trkpt><trkpt lat="43.5466733" lon="11.3074867"><ele>456.0</ele><time>2026-04-20T10:34:03.909Z</time></trkpt><trkpt lat="43.546705" lon="11.3073483"><ele>456.0</ele><time>2026-04-20T10:34:04.909Z</time></trkpt><trkpt lat="43.5467383" lon="11.3072083"><ele>456.0</ele><time>2026-04-20T10:34:05.909Z</time></trkpt><trkpt lat="43.5467767" lon="11.3070683"><ele>456.0</ele><time>2026-04-20T10:34:06.909Z</time></trkpt><trkpt lat="43.54682" lon="11.3069483"><ele>455.4</ele><time>2026-04-20T10:34:07.909Z</time></trkpt><trkpt lat="43.5468733" lon="11.3068467"><ele>454.8</ele><time>2026-04-20T10:34:08.909Z</time></trkpt><trkpt lat="43.546935" lon="11.306775"><ele>454.19999999999993</ele><time>2026-04-20T10:34:09.909Z</time></trkpt><trkpt lat="43.5470133" lon="11.3067167"><ele>453.59999999999997</ele><time>2026-04-20T10:34:10.909Z</time></trkpt><trkpt lat="43.547105" lon="11.3066617"><ele>453.0</ele><time>2026-04-20T10:34:11.91Z</time></trkpt><trkpt lat="43.5471983" lon="11.306605"><ele>454.4</ele><time>2026-04-20T10:34:12.909Z</time></trkpt><trkpt lat="43.5472933" lon="11.30655"><ele>455.79999999999995</ele><time>2026-04-20T10:34:13.909Z</time></trkpt><trkpt lat="43.54739" lon="11.3064967"><ele>457.2</ele><time>2026-04-20T10:34:14.909Z</time></trkpt><trkpt lat="43.5474933" lon="11.3064383"><ele>458.6</ele><time>2026-04-20T10:34:15.91Z</time></trkpt><trkpt lat="43.547595" lon="11.306395"><ele>460.0</ele><time>2026-04-20T10:34:16.909Z</time></trkpt><trkpt lat="43.5476883" lon="11.306365"><ele>460.00000000000006</ele><time>2026-04-20T10:34:17.909Z</time></trkpt><trkpt lat="43.547785" lon="11.3063617"><ele>460.0</ele><time>2026-04-20T10:34:18.909Z</time></trkpt><trkpt lat="43.5478717" lon="11.3063833"><ele>460.0</ele><time>2026-04-20T10:34:19.909Z</time></trkpt><trkpt lat="43.54795" lon="11.3064183"><ele>460.0</ele><time>2026-04-20T10:34:20.909Z</time></trkpt><trkpt lat="43.5480267" lon="11.30647"><ele>460.00000000000006</ele><time>2026-04-20T10:34:21.909Z</time></trkpt><trkpt lat="43.5480917" lon="11.3065133"><ele>460.0</ele><time>2026-04-20T10:34:22.91Z</time></trkpt><trkpt lat="43.5481967" lon="11.3065783"><ele>461.83333333333337</ele><time>2026-04-20T10:34:24.91Z</time></trkpt><trkpt lat="43.5482983" lon="11.306545"><ele>463.6666666666667</ele><time>2026-04-20T10:34:26.909Z</time></trkpt><trkpt lat="43.5483517" lon="11.3064967"><ele>465.5</ele><time>2026-04-20T10:34:27.91Z</time></trkpt><trkpt lat="43.5484083" lon="11.3064483"><ele>467.33333333333337</ele><time>2026-04-20T10:34:28.91Z</time></trkpt><trkpt lat="43.548465" lon="11.3063967"><ele>469.1666666666667</ele><time>2026-04-20T10:34:29.909Z</time></trkpt><trkpt lat="43.548525" lon="11.306335"><ele>471.0</ele><time>2026-04-20T10:34:30.909Z</time></trkpt><trkpt lat="43.5485867" lon="11.3062633"><ele>471.0</ele><time>2026-04-20T10:34:31.909Z</time></trkpt><trkpt lat="43.5486583" lon="11.306185"><ele>471.0</ele><time>2026-04-20T10:34:32.909Z</time></trkpt><trkpt lat="43.54873" lon="11.3061017"><ele>471.0</ele><time>2026-04-20T10:34:33.909Z</time></trkpt><trkpt lat="43.5488133" lon="11.306025"><ele>471.0</ele><time>2026-04-20T10:34:34.909Z</time></trkpt><trkpt lat="43.5488983" lon="11.3059267"><ele>471.0</ele><time>2026-04-20T10:34:35.909Z</time></trkpt><trkpt lat="43.548985" lon="11.305805"><ele>470.75</ele><time>2026-04-20T10:34:36.91Z</time></trkpt><trkpt lat="43.5490733" lon="11.30568"><ele>470.5</ele><time>2026-04-20T10:34:37.909Z</time></trkpt><trkpt lat="43.5491667" lon="11.3055483"><ele>470.25</ele><time>2026-04-20T10:34:38.91Z</time></trkpt><trkpt lat="43.5492633" lon="11.305415"><ele>470.0</ele><time>2026-04-20T10:34:39.91Z</time></trkpt><trkpt lat="43.5493533" lon="11.3052883"><ele>472.0</ele><time>2026-04-20T10:34:40.909Z</time></trkpt><trkpt lat="43.549445" lon="11.3051683"><ele>474.0</ele><time>2026-04-20T10:34:41.909Z</time></trkpt><trkpt lat="43.54954" lon="11.3050567"><ele>476.0</ele><time>2026-04-20T10:34:42.91Z</time></trkpt><trkpt lat="43.54963" lon="11.304945"><ele>478.0</ele><time>2026-04-20T10:34:43.909Z</time></trkpt><trkpt lat="43.549725" lon="11.3048433"><ele>481.25</ele><time>2026-04-20T10:34:44.91Z</time></trkpt><trkpt lat="43.5498217" lon="11.30474"><ele>484.5</ele><time>2026-04-20T10:34:45.91Z</time></trkpt><trkpt lat="43.54992" lon="11.304635"><ele>487.75</ele><time>2026-04-20T10:34:46.909Z</time></trkpt><trkpt lat="43.5500233" lon="11.3045317"><ele>491.0</ele><time>2026-04-20T10:34:47.909Z</time></trkpt><trkpt lat="43.55013" lon="11.3044333"><ele>491.0</ele><time>2026-04-20T10:34:48.909Z</time></trkpt><trkpt lat="43.5502283" lon="11.3043217"><ele>491.0</ele><time>2026-04-20T10:34:49.909Z</time></trkpt><trkpt lat="43.5503317" lon="11.3042133"><ele>491.0</ele><time>2026-04-20T10:34:50.91Z</time></trkpt><trkpt lat="43.5504383" lon="11.3040933"><ele>491.0</ele><time>2026-04-20T10:34:51.91Z</time></trkpt><trkpt lat="43.55054" lon="11.3039733"><ele>492.5</ele><time>2026-04-20T10:34:52.909Z</time></trkpt><trkpt lat="43.5506433" lon="11.3038533"><ele>494.0</ele><time>2026-04-20T10:34:53.909Z</time></trkpt><trkpt lat="43.5507333" lon="11.3037317"><ele>495.5</ele><time>2026-04-20T10:34:54.909Z</time></trkpt><trkpt lat="43.55082" lon="11.3036133"><ele>497.0</ele><time>2026-04-20T10:34:55.909Z</time></trkpt><trkpt lat="43.5509117" lon="11.3034983"><ele>497.0</ele><time>2026-04-20T10:34:56.909Z</time></trkpt><trkpt lat="43.5510033" lon="11.30339"><ele>497.0</ele><time>2026-04-20T10:34:57.909Z</time></trkpt><trkpt lat="43.5511067" lon="11.30329"><ele>497.0</ele><time>2026-04-20T10:34:58.91Z</time></trkpt><trkpt lat="43.55121" lon="11.3032033"><ele>497.0</ele><time>2026-04-20T10:34:59.909Z</time></trkpt><trkpt lat="43.5513067" lon="11.3031217"><ele>497.66666666666663</ele><time>2026-04-20T10:35:00.909Z</time></trkpt><trkpt lat="43.5513883" lon="11.3030483"><ele>498.3333333333333</ele><time>2026-04-20T10:35:01.909Z</time></trkpt><trkpt lat="43.55146" lon="11.302985"><ele>499.0</ele><time>2026-04-20T10:35:02.909Z</time></trkpt><trkpt lat="43.5515283" lon="11.3029267"><ele>499.66666666666663</ele><time>2026-04-20T10:35:03.909Z</time></trkpt><trkpt lat="43.5515983" lon="11.3028617"><ele>500.3333333333333</ele><time>2026-04-20T10:35:04.909Z</time></trkpt><trkpt lat="43.55166" lon="11.3027883"><ele>501.0</ele><time>2026-04-20T10:35:05.909Z</time></trkpt><trkpt lat="43.5517217" lon="11.3027"><ele>501.0</ele><time>2026-04-20T10:35:06.909Z</time></trkpt><trkpt lat="43.5517783" lon="11.3026033"><ele>501.0</ele><time>2026-04-20T10:35:07.909Z</time></trkpt><trkpt lat="43.5518233" lon="11.3024967"><ele>501.0</ele><time>2026-04-20T10:35:08.909Z</time></trkpt><trkpt lat="43.5518683" lon="11.3023817"><ele>501.0</ele><time>2026-04-20T10:35:09.909Z</time></trkpt><trkpt lat="43.55192" lon="11.3022717"><ele>501.0</ele><time>2026-04-20T10:35:10.909Z</time></trkpt><trkpt lat="43.551965" lon="11.3021467"><ele>500.20000000000005</ele><time>2026-04-20T10:35:11.909Z</time></trkpt><trkpt lat="43.552015" lon="11.3020067"><ele>499.40000000000003</ele><time>2026-04-20T10:35:12.909Z</time></trkpt><trkpt lat="43.5520583" lon="11.3018667"><ele>498.6</ele><time>2026-04-20T10:35:13.909Z</time></trkpt><trkpt lat="43.5521017" lon="11.3017333"><ele>497.8</ele><time>2026-04-20T10:35:14.909Z</time></trkpt><trkpt lat="43.5521417" lon="11.3015967"><ele>497.0</ele><time>2026-04-20T10:35:15.909Z</time></trkpt><trkpt lat="43.5521783" lon="11.3014567"><ele>498.0</ele><time>2026-04-20T10:35:16.909Z</time></trkpt><trkpt lat="43.5522183" lon="11.3013133"><ele>499.0</ele><time>2026-04-20T10:35:17.909Z</time></trkpt><trkpt lat="43.55226" lon="11.301175"><ele>500.0</ele><time>2026-04-20T10:35:18.909Z</time></trkpt><trkpt lat="43.5523167" lon="11.3010333"><ele>501.0</ele><time>2026-04-20T10:35:19.909Z</time></trkpt><trkpt lat="43.55237" lon="11.3008917"><ele>501.0</ele><time>2026-04-20T10:35:20.909Z</time></trkpt><trkpt lat="43.5524283" lon="11.3007467"><ele>501.0</ele><time>2026-04-20T10:35:21.909Z</time></trkpt><trkpt lat="43.5524933" lon="11.3006133"><ele>501.0</ele><time>2026-04-20T10:35:22.909Z</time></trkpt><trkpt lat="43.5525583" lon="11.3004717"><ele>501.0</ele><time>2026-04-20T10:35:23.91Z</time></trkpt><trkpt lat="43.5526217" lon="11.3003383"><ele>501.0</ele><time>2026-04-20T10:35:24.909Z</time></trkpt><trkpt lat="43.5526833" lon="11.300205"><ele>501.0</ele><time>2026-04-20T10:35:25.909Z</time></trkpt><trkpt lat="43.5527467" lon="11.300075"><ele>501.0</ele><time>2026-04-20T10:35:26.909Z</time></trkpt><trkpt lat="43.552805" lon="11.2999417"><ele>501.0</ele><time>2026-04-20T10:35:27.909Z</time></trkpt><trkpt lat="43.5528617" lon="11.2998133"><ele>500.0</ele><time>2026-04-20T10:35:28.909Z</time></trkpt><trkpt lat="43.5529117" lon="11.299675"><ele>499.0</ele><time>2026-04-20T10:35:29.91Z</time></trkpt><trkpt lat="43.5529567" lon="11.2995417"><ele>498.0</ele><time>2026-04-20T10:35:30.909Z</time></trkpt><trkpt lat="43.5529983" lon="11.29941"><ele>497.0</ele><time>2026-04-20T10:35:31.909Z</time></trkpt><trkpt lat="43.553055" lon="11.2992833"><ele>496.0</ele><time>2026-04-20T10:35:32.909Z</time></trkpt><trkpt lat="43.5531167" lon="11.2991667"><ele>496.0</ele><time>2026-04-20T10:35:33.909Z</time></trkpt><trkpt lat="43.5531833" lon="11.2990567"><ele>496.0</ele><time>2026-04-20T10:35:34.909Z</time></trkpt><trkpt lat="43.5532633" lon="11.2989667"><ele>496.0</ele><time>2026-04-20T10:35:35.909Z</time></trkpt><trkpt lat="43.5533467" lon="11.2988983"><ele>496.0</ele><time>2026-04-20T10:35:36.909Z</time></trkpt><trkpt lat="43.5534467" lon="11.2988567"><ele>496.0</ele><time>2026-04-20T10:35:37.909Z</time></trkpt><trkpt lat="43.5535567" lon="11.298835"><ele>493.5</ele><time>2026-04-20T10:35:38.909Z</time></trkpt><trkpt lat="43.5536667" lon="11.2988367"><ele>491.0</ele><time>2026-04-20T10:35:39.909Z</time></trkpt><trkpt lat="43.5537833" lon="11.2988433"><ele>488.5</ele><time>2026-04-20T10:35:40.91Z</time></trkpt><trkpt lat="43.5539" lon="11.2988467"><ele>486.0</ele><time>2026-04-20T10:35:41.909Z</time></trkpt><trkpt lat="43.5540083" lon="11.29884"><ele>485.20000000000005</ele><time>2026-04-20T10:35:42.909Z</time></trkpt><trkpt lat="43.5541217" lon="11.2988033"><ele>484.40000000000003</ele><time>2026-04-20T10:35:43.909Z</time></trkpt><trkpt lat="43.5542217" lon="11.2987533"><ele>483.6</ele><time>2026-04-20T10:35:44.91Z</time></trkpt><trkpt lat="43.5543167" lon="11.298685"><ele>482.8</ele><time>2026-04-20T10:35:45.909Z</time></trkpt><trkpt lat="43.5544033" lon="11.2985967"><ele>482.0</ele><time>2026-04-20T10:35:46.909Z</time></trkpt><trkpt lat="43.554495" lon="11.2985017"><ele>482.0</ele><time>2026-04-20T10:35:47.909Z</time></trkpt><trkpt lat="43.5545833" lon="11.2983967"><ele>482.0</ele><time>2026-04-20T10:35:48.909Z</time></trkpt><trkpt lat="43.5546783" lon="11.2982967"><ele>482.0</ele><time>2026-04-20T10:35:49.909Z</time></trkpt><trkpt lat="43.554775" lon="11.2982067"><ele>482.0</ele><time>2026-04-20T10:35:50.91Z</time></trkpt><trkpt lat="43.55487" lon="11.298125"><ele>481.75</ele><time>2026-04-20T10:35:51.909Z</time></trkpt><trkpt lat="43.5549683" lon="11.2980533"><ele>481.5</ele><time>2026-04-20T10:35:52.91Z</time></trkpt><trkpt lat="43.5550767" lon="11.29799"><ele>481.25</ele><time>2026-04-20T10:35:53.909Z</time></trkpt><trkpt lat="43.5551917" lon="11.2979367"><ele>481.0</ele><time>2026-04-20T10:35:54.909Z</time></trkpt><trkpt lat="43.55531" lon="11.297895"><ele>482.5</ele><time>2026-04-20T10:35:55.909Z</time></trkpt><trkpt lat="43.5554317" lon="11.2978567"><ele>484.0</ele><time>2026-04-20T10:35:56.909Z</time></trkpt><trkpt lat="43.5555633" lon="11.297825"><ele>485.5</ele><time>2026-04-20T10:35:57.909Z</time></trkpt><trkpt lat="43.5556867" lon="11.2977833"><ele>487.0</ele><time>2026-04-20T10:35:58.909Z</time></trkpt><trkpt lat="43.5558133" lon="11.2977433"><ele>487.0</ele><time>2026-04-20T10:35:59.909Z</time></trkpt><trkpt lat="43.5559317" lon="11.297715"><ele>487.0</ele><time>2026-04-20T10:36:00.909Z</time></trkpt><trkpt lat="43.5560517" lon="11.2976867"><ele>487.0</ele><time>2026-04-20T10:36:01.909Z</time></trkpt><trkpt lat="43.5561667" lon="11.29766"><ele>487.0</ele><time>2026-04-20T10:36:02.909Z</time></trkpt><trkpt lat="43.5562833" lon="11.2976433"><ele>488.5</ele><time>2026-04-20T10:36:03.909Z</time></trkpt><trkpt lat="43.556405" lon="11.29762"><ele>490.0</ele><time>2026-04-20T10:36:04.909Z</time></trkpt><trkpt lat="43.5565267" lon="11.29759"><ele>491.5</ele><time>2026-04-20T10:36:05.909Z</time></trkpt><trkpt lat="43.55665" lon="11.29756"><ele>493.0</ele><time>2026-04-20T10:36:06.909Z</time></trkpt><trkpt lat="43.5567717" lon="11.2975217"><ele>493.0</ele><time>2026-04-20T10:36:07.909Z</time></trkpt><trkpt lat="43.556895" lon="11.29748"><ele>493.0</ele><time>2026-04-20T10:36:08.909Z</time></trkpt><trkpt lat="43.55702" lon="11.2974417"><ele>493.0</ele><time>2026-04-20T10:36:09.909Z</time></trkpt><trkpt lat="43.5571417" lon="11.2974183"><ele>493.0</ele><time>2026-04-20T10:36:10.909Z</time></trkpt><trkpt lat="43.5572683" lon="11.2973967"><ele>494.2</ele><time>2026-04-20T10:36:11.909Z</time></trkpt><trkpt lat="43.5573933" lon="11.297405"><ele>495.4</ele><time>2026-04-20T10:36:12.909Z</time></trkpt><trkpt lat="43.5575" lon="11.2974367"><ele>496.59999999999997</ele><time>2026-04-20T10:36:13.909Z</time></trkpt><trkpt lat="43.5576017" lon="11.2974467"><ele>497.79999999999995</ele><time>2026-04-20T10:36:14.909Z</time></trkpt><trkpt lat="43.557705" lon="11.2974267"><ele>499.0</ele><time>2026-04-20T10:36:15.909Z</time></trkpt><trkpt lat="43.5578033" lon="11.2973817"><ele>499.75</ele><time>2026-04-20T10:36:16.91Z</time></trkpt><trkpt lat="43.5579067" lon="11.29731"><ele>500.5</ele><time>2026-04-20T10:36:17.909Z</time></trkpt><trkpt lat="43.5580167" lon="11.2972383"><ele>501.25</ele><time>2026-04-20T10:36:18.909Z</time></trkpt><trkpt lat="43.5581383" lon="11.2971667"><ele>502.0</ele><time>2026-04-20T10:36:19.908Z</time></trkpt><trkpt lat="43.5582567" lon="11.2971067"><ele>502.0</ele><time>2026-04-20T10:36:20.908Z</time></trkpt><trkpt lat="43.5583733" lon="11.2970567"><ele>502.0</ele><time>2026-04-20T10:36:21.908Z</time></trkpt><trkpt lat="43.5584967" lon="11.29702"><ele>502.0</ele><time>2026-04-20T10:36:22.908Z</time></trkpt><trkpt lat="43.55862" lon="11.2969867"><ele>502.0</ele><time>2026-04-20T10:36:23.908Z</time></trkpt><trkpt lat="43.55875" lon="11.2969583"><ele>502.0</ele><time>2026-04-20T10:36:24.908Z</time></trkpt><trkpt lat="43.5588767" lon="11.2969217"><ele>502.0</ele><time>2026-04-20T10:36:25.908Z</time></trkpt><trkpt lat="43.5590033" lon="11.2968733"><ele>502.0</ele><time>2026-04-20T10:36:26.909Z</time></trkpt><trkpt lat="43.559125" lon="11.296825"><ele>502.0</ele><time>2026-04-20T10:36:27.908Z</time></trkpt><trkpt lat="43.5592517" lon="11.2967767"><ele>502.0</ele><time>2026-04-20T10:36:28.908Z</time></trkpt><trkpt lat="43.5593833" lon="11.2967417"><ele>502.0</ele><time>2026-04-20T10:36:29.908Z</time></trkpt><trkpt lat="43.5595083" lon="11.2967217"><ele>502.0</ele><time>2026-04-20T10:36:30.908Z</time></trkpt><trkpt lat="43.5596233" lon="11.2967117"><ele>502.0</ele><time>2026-04-20T10:36:31.908Z</time></trkpt><trkpt lat="43.55974" lon="11.2967117"><ele>501.75</ele><time>2026-04-20T10:36:32.908Z</time></trkpt><trkpt lat="43.559855" lon="11.2967117"><ele>501.5</ele><time>2026-04-20T10:36:33.908Z</time></trkpt><trkpt lat="43.5599683" lon="11.29671"><ele>501.25</ele><time>2026-04-20T10:36:34.908Z</time></trkpt><trkpt lat="43.560085" lon="11.2966917"><ele>501.0</ele><time>2026-04-20T10:36:35.908Z</time></trkpt><trkpt lat="43.5602017" lon="11.2966517"><ele>501.0</ele><time>2026-04-20T10:36:36.908Z</time></trkpt><trkpt lat="43.5603167" lon="11.2965933"><ele>501.0</ele><time>2026-04-20T10:36:37.908Z</time></trkpt><trkpt lat="43.5604383" lon="11.2965367"><ele>501.0</ele><time>2026-04-20T10:36:38.908Z</time></trkpt><trkpt lat="43.5605517" lon="11.2964817"><ele>501.0</ele><time>2026-04-20T10:36:39.908Z</time></trkpt><trkpt lat="43.5606667" lon="11.29642"><ele>500.5</ele><time>2026-04-20T10:36:40.909Z</time></trkpt><trkpt lat="43.5607683" lon="11.29635"><ele>500.0</ele><time>2026-04-20T10:36:41.908Z</time></trkpt><trkpt lat="43.5608733" lon="11.2962833"><ele>499.5</ele><time>2026-04-20T10:36:42.909Z</time></trkpt><trkpt lat="43.5609817" lon="11.2962183"><ele>499.0</ele><time>2026-04-20T10:36:43.908Z</time></trkpt><trkpt lat="43.5610933" lon="11.296145"><ele>501.5</ele><time>2026-04-20T10:36:44.909Z</time></trkpt><trkpt lat="43.5612033" lon="11.296065"><ele>504.0</ele><time>2026-04-20T10:36:45.908Z</time></trkpt><trkpt lat="43.5613133" lon="11.2959733"><ele>506.5</ele><time>2026-04-20T10:36:46.908Z</time></trkpt><trkpt lat="43.5614217" lon="11.2958817"><ele>509.0</ele><time>2026-04-20T10:36:47.909Z</time></trkpt><trkpt lat="43.56152" lon="11.295775"><ele>509.0</ele><time>2026-04-20T10:36:48.908Z</time></trkpt><trkpt lat="43.5616183" lon="11.2956917"><ele>509.0</ele><time>2026-04-20T10:36:49.909Z</time></trkpt><trkpt lat="43.5617233" lon="11.295625"><ele>509.0</ele><time>2026-04-20T10:36:50.908Z</time></trkpt><trkpt lat="43.5618317" lon="11.29558"><ele>509.0</ele><time>2026-04-20T10:36:51.908Z</time></trkpt><trkpt lat="43.56194" lon="11.2955483"><ele>506.2</ele><time>2026-04-20T10:36:52.908Z</time></trkpt><trkpt lat="43.562045" lon="11.2955167"><ele>503.4</ele><time>2026-04-20T10:36:53.908Z</time></trkpt><trkpt lat="43.5621383" lon="11.2954783"><ele>500.6</ele><time>2026-04-20T10:36:54.909Z</time></trkpt><trkpt lat="43.5622083" lon="11.2954133"><ele>497.8</ele><time>2026-04-20T10:36:55.908Z</time></trkpt><trkpt lat="43.56226" lon="11.2953117"><ele>495.0</ele><time>2026-04-20T10:36:56.908Z</time></trkpt><trkpt lat="43.5622933" lon="11.2951933"><ele>495.0</ele><time>2026-04-20T10:36:57.908Z</time></trkpt><trkpt lat="43.5623033" lon="11.29506"><ele>495.0</ele><time>2026-04-20T10:36:58.908Z</time></trkpt><trkpt lat="43.5623117" lon="11.294935"><ele>495.0</ele><time>2026-04-20T10:36:59.908Z</time></trkpt><trkpt lat="43.5623217" lon="11.2948067"><ele>495.0</ele><time>2026-04-20T10:37:00.908Z</time></trkpt><trkpt lat="43.5623417" lon="11.2946717"><ele>495.0</ele><time>2026-04-20T10:37:01.909Z</time></trkpt><trkpt lat="43.5623667" lon="11.2945433"><ele>494.4</ele><time>2026-04-20T10:37:02.908Z</time></trkpt><trkpt lat="43.562395" lon="11.2944117"><ele>493.8</ele><time>2026-04-20T10:37:03.908Z</time></trkpt><trkpt lat="43.5624333" lon="11.294275"><ele>493.20000000000005</ele><time>2026-04-20T10:37:04.908Z</time></trkpt><trkpt lat="43.5624683" lon="11.2941417"><ele>492.6</ele><time>2026-04-20T10:37:05.909Z</time></trkpt><trkpt lat="43.562505" lon="11.2940083"><ele>492.0</ele><time>2026-04-20T10:37:06.908Z</time></trkpt><trkpt lat="43.56254" lon="11.2938817"><ele>491.20000000000005</ele><time>2026-04-20T10:37:07.909Z</time></trkpt><trkpt lat="43.56258" lon="11.29375"><ele>490.40000000000003</ele><time>2026-04-20T10:37:08.908Z</time></trkpt><trkpt lat="43.5626183" lon="11.2936217"><ele>489.59999999999997</ele><time>2026-04-20T10:37:09.908Z</time></trkpt><trkpt lat="43.562675" lon="11.2934917"><ele>488.79999999999995</ele><time>2026-04-20T10:37:10.908Z</time></trkpt><trkpt lat="43.562715" lon="11.2933733"><ele>488.0</ele><time>2026-04-20T10:37:11.908Z</time></trkpt><trkpt lat="43.56277" lon="11.293255"><ele>488.0</ele><time>2026-04-20T10:37:12.909Z</time></trkpt><trkpt lat="43.5628217" lon="11.2931317"><ele>487.99999999999994</ele><time>2026-04-20T10:37:13.908Z</time></trkpt><trkpt lat="43.56288" lon="11.2930133"><ele>487.99999999999994</ele><time>2026-04-20T10:37:14.908Z</time></trkpt><trkpt lat="43.5629467" lon="11.2928933"><ele>488.0</ele><time>2026-04-20T10:37:15.908Z</time></trkpt><trkpt lat="43.56302" lon="11.292775"><ele>488.0</ele><time>2026-04-20T10:37:16.908Z</time></trkpt><trkpt lat="43.5630933" lon="11.2926533"><ele>485.0</ele><time>2026-04-20T10:37:17.909Z</time></trkpt><trkpt lat="43.563175" lon="11.29254"><ele>482.0</ele><time>2026-04-20T10:37:18.908Z</time></trkpt><trkpt lat="43.5632667" lon="11.292425"><ele>479.0</ele><time>2026-04-20T10:37:19.909Z</time></trkpt><trkpt lat="43.5633683" lon="11.2923283"><ele>476.0</ele><time>2026-04-20T10:37:20.908Z</time></trkpt><trkpt lat="43.563475" lon="11.2922383"><ele>473.25</ele><time>2026-04-20T10:37:21.908Z</time></trkpt><trkpt lat="43.563585" lon="11.2921667"><ele>470.5</ele><time>2026-04-20T10:37:22.908Z</time></trkpt><trkpt lat="43.563695" lon="11.2921017"><ele>467.75</ele><time>2026-04-20T10:37:23.909Z</time></trkpt><trkpt lat="43.5638017" lon="11.2920467"><ele>465.0</ele><time>2026-04-20T10:37:24.909Z</time></trkpt><trkpt lat="43.5639083" lon="11.292015"><ele>464.6666666666667</ele><time>2026-04-20T10:37:25.909Z</time></trkpt><trkpt lat="43.564005" lon="11.2919883"><ele>464.33333333333337</ele><time>2026-04-20T10:37:26.908Z</time></trkpt><trkpt lat="43.5640967" lon="11.2919717"><ele>464.0</ele><time>2026-04-20T10:37:27.908Z</time></trkpt><trkpt lat="43.5641767" lon="11.291955"><ele>463.6666666666667</ele><time>2026-04-20T10:37:28.908Z</time></trkpt><trkpt lat="43.564255" lon="11.2919067"><ele>463.33333333333337</ele><time>2026-04-20T10:37:29.908Z</time></trkpt><trkpt lat="43.5643117" lon="11.2918133"><ele>463.0</ele><time>2026-04-20T10:37:30.908Z</time></trkpt><trkpt lat="43.5643467" lon="11.2917017"><ele>463.00000000000006</ele><time>2026-04-20T10:37:31.908Z</time></trkpt><trkpt lat="43.564345" lon="11.29159"><ele>463.0</ele><time>2026-04-20T10:37:32.908Z</time></trkpt><trkpt lat="43.56432" lon="11.2914783"><ele>463.0</ele><time>2026-04-20T10:37:33.908Z</time></trkpt><trkpt lat="43.5642833" lon="11.2913617"><ele>463.0</ele><time>2026-04-20T10:37:34.908Z</time></trkpt><trkpt lat="43.564265" lon="11.29126"><ele>463.00000000000006</ele><time>2026-04-20T10:37:35.908Z</time></trkpt><trkpt lat="43.56428" lon="11.291155"><ele>463.0</ele><time>2026-04-20T10:37:36.908Z</time></trkpt><trkpt lat="43.5643283" lon="11.29107"><ele>461.59999999999997</ele><time>2026-04-20T10:37:37.908Z</time></trkpt><trkpt lat="43.5644117" lon="11.2910083"><ele>460.19999999999993</ele><time>2026-04-20T10:37:38.909Z</time></trkpt><trkpt lat="43.5645033" lon="11.290945"><ele>458.8</ele><time>2026-04-20T10:37:39.908Z</time></trkpt><trkpt lat="43.5646033" lon="11.2908683"><ele>457.4</ele><time>2026-04-20T10:37:40.908Z</time></trkpt><trkpt lat="43.5646983" lon="11.2907883"><ele>456.0</ele><time>2026-04-20T10:37:41.908Z</time></trkpt><trkpt lat="43.5647883" lon="11.2907167"><ele>456.20000000000005</ele><time>2026-04-20T10:37:42.908Z</time></trkpt><trkpt lat="43.564885" lon="11.29064"><ele>456.40000000000003</ele><time>2026-04-20T10:37:43.908Z</time></trkpt><trkpt lat="43.5649683" lon="11.2905583"><ele>456.6</ele><time>2026-04-20T10:37:44.908Z</time></trkpt><trkpt lat="43.5650533" lon="11.290465"><ele>456.8</ele><time>2026-04-20T10:37:45.908Z</time></trkpt><trkpt lat="43.5651183" lon="11.2903733"><ele>457.0</ele><time>2026-04-20T10:37:46.909Z</time></trkpt><trkpt lat="43.5651767" lon="11.2902817"><ele>457.00000000000006</ele><time>2026-04-20T10:37:47.908Z</time></trkpt><trkpt lat="43.5652267" lon="11.290205"><ele>457.0</ele><time>2026-04-20T10:37:48.908Z</time></trkpt><trkpt lat="43.5652683" lon="11.2901367"><ele>457.0</ele><time>2026-04-20T10:37:49.909Z</time></trkpt><trkpt lat="43.5653667" lon="11.2900267"><ele>457.0</ele><time>2026-04-20T10:37:51.908Z</time></trkpt><trkpt lat="43.5654317" lon="11.2899967"><ele>457.00000000000006</ele><time>2026-04-20T10:37:52.909Z</time></trkpt><trkpt lat="43.565505" lon="11.2899867"><ele>457.0</ele><time>2026-04-20T10:37:53.908Z</time></trkpt><trkpt lat="43.5655917" lon="11.2900017"><ele>457.20000000000005</ele><time>2026-04-20T10:37:54.908Z</time></trkpt><trkpt lat="43.5656833" lon="11.2900167"><ele>457.40000000000003</ele><time>2026-04-20T10:37:55.908Z</time></trkpt><trkpt lat="43.5657683" lon="11.2900433"><ele>457.59999999999997</ele><time>2026-04-20T10:37:56.908Z</time></trkpt><trkpt lat="43.5658483" lon="11.29011"><ele>457.79999999999995</ele><time>2026-04-20T10:37:57.908Z</time></trkpt><trkpt lat="43.565925" lon="11.2901767"><ele>458.0</ele><time>2026-04-20T10:37:58.909Z</time></trkpt><trkpt lat="43.5660033" lon="11.290235"><ele>457.99999999999994</ele><time>2026-04-20T10:37:59.908Z</time></trkpt><trkpt lat="43.56608" lon="11.2902583"><ele>458.0</ele><time>2026-04-20T10:38:00.908Z</time></trkpt><trkpt lat="43.5661483" lon="11.29025"><ele>458.0</ele><time>2026-04-20T10:38:01.908Z</time></trkpt><trkpt lat="43.5662183" lon="11.2902117"><ele>458.0</ele><time>2026-04-20T10:38:02.909Z</time></trkpt><trkpt lat="43.566295" lon="11.2901717"><ele>457.99999999999994</ele><time>2026-04-20T10:38:03.908Z</time></trkpt><trkpt lat="43.5663783" lon="11.2901317"><ele>458.0</ele><time>2026-04-20T10:38:04.909Z</time></trkpt><trkpt lat="43.5664633" lon="11.290095"><ele>457.2</ele><time>2026-04-20T10:38:05.908Z</time></trkpt><trkpt lat="43.5665467" lon="11.29007"><ele>456.4</ele><time>2026-04-20T10:38:06.908Z</time></trkpt><trkpt lat="43.566635" lon="11.2900417"><ele>455.59999999999997</ele><time>2026-04-20T10:38:07.909Z</time></trkpt><trkpt lat="43.566735" lon="11.290025"><ele>454.79999999999995</ele><time>2026-04-20T10:38:08.908Z</time></trkpt><trkpt lat="43.5668317" lon="11.290025"><ele>454.0</ele><time>2026-04-20T10:38:09.908Z</time></trkpt><trkpt lat="43.5669217" lon="11.290025"><ele>454.0</ele><time>2026-04-20T10:38:10.908Z</time></trkpt><trkpt lat="43.5670117" lon="11.2900167"><ele>454.0</ele><time>2026-04-20T10:38:11.908Z</time></trkpt><trkpt lat="43.5670983" lon="11.2899967"><ele>454.0</ele><time>2026-04-20T10:38:12.908Z</time></trkpt><trkpt lat="43.5671817" lon="11.289955"><ele>454.0</ele><time>2026-04-20T10:38:13.908Z</time></trkpt><trkpt lat="43.56726" lon="11.2898867"><ele>454.0</ele><time>2026-04-20T10:38:14.908Z</time></trkpt><trkpt lat="43.56733" lon="11.2897867"><ele>453.5</ele><time>2026-04-20T10:38:15.908Z</time></trkpt><trkpt lat="43.5674" lon="11.2896583"><ele>453.0</ele><time>2026-04-20T10:38:16.908Z</time></trkpt><trkpt lat="43.5674667" lon="11.2895367"><ele>452.5</ele><time>2026-04-20T10:38:17.908Z</time></trkpt><trkpt lat="43.5675433" lon="11.289415"><ele>452.0</ele><time>2026-04-20T10:38:18.909Z</time></trkpt><trkpt lat="43.5676267" lon="11.2892983"><ele>452.0</ele><time>2026-04-20T10:38:19.909Z</time></trkpt><trkpt lat="43.5677033" lon="11.2891717"><ele>452.0</ele><time>2026-04-20T10:38:20.908Z</time></trkpt><trkpt lat="43.5677783" lon="11.289035"><ele>452.0</ele><time>2026-04-20T10:38:21.908Z</time></trkpt><trkpt lat="43.5678533" lon="11.28888"><ele>452.0</ele><time>2026-04-20T10:38:22.908Z</time></trkpt><trkpt lat="43.5679133" lon="11.2887233"><ele>452.0</ele><time>2026-04-20T10:38:23.908Z</time></trkpt><trkpt lat="43.5679633" lon="11.2885683"><ele>452.0</ele><time>2026-04-20T10:38:24.908Z</time></trkpt><trkpt lat="43.5680117" lon="11.2884283"><ele>452.0</ele><time>2026-04-20T10:38:25.908Z</time></trkpt><trkpt lat="43.5680583" lon="11.2882883"><ele>452.0</ele><time>2026-04-20T10:38:26.908Z</time></trkpt><trkpt lat="43.5681167" lon="11.288155"><ele>449.8</ele><time>2026-04-20T10:38:27.908Z</time></trkpt><trkpt lat="43.5681833" lon="11.2880333"><ele>447.6</ele><time>2026-04-20T10:38:28.909Z</time></trkpt><trkpt lat="43.568255" lon="11.2879183"><ele>445.40000000000003</ele><time>2026-04-20T10:38:29.908Z</time></trkpt><trkpt lat="43.5683233" lon="11.2878133"><ele>443.20000000000005</ele><time>2026-04-20T10:38:30.908Z</time></trkpt><trkpt lat="43.5683883" lon="11.2876983"><ele>441.0</ele><time>2026-04-20T10:38:31.909Z</time></trkpt><trkpt lat="43.5684467" lon="11.2875783"><ele>441.0</ele><time>2026-04-20T10:38:32.908Z</time></trkpt><trkpt lat="43.5685067" lon="11.287455"><ele>441.0</ele><time>2026-04-20T10:38:33.908Z</time></trkpt><trkpt lat="43.5685733" lon="11.2873367"><ele>441.0</ele><time>2026-04-20T10:38:34.908Z</time></trkpt><trkpt lat="43.5686467" lon="11.28723"><ele>441.0</ele><time>2026-04-20T10:38:35.908Z</time></trkpt><trkpt lat="43.5687317" lon="11.287135"><ele>441.0</ele><time>2026-04-20T10:38:36.909Z</time></trkpt><trkpt lat="43.5688283" lon="11.287055"><ele>438.8</ele><time>2026-04-20T10:38:37.908Z</time></trkpt><trkpt lat="43.568925" lon="11.28699"><ele>436.6</ele><time>2026-04-20T10:38:38.908Z</time></trkpt><trkpt lat="43.5690167" lon="11.2869217"><ele>434.4</ele><time>2026-04-20T10:38:39.908Z</time></trkpt><trkpt lat="43.5691" lon="11.286845"><ele>432.2</ele><time>2026-04-20T10:38:40.908Z</time></trkpt><trkpt lat="43.5691717" lon="11.286775"><ele>430.0</ele><time>2026-04-20T10:38:41.908Z</time></trkpt><trkpt lat="43.569235" lon="11.28671"><ele>430.00000000000006</ele><time>2026-04-20T10:38:42.908Z</time></trkpt><trkpt lat="43.569295" lon="11.2866367"><ele>430.0</ele><time>2026-04-20T10:38:43.908Z</time></trkpt><trkpt lat="43.5693283" lon="11.2865367"><ele>430.0</ele><time>2026-04-20T10:38:44.908Z</time></trkpt><trkpt lat="43.569345" lon="11.28642"><ele>430.0</ele><time>2026-04-20T10:38:45.908Z</time></trkpt><trkpt lat="43.5693467" lon="11.2863067"><ele>430.00000000000006</ele><time>2026-04-20T10:38:46.908Z</time></trkpt><trkpt lat="43.5693317" lon="11.2861833"><ele>430.0</ele><time>2026-04-20T10:38:47.908Z</time></trkpt><trkpt lat="43.5693117" lon="11.2860617"><ele>428.8</ele><time>2026-04-20T10:38:48.909Z</time></trkpt><trkpt lat="43.5692983" lon="11.285935"><ele>427.6</ele><time>2026-04-20T10:38:49.908Z</time></trkpt><trkpt lat="43.5692867" lon="11.285795"><ele>426.4</ele><time>2026-04-20T10:38:50.908Z</time></trkpt><trkpt lat="43.569285" lon="11.2856617"><ele>425.2</ele><time>2026-04-20T10:38:51.908Z</time></trkpt><trkpt lat="43.5693017" lon="11.2855133"><ele>424.0</ele><time>2026-04-20T10:38:52.908Z</time></trkpt><trkpt lat="43.56933" lon="11.285365"><ele>423.6</ele><time>2026-04-20T10:38:53.908Z</time></trkpt><trkpt lat="43.5693717" lon="11.28523"><ele>423.2</ele><time>2026-04-20T10:38:54.908Z</time></trkpt><trkpt lat="43.5694217" lon="11.285105"><ele>422.8</ele><time>2026-04-20T10:38:55.909Z</time></trkpt><trkpt lat="43.5694867" lon="11.285005"><ele>422.40000000000003</ele><time>2026-04-20T10:38:56.908Z</time></trkpt><trkpt lat="43.56955" lon="11.2849183"><ele>422.0</ele><time>2026-04-20T10:38:57.909Z</time></trkpt><trkpt lat="43.5696183" lon="11.28484"><ele>422.0</ele><time>2026-04-20T10:38:58.909Z</time></trkpt><trkpt lat="43.5696933" lon="11.2847633"><ele>422.0</ele><time>2026-04-20T10:38:59.908Z</time></trkpt><trkpt lat="43.569775" lon="11.28469"><ele>422.0</ele><time>2026-04-20T10:39:00.908Z</time></trkpt><trkpt lat="43.569855" lon="11.284615"><ele>422.0</ele><time>2026-04-20T10:39:01.908Z</time></trkpt><trkpt lat="43.5699483" lon="11.2845367"><ele>422.0</ele><time>2026-04-20T10:39:02.908Z</time></trkpt><trkpt lat="43.570045" lon="11.2844733"><ele>424.40000000000003</ele><time>2026-04-20T10:39:03.908Z</time></trkpt><trkpt lat="43.5701433" lon="11.284405"><ele>426.8</ele><time>2026-04-20T10:39:04.909Z</time></trkpt><trkpt lat="43.570245" lon="11.28434"><ele>429.2</ele><time>2026-04-20T10:39:05.908Z</time></trkpt><trkpt lat="43.57034" lon="11.2842833"><ele>431.6</ele><time>2026-04-20T10:39:06.908Z</time></trkpt><trkpt lat="43.5704417" lon="11.2842117"><ele>434.0</ele><time>2026-04-20T10:39:07.908Z</time></trkpt><trkpt lat="43.5705283" lon="11.2841367"><ele>435.2</ele><time>2026-04-20T10:39:08.908Z</time></trkpt><trkpt lat="43.5705967" lon="11.2840483"><ele>436.4</ele><time>2026-04-20T10:39:09.908Z</time></trkpt><trkpt lat="43.5706383" lon="11.283935"><ele>437.6</ele><time>2026-04-20T10:39:10.908Z</time></trkpt><trkpt lat="43.5706767" lon="11.2838117"><ele>438.8</ele><time>2026-04-20T10:39:11.908Z</time></trkpt><trkpt lat="43.5707283" lon="11.2836783"><ele>440.0</ele><time>2026-04-20T10:39:12.908Z</time></trkpt><trkpt lat="43.5707867" lon="11.28354"><ele>442.0</ele><time>2026-04-20T10:39:13.909Z</time></trkpt><trkpt lat="43.5708617" lon="11.283395"><ele>444.0</ele><time>2026-04-20T10:39:14.909Z</time></trkpt><trkpt lat="43.5709383" lon="11.28325"><ele>446.0</ele><time>2026-04-20T10:39:15.908Z</time></trkpt><trkpt lat="43.571005" lon="11.2831133"><ele>448.0</ele><time>2026-04-20T10:39:16.908Z</time></trkpt><trkpt lat="43.5710783" lon="11.2829817"><ele>448.25</ele><time>2026-04-20T10:39:17.908Z</time></trkpt><trkpt lat="43.5711533" lon="11.282845"><ele>448.5</ele><time>2026-04-20T10:39:18.909Z</time></trkpt><trkpt lat="43.5712117" lon="11.2827"><ele>448.75</ele><time>2026-04-20T10:39:19.909Z</time></trkpt><trkpt lat="43.571275" lon="11.28257"><ele>449.0</ele><time>2026-04-20T10:39:20.908Z</time></trkpt><trkpt lat="43.571335" lon="11.2824433"><ele>449.0</ele><time>2026-04-20T10:39:21.908Z</time></trkpt><trkpt lat="43.5714083" lon="11.2823117"><ele>449.0</ele><time>2026-04-20T10:39:22.908Z</time></trkpt><trkpt lat="43.57148" lon="11.2821833"><ele>449.0</ele><time>2026-04-20T10:39:23.908Z</time></trkpt><trkpt lat="43.57152" lon="11.2820317"><ele>449.0</ele><time>2026-04-20T10:39:24.908Z</time></trkpt><trkpt lat="43.5715367" lon="11.2818617"><ele>450.79999999999995</ele><time>2026-04-20T10:39:25.908Z</time></trkpt><trkpt lat="43.5715333" lon="11.2817033"><ele>452.59999999999997</ele><time>2026-04-20T10:39:26.908Z</time></trkpt><trkpt lat="43.5715" lon="11.281565"><ele>454.4</ele><time>2026-04-20T10:39:27.908Z</time></trkpt><trkpt lat="43.57144" lon="11.2814517"><ele>456.2</ele><time>2026-04-20T10:39:28.909Z</time></trkpt><trkpt lat="43.571355" lon="11.28135"><ele>458.0</ele><time>2026-04-20T10:39:29.909Z</time></trkpt><trkpt lat="43.5712433" lon="11.281275"><ele>460.25</ele><time>2026-04-20T10:39:30.908Z</time></trkpt><trkpt lat="43.5711267" lon="11.281215"><ele>462.5</ele><time>2026-04-20T10:39:31.908Z</time></trkpt><trkpt lat="43.5710083" lon="11.2811533"><ele>464.75</ele><time>2026-04-20T10:39:32.908Z</time></trkpt><trkpt lat="43.5709017" lon="11.28108"><ele>467.0</ele><time>2026-04-20T10:39:33.908Z</time></trkpt><trkpt lat="43.5708083" lon="11.2810133"><ele>467.0</ele><time>2026-04-20T10:39:34.909Z</time></trkpt><trkpt lat="43.5707317" lon="11.2809367"><ele>467.00000000000006</ele><time>2026-04-20T10:39:35.908Z</time></trkpt><trkpt lat="43.5706717" lon="11.28085"><ele>467.00000000000006</ele><time>2026-04-20T10:39:36.909Z</time></trkpt><trkpt lat="43.57063" lon="11.280745"><ele>467.0</ele><time>2026-04-20T10:39:37.908Z</time></trkpt><trkpt lat="43.5706" lon="11.2806233"><ele>467.0</ele><time>2026-04-20T10:39:38.909Z</time></trkpt><trkpt lat="43.57058" lon="11.2804933"><ele>468.40000000000003</ele><time>2026-04-20T10:39:39.908Z</time></trkpt><trkpt lat="43.5705767" lon="11.280375"><ele>469.80000000000007</ele><time>2026-04-20T10:39:40.908Z</time></trkpt><trkpt lat="43.5705833" lon="11.2802567"><ele>471.2</ele><time>2026-04-20T10:39:41.908Z</time></trkpt><trkpt lat="43.570605" lon="11.2801517"><ele>472.6</ele><time>2026-04-20T10:39:42.909Z</time></trkpt><trkpt lat="43.5707167" lon="11.2800783"><ele>474.0</ele><time>2026-04-20T10:39:44.908Z</time></trkpt><trkpt lat="43.57079" lon="11.280105"><ele>474.0</ele><time>2026-04-20T10:39:45.908Z</time></trkpt><trkpt lat="43.570885" lon="11.280165"><ele>474.0</ele><time>2026-04-20T10:39:46.908Z</time></trkpt><trkpt lat="43.570985" lon="11.2802183"><ele>474.0</ele><time>2026-04-20T10:39:47.908Z</time></trkpt><trkpt lat="43.5710817" lon="11.28027"><ele>474.0</ele><time>2026-04-20T10:39:48.908Z</time></trkpt><trkpt lat="43.571175" lon="11.280305"><ele>474.0</ele><time>2026-04-20T10:39:49.908Z</time></trkpt><trkpt lat="43.5712683" lon="11.28031"><ele>477.25</ele><time>2026-04-20T10:39:50.908Z</time></trkpt><trkpt lat="43.5713717" lon="11.280285"><ele>480.5</ele><time>2026-04-20T10:39:51.908Z</time></trkpt><trkpt lat="43.571495" lon="11.280255"><ele>483.75</ele><time>2026-04-20T10:39:52.909Z</time></trkpt><trkpt lat="43.5716283" lon="11.2802183"><ele>487.0</ele><time>2026-04-20T10:39:53.909Z</time></trkpt><trkpt lat="43.5717583" lon="11.280185"><ele>487.0</ele><time>2026-04-20T10:39:54.908Z</time></trkpt><trkpt lat="43.5718733" lon="11.2801483"><ele>487.0</ele><time>2026-04-20T10:39:55.908Z</time></trkpt><trkpt lat="43.5719833" lon="11.2800833"><ele>487.0</ele><time>2026-04-20T10:39:56.908Z</time></trkpt><trkpt lat="43.5720717" lon="11.279995"><ele>487.0</ele><time>2026-04-20T10:39:57.908Z</time></trkpt><trkpt lat="43.5721467" lon="11.27988"><ele>489.20000000000005</ele><time>2026-04-20T10:39:58.908Z</time></trkpt><trkpt lat="43.5722117" lon="11.2797567"><ele>491.40000000000003</ele><time>2026-04-20T10:39:59.908Z</time></trkpt><trkpt lat="43.5722533" lon="11.2796133"><ele>493.59999999999997</ele><time>2026-04-20T10:40:00.908Z</time></trkpt><trkpt lat="43.572295" lon="11.2794733"><ele>495.79999999999995</ele><time>2026-04-20T10:40:01.909Z</time></trkpt><trkpt lat="43.57233" lon="11.2793333"><ele>498.0</ele><time>2026-04-20T10:40:02.909Z</time></trkpt><trkpt lat="43.57238" lon="11.279195"><ele>498.0</ele><time>2026-04-20T10:40:03.909Z</time></trkpt><trkpt lat="43.5724433" lon="11.279075"><ele>498.0</ele><time>2026-04-20T10:40:04.908Z</time></trkpt><trkpt lat="43.5725167" lon="11.2789633"><ele>498.0</ele><time>2026-04-20T10:40:05.908Z</time></trkpt><trkpt lat="43.5725983" lon="11.2788517"><ele>498.0</ele><time>2026-04-20T10:40:06.908Z</time></trkpt><trkpt lat="43.5726867" lon="11.2787367"><ele>498.5</ele><time>2026-04-20T10:40:07.908Z</time></trkpt><trkpt lat="43.5727783" lon="11.27863"><ele>499.0</ele><time>2026-04-20T10:40:08.908Z</time></trkpt><trkpt lat="43.5728817" lon="11.2785217"><ele>499.5</ele><time>2026-04-20T10:40:09.908Z</time></trkpt><trkpt lat="43.5729933" lon="11.27842"><ele>500.0</ele><time>2026-04-20T10:40:10.908Z</time></trkpt><trkpt lat="43.5731083" lon="11.2783283"><ele>501.5</ele><time>2026-04-20T10:40:11.908Z</time></trkpt><trkpt lat="43.573225" lon="11.2782517"><ele>503.0</ele><time>2026-04-20T10:40:12.908Z</time></trkpt><trkpt lat="43.5733367" lon="11.2781683"><ele>504.5</ele><time>2026-04-20T10:40:13.908Z</time></trkpt><trkpt lat="43.57345" lon="11.278065"><ele>506.0</ele><time>2026-04-20T10:40:14.908Z</time></trkpt><trkpt lat="43.5735583" lon="11.2779383"><ele>506.0</ele><time>2026-04-20T10:40:15.908Z</time></trkpt><trkpt lat="43.5736517" lon="11.2778033"><ele>506.0</ele><time>2026-04-20T10:40:16.908Z</time></trkpt><trkpt lat="43.5737417" lon="11.2776817"><ele>506.0</ele><time>2026-04-20T10:40:17.909Z</time></trkpt><trkpt lat="43.5738267" lon="11.27756"><ele>506.0</ele><time>2026-04-20T10:40:18.908Z</time></trkpt><trkpt lat="43.57391" lon="11.277455"><ele>507.6</ele><time>2026-04-20T10:40:19.908Z</time></trkpt><trkpt lat="43.5739783" lon="11.2773567"><ele>509.20000000000005</ele><time>2026-04-20T10:40:20.909Z</time></trkpt><trkpt lat="43.5740467" lon="11.2772767"><ele>510.79999999999995</ele><time>2026-04-20T10:40:21.908Z</time></trkpt><trkpt lat="43.5741183" lon="11.2772"><ele>512.4</ele><time>2026-04-20T10:40:22.908Z</time></trkpt><trkpt lat="43.5742017" lon="11.27713"><ele>514.0</ele><time>2026-04-20T10:40:23.908Z</time></trkpt><trkpt lat="43.5742933" lon="11.2770583"><ele>514.0</ele><time>2026-04-20T10:40:24.909Z</time></trkpt><trkpt lat="43.5743833" lon="11.2769867"><ele>514.0</ele><time>2026-04-20T10:40:25.908Z</time></trkpt><trkpt lat="43.5744733" lon="11.2769183"><ele>514.0</ele><time>2026-04-20T10:40:26.908Z</time></trkpt><trkpt lat="43.5745667" lon="11.276855"><ele>514.0</ele><time>2026-04-20T10:40:27.908Z</time></trkpt><trkpt lat="43.574665" lon="11.2767917"><ele>514.0</ele><time>2026-04-20T10:40:28.909Z</time></trkpt><trkpt lat="43.574765" lon="11.27673"><ele>515.0</ele><time>2026-04-20T10:40:29.908Z</time></trkpt><trkpt lat="43.5748517" lon="11.2766633"><ele>516.0</ele><time>2026-04-20T10:40:30.908Z</time></trkpt><trkpt lat="43.574955" lon="11.27661"><ele>517.0</ele><time>2026-04-20T10:40:31.909Z</time></trkpt><trkpt lat="43.5750583" lon="11.2765533"><ele>518.0</ele><time>2026-04-20T10:40:32.908Z</time></trkpt><trkpt lat="43.5751583" lon="11.2765017"><ele>519.0</ele><time>2026-04-20T10:40:33.908Z</time></trkpt><trkpt lat="43.575265" lon="11.2764383"><ele>521.5</ele><time>2026-04-20T10:40:34.909Z</time></trkpt><trkpt lat="43.5753733" lon="11.2763783"><ele>524.0</ele><time>2026-04-20T10:40:35.908Z</time></trkpt><trkpt lat="43.5754783" lon="11.2763117"><ele>526.5</ele><time>2026-04-20T10:40:36.908Z</time></trkpt><trkpt lat="43.5755933" lon="11.276245"><ele>529.0</ele><time>2026-04-20T10:40:37.908Z</time></trkpt><trkpt lat="43.575695" lon="11.276185"><ele>529.0</ele><time>2026-04-20T10:40:38.909Z</time></trkpt><trkpt lat="43.57578" lon="11.2761283"><ele>529.0</ele><time>2026-04-20T10:40:39.908Z</time></trkpt><trkpt lat="43.57587" lon="11.2760883"><ele>529.0</ele><time>2026-04-20T10:40:40.908Z</time></trkpt><trkpt lat="43.575955" lon="11.2760333"><ele>529.0</ele><time>2026-04-20T10:40:41.908Z</time></trkpt><trkpt lat="43.5760383" lon="11.2759783"><ele>529.0</ele><time>2026-04-20T10:40:42.908Z</time></trkpt><trkpt lat="43.576125" lon="11.2759167"><ele>528.4</ele><time>2026-04-20T10:40:43.909Z</time></trkpt><trkpt lat="43.576225" lon="11.2758567"><ele>527.8</ele><time>2026-04-20T10:40:44.908Z</time></trkpt><trkpt lat="43.5763133" lon="11.2757867"><ele>527.2</ele><time>2026-04-20T10:40:45.909Z</time></trkpt><trkpt lat="43.5764" lon="11.275725"><ele>526.6</ele><time>2026-04-20T10:40:46.908Z</time></trkpt><trkpt lat="43.576485" lon="11.2756533"><ele>526.0</ele><time>2026-04-20T10:40:47.908Z</time></trkpt><trkpt lat="43.5765617" lon="11.27559"><ele>526.0</ele><time>2026-04-20T10:40:48.908Z</time></trkpt><trkpt lat="43.576645" lon="11.27552"><ele>526.0</ele><time>2026-04-20T10:40:49.909Z</time></trkpt><trkpt lat="43.5767283" lon="11.2754433"><ele>526.0</ele><time>2026-04-20T10:40:50.908Z</time></trkpt><trkpt lat="43.576815" lon="11.2753817"><ele>526.0</ele><time>2026-04-20T10:40:51.907Z</time></trkpt><trkpt lat="43.5768917" lon="11.2753133"><ele>526.0</ele><time>2026-04-20T10:40:52.907Z</time></trkpt><trkpt lat="43.5769617" lon="11.275235"><ele>523.0</ele><time>2026-04-20T10:40:53.907Z</time></trkpt><trkpt lat="43.577025" lon="11.27517"><ele>520.0</ele><time>2026-04-20T10:40:54.907Z</time></trkpt><trkpt lat="43.5771" lon="11.2750983"><ele>517.0</ele><time>2026-04-20T10:40:55.907Z</time></trkpt><trkpt lat="43.5771783" lon="11.27503"><ele>514.0</ele><time>2026-04-20T10:40:56.908Z</time></trkpt><trkpt lat="43.577255" lon="11.2749517"><ele>511.0</ele><time>2026-04-20T10:40:57.908Z</time></trkpt><trkpt lat="43.577335" lon="11.2748883"><ele>511.0</ele><time>2026-04-20T10:40:58.907Z</time></trkpt><trkpt lat="43.5774183" lon="11.2748067"><ele>511.0</ele><time>2026-04-20T10:40:59.907Z</time></trkpt><trkpt lat="43.5775" lon="11.2747317"><ele>511.0</ele><time>2026-04-20T10:41:00.907Z</time></trkpt><trkpt lat="43.57758" lon="11.27464"><ele>511.0</ele><time>2026-04-20T10:41:01.907Z</time></trkpt><trkpt lat="43.5776533" lon="11.27455"><ele>511.0</ele><time>2026-04-20T10:41:02.908Z</time></trkpt><trkpt lat="43.577735" lon="11.27446"><ele>510.6</ele><time>2026-04-20T10:41:03.907Z</time></trkpt><trkpt lat="43.5778083" lon="11.2743583"><ele>510.20000000000005</ele><time>2026-04-20T10:41:04.907Z</time></trkpt><trkpt lat="43.5778883" lon="11.2742467"><ele>509.79999999999995</ele><time>2026-04-20T10:41:05.907Z</time></trkpt><trkpt lat="43.577965" lon="11.274145"><ele>509.4</ele><time>2026-04-20T10:41:06.907Z</time></trkpt><trkpt lat="43.5780367" lon="11.2740483"><ele>509.0</ele><time>2026-04-20T10:41:07.907Z</time></trkpt><trkpt lat="43.57811" lon="11.2739667"><ele>505.99999999999994</ele><time>2026-04-20T10:41:08.907Z</time></trkpt><trkpt lat="43.578195" lon="11.2739117"><ele>503.0</ele><time>2026-04-20T10:41:09.907Z</time></trkpt><trkpt lat="43.5782817" lon="11.2738833"><ele>500.0</ele><time>2026-04-20T10:41:10.907Z</time></trkpt><trkpt lat="43.57837" lon="11.2738683"><ele>497.0</ele><time>2026-04-20T10:41:11.907Z</time></trkpt><trkpt lat="43.578455" lon="11.27386"><ele>493.99999999999994</ele><time>2026-04-20T10:41:12.908Z</time></trkpt><trkpt lat="43.5785367" lon="11.2738533"><ele>491.0</ele><time>2026-04-20T10:41:13.907Z</time></trkpt><trkpt lat="43.578615" lon="11.2738333"><ele>490.99999999999994</ele><time>2026-04-20T10:41:14.907Z</time></trkpt><trkpt lat="43.5786867" lon="11.2738183"><ele>491.0</ele><time>2026-04-20T10:41:15.907Z</time></trkpt><trkpt lat="43.5787533" lon="11.2738033"><ele>491.0</ele><time>2026-04-20T10:41:16.908Z</time></trkpt><trkpt lat="43.578815" lon="11.273775"><ele>491.0</ele><time>2026-04-20T10:41:17.907Z</time></trkpt><trkpt lat="43.5788883" lon="11.2736967"><ele>490.99999999999994</ele><time>2026-04-20T10:41:19.907Z</time></trkpt><trkpt lat="43.5789267" lon="11.2735417"><ele>491.0</ele><time>2026-04-20T10:41:21.908Z</time></trkpt><trkpt lat="43.5789367" lon="11.27345"><ele>490.99999999999994</ele><time>2026-04-20T10:41:22.907Z</time></trkpt><trkpt lat="43.5789633" lon="11.2733667"><ele>491.0</ele><time>2026-04-20T10:41:23.908Z</time></trkpt><trkpt lat="43.579005" lon="11.273285"><ele>491.0</ele><time>2026-04-20T10:41:24.908Z</time></trkpt><trkpt lat="43.579065" lon="11.27322"><ele>491.0</ele><time>2026-04-20T10:41:25.907Z</time></trkpt><trkpt lat="43.579135" lon="11.2731583"><ele>490.99999999999994</ele><time>2026-04-20T10:41:26.907Z</time></trkpt><trkpt lat="43.579205" lon="11.2731017"><ele>491.0</ele><time>2026-04-20T10:41:27.908Z</time></trkpt><trkpt lat="43.57928" lon="11.2730483"><ele>488.6</ele><time>2026-04-20T10:41:28.907Z</time></trkpt><trkpt lat="43.579355" lon="11.27299"><ele>486.20000000000005</ele><time>2026-04-20T10:41:29.907Z</time></trkpt><trkpt lat="43.5794367" lon="11.2729333"><ele>483.79999999999995</ele><time>2026-04-20T10:41:30.907Z</time></trkpt><trkpt lat="43.5795133" lon="11.272875"><ele>481.4</ele><time>2026-04-20T10:41:31.908Z</time></trkpt><trkpt lat="43.57959" lon="11.2728017"><ele>479.0</ele><time>2026-04-20T10:41:32.908Z</time></trkpt><trkpt lat="43.5796667" lon="11.27273"><ele>479.0</ele><time>2026-04-20T10:41:33.908Z</time></trkpt><trkpt lat="43.5797383" lon="11.272655"><ele>479.0</ele><time>2026-04-20T10:41:34.907Z</time></trkpt><trkpt lat="43.5798067" lon="11.2725683"><ele>479.0</ele><time>2026-04-20T10:41:35.908Z</time></trkpt><trkpt lat="43.5798833" lon="11.27249"><ele>479.0</ele><time>2026-04-20T10:41:36.908Z</time></trkpt><trkpt lat="43.5799617" lon="11.2724183"><ele>479.0</ele><time>2026-04-20T10:41:37.907Z</time></trkpt><trkpt lat="43.5800317" lon="11.2723367"><ele>478.2</ele><time>2026-04-20T10:41:38.907Z</time></trkpt><trkpt lat="43.5800983" lon="11.2722633"><ele>477.4</ele><time>2026-04-20T10:41:39.908Z</time></trkpt><trkpt lat="43.580165" lon="11.2721833"><ele>476.6</ele><time>2026-04-20T10:41:40.908Z</time></trkpt><trkpt lat="43.5802333" lon="11.2720967"><ele>475.8</ele><time>2026-04-20T10:41:41.907Z</time></trkpt><trkpt lat="43.5803" lon="11.2720067"><ele>475.0</ele><time>2026-04-20T10:41:42.908Z</time></trkpt><trkpt lat="43.5803617" lon="11.2719067"><ele>475.00000000000006</ele><time>2026-04-20T10:41:43.907Z</time></trkpt><trkpt lat="43.5804183" lon="11.27181"><ele>475.0</ele><time>2026-04-20T10:41:44.907Z</time></trkpt><trkpt lat="43.5804683" lon="11.271715"><ele>475.0</ele><time>2026-04-20T10:41:45.907Z</time></trkpt><trkpt lat="43.5805183" lon="11.271615"><ele>475.0</ele><time>2026-04-20T10:41:46.907Z</time></trkpt><trkpt lat="43.58056" lon="11.2715117"><ele>475.00000000000006</ele><time>2026-04-20T10:41:47.907Z</time></trkpt><trkpt lat="43.580585" lon="11.27139"><ele>475.0</ele><time>2026-04-20T10:41:48.907Z</time></trkpt><trkpt lat="43.5806" lon="11.2712733"><ele>473.33333333333337</ele><time>2026-04-20T10:41:49.907Z</time></trkpt><trkpt lat="43.5806067" lon="11.2711533"><ele>471.6666666666667</ele><time>2026-04-20T10:41:50.907Z</time></trkpt><trkpt lat="43.5806117" lon="11.2710317"><ele>470.0</ele><time>2026-04-20T10:41:51.907Z</time></trkpt><trkpt lat="43.5806133" lon="11.2709083"><ele>468.33333333333337</ele><time>2026-04-20T10:41:52.907Z</time></trkpt><trkpt lat="43.5806183" lon="11.2707983"><ele>466.6666666666667</ele><time>2026-04-20T10:41:53.908Z</time></trkpt><trkpt lat="43.5806333" lon="11.2706867"><ele>465.0</ele><time>2026-04-20T10:41:54.908Z</time></trkpt><trkpt lat="43.5806617" lon="11.2705683"><ele>461.6</ele><time>2026-04-20T10:41:55.908Z</time></trkpt><trkpt lat="43.5806933" lon="11.2704517"><ele>458.2</ele><time>2026-04-20T10:41:56.907Z</time></trkpt><trkpt lat="43.5807417" lon="11.2703333"><ele>454.79999999999995</ele><time>2026-04-20T10:41:57.907Z</time></trkpt><trkpt lat="43.5808" lon="11.27023"><ele>451.4</ele><time>2026-04-20T10:41:58.907Z</time></trkpt><trkpt lat="43.5808633" lon="11.2701333"><ele>448.0</ele><time>2026-04-20T10:41:59.907Z</time></trkpt><trkpt lat="43.5809317" lon="11.2700517"><ele>448.00000000000006</ele><time>2026-04-20T10:42:00.907Z</time></trkpt><trkpt lat="43.5809967" lon="11.2699783"><ele>448.0</ele><time>2026-04-20T10:42:01.907Z</time></trkpt><trkpt lat="43.58106" lon="11.2699"><ele>448.0</ele><time>2026-04-20T10:42:02.907Z</time></trkpt><trkpt lat="43.5811133" lon="11.2698033"><ele>448.0</ele><time>2026-04-20T10:42:03.907Z</time></trkpt><trkpt lat="43.5811567" lon="11.2696883"><ele>448.00000000000006</ele><time>2026-04-20T10:42:04.907Z</time></trkpt><trkpt lat="43.5811967" lon="11.2695733"><ele>448.0</ele><time>2026-04-20T10:42:05.907Z</time></trkpt><trkpt lat="43.581235" lon="11.269455"><ele>447.50000000000006</ele><time>2026-04-20T10:42:06.907Z</time></trkpt><trkpt lat="43.5812767" lon="11.2693533"><ele>447.0</ele><time>2026-04-20T10:42:07.908Z</time></trkpt><trkpt lat="43.5813267" lon="11.269265"><ele>446.5</ele><time>2026-04-20T10:42:08.907Z</time></trkpt><trkpt lat="43.5814017" lon="11.2691883"><ele>446.0</ele><time>2026-04-20T10:42:09.907Z</time></trkpt><trkpt lat="43.5814733" lon="11.2691217"><ele>445.50000000000006</ele><time>2026-04-20T10:42:10.907Z</time></trkpt><trkpt lat="43.5815533" lon="11.26906"><ele>445.0</ele><time>2026-04-20T10:42:11.907Z</time></trkpt><trkpt lat="43.5816283" lon="11.269"><ele>442.33333333333337</ele><time>2026-04-20T10:42:12.908Z</time></trkpt><trkpt lat="43.5817033" lon="11.2689367"><ele>439.6666666666667</ele><time>2026-04-20T10:42:13.908Z</time></trkpt><trkpt lat="43.5817667" lon="11.268875"><ele>437.0</ele><time>2026-04-20T10:42:14.907Z</time></trkpt><trkpt lat="43.581825" lon="11.2688067"><ele>434.33333333333337</ele><time>2026-04-20T10:42:15.907Z</time></trkpt><trkpt lat="43.5818733" lon="11.2687217"><ele>431.6666666666667</ele><time>2026-04-20T10:42:16.907Z</time></trkpt><trkpt lat="43.5819183" lon="11.2686183"><ele>429.0</ele><time>2026-04-20T10:42:17.908Z</time></trkpt><trkpt lat="43.5819583" lon="11.2684867"><ele>429.0</ele><time>2026-04-20T10:42:18.907Z</time></trkpt><trkpt lat="43.582" lon="11.2683483"><ele>429.0</ele><time>2026-04-20T10:42:19.907Z</time></trkpt><trkpt lat="43.5820417" lon="11.2682167"><ele>429.0</ele><time>2026-04-20T10:42:20.908Z</time></trkpt><trkpt lat="43.58209" lon="11.26809"><ele>429.0</ele><time>2026-04-20T10:42:21.907Z</time></trkpt><trkpt lat="43.582135" lon="11.2679667"><ele>429.0</ele><time>2026-04-20T10:42:22.907Z</time></trkpt><trkpt lat="43.5821667" lon="11.2678383"><ele>430.0</ele><time>2026-04-20T10:42:23.908Z</time></trkpt><trkpt lat="43.582195" lon="11.26771"><ele>431.0</ele><time>2026-04-20T10:42:24.907Z</time></trkpt><trkpt lat="43.5822217" lon="11.26758"><ele>432.0</ele><time>2026-04-20T10:42:25.907Z</time></trkpt><trkpt lat="43.58225" lon="11.2674533"><ele>433.0</ele><time>2026-04-20T10:42:26.907Z</time></trkpt><trkpt lat="43.5822767" lon="11.2673333"><ele>434.0</ele><time>2026-04-20T10:42:27.907Z</time></trkpt><trkpt lat="43.5823033" lon="11.2672117"><ele>434.0</ele><time>2026-04-20T10:42:28.907Z</time></trkpt><trkpt lat="43.58233" lon="11.2670917"><ele>434.0</ele><time>2026-04-20T10:42:29.907Z</time></trkpt><trkpt lat="43.58236" lon="11.26697"><ele>434.0</ele><time>2026-04-20T10:42:30.907Z</time></trkpt><trkpt lat="43.58239" lon="11.26685"><ele>434.0</ele><time>2026-04-20T10:42:31.907Z</time></trkpt><trkpt lat="43.58242" lon="11.2667317"><ele>434.0</ele><time>2026-04-20T10:42:32.907Z</time></trkpt><trkpt lat="43.582445" lon="11.26661"><ele>434.0</ele><time>2026-04-20T10:42:33.907Z</time></trkpt><trkpt lat="43.5824667" lon="11.2664883"><ele>434.0</ele><time>2026-04-20T10:42:34.907Z</time></trkpt><trkpt lat="43.5824917" lon="11.26636"><ele>434.0</ele><time>2026-04-20T10:42:35.907Z</time></trkpt><trkpt lat="43.5825167" lon="11.2662317"><ele>434.0</ele><time>2026-04-20T10:42:36.907Z</time></trkpt><trkpt lat="43.5825417" lon="11.2661017"><ele>434.0</ele><time>2026-04-20T10:42:37.907Z</time></trkpt><trkpt lat="43.5825667" lon="11.2659717"><ele>432.99999999999994</ele><time>2026-04-20T10:42:38.907Z</time></trkpt><trkpt lat="43.5825867" lon="11.26585"><ele>432.0</ele><time>2026-04-20T10:42:39.908Z</time></trkpt><trkpt lat="43.5826083" lon="11.2657183"><ele>431.0</ele><time>2026-04-20T10:42:40.907Z</time></trkpt><trkpt lat="43.5826383" lon="11.2656017"><ele>430.0</ele><time>2026-04-20T10:42:41.907Z</time></trkpt><trkpt lat="43.582665" lon="11.2654883"><ele>428.99999999999994</ele><time>2026-04-20T10:42:42.907Z</time></trkpt><trkpt lat="43.58269" lon="11.2653817"><ele>428.0</ele><time>2026-04-20T10:42:43.907Z</time></trkpt><trkpt lat="43.58271" lon="11.2652867"><ele>426.79999999999995</ele><time>2026-04-20T10:42:44.907Z</time></trkpt><trkpt lat="43.58273" lon="11.2651967"><ele>425.59999999999997</ele><time>2026-04-20T10:42:45.907Z</time></trkpt><trkpt lat="43.5827667" lon="11.2650317"><ele>424.4</ele><time>2026-04-20T10:42:47.907Z</time></trkpt><trkpt lat="43.5827767" lon="11.2648483"><ele>423.20000000000005</ele><time>2026-04-20T10:42:49.907Z</time></trkpt><trkpt lat="43.58279" lon="11.2647433"><ele>422.0</ele><time>2026-04-20T10:42:50.907Z</time></trkpt><trkpt lat="43.58281" lon="11.2646333"><ele>422.16666666666663</ele><time>2026-04-20T10:42:51.907Z</time></trkpt><trkpt lat="43.5828383" lon="11.2645283"><ele>422.3333333333333</ele><time>2026-04-20T10:42:52.907Z</time></trkpt><trkpt lat="43.5828733" lon="11.2644417"><ele>422.5</ele><time>2026-04-20T10:42:53.908Z</time></trkpt><trkpt lat="43.5829217" lon="11.26437"><ele>422.66666666666663</ele><time>2026-04-20T10:42:54.907Z</time></trkpt><trkpt lat="43.5829817" lon="11.26431"><ele>422.8333333333333</ele><time>2026-04-20T10:42:55.907Z</time></trkpt><trkpt lat="43.5830583" lon="11.2642667"><ele>423.0</ele><time>2026-04-20T10:42:56.907Z</time></trkpt><trkpt lat="43.5831317" lon="11.2642283"><ele>423.0</ele><time>2026-04-20T10:42:57.907Z</time></trkpt><trkpt lat="43.5832067" lon="11.26419"><ele>423.0</ele><time>2026-04-20T10:42:58.907Z</time></trkpt><trkpt lat="43.5832867" lon="11.264155"><ele>423.0</ele><time>2026-04-20T10:42:59.907Z</time></trkpt><trkpt lat="43.5833667" lon="11.264125"><ele>423.0</ele><time>2026-04-20T10:43:00.907Z</time></trkpt><trkpt lat="43.5834583" lon="11.2640967"><ele>423.0</ele><time>2026-04-20T10:43:01.907Z</time></trkpt><trkpt lat="43.5835483" lon="11.264075"><ele>423.0</ele><time>2026-04-20T10:43:02.907Z</time></trkpt><trkpt lat="43.583635" lon="11.2640617"><ele>422.6666666666667</ele><time>2026-04-20T10:43:03.907Z</time></trkpt><trkpt lat="43.5837183" lon="11.2640617"><ele>422.33333333333337</ele><time>2026-04-20T10:43:04.907Z</time></trkpt><trkpt lat="43.5838" lon="11.26406"><ele>422.0</ele><time>2026-04-20T10:43:05.907Z</time></trkpt><trkpt lat="43.5838733" lon="11.26408"><ele>421.6666666666667</ele><time>2026-04-20T10:43:06.908Z</time></trkpt><trkpt lat="43.5839517" lon="11.2641233"><ele>421.33333333333337</ele><time>2026-04-20T10:43:07.907Z</time></trkpt><trkpt lat="43.5840283" lon="11.26416"><ele>421.0</ele><time>2026-04-20T10:43:08.907Z</time></trkpt><trkpt lat="43.5841117" lon="11.2641917"><ele>421.00000000000006</ele><time>2026-04-20T10:43:09.907Z</time></trkpt><trkpt lat="43.5841917" lon="11.26422"><ele>421.0</ele><time>2026-04-20T10:43:10.907Z</time></trkpt><trkpt lat="43.5842667" lon="11.2642517"><ele>421.0</ele><time>2026-04-20T10:43:11.907Z</time></trkpt><trkpt lat="43.5843367" lon="11.264265"><ele>421.0</ele><time>2026-04-20T10:43:12.907Z</time></trkpt><trkpt lat="43.5844467" lon="11.26423"><ele>421.00000000000006</ele><time>2026-04-20T10:43:14.908Z</time></trkpt><trkpt lat="43.584485" lon="11.2640967"><ele>421.0</ele><time>2026-04-20T10:43:16.908Z</time></trkpt><trkpt lat="43.5844683" lon="11.2640083"><ele>420.1666666666667</ele><time>2026-04-20T10:43:17.907Z</time></trkpt><trkpt lat="43.58444" lon="11.263925"><ele>419.33333333333337</ele><time>2026-04-20T10:43:18.907Z</time></trkpt><trkpt lat="43.5843883" lon="11.263835"><ele>418.5</ele><time>2026-04-20T10:43:19.907Z</time></trkpt><trkpt lat="43.5843233" lon="11.26375"><ele>417.66666666666663</ele><time>2026-04-20T10:43:20.907Z</time></trkpt><trkpt lat="43.58425" lon="11.2636717"><ele>416.8333333333333</ele><time>2026-04-20T10:43:21.907Z</time></trkpt><trkpt lat="43.584175" lon="11.2635933"><ele>416.0</ele><time>2026-04-20T10:43:22.907Z</time></trkpt><trkpt lat="43.5841033" lon="11.263515"><ele>415.99999999999994</ele><time>2026-04-20T10:43:23.907Z</time></trkpt><trkpt lat="43.5840317" lon="11.2634383"><ele>416.0</ele><time>2026-04-20T10:43:24.908Z</time></trkpt><trkpt lat="43.5839683" lon="11.263365"><ele>416.0</ele><time>2026-04-20T10:43:25.907Z</time></trkpt><trkpt lat="43.5838983" lon="11.263275"><ele>416.0</ele><time>2026-04-20T10:43:26.907Z</time></trkpt><trkpt lat="43.583835" lon="11.2631967"><ele>415.99999999999994</ele><time>2026-04-20T10:43:27.907Z</time></trkpt><trkpt lat="43.58377" lon="11.2631233"><ele>416.0</ele><time>2026-04-20T10:43:28.907Z</time></trkpt><trkpt lat="43.5836983" lon="11.2630583"><ele>413.66666666666663</ele><time>2026-04-20T10:43:29.907Z</time></trkpt><trkpt lat="43.583625" lon="11.2630033"><ele>411.3333333333333</ele><time>2026-04-20T10:43:30.907Z</time></trkpt><trkpt lat="43.58355" lon="11.262945"><ele>409.0</ele><time>2026-04-20T10:43:31.907Z</time></trkpt><trkpt lat="43.58349" lon="11.2628717"><ele>406.66666666666663</ele><time>2026-04-20T10:43:32.907Z</time></trkpt><trkpt lat="43.583435" lon="11.26279"><ele>404.3333333333333</ele><time>2026-04-20T10:43:33.907Z</time></trkpt><trkpt lat="43.58338" lon="11.2627033"><ele>402.0</ele><time>2026-04-20T10:43:34.907Z</time></trkpt><trkpt lat="43.5833233" lon="11.2626217"><ele>402.0</ele><time>2026-04-20T10:43:35.907Z</time></trkpt><trkpt lat="43.58327" lon="11.2625217"><ele>402.0</ele><time>2026-04-20T10:43:36.907Z</time></trkpt><trkpt lat="43.583215" lon="11.2624283"><ele>402.0</ele><time>2026-04-20T10:43:37.907Z</time></trkpt><trkpt lat="43.5831767" lon="11.26233"><ele>402.0</ele><time>2026-04-20T10:43:38.907Z</time></trkpt><trkpt lat="43.5831383" lon="11.2622333"><ele>402.0</ele><time>2026-04-20T10:43:39.908Z</time></trkpt><trkpt lat="43.5830917" lon="11.2621267"><ele>402.0</ele><time>2026-04-20T10:43:40.908Z</time></trkpt><trkpt lat="43.5830567" lon="11.2620183"><ele>402.20000000000005</ele><time>2026-04-20T10:43:41.907Z</time></trkpt><trkpt lat="43.5830217" lon="11.2619033"><ele>402.4</ele><time>2026-04-20T10:43:42.907Z</time></trkpt><trkpt lat="43.58298" lon="11.261785"><ele>402.6</ele><time>2026-04-20T10:43:43.907Z</time></trkpt><trkpt lat="43.5829483" lon="11.261675"><ele>402.79999999999995</ele><time>2026-04-20T10:43:44.907Z</time></trkpt><trkpt lat="43.5829167" lon="11.2615533"><ele>403.0</ele><time>2026-04-20T10:43:45.907Z</time></trkpt><trkpt lat="43.5828733" lon="11.2614283"><ele>400.2</ele><time>2026-04-20T10:43:46.907Z</time></trkpt><trkpt lat="43.5828183" lon="11.2613083"><ele>397.4</ele><time>2026-04-20T10:43:47.907Z</time></trkpt><trkpt lat="43.582765" lon="11.26121"><ele>394.59999999999997</ele><time>2026-04-20T10:43:48.907Z</time></trkpt><trkpt lat="43.582715" lon="11.2611267"><ele>391.79999999999995</ele><time>2026-04-20T10:43:49.907Z</time></trkpt><trkpt lat="43.5826633" lon="11.2610667"><ele>389.0</ele><time>2026-04-20T10:43:50.907Z</time></trkpt><trkpt lat="43.5825433" lon="11.2610267"><ele>389.0</ele><time>2026-04-20T10:43:52.907Z</time></trkpt><trkpt lat="43.5824783" lon="11.261015"><ele>389.0</ele><time>2026-04-20T10:43:53.907Z</time></trkpt><trkpt lat="43.58241" lon="11.261005"><ele>389.0</ele><time>2026-04-20T10:43:54.908Z</time></trkpt><trkpt lat="43.5823417" lon="11.260995"><ele>389.0</ele><time>2026-04-20T10:43:55.907Z</time></trkpt><trkpt lat="43.5822767" lon="11.260985"><ele>389.0</ele><time>2026-04-20T10:43:56.908Z</time></trkpt><trkpt lat="43.5822117" lon="11.260975"><ele>389.0</ele><time>2026-04-20T10:43:57.907Z</time></trkpt><trkpt lat="43.5821433" lon="11.2609533"><ele>389.0</ele><time>2026-04-20T10:43:58.907Z</time></trkpt><trkpt lat="43.5820817" lon="11.2609183"><ele>389.0</ele><time>2026-04-20T10:43:59.907Z</time></trkpt><trkpt lat="43.5820167" lon="11.260875"><ele>389.0</ele><time>2026-04-20T10:44:00.907Z</time></trkpt><trkpt lat="43.58195" lon="11.2608133"><ele>389.0</ele><time>2026-04-20T10:44:01.908Z</time></trkpt><trkpt lat="43.5818917" lon="11.2607367"><ele>389.0</ele><time>2026-04-20T10:44:02.907Z</time></trkpt><trkpt lat="43.58183" lon="11.2606767"><ele>389.0</ele><time>2026-04-20T10:44:03.907Z</time></trkpt><trkpt lat="43.5817717" lon="11.260625"><ele>389.0</ele><time>2026-04-20T10:44:04.907Z</time></trkpt><trkpt lat="43.5817083" lon="11.2605817"><ele>389.0</ele><time>2026-04-20T10:44:05.907Z</time></trkpt><trkpt lat="43.5816383" lon="11.26055"><ele>387.7142857142857</ele><time>2026-04-20T10:44:06.908Z</time></trkpt><trkpt lat="43.5815767" lon="11.2605217"><ele>386.4285714285714</ele><time>2026-04-20T10:44:07.907Z</time></trkpt><trkpt lat="43.5815167" lon="11.26049"><ele>385.1428571428571</ele><time>2026-04-20T10:44:08.907Z</time></trkpt><trkpt lat="43.5814567" lon="11.26046"><ele>383.8571428571429</ele><time>2026-04-20T10:44:09.907Z</time></trkpt><trkpt lat="43.5813983" lon="11.2604167"><ele>382.57142857142856</ele><time>2026-04-20T10:44:10.907Z</time></trkpt><trkpt lat="43.58134" lon="11.26037"><ele>381.2857142857143</ele><time>2026-04-20T10:44:11.907Z</time></trkpt><trkpt lat="43.58128" lon="11.2603217"><ele>380.0</ele><time>2026-04-20T10:44:12.907Z</time></trkpt><trkpt lat="43.581215" lon="11.26027"><ele>378.5</ele><time>2026-04-20T10:44:13.907Z</time></trkpt><trkpt lat="43.5811533" lon="11.2602133"><ele>377.0</ele><time>2026-04-20T10:44:14.907Z</time></trkpt><trkpt lat="43.5810967" lon="11.2601417"><ele>375.5</ele><time>2026-04-20T10:44:15.908Z</time></trkpt><trkpt lat="43.5810533" lon="11.260055"><ele>374.0</ele><time>2026-04-20T10:44:16.907Z</time></trkpt><trkpt lat="43.5810117" lon="11.25996"><ele>372.5</ele><time>2026-04-20T10:44:17.907Z</time></trkpt><trkpt lat="43.58098" lon="11.2598567"><ele>371.0</ele><time>2026-04-20T10:44:18.907Z</time></trkpt><trkpt lat="43.5809517" lon="11.259745"><ele>371.0</ele><time>2026-04-20T10:44:19.907Z</time></trkpt><trkpt lat="43.5809183" lon="11.2596317"><ele>371.0</ele><time>2026-04-20T10:44:20.907Z</time></trkpt><trkpt lat="43.58089" lon="11.2595217"><ele>371.0</ele><time>2026-04-20T10:44:21.907Z</time></trkpt><trkpt lat="43.5808633" lon="11.2594067"><ele>371.0</ele><time>2026-04-20T10:44:22.907Z</time></trkpt><trkpt lat="43.5808417" lon="11.2593"><ele>371.0</ele><time>2026-04-20T10:44:23.907Z</time></trkpt><trkpt lat="43.5808217" lon="11.2591933"><ele>371.0</ele><time>2026-04-20T10:44:24.907Z</time></trkpt><trkpt lat="43.58081" lon="11.2590833"><ele>371.0</ele><time>2026-04-20T10:44:25.907Z</time></trkpt><trkpt lat="43.5808017" lon="11.2589733"><ele>371.0</ele><time>2026-04-20T10:44:26.907Z</time></trkpt><trkpt lat="43.5808" lon="11.2588667"><ele>371.0</ele><time>2026-04-20T10:44:27.907Z</time></trkpt><trkpt lat="43.5808017" lon="11.2587517"><ele>371.0</ele><time>2026-04-20T10:44:28.907Z</time></trkpt><trkpt lat="43.58081" lon="11.2586333"><ele>371.0</ele><time>2026-04-20T10:44:29.907Z</time></trkpt><trkpt lat="43.5808267" lon="11.25851"><ele>371.0</ele><time>2026-04-20T10:44:30.908Z</time></trkpt><trkpt lat="43.58085" lon="11.25837"><ele>371.20000000000005</ele><time>2026-04-20T10:44:31.907Z</time></trkpt><trkpt lat="43.58088" lon="11.258225"><ele>371.40000000000003</ele><time>2026-04-20T10:44:32.907Z</time></trkpt><trkpt lat="43.5809033" lon="11.2580933"><ele>371.6</ele><time>2026-04-20T10:44:33.907Z</time></trkpt><trkpt lat="43.580925" lon="11.257975"><ele>371.8</ele><time>2026-04-20T10:44:34.907Z</time></trkpt><trkpt lat="43.5809583" lon="11.257865"><ele>372.0</ele><time>2026-04-20T10:44:35.908Z</time></trkpt><trkpt lat="43.5809933" lon="11.2577583"><ele>372.3333333333333</ele><time>2026-04-20T10:44:36.907Z</time></trkpt><trkpt lat="43.5810317" lon="11.25765"><ele>372.6666666666667</ele><time>2026-04-20T10:44:37.907Z</time></trkpt><trkpt lat="43.58107" lon="11.2575417"><ele>373.0</ele><time>2026-04-20T10:44:38.907Z</time></trkpt><trkpt lat="43.58111" lon="11.2574283"><ele>373.33333333333337</ele><time>2026-04-20T10:44:39.907Z</time></trkpt><trkpt lat="43.5811517" lon="11.2573317"><ele>373.6666666666667</ele><time>2026-04-20T10:44:40.908Z</time></trkpt><trkpt lat="43.5812017" lon="11.2572367"><ele>374.0</ele><time>2026-04-20T10:44:41.907Z</time></trkpt><trkpt lat="43.581245" lon="11.25714"><ele>374.0</ele><time>2026-04-20T10:44:42.907Z</time></trkpt><trkpt lat="43.5812783" lon="11.2570383"><ele>374.0</ele><time>2026-04-20T10:44:43.907Z</time></trkpt><trkpt lat="43.581295" lon="11.2569267"><ele>374.0</ele><time>2026-04-20T10:44:44.907Z</time></trkpt><trkpt lat="43.5812917" lon="11.2568067"><ele>374.0</ele><time>2026-04-20T10:44:45.907Z</time></trkpt><trkpt lat="43.581275" lon="11.25668"><ele>374.0</ele><time>2026-04-20T10:44:46.907Z</time></trkpt><trkpt lat="43.58127" lon="11.2565567"><ele>374.0</ele><time>2026-04-20T10:44:47.907Z</time></trkpt><trkpt lat="43.5812767" lon="11.2564267"><ele>373.2</ele><time>2026-04-20T10:44:48.908Z</time></trkpt><trkpt lat="43.58129" lon="11.2562917"><ele>372.4</ele><time>2026-04-20T10:44:49.907Z</time></trkpt><trkpt lat="43.581295" lon="11.256165"><ele>371.6</ele><time>2026-04-20T10:44:50.908Z</time></trkpt><trkpt lat="43.5812833" lon="11.25604"><ele>370.8</ele><time>2026-04-20T10:44:51.907Z</time></trkpt><trkpt lat="43.5812633" lon="11.2559233"><ele>370.0</ele><time>2026-04-20T10:44:52.907Z</time></trkpt><trkpt lat="43.5812183" lon="11.2558083"><ele>366.8</ele><time>2026-04-20T10:44:53.907Z</time></trkpt><trkpt lat="43.5811567" lon="11.2557"><ele>363.6</ele><time>2026-04-20T10:44:54.907Z</time></trkpt><trkpt lat="43.5810917" lon="11.2556033"><ele>360.4</ele><time>2026-04-20T10:44:55.907Z</time></trkpt><trkpt lat="43.581035" lon="11.2555133"><ele>357.2</ele><time>2026-04-20T10:44:56.907Z</time></trkpt><trkpt lat="43.580985" lon="11.2554083"><ele>354.0</ele><time>2026-04-20T10:44:57.907Z</time></trkpt><trkpt lat="43.5809383" lon="11.2552983"><ele>354.0</ele><time>2026-04-20T10:44:58.907Z</time></trkpt><trkpt lat="43.580895" lon="11.255185"><ele>354.0</ele><time>2026-04-20T10:44:59.907Z</time></trkpt><trkpt lat="43.5808483" lon="11.2550717"><ele>354.0</ele><time>2026-04-20T10:45:00.907Z</time></trkpt><trkpt lat="43.5807817" lon="11.2549717"><ele>354.0</ele><time>2026-04-20T10:45:01.908Z</time></trkpt><trkpt lat="43.5807183" lon="11.25488"><ele>354.0</ele><time>2026-04-20T10:45:02.907Z</time></trkpt><trkpt lat="43.5806633" lon="11.25478"><ele>354.8333333333333</ele><time>2026-04-20T10:45:03.907Z</time></trkpt><trkpt lat="43.5806233" lon="11.254675"><ele>355.6666666666667</ele><time>2026-04-20T10:45:04.907Z</time></trkpt><trkpt lat="43.5805983" lon="11.2545683"><ele>356.5</ele><time>2026-04-20T10:45:05.908Z</time></trkpt><trkpt lat="43.5805683" lon="11.2544667"><ele>357.33333333333337</ele><time>2026-04-20T10:45:06.907Z</time></trkpt><trkpt lat="43.580545" lon="11.2543633"><ele>358.1666666666667</ele><time>2026-04-20T10:45:07.907Z</time></trkpt><trkpt lat="43.5805183" lon="11.2542733"><ele>359.0</ele><time>2026-04-20T10:45:08.907Z</time></trkpt><trkpt lat="43.580495" lon="11.25419"><ele>359.0</ele><time>2026-04-20T10:45:09.907Z</time></trkpt><trkpt lat="43.5804767" lon="11.2541"><ele>359.0</ele><time>2026-04-20T10:45:10.907Z</time></trkpt><trkpt lat="43.5804467" lon="11.2539283"><ele>359.0</ele><time>2026-04-20T10:45:12.907Z</time></trkpt><trkpt lat="43.58045" lon="11.2538333"><ele>359.0</ele><time>2026-04-20T10:45:13.907Z</time></trkpt><trkpt lat="43.5804567" lon="11.253745"><ele>359.0</ele><time>2026-04-20T10:45:14.908Z</time></trkpt><trkpt lat="43.5804683" lon="11.2536467"><ele>359.0</ele><time>2026-04-20T10:45:15.906Z</time></trkpt><trkpt lat="43.5804783" lon="11.253545"><ele>358.5</ele><time>2026-04-20T10:45:16.906Z</time></trkpt><trkpt lat="43.5804733" lon="11.2534417"><ele>358.0</ele><time>2026-04-20T10:45:17.906Z</time></trkpt><trkpt lat="43.5804667" lon="11.2533367"><ele>357.5</ele><time>2026-04-20T10:45:18.906Z</time></trkpt><trkpt lat="43.5804483" lon="11.2532233"><ele>357.0</ele><time>2026-04-20T10:45:19.906Z</time></trkpt><trkpt lat="43.58043" lon="11.2531117"><ele>356.5</ele><time>2026-04-20T10:45:20.906Z</time></trkpt><trkpt lat="43.5804317" lon="11.253"><ele>356.0</ele><time>2026-04-20T10:45:21.906Z</time></trkpt><trkpt lat="43.5804433" lon="11.2528933"><ele>355.83333333333337</ele><time>2026-04-20T10:45:22.906Z</time></trkpt><trkpt lat="43.5804583" lon="11.2527767"><ele>355.6666666666667</ele><time>2026-04-20T10:45:23.907Z</time></trkpt><trkpt lat="43.58047" lon="11.25266"><ele>355.5</ele><time>2026-04-20T10:45:24.906Z</time></trkpt><trkpt lat="43.5804617" lon="11.2525417"><ele>355.3333333333333</ele><time>2026-04-20T10:45:25.906Z</time></trkpt><trkpt lat="43.5804383" lon="11.252425"><ele>355.16666666666663</ele><time>2026-04-20T10:45:26.906Z</time></trkpt><trkpt lat="43.5804133" lon="11.2523017"><ele>355.0</ele><time>2026-04-20T10:45:27.907Z</time></trkpt><trkpt lat="43.580395" lon="11.2521783"><ele>354.5</ele><time>2026-04-20T10:45:28.906Z</time></trkpt><trkpt lat="43.5803867" lon="11.2520667"><ele>354.0</ele><time>2026-04-20T10:45:29.906Z</time></trkpt><trkpt lat="43.580395" lon="11.251955"><ele>353.5</ele><time>2026-04-20T10:45:30.906Z</time></trkpt><trkpt lat="43.5804083" lon="11.2518383"><ele>353.0</ele><time>2026-04-20T10:45:31.907Z</time></trkpt><trkpt lat="43.5804233" lon="11.25174"><ele>352.5</ele><time>2026-04-20T10:45:32.907Z</time></trkpt><trkpt lat="43.5804417" lon="11.2516483"><ele>352.0</ele><time>2026-04-20T10:45:33.906Z</time></trkpt><trkpt lat="43.580475" lon="11.25157"><ele>352.0</ele><time>2026-04-20T10:45:34.906Z</time></trkpt><trkpt lat="43.5805317" lon="11.2515117"><ele>352.0</ele><time>2026-04-20T10:45:35.906Z</time></trkpt><trkpt lat="43.58061" lon="11.251465"><ele>352.0</ele><time>2026-04-20T10:45:36.906Z</time></trkpt><trkpt lat="43.5806917" lon="11.251415"><ele>352.0</ele><time>2026-04-20T10:45:37.906Z</time></trkpt><trkpt lat="43.58077" lon="11.2513633"><ele>352.0</ele><time>2026-04-20T10:45:38.906Z</time></trkpt><trkpt lat="43.5808533" lon="11.251285"><ele>352.0</ele><time>2026-04-20T10:45:39.906Z</time></trkpt><trkpt lat="43.5809233" lon="11.251175"><ele>350.8</ele><time>2026-04-20T10:45:40.906Z</time></trkpt><trkpt lat="43.5809867" lon="11.2510633"><ele>349.6</ele><time>2026-04-20T10:45:41.907Z</time></trkpt><trkpt lat="43.58104" lon="11.2509567"><ele>348.40000000000003</ele><time>2026-04-20T10:45:42.906Z</time></trkpt><trkpt lat="43.58109" lon="11.2508467"><ele>347.20000000000005</ele><time>2026-04-20T10:45:43.907Z</time></trkpt><trkpt lat="43.5811467" lon="11.250745"><ele>346.0</ele><time>2026-04-20T10:45:44.907Z</time></trkpt><trkpt lat="43.5812033" lon="11.250655"><ele>347.5</ele><time>2026-04-20T10:45:45.906Z</time></trkpt><trkpt lat="43.58126" lon="11.250585"><ele>349.0</ele><time>2026-04-20T10:45:46.906Z</time></trkpt><trkpt lat="43.58131" lon="11.2505167"><ele>350.5</ele><time>2026-04-20T10:45:47.906Z</time></trkpt><trkpt lat="43.5813533" lon="11.2504017"><ele>352.0</ele><time>2026-04-20T10:45:49.906Z</time></trkpt><trkpt lat="43.5814083" lon="11.2503183"><ele>353.5</ele><time>2026-04-20T10:45:53.906Z</time></trkpt><trkpt lat="43.581495" lon="11.2502867"><ele>355.0</ele><time>2026-04-20T10:45:56.906Z</time></trkpt><trkpt lat="43.581615" lon="11.25023"><ele>355.0</ele><time>2026-04-20T10:45:58.906Z</time></trkpt><trkpt lat="43.581675" lon="11.2502"><ele>355.0</ele><time>2026-04-20T10:45:59.907Z</time></trkpt><trkpt lat="43.5817367" lon="11.25017"><ele>355.0</ele><time>2026-04-20T10:46:00.906Z</time></trkpt><trkpt lat="43.581805" lon="11.2501317"><ele>355.0</ele><time>2026-04-20T10:46:01.906Z</time></trkpt><trkpt lat="43.5818833" lon="11.2500983"><ele>355.0</ele><time>2026-04-20T10:46:02.907Z</time></trkpt><trkpt lat="43.5819683" lon="11.2500717"><ele>355.0</ele><time>2026-04-20T10:46:03.906Z</time></trkpt><trkpt lat="43.5820567" lon="11.2500317"><ele>357.8</ele><time>2026-04-20T10:46:04.907Z</time></trkpt><trkpt lat="43.5821467" lon="11.24999"><ele>360.6</ele><time>2026-04-20T10:46:05.907Z</time></trkpt><trkpt lat="43.5822383" lon="11.249955"><ele>363.4</ele><time>2026-04-20T10:46:06.907Z</time></trkpt><trkpt lat="43.5823317" lon="11.2499083"><ele>366.2</ele><time>2026-04-20T10:46:07.906Z</time></trkpt><trkpt lat="43.5824223" lon="11.2498662"><ele>369.0</ele><time>2026-04-20T10:46:08.906Z</time></trkpt><trkpt lat="43.5825086" lon="11.2498312"><ele>369.0</ele><time>2026-04-20T10:46:09.906Z</time></trkpt><trkpt lat="43.5825934" lon="11.2497956"><ele>369.0</ele><time>2026-04-20T10:46:10.906Z</time></trkpt><trkpt lat="43.5826705" lon="11.2497707"><ele>369.0</ele><time>2026-04-20T10:46:11.906Z</time></trkpt><trkpt lat="43.5827407" lon="11.2497593"><ele>369.0</ele><time>2026-04-20T10:46:12.907Z</time></trkpt><trkpt lat="43.5828124" lon="11.2497621"><ele>369.0</ele><time>2026-04-20T10:46:13.907Z</time></trkpt><trkpt lat="43.5828852" lon="11.249788"><ele>369.0</ele><time>2026-04-20T10:46:14.907Z</time></trkpt><trkpt lat="43.582956" lon="11.2498333"><ele>369.6666666666667</ele><time>2026-04-20T10:46:15.906Z</time></trkpt><trkpt lat="43.5830244" lon="11.2498986"><ele>370.3333333333333</ele><time>2026-04-20T10:46:16.906Z</time></trkpt><trkpt lat="43.583087" lon="11.2499772"><ele>371.0</ele><time>2026-04-20T10:46:17.906Z</time></trkpt><trkpt lat="43.5831447" lon="11.2500678"><ele>371.66666666666663</ele><time>2026-04-20T10:46:18.906Z</time></trkpt><trkpt lat="43.5831946" lon="11.2501706"><ele>372.3333333333333</ele><time>2026-04-20T10:46:19.906Z</time></trkpt><trkpt lat="43.5832454" lon="11.2502738"><ele>373.0</ele><time>2026-04-20T10:46:20.906Z</time></trkpt><trkpt lat="43.5833045" lon="11.25038"><ele>373.0</ele><time>2026-04-20T10:46:21.907Z</time></trkpt><trkpt lat="43.5833645" lon="11.250477"><ele>373.0</ele><time>2026-04-20T10:46:22.907Z</time></trkpt><trkpt lat="43.5834283" lon="11.2505759"><ele>373.0</ele><time>2026-04-20T10:46:23.906Z</time></trkpt><trkpt lat="43.5834916" lon="11.2506715"><ele>373.0</ele><time>2026-04-20T10:46:24.906Z</time></trkpt><trkpt lat="43.5835598" lon="11.2507477"><ele>373.0</ele><time>2026-04-20T10:46:25.907Z</time></trkpt><trkpt lat="43.5836151" lon="11.2508154"><ele>373.0</ele><time>2026-04-20T10:46:26.906Z</time></trkpt><trkpt lat="43.5836696" lon="11.2508689"><ele>374.0</ele><time>2026-04-20T10:46:27.907Z</time></trkpt><trkpt lat="43.5837199" lon="11.2509257"><ele>375.0</ele><time>2026-04-20T10:46:28.906Z</time></trkpt><trkpt lat="43.583777" lon="11.250989"><ele>376.0</ele><time>2026-04-20T10:46:29.906Z</time></trkpt><trkpt lat="43.5838467" lon="11.2510591"><ele>377.0</ele><time>2026-04-20T10:46:30.906Z</time></trkpt><trkpt lat="43.5839199" lon="11.2511326"><ele>378.0</ele><time>2026-04-20T10:46:31.906Z</time></trkpt><trkpt lat="43.5839934" lon="11.251214"><ele>379.0</ele><time>2026-04-20T10:46:32.906Z</time></trkpt><trkpt lat="43.5840645" lon="11.2512942"><ele>379.0</ele><time>2026-04-20T10:46:33.906Z</time></trkpt><trkpt lat="43.5841289" lon="11.251375"><ele>379.0</ele><time>2026-04-20T10:46:34.906Z</time></trkpt><trkpt lat="43.584196" lon="11.2514484"><ele>379.0</ele><time>2026-04-20T10:46:35.906Z</time></trkpt><trkpt lat="43.5842713" lon="11.2515235"><ele>379.0</ele><time>2026-04-20T10:46:36.906Z</time></trkpt><trkpt lat="43.5843513" lon="11.2515887"><ele>379.0</ele><time>2026-04-20T10:46:37.906Z</time></trkpt><trkpt lat="43.584433" lon="11.2516414"><ele>379.0</ele><time>2026-04-20T10:46:38.907Z</time></trkpt><trkpt lat="43.5845216" lon="11.251687"><ele>380.0</ele><time>2026-04-20T10:46:39.906Z</time></trkpt><trkpt lat="43.5846134" lon="11.2517227"><ele>381.0</ele><time>2026-04-20T10:46:40.906Z</time></trkpt><trkpt lat="43.5847048" lon="11.2517503"><ele>382.0</ele><time>2026-04-20T10:46:41.906Z</time></trkpt><trkpt lat="43.5848011" lon="11.2517695"><ele>383.0</ele><time>2026-04-20T10:46:42.907Z</time></trkpt><trkpt lat="43.5848887" lon="11.2518052"><ele>384.0</ele><time>2026-04-20T10:46:43.906Z</time></trkpt><trkpt lat="43.5849699" lon="11.251861"><ele>384.0</ele><time>2026-04-20T10:46:44.906Z</time></trkpt><trkpt lat="43.5850423" lon="11.251937"><ele>384.0</ele><time>2026-04-20T10:46:45.906Z</time></trkpt><trkpt lat="43.5850965" lon="11.2520301"><ele>384.0</ele><time>2026-04-20T10:46:46.906Z</time></trkpt><trkpt lat="43.5851483" lon="11.2521452"><ele>384.0</ele><time>2026-04-20T10:46:47.906Z</time></trkpt><trkpt lat="43.5852029" lon="11.2522688"><ele>384.0</ele><time>2026-04-20T10:46:48.906Z</time></trkpt><trkpt lat="43.5852584" lon="11.2524"><ele>385.2</ele><time>2026-04-20T10:46:49.907Z</time></trkpt><trkpt lat="43.5853118" lon="11.2525267"><ele>386.4</ele><time>2026-04-20T10:46:50.906Z</time></trkpt><trkpt lat="43.5853655" lon="11.2526332"><ele>387.6</ele><time>2026-04-20T10:46:51.906Z</time></trkpt><trkpt lat="43.5854224" lon="11.2527185"><ele>388.8</ele><time>2026-04-20T10:46:52.906Z</time></trkpt><trkpt lat="43.5854901" lon="11.2527866"><ele>390.0</ele><time>2026-04-20T10:46:53.906Z</time></trkpt><trkpt lat="43.5855754" lon="11.2528324"><ele>390.0</ele><time>2026-04-20T10:46:54.906Z</time></trkpt><trkpt lat="43.5856742" lon="11.2528531"><ele>390.0</ele><time>2026-04-20T10:46:55.906Z</time></trkpt><trkpt lat="43.5857732" lon="11.25285"><ele>390.0</ele><time>2026-04-20T10:46:56.906Z</time></trkpt><trkpt lat="43.5858692" lon="11.2528351"><ele>390.0</ele><time>2026-04-20T10:46:57.907Z</time></trkpt><trkpt lat="43.5859635" lon="11.2528198"><ele>390.0</ele><time>2026-04-20T10:46:58.906Z</time></trkpt><trkpt lat="43.5860553" lon="11.2528103"><ele>390.0</ele><time>2026-04-20T10:46:59.906Z</time></trkpt><trkpt lat="43.5861441" lon="11.2528207"><ele>390.0</ele><time>2026-04-20T10:47:00.907Z</time></trkpt><trkpt lat="43.5862309" lon="11.2528544"><ele>390.0</ele><time>2026-04-20T10:47:01.906Z</time></trkpt><trkpt lat="43.5863149" lon="11.252904"><ele>390.0</ele><time>2026-04-20T10:47:02.907Z</time></trkpt><trkpt lat="43.5863956" lon="11.2529575"><ele>390.0</ele><time>2026-04-20T10:47:03.906Z</time></trkpt><trkpt lat="43.5864729" lon="11.2530043"><ele>390.0</ele><time>2026-04-20T10:47:04.906Z</time></trkpt><trkpt lat="43.5865498" lon="11.2530524"><ele>390.4</ele><time>2026-04-20T10:47:05.906Z</time></trkpt><trkpt lat="43.5866346" lon="11.2530982"><ele>390.8</ele><time>2026-04-20T10:47:06.906Z</time></trkpt><trkpt lat="43.5867252" lon="11.2531396"><ele>391.20000000000005</ele><time>2026-04-20T10:47:07.906Z</time></trkpt><trkpt lat="43.5868196" lon="11.253182"><ele>391.6</ele><time>2026-04-20T10:47:08.907Z</time></trkpt><trkpt lat="43.5869081" lon="11.2532222"><ele>392.0</ele><time>2026-04-20T10:47:09.907Z</time></trkpt><trkpt lat="43.5869972" lon="11.2532542"><ele>394.16666666666663</ele><time>2026-04-20T10:47:10.907Z</time></trkpt><trkpt lat="43.5870833" lon="11.2532828"><ele>396.3333333333333</ele><time>2026-04-20T10:47:11.906Z</time></trkpt><trkpt lat="43.5871687" lon="11.2532926"><ele>398.5</ele><time>2026-04-20T10:47:12.907Z</time></trkpt><trkpt lat="43.5872526" lon="11.2532891"><ele>400.66666666666663</ele><time>2026-04-20T10:47:13.906Z</time></trkpt><trkpt lat="43.5873393" lon="11.253264"><ele>402.8333333333333</ele><time>2026-04-20T10:47:14.906Z</time></trkpt><trkpt lat="43.5874133" lon="11.25321"><ele>405.0</ele><time>2026-04-20T10:47:15.906Z</time></trkpt><trkpt lat="43.5874717" lon="11.2531467"><ele>404.2</ele><time>2026-04-20T10:47:16.906Z</time></trkpt><trkpt lat="43.5875183" lon="11.2530517"><ele>403.4</ele><time>2026-04-20T10:47:17.906Z</time></trkpt><trkpt lat="43.5875617" lon="11.252935"><ele>402.6</ele><time>2026-04-20T10:47:18.906Z</time></trkpt><trkpt lat="43.58759" lon="11.2527983"><ele>401.8</ele><time>2026-04-20T10:47:19.906Z</time></trkpt><trkpt lat="43.5876167" lon="11.2526667"><ele>401.0</ele><time>2026-04-20T10:47:20.906Z</time></trkpt><trkpt lat="43.5876417" lon="11.2525317"><ele>401.0</ele><time>2026-04-20T10:47:21.906Z</time></trkpt><trkpt lat="43.5876683" lon="11.2524"><ele>401.0</ele><time>2026-04-20T10:47:22.906Z</time></trkpt><trkpt lat="43.5876983" lon="11.25228"><ele>401.0</ele><time>2026-04-20T10:47:23.907Z</time></trkpt><trkpt lat="43.5877333" lon="11.2521533"><ele>401.0</ele><time>2026-04-20T10:47:24.906Z</time></trkpt><trkpt lat="43.58776" lon="11.252035"><ele>401.0</ele><time>2026-04-20T10:47:25.906Z</time></trkpt><trkpt lat="43.58779" lon="11.25191"><ele>400.8</ele><time>2026-04-20T10:47:26.906Z</time></trkpt><trkpt lat="43.58783" lon="11.251785"><ele>400.6</ele><time>2026-04-20T10:47:27.906Z</time></trkpt><trkpt lat="43.5878767" lon="11.2516733"><ele>400.4</ele><time>2026-04-20T10:47:28.906Z</time></trkpt><trkpt lat="43.5879267" lon="11.2515567"><ele>400.2</ele><time>2026-04-20T10:47:29.907Z</time></trkpt><trkpt lat="43.587975" lon="11.2514383"><ele>400.0</ele><time>2026-04-20T10:47:30.906Z</time></trkpt><trkpt lat="43.58802" lon="11.2513233"><ele>402.83333333333337</ele><time>2026-04-20T10:47:31.906Z</time></trkpt><trkpt lat="43.5880667" lon="11.2512133"><ele>405.6666666666667</ele><time>2026-04-20T10:47:32.906Z</time></trkpt><trkpt lat="43.58812" lon="11.251115"><ele>408.5</ele><time>2026-04-20T10:47:33.906Z</time></trkpt><trkpt lat="43.5881733" lon="11.2510183"><ele>411.33333333333337</ele><time>2026-04-20T10:47:34.906Z</time></trkpt><trkpt lat="43.5882267" lon="11.2509367"><ele>414.1666666666667</ele><time>2026-04-20T10:47:35.906Z</time></trkpt><trkpt lat="43.5882917" lon="11.2508767"><ele>417.0</ele><time>2026-04-20T10:47:36.906Z</time></trkpt><trkpt lat="43.5883667" lon="11.250835"><ele>417.0</ele><time>2026-04-20T10:47:37.907Z</time></trkpt><trkpt lat="43.5884467" lon="11.2508067"><ele>417.0</ele><time>2026-04-20T10:47:38.906Z</time></trkpt><trkpt lat="43.5885283" lon="11.25081"><ele>417.0</ele><time>2026-04-20T10:47:39.907Z</time></trkpt><trkpt lat="43.588615" lon="11.2508317"><ele>417.0</ele><time>2026-04-20T10:47:40.906Z</time></trkpt><trkpt lat="43.5887" lon="11.2508617"><ele>417.0</ele><time>2026-04-20T10:47:41.906Z</time></trkpt><trkpt lat="43.5887883" lon="11.2509"><ele>417.0</ele><time>2026-04-20T10:47:42.907Z</time></trkpt><trkpt lat="43.5888783" lon="11.250935"><ele>417.6</ele><time>2026-04-20T10:47:43.906Z</time></trkpt><trkpt lat="43.5889633" lon="11.2509817"><ele>418.20000000000005</ele><time>2026-04-20T10:47:44.906Z</time></trkpt><trkpt lat="43.5890567" lon="11.2510183"><ele>418.8</ele><time>2026-04-20T10:47:45.906Z</time></trkpt><trkpt lat="43.58915" lon="11.2510667"><ele>419.4</ele><time>2026-04-20T10:47:46.906Z</time></trkpt><trkpt lat="43.5892417" lon="11.251125"><ele>420.0</ele><time>2026-04-20T10:47:47.906Z</time></trkpt><trkpt lat="43.5893383" lon="11.2511933"><ele>420.0</ele><time>2026-04-20T10:47:48.906Z</time></trkpt><trkpt lat="43.5894317" lon="11.2512683"><ele>420.0</ele><time>2026-04-20T10:47:49.906Z</time></trkpt><trkpt lat="43.58952" lon="11.25135"><ele>420.0</ele><time>2026-04-20T10:47:50.906Z</time></trkpt><trkpt lat="43.5895983" lon="11.25144"><ele>420.0</ele><time>2026-04-20T10:47:51.906Z</time></trkpt><trkpt lat="43.58967" lon="11.2515417"><ele>420.0</ele><time>2026-04-20T10:47:52.906Z</time></trkpt><trkpt lat="43.5897383" lon="11.25164"><ele>420.8</ele><time>2026-04-20T10:47:53.907Z</time></trkpt><trkpt lat="43.5898067" lon="11.25174"><ele>421.6</ele><time>2026-04-20T10:47:54.906Z</time></trkpt><trkpt lat="43.58987" lon="11.25184"><ele>422.4</ele><time>2026-04-20T10:47:55.906Z</time></trkpt><trkpt lat="43.5899367" lon="11.2519433"><ele>423.2</ele><time>2026-04-20T10:47:56.906Z</time></trkpt><trkpt lat="43.590005" lon="11.25206"><ele>424.0</ele><time>2026-04-20T10:47:57.906Z</time></trkpt><trkpt lat="43.5900733" lon="11.2521717"><ele>424.0</ele><time>2026-04-20T10:47:58.907Z</time></trkpt><trkpt lat="43.590145" lon="11.25228"><ele>424.0</ele><time>2026-04-20T10:47:59.906Z</time></trkpt><trkpt lat="43.5902083" lon="11.25239"><ele>424.0</ele><time>2026-04-20T10:48:00.906Z</time></trkpt><trkpt lat="43.5902717" lon="11.2524967"><ele>424.0</ele><time>2026-04-20T10:48:01.906Z</time></trkpt><trkpt lat="43.5903467" lon="11.2525933"><ele>424.0</ele><time>2026-04-20T10:48:02.906Z</time></trkpt><trkpt lat="43.59042" lon="11.252685"><ele>424.6</ele><time>2026-04-20T10:48:03.906Z</time></trkpt><trkpt lat="43.5904867" lon="11.2527733"><ele>425.2</ele><time>2026-04-20T10:48:04.907Z</time></trkpt><trkpt lat="43.5905567" lon="11.2528583"><ele>425.80000000000007</ele><time>2026-04-20T10:48:05.906Z</time></trkpt><trkpt lat="43.5906217" lon="11.25295"><ele>426.40000000000003</ele><time>2026-04-20T10:48:06.906Z</time></trkpt><trkpt lat="43.5906983" lon="11.253045"><ele>427.0</ele><time>2026-04-20T10:48:07.906Z</time></trkpt><trkpt lat="43.5907783" lon="11.2531517"><ele>429.8</ele><time>2026-04-20T10:48:08.906Z</time></trkpt><trkpt lat="43.59085" lon="11.25326"><ele>432.6</ele><time>2026-04-20T10:48:09.906Z</time></trkpt><trkpt lat="43.5909283" lon="11.2533617"><ele>435.40000000000003</ele><time>2026-04-20T10:48:10.906Z</time></trkpt><trkpt lat="43.5910017" lon="11.2534583"><ele>438.20000000000005</ele><time>2026-04-20T10:48:11.906Z</time></trkpt><trkpt lat="43.5910767" lon="11.2535533"><ele>441.0</ele><time>2026-04-20T10:48:12.906Z</time></trkpt><trkpt lat="43.5911417" lon="11.25366"><ele>441.20000000000005</ele><time>2026-04-20T10:48:13.907Z</time></trkpt><trkpt lat="43.59122" lon="11.2537617"><ele>441.40000000000003</ele><time>2026-04-20T10:48:14.906Z</time></trkpt><trkpt lat="43.5912917" lon="11.2538717"><ele>441.6</ele><time>2026-04-20T10:48:15.906Z</time></trkpt><trkpt lat="43.5913633" lon="11.2539833"><ele>441.8</ele><time>2026-04-20T10:48:16.906Z</time></trkpt><trkpt lat="43.5914417" lon="11.2540967"><ele>442.0</ele><time>2026-04-20T10:48:17.906Z</time></trkpt><trkpt lat="43.59152" lon="11.25421"><ele>442.0</ele><time>2026-04-20T10:48:18.906Z</time></trkpt><trkpt lat="43.591605" lon="11.2543233"><ele>442.0</ele><time>2026-04-20T10:48:19.906Z</time></trkpt><trkpt lat="43.5916917" lon="11.254435"><ele>442.0</ele><time>2026-04-20T10:48:20.906Z</time></trkpt><trkpt lat="43.5917833" lon="11.25454"><ele>442.0</ele><time>2026-04-20T10:48:21.906Z</time></trkpt><trkpt lat="43.5918817" lon="11.2546283"><ele>442.00000000000006</ele><time>2026-04-20T10:48:22.906Z</time></trkpt><trkpt lat="43.5919733" lon="11.2547117"><ele>442.0</ele><time>2026-04-20T10:48:23.906Z</time></trkpt><trkpt lat="43.5920583" lon="11.25478"><ele>442.0</ele><time>2026-04-20T10:48:24.906Z</time></trkpt><trkpt lat="43.5921383" lon="11.2548367"><ele>442.0</ele><time>2026-04-20T10:48:25.906Z</time></trkpt><trkpt lat="43.59221" lon="11.2548733"><ele>442.00000000000006</ele><time>2026-04-20T10:48:26.906Z</time></trkpt><trkpt lat="43.5922767" lon="11.2548833"><ele>442.0</ele><time>2026-04-20T10:48:27.907Z</time></trkpt><trkpt lat="43.5923967" lon="11.2548367"><ele>443.50000000000006</ele><time>2026-04-20T10:48:29.906Z</time></trkpt><trkpt lat="43.5924433" lon="11.254765"><ele>445.0</ele><time>2026-04-20T10:48:30.906Z</time></trkpt><trkpt lat="43.5924667" lon="11.2545983"><ele>446.5</ele><time>2026-04-20T10:48:32.906Z</time></trkpt><trkpt lat="43.5924533" lon="11.2545033"><ele>448.0</ele><time>2026-04-20T10:48:33.906Z</time></trkpt><trkpt lat="43.592425" lon="11.2544017"><ele>449.50000000000006</ele><time>2026-04-20T10:48:34.906Z</time></trkpt><trkpt lat="43.5923933" lon="11.2542933"><ele>451.0</ele><time>2026-04-20T10:48:35.906Z</time></trkpt><trkpt lat="43.59236" lon="11.25418"><ele>451.0</ele><time>2026-04-20T10:48:36.906Z</time></trkpt><trkpt lat="43.5923267" lon="11.25407"><ele>451.0</ele><time>2026-04-20T10:48:37.906Z</time></trkpt><trkpt lat="43.5922933" lon="11.2539567"><ele>451.0</ele><time>2026-04-20T10:48:38.906Z</time></trkpt><trkpt lat="43.5922533" lon="11.2538383"><ele>451.0</ele><time>2026-04-20T10:48:39.907Z</time></trkpt><trkpt lat="43.5922167" lon="11.2537167"><ele>451.0</ele><time>2026-04-20T10:48:40.906Z</time></trkpt><trkpt lat="43.5921667" lon="11.2536067"><ele>451.6</ele><time>2026-04-20T10:48:41.907Z</time></trkpt><trkpt lat="43.5921267" lon="11.25349"><ele>452.20000000000005</ele><time>2026-04-20T10:48:42.906Z</time></trkpt><trkpt lat="43.5920833" lon="11.2533767"><ele>452.79999999999995</ele><time>2026-04-20T10:48:43.906Z</time></trkpt><trkpt lat="43.5920517" lon="11.2532567"><ele>453.4</ele><time>2026-04-20T10:48:44.907Z</time></trkpt><trkpt lat="43.5920133" lon="11.2531433"><ele>454.0</ele><time>2026-04-20T10:48:45.906Z</time></trkpt><trkpt lat="43.5919717" lon="11.2530283"><ele>450.33333333333337</ele><time>2026-04-20T10:48:46.906Z</time></trkpt><trkpt lat="43.5919333" lon="11.25292"><ele>446.6666666666667</ele><time>2026-04-20T10:48:47.907Z</time></trkpt><trkpt lat="43.5919067" lon="11.2528067"><ele>443.0</ele><time>2026-04-20T10:48:48.906Z</time></trkpt><trkpt lat="43.5918717" lon="11.2526917"><ele>439.33333333333337</ele><time>2026-04-20T10:48:49.906Z</time></trkpt><trkpt lat="43.59183" lon="11.2525767"><ele>435.6666666666667</ele><time>2026-04-20T10:48:50.907Z</time></trkpt><trkpt lat="43.5917917" lon="11.252465"><ele>432.0</ele><time>2026-04-20T10:48:51.906Z</time></trkpt><trkpt lat="43.5917483" lon="11.2523583"><ele>431.6666666666667</ele><time>2026-04-20T10:48:52.906Z</time></trkpt><trkpt lat="43.591705" lon="11.2522633"><ele>431.33333333333337</ele><time>2026-04-20T10:48:53.906Z</time></trkpt><trkpt lat="43.59166" lon="11.2521717"><ele>431.0</ele><time>2026-04-20T10:48:54.906Z</time></trkpt><trkpt lat="43.5916233" lon="11.252075"><ele>430.6666666666667</ele><time>2026-04-20T10:48:55.906Z</time></trkpt><trkpt lat="43.591595" lon="11.2519867"><ele>430.33333333333337</ele><time>2026-04-20T10:48:56.907Z</time></trkpt><trkpt lat="43.5915783" lon="11.2518833"><ele>430.0</ele><time>2026-04-20T10:48:57.906Z</time></trkpt><trkpt lat="43.5915733" lon="11.25178"><ele>430.00000000000006</ele><time>2026-04-20T10:48:58.906Z</time></trkpt><trkpt lat="43.5915733" lon="11.2516733"><ele>430.0</ele><time>2026-04-20T10:48:59.906Z</time></trkpt><trkpt lat="43.5915817" lon="11.251555"><ele>430.0</ele><time>2026-04-20T10:49:00.906Z</time></trkpt><trkpt lat="43.59159" lon="11.25144"><ele>430.0</ele><time>2026-04-20T10:49:01.906Z</time></trkpt><trkpt lat="43.591595" lon="11.2513217"><ele>430.00000000000006</ele><time>2026-04-20T10:49:02.907Z</time></trkpt><trkpt lat="43.5916033" lon="11.2511967"><ele>430.0</ele><time>2026-04-20T10:49:03.907Z</time></trkpt><trkpt lat="43.591615" lon="11.25107"><ele>429.1666666666667</ele><time>2026-04-20T10:49:04.906Z</time></trkpt><trkpt lat="43.5916217" lon="11.2509517"><ele>428.33333333333337</ele><time>2026-04-20T10:49:05.906Z</time></trkpt><trkpt lat="43.591615" lon="11.2508283"><ele>427.5</ele><time>2026-04-20T10:49:06.906Z</time></trkpt><trkpt lat="43.5916033" lon="11.2507117"><ele>426.66666666666663</ele><time>2026-04-20T10:49:07.906Z</time></trkpt><trkpt lat="43.591575" lon="11.2505933"><ele>425.8333333333333</ele><time>2026-04-20T10:49:08.906Z</time></trkpt><trkpt lat="43.59154" lon="11.2504833"><ele>425.0</ele><time>2026-04-20T10:49:09.907Z</time></trkpt><trkpt lat="43.591505" lon="11.2503767"><ele>422.8</ele><time>2026-04-20T10:49:10.907Z</time></trkpt><trkpt lat="43.59146" lon="11.2502633"><ele>420.6</ele><time>2026-04-20T10:49:11.906Z</time></trkpt><trkpt lat="43.59142" lon="11.250155"><ele>418.4</ele><time>2026-04-20T10:49:12.906Z</time></trkpt><trkpt lat="43.5913733" lon="11.2500367"><ele>416.2</ele><time>2026-04-20T10:49:13.906Z</time></trkpt><trkpt lat="43.5913333" lon="11.2499217"><ele>414.0</ele><time>2026-04-20T10:49:14.906Z</time></trkpt><trkpt lat="43.5913" lon="11.2498067"><ele>411.4</ele><time>2026-04-20T10:49:15.906Z</time></trkpt><trkpt lat="43.5912667" lon="11.2497033"><ele>408.79999999999995</ele><time>2026-04-20T10:49:16.907Z</time></trkpt><trkpt lat="43.59123" lon="11.2496067"><ele>406.20000000000005</ele><time>2026-04-20T10:49:17.906Z</time></trkpt><trkpt lat="43.5911983" lon="11.249525"><ele>403.6</ele><time>2026-04-20T10:49:18.906Z</time></trkpt><trkpt lat="43.5911567" lon="11.2493767"><ele>401.0</ele><time>2026-04-20T10:49:20.906Z</time></trkpt><trkpt lat="43.59115" lon="11.2492183"><ele>400.99999999999994</ele><time>2026-04-20T10:49:22.906Z</time></trkpt><trkpt lat="43.5912183" lon="11.24907"><ele>401.0</ele><time>2026-04-20T10:49:24.906Z</time></trkpt><trkpt lat="43.5912717" lon="11.2490233"><ele>401.0</ele><time>2026-04-20T10:49:25.906Z</time></trkpt><trkpt lat="43.5913383" lon="11.2489983"><ele>401.0</ele><time>2026-04-20T10:49:26.906Z</time></trkpt><trkpt lat="43.5914167" lon="11.2489817"><ele>400.99999999999994</ele><time>2026-04-20T10:49:27.906Z</time></trkpt><trkpt lat="43.5914983" lon="11.2489683"><ele>401.0</ele><time>2026-04-20T10:49:28.907Z</time></trkpt><trkpt lat="43.591585" lon="11.2489467"><ele>398.0</ele><time>2026-04-20T10:49:29.906Z</time></trkpt><trkpt lat="43.59167" lon="11.24892"><ele>395.0</ele><time>2026-04-20T10:49:30.906Z</time></trkpt><trkpt lat="43.59176" lon="11.2488833"><ele>392.0</ele><time>2026-04-20T10:49:31.906Z</time></trkpt><trkpt lat="43.5918533" lon="11.2488417"><ele>389.0</ele><time>2026-04-20T10:49:32.906Z</time></trkpt><trkpt lat="43.591945" lon="11.248795"><ele>386.0</ele><time>2026-04-20T10:49:33.906Z</time></trkpt><trkpt lat="43.59204" lon="11.2487533"><ele>385.20000000000005</ele><time>2026-04-20T10:49:34.906Z</time></trkpt><trkpt lat="43.5921317" lon="11.248715"><ele>384.40000000000003</ele><time>2026-04-20T10:49:35.906Z</time></trkpt><trkpt lat="43.5922183" lon="11.24867"><ele>383.6</ele><time>2026-04-20T10:49:36.906Z</time></trkpt><trkpt lat="43.5923067" lon="11.24862"><ele>382.8</ele><time>2026-04-20T10:49:37.906Z</time></trkpt><trkpt lat="43.59239" lon="11.2485683"><ele>382.0</ele><time>2026-04-20T10:49:38.906Z</time></trkpt><trkpt lat="43.5924717" lon="11.2485217"><ele>382.0</ele><time>2026-04-20T10:49:39.906Z</time></trkpt><trkpt lat="43.59255" lon="11.2484783"><ele>382.0</ele><time>2026-04-20T10:49:40.906Z</time></trkpt><trkpt lat="43.59263" lon="11.24843"><ele>382.0</ele><time>2026-04-20T10:49:41.906Z</time></trkpt><trkpt lat="43.592705" lon="11.248385"><ele>382.0</ele><time>2026-04-20T10:49:42.906Z</time></trkpt><trkpt lat="43.5927783" lon="11.2483333"><ele>382.0</ele><time>2026-04-20T10:49:43.906Z</time></trkpt><trkpt lat="43.592855" lon="11.2482817"><ele>382.0</ele><time>2026-04-20T10:49:44.907Z</time></trkpt><trkpt lat="43.59292" lon="11.2482217"><ele>382.5</ele><time>2026-04-20T10:49:45.906Z</time></trkpt><trkpt lat="43.5929917" lon="11.248155"><ele>383.0</ele><time>2026-04-20T10:49:46.906Z</time></trkpt><trkpt lat="43.593065" lon="11.2480917"><ele>383.5</ele><time>2026-04-20T10:49:47.906Z</time></trkpt><trkpt lat="43.5931283" lon="11.2480283"><ele>384.0</ele><time>2026-04-20T10:49:48.906Z</time></trkpt><trkpt lat="43.5931783" lon="11.247975"><ele>384.50000000000006</ele><time>2026-04-20T10:49:49.906Z</time></trkpt><trkpt lat="43.5932367" lon="11.2478617"><ele>385.0</ele><time>2026-04-20T10:49:51.906Z</time></trkpt><trkpt lat="43.593245" lon="11.2477317"><ele>381.2</ele><time>2026-04-20T10:49:53.906Z</time></trkpt><trkpt lat="43.593195" lon="11.247595"><ele>377.4</ele><time>2026-04-20T10:49:55.906Z</time></trkpt><trkpt lat="43.5931167" lon="11.247485"><ele>373.6</ele><time>2026-04-20T10:49:57.906Z</time></trkpt><trkpt lat="43.593085" lon="11.247375"><ele>369.8</ele><time>2026-04-20T10:49:59.906Z</time></trkpt><trkpt lat="43.5931283" lon="11.247245"><ele>366.0</ele><time>2026-04-20T10:50:01.905Z</time></trkpt><trkpt lat="43.59318" lon="11.2471883"><ele>363.8571428571429</ele><time>2026-04-20T10:50:02.905Z</time></trkpt><trkpt lat="43.5932467" lon="11.2471567"><ele>361.7142857142857</ele><time>2026-04-20T10:50:03.905Z</time></trkpt><trkpt lat="43.593315" lon="11.24715"><ele>359.57142857142856</ele><time>2026-04-20T10:50:04.906Z</time></trkpt><trkpt lat="43.59338" lon="11.2471617"><ele>357.42857142857144</ele><time>2026-04-20T10:50:05.906Z</time></trkpt><trkpt lat="43.5934467" lon="11.24718"><ele>355.2857142857143</ele><time>2026-04-20T10:50:06.906Z</time></trkpt><trkpt lat="43.5935183" lon="11.247205"><ele>353.14285714285717</ele><time>2026-04-20T10:50:07.905Z</time></trkpt><trkpt lat="43.59359" lon="11.2472333"><ele>351.0</ele><time>2026-04-20T10:50:08.905Z</time></trkpt><trkpt lat="43.5936633" lon="11.2472667"><ele>353.0</ele><time>2026-04-20T10:50:09.905Z</time></trkpt><trkpt lat="43.5937433" lon="11.2473083"><ele>355.0</ele><time>2026-04-20T10:50:10.905Z</time></trkpt><trkpt lat="43.5938317" lon="11.2473483"><ele>357.0</ele><time>2026-04-20T10:50:11.905Z</time></trkpt><trkpt lat="43.5939083" lon="11.2473917"><ele>359.0</ele><time>2026-04-20T10:50:12.905Z</time></trkpt><trkpt lat="43.5939867" lon="11.2474367"><ele>361.0</ele><time>2026-04-20T10:50:13.905Z</time></trkpt><trkpt lat="43.5940617" lon="11.2474817"><ele>363.0</ele><time>2026-04-20T10:50:14.905Z</time></trkpt><trkpt lat="43.5941383" lon="11.2475217"><ele>363.0</ele><time>2026-04-20T10:50:15.905Z</time></trkpt><trkpt lat="43.5942183" lon="11.2475583"><ele>363.0</ele><time>2026-04-20T10:50:16.905Z</time></trkpt><trkpt lat="43.5943" lon="11.2475933"><ele>363.0</ele><time>2026-04-20T10:50:17.906Z</time></trkpt><trkpt lat="43.594385" lon="11.24762"><ele>363.0</ele><time>2026-04-20T10:50:18.905Z</time></trkpt><trkpt lat="43.5944683" lon="11.2476333"><ele>363.0</ele><time>2026-04-20T10:50:19.905Z</time></trkpt><trkpt lat="43.5945483" lon="11.24763"><ele>363.0</ele><time>2026-04-20T10:50:20.905Z</time></trkpt><trkpt lat="43.59463" lon="11.2476067"><ele>363.0</ele><time>2026-04-20T10:50:21.905Z</time></trkpt><trkpt lat="43.5947017" lon="11.24756"><ele>363.0</ele><time>2026-04-20T10:50:22.905Z</time></trkpt><trkpt lat="43.594775" lon="11.2475117"><ele>363.0</ele><time>2026-04-20T10:50:23.905Z</time></trkpt><trkpt lat="43.594855" lon="11.24745"><ele>363.0</ele><time>2026-04-20T10:50:24.905Z</time></trkpt><trkpt lat="43.5949333" lon="11.247385"><ele>363.0</ele><time>2026-04-20T10:50:25.905Z</time></trkpt><trkpt lat="43.595005" lon="11.2473183"><ele>363.0</ele><time>2026-04-20T10:50:26.905Z</time></trkpt><trkpt lat="43.5950683" lon="11.2472533"><ele>361.59999999999997</ele><time>2026-04-20T10:50:27.905Z</time></trkpt><trkpt lat="43.59512" lon="11.2472"><ele>360.2</ele><time>2026-04-20T10:50:28.905Z</time></trkpt><trkpt lat="43.5951933" lon="11.2470867"><ele>358.8</ele><time>2026-04-20T10:50:30.905Z</time></trkpt><trkpt lat="43.595225" lon="11.2469333"><ele>357.4</ele><time>2026-04-20T10:50:32.906Z</time></trkpt><trkpt lat="43.59523" lon="11.2468283"><ele>356.0</ele><time>2026-04-20T10:50:33.905Z</time></trkpt><trkpt lat="43.5952317" lon="11.2467067"><ele>356.0</ele><time>2026-04-20T10:50:34.905Z</time></trkpt><trkpt lat="43.5952367" lon="11.246565"><ele>356.0</ele><time>2026-04-20T10:50:35.905Z</time></trkpt><trkpt lat="43.59525" lon="11.2464133"><ele>356.0</ele><time>2026-04-20T10:50:36.905Z</time></trkpt><trkpt lat="43.5952567" lon="11.2462633"><ele>356.0</ele><time>2026-04-20T10:50:37.906Z</time></trkpt><trkpt lat="43.5952633" lon="11.2461133"><ele>356.0</ele><time>2026-04-20T10:50:38.905Z</time></trkpt><trkpt lat="43.5952767" lon="11.2459633"><ele>356.0</ele><time>2026-04-20T10:50:39.906Z</time></trkpt><trkpt lat="43.595275" lon="11.2458117"><ele>356.0</ele><time>2026-04-20T10:50:40.905Z</time></trkpt><trkpt lat="43.5952667" lon="11.245675"><ele>356.0</ele><time>2026-04-20T10:50:41.906Z</time></trkpt><trkpt lat="43.5952467" lon="11.2455467"><ele>356.0</ele><time>2026-04-20T10:50:42.905Z</time></trkpt><trkpt lat="43.5952183" lon="11.2454133"><ele>356.0</ele><time>2026-04-20T10:50:43.905Z</time></trkpt><trkpt lat="43.59519" lon="11.2452783"><ele>357.4</ele><time>2026-04-20T10:50:44.906Z</time></trkpt><trkpt lat="43.5951717" lon="11.24515"><ele>358.8</ele><time>2026-04-20T10:50:45.905Z</time></trkpt><trkpt lat="43.5951633" lon="11.2450267"><ele>360.2</ele><time>2026-04-20T10:50:46.905Z</time></trkpt><trkpt lat="43.5951617" lon="11.2449183"><ele>361.59999999999997</ele><time>2026-04-20T10:50:47.905Z</time></trkpt><trkpt lat="43.5951383" lon="11.2447683"><ele>363.0</ele><time>2026-04-20T10:50:49.905Z</time></trkpt><trkpt lat="43.5950533" lon="11.2446583"><ele>363.1428571428571</ele><time>2026-04-20T10:50:51.905Z</time></trkpt><trkpt lat="43.5949583" lon="11.2445567"><ele>363.2857142857143</ele><time>2026-04-20T10:50:53.905Z</time></trkpt><trkpt lat="43.59491" lon="11.2444967"><ele>363.42857142857144</ele><time>2026-04-20T10:50:54.905Z</time></trkpt><trkpt lat="43.5948667" lon="11.2444317"><ele>363.57142857142856</ele><time>2026-04-20T10:50:55.906Z</time></trkpt><trkpt lat="43.5948217" lon="11.24437"><ele>363.7142857142857</ele><time>2026-04-20T10:50:56.905Z</time></trkpt><trkpt lat="43.5947767" lon="11.2443017"><ele>363.85714285714283</ele><time>2026-04-20T10:50:57.906Z</time></trkpt><trkpt lat="43.59473" lon="11.2442383"><ele>364.0</ele><time>2026-04-20T10:50:58.905Z</time></trkpt><trkpt lat="43.5946833" lon="11.24416"><ele>364.0</ele><time>2026-04-20T10:50:59.906Z</time></trkpt><trkpt lat="43.5946433" lon="11.2440833"><ele>364.0</ele><time>2026-04-20T10:51:00.905Z</time></trkpt><trkpt lat="43.5946033" lon="11.243985"><ele>364.0</ele><time>2026-04-20T10:51:01.905Z</time></trkpt><trkpt lat="43.5945667" lon="11.2438917"><ele>364.0</ele><time>2026-04-20T10:51:02.905Z</time></trkpt><trkpt lat="43.5945317" lon="11.243795"><ele>364.0</ele><time>2026-04-20T10:51:03.905Z</time></trkpt><trkpt lat="43.5945067" lon="11.2437033"><ele>364.0</ele><time>2026-04-20T10:51:04.905Z</time></trkpt><trkpt lat="43.5944817" lon="11.2436067"><ele>363.0</ele><time>2026-04-20T10:51:05.905Z</time></trkpt><trkpt lat="43.5944533" lon="11.2435067"><ele>362.0</ele><time>2026-04-20T10:51:06.905Z</time></trkpt><trkpt lat="43.5944317" lon="11.2434117"><ele>361.0</ele><time>2026-04-20T10:51:07.905Z</time></trkpt><trkpt lat="43.5944217" lon="11.2433"><ele>360.0</ele><time>2026-04-20T10:51:08.906Z</time></trkpt><trkpt lat="43.594415" lon="11.24318"><ele>359.0</ele><time>2026-04-20T10:51:09.905Z</time></trkpt><trkpt lat="43.5944233" lon="11.243055"><ele>358.0</ele><time>2026-04-20T10:51:10.905Z</time></trkpt><trkpt lat="43.5944517" lon="11.24293"><ele>355.79999999999995</ele><time>2026-04-20T10:51:11.905Z</time></trkpt><trkpt lat="43.59449" lon="11.242805"><ele>353.6</ele><time>2026-04-20T10:51:12.906Z</time></trkpt><trkpt lat="43.5945283" lon="11.2426867"><ele>351.4</ele><time>2026-04-20T10:51:13.906Z</time></trkpt><trkpt lat="43.5945683" lon="11.24256"><ele>349.20000000000005</ele><time>2026-04-20T10:51:14.905Z</time></trkpt><trkpt lat="43.5946083" lon="11.24244"><ele>347.0</ele><time>2026-04-20T10:51:15.905Z</time></trkpt><trkpt lat="43.59465" lon="11.242315"><ele>345.20000000000005</ele><time>2026-04-20T10:51:16.905Z</time></trkpt><trkpt lat="43.594695" lon="11.2421833"><ele>343.4</ele><time>2026-04-20T10:51:17.906Z</time></trkpt><trkpt lat="43.5947367" lon="11.2420533"><ele>341.6</ele><time>2026-04-20T10:51:18.905Z</time></trkpt><trkpt lat="43.594775" lon="11.2419233"><ele>339.79999999999995</ele><time>2026-04-20T10:51:19.906Z</time></trkpt><trkpt lat="43.5948067" lon="11.2417917"><ele>338.0</ele><time>2026-04-20T10:51:20.905Z</time></trkpt><trkpt lat="43.5948417" lon="11.2416667"><ele>338.0</ele><time>2026-04-20T10:51:21.905Z</time></trkpt><trkpt lat="43.59488" lon="11.24154"><ele>338.0</ele><time>2026-04-20T10:51:22.905Z</time></trkpt><trkpt lat="43.5949017" lon="11.24141"><ele>338.0</ele><time>2026-04-20T10:51:23.905Z</time></trkpt><trkpt lat="43.5949117" lon="11.2412683"><ele>338.0</ele><time>2026-04-20T10:51:24.905Z</time></trkpt><trkpt lat="43.5949167" lon="11.24111"><ele>338.0</ele><time>2026-04-20T10:51:25.905Z</time></trkpt><trkpt lat="43.5949133" lon="11.2409517"><ele>337.0</ele><time>2026-04-20T10:51:26.906Z</time></trkpt><trkpt lat="43.5949033" lon="11.2407867"><ele>336.0</ele><time>2026-04-20T10:51:27.905Z</time></trkpt><trkpt lat="43.5948883" lon="11.2406267"><ele>335.0</ele><time>2026-04-20T10:51:28.905Z</time></trkpt><trkpt lat="43.594875" lon="11.24047"><ele>334.0</ele><time>2026-04-20T10:51:29.905Z</time></trkpt><trkpt lat="43.59486" lon="11.2403067"><ele>332.5</ele><time>2026-04-20T10:51:30.905Z</time></trkpt><trkpt lat="43.5948383" lon="11.240145"><ele>331.0</ele><time>2026-04-20T10:51:31.905Z</time></trkpt><trkpt lat="43.5948117" lon="11.2399833"><ele>329.5</ele><time>2026-04-20T10:51:32.905Z</time></trkpt><trkpt lat="43.5947967" lon="11.239815"><ele>328.0</ele><time>2026-04-20T10:51:33.905Z</time></trkpt><trkpt lat="43.5947817" lon="11.239655"><ele>327.25</ele><time>2026-04-20T10:51:34.905Z</time></trkpt><trkpt lat="43.5947633" lon="11.239495"><ele>326.5</ele><time>2026-04-20T10:51:35.905Z</time></trkpt><trkpt lat="43.5947517" lon="11.239335"><ele>325.75</ele><time>2026-04-20T10:51:36.905Z</time></trkpt><trkpt lat="43.59474" lon="11.2391733"><ele>325.0</ele><time>2026-04-20T10:51:37.906Z</time></trkpt><trkpt lat="43.59473" lon="11.239015"><ele>324.4</ele><time>2026-04-20T10:51:38.905Z</time></trkpt><trkpt lat="43.59472" lon="11.238855"><ele>323.8</ele><time>2026-04-20T10:51:39.905Z</time></trkpt><trkpt lat="43.5947133" lon="11.2387"><ele>323.20000000000005</ele><time>2026-04-20T10:51:40.905Z</time></trkpt><trkpt lat="43.594685" lon="11.23856"><ele>322.6</ele><time>2026-04-20T10:51:41.905Z</time></trkpt><trkpt lat="43.59464" lon="11.2384267"><ele>322.0</ele><time>2026-04-20T10:51:42.905Z</time></trkpt><trkpt lat="43.5945867" lon="11.238305"><ele>322.0</ele><time>2026-04-20T10:51:43.905Z</time></trkpt><trkpt lat="43.5945317" lon="11.23819"><ele>322.0</ele><time>2026-04-20T10:51:44.905Z</time></trkpt><trkpt lat="43.594475" lon="11.2380683"><ele>322.0</ele><time>2026-04-20T10:51:45.906Z</time></trkpt><trkpt lat="43.5944267" lon="11.2379433"><ele>322.0</ele><time>2026-04-20T10:51:46.905Z</time></trkpt><trkpt lat="43.5943883" lon="11.2378117"><ele>322.0</ele><time>2026-04-20T10:51:47.905Z</time></trkpt><trkpt lat="43.5943567" lon="11.237665"><ele>323.0</ele><time>2026-04-20T10:51:48.905Z</time></trkpt><trkpt lat="43.5943283" lon="11.23752"><ele>324.0</ele><time>2026-04-20T10:51:49.905Z</time></trkpt><trkpt lat="43.5943017" lon="11.2373767"><ele>325.0</ele><time>2026-04-20T10:51:50.905Z</time></trkpt><trkpt lat="43.5942867" lon="11.2372283"><ele>326.0</ele><time>2026-04-20T10:51:51.905Z</time></trkpt><trkpt lat="43.594285" lon="11.2370683"><ele>327.0</ele><time>2026-04-20T10:51:52.905Z</time></trkpt><trkpt lat="43.5942883" lon="11.2368983"><ele>327.0</ele><time>2026-04-20T10:51:53.905Z</time></trkpt><trkpt lat="43.594295" lon="11.2367467"><ele>327.0</ele><time>2026-04-20T10:51:54.906Z</time></trkpt><trkpt lat="43.5943117" lon="11.23659"><ele>327.0</ele><time>2026-04-20T10:51:55.905Z</time></trkpt><trkpt lat="43.5943383" lon="11.2364433"><ele>327.0</ele><time>2026-04-20T10:51:56.905Z</time></trkpt><trkpt lat="43.59437" lon="11.2363017"><ele>327.0</ele><time>2026-04-20T10:51:57.905Z</time></trkpt><trkpt lat="43.5944033" lon="11.2361483"><ele>326.40000000000003</ele><time>2026-04-20T10:51:58.905Z</time></trkpt><trkpt lat="43.59444" lon="11.235995"><ele>325.8</ele><time>2026-04-20T10:51:59.905Z</time></trkpt><trkpt lat="43.5944733" lon="11.235855"><ele>325.2</ele><time>2026-04-20T10:52:00.905Z</time></trkpt><trkpt lat="43.5945083" lon="11.23571"><ele>324.6</ele><time>2026-04-20T10:52:01.905Z</time></trkpt><trkpt lat="43.594535" lon="11.235565"><ele>324.0</ele><time>2026-04-20T10:52:02.905Z</time></trkpt><trkpt lat="43.594555" lon="11.23541"><ele>323.6</ele><time>2026-04-20T10:52:03.905Z</time></trkpt><trkpt lat="43.59457" lon="11.2352617"><ele>323.2</ele><time>2026-04-20T10:52:04.906Z</time></trkpt><trkpt lat="43.594585" lon="11.23511"><ele>322.8</ele><time>2026-04-20T10:52:05.905Z</time></trkpt><trkpt lat="43.5946067" lon="11.2349617"><ele>322.40000000000003</ele><time>2026-04-20T10:52:06.905Z</time></trkpt><trkpt lat="43.594635" lon="11.2348183"><ele>322.0</ele><time>2026-04-20T10:52:07.905Z</time></trkpt><trkpt lat="43.5946633" lon="11.2346767"><ele>321.8</ele><time>2026-04-20T10:52:08.905Z</time></trkpt><trkpt lat="43.5947" lon="11.23454"><ele>321.6</ele><time>2026-04-20T10:52:09.906Z</time></trkpt><trkpt lat="43.5947333" lon="11.2344"><ele>321.40000000000003</ele><time>2026-04-20T10:52:10.905Z</time></trkpt><trkpt lat="43.5947667" lon="11.2342483"><ele>321.20000000000005</ele><time>2026-04-20T10:52:11.905Z</time></trkpt><trkpt lat="43.594795" lon="11.234095"><ele>321.0</ele><time>2026-04-20T10:52:12.905Z</time></trkpt><trkpt lat="43.5948317" lon="11.23394"><ele>321.0</ele><time>2026-04-20T10:52:13.905Z</time></trkpt><trkpt lat="43.5948683" lon="11.233785"><ele>321.0</ele><time>2026-04-20T10:52:14.906Z</time></trkpt><trkpt lat="43.594915" lon="11.23363"><ele>321.0</ele><time>2026-04-20T10:52:15.905Z</time></trkpt><trkpt lat="43.5949567" lon="11.233475"><ele>321.0</ele><time>2026-04-20T10:52:16.905Z</time></trkpt><trkpt lat="43.5950017" lon="11.2333283"><ele>321.0</ele><time>2026-04-20T10:52:17.905Z</time></trkpt><trkpt lat="43.5950467" lon="11.23318"><ele>321.0</ele><time>2026-04-20T10:52:18.906Z</time></trkpt><trkpt lat="43.5950883" lon="11.2330383"><ele>321.0</ele><time>2026-04-20T10:52:19.905Z</time></trkpt><trkpt lat="43.59513" lon="11.2328933"><ele>321.0</ele><time>2026-04-20T10:52:20.905Z</time></trkpt><trkpt lat="43.59518" lon="11.2327517"><ele>320.8</ele><time>2026-04-20T10:52:21.906Z</time></trkpt><trkpt lat="43.595225" lon="11.2326217"><ele>320.6</ele><time>2026-04-20T10:52:22.905Z</time></trkpt><trkpt lat="43.5952783" lon="11.2325"><ele>320.4</ele><time>2026-04-20T10:52:23.905Z</time></trkpt><trkpt lat="43.5953317" lon="11.23239"><ele>320.2</ele><time>2026-04-20T10:52:24.905Z</time></trkpt><trkpt lat="43.5953917" lon="11.2322917"><ele>320.0</ele><time>2026-04-20T10:52:25.905Z</time></trkpt><trkpt lat="43.595445" lon="11.2321783"><ele>320.0</ele><time>2026-04-20T10:52:26.905Z</time></trkpt><trkpt lat="43.5955017" lon="11.23206"><ele>320.0</ele><time>2026-04-20T10:52:27.905Z</time></trkpt><trkpt lat="43.59556" lon="11.2319417"><ele>320.0</ele><time>2026-04-20T10:52:28.905Z</time></trkpt><trkpt lat="43.59562" lon="11.231835"><ele>320.0</ele><time>2026-04-20T10:52:29.905Z</time></trkpt><trkpt lat="43.59569" lon="11.2317333"><ele>320.0</ele><time>2026-04-20T10:52:30.905Z</time></trkpt><trkpt lat="43.5957633" lon="11.2316383"><ele>320.0</ele><time>2026-04-20T10:52:31.906Z</time></trkpt><trkpt lat="43.595845" lon="11.2315317"><ele>320.0</ele><time>2026-04-20T10:52:32.905Z</time></trkpt><trkpt lat="43.5959317" lon="11.231425"><ele>320.0</ele><time>2026-04-20T10:52:33.905Z</time></trkpt><trkpt lat="43.5960217" lon="11.2313267"><ele>320.0</ele><time>2026-04-20T10:52:34.905Z</time></trkpt><trkpt lat="43.5961033" lon="11.231215"><ele>317.5</ele><time>2026-04-20T10:52:35.905Z</time></trkpt><trkpt lat="43.5961883" lon="11.2311117"><ele>315.0</ele><time>2026-04-20T10:52:36.905Z</time></trkpt><trkpt lat="43.59627" lon="11.23099"><ele>312.5</ele><time>2026-04-20T10:52:37.905Z</time></trkpt><trkpt lat="43.5963533" lon="11.2308783"><ele>310.0</ele><time>2026-04-20T10:52:38.906Z</time></trkpt><trkpt lat="43.5964433" lon="11.2307717"><ele>310.0</ele><time>2026-04-20T10:52:39.905Z</time></trkpt><trkpt lat="43.5965233" lon="11.23065"><ele>310.0</ele><time>2026-04-20T10:52:40.906Z</time></trkpt><trkpt lat="43.5966083" lon="11.2305367"><ele>310.0</ele><time>2026-04-20T10:52:41.906Z</time></trkpt><trkpt lat="43.5966983" lon="11.230425"><ele>310.0</ele><time>2026-04-20T10:52:42.905Z</time></trkpt><trkpt lat="43.5967833" lon="11.2303183"><ele>308.75</ele><time>2026-04-20T10:52:43.906Z</time></trkpt><trkpt lat="43.596875" lon="11.2301967"><ele>307.5</ele><time>2026-04-20T10:52:44.905Z</time></trkpt><trkpt lat="43.5969667" lon="11.2300767"><ele>306.25</ele><time>2026-04-20T10:52:45.905Z</time></trkpt><trkpt lat="43.5970567" lon="11.22996"><ele>305.0</ele><time>2026-04-20T10:52:46.905Z</time></trkpt><trkpt lat="43.5971417" lon="11.2298433"><ele>304.5</ele><time>2026-04-20T10:52:47.906Z</time></trkpt><trkpt lat="43.5972317" lon="11.229735"><ele>304.0</ele><time>2026-04-20T10:52:48.905Z</time></trkpt><trkpt lat="43.5973083" lon="11.2296183"><ele>303.5</ele><time>2026-04-20T10:52:49.905Z</time></trkpt><trkpt lat="43.5973867" lon="11.2295033"><ele>303.0</ele><time>2026-04-20T10:52:50.905Z</time></trkpt><trkpt lat="43.5974667" lon="11.2293883"><ele>303.0</ele><time>2026-04-20T10:52:51.905Z</time></trkpt><trkpt lat="43.5975467" lon="11.2292817"><ele>303.0</ele><time>2026-04-20T10:52:52.905Z</time></trkpt><trkpt lat="43.59762" lon="11.2291683"><ele>303.0</ele><time>2026-04-20T10:52:53.905Z</time></trkpt><trkpt lat="43.59769" lon="11.2290767"><ele>303.0</ele><time>2026-04-20T10:52:54.905Z</time></trkpt><trkpt lat="43.5977483" lon="11.2289883"><ele>303.0</ele><time>2026-04-20T10:52:55.905Z</time></trkpt><trkpt lat="43.5977967" lon="11.22891"><ele>302.5</ele><time>2026-04-20T10:52:56.905Z</time></trkpt><trkpt lat="43.5978417" lon="11.2288433"><ele>302.0</ele><time>2026-04-20T10:52:57.906Z</time></trkpt><trkpt lat="43.5979267" lon="11.22872"><ele>301.5</ele><time>2026-04-20T10:52:59.905Z</time></trkpt><trkpt lat="43.5979733" lon="11.2286467"><ele>301.0</ele><time>2026-04-20T10:53:00.905Z</time></trkpt><trkpt lat="43.59803" lon="11.2285517"><ele>300.5</ele><time>2026-04-20T10:53:01.905Z</time></trkpt><trkpt lat="43.5980817" lon="11.22845"><ele>300.0</ele><time>2026-04-20T10:53:02.905Z</time></trkpt><trkpt lat="43.5981383" lon="11.2283417"><ele>300.0</ele><time>2026-04-20T10:53:03.905Z</time></trkpt><trkpt lat="43.598195" lon="11.2282417"><ele>300.0</ele><time>2026-04-20T10:53:04.905Z</time></trkpt><trkpt lat="43.5982583" lon="11.2281417"><ele>300.0</ele><time>2026-04-20T10:53:05.906Z</time></trkpt><trkpt lat="43.598325" lon="11.228045"><ele>300.0</ele><time>2026-04-20T10:53:06.905Z</time></trkpt><trkpt lat="43.598385" lon="11.2279633"><ele>300.0</ele><time>2026-04-20T10:53:07.906Z</time></trkpt><trkpt lat="43.5984367" lon="11.22789"><ele>300.0</ele><time>2026-04-20T10:53:08.905Z</time></trkpt><trkpt lat="43.5984783" lon="11.22775"><ele>300.2</ele><time>2026-04-20T10:53:10.905Z</time></trkpt><trkpt lat="43.5984367" lon="11.2275783"><ele>300.4</ele><time>2026-04-20T10:53:12.905Z</time></trkpt><trkpt lat="43.5983767" lon="11.2274767"><ele>300.6</ele><time>2026-04-20T10:53:13.905Z</time></trkpt><trkpt lat="43.5983083" lon="11.22737"><ele>300.8</ele><time>2026-04-20T10:53:14.905Z</time></trkpt><trkpt lat="43.59824" lon="11.2272633"><ele>301.0</ele><time>2026-04-20T10:53:15.905Z</time></trkpt><trkpt lat="43.5981617" lon="11.2271517"><ele>301.0</ele><time>2026-04-20T10:53:16.906Z</time></trkpt><trkpt lat="43.598075" lon="11.2270383"><ele>301.0</ele><time>2026-04-20T10:53:17.906Z</time></trkpt><trkpt lat="43.5979883" lon="11.2269283"><ele>301.0</ele><time>2026-04-20T10:53:18.905Z</time></trkpt><trkpt lat="43.5978983" lon="11.22683"><ele>301.0</ele><time>2026-04-20T10:53:19.905Z</time></trkpt><trkpt lat="43.5978067" lon="11.22674"><ele>300.2</ele><time>2026-04-20T10:53:20.906Z</time></trkpt><trkpt lat="43.597715" lon="11.2266483"><ele>299.40000000000003</ele><time>2026-04-20T10:53:21.905Z</time></trkpt><trkpt lat="43.5976267" lon="11.2265667"><ele>298.6</ele><time>2026-04-20T10:53:22.905Z</time></trkpt><trkpt lat="43.5975433" lon="11.2264883"><ele>297.8</ele><time>2026-04-20T10:53:23.905Z</time></trkpt><trkpt lat="43.59746" lon="11.226415"><ele>297.0</ele><time>2026-04-20T10:53:24.905Z</time></trkpt><trkpt lat="43.597385" lon="11.2263317"><ele>296.2</ele><time>2026-04-20T10:53:25.905Z</time></trkpt><trkpt lat="43.5973233" lon="11.226225"><ele>295.4</ele><time>2026-04-20T10:53:26.905Z</time></trkpt><trkpt lat="43.5972717" lon="11.2261033"><ele>294.6</ele><time>2026-04-20T10:53:27.906Z</time></trkpt><trkpt lat="43.5972267" lon="11.22596"><ele>293.8</ele><time>2026-04-20T10:53:28.905Z</time></trkpt><trkpt lat="43.59719" lon="11.2258083"><ele>293.0</ele><time>2026-04-20T10:53:29.905Z</time></trkpt><trkpt lat="43.5971533" lon="11.2256383"><ele>292.25</ele><time>2026-04-20T10:53:30.905Z</time></trkpt><trkpt lat="43.59711" lon="11.2254817"><ele>291.5</ele><time>2026-04-20T10:53:31.905Z</time></trkpt><trkpt lat="43.5970567" lon="11.22533"><ele>290.75</ele><time>2026-04-20T10:53:32.905Z</time></trkpt><trkpt lat="43.597" lon="11.2251867"><ele>290.0</ele><time>2026-04-20T10:53:33.905Z</time></trkpt><trkpt lat="43.5969483" lon="11.2250333"><ele>290.0</ele><time>2026-04-20T10:53:34.905Z</time></trkpt><trkpt lat="43.5969083" lon="11.2248733"><ele>290.0</ele><time>2026-04-20T10:53:35.905Z</time></trkpt><trkpt lat="43.5968767" lon="11.2247133"><ele>290.0</ele><time>2026-04-20T10:53:36.905Z</time></trkpt><trkpt lat="43.5968583" lon="11.2245317"><ele>290.0</ele><time>2026-04-20T10:53:37.905Z</time></trkpt><trkpt lat="43.5968467" lon="11.2243467"><ele>290.0</ele><time>2026-04-20T10:53:38.905Z</time></trkpt><trkpt lat="43.5968383" lon="11.22415"><ele>290.0</ele><time>2026-04-20T10:53:39.905Z</time></trkpt><trkpt lat="43.5968317" lon="11.2239533"><ele>290.0</ele><time>2026-04-20T10:53:40.905Z</time></trkpt><trkpt lat="43.5968217" lon="11.2237433"><ele>290.0</ele><time>2026-04-20T10:53:41.905Z</time></trkpt><trkpt lat="43.5968067" lon="11.2235333"><ele>291.0</ele><time>2026-04-20T10:53:42.906Z</time></trkpt><trkpt lat="43.5967883" lon="11.2233267"><ele>292.0</ele><time>2026-04-20T10:53:43.905Z</time></trkpt><trkpt lat="43.5967683" lon="11.2231267"><ele>293.0</ele><time>2026-04-20T10:53:44.905Z</time></trkpt><trkpt lat="43.5967367" lon="11.2229333"><ele>294.0</ele><time>2026-04-20T10:53:45.905Z</time></trkpt><trkpt lat="43.5967133" lon="11.22275"><ele>294.0</ele><time>2026-04-20T10:53:46.905Z</time></trkpt><trkpt lat="43.5966967" lon="11.2225783"><ele>294.0</ele><time>2026-04-20T10:53:47.905Z</time></trkpt><trkpt lat="43.5966767" lon="11.2224083"><ele>294.0</ele><time>2026-04-20T10:53:48.906Z</time></trkpt><trkpt lat="43.5966583" lon="11.2222367"><ele>294.0</ele><time>2026-04-20T10:53:49.905Z</time></trkpt><trkpt lat="43.5966317" lon="11.2220717"><ele>294.0</ele><time>2026-04-20T10:53:50.905Z</time></trkpt><trkpt lat="43.5966" lon="11.221895"><ele>294.0</ele><time>2026-04-20T10:53:51.905Z</time></trkpt><trkpt lat="43.5965517" lon="11.221725"><ele>294.0</ele><time>2026-04-20T10:53:52.905Z</time></trkpt><trkpt lat="43.59649" lon="11.22157"><ele>294.0</ele><time>2026-04-20T10:53:53.905Z</time></trkpt><trkpt lat="43.59642" lon="11.221425"><ele>293.8</ele><time>2026-04-20T10:53:54.905Z</time></trkpt><trkpt lat="43.596355" lon="11.2212883"><ele>293.59999999999997</ele><time>2026-04-20T10:53:55.905Z</time></trkpt><trkpt lat="43.5962917" lon="11.2211617"><ele>293.4</ele><time>2026-04-20T10:53:56.905Z</time></trkpt><trkpt lat="43.59623" lon="11.2210417"><ele>293.2</ele><time>2026-04-20T10:53:57.905Z</time></trkpt><trkpt lat="43.596165" lon="11.22094"><ele>293.0</ele><time>2026-04-20T10:53:58.906Z</time></trkpt><trkpt lat="43.5960883" lon="11.2208533"><ele>293.0</ele><time>2026-04-20T10:53:59.905Z</time></trkpt><trkpt lat="43.5960017" lon="11.22078"><ele>293.0</ele><time>2026-04-20T10:54:00.905Z</time></trkpt><trkpt lat="43.5958967" lon="11.2207217"><ele>293.0</ele><time>2026-04-20T10:54:01.905Z</time></trkpt><trkpt lat="43.595775" lon="11.2206667"><ele>293.0</ele><time>2026-04-20T10:54:02.905Z</time></trkpt><trkpt lat="43.5956533" lon="11.2206"><ele>293.25</ele><time>2026-04-20T10:54:03.905Z</time></trkpt><trkpt lat="43.5955267" lon="11.2205433"><ele>293.5</ele><time>2026-04-20T10:54:04.905Z</time></trkpt><trkpt lat="43.5954" lon="11.2204867"><ele>293.75</ele><time>2026-04-20T10:54:05.905Z</time></trkpt><trkpt lat="43.59528" lon="11.220425"><ele>294.0</ele><time>2026-04-20T10:54:06.905Z</time></trkpt><trkpt lat="43.5951533" lon="11.2203667"><ele>292.0</ele><time>2026-04-20T10:54:07.905Z</time></trkpt><trkpt lat="43.5950133" lon="11.2203117"><ele>290.0</ele><time>2026-04-20T10:54:08.905Z</time></trkpt><trkpt lat="43.5948617" lon="11.2202517"><ele>288.0</ele><time>2026-04-20T10:54:09.905Z</time></trkpt><trkpt lat="43.5947083" lon="11.220205"><ele>288.0</ele><time>2026-04-20T10:54:10.905Z</time></trkpt><trkpt lat="43.5945583" lon="11.2201683"><ele>288.0</ele><time>2026-04-20T10:54:11.905Z</time></trkpt><trkpt lat="43.5944133" lon="11.2201317"><ele>288.0</ele><time>2026-04-20T10:54:12.906Z</time></trkpt><trkpt lat="43.5942783" lon="11.2201"><ele>288.0</ele><time>2026-04-20T10:54:13.905Z</time></trkpt><trkpt lat="43.5941417" lon="11.2200633"><ele>287.25</ele><time>2026-04-20T10:54:14.905Z</time></trkpt><trkpt lat="43.594015" lon="11.220005"><ele>286.5</ele><time>2026-04-20T10:54:15.905Z</time></trkpt><trkpt lat="43.593895" lon="11.2199183"><ele>285.75</ele><time>2026-04-20T10:54:16.906Z</time></trkpt><trkpt lat="43.5937833" lon="11.21982"><ele>285.0</ele><time>2026-04-20T10:54:17.905Z</time></trkpt><trkpt lat="43.5936817" lon="11.2197083"><ele>283.5</ele><time>2026-04-20T10:54:18.906Z</time></trkpt><trkpt lat="43.59359" lon="11.2195867"><ele>282.0</ele><time>2026-04-20T10:54:19.905Z</time></trkpt><trkpt lat="43.5935067" lon="11.2194533"><ele>280.5</ele><time>2026-04-20T10:54:20.905Z</time></trkpt><trkpt lat="43.5934267" lon="11.2193217"><ele>279.0</ele><time>2026-04-20T10:54:21.905Z</time></trkpt><trkpt lat="43.59334" lon="11.2191867"><ele>279.0</ele><time>2026-04-20T10:54:22.905Z</time></trkpt><trkpt lat="43.5932583" lon="11.219055"><ele>279.0</ele><time>2026-04-20T10:54:23.906Z</time></trkpt><trkpt lat="43.59318" lon="11.21892"><ele>279.0</ele><time>2026-04-20T10:54:24.905Z</time></trkpt><trkpt lat="43.5931" lon="11.2187817"><ele>279.0</ele><time>2026-04-20T10:54:25.905Z</time></trkpt><trkpt lat="43.59302" lon="11.21864"><ele>279.5</ele><time>2026-04-20T10:54:26.905Z</time></trkpt><trkpt lat="43.59294" lon="11.2184983"><ele>280.0</ele><time>2026-04-20T10:54:27.905Z</time></trkpt><trkpt lat="43.5928533" lon="11.21836"><ele>280.5</ele><time>2026-04-20T10:54:28.905Z</time></trkpt><trkpt lat="43.5927733" lon="11.21822"><ele>281.0</ele><time>2026-04-20T10:54:29.905Z</time></trkpt><trkpt lat="43.592705" lon="11.2180667"><ele>277.8</ele><time>2026-04-20T10:54:30.905Z</time></trkpt><trkpt lat="43.5926433" lon="11.2179133"><ele>274.6</ele><time>2026-04-20T10:54:31.905Z</time></trkpt><trkpt lat="43.5925917" lon="11.2177633"><ele>271.4</ele><time>2026-04-20T10:54:32.905Z</time></trkpt><trkpt lat="43.5925483" lon="11.217635"><ele>268.2</ele><time>2026-04-20T10:54:33.905Z</time></trkpt><trkpt lat="43.59252" lon="11.2175183"><ele>265.0</ele><time>2026-04-20T10:54:34.905Z</time></trkpt><trkpt lat="43.5925" lon="11.21743"><ele>265.0</ele><time>2026-04-20T10:54:35.905Z</time></trkpt><trkpt lat="43.5924717" lon="11.2173217"><ele>265.0</ele><time>2026-04-20T10:54:37.905Z</time></trkpt><trkpt lat="43.5925217" lon="11.217235"><ele>265.0</ele><time>2026-04-20T10:54:40.905Z</time></trkpt><trkpt lat="43.5925983" lon="11.2172283"><ele>265.0</ele><time>2026-04-20T10:54:42.906Z</time></trkpt><trkpt lat="43.5926683" lon="11.2172367"><ele>265.0</ele><time>2026-04-20T10:54:43.905Z</time></trkpt><trkpt lat="43.5927617" lon="11.2172483"><ele>265.0</ele><time>2026-04-20T10:54:44.905Z</time></trkpt><trkpt lat="43.5928633" lon="11.21725"><ele>265.5</ele><time>2026-04-20T10:54:45.905Z</time></trkpt><trkpt lat="43.5929633" lon="11.2172567"><ele>266.0</ele><time>2026-04-20T10:54:46.905Z</time></trkpt><trkpt lat="43.5930567" lon="11.2172517"><ele>266.5</ele><time>2026-04-20T10:54:47.905Z</time></trkpt><trkpt lat="43.5931467" lon="11.21724"><ele>267.0</ele><time>2026-04-20T10:54:48.905Z</time></trkpt><trkpt lat="43.5932217" lon="11.217225"><ele>267.5</ele><time>2026-04-20T10:54:49.904Z</time></trkpt><trkpt lat="43.593285" lon="11.2171917"><ele>268.0</ele><time>2026-04-20T10:54:50.905Z</time></trkpt><trkpt lat="43.5933433" lon="11.21708"><ele>268.0</ele><time>2026-04-20T10:54:52.905Z</time></trkpt><trkpt lat="43.593275" lon="11.216925"><ele>268.0</ele><time>2026-04-20T10:54:54.904Z</time></trkpt><trkpt lat="43.5931533" lon="11.216845"><ele>268.0</ele><time>2026-04-20T10:54:55.904Z</time></trkpt><trkpt lat="43.5930417" lon="11.2167517"><ele>268.0</ele><time>2026-04-20T10:54:56.904Z</time></trkpt><trkpt lat="43.592935" lon="11.216655"><ele>265.75</ele><time>2026-04-20T10:54:57.904Z</time></trkpt><trkpt lat="43.592835" lon="11.2165583"><ele>263.5</ele><time>2026-04-20T10:54:58.905Z</time></trkpt><trkpt lat="43.592735" lon="11.2164667"><ele>261.25</ele><time>2026-04-20T10:54:59.905Z</time></trkpt><trkpt lat="43.5926367" lon="11.2163717"><ele>259.0</ele><time>2026-04-20T10:55:00.905Z</time></trkpt><trkpt lat="43.5925417" lon="11.2162767"><ele>259.0</ele><time>2026-04-20T10:55:01.904Z</time></trkpt><trkpt lat="43.5924533" lon="11.2161817"><ele>259.0</ele><time>2026-04-20T10:55:02.904Z</time></trkpt><trkpt lat="43.5923617" lon="11.2160917"><ele>259.0</ele><time>2026-04-20T10:55:03.904Z</time></trkpt><trkpt lat="43.59227" lon="11.2160117"><ele>259.0</ele><time>2026-04-20T10:55:04.904Z</time></trkpt><trkpt lat="43.5921783" lon="11.2159267"><ele>259.0</ele><time>2026-04-20T10:55:05.904Z</time></trkpt><trkpt lat="43.592085" lon="11.21585"><ele>259.2</ele><time>2026-04-20T10:55:06.904Z</time></trkpt><trkpt lat="43.5919967" lon="11.2157717"><ele>259.4</ele><time>2026-04-20T10:55:07.904Z</time></trkpt><trkpt lat="43.5919183" lon="11.2156833"><ele>259.6</ele><time>2026-04-20T10:55:08.904Z</time></trkpt><trkpt lat="43.591835" lon="11.215595"><ele>259.8</ele><time>2026-04-20T10:55:09.904Z</time></trkpt><trkpt lat="43.5917517" lon="11.2155"><ele>260.0</ele><time>2026-04-20T10:55:10.904Z</time></trkpt><trkpt lat="43.5916683" lon="11.2154133"><ele>258.0</ele><time>2026-04-20T10:55:11.904Z</time></trkpt><trkpt lat="43.591595" lon="11.215315"><ele>256.0</ele><time>2026-04-20T10:55:12.905Z</time></trkpt><trkpt lat="43.59153" lon="11.215195"><ele>254.0</ele><time>2026-04-20T10:55:13.905Z</time></trkpt><trkpt lat="43.5914833" lon="11.2150517"><ele>252.0</ele><time>2026-04-20T10:55:14.904Z</time></trkpt><trkpt lat="43.5914533" lon="11.2148983"><ele>250.0</ele><time>2026-04-20T10:55:15.904Z</time></trkpt><trkpt lat="43.5914233" lon="11.2147367"><ele>248.25</ele><time>2026-04-20T10:55:16.905Z</time></trkpt><trkpt lat="43.5914" lon="11.2145667"><ele>246.5</ele><time>2026-04-20T10:55:17.904Z</time></trkpt><trkpt lat="43.5913783" lon="11.2143917"><ele>244.75</ele><time>2026-04-20T10:55:18.904Z</time></trkpt><trkpt lat="43.5913617" lon="11.2142217"><ele>243.0</ele><time>2026-04-20T10:55:19.904Z</time></trkpt><trkpt lat="43.5913417" lon="11.2140533"><ele>241.5</ele><time>2026-04-20T10:55:20.904Z</time></trkpt><trkpt lat="43.59131" lon="11.2138933"><ele>240.0</ele><time>2026-04-20T10:55:21.904Z</time></trkpt><trkpt lat="43.5912783" lon="11.2137233"><ele>238.5</ele><time>2026-04-20T10:55:22.904Z</time></trkpt><trkpt lat="43.5912367" lon="11.213565"><ele>237.0</ele><time>2026-04-20T10:55:23.904Z</time></trkpt><trkpt lat="43.5911917" lon="11.2134083"><ele>237.25</ele><time>2026-04-20T10:55:24.904Z</time></trkpt><trkpt lat="43.59115" lon="11.2132433"><ele>237.5</ele><time>2026-04-20T10:55:25.904Z</time></trkpt><trkpt lat="43.5911117" lon="11.21308"><ele>237.75</ele><time>2026-04-20T10:55:26.904Z</time></trkpt><trkpt lat="43.591075" lon="11.21292"><ele>238.0</ele><time>2026-04-20T10:55:27.904Z</time></trkpt><trkpt lat="43.5910333" lon="11.2127567"><ele>235.0</ele><time>2026-04-20T10:55:28.905Z</time></trkpt><trkpt lat="43.590995" lon="11.2125917"><ele>232.0</ele><time>2026-04-20T10:55:29.905Z</time></trkpt><trkpt lat="43.59096" lon="11.2124217"><ele>229.0</ele><time>2026-04-20T10:55:30.904Z</time></trkpt><trkpt lat="43.5909133" lon="11.2122583"><ele>226.0</ele><time>2026-04-20T10:55:31.904Z</time></trkpt><trkpt lat="43.59089" lon="11.2120967"><ele>223.0</ele><time>2026-04-20T10:55:32.904Z</time></trkpt><trkpt lat="43.5908467" lon="11.21194"><ele>220.0</ele><time>2026-04-20T10:55:33.904Z</time></trkpt><trkpt lat="43.590805" lon="11.21178"><ele>217.0</ele><time>2026-04-20T10:55:34.905Z</time></trkpt><trkpt lat="43.5907583" lon="11.2116317"><ele>214.0</ele><time>2026-04-20T10:55:35.904Z</time></trkpt><trkpt lat="43.5906917" lon="11.211495"><ele>212.25</ele><time>2026-04-20T10:55:36.904Z</time></trkpt><trkpt lat="43.590615" lon="11.2113833"><ele>210.5</ele><time>2026-04-20T10:55:37.905Z</time></trkpt><trkpt lat="43.5905183" lon="11.211285"><ele>208.75</ele><time>2026-04-20T10:55:38.904Z</time></trkpt><trkpt lat="43.5904117" lon="11.2112"><ele>207.0</ele><time>2026-04-20T10:55:39.904Z</time></trkpt><trkpt lat="43.5902983" lon="11.211115"><ele>207.0</ele><time>2026-04-20T10:55:40.905Z</time></trkpt><trkpt lat="43.5901833" lon="11.2110383"><ele>207.0</ele><time>2026-04-20T10:55:41.904Z</time></trkpt><trkpt lat="43.5900717" lon="11.2109533"><ele>207.0</ele><time>2026-04-20T10:55:42.904Z</time></trkpt><trkpt lat="43.589955" lon="11.2108667"><ele>207.0</ele><time>2026-04-20T10:55:43.904Z</time></trkpt><trkpt lat="43.5898433" lon="11.2107783"><ele>207.0</ele><time>2026-04-20T10:55:44.904Z</time></trkpt><trkpt lat="43.5897267" lon="11.2107017"><ele>207.0</ele><time>2026-04-20T10:55:45.904Z</time></trkpt><trkpt lat="43.5896167" lon="11.2106217"><ele>207.0</ele><time>2026-04-20T10:55:46.905Z</time></trkpt><trkpt lat="43.5895083" lon="11.210545"><ele>207.0</ele><time>2026-04-20T10:55:47.904Z</time></trkpt><trkpt lat="43.5894" lon="11.2104683"><ele>205.75</ele><time>2026-04-20T10:55:48.904Z</time></trkpt><trkpt lat="43.5892967" lon="11.2103867"><ele>204.5</ele><time>2026-04-20T10:55:49.904Z</time></trkpt><trkpt lat="43.5891967" lon="11.2103017"><ele>203.25</ele><time>2026-04-20T10:55:50.904Z</time></trkpt><trkpt lat="43.5891083" lon="11.2102067"><ele>202.0</ele><time>2026-04-20T10:55:51.904Z</time></trkpt><trkpt lat="43.5890367" lon="11.2101017"><ele>202.0</ele><time>2026-04-20T10:55:52.904Z</time></trkpt><trkpt lat="43.58897" lon="11.209985"><ele>202.0</ele><time>2026-04-20T10:55:53.904Z</time></trkpt><trkpt lat="43.5889183" lon="11.2098517"><ele>202.0</ele><time>2026-04-20T10:55:54.904Z</time></trkpt><trkpt lat="43.5888833" lon="11.2097"><ele>202.0</ele><time>2026-04-20T10:55:55.904Z</time></trkpt><trkpt lat="43.5888433" lon="11.2095467"><ele>200.5</ele><time>2026-04-20T10:55:56.904Z</time></trkpt><trkpt lat="43.588815" lon="11.2093983"><ele>199.0</ele><time>2026-04-20T10:55:57.904Z</time></trkpt><trkpt lat="43.5887917" lon="11.2092467"><ele>197.5</ele><time>2026-04-20T10:55:58.904Z</time></trkpt><trkpt lat="43.5887667" lon="11.2090867"><ele>196.0</ele><time>2026-04-20T10:55:59.904Z</time></trkpt><trkpt lat="43.5887333" lon="11.20893"><ele>194.60000000000002</ele><time>2026-04-20T10:56:00.904Z</time></trkpt><trkpt lat="43.5887067" lon="11.2087717"><ele>193.2</ele><time>2026-04-20T10:56:01.904Z</time></trkpt><trkpt lat="43.58868" lon="11.2086117"><ele>191.8</ele><time>2026-04-20T10:56:02.904Z</time></trkpt><trkpt lat="43.5886517" lon="11.2084717"><ele>190.39999999999998</ele><time>2026-04-20T10:56:03.904Z</time></trkpt><trkpt lat="43.5886283" lon="11.2083517"><ele>189.0</ele><time>2026-04-20T10:56:04.905Z</time></trkpt><trkpt lat="43.5886117" lon="11.2082483"><ele>188.33333333333334</ele><time>2026-04-20T10:56:05.904Z</time></trkpt><trkpt lat="43.5886033" lon="11.20816"><ele>187.66666666666666</ele><time>2026-04-20T10:56:06.904Z</time></trkpt><trkpt lat="43.58858" lon="11.2080567"><ele>187.0</ele><time>2026-04-20T10:56:08.905Z</time></trkpt><trkpt lat="43.58852" lon="11.208015"><ele>186.33333333333331</ele><time>2026-04-20T10:56:41.904Z</time></trkpt><trkpt lat="43.58841" lon="11.2080317"><ele>185.66666666666666</ele><time>2026-04-20T10:56:43.904Z</time></trkpt><trkpt lat="43.5883483" lon="11.208055"><ele>185.0</ele><time>2026-04-20T10:56:44.904Z</time></trkpt><trkpt lat="43.5882817" lon="11.2080833"><ele>185.0</ele><time>2026-04-20T10:56:45.904Z</time></trkpt><trkpt lat="43.588195" lon="11.2081217"><ele>185.0</ele><time>2026-04-20T10:56:46.904Z</time></trkpt><trkpt lat="43.5881" lon="11.20816"><ele>185.0</ele><time>2026-04-20T10:56:47.904Z</time></trkpt><trkpt lat="43.5880067" lon="11.2082083"><ele>185.0</ele><time>2026-04-20T10:56:48.904Z</time></trkpt><trkpt lat="43.5879183" lon="11.20826"><ele>185.0</ele><time>2026-04-20T10:56:49.904Z</time></trkpt><trkpt lat="43.587825" lon="11.2083267"><ele>183.6</ele><time>2026-04-20T10:56:50.904Z</time></trkpt><trkpt lat="43.5877317" lon="11.2083917"><ele>182.2</ele><time>2026-04-20T10:56:51.904Z</time></trkpt><trkpt lat="43.587635" lon="11.2084633"><ele>180.8</ele><time>2026-04-20T10:56:52.905Z</time></trkpt><trkpt lat="43.5875417" lon="11.20853"><ele>179.4</ele><time>2026-04-20T10:56:53.904Z</time></trkpt><trkpt lat="43.5874417" lon="11.2085917"><ele>178.0</ele><time>2026-04-20T10:56:54.904Z</time></trkpt><trkpt lat="43.5873333" lon="11.208665"><ele>178.0</ele><time>2026-04-20T10:56:55.905Z</time></trkpt><trkpt lat="43.5872267" lon="11.2087433"><ele>178.0</ele><time>2026-04-20T10:56:56.904Z</time></trkpt><trkpt lat="43.5871233" lon="11.2088083"><ele>178.0</ele><time>2026-04-20T10:56:57.904Z</time></trkpt><trkpt lat="43.5870267" lon="11.2088683"><ele>178.0</ele><time>2026-04-20T10:56:58.904Z</time></trkpt><trkpt lat="43.58693" lon="11.208925"><ele>178.0</ele><time>2026-04-20T10:56:59.904Z</time></trkpt><trkpt lat="43.5868417" lon="11.2089683"><ele>178.5</ele><time>2026-04-20T10:57:00.904Z</time></trkpt><trkpt lat="43.586765" lon="11.2090117"><ele>179.0</ele><time>2026-04-20T10:57:01.904Z</time></trkpt><trkpt lat="43.5866967" lon="11.20906"><ele>179.5</ele><time>2026-04-20T10:57:02.905Z</time></trkpt><trkpt lat="43.5866267" lon="11.2091083"><ele>180.0</ele><time>2026-04-20T10:57:03.904Z</time></trkpt><trkpt lat="43.586555" lon="11.2091583"><ele>180.5</ele><time>2026-04-20T10:57:04.904Z</time></trkpt><trkpt lat="43.5864683" lon="11.2092083"><ele>181.0</ele><time>2026-04-20T10:57:05.904Z</time></trkpt><trkpt lat="43.58638" lon="11.2092733"><ele>181.0</ele><time>2026-04-20T10:57:06.904Z</time></trkpt><trkpt lat="43.58628" lon="11.2093467"><ele>181.0</ele><time>2026-04-20T10:57:07.905Z</time></trkpt><trkpt lat="43.5861667" lon="11.209425"><ele>181.0</ele><time>2026-04-20T10:57:08.904Z</time></trkpt><trkpt lat="43.58605" lon="11.2094967"><ele>181.0</ele><time>2026-04-20T10:57:09.905Z</time></trkpt><trkpt lat="43.5859367" lon="11.2095667"><ele>181.25</ele><time>2026-04-20T10:57:10.904Z</time></trkpt><trkpt lat="43.5858117" lon="11.2096483"><ele>181.5</ele><time>2026-04-20T10:57:11.904Z</time></trkpt><trkpt lat="43.5856867" lon="11.2097283"><ele>181.75</ele><time>2026-04-20T10:57:12.904Z</time></trkpt><trkpt lat="43.58556" lon="11.2098117"><ele>182.0</ele><time>2026-04-20T10:57:13.905Z</time></trkpt><trkpt lat="43.58543" lon="11.2098933"><ele>179.75</ele><time>2026-04-20T10:57:14.904Z</time></trkpt><trkpt lat="43.5852983" lon="11.2099733"><ele>177.5</ele><time>2026-04-20T10:57:15.904Z</time></trkpt><trkpt lat="43.5851683" lon="11.210055"><ele>175.25</ele><time>2026-04-20T10:57:16.905Z</time></trkpt><trkpt lat="43.58504" lon="11.21013"><ele>173.0</ele><time>2026-04-20T10:57:17.904Z</time></trkpt><trkpt lat="43.5849183" lon="11.2102133"><ele>173.0</ele><time>2026-04-20T10:57:18.905Z</time></trkpt><trkpt lat="43.584785" lon="11.2102933"><ele>173.0</ele><time>2026-04-20T10:57:19.904Z</time></trkpt><trkpt lat="43.5846533" lon="11.2103717"><ele>173.0</ele><time>2026-04-20T10:57:20.904Z</time></trkpt><trkpt lat="43.5845233" lon="11.2104533"><ele>173.0</ele><time>2026-04-20T10:57:21.904Z</time></trkpt><trkpt lat="43.58439" lon="11.210535"><ele>173.0</ele><time>2026-04-20T10:57:22.904Z</time></trkpt><trkpt lat="43.5842583" lon="11.2106183"><ele>173.0</ele><time>2026-04-20T10:57:23.905Z</time></trkpt><trkpt lat="43.5841317" lon="11.210695"><ele>173.0</ele><time>2026-04-20T10:57:24.904Z</time></trkpt><trkpt lat="43.5839983" lon="11.2107833"><ele>173.0</ele><time>2026-04-20T10:57:25.905Z</time></trkpt><trkpt lat="43.5838817" lon="11.210875"><ele>173.25</ele><time>2026-04-20T10:57:26.904Z</time></trkpt><trkpt lat="43.5837633" lon="11.210985"><ele>173.5</ele><time>2026-04-20T10:57:27.905Z</time></trkpt><trkpt lat="43.5836383" lon="11.2110817"><ele>173.75</ele><time>2026-04-20T10:57:28.904Z</time></trkpt><trkpt lat="43.5835133" lon="11.211175"><ele>174.0</ele><time>2026-04-20T10:57:29.904Z</time></trkpt><trkpt lat="43.58338" lon="11.2112633"><ele>174.0</ele><time>2026-04-20T10:57:30.904Z</time></trkpt><trkpt lat="43.5832367" lon="11.21134"><ele>174.0</ele><time>2026-04-20T10:57:31.904Z</time></trkpt><trkpt lat="43.583095" lon="11.2113983"><ele>174.0</ele><time>2026-04-20T10:57:32.904Z</time></trkpt><trkpt lat="43.582955" lon="11.21146"><ele>174.0</ele><time>2026-04-20T10:57:33.904Z</time></trkpt><trkpt lat="43.582815" lon="11.2115183"><ele>175.33333333333334</ele><time>2026-04-20T10:57:34.904Z</time></trkpt><trkpt lat="43.58267" lon="11.2115817"><ele>176.66666666666669</ele><time>2026-04-20T10:57:35.905Z</time></trkpt><trkpt lat="43.5825283" lon="11.2116483"><ele>178.0</ele><time>2026-04-20T10:57:36.904Z</time></trkpt><trkpt lat="43.5823883" lon="11.211715"><ele>178.0</ele><time>2026-04-20T10:57:37.904Z</time></trkpt><trkpt lat="43.5822517" lon="11.21177"><ele>178.0</ele><time>2026-04-20T10:57:38.905Z</time></trkpt><trkpt lat="43.582115" lon="11.21183"><ele>178.0</ele><time>2026-04-20T10:57:39.904Z</time></trkpt><trkpt lat="43.5819783" lon="11.2118883"><ele>178.0</ele><time>2026-04-20T10:57:40.904Z</time></trkpt><trkpt lat="43.5818417" lon="11.2119517"><ele>177.5</ele><time>2026-04-20T10:57:41.904Z</time></trkpt><trkpt lat="43.5817083" lon="11.21201"><ele>177.0</ele><time>2026-04-20T10:57:42.904Z</time></trkpt><trkpt lat="43.5815833" lon="11.2120517"><ele>176.5</ele><time>2026-04-20T10:57:43.904Z</time></trkpt><trkpt lat="43.5814633" lon="11.2120667"><ele>176.0</ele><time>2026-04-20T10:57:44.904Z</time></trkpt><trkpt lat="43.581335" lon="11.2120583"><ele>176.0</ele><time>2026-04-20T10:57:45.904Z</time></trkpt><trkpt lat="43.581205" lon="11.2120233"><ele>176.0</ele><time>2026-04-20T10:57:46.904Z</time></trkpt><trkpt lat="43.58108" lon="11.2119917"><ele>176.0</ele><time>2026-04-20T10:57:47.904Z</time></trkpt><trkpt lat="43.580955" lon="11.2119783"><ele>176.0</ele><time>2026-04-20T10:57:48.904Z</time></trkpt><trkpt lat="43.5808167" lon="11.21199"><ele>175.5</ele><time>2026-04-20T10:57:49.904Z</time></trkpt><trkpt lat="43.5806717" lon="11.2120083"><ele>175.0</ele><time>2026-04-20T10:57:50.904Z</time></trkpt><trkpt lat="43.5805283" lon="11.2120383"><ele>174.5</ele><time>2026-04-20T10:57:51.905Z</time></trkpt><trkpt lat="43.58039" lon="11.2120583"><ele>174.0</ele><time>2026-04-20T10:57:52.905Z</time></trkpt><trkpt lat="43.5802633" lon="11.2120817"><ele>174.0</ele><time>2026-04-20T10:57:53.904Z</time></trkpt><trkpt lat="43.5801383" lon="11.2121017"><ele>174.0</ele><time>2026-04-20T10:57:54.904Z</time></trkpt><trkpt lat="43.5800183" lon="11.21212"><ele>174.0</ele><time>2026-04-20T10:57:55.904Z</time></trkpt><trkpt lat="43.5799017" lon="11.2121467"><ele>174.0</ele><time>2026-04-20T10:57:56.904Z</time></trkpt><trkpt lat="43.5797833" lon="11.212185"><ele>174.0</ele><time>2026-04-20T10:57:57.904Z</time></trkpt><trkpt lat="43.5796717" lon="11.2122433"><ele>174.0</ele><time>2026-04-20T10:57:58.904Z</time></trkpt><trkpt lat="43.5795483" lon="11.2123"><ele>174.0</ele><time>2026-04-20T10:57:59.904Z</time></trkpt><trkpt lat="43.5794333" lon="11.21236"><ele>174.0</ele><time>2026-04-20T10:58:00.904Z</time></trkpt><trkpt lat="43.5793067" lon="11.21242"><ele>174.33333333333334</ele><time>2026-04-20T10:58:01.904Z</time></trkpt><trkpt lat="43.57917" lon="11.21249"><ele>174.66666666666669</ele><time>2026-04-20T10:58:02.904Z</time></trkpt><trkpt lat="43.57902" lon="11.2125633"><ele>175.0</ele><time>2026-04-20T10:58:03.904Z</time></trkpt><trkpt lat="43.5788733" lon="11.2126417"><ele>175.0</ele><time>2026-04-20T10:58:04.904Z</time></trkpt><trkpt lat="43.5787367" lon="11.2127283"><ele>175.0</ele><time>2026-04-20T10:58:05.904Z</time></trkpt><trkpt lat="43.57862" lon="11.2128283"><ele>175.0</ele><time>2026-04-20T10:58:06.905Z</time></trkpt><trkpt lat="43.578505" lon="11.2129317"><ele>175.0</ele><time>2026-04-20T10:58:07.905Z</time></trkpt><trkpt lat="43.5784" lon="11.2130367"><ele>175.25</ele><time>2026-04-20T10:58:08.904Z</time></trkpt><trkpt lat="43.5783033" lon="11.2131583"><ele>175.5</ele><time>2026-04-20T10:58:09.904Z</time></trkpt><trkpt lat="43.5782083" lon="11.2132867"><ele>175.75</ele><time>2026-04-20T10:58:10.904Z</time></trkpt><trkpt lat="43.5781167" lon="11.2134217"><ele>176.0</ele><time>2026-04-20T10:58:11.904Z</time></trkpt><trkpt lat="43.5780183" lon="11.21356"><ele>176.0</ele><time>2026-04-20T10:58:12.905Z</time></trkpt><trkpt lat="43.5779217" lon="11.2136867"><ele>176.0</ele><time>2026-04-20T10:58:13.904Z</time></trkpt><trkpt lat="43.5778267" lon="11.213815"><ele>176.0</ele><time>2026-04-20T10:58:14.904Z</time></trkpt><trkpt lat="43.5777383" lon="11.2139417"><ele>176.0</ele><time>2026-04-20T10:58:15.904Z</time></trkpt><trkpt lat="43.57765" lon="11.2140583"><ele>175.75</ele><time>2026-04-20T10:58:16.905Z</time></trkpt><trkpt lat="43.5775633" lon="11.2141633"><ele>175.5</ele><time>2026-04-20T10:58:17.904Z</time></trkpt><trkpt lat="43.5774733" lon="11.214265"><ele>175.25</ele><time>2026-04-20T10:58:18.904Z</time></trkpt><trkpt lat="43.577375" lon="11.2143533"><ele>175.0</ele><time>2026-04-20T10:58:19.904Z</time></trkpt><trkpt lat="43.5772667" lon="11.214435"><ele>175.0</ele><time>2026-04-20T10:58:20.904Z</time></trkpt><trkpt lat="43.5771567" lon="11.2144917"><ele>175.0</ele><time>2026-04-20T10:58:21.905Z</time></trkpt><trkpt lat="43.577055" lon="11.21454"><ele>175.0</ele><time>2026-04-20T10:58:22.905Z</time></trkpt><trkpt lat="43.5769583" lon="11.2145833"><ele>175.0</ele><time>2026-04-20T10:58:23.904Z</time></trkpt><trkpt lat="43.576865" lon="11.2146267"><ele>175.0</ele><time>2026-04-20T10:58:24.905Z</time></trkpt><trkpt lat="43.576775" lon="11.2146683"><ele>174.66666666666669</ele><time>2026-04-20T10:58:25.905Z</time></trkpt><trkpt lat="43.5766933" lon="11.2147067"><ele>174.33333333333334</ele><time>2026-04-20T10:58:26.905Z</time></trkpt><trkpt lat="43.5766133" lon="11.2147467"><ele>174.0</ele><time>2026-04-20T10:58:27.904Z</time></trkpt><trkpt lat="43.5765333" lon="11.21479"><ele>173.66666666666666</ele><time>2026-04-20T10:58:28.904Z</time></trkpt><trkpt lat="43.5764483" lon="11.2148283"><ele>173.33333333333331</ele><time>2026-04-20T10:58:29.905Z</time></trkpt><trkpt lat="43.5763617" lon="11.214865"><ele>173.0</ele><time>2026-04-20T10:58:30.904Z</time></trkpt><trkpt lat="43.5762683" lon="11.2149033"><ele>174.0</ele><time>2026-04-20T10:58:31.905Z</time></trkpt><trkpt lat="43.5761617" lon="11.21495"><ele>175.0</ele><time>2026-04-20T10:58:32.904Z</time></trkpt><trkpt lat="43.5760583" lon="11.2149933"><ele>176.0</ele><time>2026-04-20T10:58:33.904Z</time></trkpt><trkpt lat="43.5759417" lon="11.2150467"><ele>177.0</ele><time>2026-04-20T10:58:34.905Z</time></trkpt><trkpt lat="43.5758167" lon="11.2151017"><ele>177.0</ele><time>2026-04-20T10:58:35.904Z</time></trkpt><trkpt lat="43.5756933" lon="11.2151517"><ele>177.0</ele><time>2026-04-20T10:58:36.904Z</time></trkpt><trkpt lat="43.5755733" lon="11.215205"><ele>177.0</ele><time>2026-04-20T10:58:37.904Z</time></trkpt><trkpt lat="43.575465" lon="11.2152467"><ele>177.0</ele><time>2026-04-20T10:58:38.904Z</time></trkpt><trkpt lat="43.5753567" lon="11.2152983"><ele>176.75</ele><time>2026-04-20T10:58:39.904Z</time></trkpt><trkpt lat="43.5752433" lon="11.215345"><ele>176.5</ele><time>2026-04-20T10:58:40.904Z</time></trkpt><trkpt lat="43.575135" lon="11.2153933"><ele>176.25</ele><time>2026-04-20T10:58:41.905Z</time></trkpt><trkpt lat="43.575025" lon="11.2154317"><ele>176.0</ele><time>2026-04-20T10:58:42.905Z</time></trkpt><trkpt lat="43.57491" lon="11.215475"><ele>176.0</ele><time>2026-04-20T10:58:43.904Z</time></trkpt><trkpt lat="43.57479" lon="11.215525"><ele>176.0</ele><time>2026-04-20T10:58:44.905Z</time></trkpt><trkpt lat="43.574665" lon="11.2155733"><ele>176.0</ele><time>2026-04-20T10:58:45.904Z</time></trkpt><trkpt lat="43.5745433" lon="11.215625"><ele>176.0</ele><time>2026-04-20T10:58:46.904Z</time></trkpt><trkpt lat="43.5744283" lon="11.2156717"><ele>176.25</ele><time>2026-04-20T10:58:47.904Z</time></trkpt><trkpt lat="43.57431" lon="11.2157233"><ele>176.5</ele><time>2026-04-20T10:58:48.904Z</time></trkpt><trkpt lat="43.5742017" lon="11.215775"><ele>176.75</ele><time>2026-04-20T10:58:49.904Z</time></trkpt><trkpt lat="43.5740917" lon="11.21582"><ele>177.0</ele><time>2026-04-20T10:58:50.904Z</time></trkpt><trkpt lat="43.5739817" lon="11.2158633"><ele>177.0</ele><time>2026-04-20T10:58:51.904Z</time></trkpt><trkpt lat="43.5738733" lon="11.2159183"><ele>177.0</ele><time>2026-04-20T10:58:52.904Z</time></trkpt><trkpt lat="43.573765" lon="11.2159783"><ele>177.0</ele><time>2026-04-20T10:58:53.905Z</time></trkpt><trkpt lat="43.5736583" lon="11.2160433"><ele>177.0</ele><time>2026-04-20T10:58:54.904Z</time></trkpt><trkpt lat="43.5735567" lon="11.2161133"><ele>177.5</ele><time>2026-04-20T10:58:55.904Z</time></trkpt><trkpt lat="43.573445" lon="11.2161883"><ele>178.0</ele><time>2026-04-20T10:58:56.904Z</time></trkpt><trkpt lat="43.5733333" lon="11.2162667"><ele>178.5</ele><time>2026-04-20T10:58:57.904Z</time></trkpt><trkpt lat="43.573215" lon="11.2163467"><ele>179.0</ele><time>2026-04-20T10:58:58.904Z</time></trkpt><trkpt lat="43.5730967" lon="11.216425"><ele>180.0</ele><time>2026-04-20T10:58:59.905Z</time></trkpt><trkpt lat="43.57298" lon="11.2164883"><ele>181.0</ele><time>2026-04-20T10:59:00.904Z</time></trkpt><trkpt lat="43.5728517" lon="11.2165317"><ele>182.0</ele><time>2026-04-20T10:59:01.904Z</time></trkpt><trkpt lat="43.5727233" lon="11.2165533"><ele>183.0</ele><time>2026-04-20T10:59:02.904Z</time></trkpt><trkpt lat="43.5726033" lon="11.2165633"><ele>183.5</ele><time>2026-04-20T10:59:03.905Z</time></trkpt><trkpt lat="43.57248" lon="11.2165483"><ele>184.0</ele><time>2026-04-20T10:59:04.904Z</time></trkpt><trkpt lat="43.572355" lon="11.2165217"><ele>184.5</ele><time>2026-04-20T10:59:05.904Z</time></trkpt><trkpt lat="43.5722283" lon="11.21648"><ele>185.0</ele><time>2026-04-20T10:59:06.904Z</time></trkpt><trkpt lat="43.5721167" lon="11.216425"><ele>183.75</ele><time>2026-04-20T10:59:07.905Z</time></trkpt><trkpt lat="43.5720117" lon="11.2163567"><ele>182.5</ele><time>2026-04-20T10:59:08.904Z</time></trkpt><trkpt lat="43.5719167" lon="11.2162667"><ele>181.25</ele><time>2026-04-20T10:59:09.904Z</time></trkpt><trkpt lat="43.5718183" lon="11.21617"><ele>180.0</ele><time>2026-04-20T10:59:10.905Z</time></trkpt><trkpt lat="43.571735" lon="11.21606"><ele>180.0</ele><time>2026-04-20T10:59:11.904Z</time></trkpt><trkpt lat="43.5716567" lon="11.2159583"><ele>180.0</ele><time>2026-04-20T10:59:12.905Z</time></trkpt><trkpt lat="43.5715817" lon="11.2158517"><ele>180.0</ele><time>2026-04-20T10:59:13.904Z</time></trkpt><trkpt lat="43.5715017" lon="11.21576"><ele>180.0</ele><time>2026-04-20T10:59:14.905Z</time></trkpt><trkpt lat="43.571425" lon="11.21566"><ele>180.0</ele><time>2026-04-20T10:59:15.904Z</time></trkpt><trkpt lat="43.5713583" lon="11.2155617"><ele>179.83333333333334</ele><time>2026-04-20T10:59:16.904Z</time></trkpt><trkpt lat="43.5712967" lon="11.2154783"><ele>179.66666666666666</ele><time>2026-04-20T10:59:17.904Z</time></trkpt><trkpt lat="43.57124" lon="11.2153983"><ele>179.5</ele><time>2026-04-20T10:59:18.905Z</time></trkpt><trkpt lat="43.5711833" lon="11.215325"><ele>179.33333333333331</ele><time>2026-04-20T10:59:19.904Z</time></trkpt><trkpt lat="43.5711267" lon="11.2152467"><ele>179.16666666666666</ele><time>2026-04-20T10:59:20.904Z</time></trkpt><trkpt lat="43.5710667" lon="11.2151733"><ele>179.0</ele><time>2026-04-20T10:59:21.904Z</time></trkpt><trkpt lat="43.5709933" lon="11.215105"><ele>179.6</ele><time>2026-04-20T10:59:22.904Z</time></trkpt><trkpt lat="43.5709167" lon="11.2150517"><ele>180.2</ele><time>2026-04-20T10:59:23.904Z</time></trkpt><trkpt lat="43.5708333" lon="11.2150167"><ele>180.79999999999998</ele><time>2026-04-20T10:59:24.904Z</time></trkpt><trkpt lat="43.570735" lon="11.2149883"><ele>181.39999999999998</ele><time>2026-04-20T10:59:25.904Z</time></trkpt><trkpt lat="43.5706283" lon="11.2149633"><ele>182.0</ele><time>2026-04-20T10:59:26.904Z</time></trkpt><trkpt lat="43.5705117" lon="11.2149583"><ele>182.0</ele><time>2026-04-20T10:59:27.904Z</time></trkpt><trkpt lat="43.57039" lon="11.2149683"><ele>182.0</ele><time>2026-04-20T10:59:28.905Z</time></trkpt><trkpt lat="43.5702617" lon="11.215005"><ele>182.0</ele><time>2026-04-20T10:59:29.905Z</time></trkpt><trkpt lat="43.5701417" lon="11.21505"><ele>182.0</ele><time>2026-04-20T10:59:30.904Z</time></trkpt><trkpt lat="43.5700217" lon="11.2151067"><ele>183.0</ele><time>2026-04-20T10:59:31.905Z</time></trkpt><trkpt lat="43.569895" lon="11.2151583"><ele>184.0</ele><time>2026-04-20T10:59:32.904Z</time></trkpt><trkpt lat="43.5697667" lon="11.2152067"><ele>185.0</ele><time>2026-04-20T10:59:33.904Z</time></trkpt><trkpt lat="43.5696367" lon="11.2152517"><ele>186.0</ele><time>2026-04-20T10:59:34.904Z</time></trkpt><trkpt lat="43.569495" lon="11.2153033"><ele>188.75</ele><time>2026-04-20T10:59:35.904Z</time></trkpt><trkpt lat="43.56936" lon="11.21536"><ele>191.5</ele><time>2026-04-20T10:59:36.905Z</time></trkpt><trkpt lat="43.569225" lon="11.2154167"><ele>194.25</ele><time>2026-04-20T10:59:37.904Z</time></trkpt><trkpt lat="43.5690933" lon="11.2154733"><ele>197.0</ele><time>2026-04-20T10:59:38.904Z</time></trkpt><trkpt lat="43.5689467" lon="11.2155183"><ele>197.0</ele><time>2026-04-20T10:59:39.904Z</time></trkpt><trkpt lat="43.5688083" lon="11.2155733"><ele>197.0</ele><time>2026-04-20T10:59:40.903Z</time></trkpt><trkpt lat="43.5686733" lon="11.2156367"><ele>197.0</ele><time>2026-04-20T10:59:41.903Z</time></trkpt><trkpt lat="43.5685383" lon="11.2156967"><ele>197.0</ele><time>2026-04-20T10:59:42.904Z</time></trkpt><trkpt lat="43.5684017" lon="11.2157583"><ele>197.25</ele><time>2026-04-20T10:59:43.903Z</time></trkpt><trkpt lat="43.56826" lon="11.2158117"><ele>197.5</ele><time>2026-04-20T10:59:44.904Z</time></trkpt><trkpt lat="43.56813" lon="11.215855"><ele>197.75</ele><time>2026-04-20T10:59:45.903Z</time></trkpt><trkpt lat="43.5679917" lon="11.2159"><ele>198.0</ele><time>2026-04-20T10:59:46.903Z</time></trkpt><trkpt lat="43.56785" lon="11.2159483"><ele>198.0</ele><time>2026-04-20T10:59:47.903Z</time></trkpt><trkpt lat="43.56771" lon="11.2159917"><ele>198.0</ele><time>2026-04-20T10:59:48.903Z</time></trkpt><trkpt lat="43.5675633" lon="11.2160283"><ele>198.0</ele><time>2026-04-20T10:59:49.903Z</time></trkpt><trkpt lat="43.5674183" lon="11.2160683"><ele>198.0</ele><time>2026-04-20T10:59:50.904Z</time></trkpt><trkpt lat="43.5672667" lon="11.2161017"><ele>198.0</ele><time>2026-04-20T10:59:51.903Z</time></trkpt><trkpt lat="43.5671217" lon="11.2161333"><ele>198.0</ele><time>2026-04-20T10:59:52.904Z</time></trkpt><trkpt lat="43.5669767" lon="11.2161617"><ele>198.0</ele><time>2026-04-20T10:59:53.903Z</time></trkpt><trkpt lat="43.56683" lon="11.21619"><ele>198.0</ele><time>2026-04-20T10:59:54.904Z</time></trkpt><trkpt lat="43.5666833" lon="11.2162217"><ele>200.25</ele><time>2026-04-20T10:59:55.903Z</time></trkpt><trkpt lat="43.5665333" lon="11.2162583"><ele>202.5</ele><time>2026-04-20T10:59:56.904Z</time></trkpt><trkpt lat="43.5663867" lon="11.2162983"><ele>204.75</ele><time>2026-04-20T10:59:57.903Z</time></trkpt><trkpt lat="43.5662467" lon="11.2163517"><ele>207.0</ele><time>2026-04-20T10:59:58.904Z</time></trkpt><trkpt lat="43.5661033" lon="11.2164067"><ele>206.25</ele><time>2026-04-20T10:59:59.904Z</time></trkpt><trkpt lat="43.56596" lon="11.2164667"><ele>205.5</ele><time>2026-04-20T11:00:00.904Z</time></trkpt><trkpt lat="43.5658183" lon="11.2165217"><ele>204.75</ele><time>2026-04-20T11:00:01.903Z</time></trkpt><trkpt lat="43.5656833" lon="11.2165817"><ele>204.0</ele><time>2026-04-20T11:00:02.903Z</time></trkpt><trkpt lat="43.565545" lon="11.2166433"><ele>204.0</ele><time>2026-04-20T11:00:03.904Z</time></trkpt><trkpt lat="43.5654183" lon="11.216695"><ele>204.0</ele><time>2026-04-20T11:00:04.904Z</time></trkpt><trkpt lat="43.5652917" lon="11.2167533"><ele>204.0</ele><time>2026-04-20T11:00:05.903Z</time></trkpt><trkpt lat="43.5651517" lon="11.2168117"><ele>204.0</ele><time>2026-04-20T11:00:06.904Z</time></trkpt><trkpt lat="43.5650183" lon="11.2168783"><ele>204.0</ele><time>2026-04-20T11:00:07.903Z</time></trkpt><trkpt lat="43.5648867" lon="11.216955"><ele>204.0</ele><time>2026-04-20T11:00:08.903Z</time></trkpt><trkpt lat="43.5647717" lon="11.217035"><ele>204.0</ele><time>2026-04-20T11:00:09.903Z</time></trkpt><trkpt lat="43.5646617" lon="11.2171583"><ele>204.0</ele><time>2026-04-20T11:00:10.904Z</time></trkpt><trkpt lat="43.5645783" lon="11.21732"><ele>207.5</ele><time>2026-04-20T11:00:11.903Z</time></trkpt><trkpt lat="43.564505" lon="11.2174917"><ele>211.0</ele><time>2026-04-20T11:00:12.904Z</time></trkpt><trkpt lat="43.5644467" lon="11.2176767"><ele>214.5</ele><time>2026-04-20T11:00:13.903Z</time></trkpt><trkpt lat="43.5643967" lon="11.21787"><ele>218.0</ele><time>2026-04-20T11:00:14.903Z</time></trkpt><trkpt lat="43.5643517" lon="11.2180567"><ele>218.0</ele><time>2026-04-20T11:00:15.903Z</time></trkpt><trkpt lat="43.5643033" lon="11.2182433"><ele>218.0</ele><time>2026-04-20T11:00:16.903Z</time></trkpt><trkpt lat="43.5642633" lon="11.2184333"><ele>218.0</ele><time>2026-04-20T11:00:17.903Z</time></trkpt><trkpt lat="43.56422" lon="11.2186267"><ele>218.0</ele><time>2026-04-20T11:00:18.903Z</time></trkpt><trkpt lat="43.5641717" lon="11.2188267"><ele>217.0</ele><time>2026-04-20T11:00:19.904Z</time></trkpt><trkpt lat="43.5641217" lon="11.2190183"><ele>216.0</ele><time>2026-04-20T11:00:20.903Z</time></trkpt><trkpt lat="43.56407" lon="11.2192117"><ele>215.0</ele><time>2026-04-20T11:00:21.903Z</time></trkpt><trkpt lat="43.5640217" lon="11.2194117"><ele>215.0</ele><time>2026-04-20T11:00:22.903Z</time></trkpt><trkpt lat="43.5639683" lon="11.2195983"><ele>215.0</ele><time>2026-04-20T11:00:23.903Z</time></trkpt><trkpt lat="43.5639133" lon="11.2197933"><ele>215.0</ele><time>2026-04-20T11:00:24.903Z</time></trkpt><trkpt lat="43.56386" lon="11.2199867"><ele>215.0</ele><time>2026-04-20T11:00:25.903Z</time></trkpt><trkpt lat="43.563815" lon="11.22018"><ele>214.5</ele><time>2026-04-20T11:00:26.903Z</time></trkpt><trkpt lat="43.5637717" lon="11.22036"><ele>214.0</ele><time>2026-04-20T11:00:27.904Z</time></trkpt><trkpt lat="43.5637317" lon="11.2205283"><ele>213.5</ele><time>2026-04-20T11:00:28.903Z</time></trkpt><trkpt lat="43.5636783" lon="11.2206617"><ele>213.0</ele><time>2026-04-20T11:00:29.903Z</time></trkpt><trkpt lat="43.5636233" lon="11.2207917"><ele>217.75</ele><time>2026-04-20T11:00:30.903Z</time></trkpt><trkpt lat="43.5635483" lon="11.22091"><ele>222.5</ele><time>2026-04-20T11:00:31.903Z</time></trkpt><trkpt lat="43.5634383" lon="11.2210033"><ele>227.25</ele><time>2026-04-20T11:00:32.904Z</time></trkpt><trkpt lat="43.5633283" lon="11.2210783"><ele>232.0</ele><time>2026-04-20T11:00:33.903Z</time></trkpt><trkpt lat="43.56321" lon="11.221125"><ele>232.0</ele><time>2026-04-20T11:00:34.904Z</time></trkpt><trkpt lat="43.5630967" lon="11.2211617"><ele>232.0</ele><time>2026-04-20T11:00:35.903Z</time></trkpt><trkpt lat="43.5629783" lon="11.22121"><ele>232.0</ele><time>2026-04-20T11:00:36.903Z</time></trkpt><trkpt lat="43.5628583" lon="11.2212567"><ele>232.0</ele><time>2026-04-20T11:00:37.903Z</time></trkpt><trkpt lat="43.562745" lon="11.2213133"><ele>231.5</ele><time>2026-04-20T11:00:38.903Z</time></trkpt><trkpt lat="43.56263" lon="11.2213583"><ele>231.0</ele><time>2026-04-20T11:00:39.904Z</time></trkpt><trkpt lat="43.5625133" lon="11.2214183"><ele>230.5</ele><time>2026-04-20T11:00:40.903Z</time></trkpt><trkpt lat="43.5624" lon="11.221475"><ele>230.0</ele><time>2026-04-20T11:00:41.903Z</time></trkpt><trkpt lat="43.5622867" lon="11.2215317"><ele>230.0</ele><time>2026-04-20T11:00:42.904Z</time></trkpt><trkpt lat="43.5621733" lon="11.2215817"><ele>230.0</ele><time>2026-04-20T11:00:43.904Z</time></trkpt><trkpt lat="43.5620617" lon="11.2216333"><ele>230.0</ele><time>2026-04-20T11:00:44.903Z</time></trkpt><trkpt lat="43.5619517" lon="11.2216833"><ele>230.0</ele><time>2026-04-20T11:00:45.904Z</time></trkpt><trkpt lat="43.561835" lon="11.221745"><ele>232.2</ele><time>2026-04-20T11:00:46.903Z</time></trkpt><trkpt lat="43.561715" lon="11.2218067"><ele>234.4</ele><time>2026-04-20T11:00:47.903Z</time></trkpt><trkpt lat="43.561605" lon="11.2218567"><ele>236.60000000000002</ele><time>2026-04-20T11:00:48.903Z</time></trkpt><trkpt lat="43.5615067" lon="11.2219033"><ele>238.8</ele><time>2026-04-20T11:00:49.903Z</time></trkpt><trkpt lat="43.5614217" lon="11.2219417"><ele>241.0</ele><time>2026-04-20T11:00:50.904Z</time></trkpt><trkpt lat="43.5613483" lon="11.22199"><ele>240.99999999999997</ele><time>2026-04-20T11:00:51.903Z</time></trkpt><trkpt lat="43.5612883" lon="11.2220717"><ele>241.0</ele><time>2026-04-20T11:00:52.903Z</time></trkpt><trkpt lat="43.56125" lon="11.2221833"><ele>241.0</ele><time>2026-04-20T11:00:53.903Z</time></trkpt><trkpt lat="43.5612283" lon="11.22231"><ele>241.0</ele><time>2026-04-20T11:00:54.903Z</time></trkpt><trkpt lat="43.56124" lon="11.2224367"><ele>240.99999999999997</ele><time>2026-04-20T11:00:55.903Z</time></trkpt><trkpt lat="43.561275" lon="11.2225467"><ele>241.0</ele><time>2026-04-20T11:00:56.904Z</time></trkpt><trkpt lat="43.5613233" lon="11.22263"><ele>240.8</ele><time>2026-04-20T11:00:57.903Z</time></trkpt><trkpt lat="43.5614017" lon="11.2226717"><ele>240.60000000000002</ele><time>2026-04-20T11:00:58.903Z</time></trkpt><trkpt lat="43.5615067" lon="11.2226817"><ele>240.4</ele><time>2026-04-20T11:00:59.903Z</time></trkpt><trkpt lat="43.56162" lon="11.2226883"><ele>240.2</ele><time>2026-04-20T11:01:00.903Z</time></trkpt><trkpt lat="43.5617267" lon="11.222705"><ele>240.0</ele><time>2026-04-20T11:01:01.903Z</time></trkpt><trkpt lat="43.5618283" lon="11.2227333"><ele>240.0</ele><time>2026-04-20T11:01:02.903Z</time></trkpt><trkpt lat="43.5619183" lon="11.222785"><ele>240.0</ele><time>2026-04-20T11:01:03.904Z</time></trkpt><trkpt lat="43.562" lon="11.2228433"><ele>240.0</ele><time>2026-04-20T11:01:04.903Z</time></trkpt><trkpt lat="43.5620717" lon="11.2229083"><ele>240.0</ele><time>2026-04-20T11:01:05.903Z</time></trkpt><trkpt lat="43.5621233" lon="11.2229717"><ele>240.0</ele><time>2026-04-20T11:01:06.904Z</time></trkpt><trkpt lat="43.5621717" lon="11.2231183"><ele>240.4</ele><time>2026-04-20T11:01:08.903Z</time></trkpt><trkpt lat="43.5621683" lon="11.2232083"><ele>240.8</ele><time>2026-04-20T11:01:09.903Z</time></trkpt><trkpt lat="43.5621333" lon="11.2232917"><ele>241.2</ele><time>2026-04-20T11:01:10.903Z</time></trkpt><trkpt lat="43.5620667" lon="11.2233633"><ele>241.6</ele><time>2026-04-20T11:01:11.903Z</time></trkpt><trkpt lat="43.5619533" lon="11.2234367"><ele>242.0</ele><time>2026-04-20T11:01:12.904Z</time></trkpt><trkpt lat="43.5618067" lon="11.2235283"><ele>246.0</ele><time>2026-04-20T11:01:13.903Z</time></trkpt><trkpt lat="43.5616467" lon="11.2236517"><ele>250.0</ele><time>2026-04-20T11:01:14.903Z</time></trkpt><trkpt lat="43.561485" lon="11.2238083"><ele>254.0</ele><time>2026-04-20T11:01:15.904Z</time></trkpt><trkpt lat="43.56134" lon="11.2239783"><ele>251.33333333333334</ele><time>2026-04-20T11:01:16.903Z</time></trkpt><trkpt lat="43.5612149" lon="11.2241395"><ele>248.66666666666669</ele><time>2026-04-20T11:01:17.904Z</time></trkpt><trkpt lat="43.5610915" lon="11.2242727"><ele>246.0</ele><time>2026-04-20T11:01:18.903Z</time></trkpt><trkpt lat="43.560969" lon="11.2243739"><ele>252.66666666666669</ele><time>2026-04-20T11:01:19.903Z</time></trkpt><trkpt lat="43.5608349" lon="11.2244635"><ele>259.33333333333337</ele><time>2026-04-20T11:01:20.903Z</time></trkpt><trkpt lat="43.5606914" lon="11.2245348"><ele>266.0</ele><time>2026-04-20T11:01:21.903Z</time></trkpt><trkpt lat="43.5605448" lon="11.2245976"><ele>266.0</ele><time>2026-04-20T11:01:22.903Z</time></trkpt><trkpt lat="43.5603954" lon="11.2246608"><ele>266.0</ele><time>2026-04-20T11:01:23.904Z</time></trkpt><trkpt lat="43.5602395" lon="11.2247275"><ele>266.0</ele><time>2026-04-20T11:01:24.903Z</time></trkpt><trkpt lat="43.5600837" lon="11.224798"><ele>268.0</ele><time>2026-04-20T11:01:25.903Z</time></trkpt><trkpt lat="43.5599307" lon="11.2248745"><ele>270.0</ele><time>2026-04-20T11:01:26.903Z</time></trkpt><trkpt lat="43.5597714" lon="11.2249515"><ele>272.0</ele><time>2026-04-20T11:01:27.903Z</time></trkpt><trkpt lat="43.5596184" lon="11.2250354"><ele>274.25</ele><time>2026-04-20T11:01:28.903Z</time></trkpt><trkpt lat="43.5594814" lon="11.2251124"><ele>276.5</ele><time>2026-04-20T11:01:29.904Z</time></trkpt><trkpt lat="43.5593593" lon="11.2251753"><ele>278.75</ele><time>2026-04-20T11:01:30.903Z</time></trkpt><trkpt lat="43.5592518" lon="11.2251799"><ele>281.0</ele><time>2026-04-20T11:01:31.903Z</time></trkpt><trkpt lat="43.5591431" lon="11.2251383"><ele>281.0</ele><time>2026-04-20T11:01:32.903Z</time></trkpt><trkpt lat="43.5590386" lon="11.2250467"><ele>281.0</ele><time>2026-04-20T11:01:33.903Z</time></trkpt><trkpt lat="43.5589452" lon="11.2249285"><ele>281.0</ele><time>2026-04-20T11:01:34.903Z</time></trkpt><trkpt lat="43.5588484" lon="11.2248079"><ele>281.0</ele><time>2026-04-20T11:01:35.903Z</time></trkpt><trkpt lat="43.5587546" lon="11.2246883"><ele>284.25</ele><time>2026-04-20T11:01:36.903Z</time></trkpt><trkpt lat="43.5586555" lon="11.2245978"><ele>287.5</ele><time>2026-04-20T11:01:37.903Z</time></trkpt><trkpt lat="43.5585467" lon="11.2245543"><ele>290.75</ele><time>2026-04-20T11:01:38.903Z</time></trkpt><trkpt lat="43.5584287" lon="11.2245476"><ele>294.0</ele><time>2026-04-20T11:01:39.903Z</time></trkpt><trkpt lat="43.5583045" lon="11.2245834"><ele>294.0</ele><time>2026-04-20T11:01:40.903Z</time></trkpt><trkpt lat="43.55819" lon="11.2246117"><ele>294.0</ele><time>2026-04-20T11:01:41.903Z</time></trkpt><trkpt lat="43.55808" lon="11.2245883"><ele>294.0</ele><time>2026-04-20T11:01:42.903Z</time></trkpt><trkpt lat="43.557975" lon="11.224525"><ele>294.0</ele><time>2026-04-20T11:01:43.904Z</time></trkpt><trkpt lat="43.55789" lon="11.2244217"><ele>292.75</ele><time>2026-04-20T11:01:44.903Z</time></trkpt><trkpt lat="43.557815" lon="11.22429"><ele>291.5</ele><time>2026-04-20T11:01:45.903Z</time></trkpt><trkpt lat="43.557735" lon="11.22414"><ele>290.25</ele><time>2026-04-20T11:01:46.903Z</time></trkpt><trkpt lat="43.55764" lon="11.2239933"><ele>289.0</ele><time>2026-04-20T11:01:47.903Z</time></trkpt><trkpt lat="43.5575333" lon="11.2238583"><ele>291.75</ele><time>2026-04-20T11:01:48.903Z</time></trkpt><trkpt lat="43.5574217" lon="11.2237517"><ele>294.5</ele><time>2026-04-20T11:01:49.903Z</time></trkpt><trkpt lat="43.557325" lon="11.2236417"><ele>297.25</ele><time>2026-04-20T11:01:50.903Z</time></trkpt><trkpt lat="43.5572433" lon="11.223505"><ele>300.0</ele><time>2026-04-20T11:01:51.903Z</time></trkpt><trkpt lat="43.5571817" lon="11.2233483"><ele>300.0</ele><time>2026-04-20T11:01:52.904Z</time></trkpt><trkpt lat="43.55714" lon="11.2231883"><ele>300.0</ele><time>2026-04-20T11:01:53.903Z</time></trkpt><trkpt lat="43.5571017" lon="11.223025"><ele>300.0</ele><time>2026-04-20T11:01:54.903Z</time></trkpt><trkpt lat="43.5570283" lon="11.2228783"><ele>300.0</ele><time>2026-04-20T11:01:55.903Z</time></trkpt><trkpt lat="43.5569167" lon="11.2227767"><ele>302.25</ele><time>2026-04-20T11:01:56.903Z</time></trkpt><trkpt lat="43.5567917" lon="11.2227217"><ele>304.5</ele><time>2026-04-20T11:01:57.903Z</time></trkpt><trkpt lat="43.55667" lon="11.2227133"><ele>306.75</ele><time>2026-04-20T11:01:58.903Z</time></trkpt><trkpt lat="43.5565483" lon="11.2227417"><ele>309.0</ele><time>2026-04-20T11:01:59.903Z</time></trkpt><trkpt lat="43.5564167" lon="11.2227917"><ele>309.0</ele><time>2026-04-20T11:02:00.903Z</time></trkpt><trkpt lat="43.556285" lon="11.222815"><ele>309.0</ele><time>2026-04-20T11:02:01.904Z</time></trkpt><trkpt lat="43.5561583" lon="11.22279"><ele>309.0</ele><time>2026-04-20T11:02:02.904Z</time></trkpt><trkpt lat="43.5560317" lon="11.2227233"><ele>309.0</ele><time>2026-04-20T11:02:03.903Z</time></trkpt><trkpt lat="43.5559033" lon="11.222665"><ele>310.25</ele><time>2026-04-20T11:02:04.903Z</time></trkpt><trkpt lat="43.555765" lon="11.222655"><ele>311.5</ele><time>2026-04-20T11:02:05.903Z</time></trkpt><trkpt lat="43.55563" lon="11.22269"><ele>312.75</ele><time>2026-04-20T11:02:06.904Z</time></trkpt><trkpt lat="43.5555083" lon="11.2227533"><ele>314.0</ele><time>2026-04-20T11:02:07.904Z</time></trkpt><trkpt lat="43.5553917" lon="11.2228017"><ele>314.25</ele><time>2026-04-20T11:02:08.903Z</time></trkpt><trkpt lat="43.5552733" lon="11.2228083"><ele>314.5</ele><time>2026-04-20T11:02:09.903Z</time></trkpt><trkpt lat="43.5551417" lon="11.2227817"><ele>314.75</ele><time>2026-04-20T11:02:10.903Z</time></trkpt><trkpt lat="43.5550033" lon="11.2227367"><ele>315.0</ele><time>2026-04-20T11:02:11.903Z</time></trkpt><trkpt lat="43.5548633" lon="11.22266"><ele>315.0</ele><time>2026-04-20T11:02:12.904Z</time></trkpt><trkpt lat="43.5547233" lon="11.22257"><ele>315.0</ele><time>2026-04-20T11:02:13.903Z</time></trkpt><trkpt lat="43.5545717" lon="11.2224717"><ele>315.0</ele><time>2026-04-20T11:02:14.903Z</time></trkpt><trkpt lat="43.554415" lon="11.22238"><ele>317.6666666666667</ele><time>2026-04-20T11:02:15.903Z</time></trkpt><trkpt lat="43.5542667" lon="11.2222917"><ele>320.33333333333337</ele><time>2026-04-20T11:02:16.903Z</time></trkpt><trkpt lat="43.554135" lon="11.22219"><ele>323.0</ele><time>2026-04-20T11:02:17.903Z</time></trkpt><trkpt lat="43.55402" lon="11.2220717"><ele>323.0</ele><time>2026-04-20T11:02:18.903Z</time></trkpt><trkpt lat="43.5539067" lon="11.2219517"><ele>323.0</ele><time>2026-04-20T11:02:19.903Z</time></trkpt><trkpt lat="43.5537717" lon="11.22184"><ele>323.0</ele><time>2026-04-20T11:02:20.903Z</time></trkpt><trkpt lat="43.5536183" lon="11.2217567"><ele>320.0</ele><time>2026-04-20T11:02:21.903Z</time></trkpt><trkpt lat="43.5534533" lon="11.2217017"><ele>317.0</ele><time>2026-04-20T11:02:22.903Z</time></trkpt><trkpt lat="43.5532883" lon="11.2216617"><ele>314.0</ele><time>2026-04-20T11:02:23.904Z</time></trkpt><trkpt lat="43.5531483" lon="11.2216117"><ele>314.0</ele><time>2026-04-20T11:02:24.903Z</time></trkpt><trkpt lat="43.5530117" lon="11.22157"><ele>314.0</ele><time>2026-04-20T11:02:25.903Z</time></trkpt><trkpt lat="43.5528733" lon="11.2215483"><ele>314.0</ele><time>2026-04-20T11:02:26.903Z</time></trkpt><trkpt lat="43.5527183" lon="11.2215517"><ele>314.0</ele><time>2026-04-20T11:02:27.903Z</time></trkpt><trkpt lat="43.5525583" lon="11.221595"><ele>315.0</ele><time>2026-04-20T11:02:28.903Z</time></trkpt><trkpt lat="43.5523967" lon="11.221645"><ele>316.0</ele><time>2026-04-20T11:02:29.903Z</time></trkpt><trkpt lat="43.552245" lon="11.2216917"><ele>317.0</ele><time>2026-04-20T11:02:30.903Z</time></trkpt><trkpt lat="43.55209" lon="11.2217483"><ele>320.33333333333337</ele><time>2026-04-20T11:02:31.903Z</time></trkpt><trkpt lat="43.5519433" lon="11.22184"><ele>323.6666666666667</ele><time>2026-04-20T11:02:32.903Z</time></trkpt><trkpt lat="43.55181" lon="11.2219617"><ele>327.0</ele><time>2026-04-20T11:02:33.903Z</time></trkpt><trkpt lat="43.551685" lon="11.2221167"><ele>327.0</ele><time>2026-04-20T11:02:34.903Z</time></trkpt><trkpt lat="43.551555" lon="11.2222833"><ele>327.0</ele><time>2026-04-20T11:02:35.904Z</time></trkpt><trkpt lat="43.55142" lon="11.2224617"><ele>327.0</ele><time>2026-04-20T11:02:36.903Z</time></trkpt><trkpt lat="43.5513" lon="11.222605"><ele>329.5</ele><time>2026-04-20T11:02:37.903Z</time></trkpt><trkpt lat="43.5511783" lon="11.222745"><ele>332.0</ele><time>2026-04-20T11:02:38.903Z</time></trkpt><trkpt lat="43.551065" lon="11.2228617"><ele>334.5</ele><time>2026-04-20T11:02:39.903Z</time></trkpt><trkpt lat="43.5509433" lon="11.222935"><ele>337.0</ele><time>2026-04-20T11:02:40.903Z</time></trkpt><trkpt lat="43.5508017" lon="11.22297"><ele>337.0</ele><time>2026-04-20T11:02:41.903Z</time></trkpt><trkpt lat="43.5506517" lon="11.2229933"><ele>337.0</ele><time>2026-04-20T11:02:42.904Z</time></trkpt><trkpt lat="43.550485" lon="11.2230167"><ele>337.0</ele><time>2026-04-20T11:02:43.903Z</time></trkpt><trkpt lat="43.55032" lon="11.2230683"><ele>335.3333333333333</ele><time>2026-04-20T11:02:44.904Z</time></trkpt><trkpt lat="43.5501517" lon="11.22317"><ele>333.6666666666667</ele><time>2026-04-20T11:02:45.903Z</time></trkpt><trkpt lat="43.5499917" lon="11.223315"><ele>332.0</ele><time>2026-04-20T11:02:46.904Z</time></trkpt><trkpt lat="43.5498167" lon="11.223455"><ele>332.0</ele><time>2026-04-20T11:02:47.904Z</time></trkpt><trkpt lat="43.549645" lon="11.2235833"><ele>332.0</ele><time>2026-04-20T11:02:48.903Z</time></trkpt><trkpt lat="43.5494683" lon="11.2237017"><ele>332.0</ele><time>2026-04-20T11:02:49.903Z</time></trkpt><trkpt lat="43.5492933" lon="11.2238217"><ele>333.6666666666667</ele><time>2026-04-20T11:02:50.903Z</time></trkpt><trkpt lat="43.549125" lon="11.223945"><ele>335.3333333333333</ele><time>2026-04-20T11:02:51.903Z</time></trkpt><trkpt lat="43.548975" lon="11.2240567"><ele>337.0</ele><time>2026-04-20T11:02:52.903Z</time></trkpt><trkpt lat="43.548825" lon="11.2241533"><ele>339.66666666666663</ele><time>2026-04-20T11:02:53.903Z</time></trkpt><trkpt lat="43.548665" lon="11.22427"><ele>342.3333333333333</ele><time>2026-04-20T11:02:54.903Z</time></trkpt><trkpt lat="43.54852" lon="11.22437"><ele>345.0</ele><time>2026-04-20T11:02:55.903Z</time></trkpt><trkpt lat="43.5483833" lon="11.2244667"><ele>345.0</ele><time>2026-04-20T11:02:56.904Z</time></trkpt><trkpt lat="43.54826" lon="11.224575"><ele>345.0</ele><time>2026-04-20T11:02:57.903Z</time></trkpt><trkpt lat="43.548165" lon="11.22472"><ele>345.0</ele><time>2026-04-20T11:02:58.903Z</time></trkpt><trkpt lat="43.5480917" lon="11.22492"><ele>342.0</ele><time>2026-04-20T11:02:59.904Z</time></trkpt><trkpt lat="43.548035" lon="11.2251333"><ele>339.0</ele><time>2026-04-20T11:03:00.903Z</time></trkpt><trkpt lat="43.54798" lon="11.225325"><ele>336.0</ele><time>2026-04-20T11:03:01.904Z</time></trkpt><trkpt lat="43.5479167" lon="11.2254917"><ele>338.8</ele><time>2026-04-20T11:03:02.903Z</time></trkpt><trkpt lat="43.5478617" lon="11.22564"><ele>341.6</ele><time>2026-04-20T11:03:03.903Z</time></trkpt><trkpt lat="43.547805" lon="11.2257733"><ele>344.4</ele><time>2026-04-20T11:03:04.904Z</time></trkpt><trkpt lat="43.5477433" lon="11.225895"><ele>347.2</ele><time>2026-04-20T11:03:05.903Z</time></trkpt><trkpt lat="43.54768" lon="11.2260067"><ele>350.0</ele><time>2026-04-20T11:03:06.904Z</time></trkpt><trkpt lat="43.547615" lon="11.2261033"><ele>350.0</ele><time>2026-04-20T11:03:07.903Z</time></trkpt><trkpt lat="43.5475417" lon="11.2262"><ele>350.0</ele><time>2026-04-20T11:03:08.904Z</time></trkpt><trkpt lat="43.5474667" lon="11.2262933"><ele>350.0</ele><time>2026-04-20T11:03:09.904Z</time></trkpt><trkpt lat="43.5474" lon="11.226375"><ele>350.0</ele><time>2026-04-20T11:03:10.903Z</time></trkpt><trkpt lat="43.54733" lon="11.22644"><ele>350.0</ele><time>2026-04-20T11:03:11.903Z</time></trkpt><trkpt lat="43.5472767" lon="11.226495"><ele>350.0</ele><time>2026-04-20T11:03:12.904Z</time></trkpt><trkpt lat="43.5471883" lon="11.22657"><ele>350.0</ele><time>2026-04-20T11:03:14.903Z</time></trkpt><trkpt lat="43.5471117" lon="11.2265983"><ele>350.0</ele><time>2026-04-20T11:03:16.904Z</time></trkpt><trkpt lat="43.5470383" lon="11.2266267"><ele>350.0</ele><time>2026-04-20T11:03:23.903Z</time></trkpt><trkpt lat="43.5469367" lon="11.2267433"><ele>350.0</ele><time>2026-04-20T11:03:25.903Z</time></trkpt><trkpt lat="43.5468767" lon="11.2268083"><ele>350.0</ele><time>2026-04-20T11:03:26.903Z</time></trkpt><trkpt lat="43.5468067" lon="11.2268933"><ele>350.0</ele><time>2026-04-20T11:03:27.903Z</time></trkpt><trkpt lat="43.5467233" lon="11.2269767"><ele>350.0</ele><time>2026-04-20T11:03:28.903Z</time></trkpt><trkpt lat="43.5466383" lon="11.2270483"><ele>350.0</ele><time>2026-04-20T11:03:29.903Z</time></trkpt><trkpt lat="43.5465433" lon="11.227125"><ele>350.0</ele><time>2026-04-20T11:03:30.903Z</time></trkpt><trkpt lat="43.5464417" lon="11.2272083"><ele>350.0</ele><time>2026-04-20T11:03:31.903Z</time></trkpt><trkpt lat="43.5463333" lon="11.2272967"><ele>350.5</ele><time>2026-04-20T11:03:32.903Z</time></trkpt><trkpt lat="43.546205" lon="11.2273867"><ele>351.0</ele><time>2026-04-20T11:03:33.903Z</time></trkpt><trkpt lat="43.546085" lon="11.22748"><ele>351.5</ele><time>2026-04-20T11:03:34.903Z</time></trkpt><trkpt lat="43.54597" lon="11.22757"><ele>352.0</ele><time>2026-04-20T11:03:35.904Z</time></trkpt><trkpt lat="43.5458533" lon="11.2276633"><ele>352.0</ele><time>2026-04-20T11:03:36.903Z</time></trkpt><trkpt lat="43.545725" lon="11.22776"><ele>352.0</ele><time>2026-04-20T11:03:37.903Z</time></trkpt><trkpt lat="43.54559" lon="11.22786"><ele>352.0</ele><time>2026-04-20T11:03:38.903Z</time></trkpt><trkpt lat="43.54545" lon="11.2279617"><ele>351.3333333333333</ele><time>2026-04-20T11:03:39.903Z</time></trkpt><trkpt lat="43.5452983" lon="11.22807"><ele>350.6666666666667</ele><time>2026-04-20T11:03:40.903Z</time></trkpt><trkpt lat="43.5451367" lon="11.22819"><ele>350.0</ele><time>2026-04-20T11:03:41.903Z</time></trkpt><trkpt lat="43.5449783" lon="11.2283133"><ele>352.33333333333337</ele><time>2026-04-20T11:03:42.903Z</time></trkpt><trkpt lat="43.5448233" lon="11.2284383"><ele>354.6666666666667</ele><time>2026-04-20T11:03:43.903Z</time></trkpt><trkpt lat="43.5446667" lon="11.2285633"><ele>357.0</ele><time>2026-04-20T11:03:44.903Z</time></trkpt><trkpt lat="43.5444933" lon="11.2286983"><ele>357.3333333333333</ele><time>2026-04-20T11:03:45.903Z</time></trkpt><trkpt lat="43.5443183" lon="11.2288367"><ele>357.66666666666663</ele><time>2026-04-20T11:03:46.903Z</time></trkpt><trkpt lat="43.5441417" lon="11.2289833"><ele>358.0</ele><time>2026-04-20T11:03:47.903Z</time></trkpt><trkpt lat="43.5439783" lon="11.2291167"><ele>359.66666666666663</ele><time>2026-04-20T11:03:48.903Z</time></trkpt><trkpt lat="43.54383" lon="11.229235"><ele>361.3333333333333</ele><time>2026-04-20T11:03:49.904Z</time></trkpt><trkpt lat="43.5436917" lon="11.229345"><ele>363.0</ele><time>2026-04-20T11:03:50.904Z</time></trkpt><trkpt lat="43.54355" lon="11.2294533"><ele>363.6666666666667</ele><time>2026-04-20T11:03:51.904Z</time></trkpt><trkpt lat="43.5434017" lon="11.2295567"><ele>364.33333333333337</ele><time>2026-04-20T11:03:52.904Z</time></trkpt><trkpt lat="43.5432517" lon="11.229655"><ele>365.0</ele><time>2026-04-20T11:03:53.904Z</time></trkpt><trkpt lat="43.543095" lon="11.2297417"><ele>365.0</ele><time>2026-04-20T11:03:54.903Z</time></trkpt><trkpt lat="43.5429317" lon="11.2298183"><ele>365.0</ele><time>2026-04-20T11:03:55.903Z</time></trkpt><trkpt lat="43.5427667" lon="11.22989"><ele>365.0</ele><time>2026-04-20T11:03:56.903Z</time></trkpt><trkpt lat="43.542605" lon="11.229955"><ele>365.0</ele><time>2026-04-20T11:03:57.904Z</time></trkpt><trkpt lat="43.5424383" lon="11.2300217"><ele>365.0</ele><time>2026-04-20T11:03:58.903Z</time></trkpt><trkpt lat="43.5422717" lon="11.2300817"><ele>365.0</ele><time>2026-04-20T11:03:59.903Z</time></trkpt><trkpt lat="43.542105" lon="11.2301433"><ele>365.33333333333337</ele><time>2026-04-20T11:04:00.903Z</time></trkpt><trkpt lat="43.54194" lon="11.2301983"><ele>365.6666666666667</ele><time>2026-04-20T11:04:01.904Z</time></trkpt><trkpt lat="43.54177" lon="11.2302483"><ele>366.0</ele><time>2026-04-20T11:04:02.903Z</time></trkpt><trkpt lat="43.5416033" lon="11.2303083"><ele>366.0</ele><time>2026-04-20T11:04:03.903Z</time></trkpt><trkpt lat="43.54143" lon="11.230375"><ele>366.0</ele><time>2026-04-20T11:04:04.903Z</time></trkpt><trkpt lat="43.5412583" lon="11.2304417"><ele>366.0</ele><time>2026-04-20T11:04:05.904Z</time></trkpt><trkpt lat="43.5410817" lon="11.230505"><ele>366.6666666666667</ele><time>2026-04-20T11:04:06.903Z</time></trkpt><trkpt lat="43.54091" lon="11.2305717"><ele>367.33333333333337</ele><time>2026-04-20T11:04:07.903Z</time></trkpt><trkpt lat="43.5407367" lon="11.2306483"><ele>368.0</ele><time>2026-04-20T11:04:08.903Z</time></trkpt><trkpt lat="43.540565" lon="11.2307267"><ele>368.6666666666667</ele><time>2026-04-20T11:04:09.903Z</time></trkpt><trkpt lat="43.5404" lon="11.230815"><ele>369.3333333333333</ele><time>2026-04-20T11:04:10.903Z</time></trkpt><trkpt lat="43.540225" lon="11.2309017"><ele>370.0</ele><time>2026-04-20T11:04:11.903Z</time></trkpt><trkpt lat="43.5400517" lon="11.2309933"><ele>371.0</ele><time>2026-04-20T11:04:12.903Z</time></trkpt><trkpt lat="43.5398817" lon="11.231085"><ele>372.0</ele><time>2026-04-20T11:04:13.903Z</time></trkpt><trkpt lat="43.5397117" lon="11.2311817"><ele>373.0</ele><time>2026-04-20T11:04:14.903Z</time></trkpt><trkpt lat="43.5395367" lon="11.2312667"><ele>373.0</ele><time>2026-04-20T11:04:15.903Z</time></trkpt><trkpt lat="43.5393667" lon="11.2313733"><ele>373.0</ele><time>2026-04-20T11:04:16.903Z</time></trkpt><trkpt lat="43.5392033" lon="11.2314767"><ele>373.0</ele><time>2026-04-20T11:04:17.903Z</time></trkpt><trkpt lat="43.539045" lon="11.23157"><ele>373.0</ele><time>2026-04-20T11:04:18.903Z</time></trkpt><trkpt lat="43.5388967" lon="11.231665"><ele>373.0</ele><time>2026-04-20T11:04:19.903Z</time></trkpt><trkpt lat="43.5387767" lon="11.23177"><ele>373.0</ele><time>2026-04-20T11:04:20.903Z</time></trkpt><trkpt lat="43.5386783" lon="11.2318933"><ele>373.0</ele><time>2026-04-20T11:04:21.903Z</time></trkpt><trkpt lat="43.5385917" lon="11.2320467"><ele>374.0</ele><time>2026-04-20T11:04:22.903Z</time></trkpt><trkpt lat="43.5385167" lon="11.23221"><ele>375.0</ele><time>2026-04-20T11:04:23.903Z</time></trkpt><trkpt lat="43.5384533" lon="11.2323867"><ele>376.0</ele><time>2026-04-20T11:04:24.903Z</time></trkpt><trkpt lat="43.53841" lon="11.2325933"><ele>377.0</ele><time>2026-04-20T11:04:25.903Z</time></trkpt><trkpt lat="43.5383783" lon="11.2328133"><ele>377.0</ele><time>2026-04-20T11:04:26.903Z</time></trkpt><trkpt lat="43.5383683" lon="11.2330533"><ele>377.0</ele><time>2026-04-20T11:04:27.903Z</time></trkpt><trkpt lat="43.5383683" lon="11.2333083"><ele>377.0</ele><time>2026-04-20T11:04:28.902Z</time></trkpt><trkpt lat="43.5383583" lon="11.2335767"><ele>377.33333333333337</ele><time>2026-04-20T11:04:29.902Z</time></trkpt><trkpt lat="43.5383517" lon="11.233845"><ele>377.6666666666667</ele><time>2026-04-20T11:04:30.902Z</time></trkpt><trkpt lat="43.5383433" lon="11.2341183"><ele>378.0</ele><time>2026-04-20T11:04:31.902Z</time></trkpt><trkpt lat="43.5383317" lon="11.2343967"><ele>380.33333333333337</ele><time>2026-04-20T11:04:32.902Z</time></trkpt><trkpt lat="43.5383217" lon="11.23466"><ele>382.6666666666667</ele><time>2026-04-20T11:04:33.902Z</time></trkpt><trkpt lat="43.538315" lon="11.2349217"><ele>385.0</ele><time>2026-04-20T11:04:34.902Z</time></trkpt><trkpt lat="43.5383117" lon="11.2351633"><ele>387.33333333333337</ele><time>2026-04-20T11:04:35.902Z</time></trkpt><trkpt lat="43.5382967" lon="11.2353917"><ele>389.66666666666663</ele><time>2026-04-20T11:04:36.902Z</time></trkpt><trkpt lat="43.538265" lon="11.235605"><ele>392.0</ele><time>2026-04-20T11:04:37.902Z</time></trkpt><trkpt lat="43.538215" lon="11.2357983"><ele>392.75</ele><time>2026-04-20T11:04:38.902Z</time></trkpt><trkpt lat="43.53815" lon="11.2359817"><ele>393.5</ele><time>2026-04-20T11:04:39.903Z</time></trkpt><trkpt lat="43.5380667" lon="11.2361483"><ele>394.25</ele><time>2026-04-20T11:04:40.903Z</time></trkpt><trkpt lat="43.53796" lon="11.2363"><ele>395.0</ele><time>2026-04-20T11:04:41.902Z</time></trkpt><trkpt lat="43.5378267" lon="11.23644"><ele>395.0</ele><time>2026-04-20T11:04:42.902Z</time></trkpt><trkpt lat="43.537675" lon="11.236575"><ele>395.0</ele><time>2026-04-20T11:04:43.902Z</time></trkpt><trkpt lat="43.5375133" lon="11.23671"><ele>395.0</ele><time>2026-04-20T11:04:44.902Z</time></trkpt><trkpt lat="43.53736" lon="11.2368517"><ele>395.0</ele><time>2026-04-20T11:04:45.902Z</time></trkpt><trkpt lat="43.5372017" lon="11.2369867"><ele>395.0</ele><time>2026-04-20T11:04:46.902Z</time></trkpt><trkpt lat="43.537055" lon="11.2371267"><ele>395.0</ele><time>2026-04-20T11:04:47.902Z</time></trkpt><trkpt lat="43.5369117" lon="11.2372833"><ele>396.66666666666663</ele><time>2026-04-20T11:04:48.902Z</time></trkpt><trkpt lat="43.536785" lon="11.2374517"><ele>398.33333333333337</ele><time>2026-04-20T11:04:49.902Z</time></trkpt><trkpt lat="43.5366817" lon="11.2376567"><ele>400.0</ele><time>2026-04-20T11:04:50.902Z</time></trkpt><trkpt lat="43.536595" lon="11.2378833"><ele>400.0</ele><time>2026-04-20T11:04:51.902Z</time></trkpt><trkpt lat="43.5365167" lon="11.2381333"><ele>400.0</ele><time>2026-04-20T11:04:52.902Z</time></trkpt><trkpt lat="43.5364417" lon="11.238385"><ele>400.0</ele><time>2026-04-20T11:04:53.902Z</time></trkpt><trkpt lat="43.5363717" lon="11.238625"><ele>400.33333333333337</ele><time>2026-04-20T11:04:54.902Z</time></trkpt><trkpt lat="43.536295" lon="11.2388517"><ele>400.66666666666663</ele><time>2026-04-20T11:04:55.902Z</time></trkpt><trkpt lat="43.5362217" lon="11.2390617"><ele>401.0</ele><time>2026-04-20T11:04:56.902Z</time></trkpt><trkpt lat="43.5361533" lon="11.2392567"><ele>401.0</ele><time>2026-04-20T11:04:57.902Z</time></trkpt><trkpt lat="43.5360883" lon="11.2394383"><ele>401.0</ele><time>2026-04-20T11:04:58.903Z</time></trkpt><trkpt lat="43.5360083" lon="11.2396233"><ele>401.0</ele><time>2026-04-20T11:04:59.902Z</time></trkpt><trkpt lat="43.5359117" lon="11.2398033"><ele>399.3333333333333</ele><time>2026-04-20T11:05:00.902Z</time></trkpt><trkpt lat="43.5358067" lon="11.239985"><ele>397.66666666666663</ele><time>2026-04-20T11:05:01.902Z</time></trkpt><trkpt lat="43.5356933" lon="11.2401767"><ele>396.0</ele><time>2026-04-20T11:05:02.903Z</time></trkpt><trkpt lat="43.5355733" lon="11.2403567"><ele>396.0</ele><time>2026-04-20T11:05:03.902Z</time></trkpt><trkpt lat="43.5354467" lon="11.2405233"><ele>396.0</ele><time>2026-04-20T11:05:04.902Z</time></trkpt><trkpt lat="43.5353183" lon="11.2406717"><ele>396.0</ele><time>2026-04-20T11:05:05.902Z</time></trkpt><trkpt lat="43.5351783" lon="11.2408217"><ele>394.0</ele><time>2026-04-20T11:05:06.902Z</time></trkpt><trkpt lat="43.5350433" lon="11.2409567"><ele>392.0</ele><time>2026-04-20T11:05:07.902Z</time></trkpt><trkpt lat="43.5349017" lon="11.2410817"><ele>390.0</ele><time>2026-04-20T11:05:08.902Z</time></trkpt><trkpt lat="43.534765" lon="11.2411933"><ele>390.0</ele><time>2026-04-20T11:05:09.902Z</time></trkpt><trkpt lat="43.5346283" lon="11.241295"><ele>390.0</ele><time>2026-04-20T11:05:10.902Z</time></trkpt><trkpt lat="43.5344833" lon="11.2414017"><ele>390.0</ele><time>2026-04-20T11:05:11.902Z</time></trkpt><trkpt lat="43.5343317" lon="11.24149"><ele>389.33333333333337</ele><time>2026-04-20T11:05:12.902Z</time></trkpt><trkpt lat="43.5341817" lon="11.2415767"><ele>388.6666666666667</ele><time>2026-04-20T11:05:13.902Z</time></trkpt><trkpt lat="43.5340283" lon="11.2416483"><ele>388.0</ele><time>2026-04-20T11:05:14.903Z</time></trkpt><trkpt lat="43.53389" lon="11.241705"><ele>388.0</ele><time>2026-04-20T11:05:15.902Z</time></trkpt><trkpt lat="43.5337683" lon="11.241755"><ele>388.0</ele><time>2026-04-20T11:05:16.902Z</time></trkpt><trkpt lat="43.5336567" lon="11.2417917"><ele>388.0</ele><time>2026-04-20T11:05:17.902Z</time></trkpt><trkpt lat="43.5335633" lon="11.241825"><ele>388.0</ele><time>2026-04-20T11:05:18.902Z</time></trkpt><trkpt lat="43.5334917" lon="11.2418583"><ele>388.0</ele><time>2026-04-20T11:05:19.903Z</time></trkpt><trkpt lat="43.5334083" lon="11.2418867"><ele>387.59999999999997</ele><time>2026-04-20T11:05:21.902Z</time></trkpt><trkpt lat="43.5333283" lon="11.241905"><ele>387.2</ele><time>2026-04-20T11:05:25.903Z</time></trkpt><trkpt lat="43.5332267" lon="11.2419383"><ele>386.8</ele><time>2026-04-20T11:05:27.902Z</time></trkpt><trkpt lat="43.5331083" lon="11.2419767"><ele>386.4</ele><time>2026-04-20T11:05:29.903Z</time></trkpt><trkpt lat="43.53297" lon="11.241995"><ele>386.0</ele><time>2026-04-20T11:05:31.902Z</time></trkpt><trkpt lat="43.5328933" lon="11.2419983"><ele>386.3333333333333</ele><time>2026-04-20T11:05:32.902Z</time></trkpt><trkpt lat="43.5328117" lon="11.2420067"><ele>386.66666666666663</ele><time>2026-04-20T11:05:33.903Z</time></trkpt><trkpt lat="43.5327333" lon="11.242005"><ele>387.0</ele><time>2026-04-20T11:05:34.902Z</time></trkpt><trkpt lat="43.5326617" lon="11.2420067"><ele>387.33333333333337</ele><time>2026-04-20T11:05:35.902Z</time></trkpt><trkpt lat="43.5325867" lon="11.2420033"><ele>387.6666666666667</ele><time>2026-04-20T11:05:36.903Z</time></trkpt><trkpt lat="43.532515" lon="11.2419967"><ele>388.0</ele><time>2026-04-20T11:05:37.902Z</time></trkpt><trkpt lat="43.532435" lon="11.241985"><ele>388.00000000000006</ele><time>2026-04-20T11:05:38.903Z</time></trkpt><trkpt lat="43.5323633" lon="11.2419883"><ele>388.0</ele><time>2026-04-20T11:05:39.902Z</time></trkpt><trkpt lat="43.532295" lon="11.2419917"><ele>388.0</ele><time>2026-04-20T11:05:40.902Z</time></trkpt><trkpt lat="43.532175" lon="11.2419967"><ele>388.0</ele><time>2026-04-20T11:05:42.903Z</time></trkpt><trkpt lat="43.5321117" lon="11.2419933"><ele>388.00000000000006</ele><time>2026-04-20T11:05:43.902Z</time></trkpt><trkpt lat="43.5320417" lon="11.241985"><ele>388.0</ele><time>2026-04-20T11:05:44.902Z</time></trkpt><trkpt lat="43.531965" lon="11.241965"><ele>389.0</ele><time>2026-04-20T11:05:45.902Z</time></trkpt><trkpt lat="43.53188" lon="11.2419317"><ele>390.0</ele><time>2026-04-20T11:05:46.902Z</time></trkpt><trkpt lat="43.531785" lon="11.241885"><ele>391.0</ele><time>2026-04-20T11:05:47.902Z</time></trkpt><trkpt lat="43.5316867" lon="11.2418267"><ele>392.0</ele><time>2026-04-20T11:05:48.902Z</time></trkpt><trkpt lat="43.5316017" lon="11.241755"><ele>393.0</ele><time>2026-04-20T11:05:49.903Z</time></trkpt><trkpt lat="43.5315067" lon="11.2416983"><ele>393.0</ele><time>2026-04-20T11:05:50.902Z</time></trkpt><trkpt lat="43.5314067" lon="11.2416283"><ele>393.0</ele><time>2026-04-20T11:05:51.902Z</time></trkpt><trkpt lat="43.5313033" lon="11.2415517"><ele>393.0</ele><time>2026-04-20T11:05:52.903Z</time></trkpt><trkpt lat="43.5311917" lon="11.24145"><ele>393.0</ele><time>2026-04-20T11:05:53.902Z</time></trkpt><trkpt lat="43.5310767" lon="11.241355"><ele>394.25</ele><time>2026-04-20T11:05:54.902Z</time></trkpt><trkpt lat="43.5309633" lon="11.2412633"><ele>395.5</ele><time>2026-04-20T11:05:55.902Z</time></trkpt><trkpt lat="43.5308567" lon="11.2411817"><ele>396.75</ele><time>2026-04-20T11:05:56.902Z</time></trkpt><trkpt lat="43.5307417" lon="11.2411"><ele>398.0</ele><time>2026-04-20T11:05:57.903Z</time></trkpt><trkpt lat="43.530615" lon="11.2410167"><ele>398.0</ele><time>2026-04-20T11:05:58.903Z</time></trkpt><trkpt lat="43.5304867" lon="11.2409467"><ele>398.0</ele><time>2026-04-20T11:05:59.902Z</time></trkpt><trkpt lat="43.5303533" lon="11.2408817"><ele>398.0</ele><time>2026-04-20T11:06:00.902Z</time></trkpt><trkpt lat="43.530215" lon="11.2408183"><ele>398.0</ele><time>2026-04-20T11:06:01.902Z</time></trkpt><trkpt lat="43.5300617" lon="11.240765"><ele>398.66666666666663</ele><time>2026-04-20T11:06:02.903Z</time></trkpt><trkpt lat="43.529905" lon="11.2407183"><ele>399.33333333333337</ele><time>2026-04-20T11:06:03.903Z</time></trkpt><trkpt lat="43.5297383" lon="11.2406717"><ele>400.0</ele><time>2026-04-20T11:06:04.902Z</time></trkpt><trkpt lat="43.529565" lon="11.2406183"><ele>397.33333333333337</ele><time>2026-04-20T11:06:05.902Z</time></trkpt><trkpt lat="43.5294067" lon="11.240555"><ele>394.66666666666663</ele><time>2026-04-20T11:06:06.902Z</time></trkpt><trkpt lat="43.5292417" lon="11.2404783"><ele>392.0</ele><time>2026-04-20T11:06:07.902Z</time></trkpt><trkpt lat="43.5290817" lon="11.2403867"><ele>392.0</ele><time>2026-04-20T11:06:08.902Z</time></trkpt><trkpt lat="43.5289183" lon="11.240285"><ele>392.0</ele><time>2026-04-20T11:06:09.902Z</time></trkpt><trkpt lat="43.5287583" lon="11.240175"><ele>392.0</ele><time>2026-04-20T11:06:10.902Z</time></trkpt><trkpt lat="43.5285967" lon="11.2400617"><ele>394.0</ele><time>2026-04-20T11:06:11.903Z</time></trkpt><trkpt lat="43.5284367" lon="11.2399583"><ele>396.0</ele><time>2026-04-20T11:06:12.902Z</time></trkpt><trkpt lat="43.5282783" lon="11.23984"><ele>398.0</ele><time>2026-04-20T11:06:13.902Z</time></trkpt><trkpt lat="43.5281217" lon="11.2397217"><ele>399.0</ele><time>2026-04-20T11:06:14.902Z</time></trkpt><trkpt lat="43.5279617" lon="11.2396117"><ele>400.0</ele><time>2026-04-20T11:06:15.902Z</time></trkpt><trkpt lat="43.5278" lon="11.2395"><ele>401.0</ele><time>2026-04-20T11:06:16.902Z</time></trkpt><trkpt lat="43.5276333" lon="11.2393933"><ele>401.0</ele><time>2026-04-20T11:06:17.902Z</time></trkpt><trkpt lat="43.52747" lon="11.239295"><ele>401.0</ele><time>2026-04-20T11:06:18.902Z</time></trkpt><trkpt lat="43.527295" lon="11.2392117"><ele>401.0</ele><time>2026-04-20T11:06:19.902Z</time></trkpt><trkpt lat="43.5271217" lon="11.2391267"><ele>401.3333333333333</ele><time>2026-04-20T11:06:20.902Z</time></trkpt><trkpt lat="43.52694" lon="11.23907"><ele>401.66666666666663</ele><time>2026-04-20T11:06:21.902Z</time></trkpt><trkpt lat="43.5267583" lon="11.2390067"><ele>402.0</ele><time>2026-04-20T11:06:22.902Z</time></trkpt><trkpt lat="43.52657" lon="11.2389433"><ele>402.0</ele><time>2026-04-20T11:06:23.902Z</time></trkpt><trkpt lat="43.526385" lon="11.23888"><ele>402.0</ele><time>2026-04-20T11:06:24.902Z</time></trkpt><trkpt lat="43.5262067" lon="11.2388067"><ele>402.0</ele><time>2026-04-20T11:06:25.902Z</time></trkpt><trkpt lat="43.526025" lon="11.238735"><ele>403.33333333333337</ele><time>2026-04-20T11:06:26.903Z</time></trkpt><trkpt lat="43.525845" lon="11.2386633"><ele>404.6666666666667</ele><time>2026-04-20T11:06:27.902Z</time></trkpt><trkpt lat="43.5256683" lon="11.2385917"><ele>406.0</ele><time>2026-04-20T11:06:28.903Z</time></trkpt><trkpt lat="43.5255" lon="11.2385217"><ele>406.0</ele><time>2026-04-20T11:06:29.903Z</time></trkpt><trkpt lat="43.5253433" lon="11.2384667"><ele>406.0</ele><time>2026-04-20T11:06:30.902Z</time></trkpt><trkpt lat="43.5252117" lon="11.2384333"><ele>406.0</ele><time>2026-04-20T11:06:31.902Z</time></trkpt><trkpt lat="43.5250883" lon="11.2384317"><ele>406.0</ele><time>2026-04-20T11:06:32.902Z</time></trkpt><trkpt lat="43.5249617" lon="11.23848"><ele>406.0</ele><time>2026-04-20T11:06:33.903Z</time></trkpt><trkpt lat="43.5248433" lon="11.2385667"><ele>406.0</ele><time>2026-04-20T11:06:34.902Z</time></trkpt><trkpt lat="43.5247183" lon="11.2386833"><ele>406.0</ele><time>2026-04-20T11:06:35.902Z</time></trkpt><trkpt lat="43.5246033" lon="11.238825"><ele>406.0</ele><time>2026-04-20T11:06:36.902Z</time></trkpt><trkpt lat="43.5244883" lon="11.2389867"><ele>407.33333333333337</ele><time>2026-04-20T11:06:37.902Z</time></trkpt><trkpt lat="43.5243983" lon="11.23917"><ele>408.66666666666663</ele><time>2026-04-20T11:06:38.903Z</time></trkpt><trkpt lat="43.5243233" lon="11.239385"><ele>410.0</ele><time>2026-04-20T11:06:39.903Z</time></trkpt><trkpt lat="43.524265" lon="11.239595"><ele>411.3333333333333</ele><time>2026-04-20T11:06:40.903Z</time></trkpt><trkpt lat="43.5241917" lon="11.2398017"><ele>412.66666666666663</ele><time>2026-04-20T11:06:41.902Z</time></trkpt><trkpt lat="43.5240983" lon="11.2399883"><ele>414.0</ele><time>2026-04-20T11:06:42.903Z</time></trkpt><trkpt lat="43.5240083" lon="11.240155"><ele>414.0</ele><time>2026-04-20T11:06:43.902Z</time></trkpt><trkpt lat="43.52391" lon="11.2403183"><ele>414.0</ele><time>2026-04-20T11:06:44.902Z</time></trkpt><trkpt lat="43.5237983" lon="11.2404667"><ele>414.0</ele><time>2026-04-20T11:06:45.902Z</time></trkpt><trkpt lat="43.5236867" lon="11.240585"><ele>415.0</ele><time>2026-04-20T11:06:46.902Z</time></trkpt><trkpt lat="43.5235617" lon="11.2406833"><ele>416.0</ele><time>2026-04-20T11:06:47.902Z</time></trkpt><trkpt lat="43.523425" lon="11.2407717"><ele>417.0</ele><time>2026-04-20T11:06:48.903Z</time></trkpt><trkpt lat="43.5232817" lon="11.2408467"><ele>418.0</ele><time>2026-04-20T11:06:49.902Z</time></trkpt><trkpt lat="43.5231317" lon="11.240915"><ele>418.0</ele><time>2026-04-20T11:06:50.902Z</time></trkpt><trkpt lat="43.5229833" lon="11.24101"><ele>418.0</ele><time>2026-04-20T11:06:51.903Z</time></trkpt><trkpt lat="43.5228467" lon="11.2411183"><ele>418.0</ele><time>2026-04-20T11:06:52.902Z</time></trkpt><trkpt lat="43.5227117" lon="11.2412533"><ele>417.6666666666667</ele><time>2026-04-20T11:06:53.902Z</time></trkpt><trkpt lat="43.522595" lon="11.241405"><ele>417.33333333333337</ele><time>2026-04-20T11:06:54.902Z</time></trkpt><trkpt lat="43.5224783" lon="11.2415767"><ele>417.0</ele><time>2026-04-20T11:06:55.903Z</time></trkpt><trkpt lat="43.5223733" lon="11.2417483"><ele>417.66666666666663</ele><time>2026-04-20T11:06:56.902Z</time></trkpt><trkpt lat="43.5222767" lon="11.2419433"><ele>418.3333333333333</ele><time>2026-04-20T11:06:57.902Z</time></trkpt><trkpt lat="43.5221933" lon="11.2421567"><ele>419.0</ele><time>2026-04-20T11:06:58.902Z</time></trkpt><trkpt lat="43.52212" lon="11.2423717"><ele>421.3333333333333</ele><time>2026-04-20T11:06:59.902Z</time></trkpt><trkpt lat="43.5220567" lon="11.242595"><ele>423.66666666666663</ele><time>2026-04-20T11:07:00.902Z</time></trkpt><trkpt lat="43.52201" lon="11.242825"><ele>426.0</ele><time>2026-04-20T11:07:01.902Z</time></trkpt><trkpt lat="43.5219567" lon="11.2430467"><ele>427.0</ele><time>2026-04-20T11:07:02.902Z</time></trkpt><trkpt lat="43.5219067" lon="11.2432767"><ele>428.0</ele><time>2026-04-20T11:07:03.902Z</time></trkpt><trkpt lat="43.5218533" lon="11.243495"><ele>429.0</ele><time>2026-04-20T11:07:04.902Z</time></trkpt><trkpt lat="43.5218" lon="11.2437117"><ele>429.0</ele><time>2026-04-20T11:07:05.902Z</time></trkpt><trkpt lat="43.52175" lon="11.2439183"><ele>429.0</ele><time>2026-04-20T11:07:06.903Z</time></trkpt><trkpt lat="43.5217033" lon="11.244135"><ele>429.0</ele><time>2026-04-20T11:07:07.902Z</time></trkpt><trkpt lat="43.521655" lon="11.2443567"><ele>429.0</ele><time>2026-04-20T11:07:08.902Z</time></trkpt><trkpt lat="43.52161" lon="11.2445717"><ele>429.0</ele><time>2026-04-20T11:07:09.902Z</time></trkpt><trkpt lat="43.52156" lon="11.2447767"><ele>429.0</ele><time>2026-04-20T11:07:10.903Z</time></trkpt><trkpt lat="43.5215033" lon="11.2449667"><ele>429.25</ele><time>2026-04-20T11:07:11.902Z</time></trkpt><trkpt lat="43.521435" lon="11.2451317"><ele>429.5</ele><time>2026-04-20T11:07:12.902Z</time></trkpt><trkpt lat="43.5213533" lon="11.2452883"><ele>429.75</ele><time>2026-04-20T11:07:13.902Z</time></trkpt><trkpt lat="43.5212617" lon="11.245445"><ele>430.0</ele><time>2026-04-20T11:07:14.902Z</time></trkpt><trkpt lat="43.5211367" lon="11.2455817"><ele>429.0</ele><time>2026-04-20T11:07:15.902Z</time></trkpt><trkpt lat="43.5210067" lon="11.2456867"><ele>428.0</ele><time>2026-04-20T11:07:16.902Z</time></trkpt><trkpt lat="43.5208683" lon="11.2457867"><ele>427.0</ele><time>2026-04-20T11:07:17.902Z</time></trkpt><trkpt lat="43.520725" lon="11.2458733"><ele>427.0</ele><time>2026-04-20T11:07:18.902Z</time></trkpt><trkpt lat="43.5205733" lon="11.2459683"><ele>427.0</ele><time>2026-04-20T11:07:19.902Z</time></trkpt><trkpt lat="43.5204217" lon="11.2460533"><ele>427.0</ele><time>2026-04-20T11:07:20.902Z</time></trkpt><trkpt lat="43.5202767" lon="11.2461367"><ele>426.6666666666667</ele><time>2026-04-20T11:07:21.902Z</time></trkpt><trkpt lat="43.520135" lon="11.2462267"><ele>426.33333333333337</ele><time>2026-04-20T11:07:22.903Z</time></trkpt><trkpt lat="43.5199933" lon="11.2463367"><ele>426.0</ele><time>2026-04-20T11:07:23.902Z</time></trkpt><trkpt lat="43.51986" lon="11.246475"><ele>426.0</ele><time>2026-04-20T11:07:24.903Z</time></trkpt><trkpt lat="43.5197367" lon="11.2466367"><ele>426.0</ele><time>2026-04-20T11:07:25.902Z</time></trkpt><trkpt lat="43.51961" lon="11.2468033"><ele>426.0</ele><time>2026-04-20T11:07:26.902Z</time></trkpt><trkpt lat="43.5194717" lon="11.246955"><ele>424.0</ele><time>2026-04-20T11:07:27.902Z</time></trkpt><trkpt lat="43.5193333" lon="11.2471083"><ele>422.0</ele><time>2026-04-20T11:07:28.902Z</time></trkpt><trkpt lat="43.5191917" lon="11.2472567"><ele>420.0</ele><time>2026-04-20T11:07:29.903Z</time></trkpt><trkpt lat="43.5190383" lon="11.2474017"><ele>419.0</ele><time>2026-04-20T11:07:30.902Z</time></trkpt><trkpt lat="43.518885" lon="11.247545"><ele>418.0</ele><time>2026-04-20T11:07:31.902Z</time></trkpt><trkpt lat="43.5187217" lon="11.2476817"><ele>417.0</ele><time>2026-04-20T11:07:32.902Z</time></trkpt><trkpt lat="43.51855" lon="11.2478033"><ele>415.66666666666663</ele><time>2026-04-20T11:07:33.902Z</time></trkpt><trkpt lat="43.518375" lon="11.2479117"><ele>414.3333333333333</ele><time>2026-04-20T11:07:34.902Z</time></trkpt><trkpt lat="43.5181917" lon="11.2479967"><ele>413.0</ele><time>2026-04-20T11:07:35.902Z</time></trkpt><trkpt lat="43.5180067" lon="11.24806"><ele>412.0</ele><time>2026-04-20T11:07:36.902Z</time></trkpt><trkpt lat="43.517825" lon="11.2481017"><ele>411.0</ele><time>2026-04-20T11:07:37.902Z</time></trkpt><trkpt lat="43.5176483" lon="11.24813"><ele>410.0</ele><time>2026-04-20T11:07:38.902Z</time></trkpt><trkpt lat="43.5174833" lon="11.2481367"><ele>410.0</ele><time>2026-04-20T11:07:39.902Z</time></trkpt><trkpt lat="43.517325" lon="11.248135"><ele>410.0</ele><time>2026-04-20T11:07:40.902Z</time></trkpt><trkpt lat="43.51718" lon="11.2481083"><ele>410.0</ele><time>2026-04-20T11:07:41.903Z</time></trkpt><trkpt lat="43.517045" lon="11.2480683"><ele>410.0</ele><time>2026-04-20T11:07:42.902Z</time></trkpt><trkpt lat="43.5169233" lon="11.2480233"><ele>412.0</ele><time>2026-04-20T11:07:43.903Z</time></trkpt><trkpt lat="43.516795" lon="11.2479767"><ele>414.0</ele><time>2026-04-20T11:07:44.902Z</time></trkpt><trkpt lat="43.51666" lon="11.2479317"><ele>416.0</ele><time>2026-04-20T11:07:45.902Z</time></trkpt><trkpt lat="43.5165333" lon="11.2478683"><ele>418.0</ele><time>2026-04-20T11:07:46.902Z</time></trkpt><trkpt lat="43.5164" lon="11.24777"><ele>418.0</ele><time>2026-04-20T11:07:47.902Z</time></trkpt><trkpt lat="43.5162817" lon="11.24764"><ele>418.0</ele><time>2026-04-20T11:07:48.902Z</time></trkpt><trkpt lat="43.5161533" lon="11.2475067"><ele>418.0</ele><time>2026-04-20T11:07:49.902Z</time></trkpt><trkpt lat="43.5160183" lon="11.24737"><ele>420.6666666666667</ele><time>2026-04-20T11:07:50.903Z</time></trkpt><trkpt lat="43.5158683" lon="11.24725"><ele>423.33333333333337</ele><time>2026-04-20T11:07:51.902Z</time></trkpt><trkpt lat="43.5157117" lon="11.2471483"><ele>426.0</ele><time>2026-04-20T11:07:52.902Z</time></trkpt><trkpt lat="43.51555" lon="11.2470617"><ele>428.66666666666663</ele><time>2026-04-20T11:07:53.902Z</time></trkpt><trkpt lat="43.5153783" lon="11.2469833"><ele>431.3333333333333</ele><time>2026-04-20T11:07:54.902Z</time></trkpt><trkpt lat="43.5152083" lon="11.2469167"><ele>434.0</ele><time>2026-04-20T11:07:55.902Z</time></trkpt><trkpt lat="43.5150267" lon="11.2468833"><ele>434.0</ele><time>2026-04-20T11:07:56.902Z</time></trkpt><trkpt lat="43.5148433" lon="11.2468733"><ele>434.0</ele><time>2026-04-20T11:07:57.902Z</time></trkpt><trkpt lat="43.5146817" lon="11.2468717"><ele>434.0</ele><time>2026-04-20T11:07:58.903Z</time></trkpt><trkpt lat="43.5145283" lon="11.2468467"><ele>437.25</ele><time>2026-04-20T11:07:59.903Z</time></trkpt><trkpt lat="43.5143867" lon="11.24679"><ele>440.5</ele><time>2026-04-20T11:08:00.902Z</time></trkpt><trkpt lat="43.51426" lon="11.2466917"><ele>443.75</ele><time>2026-04-20T11:08:01.902Z</time></trkpt><trkpt lat="43.51414" lon="11.2465683"><ele>447.0</ele><time>2026-04-20T11:08:02.902Z</time></trkpt><trkpt lat="43.5140217" lon="11.2464433"><ele>447.0</ele><time>2026-04-20T11:08:03.902Z</time></trkpt><trkpt lat="43.5139167" lon="11.24632"><ele>447.0</ele><time>2026-04-20T11:08:04.902Z</time></trkpt><trkpt lat="43.5138283" lon="11.2461933"><ele>447.0</ele><time>2026-04-20T11:08:05.902Z</time></trkpt><trkpt lat="43.5137733" lon="11.2460383"><ele>447.0</ele><time>2026-04-20T11:08:06.902Z</time></trkpt><trkpt lat="43.5137583" lon="11.245865"><ele>447.0</ele><time>2026-04-20T11:08:07.902Z</time></trkpt><trkpt lat="43.5137783" lon="11.24568"><ele>447.0</ele><time>2026-04-20T11:08:08.903Z</time></trkpt><trkpt lat="43.513825" lon="11.2455"><ele>447.0</ele><time>2026-04-20T11:08:09.902Z</time></trkpt><trkpt lat="43.5138683" lon="11.24534"><ele>447.0</ele><time>2026-04-20T11:08:10.902Z</time></trkpt><trkpt lat="43.5138883" lon="11.2451817"><ele>448.0</ele><time>2026-04-20T11:08:11.902Z</time></trkpt><trkpt lat="43.5138717" lon="11.2450267"><ele>449.0</ele><time>2026-04-20T11:08:12.902Z</time></trkpt><trkpt lat="43.5138183" lon="11.2449"><ele>450.0</ele><time>2026-04-20T11:08:13.902Z</time></trkpt><trkpt lat="43.5137317" lon="11.244785"><ele>451.0</ele><time>2026-04-20T11:08:14.902Z</time></trkpt><trkpt lat="43.5136217" lon="11.2446883"><ele>455.0</ele><time>2026-04-20T11:08:15.902Z</time></trkpt><trkpt lat="43.5134867" lon="11.244595"><ele>459.0</ele><time>2026-04-20T11:08:16.902Z</time></trkpt><trkpt lat="43.5133483" lon="11.24448"><ele>463.0</ele><time>2026-04-20T11:08:17.903Z</time></trkpt><trkpt lat="43.513205" lon="11.24435"><ele>463.0</ele><time>2026-04-20T11:08:18.902Z</time></trkpt><trkpt lat="43.5130617" lon="11.2442083"><ele>463.0</ele><time>2026-04-20T11:08:19.902Z</time></trkpt><trkpt lat="43.51293" lon="11.2440767"><ele>463.0</ele><time>2026-04-20T11:08:20.903Z</time></trkpt><trkpt lat="43.5128083" lon="11.2439583"><ele>464.75</ele><time>2026-04-20T11:08:21.902Z</time></trkpt><trkpt lat="43.51271" lon="11.2438633"><ele>466.5</ele><time>2026-04-20T11:08:22.902Z</time></trkpt><trkpt lat="43.5126133" lon="11.2437783"><ele>468.25</ele><time>2026-04-20T11:08:23.902Z</time></trkpt><trkpt lat="43.5124917" lon="11.24374"><ele>470.0</ele><time>2026-04-20T11:08:24.902Z</time></trkpt><trkpt lat="43.5123667" lon="11.2437483"><ele>470.0</ele><time>2026-04-20T11:08:25.902Z</time></trkpt><trkpt lat="43.5122283" lon="11.2438067"><ele>470.0</ele><time>2026-04-20T11:08:26.902Z</time></trkpt><trkpt lat="43.512075" lon="11.2438783"><ele>470.0</ele><time>2026-04-20T11:08:27.902Z</time></trkpt><trkpt lat="43.511915" lon="11.2439433"><ele>474.66666666666663</ele><time>2026-04-20T11:08:28.902Z</time></trkpt><trkpt lat="43.5117517" lon="11.2440083"><ele>479.33333333333337</ele><time>2026-04-20T11:08:29.902Z</time></trkpt><trkpt lat="43.511575" lon="11.24408"><ele>484.0</ele><time>2026-04-20T11:08:30.903Z</time></trkpt><trkpt lat="43.5113983" lon="11.244145"><ele>484.6666666666667</ele><time>2026-04-20T11:08:31.902Z</time></trkpt><trkpt lat="43.5112233" lon="11.2442083"><ele>485.33333333333337</ele><time>2026-04-20T11:08:32.902Z</time></trkpt><trkpt lat="43.5110433" lon="11.2442533"><ele>486.0</ele><time>2026-04-20T11:08:33.902Z</time></trkpt><trkpt lat="43.5108883" lon="11.2442683"><ele>486.0</ele><time>2026-04-20T11:08:34.902Z</time></trkpt><trkpt lat="43.51074" lon="11.2442517"><ele>486.0</ele><time>2026-04-20T11:08:35.902Z</time></trkpt><trkpt lat="43.5106" lon="11.2442217"><ele>486.0</ele><time>2026-04-20T11:08:36.902Z</time></trkpt><trkpt lat="43.510465" lon="11.2441717"><ele>486.0</ele><time>2026-04-20T11:08:37.902Z</time></trkpt><trkpt lat="43.5103317" lon="11.2441067"><ele>487.5</ele><time>2026-04-20T11:08:38.902Z</time></trkpt><trkpt lat="43.510205" lon="11.2440267"><ele>489.0</ele><time>2026-04-20T11:08:39.902Z</time></trkpt><trkpt lat="43.5101017" lon="11.24391"><ele>490.5</ele><time>2026-04-20T11:08:40.902Z</time></trkpt><trkpt lat="43.5100083" lon="11.243765"><ele>492.0</ele><time>2026-04-20T11:08:41.902Z</time></trkpt><trkpt lat="43.5099283" lon="11.2435933"><ele>492.0</ele><time>2026-04-20T11:08:42.902Z</time></trkpt><trkpt lat="43.509845" lon="11.2434117"><ele>492.0</ele><time>2026-04-20T11:08:43.902Z</time></trkpt><trkpt lat="43.5097483" lon="11.24325"><ele>492.0</ele><time>2026-04-20T11:08:44.902Z</time></trkpt><trkpt lat="43.5096333" lon="11.2431167"><ele>494.0</ele><time>2026-04-20T11:08:45.902Z</time></trkpt><trkpt lat="43.5094983" lon="11.2430083"><ele>496.0</ele><time>2026-04-20T11:08:46.902Z</time></trkpt><trkpt lat="43.50936" lon="11.242935"><ele>498.0</ele><time>2026-04-20T11:08:47.902Z</time></trkpt><trkpt lat="43.5092283" lon="11.2428683"><ele>500.0</ele><time>2026-04-20T11:08:48.903Z</time></trkpt><trkpt lat="43.509115" lon="11.2428167"><ele>500.0</ele><time>2026-04-20T11:08:49.902Z</time></trkpt><trkpt lat="43.5089983" lon="11.24282"><ele>500.0</ele><time>2026-04-20T11:08:50.902Z</time></trkpt><trkpt lat="43.5088733" lon="11.2428733"><ele>500.0</ele><time>2026-04-20T11:08:51.902Z</time></trkpt><trkpt lat="43.5087483" lon="11.2429567"><ele>500.0</ele><time>2026-04-20T11:08:52.902Z</time></trkpt><trkpt lat="43.5086167" lon="11.24305"><ele>500.0</ele><time>2026-04-20T11:08:53.902Z</time></trkpt><trkpt lat="43.50848" lon="11.2431333"><ele>500.0</ele><time>2026-04-20T11:08:54.902Z</time></trkpt><trkpt lat="43.5083267" lon="11.24319"><ele>500.0</ele><time>2026-04-20T11:08:55.903Z</time></trkpt><trkpt lat="43.5081617" lon="11.24321"><ele>500.0</ele><time>2026-04-20T11:08:56.902Z</time></trkpt><trkpt lat="43.5079833" lon="11.243205"><ele>500.0</ele><time>2026-04-20T11:08:57.902Z</time></trkpt><trkpt lat="43.507785" lon="11.2431933"><ele>500.0</ele><time>2026-04-20T11:08:58.902Z</time></trkpt><trkpt lat="43.5075883" lon="11.2432017"><ele>500.0</ele><time>2026-04-20T11:08:59.903Z</time></trkpt><trkpt lat="43.5073967" lon="11.2432317"><ele>500.0</ele><time>2026-04-20T11:09:00.903Z</time></trkpt><trkpt lat="43.5071967" lon="11.2432883"><ele>500.0</ele><time>2026-04-20T11:09:01.902Z</time></trkpt><trkpt lat="43.5070233" lon="11.2433633"><ele>502.0</ele><time>2026-04-20T11:09:02.902Z</time></trkpt><trkpt lat="43.5068783" lon="11.2434533"><ele>504.0</ele><time>2026-04-20T11:09:03.903Z</time></trkpt><trkpt lat="43.5067517" lon="11.2435433"><ele>506.0</ele><time>2026-04-20T11:09:04.902Z</time></trkpt><trkpt lat="43.5066233" lon="11.243615"><ele>508.0</ele><time>2026-04-20T11:09:05.902Z</time></trkpt><trkpt lat="43.506475" lon="11.243635"><ele>508.0</ele><time>2026-04-20T11:09:06.902Z</time></trkpt><trkpt lat="43.50632" lon="11.2436"><ele>508.0</ele><time>2026-04-20T11:09:07.902Z</time></trkpt><trkpt lat="43.5061683" lon="11.2435183"><ele>508.0</ele><time>2026-04-20T11:09:08.902Z</time></trkpt><trkpt lat="43.506015" lon="11.2434267"><ele>511.33333333333337</ele><time>2026-04-20T11:09:09.902Z</time></trkpt><trkpt lat="43.5058467" lon="11.2433517"><ele>514.6666666666666</ele><time>2026-04-20T11:09:10.902Z</time></trkpt><trkpt lat="43.5056817" lon="11.2433033"><ele>518.0</ele><time>2026-04-20T11:09:11.902Z</time></trkpt><trkpt lat="43.5055133" lon="11.243295"><ele>519.6666666666666</ele><time>2026-04-20T11:09:12.902Z</time></trkpt><trkpt lat="43.5053517" lon="11.2433317"><ele>521.3333333333334</ele><time>2026-04-20T11:09:13.903Z</time></trkpt><trkpt lat="43.5051883" lon="11.2433983"><ele>523.0</ele><time>2026-04-20T11:09:14.902Z</time></trkpt><trkpt lat="43.5050317" lon="11.24348"><ele>523.0</ele><time>2026-04-20T11:09:15.902Z</time></trkpt><trkpt lat="43.5048717" lon="11.24359"><ele>523.0</ele><time>2026-04-20T11:09:16.902Z</time></trkpt><trkpt lat="43.5047167" lon="11.2437467"><ele>523.0</ele><time>2026-04-20T11:09:17.903Z</time></trkpt><trkpt lat="43.5045617" lon="11.2438967"><ele>523.6666666666667</ele><time>2026-04-20T11:09:18.901Z</time></trkpt><trkpt lat="43.5044233" lon="11.2440483"><ele>524.3333333333334</ele><time>2026-04-20T11:09:19.902Z</time></trkpt><trkpt lat="43.5042817" lon="11.24421"><ele>525.0</ele><time>2026-04-20T11:09:20.901Z</time></trkpt><trkpt lat="43.50415" lon="11.2443517"><ele>525.0</ele><time>2026-04-20T11:09:21.901Z</time></trkpt><trkpt lat="43.50402" lon="11.244505"><ele>525.0</ele><time>2026-04-20T11:09:22.901Z</time></trkpt><trkpt lat="43.5038917" lon="11.244655"><ele>525.0</ele><time>2026-04-20T11:09:23.901Z</time></trkpt><trkpt lat="43.5037533" lon="11.2448583"><ele>527.0</ele><time>2026-04-20T11:09:24.901Z</time></trkpt><trkpt lat="43.5036383" lon="11.245075"><ele>529.0</ele><time>2026-04-20T11:09:25.901Z</time></trkpt><trkpt lat="43.503535" lon="11.245295"><ele>531.0</ele><time>2026-04-20T11:09:26.902Z</time></trkpt><trkpt lat="43.5034267" lon="11.2454817"><ele>530.0</ele><time>2026-04-20T11:09:27.901Z</time></trkpt><trkpt lat="43.5033183" lon="11.2456483"><ele>529.0</ele><time>2026-04-20T11:09:28.901Z</time></trkpt><trkpt lat="43.5031917" lon="11.2458017"><ele>528.0</ele><time>2026-04-20T11:09:29.902Z</time></trkpt><trkpt lat="43.5030533" lon="11.245945"><ele>528.0</ele><time>2026-04-20T11:09:30.902Z</time></trkpt><trkpt lat="43.5029233" lon="11.2460733"><ele>528.0</ele><time>2026-04-20T11:09:31.901Z</time></trkpt><trkpt lat="43.5028067" lon="11.2462133"><ele>528.0</ele><time>2026-04-20T11:09:32.902Z</time></trkpt><trkpt lat="43.50271" lon="11.2463533"><ele>527.1999999999999</ele><time>2026-04-20T11:09:33.901Z</time></trkpt><trkpt lat="43.5026333" lon="11.2464867"><ele>526.4</ele><time>2026-04-20T11:09:34.901Z</time></trkpt><trkpt lat="43.5025783" lon="11.2466183"><ele>525.5999999999999</ele><time>2026-04-20T11:09:35.902Z</time></trkpt><trkpt lat="43.502535" lon="11.2467583"><ele>524.8</ele><time>2026-04-20T11:09:36.902Z</time></trkpt><trkpt lat="43.502505" lon="11.246885"><ele>524.0</ele><time>2026-04-20T11:09:37.901Z</time></trkpt><trkpt lat="43.5024733" lon="11.2470133"><ele>524.0</ele><time>2026-04-20T11:09:38.902Z</time></trkpt><trkpt lat="43.5024467" lon="11.2471317"><ele>524.0</ele><time>2026-04-20T11:09:39.901Z</time></trkpt><trkpt lat="43.5024133" lon="11.24724"><ele>524.0</ele><time>2026-04-20T11:09:40.901Z</time></trkpt><trkpt lat="43.5023867" lon="11.2473617"><ele>524.0</ele><time>2026-04-20T11:09:41.902Z</time></trkpt><trkpt lat="43.5023583" lon="11.24749"><ele>524.0</ele><time>2026-04-20T11:09:42.901Z</time></trkpt><trkpt lat="43.5023267" lon="11.2476367"><ele>524.8</ele><time>2026-04-20T11:09:43.902Z</time></trkpt><trkpt lat="43.502295" lon="11.2477833"><ele>525.5999999999999</ele><time>2026-04-20T11:09:44.901Z</time></trkpt><trkpt lat="43.5022683" lon="11.2479067"><ele>526.4</ele><time>2026-04-20T11:09:45.901Z</time></trkpt><trkpt lat="43.5022383" lon="11.2480283"><ele>527.1999999999999</ele><time>2026-04-20T11:09:46.901Z</time></trkpt><trkpt lat="43.50221" lon="11.2481417"><ele>528.0</ele><time>2026-04-20T11:09:47.901Z</time></trkpt><trkpt lat="43.5021933" lon="11.2482633"><ele>528.1999999999999</ele><time>2026-04-20T11:09:48.901Z</time></trkpt><trkpt lat="43.50218" lon="11.2483717"><ele>528.4</ele><time>2026-04-20T11:09:49.902Z</time></trkpt><trkpt lat="43.5021833" lon="11.2485133"><ele>528.5999999999999</ele><time>2026-04-20T11:09:50.901Z</time></trkpt><trkpt lat="43.5021833" lon="11.248665"><ele>528.8</ele><time>2026-04-20T11:09:51.902Z</time></trkpt><trkpt lat="43.5021833" lon="11.2488183"><ele>529.0</ele><time>2026-04-20T11:09:52.901Z</time></trkpt><trkpt lat="43.502185" lon="11.2489667"><ele>529.8333333333334</ele><time>2026-04-20T11:09:53.901Z</time></trkpt><trkpt lat="43.5021867" lon="11.249115"><ele>530.6666666666667</ele><time>2026-04-20T11:09:54.901Z</time></trkpt><trkpt lat="43.5021717" lon="11.2492483"><ele>531.5</ele><time>2026-04-20T11:09:55.902Z</time></trkpt><trkpt lat="43.5021433" lon="11.24936"><ele>532.3333333333334</ele><time>2026-04-20T11:09:56.901Z</time></trkpt><trkpt lat="43.5021" lon="11.2494483"><ele>533.1666666666666</ele><time>2026-04-20T11:09:57.901Z</time></trkpt><trkpt lat="43.5020567" lon="11.2495183"><ele>534.0</ele><time>2026-04-20T11:09:58.901Z</time></trkpt><trkpt lat="43.5020133" lon="11.2496233"><ele>534.0</ele><time>2026-04-20T11:10:00.901Z</time></trkpt><trkpt lat="43.50212" lon="11.2495517"><ele>534.0</ele><time>2026-04-20T11:10:10.901Z</time></trkpt><trkpt lat="43.50219" lon="11.249435"><ele>534.0</ele><time>2026-04-20T11:10:12.901Z</time></trkpt><trkpt lat="43.5022267" lon="11.249305"><ele>534.0</ele><time>2026-04-20T11:10:14.902Z</time></trkpt><trkpt lat="43.5022183" lon="11.2491933"><ele>534.0</ele><time>2026-04-20T11:10:55.901Z</time></trkpt><trkpt lat="43.50221" lon="11.2490667"><ele>533.0</ele><time>2026-04-20T11:10:57.901Z</time></trkpt><trkpt lat="43.50221" lon="11.2489533"><ele>532.0</ele><time>2026-04-20T11:10:58.902Z</time></trkpt><trkpt lat="43.5022083" lon="11.2488117"><ele>531.0</ele><time>2026-04-20T11:10:59.901Z</time></trkpt><trkpt lat="43.50221" lon="11.2486617"><ele>530.0</ele><time>2026-04-20T11:11:00.901Z</time></trkpt><trkpt lat="43.5022167" lon="11.24853"><ele>529.0</ele><time>2026-04-20T11:11:01.901Z</time></trkpt><trkpt lat="43.50223" lon="11.2483933"><ele>529.0</ele><time>2026-04-20T11:11:02.901Z</time></trkpt><trkpt lat="43.5022483" lon="11.2482433"><ele>529.0</ele><time>2026-04-20T11:11:03.901Z</time></trkpt><trkpt lat="43.5022733" lon="11.2480933"><ele>529.0</ele><time>2026-04-20T11:11:04.901Z</time></trkpt><trkpt lat="43.502305" lon="11.2479417"><ele>529.0</ele><time>2026-04-20T11:11:05.902Z</time></trkpt><trkpt lat="43.5023367" lon="11.247785"><ele>528.8</ele><time>2026-04-20T11:11:06.902Z</time></trkpt><trkpt lat="43.5023683" lon="11.2476333"><ele>528.5999999999999</ele><time>2026-04-20T11:11:07.901Z</time></trkpt><trkpt lat="43.5024" lon="11.2474833"><ele>528.4</ele><time>2026-04-20T11:11:08.902Z</time></trkpt><trkpt lat="43.5024283" lon="11.247355"><ele>528.1999999999999</ele><time>2026-04-20T11:11:09.901Z</time></trkpt><trkpt lat="43.5024517" lon="11.2472267"><ele>528.0</ele><time>2026-04-20T11:11:10.901Z</time></trkpt><trkpt lat="43.50247" lon="11.2471083"><ele>527.3333333333334</ele><time>2026-04-20T11:11:11.901Z</time></trkpt><trkpt lat="43.5024917" lon="11.2469967"><ele>526.6666666666666</ele><time>2026-04-20T11:11:12.902Z</time></trkpt><trkpt lat="43.5025183" lon="11.2469017"><ele>526.0</ele><time>2026-04-20T11:11:13.901Z</time></trkpt><trkpt lat="43.5025417" lon="11.24681"><ele>525.3333333333333</ele><time>2026-04-20T11:11:14.902Z</time></trkpt><trkpt lat="43.5025383" lon="11.2466933"><ele>524.6666666666666</ele><time>2026-04-20T11:11:16.901Z</time></trkpt><trkpt lat="43.50246" lon="11.2467367"><ele>524.0</ele><time>2026-04-20T11:11:19.902Z</time></trkpt><trkpt lat="43.50239" lon="11.246815"><ele>524.0</ele><time>2026-04-20T11:11:21.901Z</time></trkpt><trkpt lat="43.5022817" lon="11.2468783"><ele>524.0</ele><time>2026-04-20T11:11:23.901Z</time></trkpt><trkpt lat="43.502165" lon="11.2468967"><ele>524.0</ele><time>2026-04-20T11:11:25.901Z</time></trkpt><trkpt lat="43.5021" lon="11.2469017"><ele>524.0</ele><time>2026-04-20T11:11:26.901Z</time></trkpt><trkpt lat="43.501975" lon="11.2468733"><ele>524.0</ele><time>2026-04-20T11:11:28.901Z</time></trkpt><trkpt lat="43.5019117" lon="11.2468617"><ele>523.0</ele><time>2026-04-20T11:11:29.901Z</time></trkpt><trkpt lat="43.5018467" lon="11.24686"><ele>522.0</ele><time>2026-04-20T11:11:30.902Z</time></trkpt><trkpt lat="43.5017817" lon="11.24687"><ele>521.0</ele><time>2026-04-20T11:11:31.901Z</time></trkpt><trkpt lat="43.5017067" lon="11.2468933"><ele>520.0</ele><time>2026-04-20T11:11:32.901Z</time></trkpt><trkpt lat="43.5016367" lon="11.2469483"><ele>519.0</ele><time>2026-04-20T11:11:33.901Z</time></trkpt><trkpt lat="43.501565" lon="11.2470233"><ele>518.0</ele><time>2026-04-20T11:11:34.902Z</time></trkpt><trkpt lat="43.5014883" lon="11.247105"><ele>518.0</ele><time>2026-04-20T11:11:35.901Z</time></trkpt><trkpt lat="43.50143" lon="11.2471767"><ele>518.0</ele><time>2026-04-20T11:11:36.901Z</time></trkpt><trkpt lat="43.501375" lon="11.2472433"><ele>518.0</ele><time>2026-04-20T11:11:37.901Z</time></trkpt><trkpt lat="43.5013167" lon="11.2472967"><ele>518.0</ele><time>2026-04-20T11:11:38.901Z</time></trkpt><trkpt lat="43.5012567" lon="11.24734"><ele>518.0</ele><time>2026-04-20T11:11:39.901Z</time></trkpt><trkpt lat="43.50118" lon="11.2473633"><ele>518.0</ele><time>2026-04-20T11:11:40.901Z</time></trkpt><trkpt lat="43.5010867" lon="11.2473633"><ele>517.8333333333333</ele><time>2026-04-20T11:11:41.901Z</time></trkpt><trkpt lat="43.500995" lon="11.2473433"><ele>517.6666666666666</ele><time>2026-04-20T11:11:42.902Z</time></trkpt><trkpt lat="43.5009083" lon="11.2473217"><ele>517.5</ele><time>2026-04-20T11:11:43.902Z</time></trkpt><trkpt lat="43.5008283" lon="11.2473117"><ele>517.3333333333334</ele><time>2026-04-20T11:11:44.901Z</time></trkpt><trkpt lat="43.5007533" lon="11.2472983"><ele>517.1666666666667</ele><time>2026-04-20T11:11:45.901Z</time></trkpt><trkpt lat="43.5006883" lon="11.2472633"><ele>517.0</ele><time>2026-04-20T11:11:46.901Z</time></trkpt><trkpt lat="43.50064" lon="11.2472"><ele>517.0</ele><time>2026-04-20T11:11:47.901Z</time></trkpt><trkpt lat="43.50061" lon="11.2471133"><ele>517.0</ele><time>2026-04-20T11:11:48.901Z</time></trkpt><trkpt lat="43.5005833" lon="11.24695"><ele>517.0</ele><time>2026-04-20T11:11:50.901Z</time></trkpt><trkpt lat="43.5005733" lon="11.2468067"><ele>517.0</ele><time>2026-04-20T11:11:52.901Z</time></trkpt><trkpt lat="43.5005383" lon="11.2466767"><ele>517.0</ele><time>2026-04-20T11:11:54.901Z</time></trkpt><trkpt lat="43.5004783" lon="11.24657"><ele>518.0</ele><time>2026-04-20T11:11:56.901Z</time></trkpt><trkpt lat="43.5004083" lon="11.24646"><ele>519.0</ele><time>2026-04-20T11:11:58.902Z</time></trkpt><trkpt lat="43.500325" lon="11.2463067"><ele>520.0</ele><time>2026-04-20T11:12:00.901Z</time></trkpt><trkpt lat="43.5002833" lon="11.24621"><ele>521.0</ele><time>2026-04-20T11:12:01.901Z</time></trkpt><trkpt lat="43.5002433" lon="11.2461033"><ele>522.0</ele><time>2026-04-20T11:12:02.901Z</time></trkpt><trkpt lat="43.5002167" lon="11.2460017"><ele>522.0</ele><time>2026-04-20T11:12:03.901Z</time></trkpt><trkpt lat="43.5001833" lon="11.2458983"><ele>522.0</ele><time>2026-04-20T11:12:04.901Z</time></trkpt><trkpt lat="43.500155" lon="11.2457933"><ele>522.0</ele><time>2026-04-20T11:12:05.901Z</time></trkpt><trkpt lat="43.5001333" lon="11.245695"><ele>522.0</ele><time>2026-04-20T11:12:06.901Z</time></trkpt><trkpt lat="43.50012" lon="11.24561"><ele>522.0</ele><time>2026-04-20T11:12:07.901Z</time></trkpt><trkpt lat="43.50011" lon="11.2455183"><ele>522.0</ele><time>2026-04-20T11:12:08.901Z</time></trkpt><trkpt lat="43.50009" lon="11.2454183"><ele>522.0</ele><time>2026-04-20T11:12:09.902Z</time></trkpt><trkpt lat="43.5000517" lon="11.2453067"><ele>520.4285714285714</ele><time>2026-04-20T11:12:10.901Z</time></trkpt><trkpt lat="43.5000117" lon="11.245225"><ele>518.8571428571429</ele><time>2026-04-20T11:12:11.902Z</time></trkpt><trkpt lat="43.4999583" lon="11.2451717"><ele>517.2857142857142</ele><time>2026-04-20T11:12:12.902Z</time></trkpt><trkpt lat="43.499885" lon="11.245135"><ele>515.7142857142858</ele><time>2026-04-20T11:12:13.901Z</time></trkpt><trkpt lat="43.49982" lon="11.2451283"><ele>514.1428571428571</ele><time>2026-04-20T11:12:14.902Z</time></trkpt><trkpt lat="43.49975" lon="11.2451367"><ele>512.5714285714286</ele><time>2026-04-20T11:12:15.901Z</time></trkpt><trkpt lat="43.4996833" lon="11.2451583"><ele>511.0</ele><time>2026-04-20T11:12:16.901Z</time></trkpt><trkpt lat="43.49961" lon="11.2451967"><ele>508.33333333333337</ele><time>2026-04-20T11:12:17.901Z</time></trkpt><trkpt lat="43.4995383" lon="11.24525"><ele>505.6666666666667</ele><time>2026-04-20T11:12:18.901Z</time></trkpt><trkpt lat="43.4994733" lon="11.2453133"><ele>503.0</ele><time>2026-04-20T11:12:19.902Z</time></trkpt><trkpt lat="43.4994117" lon="11.24537"><ele>500.33333333333337</ele><time>2026-04-20T11:12:20.901Z</time></trkpt><trkpt lat="43.4993483" lon="11.245425"><ele>497.6666666666667</ele><time>2026-04-20T11:12:21.901Z</time></trkpt><trkpt lat="43.499295" lon="11.2454833"><ele>495.0</ele><time>2026-04-20T11:12:22.901Z</time></trkpt><trkpt lat="43.4992383" lon="11.2455533"><ele>494.99999999999994</ele><time>2026-04-20T11:12:23.901Z</time></trkpt><trkpt lat="43.499185" lon="11.24561"><ele>495.0</ele><time>2026-04-20T11:12:24.901Z</time></trkpt><trkpt lat="43.49913" lon="11.2456667"><ele>494.99999999999994</ele><time>2026-04-20T11:12:25.902Z</time></trkpt><trkpt lat="43.4990733" lon="11.2457167"><ele>494.99999999999994</ele><time>2026-04-20T11:12:26.901Z</time></trkpt><trkpt lat="43.49902" lon="11.2457717"><ele>495.0</ele><time>2026-04-20T11:12:27.902Z</time></trkpt><trkpt lat="43.498965" lon="11.2458283"><ele>494.99999999999994</ele><time>2026-04-20T11:12:28.901Z</time></trkpt><trkpt lat="43.49891" lon="11.2458917"><ele>494.99999999999994</ele><time>2026-04-20T11:12:29.901Z</time></trkpt><trkpt lat="43.4988067" lon="11.2460033"><ele>494.1666666666667</ele><time>2026-04-20T11:12:31.901Z</time></trkpt><trkpt lat="43.49875" lon="11.2460617"><ele>493.33333333333337</ele><time>2026-04-20T11:12:32.901Z</time></trkpt><trkpt lat="43.49869" lon="11.246125"><ele>492.5</ele><time>2026-04-20T11:12:33.902Z</time></trkpt><trkpt lat="43.49863" lon="11.2462033"><ele>491.6666666666667</ele><time>2026-04-20T11:12:34.901Z</time></trkpt><trkpt lat="43.4985683" lon="11.2462833"><ele>490.83333333333337</ele><time>2026-04-20T11:12:35.901Z</time></trkpt><trkpt lat="43.4985083" lon="11.2463617"><ele>490.0</ele><time>2026-04-20T11:12:36.902Z</time></trkpt><trkpt lat="43.498445" lon="11.2464217"><ele>490.0</ele><time>2026-04-20T11:12:37.901Z</time></trkpt><trkpt lat="43.498335" lon="11.2464667"><ele>490.0</ele><time>2026-04-20T11:12:39.902Z</time></trkpt><trkpt lat="43.498235" lon="11.2464117"><ele>490.0</ele><time>2026-04-20T11:12:41.901Z</time></trkpt><trkpt lat="43.4981767" lon="11.2462383"><ele>490.0</ele><time>2026-04-20T11:12:43.901Z</time></trkpt><trkpt lat="43.4981517" lon="11.2461283"><ele>490.0</ele><time>2026-04-20T11:12:44.901Z</time></trkpt><trkpt lat="43.498135" lon="11.2460117"><ele>490.0</ele><time>2026-04-20T11:12:45.901Z</time></trkpt><trkpt lat="43.4981067" lon="11.2459083"><ele>490.0</ele><time>2026-04-20T11:12:46.901Z</time></trkpt><trkpt lat="43.4980883" lon="11.2458083"><ele>490.0</ele><time>2026-04-20T11:12:47.901Z</time></trkpt><trkpt lat="43.4980733" lon="11.24572"><ele>490.0</ele><time>2026-04-20T11:12:48.901Z</time></trkpt><trkpt lat="43.4980567" lon="11.2456133"><ele>490.0</ele><time>2026-04-20T11:12:49.902Z</time></trkpt><trkpt lat="43.498045" lon="11.24552"><ele>490.0</ele><time>2026-04-20T11:12:50.901Z</time></trkpt><trkpt lat="43.4980283" lon="11.245425"><ele>490.0</ele><time>2026-04-20T11:12:51.901Z</time></trkpt><trkpt lat="43.4980233" lon="11.24533"><ele>488.1666666666667</ele><time>2026-04-20T11:12:52.901Z</time></trkpt><trkpt lat="43.4980317" lon="11.2452317"><ele>486.33333333333337</ele><time>2026-04-20T11:12:53.901Z</time></trkpt><trkpt lat="43.49804" lon="11.245125"><ele>484.5</ele><time>2026-04-20T11:12:54.901Z</time></trkpt><trkpt lat="43.4980283" lon="11.2449817"><ele>482.66666666666663</ele><time>2026-04-20T11:12:55.902Z</time></trkpt><trkpt lat="43.4980033" lon="11.2448617"><ele>480.8333333333333</ele><time>2026-04-20T11:12:56.901Z</time></trkpt><trkpt lat="43.4979717" lon="11.24474"><ele>479.0</ele><time>2026-04-20T11:12:57.902Z</time></trkpt><trkpt lat="43.4979233" lon="11.2446283"><ele>478.66666666666663</ele><time>2026-04-20T11:12:58.901Z</time></trkpt><trkpt lat="43.4978733" lon="11.2445517"><ele>478.3333333333333</ele><time>2026-04-20T11:12:59.901Z</time></trkpt><trkpt lat="43.4978167" lon="11.2444817"><ele>478.0</ele><time>2026-04-20T11:13:00.901Z</time></trkpt><trkpt lat="43.49776" lon="11.2444017"><ele>477.66666666666663</ele><time>2026-04-20T11:13:01.901Z</time></trkpt><trkpt lat="43.4977" lon="11.2443267"><ele>477.3333333333333</ele><time>2026-04-20T11:13:02.902Z</time></trkpt><trkpt lat="43.4976367" lon="11.244265"><ele>477.0</ele><time>2026-04-20T11:13:03.901Z</time></trkpt><trkpt lat="43.4975667" lon="11.244205"><ele>477.0</ele><time>2026-04-20T11:13:04.901Z</time></trkpt><trkpt lat="43.4974967" lon="11.2441667"><ele>477.0</ele><time>2026-04-20T11:13:05.901Z</time></trkpt><trkpt lat="43.49742" lon="11.2441317"><ele>477.0</ele><time>2026-04-20T11:13:06.901Z</time></trkpt><trkpt lat="43.4973367" lon="11.2441267"><ele>477.0</ele><time>2026-04-20T11:13:07.901Z</time></trkpt><trkpt lat="43.4972383" lon="11.2441167"><ele>477.0</ele><time>2026-04-20T11:13:08.902Z</time></trkpt><trkpt lat="43.497155" lon="11.2441217"><ele>477.0</ele><time>2026-04-20T11:13:09.901Z</time></trkpt><trkpt lat="43.497065" lon="11.244125"><ele>477.1666666666667</ele><time>2026-04-20T11:13:10.902Z</time></trkpt><trkpt lat="43.4969767" lon="11.2441417"><ele>477.33333333333337</ele><time>2026-04-20T11:13:11.902Z</time></trkpt><trkpt lat="43.4968967" lon="11.2441617"><ele>477.5</ele><time>2026-04-20T11:13:12.902Z</time></trkpt><trkpt lat="43.4968117" lon="11.2441633"><ele>477.6666666666667</ele><time>2026-04-20T11:13:13.901Z</time></trkpt><trkpt lat="43.4967267" lon="11.2441417"><ele>477.83333333333337</ele><time>2026-04-20T11:13:14.901Z</time></trkpt><trkpt lat="43.496645" lon="11.24411"><ele>478.0</ele><time>2026-04-20T11:13:15.901Z</time></trkpt><trkpt lat="43.496575" lon="11.2440567"><ele>478.00000000000006</ele><time>2026-04-20T11:13:16.901Z</time></trkpt><trkpt lat="43.496505" lon="11.243985"><ele>478.0</ele><time>2026-04-20T11:13:17.901Z</time></trkpt><trkpt lat="43.4964533" lon="11.2438867"><ele>478.0</ele><time>2026-04-20T11:13:18.901Z</time></trkpt><trkpt lat="43.4964167" lon="11.243795"><ele>478.0</ele><time>2026-04-20T11:13:19.901Z</time></trkpt><trkpt lat="43.49638" lon="11.2436833"><ele>478.00000000000006</ele><time>2026-04-20T11:13:20.901Z</time></trkpt><trkpt lat="43.496345" lon="11.2435833"><ele>478.0</ele><time>2026-04-20T11:13:21.902Z</time></trkpt><trkpt lat="43.496305" lon="11.243495"><ele>475.6666666666667</ele><time>2026-04-20T11:13:22.901Z</time></trkpt><trkpt lat="43.4962633" lon="11.2434067"><ele>473.33333333333337</ele><time>2026-04-20T11:13:23.901Z</time></trkpt><trkpt lat="43.49621" lon="11.2433083"><ele>471.0</ele><time>2026-04-20T11:13:24.901Z</time></trkpt><trkpt lat="43.4961717" lon="11.2432083"><ele>468.66666666666663</ele><time>2026-04-20T11:13:25.901Z</time></trkpt><trkpt lat="43.4961267" lon="11.2431067"><ele>466.3333333333333</ele><time>2026-04-20T11:13:26.901Z</time></trkpt><trkpt lat="43.496085" lon="11.2430017"><ele>464.0</ele><time>2026-04-20T11:13:27.902Z</time></trkpt><trkpt lat="43.4960483" lon="11.2428933"><ele>462.99999999999994</ele><time>2026-04-20T11:13:28.901Z</time></trkpt><trkpt lat="43.4960133" lon="11.242795"><ele>462.0</ele><time>2026-04-20T11:13:29.902Z</time></trkpt><trkpt lat="43.4959833" lon="11.2426983"><ele>461.0</ele><time>2026-04-20T11:13:30.901Z</time></trkpt><trkpt lat="43.495955" lon="11.2426183"><ele>460.0</ele><time>2026-04-20T11:13:31.901Z</time></trkpt><trkpt lat="43.4959233" lon="11.2425333"><ele>458.99999999999994</ele><time>2026-04-20T11:13:32.901Z</time></trkpt><trkpt lat="43.495885" lon="11.2424367"><ele>458.0</ele><time>2026-04-20T11:13:33.902Z</time></trkpt><trkpt lat="43.4958533" lon="11.24233"><ele>457.66666666666663</ele><time>2026-04-20T11:13:34.901Z</time></trkpt><trkpt lat="43.4958383" lon="11.2422217"><ele>457.3333333333333</ele><time>2026-04-20T11:13:35.901Z</time></trkpt><trkpt lat="43.4958417" lon="11.2421067"><ele>457.0</ele><time>2026-04-20T11:13:36.901Z</time></trkpt><trkpt lat="43.4958567" lon="11.241995"><ele>456.66666666666663</ele><time>2026-04-20T11:13:37.901Z</time></trkpt><trkpt lat="43.4958867" lon="11.2418833"><ele>456.3333333333333</ele><time>2026-04-20T11:13:38.901Z</time></trkpt><trkpt lat="43.49591" lon="11.241765"><ele>456.0</ele><time>2026-04-20T11:13:39.902Z</time></trkpt><trkpt lat="43.49593" lon="11.2416383"><ele>456.0</ele><time>2026-04-20T11:13:40.901Z</time></trkpt><trkpt lat="43.49594" lon="11.241515"><ele>456.0</ele><time>2026-04-20T11:13:41.901Z</time></trkpt><trkpt lat="43.4959417" lon="11.241395"><ele>456.0</ele><time>2026-04-20T11:13:42.901Z</time></trkpt><trkpt lat="43.4959283" lon="11.2412817"><ele>456.0</ele><time>2026-04-20T11:13:43.902Z</time></trkpt><trkpt lat="43.495915" lon="11.241175"><ele>456.0</ele><time>2026-04-20T11:13:44.901Z</time></trkpt><trkpt lat="43.4958967" lon="11.2410667"><ele>456.0</ele><time>2026-04-20T11:13:45.901Z</time></trkpt><trkpt lat="43.4958817" lon="11.2409633"><ele>456.1666666666667</ele><time>2026-04-20T11:13:46.901Z</time></trkpt><trkpt lat="43.4958633" lon="11.240855"><ele>456.33333333333337</ele><time>2026-04-20T11:13:47.902Z</time></trkpt><trkpt lat="43.4958567" lon="11.240745"><ele>456.5</ele><time>2026-04-20T11:13:48.902Z</time></trkpt><trkpt lat="43.49585" lon="11.240635"><ele>456.6666666666667</ele><time>2026-04-20T11:13:49.901Z</time></trkpt><trkpt lat="43.4958517" lon="11.240515"><ele>456.83333333333337</ele><time>2026-04-20T11:13:50.901Z</time></trkpt><trkpt lat="43.4958517" lon="11.24039"><ele>457.0</ele><time>2026-04-20T11:13:51.902Z</time></trkpt><trkpt lat="43.4958517" lon="11.2402617"><ele>457.00000000000006</ele><time>2026-04-20T11:13:52.902Z</time></trkpt><trkpt lat="43.4958367" lon="11.2401417"><ele>457.0</ele><time>2026-04-20T11:13:53.901Z</time></trkpt><trkpt lat="43.4958167" lon="11.2400267"><ele>457.0</ele><time>2026-04-20T11:13:54.902Z</time></trkpt><trkpt lat="43.4957833" lon="11.2399067"><ele>457.0</ele><time>2026-04-20T11:13:55.901Z</time></trkpt><trkpt lat="43.4957567" lon="11.2397967"><ele>457.00000000000006</ele><time>2026-04-20T11:13:56.902Z</time></trkpt><trkpt lat="43.49574" lon="11.239695"><ele>457.0</ele><time>2026-04-20T11:13:57.901Z</time></trkpt><trkpt lat="43.495735" lon="11.239585"><ele>458.00000000000006</ele><time>2026-04-20T11:13:58.902Z</time></trkpt><trkpt lat="43.4957467" lon="11.2394583"><ele>459.0</ele><time>2026-04-20T11:13:59.901Z</time></trkpt><trkpt lat="43.495755" lon="11.2393367"><ele>460.0</ele><time>2026-04-20T11:14:00.902Z</time></trkpt><trkpt lat="43.4957567" lon="11.23922"><ele>461.0</ele><time>2026-04-20T11:14:01.901Z</time></trkpt><trkpt lat="43.4957667" lon="11.23909"><ele>462.00000000000006</ele><time>2026-04-20T11:14:02.902Z</time></trkpt><trkpt lat="43.49578" lon="11.2389717"><ele>463.0</ele><time>2026-04-20T11:14:03.901Z</time></trkpt><trkpt lat="43.4957883" lon="11.2388567"><ele>463.0</ele><time>2026-04-20T11:14:04.902Z</time></trkpt><trkpt lat="43.4957967" lon="11.2387467"><ele>462.99999999999994</ele><time>2026-04-20T11:14:05.902Z</time></trkpt><trkpt lat="43.4957917" lon="11.2386583"><ele>462.99999999999994</ele><time>2026-04-20T11:14:06.901Z</time></trkpt><trkpt lat="43.4957567" lon="11.2385583"><ele>463.0</ele><time>2026-04-20T11:14:08.901Z</time></trkpt><trkpt lat="43.4956717" lon="11.2384733"><ele>463.0</ele><time>2026-04-20T11:14:11.9Z</time></trkpt><trkpt lat="43.49557" lon="11.23837"><ele>463.00000000000006</ele><time>2026-04-20T11:14:13.9Z</time></trkpt><trkpt lat="43.4955083" lon="11.238305"><ele>463.0</ele><time>2026-04-20T11:14:14.901Z</time></trkpt><trkpt lat="43.4954517" lon="11.2382217"><ele>463.0</ele><time>2026-04-20T11:14:15.9Z</time></trkpt><trkpt lat="43.49541" lon="11.2381333"><ele>463.0</ele><time>2026-04-20T11:14:16.9Z</time></trkpt><trkpt lat="43.4953817" lon="11.23804"><ele>463.00000000000006</ele><time>2026-04-20T11:14:17.9Z</time></trkpt><trkpt lat="43.4953417" lon="11.2379433"><ele>463.0</ele><time>2026-04-20T11:14:18.9Z</time></trkpt><trkpt lat="43.4953117" lon="11.237855"><ele>461.83333333333337</ele><time>2026-04-20T11:14:19.9Z</time></trkpt><trkpt lat="43.4952717" lon="11.2377683"><ele>460.6666666666667</ele><time>2026-04-20T11:14:20.9Z</time></trkpt><trkpt lat="43.4952167" lon="11.2376817"><ele>459.5</ele><time>2026-04-20T11:14:21.901Z</time></trkpt><trkpt lat="43.4951567" lon="11.2375867"><ele>458.33333333333337</ele><time>2026-04-20T11:14:22.9Z</time></trkpt><trkpt lat="43.4950917" lon="11.2375117"><ele>457.1666666666667</ele><time>2026-04-20T11:14:23.9Z</time></trkpt><trkpt lat="43.495035" lon="11.2374233"><ele>456.0</ele><time>2026-04-20T11:14:24.9Z</time></trkpt><trkpt lat="43.4949667" lon="11.2373383"><ele>455.1666666666667</ele><time>2026-04-20T11:14:25.9Z</time></trkpt><trkpt lat="43.494905" lon="11.2372767"><ele>454.33333333333337</ele><time>2026-04-20T11:14:26.9Z</time></trkpt><trkpt lat="43.4948383" lon="11.2372083"><ele>453.5</ele><time>2026-04-20T11:14:27.9Z</time></trkpt><trkpt lat="43.4947717" lon="11.2371367"><ele>452.6666666666667</ele><time>2026-04-20T11:14:28.9Z</time></trkpt><trkpt lat="43.49471" lon="11.2370483"><ele>451.83333333333337</ele><time>2026-04-20T11:14:29.9Z</time></trkpt><trkpt lat="43.4946533" lon="11.2369633"><ele>451.0</ele><time>2026-04-20T11:14:30.9Z</time></trkpt><trkpt lat="43.494585" lon="11.2368967"><ele>451.00000000000006</ele><time>2026-04-20T11:14:31.9Z</time></trkpt><trkpt lat="43.494515" lon="11.236845"><ele>451.0</ele><time>2026-04-20T11:14:32.9Z</time></trkpt><trkpt lat="43.4944533" lon="11.2367983"><ele>451.0</ele><time>2026-04-20T11:14:33.901Z</time></trkpt><trkpt lat="43.4943933" lon="11.2367617"><ele>451.0</ele><time>2026-04-20T11:14:34.9Z</time></trkpt><trkpt lat="43.4942833" lon="11.2367017"><ele>451.00000000000006</ele><time>2026-04-20T11:14:36.9Z</time></trkpt><trkpt lat="43.4941733" lon="11.2367083"><ele>451.0</ele><time>2026-04-20T11:14:38.901Z</time></trkpt><trkpt lat="43.494055" lon="11.2367567"><ele>451.0</ele><time>2026-04-20T11:14:40.901Z</time></trkpt><trkpt lat="43.4939867" lon="11.2367767"><ele>451.0</ele><time>2026-04-20T11:14:41.9Z</time></trkpt><trkpt lat="43.4939217" lon="11.2367833"><ele>451.0</ele><time>2026-04-20T11:14:42.9Z</time></trkpt><trkpt lat="43.493855" lon="11.236775"><ele>451.0</ele><time>2026-04-20T11:14:43.9Z</time></trkpt><trkpt lat="43.49379" lon="11.2367617"><ele>451.0</ele><time>2026-04-20T11:14:44.9Z</time></trkpt><trkpt lat="43.4937183" lon="11.2367517"><ele>451.0</ele><time>2026-04-20T11:14:45.9Z</time></trkpt><trkpt lat="43.493635" lon="11.2367467"><ele>451.0</ele><time>2026-04-20T11:14:46.9Z</time></trkpt><trkpt lat="43.4935567" lon="11.2367633"><ele>449.20000000000005</ele><time>2026-04-20T11:14:47.9Z</time></trkpt><trkpt lat="43.4934833" lon="11.2368"><ele>447.40000000000003</ele><time>2026-04-20T11:14:48.9Z</time></trkpt><trkpt lat="43.49341" lon="11.2368683"><ele>445.6</ele><time>2026-04-20T11:14:49.9Z</time></trkpt><trkpt lat="43.49333" lon="11.236935"><ele>443.8</ele><time>2026-04-20T11:14:50.901Z</time></trkpt><trkpt lat="43.4932483" lon="11.2370017"><ele>442.0</ele><time>2026-04-20T11:14:51.9Z</time></trkpt><trkpt lat="43.4931617" lon="11.2370617"><ele>442.0</ele><time>2026-04-20T11:14:52.9Z</time></trkpt><trkpt lat="43.493075" lon="11.2371317"><ele>442.00000000000006</ele><time>2026-04-20T11:14:53.901Z</time></trkpt><trkpt lat="43.4929867" lon="11.2371967"><ele>442.00000000000006</ele><time>2026-04-20T11:14:54.9Z</time></trkpt><trkpt lat="43.49289" lon="11.23726"><ele>442.0</ele><time>2026-04-20T11:14:55.901Z</time></trkpt><trkpt lat="43.4928" lon="11.2373233"><ele>442.0</ele><time>2026-04-20T11:14:56.9Z</time></trkpt><trkpt lat="43.492705" lon="11.2373933"><ele>439.1666666666667</ele><time>2026-04-20T11:14:57.9Z</time></trkpt><trkpt lat="43.49262" lon="11.2374567"><ele>436.33333333333337</ele><time>2026-04-20T11:14:58.901Z</time></trkpt><trkpt lat="43.4925417" lon="11.2375167"><ele>433.5</ele><time>2026-04-20T11:14:59.9Z</time></trkpt><trkpt lat="43.4924733" lon="11.2375767"><ele>430.66666666666663</ele><time>2026-04-20T11:15:00.9Z</time></trkpt><trkpt lat="43.4924167" lon="11.2376283"><ele>427.8333333333333</ele><time>2026-04-20T11:15:01.9Z</time></trkpt><trkpt lat="43.49235" lon="11.2377033"><ele>425.0</ele><time>2026-04-20T11:15:03.9Z</time></trkpt><trkpt lat="43.4923483" lon="11.2377983"><ele>425.0</ele><time>2026-04-20T11:15:06.9Z</time></trkpt><trkpt lat="43.4924333" lon="11.23785"><ele>425.0</ele><time>2026-04-20T11:15:08.9Z</time></trkpt><trkpt lat="43.4925117" lon="11.237875"><ele>425.0</ele><time>2026-04-20T11:15:09.9Z</time></trkpt><trkpt lat="43.49261" lon="11.2379267"><ele>425.0</ele><time>2026-04-20T11:15:10.901Z</time></trkpt><trkpt lat="43.492715" lon="11.2379967"><ele>425.0</ele><time>2026-04-20T11:15:11.9Z</time></trkpt><trkpt lat="43.4928133" lon="11.2380817"><ele>425.5</ele><time>2026-04-20T11:15:12.9Z</time></trkpt><trkpt lat="43.492905" lon="11.238185"><ele>426.0</ele><time>2026-04-20T11:15:13.901Z</time></trkpt><trkpt lat="43.492985" lon="11.2383167"><ele>426.5</ele><time>2026-04-20T11:15:14.9Z</time></trkpt><trkpt lat="43.4930583" lon="11.2384567"><ele>427.0</ele><time>2026-04-20T11:15:15.9Z</time></trkpt><trkpt lat="43.4931083" lon="11.2386033"><ele>427.0</ele><time>2026-04-20T11:15:16.9Z</time></trkpt><trkpt lat="43.493135" lon="11.2387683"><ele>427.0</ele><time>2026-04-20T11:15:17.9Z</time></trkpt><trkpt lat="43.4931617" lon="11.238935"><ele>427.0</ele><time>2026-04-20T11:15:18.9Z</time></trkpt><trkpt lat="43.4931783" lon="11.2391133"><ele>427.0</ele><time>2026-04-20T11:15:19.901Z</time></trkpt><trkpt lat="43.4932067" lon="11.2392833"><ele>426.25</ele><time>2026-04-20T11:15:20.9Z</time></trkpt><trkpt lat="43.4932583" lon="11.2394367"><ele>425.5</ele><time>2026-04-20T11:15:21.9Z</time></trkpt><trkpt lat="43.493345" lon="11.2395883"><ele>424.75</ele><time>2026-04-20T11:15:22.9Z</time></trkpt><trkpt lat="43.4934517" lon="11.2397283"><ele>424.0</ele><time>2026-04-20T11:15:23.9Z</time></trkpt><trkpt lat="43.4935617" lon="11.2398683"><ele>422.33333333333337</ele><time>2026-04-20T11:15:24.9Z</time></trkpt><trkpt lat="43.4936833" lon="11.2400133"><ele>420.66666666666663</ele><time>2026-04-20T11:15:25.9Z</time></trkpt><trkpt lat="43.4938033" lon="11.2401717"><ele>419.0</ele><time>2026-04-20T11:15:26.9Z</time></trkpt><trkpt lat="43.4939233" lon="11.2403467"><ele>433.0</ele><time>2026-04-20T11:15:27.9Z</time></trkpt><trkpt lat="43.494025" lon="11.2405217"><ele>433.0</ele><time>2026-04-20T11:15:28.9Z</time></trkpt><trkpt lat="43.494105" lon="11.24069"><ele>428.0</ele><time>2026-04-20T11:15:29.9Z</time></trkpt><trkpt lat="43.494175" lon="11.24085"><ele>428.0</ele><time>2026-04-20T11:15:30.9Z</time></trkpt></trkseg><trkseg><trkpt lat="43.493465" lon="11.2455567"><ele>427.99999999999994</ele><time>2026-04-20T11:18:06.94Z</time></trkpt><trkpt lat="43.4934033" lon="11.2455767"><ele>428.0</ele><time>2026-04-20T11:18:07.94Z</time></trkpt><trkpt lat="43.4933367" lon="11.2456083"><ele>428.0</ele><time>2026-04-20T11:18:08.94Z</time></trkpt><trkpt lat="43.4932767" lon="11.245665"><ele>428.0</ele><time>2026-04-20T11:18:09.94Z</time></trkpt><trkpt lat="43.4932167" lon="11.2457467"><ele>427.99999999999994</ele><time>2026-04-20T11:18:10.94Z</time></trkpt><trkpt lat="43.4931483" lon="11.2458433"><ele>428.0</ele><time>2026-04-20T11:18:11.94Z</time></trkpt><trkpt lat="43.49307" lon="11.2459517"><ele>427.0</ele><time>2026-04-20T11:18:12.94Z</time></trkpt><trkpt lat="43.4929917" lon="11.2460667"><ele>426.0</ele><time>2026-04-20T11:18:13.94Z</time></trkpt><trkpt lat="43.492915" lon="11.2461933"><ele>425.0</ele><time>2026-04-20T11:18:14.94Z</time></trkpt><trkpt lat="43.4928333" lon="11.2463133"><ele>424.0</ele><time>2026-04-20T11:18:15.94Z</time></trkpt><trkpt lat="43.492755" lon="11.2464567"><ele>427.75</ele><time>2026-04-20T11:18:16.94Z</time></trkpt><trkpt lat="43.492685" lon="11.2465933"><ele>431.5</ele><time>2026-04-20T11:18:17.94Z</time></trkpt><trkpt lat="43.4926083" lon="11.2467233"><ele>435.25</ele><time>2026-04-20T11:18:18.94Z</time></trkpt><trkpt lat="43.49253" lon="11.2468633"><ele>439.0</ele><time>2026-04-20T11:18:19.94Z</time></trkpt><trkpt lat="43.4924533" lon="11.2470117"><ele>439.0</ele><time>2026-04-20T11:18:20.94Z</time></trkpt><trkpt lat="43.4923767" lon="11.2471683"><ele>439.0</ele><time>2026-04-20T11:18:21.94Z</time></trkpt><trkpt lat="43.4923133" lon="11.24732"><ele>439.0</ele><time>2026-04-20T11:18:22.94Z</time></trkpt><trkpt lat="43.4922483" lon="11.2474567"><ele>439.0</ele><time>2026-04-20T11:18:23.94Z</time></trkpt><trkpt lat="43.492185" lon="11.2475867"><ele>439.2</ele><time>2026-04-20T11:18:24.94Z</time></trkpt><trkpt lat="43.4921383" lon="11.2477067"><ele>439.4</ele><time>2026-04-20T11:18:25.94Z</time></trkpt><trkpt lat="43.4920933" lon="11.24782"><ele>439.6</ele><time>2026-04-20T11:18:26.94Z</time></trkpt><trkpt lat="43.4920433" lon="11.2479167"><ele>439.8</ele><time>2026-04-20T11:18:27.941Z</time></trkpt><trkpt lat="43.4919817" lon="11.247995"><ele>440.0</ele><time>2026-04-20T11:18:28.94Z</time></trkpt><trkpt lat="43.4918983" lon="11.2480467"><ele>440.0</ele><time>2026-04-20T11:18:29.94Z</time></trkpt><trkpt lat="43.4918133" lon="11.2480833"><ele>440.0</ele><time>2026-04-20T11:18:30.94Z</time></trkpt><trkpt lat="43.491725" lon="11.2481033"><ele>440.0</ele><time>2026-04-20T11:18:31.94Z</time></trkpt><trkpt lat="43.491625" lon="11.2480933"><ele>440.0</ele><time>2026-04-20T11:18:32.94Z</time></trkpt><trkpt lat="43.491525" lon="11.24803"><ele>440.0</ele><time>2026-04-20T11:18:33.94Z</time></trkpt><trkpt lat="43.4914283" lon="11.2479517"><ele>440.0</ele><time>2026-04-20T11:18:34.94Z</time></trkpt><trkpt lat="43.4913317" lon="11.24787"><ele>440.0</ele><time>2026-04-20T11:18:35.94Z</time></trkpt><trkpt lat="43.4912333" lon="11.2477833"><ele>440.0</ele><time>2026-04-20T11:18:36.941Z</time></trkpt><trkpt lat="43.49114" lon="11.2477033"><ele>440.0</ele><time>2026-04-20T11:18:37.94Z</time></trkpt><trkpt lat="43.4910433" lon="11.2476317"><ele>442.2</ele><time>2026-04-20T11:18:38.94Z</time></trkpt><trkpt lat="43.4909483" lon="11.2475867"><ele>444.4</ele><time>2026-04-20T11:18:39.94Z</time></trkpt><trkpt lat="43.49085" lon="11.2475433"><ele>446.6</ele><time>2026-04-20T11:18:40.94Z</time></trkpt><trkpt lat="43.49075" lon="11.2475217"><ele>448.8</ele><time>2026-04-20T11:18:41.941Z</time></trkpt><trkpt lat="43.4906533" lon="11.2475033"><ele>451.0</ele><time>2026-04-20T11:18:42.94Z</time></trkpt><trkpt lat="43.4905517" lon="11.2474867"><ele>451.0</ele><time>2026-04-20T11:18:43.94Z</time></trkpt><trkpt lat="43.490445" lon="11.2474867"><ele>451.0</ele><time>2026-04-20T11:18:44.94Z</time></trkpt><trkpt lat="43.4903433" lon="11.2474817"><ele>451.0</ele><time>2026-04-20T11:18:45.941Z</time></trkpt><trkpt lat="43.4902383" lon="11.2474817"><ele>451.0</ele><time>2026-04-20T11:18:46.94Z</time></trkpt><trkpt lat="43.4901233" lon="11.2475033"><ele>451.0</ele><time>2026-04-20T11:18:47.94Z</time></trkpt><trkpt lat="43.490005" lon="11.2475333"><ele>452.25</ele><time>2026-04-20T11:18:48.939Z</time></trkpt><trkpt lat="43.4898833" lon="11.2475567"><ele>453.5</ele><time>2026-04-20T11:18:49.939Z</time></trkpt><trkpt lat="43.489765" lon="11.24757"><ele>454.75</ele><time>2026-04-20T11:18:50.939Z</time></trkpt><trkpt lat="43.4896417" lon="11.2475433"><ele>456.0</ele><time>2026-04-20T11:18:51.939Z</time></trkpt><trkpt lat="43.489515" lon="11.247495"><ele>456.5</ele><time>2026-04-20T11:18:52.939Z</time></trkpt><trkpt lat="43.4893967" lon="11.2474367"><ele>457.0</ele><time>2026-04-20T11:18:53.939Z</time></trkpt><trkpt lat="43.4892783" lon="11.2474033"><ele>457.5</ele><time>2026-04-20T11:18:54.94Z</time></trkpt><trkpt lat="43.4891517" lon="11.24741"><ele>458.0</ele><time>2026-04-20T11:18:55.94Z</time></trkpt><trkpt lat="43.4890433" lon="11.2474433"><ele>458.0</ele><time>2026-04-20T11:18:56.94Z</time></trkpt><trkpt lat="43.4889467" lon="11.247505"><ele>458.0</ele><time>2026-04-20T11:18:57.939Z</time></trkpt><trkpt lat="43.48885" lon="11.2476"><ele>458.0</ele><time>2026-04-20T11:18:58.939Z</time></trkpt><trkpt lat="43.48875" lon="11.247695"><ele>458.0</ele><time>2026-04-20T11:18:59.939Z</time></trkpt><trkpt lat="43.4886467" lon="11.2477867"><ele>455.75</ele><time>2026-04-20T11:19:00.939Z</time></trkpt><trkpt lat="43.4885433" lon="11.2478983"><ele>453.5</ele><time>2026-04-20T11:19:01.939Z</time></trkpt><trkpt lat="43.488445" lon="11.24801"><ele>451.25</ele><time>2026-04-20T11:19:02.939Z</time></trkpt><trkpt lat="43.4883467" lon="11.2481333"><ele>449.0</ele><time>2026-04-20T11:19:03.939Z</time></trkpt><trkpt lat="43.488235" lon="11.2482267"><ele>449.5</ele><time>2026-04-20T11:19:04.939Z</time></trkpt><trkpt lat="43.4881283" lon="11.2482833"><ele>450.0</ele><time>2026-04-20T11:19:05.939Z</time></trkpt><trkpt lat="43.4880083" lon="11.24833"><ele>450.5</ele><time>2026-04-20T11:19:06.939Z</time></trkpt><trkpt lat="43.4878883" lon="11.2483683"><ele>451.0</ele><time>2026-04-20T11:19:07.939Z</time></trkpt><trkpt lat="43.4877883" lon="11.2484383"><ele>451.0</ele><time>2026-04-20T11:19:08.94Z</time></trkpt><trkpt lat="43.4877033" lon="11.2485333"><ele>451.0</ele><time>2026-04-20T11:19:09.939Z</time></trkpt><trkpt lat="43.4876433" lon="11.248675"><ele>451.0</ele><time>2026-04-20T11:19:10.94Z</time></trkpt><trkpt lat="43.487615" lon="11.2488433"><ele>451.0</ele><time>2026-04-20T11:19:11.94Z</time></trkpt><trkpt lat="43.4876167" lon="11.2490183"><ele>452.25</ele><time>2026-04-20T11:19:12.94Z</time></trkpt><trkpt lat="43.4876383" lon="11.249185"><ele>453.5</ele><time>2026-04-20T11:19:13.939Z</time></trkpt><trkpt lat="43.48766" lon="11.249365"><ele>454.75</ele><time>2026-04-20T11:19:14.939Z</time></trkpt><trkpt lat="43.4876883" lon="11.2495417"><ele>456.0</ele><time>2026-04-20T11:19:15.94Z</time></trkpt><trkpt lat="43.4877017" lon="11.2497117"><ele>456.25</ele><time>2026-04-20T11:19:16.939Z</time></trkpt><trkpt lat="43.487725" lon="11.2498633"><ele>456.5</ele><time>2026-04-20T11:19:17.939Z</time></trkpt><trkpt lat="43.48774" lon="11.2500233"><ele>456.75</ele><time>2026-04-20T11:19:18.94Z</time></trkpt><trkpt lat="43.4877683" lon="11.2501933"><ele>457.0</ele><time>2026-04-20T11:19:19.94Z</time></trkpt><trkpt lat="43.4878017" lon="11.25036"><ele>457.0</ele><time>2026-04-20T11:19:20.94Z</time></trkpt><trkpt lat="43.4878483" lon="11.2505067"><ele>457.0</ele><time>2026-04-20T11:19:21.939Z</time></trkpt><trkpt lat="43.4879033" lon="11.2506617"><ele>457.0</ele><time>2026-04-20T11:19:22.939Z</time></trkpt><trkpt lat="43.48795" lon="11.25082"><ele>457.0</ele><time>2026-04-20T11:19:23.939Z</time></trkpt><trkpt lat="43.4879783" lon="11.2509633"><ele>458.20000000000005</ele><time>2026-04-20T11:19:24.939Z</time></trkpt><trkpt lat="43.487985" lon="11.2510933"><ele>459.40000000000003</ele><time>2026-04-20T11:19:25.939Z</time></trkpt><trkpt lat="43.487945" lon="11.2512183"><ele>460.59999999999997</ele><time>2026-04-20T11:19:26.94Z</time></trkpt><trkpt lat="43.48787" lon="11.2513417"><ele>461.79999999999995</ele><time>2026-04-20T11:19:27.939Z</time></trkpt><trkpt lat="43.4877633" lon="11.2514367"><ele>463.0</ele><time>2026-04-20T11:19:28.939Z</time></trkpt><trkpt lat="43.487655" lon="11.25149"><ele>465.5</ele><time>2026-04-20T11:19:29.939Z</time></trkpt><trkpt lat="43.4875233" lon="11.2515233"><ele>468.0</ele><time>2026-04-20T11:19:30.939Z</time></trkpt><trkpt lat="43.4873933" lon="11.2515433"><ele>470.5</ele><time>2026-04-20T11:19:31.94Z</time></trkpt><trkpt lat="43.4872533" lon="11.2515483"><ele>473.0</ele><time>2026-04-20T11:19:32.939Z</time></trkpt><trkpt lat="43.4871117" lon="11.2515517"><ele>473.25</ele><time>2026-04-20T11:19:33.939Z</time></trkpt><trkpt lat="43.4869733" lon="11.2515483"><ele>473.5</ele><time>2026-04-20T11:19:34.939Z</time></trkpt><trkpt lat="43.4868433" lon="11.2515633"><ele>473.75</ele><time>2026-04-20T11:19:35.939Z</time></trkpt><trkpt lat="43.4867233" lon="11.2515767"><ele>474.0</ele><time>2026-04-20T11:19:36.939Z</time></trkpt><trkpt lat="43.4866133" lon="11.25161"><ele>474.0</ele><time>2026-04-20T11:19:37.939Z</time></trkpt><trkpt lat="43.486515" lon="11.25169"><ele>474.0</ele><time>2026-04-20T11:19:38.939Z</time></trkpt><trkpt lat="43.486435" lon="11.2518017"><ele>474.0</ele><time>2026-04-20T11:19:39.939Z</time></trkpt><trkpt lat="43.4863867" lon="11.251945"><ele>474.0</ele><time>2026-04-20T11:19:40.94Z</time></trkpt><trkpt lat="43.4863683" lon="11.2521083"><ele>474.0</ele><time>2026-04-20T11:19:41.939Z</time></trkpt><trkpt lat="43.486375" lon="11.2522817"><ele>474.0</ele><time>2026-04-20T11:19:42.939Z</time></trkpt><trkpt lat="43.4863983" lon="11.2524667"><ele>474.0</ele><time>2026-04-20T11:19:43.94Z</time></trkpt><trkpt lat="43.486425" lon="11.2526283"><ele>474.0</ele><time>2026-04-20T11:19:44.939Z</time></trkpt><trkpt lat="43.4864283" lon="11.2527917"><ele>475.4</ele><time>2026-04-20T11:19:45.939Z</time></trkpt><trkpt lat="43.4864133" lon="11.2529333"><ele>476.79999999999995</ele><time>2026-04-20T11:19:46.939Z</time></trkpt><trkpt lat="43.4863517" lon="11.2530533"><ele>478.20000000000005</ele><time>2026-04-20T11:19:47.939Z</time></trkpt><trkpt lat="43.4862633" lon="11.2531333"><ele>479.6</ele><time>2026-04-20T11:19:48.939Z</time></trkpt><trkpt lat="43.486155" lon="11.2531883"><ele>481.0</ele><time>2026-04-20T11:19:49.939Z</time></trkpt><trkpt lat="43.4860317" lon="11.2532"><ele>480.0</ele><time>2026-04-20T11:19:50.939Z</time></trkpt><trkpt lat="43.4859167" lon="11.253155"><ele>479.0</ele><time>2026-04-20T11:19:51.939Z</time></trkpt><trkpt lat="43.4857983" lon="11.25308"><ele>478.0</ele><time>2026-04-20T11:19:52.939Z</time></trkpt><trkpt lat="43.485695" lon="11.2529733"><ele>477.0</ele><time>2026-04-20T11:19:53.939Z</time></trkpt><trkpt lat="43.485595" lon="11.2528517"><ele>477.0</ele><time>2026-04-20T11:19:54.939Z</time></trkpt><trkpt lat="43.48549" lon="11.2527317"><ele>477.0</ele><time>2026-04-20T11:19:55.939Z</time></trkpt><trkpt lat="43.48536" lon="11.2526367"><ele>477.0</ele><time>2026-04-20T11:19:56.939Z</time></trkpt><trkpt lat="43.485225" lon="11.25255"><ele>477.0</ele><time>2026-04-20T11:19:57.939Z</time></trkpt><trkpt lat="43.485075" lon="11.2524767"><ele>479.0</ele><time>2026-04-20T11:19:58.939Z</time></trkpt><trkpt lat="43.4849217" lon="11.2524267"><ele>481.0</ele><time>2026-04-20T11:19:59.939Z</time></trkpt><trkpt lat="43.48477" lon="11.25239"><ele>483.0</ele><time>2026-04-20T11:20:00.939Z</time></trkpt><trkpt lat="43.4846183" lon="11.2523783"><ele>482.25</ele><time>2026-04-20T11:20:01.939Z</time></trkpt><trkpt lat="43.484475" lon="11.2523817"><ele>481.5</ele><time>2026-04-20T11:20:02.939Z</time></trkpt><trkpt lat="43.4843467" lon="11.252425"><ele>480.75</ele><time>2026-04-20T11:20:03.939Z</time></trkpt><trkpt lat="43.484235" lon="11.2525017"><ele>480.0</ele><time>2026-04-20T11:20:04.939Z</time></trkpt><trkpt lat="43.4841283" lon="11.2526067"><ele>480.0</ele><time>2026-04-20T11:20:05.939Z</time></trkpt><trkpt lat="43.484045" lon="11.252745"><ele>480.0</ele><time>2026-04-20T11:20:06.939Z</time></trkpt><trkpt lat="43.4839883" lon="11.2529033"><ele>480.0</ele><time>2026-04-20T11:20:07.939Z</time></trkpt><trkpt lat="43.4839667" lon="11.2530833"><ele>480.0</ele><time>2026-04-20T11:20:08.939Z</time></trkpt><trkpt lat="43.4839733" lon="11.2532683"><ele>481.0</ele><time>2026-04-20T11:20:09.939Z</time></trkpt><trkpt lat="43.48401" lon="11.25345"><ele>482.0</ele><time>2026-04-20T11:20:10.94Z</time></trkpt><trkpt lat="43.48406" lon="11.2536383"><ele>483.0</ele><time>2026-04-20T11:20:11.939Z</time></trkpt><trkpt lat="43.4841133" lon="11.2538333"><ele>484.0</ele><time>2026-04-20T11:20:12.939Z</time></trkpt><trkpt lat="43.4841717" lon="11.254045"><ele>484.0</ele><time>2026-04-20T11:20:13.94Z</time></trkpt><trkpt lat="43.48423" lon="11.2542633"><ele>484.0</ele><time>2026-04-20T11:20:14.939Z</time></trkpt><trkpt lat="43.4842867" lon="11.254465"><ele>484.0</ele><time>2026-04-20T11:20:15.94Z</time></trkpt><trkpt lat="43.4843117" lon="11.254665"><ele>484.75</ele><time>2026-04-20T11:20:16.939Z</time></trkpt><trkpt lat="43.48431" lon="11.2548467"><ele>485.5</ele><time>2026-04-20T11:20:17.939Z</time></trkpt><trkpt lat="43.48426" lon="11.2550233"><ele>486.25</ele><time>2026-04-20T11:20:18.94Z</time></trkpt><trkpt lat="43.484175" lon="11.2551933"><ele>487.0</ele><time>2026-04-20T11:20:19.939Z</time></trkpt><trkpt lat="43.4841033" lon="11.2553883"><ele>487.0</ele><time>2026-04-20T11:20:20.939Z</time></trkpt><trkpt lat="43.4840617" lon="11.2556"><ele>487.0</ele><time>2026-04-20T11:20:21.94Z</time></trkpt><trkpt lat="43.4840317" lon="11.255805"><ele>487.0</ele><time>2026-04-20T11:20:22.939Z</time></trkpt><trkpt lat="43.4839833" lon="11.2559933"><ele>485.75</ele><time>2026-04-20T11:20:23.939Z</time></trkpt><trkpt lat="43.4839083" lon="11.2561433"><ele>484.5</ele><time>2026-04-20T11:20:24.939Z</time></trkpt><trkpt lat="43.4838083" lon="11.2562717"><ele>483.25</ele><time>2026-04-20T11:20:25.939Z</time></trkpt><trkpt lat="43.483725" lon="11.2564133"><ele>482.0</ele><time>2026-04-20T11:20:26.939Z</time></trkpt><trkpt lat="43.4836733" lon="11.2565883"><ele>484.5</ele><time>2026-04-20T11:20:27.939Z</time></trkpt><trkpt lat="43.4836317" lon="11.2567467"><ele>487.0</ele><time>2026-04-20T11:20:28.939Z</time></trkpt><trkpt lat="43.48359" lon="11.25689"><ele>489.5</ele><time>2026-04-20T11:20:29.939Z</time></trkpt><trkpt lat="43.4835083" lon="11.256985"><ele>492.0</ele><time>2026-04-20T11:20:30.939Z</time></trkpt><trkpt lat="43.483395" lon="11.25703"><ele>492.0</ele><time>2026-04-20T11:20:31.939Z</time></trkpt><trkpt lat="43.48327" lon="11.2570217"><ele>492.0</ele><time>2026-04-20T11:20:32.939Z</time></trkpt><trkpt lat="43.4831433" lon="11.2569567"><ele>492.0</ele><time>2026-04-20T11:20:33.939Z</time></trkpt><trkpt lat="43.4830283" lon="11.2568467"><ele>492.0</ele><time>2026-04-20T11:20:34.939Z</time></trkpt><trkpt lat="43.48291" lon="11.25673"><ele>493.0</ele><time>2026-04-20T11:20:35.939Z</time></trkpt><trkpt lat="43.4827867" lon="11.2566117"><ele>494.0</ele><time>2026-04-20T11:20:36.939Z</time></trkpt><trkpt lat="43.4826717" lon="11.256475"><ele>495.0</ele><time>2026-04-20T11:20:37.939Z</time></trkpt><trkpt lat="43.48257" lon="11.2563033"><ele>495.0</ele><time>2026-04-20T11:20:38.939Z</time></trkpt><trkpt lat="43.4824767" lon="11.2561083"><ele>495.0</ele><time>2026-04-20T11:20:39.939Z</time></trkpt><trkpt lat="43.482385" lon="11.255905"><ele>495.0</ele><time>2026-04-20T11:20:40.939Z</time></trkpt><trkpt lat="43.4822733" lon="11.2557033"><ele>494.66666666666663</ele><time>2026-04-20T11:20:41.94Z</time></trkpt><trkpt lat="43.4821317" lon="11.255535"><ele>494.3333333333333</ele><time>2026-04-20T11:20:42.939Z</time></trkpt><trkpt lat="43.48199" lon="11.2553717"><ele>494.0</ele><time>2026-04-20T11:20:43.939Z</time></trkpt><trkpt lat="43.4818667" lon="11.2552383"><ele>494.0</ele><time>2026-04-20T11:20:44.939Z</time></trkpt><trkpt lat="43.4817517" lon="11.25514"><ele>494.0</ele><time>2026-04-20T11:20:45.94Z</time></trkpt><trkpt lat="43.4816283" lon="11.2550867"><ele>494.0</ele><time>2026-04-20T11:20:46.939Z</time></trkpt><trkpt lat="43.48151" lon="11.2550667"><ele>494.0</ele><time>2026-04-20T11:20:47.939Z</time></trkpt><trkpt lat="43.4813883" lon="11.2551017"><ele>491.66666666666663</ele><time>2026-04-20T11:20:48.939Z</time></trkpt><trkpt lat="43.4812617" lon="11.2551933"><ele>489.33333333333337</ele><time>2026-04-20T11:20:49.94Z</time></trkpt><trkpt lat="43.4811383" lon="11.2553117"><ele>487.0</ele><time>2026-04-20T11:20:50.94Z</time></trkpt><trkpt lat="43.481005" lon="11.25544"><ele>487.0</ele><time>2026-04-20T11:20:51.939Z</time></trkpt><trkpt lat="43.480875" lon="11.2555783"><ele>487.0</ele><time>2026-04-20T11:20:52.94Z</time></trkpt><trkpt lat="43.4807417" lon="11.2557117"><ele>487.0</ele><time>2026-04-20T11:20:53.939Z</time></trkpt><trkpt lat="43.4806317" lon="11.2558333"><ele>490.75</ele><time>2026-04-20T11:20:54.939Z</time></trkpt><trkpt lat="43.4805517" lon="11.2559717"><ele>494.5</ele><time>2026-04-20T11:20:55.94Z</time></trkpt><trkpt lat="43.480505" lon="11.256125"><ele>498.25</ele><time>2026-04-20T11:20:56.94Z</time></trkpt><trkpt lat="43.480495" lon="11.2562983"><ele>502.0</ele><time>2026-04-20T11:20:57.939Z</time></trkpt><trkpt lat="43.4805017" lon="11.25648"><ele>503.40000000000003</ele><time>2026-04-20T11:20:58.939Z</time></trkpt><trkpt lat="43.4805217" lon="11.25664"><ele>504.80000000000007</ele><time>2026-04-20T11:20:59.939Z</time></trkpt><trkpt lat="43.4805483" lon="11.2567867"><ele>506.2</ele><time>2026-04-20T11:21:00.939Z</time></trkpt><trkpt lat="43.4805783" lon="11.25692"><ele>507.6</ele><time>2026-04-20T11:21:01.94Z</time></trkpt><trkpt lat="43.480615" lon="11.2570433"><ele>509.0</ele><time>2026-04-20T11:21:02.94Z</time></trkpt><trkpt lat="43.4806567" lon="11.2571483"><ele>508.99999999999994</ele><time>2026-04-20T11:21:03.939Z</time></trkpt><trkpt lat="43.4806983" lon="11.25723"><ele>509.0</ele><time>2026-04-20T11:21:04.939Z</time></trkpt><trkpt lat="43.4807317" lon="11.25733"><ele>509.0</ele><time>2026-04-20T11:21:06.939Z</time></trkpt><trkpt lat="43.480665" lon="11.2573183"><ele>509.0</ele><time>2026-04-20T11:21:09.94Z</time></trkpt><trkpt lat="43.4806117" lon="11.2571717"><ele>508.99999999999994</ele><time>2026-04-20T11:21:11.939Z</time></trkpt><trkpt lat="43.4805767" lon="11.25707"><ele>509.0</ele><time>2026-04-20T11:21:12.939Z</time></trkpt><trkpt lat="43.480535" lon="11.2569633"><ele>508.99999999999994</ele><time>2026-04-20T11:21:13.939Z</time></trkpt><trkpt lat="43.480495" lon="11.2568667"><ele>509.0</ele><time>2026-04-20T11:21:14.94Z</time></trkpt><trkpt lat="43.4804617" lon="11.25678"><ele>509.0</ele><time>2026-04-20T11:21:15.939Z</time></trkpt><trkpt lat="43.4804217" lon="11.2566983"><ele>509.0</ele><time>2026-04-20T11:21:16.939Z</time></trkpt><trkpt lat="43.48037" lon="11.2566267"><ele>508.99999999999994</ele><time>2026-04-20T11:21:17.939Z</time></trkpt><trkpt lat="43.48032" lon="11.2565467"><ele>509.0</ele><time>2026-04-20T11:21:18.94Z</time></trkpt><trkpt lat="43.4802767" lon="11.2564517"><ele>504.16666666666663</ele><time>2026-04-20T11:21:19.939Z</time></trkpt><trkpt lat="43.48024" lon="11.25635"><ele>499.3333333333333</ele><time>2026-04-20T11:21:20.939Z</time></trkpt><trkpt lat="43.4802033" lon="11.2562417"><ele>494.5</ele><time>2026-04-20T11:21:21.939Z</time></trkpt><trkpt lat="43.48017" lon="11.25614"><ele>489.66666666666663</ele><time>2026-04-20T11:21:22.939Z</time></trkpt><trkpt lat="43.4801433" lon="11.25604"><ele>484.8333333333333</ele><time>2026-04-20T11:21:23.939Z</time></trkpt><trkpt lat="43.480125" lon="11.2559417"><ele>480.0</ele><time>2026-04-20T11:21:24.94Z</time></trkpt><trkpt lat="43.4801167" lon="11.2558483"><ele>480.0</ele><time>2026-04-20T11:21:25.939Z</time></trkpt><trkpt lat="43.4800783" lon="11.2556883"><ele>480.0</ele><time>2026-04-20T11:21:27.94Z</time></trkpt><trkpt lat="43.4800417" lon="11.255595"><ele>480.0</ele><time>2026-04-20T11:21:28.939Z</time></trkpt><trkpt lat="43.4800017" lon="11.2555033"><ele>480.0</ele><time>2026-04-20T11:21:29.94Z</time></trkpt><trkpt lat="43.479965" lon="11.2554083"><ele>480.0</ele><time>2026-04-20T11:21:30.939Z</time></trkpt><trkpt lat="43.4799317" lon="11.2553233"><ele>480.0</ele><time>2026-04-20T11:21:31.939Z</time></trkpt><trkpt lat="43.4798967" lon="11.2552467"><ele>478.6</ele><time>2026-04-20T11:21:32.939Z</time></trkpt><trkpt lat="43.4798467" lon="11.2551233"><ele>477.2</ele><time>2026-04-20T11:21:34.939Z</time></trkpt><trkpt lat="43.47986" lon="11.2550117"><ele>475.79999999999995</ele><time>2026-04-20T11:21:36.939Z</time></trkpt><trkpt lat="43.479895" lon="11.2548967"><ele>474.4</ele><time>2026-04-20T11:21:38.94Z</time></trkpt><trkpt lat="43.4798683" lon="11.2548017"><ele>473.0</ele><time>2026-04-20T11:21:40.939Z</time></trkpt><trkpt lat="43.4797783" lon="11.2547333"><ele>470.2</ele><time>2026-04-20T11:21:42.939Z</time></trkpt><trkpt lat="43.4796517" lon="11.2547017"><ele>467.4</ele><time>2026-04-20T11:21:44.939Z</time></trkpt><trkpt lat="43.4795867" lon="11.2546733"><ele>464.59999999999997</ele><time>2026-04-20T11:21:45.939Z</time></trkpt><trkpt lat="43.4794817" lon="11.254605"><ele>461.79999999999995</ele><time>2026-04-20T11:21:47.939Z</time></trkpt><trkpt lat="43.4793867" lon="11.254515"><ele>459.0</ele><time>2026-04-20T11:21:49.939Z</time></trkpt><trkpt lat="43.4793383" lon="11.25445"><ele>458.14285714285717</ele><time>2026-04-20T11:21:50.939Z</time></trkpt><trkpt lat="43.4792883" lon="11.254385"><ele>457.2857142857142</ele><time>2026-04-20T11:21:51.939Z</time></trkpt><trkpt lat="43.479245" lon="11.2543133"><ele>456.4285714285714</ele><time>2026-04-20T11:21:52.939Z</time></trkpt><trkpt lat="43.4792067" lon="11.2542433"><ele>455.57142857142856</ele><time>2026-04-20T11:21:53.939Z</time></trkpt><trkpt lat="43.4791717" lon="11.2541617"><ele>454.71428571428567</ele><time>2026-04-20T11:21:54.94Z</time></trkpt><trkpt lat="43.479145" lon="11.2540817"><ele>453.8571428571428</ele><time>2026-04-20T11:21:55.939Z</time></trkpt><trkpt lat="43.47912" lon="11.25395"><ele>452.99999999999994</ele><time>2026-04-20T11:21:57.939Z</time></trkpt><trkpt lat="43.4791667" lon="11.2538433"><ele>451.3333333333333</ele><time>2026-04-20T11:21:59.939Z</time></trkpt><trkpt lat="43.4792717" lon="11.2537933"><ele>449.66666666666663</ele><time>2026-04-20T11:22:01.94Z</time></trkpt><trkpt lat="43.4793833" lon="11.2537583"><ele>448.0</ele><time>2026-04-20T11:22:03.939Z</time></trkpt><trkpt lat="43.47945" lon="11.2537383"><ele>446.3333333333333</ele><time>2026-04-20T11:22:04.939Z</time></trkpt><trkpt lat="43.4795167" lon="11.25374"><ele>444.66666666666663</ele><time>2026-04-20T11:22:05.939Z</time></trkpt><trkpt lat="43.47958" lon="11.2537433"><ele>443.0</ele><time>2026-04-20T11:22:06.94Z</time></trkpt><trkpt lat="43.479675" lon="11.253735"><ele>442.99999999999994</ele><time>2026-04-20T11:22:08.939Z</time></trkpt><trkpt lat="43.47977" lon="11.2537067"><ele>443.0</ele><time>2026-04-20T11:22:10.939Z</time></trkpt><trkpt lat="43.4798667" lon="11.2536333"><ele>443.0</ele><time>2026-04-20T11:22:12.939Z</time></trkpt><trkpt lat="43.4799067" lon="11.253565"><ele>443.0</ele><time>2026-04-20T11:22:13.939Z</time></trkpt><trkpt lat="43.47995" lon="11.253485"><ele>442.99999999999994</ele><time>2026-04-20T11:22:14.939Z</time></trkpt><trkpt lat="43.4799783" lon="11.2533967"><ele>443.0</ele><time>2026-04-20T11:22:15.939Z</time></trkpt><trkpt lat="43.4799983" lon="11.253305"><ele>442.99999999999994</ele><time>2026-04-20T11:22:16.939Z</time></trkpt><trkpt lat="43.4800083" lon="11.2532033"><ele>443.0</ele><time>2026-04-20T11:22:17.939Z</time></trkpt><trkpt lat="43.4800233" lon="11.2531017"><ele>443.0</ele><time>2026-04-20T11:22:18.94Z</time></trkpt><trkpt lat="43.4800383" lon="11.2530017"><ele>443.0</ele><time>2026-04-20T11:22:19.939Z</time></trkpt><trkpt lat="43.4800433" lon="11.2528967"><ele>442.99999999999994</ele><time>2026-04-20T11:22:20.939Z</time></trkpt><trkpt lat="43.4800533" lon="11.2527933"><ele>443.0</ele><time>2026-04-20T11:22:21.939Z</time></trkpt><trkpt lat="43.4800583" lon="11.252685"><ele>441.16666666666663</ele><time>2026-04-20T11:22:22.939Z</time></trkpt><trkpt lat="43.4800667" lon="11.252585"><ele>439.3333333333333</ele><time>2026-04-20T11:22:23.939Z</time></trkpt><trkpt lat="43.4800733" lon="11.25248"><ele>437.5</ele><time>2026-04-20T11:22:24.939Z</time></trkpt><trkpt lat="43.480085" lon="11.2523733"><ele>435.66666666666663</ele><time>2026-04-20T11:22:25.939Z</time></trkpt><trkpt lat="43.48009" lon="11.2522833"><ele>433.8333333333333</ele><time>2026-04-20T11:22:26.939Z</time></trkpt><trkpt lat="43.4801017" lon="11.2521967"><ele>432.0</ele><time>2026-04-20T11:22:27.939Z</time></trkpt><trkpt lat="43.4801067" lon="11.2520517"><ele>430.8</ele><time>2026-04-20T11:22:29.939Z</time></trkpt><trkpt lat="43.48006" lon="11.2519333"><ele>429.6</ele><time>2026-04-20T11:22:31.939Z</time></trkpt><trkpt lat="43.4799933" lon="11.25182"><ele>428.40000000000003</ele><time>2026-04-20T11:22:33.939Z</time></trkpt><trkpt lat="43.47994" lon="11.25167"><ele>427.20000000000005</ele><time>2026-04-20T11:22:35.939Z</time></trkpt><trkpt lat="43.4799283" lon="11.2515817"><ele>426.0</ele><time>2026-04-20T11:22:36.94Z</time></trkpt><trkpt lat="43.4799233" lon="11.2514767"><ele>424.99999999999994</ele><time>2026-04-20T11:22:37.939Z</time></trkpt><trkpt lat="43.47992" lon="11.2513683"><ele>424.0</ele><time>2026-04-20T11:22:38.939Z</time></trkpt><trkpt lat="43.4799133" lon="11.251255"><ele>423.0</ele><time>2026-04-20T11:22:39.939Z</time></trkpt><trkpt lat="43.4799117" lon="11.251145"><ele>422.0</ele><time>2026-04-20T11:22:40.939Z</time></trkpt><trkpt lat="43.4799017" lon="11.2510517"><ele>421.0</ele><time>2026-04-20T11:22:41.939Z</time></trkpt><trkpt lat="43.4798767" lon="11.2509633"><ele>419.99999999999994</ele><time>2026-04-20T11:22:42.939Z</time></trkpt><trkpt lat="43.4798533" lon="11.2508733"><ele>419.0</ele><time>2026-04-20T11:22:43.939Z</time></trkpt><trkpt lat="43.4798133" lon="11.250785"><ele>418.99999999999994</ele><time>2026-04-20T11:22:44.94Z</time></trkpt><trkpt lat="43.47977" lon="11.2507117"><ele>419.0</ele><time>2026-04-20T11:22:45.94Z</time></trkpt><trkpt lat="43.4797333" lon="11.250635"><ele>419.0</ele><time>2026-04-20T11:22:46.939Z</time></trkpt><trkpt lat="43.4796983" lon="11.25056"><ele>419.0</ele><time>2026-04-20T11:22:47.939Z</time></trkpt><trkpt lat="43.4796583" lon="11.2504733"><ele>418.99999999999994</ele><time>2026-04-20T11:22:48.939Z</time></trkpt><trkpt lat="43.4796267" lon="11.2503917"><ele>419.0</ele><time>2026-04-20T11:22:49.939Z</time></trkpt><trkpt lat="43.4795567" lon="11.25025"><ele>417.2</ele><time>2026-04-20T11:22:51.939Z</time></trkpt><trkpt lat="43.4794533" lon="11.2501383"><ele>415.4</ele><time>2026-04-20T11:22:53.939Z</time></trkpt><trkpt lat="43.4793783" lon="11.2500933"><ele>413.6</ele><time>2026-04-20T11:22:54.939Z</time></trkpt><trkpt lat="43.479295" lon="11.250045"><ele>411.8</ele><time>2026-04-20T11:22:55.939Z</time></trkpt><trkpt lat="43.4792033" lon="11.2499833"><ele>410.0</ele><time>2026-04-20T11:22:56.939Z</time></trkpt><trkpt lat="43.47911" lon="11.2499233"><ele>410.0</ele><time>2026-04-20T11:22:57.939Z</time></trkpt><trkpt lat="43.479025" lon="11.249865"><ele>410.0</ele><time>2026-04-20T11:22:58.939Z</time></trkpt><trkpt lat="43.4789417" lon="11.2498133"><ele>410.0</ele><time>2026-04-20T11:22:59.939Z</time></trkpt><trkpt lat="43.4788567" lon="11.24976"><ele>410.0</ele><time>2026-04-20T11:23:00.939Z</time></trkpt><trkpt lat="43.4787817" lon="11.24969"><ele>410.0</ele><time>2026-04-20T11:23:01.939Z</time></trkpt><trkpt lat="43.4787" lon="11.2496183"><ele>410.4</ele><time>2026-04-20T11:23:02.94Z</time></trkpt><trkpt lat="43.4786267" lon="11.2495467"><ele>410.8</ele><time>2026-04-20T11:23:03.94Z</time></trkpt><trkpt lat="43.4785633" lon="11.2494517"><ele>411.20000000000005</ele><time>2026-04-20T11:23:04.939Z</time></trkpt><trkpt lat="43.4785117" lon="11.2493467"><ele>411.6</ele><time>2026-04-20T11:23:05.939Z</time></trkpt><trkpt lat="43.47847" lon="11.2492183"><ele>412.0</ele><time>2026-04-20T11:23:06.938Z</time></trkpt><trkpt lat="43.47844" lon="11.2490817"><ele>412.8</ele><time>2026-04-20T11:23:07.938Z</time></trkpt><trkpt lat="43.47842" lon="11.2489433"><ele>413.6</ele><time>2026-04-20T11:23:08.938Z</time></trkpt><trkpt lat="43.4783983" lon="11.248795"><ele>414.40000000000003</ele><time>2026-04-20T11:23:09.938Z</time></trkpt><trkpt lat="43.4783667" lon="11.2486467"><ele>415.20000000000005</ele><time>2026-04-20T11:23:10.938Z</time></trkpt><trkpt lat="43.4783283" lon="11.2485017"><ele>416.0</ele><time>2026-04-20T11:23:11.938Z</time></trkpt><trkpt lat="43.4782817" lon="11.2483733"><ele>416.0</ele><time>2026-04-20T11:23:12.938Z</time></trkpt><trkpt lat="43.47823" lon="11.2482383"><ele>416.0</ele><time>2026-04-20T11:23:13.938Z</time></trkpt><trkpt lat="43.47818" lon="11.2480983"><ele>416.0</ele><time>2026-04-20T11:23:14.938Z</time></trkpt><trkpt lat="43.47813" lon="11.2479583"><ele>416.0</ele><time>2026-04-20T11:23:15.938Z</time></trkpt><trkpt lat="43.4780783" lon="11.2478233"><ele>416.0</ele><time>2026-04-20T11:23:16.938Z</time></trkpt><trkpt lat="43.4780133" lon="11.247685"><ele>415.4</ele><time>2026-04-20T11:23:17.938Z</time></trkpt><trkpt lat="43.4779533" lon="11.2475483"><ele>414.8</ele><time>2026-04-20T11:23:18.938Z</time></trkpt><trkpt lat="43.4779067" lon="11.2474117"><ele>414.2</ele><time>2026-04-20T11:23:19.938Z</time></trkpt><trkpt lat="43.4778683" lon="11.247285"><ele>413.59999999999997</ele><time>2026-04-20T11:23:20.938Z</time></trkpt><trkpt lat="43.47782" lon="11.2471633"><ele>413.0</ele><time>2026-04-20T11:23:21.938Z</time></trkpt><trkpt lat="43.4777583" lon="11.247055"><ele>416.59999999999997</ele><time>2026-04-20T11:23:22.938Z</time></trkpt><trkpt lat="43.4776983" lon="11.2469417"><ele>420.2</ele><time>2026-04-20T11:23:23.939Z</time></trkpt><trkpt lat="43.477645" lon="11.24683"><ele>423.8</ele><time>2026-04-20T11:23:24.938Z</time></trkpt><trkpt lat="43.4775983" lon="11.246705"><ele>427.4</ele><time>2026-04-20T11:23:25.938Z</time></trkpt><trkpt lat="43.4775567" lon="11.2465783"><ele>431.0</ele><time>2026-04-20T11:23:26.938Z</time></trkpt><trkpt lat="43.4775217" lon="11.2464567"><ele>430.99999999999994</ele><time>2026-04-20T11:23:27.938Z</time></trkpt><trkpt lat="43.4774767" lon="11.24635"><ele>431.0</ele><time>2026-04-20T11:23:28.938Z</time></trkpt><trkpt lat="43.47744" lon="11.2462583"><ele>431.0</ele><time>2026-04-20T11:23:29.938Z</time></trkpt><trkpt lat="43.47739" lon="11.2461733"><ele>431.0</ele><time>2026-04-20T11:23:30.938Z</time></trkpt><trkpt lat="43.4773367" lon="11.2461"><ele>430.99999999999994</ele><time>2026-04-20T11:23:31.939Z</time></trkpt><trkpt lat="43.477285" lon="11.2460133"><ele>431.0</ele><time>2026-04-20T11:23:32.939Z</time></trkpt><trkpt lat="43.4772383" lon="11.245915"><ele>431.0</ele><time>2026-04-20T11:23:33.938Z</time></trkpt><trkpt lat="43.4772067" lon="11.2458067"><ele>431.0</ele><time>2026-04-20T11:23:34.939Z</time></trkpt><trkpt lat="43.477195" lon="11.2456833"><ele>431.0</ele><time>2026-04-20T11:23:35.939Z</time></trkpt><trkpt lat="43.4771867" lon="11.2455433"><ele>431.0</ele><time>2026-04-20T11:23:36.938Z</time></trkpt><trkpt lat="43.4771883" lon="11.2454067"><ele>431.0</ele><time>2026-04-20T11:23:37.938Z</time></trkpt><trkpt lat="43.4771883" lon="11.24529"><ele>432.0</ele><time>2026-04-20T11:23:38.938Z</time></trkpt><trkpt lat="43.4771967" lon="11.2451933"><ele>433.0</ele><time>2026-04-20T11:23:39.938Z</time></trkpt><trkpt lat="43.47724" lon="11.245055"><ele>434.0</ele><time>2026-04-20T11:23:41.938Z</time></trkpt><trkpt lat="43.4773083" lon="11.244935"><ele>435.0</ele><time>2026-04-20T11:23:43.939Z</time></trkpt><trkpt lat="43.4773517" lon="11.2447933"><ele>436.0</ele><time>2026-04-20T11:23:45.939Z</time></trkpt><trkpt lat="43.4773533" lon="11.244705"><ele>436.0</ele><time>2026-04-20T11:23:46.938Z</time></trkpt><trkpt lat="43.4773283" lon="11.244615"><ele>436.0</ele><time>2026-04-20T11:23:47.938Z</time></trkpt><trkpt lat="43.4772917" lon="11.244535"><ele>436.0</ele><time>2026-04-20T11:23:48.939Z</time></trkpt><trkpt lat="43.4772517" lon="11.2444567"><ele>436.0</ele><time>2026-04-20T11:23:49.938Z</time></trkpt><trkpt lat="43.4772167" lon="11.2443733"><ele>436.0</ele><time>2026-04-20T11:23:50.938Z</time></trkpt><trkpt lat="43.4771883" lon="11.2442867"><ele>436.0</ele><time>2026-04-20T11:23:51.938Z</time></trkpt><trkpt lat="43.4771667" lon="11.244195"><ele>436.0</ele><time>2026-04-20T11:23:52.938Z</time></trkpt><trkpt lat="43.4771383" lon="11.24409"><ele>436.00000000000006</ele><time>2026-04-20T11:23:53.938Z</time></trkpt><trkpt lat="43.4771117" lon="11.243975"><ele>436.0</ele><time>2026-04-20T11:23:54.939Z</time></trkpt><trkpt lat="43.4770717" lon="11.24387"><ele>436.0</ele><time>2026-04-20T11:23:55.938Z</time></trkpt><trkpt lat="43.4770383" lon="11.2437667"><ele>436.0</ele><time>2026-04-20T11:23:56.939Z</time></trkpt><trkpt lat="43.477015" lon="11.2436617"><ele>436.00000000000006</ele><time>2026-04-20T11:23:57.939Z</time></trkpt><trkpt lat="43.4769933" lon="11.2435567"><ele>436.0</ele><time>2026-04-20T11:23:58.939Z</time></trkpt><trkpt lat="43.47697" lon="11.24345"><ele>437.7142857142857</ele><time>2026-04-20T11:23:59.938Z</time></trkpt><trkpt lat="43.4769417" lon="11.2433517"><ele>439.42857142857144</ele><time>2026-04-20T11:24:00.939Z</time></trkpt><trkpt lat="43.4769183" lon="11.243255"><ele>441.1428571428571</ele><time>2026-04-20T11:24:01.939Z</time></trkpt><trkpt lat="43.4769067" lon="11.2431633"><ele>442.8571428571429</ele><time>2026-04-20T11:24:02.938Z</time></trkpt><trkpt lat="43.476885" lon="11.2430783"><ele>444.57142857142856</ele><time>2026-04-20T11:24:03.939Z</time></trkpt><trkpt lat="43.47685" lon="11.2429933"><ele>446.2857142857143</ele><time>2026-04-20T11:24:04.939Z</time></trkpt><trkpt lat="43.476805" lon="11.2429"><ele>448.0</ele><time>2026-04-20T11:24:05.939Z</time></trkpt><trkpt lat="43.4767567" lon="11.242785"><ele>448.0</ele><time>2026-04-20T11:24:06.939Z</time></trkpt><trkpt lat="43.4767017" lon="11.2426667"><ele>447.99999999999994</ele><time>2026-04-20T11:24:07.938Z</time></trkpt><trkpt lat="43.4766433" lon="11.2425467"><ele>447.99999999999994</ele><time>2026-04-20T11:24:08.938Z</time></trkpt><trkpt lat="43.4765817" lon="11.242435"><ele>448.0</ele><time>2026-04-20T11:24:09.938Z</time></trkpt><trkpt lat="43.476515" lon="11.24233"><ele>448.0</ele><time>2026-04-20T11:24:10.939Z</time></trkpt><trkpt lat="43.47645" lon="11.2422317"><ele>445.79999999999995</ele><time>2026-04-20T11:24:11.938Z</time></trkpt><trkpt lat="43.47639" lon="11.2421317"><ele>443.59999999999997</ele><time>2026-04-20T11:24:12.938Z</time></trkpt><trkpt lat="43.4763283" lon="11.2420367"><ele>441.40000000000003</ele><time>2026-04-20T11:24:13.938Z</time></trkpt><trkpt lat="43.47627" lon="11.241945"><ele>439.20000000000005</ele><time>2026-04-20T11:24:14.938Z</time></trkpt><trkpt lat="43.47621" lon="11.241845"><ele>437.0</ele><time>2026-04-20T11:24:15.939Z</time></trkpt><trkpt lat="43.4761467" lon="11.24174"><ele>436.99999999999994</ele><time>2026-04-20T11:24:16.938Z</time></trkpt><trkpt lat="43.476085" lon="11.2416567"><ele>437.0</ele><time>2026-04-20T11:24:17.938Z</time></trkpt><trkpt lat="43.4760183" lon="11.24157"><ele>437.0</ele><time>2026-04-20T11:24:18.938Z</time></trkpt><trkpt lat="43.47595" lon="11.24149"><ele>437.0</ele><time>2026-04-20T11:24:19.938Z</time></trkpt><trkpt lat="43.47588" lon="11.2414067"><ele>436.99999999999994</ele><time>2026-04-20T11:24:20.938Z</time></trkpt><trkpt lat="43.47582" lon="11.2413283"><ele>437.0</ele><time>2026-04-20T11:24:21.938Z</time></trkpt><trkpt lat="43.4757667" lon="11.2412467"><ele>434.99999999999994</ele><time>2026-04-20T11:24:22.938Z</time></trkpt><trkpt lat="43.4757033" lon="11.2411683"><ele>433.0</ele><time>2026-04-20T11:24:23.939Z</time></trkpt><trkpt lat="43.4756467" lon="11.241095"><ele>431.0</ele><time>2026-04-20T11:24:24.938Z</time></trkpt><trkpt lat="43.4755867" lon="11.2410333"><ele>429.0</ele><time>2026-04-20T11:24:25.938Z</time></trkpt><trkpt lat="43.4755217" lon="11.2409833"><ele>426.99999999999994</ele><time>2026-04-20T11:24:26.938Z</time></trkpt><trkpt lat="43.475455" lon="11.240945"><ele>425.0</ele><time>2026-04-20T11:24:27.938Z</time></trkpt><trkpt lat="43.4753833" lon="11.240915"><ele>424.66666666666663</ele><time>2026-04-20T11:24:28.939Z</time></trkpt><trkpt lat="43.4753117" lon="11.240895"><ele>424.3333333333333</ele><time>2026-04-20T11:24:29.939Z</time></trkpt><trkpt lat="43.4752317" lon="11.2408683"><ele>424.0</ele><time>2026-04-20T11:24:30.938Z</time></trkpt><trkpt lat="43.4751567" lon="11.2408367"><ele>423.66666666666663</ele><time>2026-04-20T11:24:31.938Z</time></trkpt><trkpt lat="43.4750867" lon="11.240805"><ele>423.3333333333333</ele><time>2026-04-20T11:24:32.939Z</time></trkpt><trkpt lat="43.4750167" lon="11.2407617"><ele>423.0</ele><time>2026-04-20T11:24:33.938Z</time></trkpt><trkpt lat="43.4749417" lon="11.2407117"><ele>423.0</ele><time>2026-04-20T11:24:34.938Z</time></trkpt><trkpt lat="43.4748517" lon="11.2406617"><ele>423.0</ele><time>2026-04-20T11:24:35.938Z</time></trkpt><trkpt lat="43.474765" lon="11.2406067"><ele>423.0</ele><time>2026-04-20T11:24:36.939Z</time></trkpt><trkpt lat="43.4746833" lon="11.2405533"><ele>423.0</ele><time>2026-04-20T11:24:37.939Z</time></trkpt><trkpt lat="43.4746017" lon="11.2404983"><ele>423.0</ele><time>2026-04-20T11:24:38.938Z</time></trkpt><trkpt lat="43.4745367" lon="11.2404283"><ele>421.8333333333333</ele><time>2026-04-20T11:24:39.938Z</time></trkpt><trkpt lat="43.4744783" lon="11.24035"><ele>420.66666666666663</ele><time>2026-04-20T11:24:40.938Z</time></trkpt><trkpt lat="43.4744217" lon="11.2402817"><ele>419.5</ele><time>2026-04-20T11:24:41.939Z</time></trkpt><trkpt lat="43.4743533" lon="11.240235"><ele>418.3333333333333</ele><time>2026-04-20T11:24:42.938Z</time></trkpt><trkpt lat="43.4742633" lon="11.2402"><ele>417.16666666666663</ele><time>2026-04-20T11:24:43.938Z</time></trkpt><trkpt lat="43.4741683" lon="11.2401717"><ele>416.0</ele><time>2026-04-20T11:24:44.938Z</time></trkpt><trkpt lat="43.4740767" lon="11.2401467"><ele>415.99999999999994</ele><time>2026-04-20T11:24:45.939Z</time></trkpt><trkpt lat="43.47398" lon="11.24013"><ele>416.0</ele><time>2026-04-20T11:24:46.939Z</time></trkpt><trkpt lat="43.4738983" lon="11.2401033"><ele>416.0</ele><time>2026-04-20T11:24:47.939Z</time></trkpt><trkpt lat="43.4738183" lon="11.24008"><ele>416.0</ele><time>2026-04-20T11:24:48.938Z</time></trkpt><trkpt lat="43.4737433" lon="11.240055"><ele>415.99999999999994</ele><time>2026-04-20T11:24:49.938Z</time></trkpt><trkpt lat="43.4736717" lon="11.24003"><ele>416.0</ele><time>2026-04-20T11:24:50.939Z</time></trkpt><trkpt lat="43.4735883" lon="11.239995"><ele>415.49999999999994</ele><time>2026-04-20T11:24:51.938Z</time></trkpt><trkpt lat="43.4735133" lon="11.23996"><ele>415.0</ele><time>2026-04-20T11:24:52.938Z</time></trkpt><trkpt lat="43.4734367" lon="11.2399167"><ele>414.5</ele><time>2026-04-20T11:24:53.939Z</time></trkpt><trkpt lat="43.4733633" lon="11.239875"><ele>414.0</ele><time>2026-04-20T11:24:54.939Z</time></trkpt><trkpt lat="43.4732833" lon="11.2398367"><ele>413.49999999999994</ele><time>2026-04-20T11:24:55.938Z</time></trkpt><trkpt lat="43.473205" lon="11.2397933"><ele>413.0</ele><time>2026-04-20T11:24:56.938Z</time></trkpt><trkpt lat="43.47312" lon="11.2397467"><ele>412.57142857142856</ele><time>2026-04-20T11:24:57.939Z</time></trkpt><trkpt lat="43.4730483" lon="11.2397083"><ele>412.1428571428571</ele><time>2026-04-20T11:24:58.938Z</time></trkpt><trkpt lat="43.47298" lon="11.2396733"><ele>411.7142857142857</ele><time>2026-04-20T11:24:59.938Z</time></trkpt><trkpt lat="43.4729067" lon="11.239635"><ele>411.2857142857143</ele><time>2026-04-20T11:25:00.938Z</time></trkpt><trkpt lat="43.4728417" lon="11.2396117"><ele>410.85714285714283</ele><time>2026-04-20T11:25:01.938Z</time></trkpt><trkpt lat="43.4727767" lon="11.2395933"><ele>410.42857142857144</ele><time>2026-04-20T11:25:02.939Z</time></trkpt><trkpt lat="43.47271" lon="11.23958"><ele>410.0</ele><time>2026-04-20T11:25:03.938Z</time></trkpt><trkpt lat="43.472585" lon="11.239575"><ele>408.66666666666663</ele><time>2026-04-20T11:25:05.938Z</time></trkpt><trkpt lat="43.47252" lon="11.2395883"><ele>407.3333333333333</ele><time>2026-04-20T11:25:06.938Z</time></trkpt><trkpt lat="43.4724517" lon="11.239595"><ele>406.0</ele><time>2026-04-20T11:25:07.938Z</time></trkpt><trkpt lat="43.4723817" lon="11.2395933"><ele>404.66666666666663</ele><time>2026-04-20T11:25:08.938Z</time></trkpt><trkpt lat="43.4723033" lon="11.2395783"><ele>403.3333333333333</ele><time>2026-04-20T11:25:09.938Z</time></trkpt><trkpt lat="43.4722367" lon="11.2395317"><ele>402.0</ele><time>2026-04-20T11:25:10.938Z</time></trkpt><trkpt lat="43.4721583" lon="11.2394"><ele>402.0</ele><time>2026-04-20T11:25:12.938Z</time></trkpt><trkpt lat="43.4721183" lon="11.2392367"><ele>402.0</ele><time>2026-04-20T11:25:14.938Z</time></trkpt><trkpt lat="43.4721117" lon="11.2391483"><ele>402.0</ele><time>2026-04-20T11:25:15.938Z</time></trkpt><trkpt lat="43.4721083" lon="11.2390533"><ele>402.0</ele><time>2026-04-20T11:25:16.938Z</time></trkpt><trkpt lat="43.4721133" lon="11.238965"><ele>402.0</ele><time>2026-04-20T11:25:17.938Z</time></trkpt><trkpt lat="43.4721333" lon="11.2387917"><ele>400.8</ele><time>2026-04-20T11:25:19.938Z</time></trkpt><trkpt lat="43.4721517" lon="11.2387033"><ele>399.6</ele><time>2026-04-20T11:25:20.938Z</time></trkpt><trkpt lat="43.4721917" lon="11.2385317"><ele>398.40000000000003</ele><time>2026-04-20T11:25:22.938Z</time></trkpt><trkpt lat="43.472205" lon="11.2384167"><ele>397.20000000000005</ele><time>2026-04-20T11:25:23.938Z</time></trkpt><trkpt lat="43.4722217" lon="11.2382967"><ele>396.0</ele><time>2026-04-20T11:25:24.938Z</time></trkpt><trkpt lat="43.4722367" lon="11.2381833"><ele>394.5</ele><time>2026-04-20T11:25:25.938Z</time></trkpt><trkpt lat="43.4722317" lon="11.2380567"><ele>393.0</ele><time>2026-04-20T11:25:26.938Z</time></trkpt><trkpt lat="43.47223" lon="11.2379533"><ele>391.5</ele><time>2026-04-20T11:25:27.938Z</time></trkpt><trkpt lat="43.4722167" lon="11.23786"><ele>390.0</ele><time>2026-04-20T11:25:28.938Z</time></trkpt><trkpt lat="43.4721983" lon="11.2377733"><ele>388.5</ele><time>2026-04-20T11:25:29.939Z</time></trkpt><trkpt lat="43.4721667" lon="11.2376183"><ele>387.0</ele><time>2026-04-20T11:25:31.938Z</time></trkpt><trkpt lat="43.4721383" lon="11.23753"><ele>387.0</ele><time>2026-04-20T11:25:32.938Z</time></trkpt><trkpt lat="43.47211" lon="11.2374433"><ele>387.0</ele><time>2026-04-20T11:25:33.938Z</time></trkpt><trkpt lat="43.47207" lon="11.2373433"><ele>387.0</ele><time>2026-04-20T11:25:34.938Z</time></trkpt><trkpt lat="43.4720333" lon="11.2372467"><ele>387.0</ele><time>2026-04-20T11:25:35.938Z</time></trkpt><trkpt lat="43.4719867" lon="11.2371517"><ele>387.0</ele><time>2026-04-20T11:25:36.938Z</time></trkpt><trkpt lat="43.4719467" lon="11.2370583"><ele>387.0</ele><time>2026-04-20T11:25:37.938Z</time></trkpt><trkpt lat="43.4719" lon="11.2369583"><ele>385.8333333333333</ele><time>2026-04-20T11:25:38.938Z</time></trkpt><trkpt lat="43.4718567" lon="11.2368567"><ele>384.6666666666667</ele><time>2026-04-20T11:25:39.939Z</time></trkpt><trkpt lat="43.4718083" lon="11.2367633"><ele>383.5</ele><time>2026-04-20T11:25:40.938Z</time></trkpt><trkpt lat="43.47176" lon="11.2366717"><ele>382.33333333333337</ele><time>2026-04-20T11:25:41.938Z</time></trkpt><trkpt lat="43.471705" lon="11.2365833"><ele>381.1666666666667</ele><time>2026-04-20T11:25:42.938Z</time></trkpt><trkpt lat="43.4716417" lon="11.2365067"><ele>380.0</ele><time>2026-04-20T11:25:43.938Z</time></trkpt><trkpt lat="43.4715717" lon="11.23643"><ele>379.0</ele><time>2026-04-20T11:25:44.938Z</time></trkpt><trkpt lat="43.4714867" lon="11.23636"><ele>378.0</ele><time>2026-04-20T11:25:45.938Z</time></trkpt><trkpt lat="43.4714083" lon="11.2362917"><ele>377.0</ele><time>2026-04-20T11:25:46.939Z</time></trkpt><trkpt lat="43.4713367" lon="11.236225"><ele>376.0</ele><time>2026-04-20T11:25:47.938Z</time></trkpt><trkpt lat="43.471265" lon="11.2361583"><ele>375.0</ele><time>2026-04-20T11:25:48.938Z</time></trkpt><trkpt lat="43.4711933" lon="11.236095"><ele>374.3333333333333</ele><time>2026-04-20T11:25:49.939Z</time></trkpt><trkpt lat="43.4711183" lon="11.236035"><ele>373.6666666666667</ele><time>2026-04-20T11:25:50.938Z</time></trkpt><trkpt lat="43.4710383" lon="11.23597"><ele>373.0</ele><time>2026-04-20T11:25:51.939Z</time></trkpt><trkpt lat="43.4709617" lon="11.2359067"><ele>372.33333333333337</ele><time>2026-04-20T11:25:52.938Z</time></trkpt><trkpt lat="43.4708933" lon="11.23584"><ele>371.6666666666667</ele><time>2026-04-20T11:25:53.938Z</time></trkpt><trkpt lat="43.4708267" lon="11.2357733"><ele>371.0</ele><time>2026-04-20T11:25:54.938Z</time></trkpt><trkpt lat="43.4707633" lon="11.23571"><ele>371.0</ele><time>2026-04-20T11:25:55.938Z</time></trkpt><trkpt lat="43.4707017" lon="11.2356417"><ele>371.0</ele><time>2026-04-20T11:25:56.938Z</time></trkpt><trkpt lat="43.4706467" lon="11.23556"><ele>371.0</ele><time>2026-04-20T11:25:57.938Z</time></trkpt><trkpt lat="43.4706017" lon="11.2354783"><ele>371.0</ele><time>2026-04-20T11:25:58.938Z</time></trkpt><trkpt lat="43.4705667" lon="11.23539"><ele>371.0</ele><time>2026-04-20T11:25:59.938Z</time></trkpt><trkpt lat="43.470545" lon="11.2353067"><ele>371.0</ele><time>2026-04-20T11:26:00.938Z</time></trkpt><trkpt lat="43.47053" lon="11.2352183"><ele>371.0</ele><time>2026-04-20T11:26:01.938Z</time></trkpt><trkpt lat="43.47053" lon="11.2351283"><ele>370.6</ele><time>2026-04-20T11:26:02.938Z</time></trkpt><trkpt lat="43.4705467" lon="11.2350317"><ele>370.20000000000005</ele><time>2026-04-20T11:26:03.939Z</time></trkpt><trkpt lat="43.47057" lon="11.23493"><ele>369.79999999999995</ele><time>2026-04-20T11:26:04.938Z</time></trkpt><trkpt lat="43.470605" lon="11.234775"><ele>369.4</ele><time>2026-04-20T11:26:06.938Z</time></trkpt><trkpt lat="43.4706167" lon="11.234625"><ele>369.0</ele><time>2026-04-20T11:26:08.938Z</time></trkpt><trkpt lat="43.4706417" lon="11.23447"><ele>368.0</ele><time>2026-04-20T11:26:10.938Z</time></trkpt><trkpt lat="43.470655" lon="11.234385"><ele>367.0</ele><time>2026-04-20T11:26:11.938Z</time></trkpt><trkpt lat="43.4706667" lon="11.2342933"><ele>366.0</ele><time>2026-04-20T11:26:12.938Z</time></trkpt><trkpt lat="43.4706867" lon="11.23421"><ele>365.0</ele><time>2026-04-20T11:26:13.938Z</time></trkpt><trkpt lat="43.4707067" lon="11.2341017"><ele>364.0</ele><time>2026-04-20T11:26:14.938Z</time></trkpt><trkpt lat="43.4707217" lon="11.2339867"><ele>363.0</ele><time>2026-04-20T11:26:15.938Z</time></trkpt><trkpt lat="43.4707283" lon="11.233865"><ele>362.0</ele><time>2026-04-20T11:26:16.938Z</time></trkpt><trkpt lat="43.4707333" lon="11.2337417"><ele>359.5</ele><time>2026-04-20T11:26:17.938Z</time></trkpt><trkpt lat="43.4707367" lon="11.2336283"><ele>357.0</ele><time>2026-04-20T11:26:18.938Z</time></trkpt><trkpt lat="43.4707283" lon="11.2335117"><ele>354.5</ele><time>2026-04-20T11:26:19.938Z</time></trkpt><trkpt lat="43.4707117" lon="11.2334133"><ele>352.0</ele><time>2026-04-20T11:26:20.939Z</time></trkpt><trkpt lat="43.4706983" lon="11.2333283"><ele>349.5</ele><time>2026-04-20T11:26:21.938Z</time></trkpt><trkpt lat="43.4706583" lon="11.233175"><ele>347.0</ele><time>2026-04-20T11:26:23.938Z</time></trkpt><trkpt lat="43.4706333" lon="11.233085"><ele>344.40000000000003</ele><time>2026-04-20T11:26:24.938Z</time></trkpt><trkpt lat="43.4706083" lon="11.233005"><ele>341.8</ele><time>2026-04-20T11:26:25.938Z</time></trkpt><trkpt lat="43.4705533" lon="11.23287"><ele>339.2</ele><time>2026-04-20T11:26:27.939Z</time></trkpt><trkpt lat="43.4705" lon="11.232735"><ele>336.6</ele><time>2026-04-20T11:26:29.938Z</time></trkpt><trkpt lat="43.4704367" lon="11.2326067"><ele>334.0</ele><time>2026-04-20T11:26:31.938Z</time></trkpt><trkpt lat="43.47039" lon="11.23254"><ele>334.0</ele><time>2026-04-20T11:26:32.938Z</time></trkpt><trkpt lat="43.4703317" lon="11.2324817"><ele>334.0</ele><time>2026-04-20T11:26:33.938Z</time></trkpt><trkpt lat="43.4702733" lon="11.2324183"><ele>334.0</ele><time>2026-04-20T11:26:34.938Z</time></trkpt><trkpt lat="43.4702133" lon="11.23235"><ele>334.0</ele><time>2026-04-20T11:26:35.938Z</time></trkpt><trkpt lat="43.470155" lon="11.2322983"><ele>334.0</ele><time>2026-04-20T11:26:36.938Z</time></trkpt><trkpt lat="43.4700833" lon="11.2322333"><ele>334.0</ele><time>2026-04-20T11:26:37.938Z</time></trkpt><trkpt lat="43.4700017" lon="11.2321783"><ele>330.8333333333333</ele><time>2026-04-20T11:26:38.938Z</time></trkpt><trkpt lat="43.4699233" lon="11.2321233"><ele>327.66666666666663</ele><time>2026-04-20T11:26:39.938Z</time></trkpt><trkpt lat="43.4698483" lon="11.2320733"><ele>324.5</ele><time>2026-04-20T11:26:40.938Z</time></trkpt><trkpt lat="43.4697767" lon="11.2320317"><ele>321.3333333333333</ele><time>2026-04-20T11:26:41.939Z</time></trkpt><trkpt lat="43.4696967" lon="11.2319867"><ele>318.1666666666667</ele><time>2026-04-20T11:26:42.939Z</time></trkpt><trkpt lat="43.4696133" lon="11.2319433"><ele>315.0</ele><time>2026-04-20T11:26:43.938Z</time></trkpt><trkpt lat="43.4695417" lon="11.231895"><ele>315.0</ele><time>2026-04-20T11:26:44.939Z</time></trkpt><trkpt lat="43.4694817" lon="11.231855"><ele>315.0</ele><time>2026-04-20T11:26:45.938Z</time></trkpt><trkpt lat="43.4694233" lon="11.2318083"><ele>315.0</ele><time>2026-04-20T11:26:46.938Z</time></trkpt><trkpt lat="43.46936" lon="11.2317517"><ele>315.0</ele><time>2026-04-20T11:26:47.938Z</time></trkpt><trkpt lat="43.4693033" lon="11.2316933"><ele>315.0</ele><time>2026-04-20T11:26:48.939Z</time></trkpt><trkpt lat="43.4692417" lon="11.2316467"><ele>315.0</ele><time>2026-04-20T11:26:49.938Z</time></trkpt><trkpt lat="43.4691367" lon="11.2315617"><ele>315.0</ele><time>2026-04-20T11:26:51.938Z</time></trkpt><trkpt lat="43.4690783" lon="11.2315267"><ele>315.0</ele><time>2026-04-20T11:26:52.938Z</time></trkpt><trkpt lat="43.468965" lon="11.2314833"><ele>315.0</ele><time>2026-04-20T11:26:54.939Z</time></trkpt><trkpt lat="43.4688583" lon="11.2314267"><ele>315.0</ele><time>2026-04-20T11:26:56.938Z</time></trkpt><trkpt lat="43.4687467" lon="11.2313417"><ele>315.0</ele><time>2026-04-20T11:26:58.938Z</time></trkpt><trkpt lat="43.46869" lon="11.2313"><ele>311.3333333333333</ele><time>2026-04-20T11:26:59.938Z</time></trkpt><trkpt lat="43.468575" lon="11.231235"><ele>307.6666666666667</ele><time>2026-04-20T11:27:01.939Z</time></trkpt><trkpt lat="43.4684733" lon="11.2311883"><ele>304.0</ele><time>2026-04-20T11:27:03.938Z</time></trkpt><trkpt lat="43.468405" lon="11.23116"><ele>300.33333333333337</ele><time>2026-04-20T11:27:05.939Z</time></trkpt><trkpt lat="43.4683483" lon="11.2311133"><ele>296.6666666666667</ele><time>2026-04-20T11:27:07.938Z</time></trkpt><trkpt lat="43.4683267" lon="11.2310233"><ele>293.0</ele><time>2026-04-20T11:27:09.939Z</time></trkpt><trkpt lat="43.46834" lon="11.2308567"><ele>293.0</ele><time>2026-04-20T11:27:11.938Z</time></trkpt><trkpt lat="43.4683533" lon="11.230755"><ele>293.0</ele><time>2026-04-20T11:27:12.938Z</time></trkpt><trkpt lat="43.46836" lon="11.230665"><ele>293.0</ele><time>2026-04-20T11:27:13.939Z</time></trkpt><trkpt lat="43.468375" lon="11.2305767"><ele>293.0</ele><time>2026-04-20T11:27:14.938Z</time></trkpt><trkpt lat="43.4684417" lon="11.230415"><ele>293.0</ele><time>2026-04-20T11:27:16.938Z</time></trkpt><trkpt lat="43.468475" lon="11.2303233"><ele>293.0</ele><time>2026-04-20T11:27:17.938Z</time></trkpt><trkpt lat="43.4684967" lon="11.2302367"><ele>290.83333333333337</ele><time>2026-04-20T11:27:18.938Z</time></trkpt><trkpt lat="43.46851" lon="11.2301467"><ele>288.6666666666667</ele><time>2026-04-20T11:27:19.939Z</time></trkpt><trkpt lat="43.4685033" lon="11.2300117"><ele>286.5</ele><time>2026-04-20T11:27:21.938Z</time></trkpt><trkpt lat="43.4684217" lon="11.2298733"><ele>284.3333333333333</ele><time>2026-04-20T11:27:23.938Z</time></trkpt><trkpt lat="43.468365" lon="11.2298117"><ele>282.16666666666663</ele><time>2026-04-20T11:27:24.938Z</time></trkpt><trkpt lat="43.4683083" lon="11.2297383"><ele>280.0</ele><time>2026-04-20T11:27:25.938Z</time></trkpt><trkpt lat="43.4682633" lon="11.2296483"><ele>278.66666666666663</ele><time>2026-04-20T11:27:26.939Z</time></trkpt><trkpt lat="43.4682367" lon="11.2295483"><ele>277.3333333333333</ele><time>2026-04-20T11:27:27.938Z</time></trkpt><trkpt lat="43.468215" lon="11.2294283"><ele>276.0</ele><time>2026-04-20T11:27:28.938Z</time></trkpt><trkpt lat="43.46819" lon="11.22931"><ele>274.6666666666667</ele><time>2026-04-20T11:27:29.938Z</time></trkpt><trkpt lat="43.4681783" lon="11.2291933"><ele>273.33333333333337</ele><time>2026-04-20T11:27:30.938Z</time></trkpt><trkpt lat="43.468165" lon="11.2290767"><ele>272.0</ele><time>2026-04-20T11:27:31.938Z</time></trkpt><trkpt lat="43.4681567" lon="11.228955"><ele>270.6666666666667</ele><time>2026-04-20T11:27:32.937Z</time></trkpt><trkpt lat="43.4681633" lon="11.22884"><ele>269.33333333333337</ele><time>2026-04-20T11:27:33.937Z</time></trkpt><trkpt lat="43.4681783" lon="11.2287317"><ele>268.0</ele><time>2026-04-20T11:27:34.938Z</time></trkpt><trkpt lat="43.4681933" lon="11.2286183"><ele>266.6666666666667</ele><time>2026-04-20T11:27:35.937Z</time></trkpt><trkpt lat="43.4681983" lon="11.2285033"><ele>265.3333333333333</ele><time>2026-04-20T11:27:36.937Z</time></trkpt><trkpt lat="43.4681867" lon="11.2283817"><ele>264.0</ele><time>2026-04-20T11:27:37.938Z</time></trkpt><trkpt lat="43.4681683" lon="11.22826"><ele>264.0</ele><time>2026-04-20T11:27:38.937Z</time></trkpt><trkpt lat="43.468135" lon="11.2281533"><ele>264.0</ele><time>2026-04-20T11:27:39.937Z</time></trkpt><trkpt lat="43.46809" lon="11.2280583"><ele>264.0</ele><time>2026-04-20T11:27:40.938Z</time></trkpt><trkpt lat="43.468035" lon="11.2279783"><ele>264.0</ele><time>2026-04-20T11:27:41.938Z</time></trkpt><trkpt lat="43.4679633" lon="11.2279167"><ele>264.0</ele><time>2026-04-20T11:27:42.937Z</time></trkpt><trkpt lat="43.4678867" lon="11.2278667"><ele>264.0</ele><time>2026-04-20T11:27:43.937Z</time></trkpt><trkpt lat="43.4678033" lon="11.2278017"><ele>262.4</ele><time>2026-04-20T11:27:44.938Z</time></trkpt><trkpt lat="43.46771" lon="11.2277283"><ele>260.79999999999995</ele><time>2026-04-20T11:27:45.937Z</time></trkpt><trkpt lat="43.4676133" lon="11.227655"><ele>259.20000000000005</ele><time>2026-04-20T11:27:46.937Z</time></trkpt><trkpt lat="43.46752" lon="11.22759"><ele>257.6</ele><time>2026-04-20T11:27:47.937Z</time></trkpt><trkpt lat="43.4674317" lon="11.2275283"><ele>256.0</ele><time>2026-04-20T11:27:48.937Z</time></trkpt><trkpt lat="43.4673467" lon="11.2274683"><ele>255.99999999999997</ele><time>2026-04-20T11:27:49.937Z</time></trkpt><trkpt lat="43.4672717" lon="11.2274133"><ele>256.0</ele><time>2026-04-20T11:27:50.937Z</time></trkpt><trkpt lat="43.4672067" lon="11.2273583"><ele>256.0</ele><time>2026-04-20T11:27:51.937Z</time></trkpt><trkpt lat="43.4671467" lon="11.2273033"><ele>256.0</ele><time>2026-04-20T11:27:52.937Z</time></trkpt><trkpt lat="43.4670867" lon="11.22725"><ele>255.99999999999997</ele><time>2026-04-20T11:27:53.937Z</time></trkpt><trkpt lat="43.4669817" lon="11.2271683"><ele>256.0</ele><time>2026-04-20T11:27:55.937Z</time></trkpt><trkpt lat="43.4668867" lon="11.2271267"><ele>256.2</ele><time>2026-04-20T11:27:57.937Z</time></trkpt><trkpt lat="43.4667967" lon="11.2271733"><ele>256.40000000000003</ele><time>2026-04-20T11:27:59.938Z</time></trkpt><trkpt lat="43.466705" lon="11.22724"><ele>256.6</ele><time>2026-04-20T11:28:01.937Z</time></trkpt><trkpt lat="43.4666183" lon="11.227305"><ele>256.8</ele><time>2026-04-20T11:28:03.937Z</time></trkpt><trkpt lat="43.4665167" lon="11.22737"><ele>257.0</ele><time>2026-04-20T11:28:05.938Z</time></trkpt><trkpt lat="43.4664167" lon="11.22745"><ele>256.5</ele><time>2026-04-20T11:28:07.938Z</time></trkpt><trkpt lat="43.466365" lon="11.2275017"><ele>256.0</ele><time>2026-04-20T11:28:08.937Z</time></trkpt><trkpt lat="43.4663183" lon="11.2275683"><ele>255.5</ele><time>2026-04-20T11:28:09.937Z</time></trkpt><trkpt lat="43.4662717" lon="11.227645"><ele>255.0</ele><time>2026-04-20T11:28:10.937Z</time></trkpt><trkpt lat="43.4662383" lon="11.22772"><ele>254.50000000000003</ele><time>2026-04-20T11:28:11.938Z</time></trkpt><trkpt lat="43.4662017" lon="11.2277983"><ele>254.0</ele><time>2026-04-20T11:28:12.937Z</time></trkpt><trkpt lat="43.4661317" lon="11.2279383"><ele>252.0</ele><time>2026-04-20T11:28:14.937Z</time></trkpt><trkpt lat="43.466045" lon="11.2280233"><ele>249.99999999999997</ele><time>2026-04-20T11:28:16.937Z</time></trkpt><trkpt lat="43.4659167" lon="11.2280283"><ele>247.99999999999997</ele><time>2026-04-20T11:28:18.937Z</time></trkpt><trkpt lat="43.4658483" lon="11.2280117"><ele>246.0</ele><time>2026-04-20T11:28:19.937Z</time></trkpt><trkpt lat="43.4657733" lon="11.228"><ele>244.0</ele><time>2026-04-20T11:28:20.937Z</time></trkpt><trkpt lat="43.4657" lon="11.2279783"><ele>244.0</ele><time>2026-04-20T11:28:21.937Z</time></trkpt><trkpt lat="43.4656183" lon="11.22796"><ele>243.99999999999997</ele><time>2026-04-20T11:28:22.938Z</time></trkpt><trkpt lat="43.465515" lon="11.2279383"><ele>243.99999999999997</ele><time>2026-04-20T11:28:23.937Z</time></trkpt><trkpt lat="43.4654033" lon="11.2279083"><ele>244.0</ele><time>2026-04-20T11:28:24.937Z</time></trkpt><trkpt lat="43.4652933" lon="11.2278833"><ele>244.0</ele><time>2026-04-20T11:28:25.937Z</time></trkpt><trkpt lat="43.465185" lon="11.2278583"><ele>242.2</ele><time>2026-04-20T11:28:26.937Z</time></trkpt><trkpt lat="43.4650767" lon="11.227835"><ele>240.39999999999998</ele><time>2026-04-20T11:28:27.937Z</time></trkpt><trkpt lat="43.4649783" lon="11.22781"><ele>238.6</ele><time>2026-04-20T11:28:28.938Z</time></trkpt><trkpt lat="43.4648783" lon="11.22779"><ele>236.8</ele><time>2026-04-20T11:28:29.938Z</time></trkpt><trkpt lat="43.4647783" lon="11.2277717"><ele>235.0</ele><time>2026-04-20T11:28:30.938Z</time></trkpt><trkpt lat="43.4646783" lon="11.2277483"><ele>233.2</ele><time>2026-04-20T11:28:31.938Z</time></trkpt><trkpt lat="43.4645767" lon="11.2277267"><ele>231.4</ele><time>2026-04-20T11:28:32.937Z</time></trkpt><trkpt lat="43.4644767" lon="11.227705"><ele>229.60000000000002</ele><time>2026-04-20T11:28:33.937Z</time></trkpt><trkpt lat="43.4643733" lon="11.2276817"><ele>227.8</ele><time>2026-04-20T11:28:34.937Z</time></trkpt><trkpt lat="43.4642683" lon="11.2276583"><ele>226.0</ele><time>2026-04-20T11:28:35.938Z</time></trkpt><trkpt lat="43.4641717" lon="11.2276367"><ele>226.0</ele><time>2026-04-20T11:28:36.937Z</time></trkpt><trkpt lat="43.4640767" lon="11.2276183"><ele>226.00000000000003</ele><time>2026-04-20T11:28:37.937Z</time></trkpt><trkpt lat="43.46398" lon="11.2276117"><ele>226.00000000000003</ele><time>2026-04-20T11:28:38.937Z</time></trkpt><trkpt lat="43.46389" lon="11.2276167"><ele>226.0</ele><time>2026-04-20T11:28:39.937Z</time></trkpt><trkpt lat="43.4637917" lon="11.2276283"><ele>226.0</ele><time>2026-04-20T11:28:40.938Z</time></trkpt><trkpt lat="43.4637017" lon="11.2276367"><ele>225.83333333333331</ele><time>2026-04-20T11:28:41.938Z</time></trkpt><trkpt lat="43.46362" lon="11.2276417"><ele>225.66666666666666</ele><time>2026-04-20T11:28:42.937Z</time></trkpt><trkpt lat="43.46355" lon="11.2276367"><ele>225.5</ele><time>2026-04-20T11:28:43.938Z</time></trkpt><trkpt lat="43.4634567" lon="11.2275967"><ele>225.33333333333331</ele><time>2026-04-20T11:28:45.937Z</time></trkpt><trkpt lat="43.4634167" lon="11.2274833"><ele>225.16666666666666</ele><time>2026-04-20T11:28:47.938Z</time></trkpt><trkpt lat="43.463385" lon="11.2273417"><ele>225.0</ele><time>2026-04-20T11:28:49.937Z</time></trkpt><trkpt lat="43.4633" lon="11.2272883"><ele>225.0</ele><time>2026-04-20T11:28:51.937Z</time></trkpt><trkpt lat="43.4631717" lon="11.227315"><ele>225.0</ele><time>2026-04-20T11:28:53.938Z</time></trkpt><trkpt lat="43.4630817" lon="11.2273433"><ele>225.0</ele><time>2026-04-20T11:28:54.937Z</time></trkpt><trkpt lat="43.46299" lon="11.2273567"><ele>225.0</ele><time>2026-04-20T11:28:55.937Z</time></trkpt><trkpt lat="43.4628933" lon="11.2273633"><ele>225.0</ele><time>2026-04-20T11:28:56.938Z</time></trkpt><trkpt lat="43.462805" lon="11.22736"><ele>225.4</ele><time>2026-04-20T11:28:57.937Z</time></trkpt><trkpt lat="43.4627317" lon="11.227345"><ele>225.8</ele><time>2026-04-20T11:28:58.938Z</time></trkpt><trkpt lat="43.4626433" lon="11.227295"><ele>226.2</ele><time>2026-04-20T11:29:00.937Z</time></trkpt><trkpt lat="43.4625533" lon="11.2272633"><ele>226.6</ele><time>2026-04-20T11:29:02.937Z</time></trkpt><trkpt lat="43.4624467" lon="11.2273233"><ele>227.0</ele><time>2026-04-20T11:29:04.937Z</time></trkpt><trkpt lat="43.4623517" lon="11.2274267"><ele>228.00000000000003</ele><time>2026-04-20T11:29:06.937Z</time></trkpt><trkpt lat="43.4622833" lon="11.227475"><ele>229.0</ele><time>2026-04-20T11:29:07.937Z</time></trkpt><trkpt lat="43.4622117" lon="11.22751"><ele>230.0</ele><time>2026-04-20T11:29:08.938Z</time></trkpt><trkpt lat="43.462125" lon="11.2275317"><ele>231.0</ele><time>2026-04-20T11:29:09.937Z</time></trkpt><trkpt lat="43.4620317" lon="11.2275233"><ele>232.00000000000003</ele><time>2026-04-20T11:29:10.937Z</time></trkpt><trkpt lat="43.4619367" lon="11.2275083"><ele>233.0</ele><time>2026-04-20T11:29:11.937Z</time></trkpt><trkpt lat="43.46184" lon="11.2274917"><ele>234.2</ele><time>2026-04-20T11:29:12.937Z</time></trkpt><trkpt lat="43.4617417" lon="11.22746"><ele>235.4</ele><time>2026-04-20T11:29:13.937Z</time></trkpt><trkpt lat="43.461655" lon="11.2274233"><ele>236.59999999999997</ele><time>2026-04-20T11:29:14.937Z</time></trkpt><trkpt lat="43.4615667" lon="11.2273767"><ele>237.79999999999998</ele><time>2026-04-20T11:29:15.937Z</time></trkpt><trkpt lat="43.46147" lon="11.2273133"><ele>239.0</ele><time>2026-04-20T11:29:16.937Z</time></trkpt><trkpt lat="43.4613733" lon="11.2272533"><ele>241.39999999999998</ele><time>2026-04-20T11:29:17.937Z</time></trkpt><trkpt lat="43.4612783" lon="11.227195"><ele>243.79999999999998</ele><time>2026-04-20T11:29:18.937Z</time></trkpt><trkpt lat="43.4611833" lon="11.2271267"><ele>246.20000000000002</ele><time>2026-04-20T11:29:19.938Z</time></trkpt><trkpt lat="43.4610817" lon="11.2270483"><ele>248.60000000000002</ele><time>2026-04-20T11:29:20.937Z</time></trkpt><trkpt lat="43.460985" lon="11.22697"><ele>251.0</ele><time>2026-04-20T11:29:21.937Z</time></trkpt><trkpt lat="43.4608967" lon="11.2268867"><ele>251.0</ele><time>2026-04-20T11:29:22.937Z</time></trkpt><trkpt lat="43.4608067" lon="11.2268017"><ele>251.00000000000003</ele><time>2026-04-20T11:29:23.937Z</time></trkpt><trkpt lat="43.4607167" lon="11.2267267"><ele>251.00000000000003</ele><time>2026-04-20T11:29:24.937Z</time></trkpt><trkpt lat="43.4606317" lon="11.22667"><ele>251.0</ele><time>2026-04-20T11:29:25.937Z</time></trkpt><trkpt lat="43.460545" lon="11.2266333"><ele>251.0</ele><time>2026-04-20T11:29:26.937Z</time></trkpt><trkpt lat="43.4604683" lon="11.226635"><ele>256.0</ele><time>2026-04-20T11:29:27.937Z</time></trkpt><trkpt lat="43.4604" lon="11.2266533"><ele>261.0</ele><time>2026-04-20T11:29:28.937Z</time></trkpt><trkpt lat="43.460305" lon="11.226755"><ele>266.0</ele><time>2026-04-20T11:29:30.938Z</time></trkpt><trkpt lat="43.4602717" lon="11.2269167"><ele>271.0</ele><time>2026-04-20T11:29:32.937Z</time></trkpt><trkpt lat="43.4602517" lon="11.227005"><ele>276.0</ele><time>2026-04-20T11:29:33.938Z</time></trkpt><trkpt lat="43.4602367" lon="11.227105"><ele>276.0</ele><time>2026-04-20T11:29:34.938Z</time></trkpt><trkpt lat="43.4602167" lon="11.2272117"><ele>276.0</ele><time>2026-04-20T11:29:35.938Z</time></trkpt><trkpt lat="43.4601917" lon="11.227325"><ele>276.0</ele><time>2026-04-20T11:29:36.938Z</time></trkpt><trkpt lat="43.460165" lon="11.227445"><ele>276.0</ele><time>2026-04-20T11:29:37.937Z</time></trkpt><trkpt lat="43.4601417" lon="11.22755"><ele>276.0</ele><time>2026-04-20T11:29:38.937Z</time></trkpt><trkpt lat="43.4601267" lon="11.2276517"><ele>276.0</ele><time>2026-04-20T11:29:39.937Z</time></trkpt><trkpt lat="43.4601133" lon="11.2277433"><ele>275.8</ele><time>2026-04-20T11:29:40.938Z</time></trkpt><trkpt lat="43.4600933" lon="11.2278333"><ele>275.6</ele><time>2026-04-20T11:29:41.937Z</time></trkpt><trkpt lat="43.4600617" lon="11.227975"><ele>275.4</ele><time>2026-04-20T11:29:43.937Z</time></trkpt><trkpt lat="43.4600333" lon="11.2281"><ele>275.2</ele><time>2026-04-20T11:29:45.937Z</time></trkpt><trkpt lat="43.460015" lon="11.2282567"><ele>275.0</ele><time>2026-04-20T11:29:47.937Z</time></trkpt><trkpt lat="43.460015" lon="11.2283667"><ele>274.2</ele><time>2026-04-20T11:29:48.937Z</time></trkpt><trkpt lat="43.460025" lon="11.2285017"><ele>273.4</ele><time>2026-04-20T11:29:49.937Z</time></trkpt><trkpt lat="43.4600483" lon="11.22865"><ele>272.6</ele><time>2026-04-20T11:29:50.938Z</time></trkpt><trkpt lat="43.46007" lon="11.2288033"><ele>271.8</ele><time>2026-04-20T11:29:51.937Z</time></trkpt><trkpt lat="43.4600917" lon="11.22897"><ele>271.0</ele><time>2026-04-20T11:29:52.937Z</time></trkpt><trkpt lat="43.4601183" lon="11.2291433"><ele>270.75</ele><time>2026-04-20T11:29:53.937Z</time></trkpt><trkpt lat="43.4601467" lon="11.22931"><ele>270.5</ele><time>2026-04-20T11:29:54.937Z</time></trkpt><trkpt lat="43.4601817" lon="11.2294633"><ele>270.25</ele><time>2026-04-20T11:29:55.937Z</time></trkpt><trkpt lat="43.46022" lon="11.22961"><ele>270.0</ele><time>2026-04-20T11:29:56.937Z</time></trkpt><trkpt lat="43.460255" lon="11.2297567"><ele>270.2</ele><time>2026-04-20T11:29:57.937Z</time></trkpt><trkpt lat="43.4603" lon="11.2299"><ele>270.4</ele><time>2026-04-20T11:29:58.938Z</time></trkpt><trkpt lat="43.460335" lon="11.2300383"><ele>270.6</ele><time>2026-04-20T11:29:59.937Z</time></trkpt><trkpt lat="43.4603667" lon="11.2301667"><ele>270.8</ele><time>2026-04-20T11:30:00.937Z</time></trkpt><trkpt lat="43.460405" lon="11.23028"><ele>271.0</ele><time>2026-04-20T11:30:01.937Z</time></trkpt><trkpt lat="43.4604383" lon="11.2303867"><ele>271.3333333333333</ele><time>2026-04-20T11:30:02.937Z</time></trkpt><trkpt lat="43.46046" lon="11.2304833"><ele>271.66666666666663</ele><time>2026-04-20T11:30:03.937Z</time></trkpt><trkpt lat="43.46048" lon="11.23064"><ele>272.0</ele><time>2026-04-20T11:30:05.937Z</time></trkpt><trkpt lat="43.4604433" lon="11.2307417"><ele>272.3333333333333</ele><time>2026-04-20T11:30:07.937Z</time></trkpt><trkpt lat="43.4603817" lon="11.2307883"><ele>272.6666666666667</ele><time>2026-04-20T11:30:08.937Z</time></trkpt><trkpt lat="43.4602883" lon="11.2308283"><ele>273.0</ele><time>2026-04-20T11:30:09.937Z</time></trkpt><trkpt lat="43.46019" lon="11.2308817"><ele>273.0</ele><time>2026-04-20T11:30:10.938Z</time></trkpt><trkpt lat="43.4600817" lon="11.2309333"><ele>273.0</ele><time>2026-04-20T11:30:11.937Z</time></trkpt><trkpt lat="43.4599683" lon="11.2309867"><ele>273.0</ele><time>2026-04-20T11:30:12.937Z</time></trkpt><trkpt lat="43.4598533" lon="11.2310417"><ele>273.0</ele><time>2026-04-20T11:30:13.937Z</time></trkpt><trkpt lat="43.4597417" lon="11.2310883"><ele>273.0</ele><time>2026-04-20T11:30:14.937Z</time></trkpt><trkpt lat="43.4596333" lon="11.2311417"><ele>273.0</ele><time>2026-04-20T11:30:15.938Z</time></trkpt><trkpt lat="43.45953" lon="11.2311917"><ele>273.0</ele><time>2026-04-20T11:30:16.937Z</time></trkpt><trkpt lat="43.4594317" lon="11.2312433"><ele>273.0</ele><time>2026-04-20T11:30:17.937Z</time></trkpt><trkpt lat="43.4593317" lon="11.2313"><ele>273.0</ele><time>2026-04-20T11:30:18.937Z</time></trkpt><trkpt lat="43.4592283" lon="11.2313517"><ele>273.5</ele><time>2026-04-20T11:30:19.937Z</time></trkpt><trkpt lat="43.4591233" lon="11.23141"><ele>274.0</ele><time>2026-04-20T11:30:20.937Z</time></trkpt><trkpt lat="43.45902" lon="11.2314683"><ele>274.5</ele><time>2026-04-20T11:30:21.937Z</time></trkpt><trkpt lat="43.4589167" lon="11.231525"><ele>275.0</ele><time>2026-04-20T11:30:22.938Z</time></trkpt><trkpt lat="43.4588083" lon="11.23158"><ele>277.6</ele><time>2026-04-20T11:30:23.937Z</time></trkpt><trkpt lat="43.4587083" lon="11.231635"><ele>280.2</ele><time>2026-04-20T11:30:24.937Z</time></trkpt><trkpt lat="43.4586167" lon="11.23169"><ele>282.8</ele><time>2026-04-20T11:30:25.937Z</time></trkpt><trkpt lat="43.4585317" lon="11.2317317"><ele>285.4</ele><time>2026-04-20T11:30:26.938Z</time></trkpt><trkpt lat="43.4584483" lon="11.23176"><ele>288.0</ele><time>2026-04-20T11:30:27.937Z</time></trkpt><trkpt lat="43.4583767" lon="11.2317633"><ele>288.0</ele><time>2026-04-20T11:30:28.937Z</time></trkpt><trkpt lat="43.4583" lon="11.2317517"><ele>288.0</ele><time>2026-04-20T11:30:29.937Z</time></trkpt><trkpt lat="43.4582217" lon="11.2317233"><ele>288.0</ele><time>2026-04-20T11:30:30.937Z</time></trkpt><trkpt lat="43.4581583" lon="11.2316917"><ele>288.0</ele><time>2026-04-20T11:30:31.937Z</time></trkpt><trkpt lat="43.4580933" lon="11.2316517"><ele>288.0</ele><time>2026-04-20T11:30:32.937Z</time></trkpt><trkpt lat="43.4580267" lon="11.2315833"><ele>288.0</ele><time>2026-04-20T11:30:33.937Z</time></trkpt><trkpt lat="43.4579533" lon="11.2314967"><ele>289.0</ele><time>2026-04-20T11:30:34.937Z</time></trkpt><trkpt lat="43.45788" lon="11.2314083"><ele>290.0</ele><time>2026-04-20T11:30:35.937Z</time></trkpt><trkpt lat="43.4578067" lon="11.23132"><ele>291.0</ele><time>2026-04-20T11:30:36.937Z</time></trkpt><trkpt lat="43.4577333" lon="11.23123"><ele>292.0</ele><time>2026-04-20T11:30:37.937Z</time></trkpt><trkpt lat="43.4576483" lon="11.2311367"><ele>293.0</ele><time>2026-04-20T11:30:38.937Z</time></trkpt><trkpt lat="43.45756" lon="11.2310383"><ele>293.0</ele><time>2026-04-20T11:30:39.938Z</time></trkpt><trkpt lat="43.45748" lon="11.2309417"><ele>293.0</ele><time>2026-04-20T11:30:40.937Z</time></trkpt><trkpt lat="43.457395" lon="11.230855"><ele>293.0</ele><time>2026-04-20T11:30:41.937Z</time></trkpt><trkpt lat="43.4573183" lon="11.2307733"><ele>293.0</ele><time>2026-04-20T11:30:42.938Z</time></trkpt><trkpt lat="43.457255" lon="11.23069"><ele>293.0</ele><time>2026-04-20T11:30:43.938Z</time></trkpt><trkpt lat="43.4572083" lon="11.2306167"><ele>293.33333333333337</ele><time>2026-04-20T11:30:44.937Z</time></trkpt><trkpt lat="43.4571667" lon="11.2305467"><ele>293.6666666666667</ele><time>2026-04-20T11:30:45.937Z</time></trkpt><trkpt lat="43.45712" lon="11.2304183"><ele>294.0</ele><time>2026-04-20T11:30:47.937Z</time></trkpt><trkpt lat="43.4570633" lon="11.23028"><ele>294.3333333333333</ele><time>2026-04-20T11:30:49.937Z</time></trkpt><trkpt lat="43.45703" lon="11.2301983"><ele>294.66666666666663</ele><time>2026-04-20T11:30:50.937Z</time></trkpt><trkpt lat="43.4569983" lon="11.2301117"><ele>295.0</ele><time>2026-04-20T11:30:51.937Z</time></trkpt><trkpt lat="43.4569683" lon="11.2300217"><ele>295.0</ele><time>2026-04-20T11:30:52.937Z</time></trkpt><trkpt lat="43.45693" lon="11.2299383"><ele>295.0</ele><time>2026-04-20T11:30:53.937Z</time></trkpt><trkpt lat="43.4568983" lon="11.2298467"><ele>295.0</ele><time>2026-04-20T11:30:54.937Z</time></trkpt><trkpt lat="43.4568683" lon="11.2297517"><ele>295.0</ele><time>2026-04-20T11:30:55.938Z</time></trkpt><trkpt lat="43.4568367" lon="11.2296517"><ele>295.0</ele><time>2026-04-20T11:30:56.937Z</time></trkpt><trkpt lat="43.456805" lon="11.2295467"><ele>295.0</ele><time>2026-04-20T11:30:57.937Z</time></trkpt><trkpt lat="43.45677" lon="11.2294517"><ele>294.2</ele><time>2026-04-20T11:30:58.937Z</time></trkpt><trkpt lat="43.4567383" lon="11.2293633"><ele>293.4</ele><time>2026-04-20T11:30:59.937Z</time></trkpt><trkpt lat="43.4567117" lon="11.2292833"><ele>292.6</ele><time>2026-04-20T11:31:00.938Z</time></trkpt><trkpt lat="43.45665" lon="11.2291583"><ele>291.8</ele><time>2026-04-20T11:31:02.937Z</time></trkpt><trkpt lat="43.45656" lon="11.229035"><ele>291.0</ele><time>2026-04-20T11:31:04.937Z</time></trkpt><trkpt lat="43.4564983" lon="11.228965"><ele>290.0</ele><time>2026-04-20T11:31:05.937Z</time></trkpt><trkpt lat="43.4564333" lon="11.2288817"><ele>289.0</ele><time>2026-04-20T11:31:06.938Z</time></trkpt><trkpt lat="43.4563667" lon="11.2287833"><ele>288.0</ele><time>2026-04-20T11:31:07.937Z</time></trkpt><trkpt lat="43.4562933" lon="11.2286783"><ele>287.0</ele><time>2026-04-20T11:31:08.938Z</time></trkpt><trkpt lat="43.4562133" lon="11.228575"><ele>286.0</ele><time>2026-04-20T11:31:09.937Z</time></trkpt><trkpt lat="43.4561317" lon="11.228465"><ele>286.0</ele><time>2026-04-20T11:31:10.937Z</time></trkpt><trkpt lat="43.45605" lon="11.22835"><ele>286.0</ele><time>2026-04-20T11:31:11.937Z</time></trkpt><trkpt lat="43.455975" lon="11.2282367"><ele>286.0</ele><time>2026-04-20T11:31:12.937Z</time></trkpt><trkpt lat="43.4559033" lon="11.2281333"><ele>286.0</ele><time>2026-04-20T11:31:13.938Z</time></trkpt><trkpt lat="43.45583" lon="11.2280217"><ele>286.0</ele><time>2026-04-20T11:31:14.937Z</time></trkpt><trkpt lat="43.4557533" lon="11.2279217"><ele>285.8333333333333</ele><time>2026-04-20T11:31:15.938Z</time></trkpt><trkpt lat="43.45568" lon="11.227825"><ele>285.66666666666663</ele><time>2026-04-20T11:31:16.937Z</time></trkpt><trkpt lat="43.455615" lon="11.2277367"><ele>285.5</ele><time>2026-04-20T11:31:17.937Z</time></trkpt><trkpt lat="43.455565" lon="11.2276667"><ele>285.3333333333333</ele><time>2026-04-20T11:31:18.938Z</time></trkpt><trkpt lat="43.45551" lon="11.2276133"><ele>285.1666666666667</ele><time>2026-04-20T11:31:19.937Z</time></trkpt><trkpt lat="43.4554483" lon="11.2275833"><ele>285.0</ele><time>2026-04-20T11:31:20.938Z</time></trkpt><trkpt lat="43.4553767" lon="11.2275483"><ele>285.0</ele><time>2026-04-20T11:31:21.937Z</time></trkpt><trkpt lat="43.4553" lon="11.22751"><ele>285.0</ele><time>2026-04-20T11:31:22.938Z</time></trkpt><trkpt lat="43.4552183" lon="11.2274683"><ele>285.0</ele><time>2026-04-20T11:31:23.937Z</time></trkpt><trkpt lat="43.4551383" lon="11.22743"><ele>285.0</ele><time>2026-04-20T11:31:24.937Z</time></trkpt><trkpt lat="43.45504" lon="11.2273983"><ele>285.0</ele><time>2026-04-20T11:31:25.937Z</time></trkpt><trkpt lat="43.4549317" lon="11.227375"><ele>285.0</ele><time>2026-04-20T11:31:26.937Z</time></trkpt><trkpt lat="43.45482" lon="11.2273533"><ele>285.0</ele><time>2026-04-20T11:31:27.937Z</time></trkpt><trkpt lat="43.4547083" lon="11.2273383"><ele>285.0</ele><time>2026-04-20T11:31:28.937Z</time></trkpt><trkpt lat="43.45462" lon="11.2273083"><ele>285.0</ele><time>2026-04-20T11:31:29.937Z</time></trkpt><trkpt lat="43.4545467" lon="11.2272917"><ele>285.0</ele><time>2026-04-20T11:31:30.937Z</time></trkpt><trkpt lat="43.4544783" lon="11.2272783"><ele>286.5</ele><time>2026-04-20T11:31:31.937Z</time></trkpt><trkpt lat="43.4544117" lon="11.2272667"><ele>288.0</ele><time>2026-04-20T11:31:32.937Z</time></trkpt><trkpt lat="43.454335" lon="11.227255"><ele>289.5</ele><time>2026-04-20T11:31:33.937Z</time></trkpt><trkpt lat="43.4542517" lon="11.2272433"><ele>291.0</ele><time>2026-04-20T11:31:34.937Z</time></trkpt><trkpt lat="43.45417" lon="11.227235"><ele>292.5</ele><time>2026-04-20T11:31:35.937Z</time></trkpt><trkpt lat="43.454085" lon="11.2272317"><ele>294.0</ele><time>2026-04-20T11:31:36.937Z</time></trkpt><trkpt lat="43.454005" lon="11.22724"><ele>294.0</ele><time>2026-04-20T11:31:37.937Z</time></trkpt><trkpt lat="43.4539283" lon="11.22725"><ele>294.0</ele><time>2026-04-20T11:31:38.937Z</time></trkpt><trkpt lat="43.45385" lon="11.227255"><ele>294.0</ele><time>2026-04-20T11:31:39.937Z</time></trkpt><trkpt lat="43.45378" lon="11.2272583"><ele>294.0</ele><time>2026-04-20T11:31:40.938Z</time></trkpt><trkpt lat="43.4537167" lon="11.2272533"><ele>294.0</ele><time>2026-04-20T11:31:41.937Z</time></trkpt><trkpt lat="43.4536433" lon="11.2272433"><ele>294.0</ele><time>2026-04-20T11:31:42.938Z</time></trkpt><trkpt lat="43.453575" lon="11.22722"><ele>294.0</ele><time>2026-04-20T11:31:43.937Z</time></trkpt><trkpt lat="43.45351" lon="11.2271933"><ele>291.5</ele><time>2026-04-20T11:31:44.937Z</time></trkpt><trkpt lat="43.4534433" lon="11.2271517"><ele>289.0</ele><time>2026-04-20T11:31:45.937Z</time></trkpt><trkpt lat="43.4533817" lon="11.2271033"><ele>286.5</ele><time>2026-04-20T11:31:46.937Z</time></trkpt><trkpt lat="43.4533283" lon="11.22704"><ele>284.0</ele><time>2026-04-20T11:31:47.938Z</time></trkpt><trkpt lat="43.4532767" lon="11.226975"><ele>281.5</ele><time>2026-04-20T11:31:48.938Z</time></trkpt><trkpt lat="43.453195" lon="11.2268683"><ele>279.0</ele><time>2026-04-20T11:31:50.937Z</time></trkpt><trkpt lat="43.4530967" lon="11.22681"><ele>279.0</ele><time>2026-04-20T11:31:52.937Z</time></trkpt><trkpt lat="43.4529733" lon="11.2268283"><ele>279.0</ele><time>2026-04-20T11:31:54.938Z</time></trkpt><trkpt lat="43.4529017" lon="11.226855"><ele>279.0</ele><time>2026-04-20T11:31:55.937Z</time></trkpt><trkpt lat="43.4528283" lon="11.226895"><ele>279.0</ele><time>2026-04-20T11:31:56.937Z</time></trkpt><trkpt lat="43.4527483" lon="11.2269433"><ele>279.0</ele><time>2026-04-20T11:31:57.937Z</time></trkpt><trkpt lat="43.4526667" lon="11.226995"><ele>275.2</ele><time>2026-04-20T11:31:58.936Z</time></trkpt><trkpt lat="43.45258" lon="11.22704"><ele>271.4</ele><time>2026-04-20T11:31:59.936Z</time></trkpt><trkpt lat="43.4524867" lon="11.2270817"><ele>267.6</ele><time>2026-04-20T11:32:00.937Z</time></trkpt><trkpt lat="43.4523917" lon="11.2271233"><ele>263.8</ele><time>2026-04-20T11:32:01.936Z</time></trkpt><trkpt lat="43.452295" lon="11.227165"><ele>260.0</ele><time>2026-04-20T11:32:02.937Z</time></trkpt><trkpt lat="43.4522067" lon="11.2272"><ele>256.8</ele><time>2026-04-20T11:32:03.936Z</time></trkpt><trkpt lat="43.4521217" lon="11.2272383"><ele>253.6</ele><time>2026-04-20T11:32:04.936Z</time></trkpt><trkpt lat="43.4520317" lon="11.2272783"><ele>250.39999999999998</ele><time>2026-04-20T11:32:05.936Z</time></trkpt><trkpt lat="43.45194" lon="11.227325"><ele>247.2</ele><time>2026-04-20T11:32:06.937Z</time></trkpt><trkpt lat="43.45185" lon="11.2273667"><ele>244.0</ele><time>2026-04-20T11:32:07.936Z</time></trkpt><trkpt lat="43.4517567" lon="11.2274133"><ele>244.0</ele><time>2026-04-20T11:32:08.936Z</time></trkpt><trkpt lat="43.45166" lon="11.2274533"><ele>243.99999999999997</ele><time>2026-04-20T11:32:09.936Z</time></trkpt><trkpt lat="43.4515583" lon="11.2274867"><ele>243.99999999999997</ele><time>2026-04-20T11:32:10.936Z</time></trkpt><trkpt lat="43.451455" lon="11.227535"><ele>244.0</ele><time>2026-04-20T11:32:11.936Z</time></trkpt><trkpt lat="43.4513467" lon="11.2275833"><ele>244.0</ele><time>2026-04-20T11:32:12.936Z</time></trkpt><trkpt lat="43.4512367" lon="11.2276367"><ele>241.2</ele><time>2026-04-20T11:32:13.937Z</time></trkpt><trkpt lat="43.45113" lon="11.227685"><ele>238.39999999999998</ele><time>2026-04-20T11:32:14.936Z</time></trkpt><trkpt lat="43.451035" lon="11.2277317"><ele>235.6</ele><time>2026-04-20T11:32:15.936Z</time></trkpt><trkpt lat="43.4509417" lon="11.2277733"><ele>232.8</ele><time>2026-04-20T11:32:16.936Z</time></trkpt><trkpt lat="43.4508467" lon="11.2278233"><ele>230.0</ele><time>2026-04-20T11:32:17.936Z</time></trkpt><trkpt lat="43.4507533" lon="11.2278617"><ele>230.0</ele><time>2026-04-20T11:32:18.937Z</time></trkpt><trkpt lat="43.4506617" lon="11.2279033"><ele>230.0</ele><time>2026-04-20T11:32:19.936Z</time></trkpt><trkpt lat="43.4505667" lon="11.2279333"><ele>230.0</ele><time>2026-04-20T11:32:20.936Z</time></trkpt><trkpt lat="43.450465" lon="11.227945"><ele>230.0</ele><time>2026-04-20T11:32:21.936Z</time></trkpt><trkpt lat="43.4503667" lon="11.2279567"><ele>230.0</ele><time>2026-04-20T11:32:22.936Z</time></trkpt><trkpt lat="43.4502717" lon="11.2279717"><ele>228.0</ele><time>2026-04-20T11:32:23.936Z</time></trkpt><trkpt lat="43.4501767" lon="11.227975"><ele>226.0</ele><time>2026-04-20T11:32:24.936Z</time></trkpt><trkpt lat="43.45008" lon="11.2279883"><ele>224.0</ele><time>2026-04-20T11:32:25.936Z</time></trkpt><trkpt lat="43.449975" lon="11.2280033"><ele>222.0</ele><time>2026-04-20T11:32:26.937Z</time></trkpt><trkpt lat="43.449875" lon="11.228015"><ele>220.0</ele><time>2026-04-20T11:32:27.936Z</time></trkpt><trkpt lat="43.44977" lon="11.2280367"><ele>220.0</ele><time>2026-04-20T11:32:28.936Z</time></trkpt><trkpt lat="43.4496583" lon="11.22805"><ele>220.0</ele><time>2026-04-20T11:32:29.937Z</time></trkpt><trkpt lat="43.4495567" lon="11.2280617"><ele>220.0</ele><time>2026-04-20T11:32:30.936Z</time></trkpt><trkpt lat="43.4494567" lon="11.228075"><ele>220.0</ele><time>2026-04-20T11:32:31.936Z</time></trkpt><trkpt lat="43.4493567" lon="11.228085"><ele>220.0</ele><time>2026-04-20T11:32:32.937Z</time></trkpt><trkpt lat="43.4492533" lon="11.2281017"><ele>218.0</ele><time>2026-04-20T11:32:33.937Z</time></trkpt><trkpt lat="43.44915" lon="11.2281167"><ele>216.0</ele><time>2026-04-20T11:32:34.936Z</time></trkpt><trkpt lat="43.4490517" lon="11.228125"><ele>214.0</ele><time>2026-04-20T11:32:35.937Z</time></trkpt><trkpt lat="43.4489517" lon="11.2281383"><ele>212.0</ele><time>2026-04-20T11:32:36.936Z</time></trkpt><trkpt lat="43.4488483" lon="11.2281567"><ele>210.0</ele><time>2026-04-20T11:32:37.936Z</time></trkpt><trkpt lat="43.4487517" lon="11.2281733"><ele>208.0</ele><time>2026-04-20T11:32:38.936Z</time></trkpt><trkpt lat="43.448645" lon="11.2281883"><ele>206.0</ele><time>2026-04-20T11:32:39.936Z</time></trkpt><trkpt lat="43.4485467" lon="11.2281983"><ele>204.0</ele><time>2026-04-20T11:32:40.936Z</time></trkpt><trkpt lat="43.4484433" lon="11.228205"><ele>202.0</ele><time>2026-04-20T11:32:41.936Z</time></trkpt><trkpt lat="43.4483383" lon="11.228215"><ele>200.0</ele><time>2026-04-20T11:32:42.937Z</time></trkpt><trkpt lat="43.4482333" lon="11.2282283"><ele>200.0</ele><time>2026-04-20T11:32:43.936Z</time></trkpt><trkpt lat="43.44813" lon="11.22825"><ele>200.0</ele><time>2026-04-20T11:32:44.936Z</time></trkpt><trkpt lat="43.448025" lon="11.228265"><ele>200.0</ele><time>2026-04-20T11:32:45.936Z</time></trkpt><trkpt lat="43.447915" lon="11.2282883"><ele>200.0</ele><time>2026-04-20T11:32:46.936Z</time></trkpt><trkpt lat="43.4477967" lon="11.2283117"><ele>200.0</ele><time>2026-04-20T11:32:47.936Z</time></trkpt><trkpt lat="43.4476867" lon="11.2283333"><ele>198.66666666666669</ele><time>2026-04-20T11:32:48.936Z</time></trkpt><trkpt lat="43.4475883" lon="11.2283483"><ele>197.33333333333334</ele><time>2026-04-20T11:32:49.936Z</time></trkpt><trkpt lat="43.447495" lon="11.2283583"><ele>196.0</ele><time>2026-04-20T11:32:50.936Z</time></trkpt><trkpt lat="43.4474117" lon="11.2283483"><ele>194.66666666666669</ele><time>2026-04-20T11:32:51.936Z</time></trkpt><trkpt lat="43.4473433" lon="11.2283317"><ele>193.33333333333334</ele><time>2026-04-20T11:32:52.937Z</time></trkpt><trkpt lat="43.4472883" lon="11.2282817"><ele>192.0</ele><time>2026-04-20T11:32:53.936Z</time></trkpt><trkpt lat="43.447255" lon="11.2282"><ele>191.8</ele><time>2026-04-20T11:32:54.937Z</time></trkpt><trkpt lat="43.4472317" lon="11.228095"><ele>191.6</ele><time>2026-04-20T11:32:55.936Z</time></trkpt><trkpt lat="43.44722" lon="11.2279767"><ele>191.4</ele><time>2026-04-20T11:32:56.936Z</time></trkpt><trkpt lat="43.447215" lon="11.2278417"><ele>191.20000000000002</ele><time>2026-04-20T11:32:57.936Z</time></trkpt><trkpt lat="43.4472067" lon="11.2277"><ele>191.0</ele><time>2026-04-20T11:32:58.936Z</time></trkpt><trkpt lat="43.4472" lon="11.2275617"><ele>191.0</ele><time>2026-04-20T11:32:59.936Z</time></trkpt><trkpt lat="43.4471917" lon="11.2274467"><ele>191.0</ele><time>2026-04-20T11:33:00.937Z</time></trkpt><trkpt lat="43.4471817" lon="11.227325"><ele>191.0</ele><time>2026-04-20T11:33:01.936Z</time></trkpt><trkpt lat="43.44717" lon="11.2272217"><ele>191.0</ele><time>2026-04-20T11:33:02.936Z</time></trkpt><trkpt lat="43.4470983" lon="11.2270967"><ele>191.0</ele><time>2026-04-20T11:33:04.936Z</time></trkpt><trkpt lat="43.4470017" lon="11.2270567"><ele>190.8</ele><time>2026-04-20T11:33:06.937Z</time></trkpt><trkpt lat="43.4469033" lon="11.22711"><ele>190.60000000000002</ele><time>2026-04-20T11:33:08.936Z</time></trkpt><trkpt lat="43.4468267" lon="11.227175"><ele>190.4</ele><time>2026-04-20T11:33:10.936Z</time></trkpt><trkpt lat="43.44674" lon="11.2272083"><ele>190.2</ele><time>2026-04-20T11:33:12.936Z</time></trkpt><trkpt lat="43.4466217" lon="11.227165"><ele>190.0</ele><time>2026-04-20T11:33:14.937Z</time></trkpt><trkpt lat="43.4465533" lon="11.22714"><ele>190.0</ele><time>2026-04-20T11:33:15.936Z</time></trkpt><trkpt lat="43.4464867" lon="11.227125"><ele>190.0</ele><time>2026-04-20T11:33:16.936Z</time></trkpt><trkpt lat="43.4464017" lon="11.2271183"><ele>190.0</ele><time>2026-04-20T11:33:17.936Z</time></trkpt><trkpt lat="43.4463017" lon="11.22712"><ele>190.0</ele><time>2026-04-20T11:33:18.936Z</time></trkpt><trkpt lat="43.4462" lon="11.227135"><ele>190.0</ele><time>2026-04-20T11:33:19.936Z</time></trkpt><trkpt lat="43.4460933" lon="11.2271433"><ele>192.6</ele><time>2026-04-20T11:33:20.936Z</time></trkpt><trkpt lat="43.445985" lon="11.2271517"><ele>195.2</ele><time>2026-04-20T11:33:21.937Z</time></trkpt><trkpt lat="43.4458783" lon="11.2271367"><ele>197.8</ele><time>2026-04-20T11:33:22.937Z</time></trkpt><trkpt lat="43.4457767" lon="11.2271033"><ele>200.4</ele><time>2026-04-20T11:33:23.936Z</time></trkpt><trkpt lat="43.4456833" lon="11.227055"><ele>203.0</ele><time>2026-04-20T11:33:24.936Z</time></trkpt><trkpt lat="43.445595" lon="11.226985"><ele>203.0</ele><time>2026-04-20T11:33:25.936Z</time></trkpt><trkpt lat="43.4455233" lon="11.2269083"><ele>203.0</ele><time>2026-04-20T11:33:26.936Z</time></trkpt><trkpt lat="43.4454533" lon="11.22682"><ele>203.0</ele><time>2026-04-20T11:33:27.936Z</time></trkpt><trkpt lat="43.4453983" lon="11.2267417"><ele>203.0</ele><time>2026-04-20T11:33:28.936Z</time></trkpt><trkpt lat="43.445295" lon="11.226645"><ele>203.0</ele><time>2026-04-20T11:33:30.936Z</time></trkpt><trkpt lat="43.44523" lon="11.226605"><ele>204.4</ele><time>2026-04-20T11:33:31.936Z</time></trkpt><trkpt lat="43.44516" lon="11.22657"><ele>205.8</ele><time>2026-04-20T11:33:32.936Z</time></trkpt><trkpt lat="43.4450717" lon="11.2265367"><ele>207.2</ele><time>2026-04-20T11:33:33.937Z</time></trkpt><trkpt lat="43.4449633" lon="11.2265033"><ele>208.6</ele><time>2026-04-20T11:33:34.936Z</time></trkpt><trkpt lat="43.44484" lon="11.2264667"><ele>210.0</ele><time>2026-04-20T11:33:35.936Z</time></trkpt><trkpt lat="43.4447067" lon="11.2264267"><ele>212.25</ele><time>2026-04-20T11:33:36.936Z</time></trkpt><trkpt lat="43.4445783" lon="11.2263867"><ele>214.5</ele><time>2026-04-20T11:33:37.936Z</time></trkpt><trkpt lat="43.444445" lon="11.226345"><ele>216.75</ele><time>2026-04-20T11:33:38.936Z</time></trkpt><trkpt lat="43.444315" lon="11.2263067"><ele>219.0</ele><time>2026-04-20T11:33:39.936Z</time></trkpt><trkpt lat="43.4441867" lon="11.2262667"><ele>219.0</ele><time>2026-04-20T11:33:40.936Z</time></trkpt><trkpt lat="43.4440517" lon="11.2262267"><ele>219.0</ele><time>2026-04-20T11:33:41.936Z</time></trkpt><trkpt lat="43.44391" lon="11.2261833"><ele>219.0</ele><time>2026-04-20T11:33:42.936Z</time></trkpt><trkpt lat="43.443775" lon="11.2261367"><ele>219.0</ele><time>2026-04-20T11:33:43.936Z</time></trkpt><trkpt lat="43.4436317" lon="11.22609"><ele>221.5</ele><time>2026-04-20T11:33:44.937Z</time></trkpt><trkpt lat="43.4434883" lon="11.2260433"><ele>224.0</ele><time>2026-04-20T11:33:45.936Z</time></trkpt><trkpt lat="43.4433483" lon="11.226"><ele>226.5</ele><time>2026-04-20T11:33:46.936Z</time></trkpt><trkpt lat="43.4432233" lon="11.225965"><ele>229.0</ele><time>2026-04-20T11:33:47.936Z</time></trkpt><trkpt lat="43.44311" lon="11.2259333"><ele>228.99999999999997</ele><time>2026-04-20T11:33:48.936Z</time></trkpt><trkpt lat="43.4430167" lon="11.22591"><ele>229.0</ele><time>2026-04-20T11:33:49.936Z</time></trkpt><trkpt lat="43.44293" lon="11.2258833"><ele>229.0</ele><time>2026-04-20T11:33:50.936Z</time></trkpt><trkpt lat="43.4428583" lon="11.2258683"><ele>229.0</ele><time>2026-04-20T11:33:51.936Z</time></trkpt><trkpt lat="43.4427817" lon="11.2258867"><ele>228.99999999999997</ele><time>2026-04-20T11:33:53.936Z</time></trkpt><trkpt lat="43.4427367" lon="11.2259983"><ele>229.0</ele><time>2026-04-20T11:33:55.936Z</time></trkpt><trkpt lat="43.4427217" lon="11.22611"><ele>229.0</ele><time>2026-04-20T11:33:56.936Z</time></trkpt><trkpt lat="43.4427033" lon="11.2262433"><ele>228.99999999999997</ele><time>2026-04-20T11:33:57.936Z</time></trkpt><trkpt lat="43.4426833" lon="11.2263783"><ele>228.99999999999997</ele><time>2026-04-20T11:33:58.937Z</time></trkpt><trkpt lat="43.4426583" lon="11.2264983"><ele>229.0</ele><time>2026-04-20T11:33:59.936Z</time></trkpt><trkpt lat="43.4426317" lon="11.2266133"><ele>229.0</ele><time>2026-04-20T11:34:00.936Z</time></trkpt><trkpt lat="43.4426133" lon="11.2267233"><ele>229.0</ele><time>2026-04-20T11:34:01.936Z</time></trkpt><trkpt lat="43.4426017" lon="11.2268267"><ele>229.0</ele><time>2026-04-20T11:34:02.936Z</time></trkpt><trkpt lat="43.4425817" lon="11.2269233"><ele>229.0</ele><time>2026-04-20T11:34:03.936Z</time></trkpt><trkpt lat="43.4425583" lon="11.2270233"><ele>229.0</ele><time>2026-04-20T11:34:04.936Z</time></trkpt><trkpt lat="43.442535" lon="11.2271183"><ele>229.0</ele><time>2026-04-20T11:34:05.936Z</time></trkpt><trkpt lat="43.4425067" lon="11.2272167"><ele>229.0</ele><time>2026-04-20T11:34:06.937Z</time></trkpt><trkpt lat="43.4424883" lon="11.2273133"><ele>229.0</ele><time>2026-04-20T11:34:07.936Z</time></trkpt><trkpt lat="43.442475" lon="11.2274117"><ele>229.16666666666666</ele><time>2026-04-20T11:34:08.936Z</time></trkpt><trkpt lat="43.442465" lon="11.22751"><ele>229.33333333333331</ele><time>2026-04-20T11:34:09.936Z</time></trkpt><trkpt lat="43.4424583" lon="11.227615"><ele>229.5</ele><time>2026-04-20T11:34:10.936Z</time></trkpt><trkpt lat="43.4424517" lon="11.22773"><ele>229.66666666666669</ele><time>2026-04-20T11:34:11.936Z</time></trkpt><trkpt lat="43.44244" lon="11.227855"><ele>229.83333333333334</ele><time>2026-04-20T11:34:12.936Z</time></trkpt><trkpt lat="43.4424367" lon="11.2279833"><ele>230.0</ele><time>2026-04-20T11:34:13.936Z</time></trkpt><trkpt lat="43.4424367" lon="11.2281083"><ele>230.4</ele><time>2026-04-20T11:34:14.936Z</time></trkpt><trkpt lat="43.4424383" lon="11.2282333"><ele>230.8</ele><time>2026-04-20T11:34:15.936Z</time></trkpt><trkpt lat="43.44244" lon="11.2283633"><ele>231.2</ele><time>2026-04-20T11:34:16.937Z</time></trkpt><trkpt lat="43.4424417" lon="11.2284967"><ele>231.6</ele><time>2026-04-20T11:34:17.936Z</time></trkpt><trkpt lat="43.4424383" lon="11.2286267"><ele>232.0</ele><time>2026-04-20T11:34:18.936Z</time></trkpt><trkpt lat="43.442435" lon="11.2287567"><ele>232.0</ele><time>2026-04-20T11:34:19.937Z</time></trkpt><trkpt lat="43.4424317" lon="11.2288833"><ele>232.0</ele><time>2026-04-20T11:34:20.937Z</time></trkpt><trkpt lat="43.4424283" lon="11.2290217"><ele>232.0</ele><time>2026-04-20T11:34:21.936Z</time></trkpt><trkpt lat="43.4424283" lon="11.2291583"><ele>232.0</ele><time>2026-04-20T11:34:22.936Z</time></trkpt><trkpt lat="43.4424283" lon="11.2292967"><ele>232.0</ele><time>2026-04-20T11:34:23.936Z</time></trkpt><trkpt lat="43.44243" lon="11.2294383"><ele>232.6</ele><time>2026-04-20T11:34:24.936Z</time></trkpt><trkpt lat="43.4424233" lon="11.2295883"><ele>233.2</ele><time>2026-04-20T11:34:25.936Z</time></trkpt><trkpt lat="43.442415" lon="11.2297383"><ele>233.8</ele><time>2026-04-20T11:34:26.936Z</time></trkpt><trkpt lat="43.442415" lon="11.2298733"><ele>234.4</ele><time>2026-04-20T11:34:27.937Z</time></trkpt><trkpt lat="43.4424067" lon="11.23001"><ele>235.0</ele><time>2026-04-20T11:34:28.936Z</time></trkpt><trkpt lat="43.4424017" lon="11.2301367"><ele>236.6</ele><time>2026-04-20T11:34:29.936Z</time></trkpt><trkpt lat="43.4424017" lon="11.23027"><ele>238.2</ele><time>2026-04-20T11:34:30.936Z</time></trkpt><trkpt lat="43.442395" lon="11.2304067"><ele>239.8</ele><time>2026-04-20T11:34:31.936Z</time></trkpt><trkpt lat="43.4423917" lon="11.2305467"><ele>241.4</ele><time>2026-04-20T11:34:32.936Z</time></trkpt><trkpt lat="43.442385" lon="11.230695"><ele>243.0</ele><time>2026-04-20T11:34:33.936Z</time></trkpt><trkpt lat="43.4423833" lon="11.2308383"><ele>244.83333333333334</ele><time>2026-04-20T11:34:34.936Z</time></trkpt><trkpt lat="43.442385" lon="11.230975"><ele>246.66666666666669</ele><time>2026-04-20T11:34:35.936Z</time></trkpt><trkpt lat="43.4423883" lon="11.2310883"><ele>248.5</ele><time>2026-04-20T11:34:36.937Z</time></trkpt><trkpt lat="43.44239" lon="11.2311967"><ele>250.33333333333334</ele><time>2026-04-20T11:34:37.937Z</time></trkpt><trkpt lat="43.4423817" lon="11.2313033"><ele>252.16666666666669</ele><time>2026-04-20T11:34:38.936Z</time></trkpt><trkpt lat="43.4423633" lon="11.2314083"><ele>254.0</ele><time>2026-04-20T11:34:39.936Z</time></trkpt><trkpt lat="43.442345" lon="11.2315117"><ele>256.5</ele><time>2026-04-20T11:34:40.936Z</time></trkpt><trkpt lat="43.4423017" lon="11.23165"><ele>259.0</ele><time>2026-04-20T11:34:42.936Z</time></trkpt><trkpt lat="43.4422133" lon="11.23175"><ele>261.5</ele><time>2026-04-20T11:34:44.936Z</time></trkpt><trkpt lat="43.4421033" lon="11.23181"><ele>264.0</ele><time>2026-04-20T11:34:46.937Z</time></trkpt><trkpt lat="43.4419817" lon="11.2318433"><ele>265.6666666666667</ele><time>2026-04-20T11:34:48.936Z</time></trkpt><trkpt lat="43.4419083" lon="11.23187"><ele>267.3333333333333</ele><time>2026-04-20T11:34:49.936Z</time></trkpt><trkpt lat="43.4418267" lon="11.2318967"><ele>269.0</ele><time>2026-04-20T11:34:50.937Z</time></trkpt><trkpt lat="43.4417433" lon="11.23192"><ele>270.66666666666663</ele><time>2026-04-20T11:34:51.936Z</time></trkpt><trkpt lat="43.4416567" lon="11.2319467"><ele>272.3333333333333</ele><time>2026-04-20T11:34:52.936Z</time></trkpt><trkpt lat="43.4415783" lon="11.2319683"><ele>274.0</ele><time>2026-04-20T11:34:53.936Z</time></trkpt><trkpt lat="43.4415183" lon="11.232005"><ele>274.0</ele><time>2026-04-20T11:34:54.936Z</time></trkpt><trkpt lat="43.44146" lon="11.2320583"><ele>274.0</ele><time>2026-04-20T11:34:55.936Z</time></trkpt><trkpt lat="43.4413883" lon="11.2321433"><ele>274.0</ele><time>2026-04-20T11:34:56.937Z</time></trkpt><trkpt lat="43.4413183" lon="11.232225"><ele>274.0</ele><time>2026-04-20T11:34:57.936Z</time></trkpt><trkpt lat="43.4412483" lon="11.2323033"><ele>274.0</ele><time>2026-04-20T11:34:58.937Z</time></trkpt><trkpt lat="43.4411617" lon="11.2324017"><ele>273.59999999999997</ele><time>2026-04-20T11:34:59.936Z</time></trkpt><trkpt lat="43.4410733" lon="11.232495"><ele>273.2</ele><time>2026-04-20T11:35:00.936Z</time></trkpt><trkpt lat="43.4409817" lon="11.2325883"><ele>272.79999999999995</ele><time>2026-04-20T11:35:01.937Z</time></trkpt><trkpt lat="43.440905" lon="11.232675"><ele>272.4</ele><time>2026-04-20T11:35:02.936Z</time></trkpt><trkpt lat="43.4408167" lon="11.2327633"><ele>272.0</ele><time>2026-04-20T11:35:03.936Z</time></trkpt><trkpt lat="43.4407233" lon="11.2328583"><ele>272.0</ele><time>2026-04-20T11:35:04.936Z</time></trkpt><trkpt lat="43.4406367" lon="11.2329567"><ele>272.0</ele><time>2026-04-20T11:35:05.936Z</time></trkpt><trkpt lat="43.4405483" lon="11.2330633"><ele>272.0</ele><time>2026-04-20T11:35:06.936Z</time></trkpt><trkpt lat="43.4404667" lon="11.2331767"><ele>272.0</ele><time>2026-04-20T11:35:07.937Z</time></trkpt><trkpt lat="43.4404017" lon="11.2332867"><ele>272.0</ele><time>2026-04-20T11:35:08.936Z</time></trkpt><trkpt lat="43.440335" lon="11.2334183"><ele>272.6</ele><time>2026-04-20T11:35:09.936Z</time></trkpt><trkpt lat="43.4402883" lon="11.2335333"><ele>273.2</ele><time>2026-04-20T11:35:10.936Z</time></trkpt><trkpt lat="43.4402417" lon="11.2336367"><ele>273.8</ele><time>2026-04-20T11:35:11.936Z</time></trkpt><trkpt lat="43.4401867" lon="11.233745"><ele>274.4</ele><time>2026-04-20T11:35:12.936Z</time></trkpt><trkpt lat="43.4401383" lon="11.233855"><ele>275.0</ele><time>2026-04-20T11:35:13.936Z</time></trkpt><trkpt lat="43.4400783" lon="11.23397"><ele>276.4</ele><time>2026-04-20T11:35:14.937Z</time></trkpt><trkpt lat="43.4400217" lon="11.2340783"><ele>277.8</ele><time>2026-04-20T11:35:15.937Z</time></trkpt><trkpt lat="43.439965" lon="11.2341833"><ele>279.2</ele><time>2026-04-20T11:35:16.937Z</time></trkpt><trkpt lat="43.4398967" lon="11.2342833"><ele>280.6</ele><time>2026-04-20T11:35:17.937Z</time></trkpt><trkpt lat="43.4398167" lon="11.234365"><ele>282.0</ele><time>2026-04-20T11:35:18.937Z</time></trkpt><trkpt lat="43.43973" lon="11.2344517"><ele>282.0</ele><time>2026-04-20T11:35:19.936Z</time></trkpt><trkpt lat="43.439645" lon="11.2345383"><ele>282.0</ele><time>2026-04-20T11:35:20.936Z</time></trkpt><trkpt lat="43.43956" lon="11.234625"><ele>282.0</ele><time>2026-04-20T11:35:21.936Z</time></trkpt><trkpt lat="43.4394733" lon="11.2347133"><ele>282.0</ele><time>2026-04-20T11:35:22.936Z</time></trkpt><trkpt lat="43.439395" lon="11.23481"><ele>282.0</ele><time>2026-04-20T11:35:23.936Z</time></trkpt><trkpt lat="43.43931" lon="11.2349117"><ele>283.5</ele><time>2026-04-20T11:35:24.936Z</time></trkpt><trkpt lat="43.4392233" lon="11.2350133"><ele>285.0</ele><time>2026-04-20T11:35:25.936Z</time></trkpt><trkpt lat="43.4391433" lon="11.2351083"><ele>286.5</ele><time>2026-04-20T11:35:26.936Z</time></trkpt><trkpt lat="43.4390567" lon="11.2352167"><ele>288.0</ele><time>2026-04-20T11:35:27.936Z</time></trkpt><trkpt lat="43.438975" lon="11.2353267"><ele>288.0</ele><time>2026-04-20T11:35:28.936Z</time></trkpt><trkpt lat="43.4388967" lon="11.2354433"><ele>288.0</ele><time>2026-04-20T11:35:29.936Z</time></trkpt><trkpt lat="43.4388033" lon="11.23557"><ele>288.0</ele><time>2026-04-20T11:35:30.936Z</time></trkpt><trkpt lat="43.4387083" lon="11.2357017"><ele>288.0</ele><time>2026-04-20T11:35:31.937Z</time></trkpt><trkpt lat="43.4386267" lon="11.235835"><ele>290.0</ele><time>2026-04-20T11:35:32.936Z</time></trkpt><trkpt lat="43.438545" lon="11.2359617"><ele>292.0</ele><time>2026-04-20T11:35:33.936Z</time></trkpt><trkpt lat="43.43846" lon="11.23609"><ele>294.0</ele><time>2026-04-20T11:35:34.937Z</time></trkpt><trkpt lat="43.4383767" lon="11.236215"><ele>296.0</ele><time>2026-04-20T11:35:35.936Z</time></trkpt><trkpt lat="43.4383017" lon="11.2363383"><ele>296.0</ele><time>2026-04-20T11:35:36.936Z</time></trkpt><trkpt lat="43.4382217" lon="11.2364567"><ele>296.0</ele><time>2026-04-20T11:35:37.936Z</time></trkpt><trkpt lat="43.4381367" lon="11.2365733"><ele>296.0</ele><time>2026-04-20T11:35:38.936Z</time></trkpt><trkpt lat="43.4380467" lon="11.2366817"><ele>296.0</ele><time>2026-04-20T11:35:39.936Z</time></trkpt><trkpt lat="43.4379467" lon="11.23677"><ele>296.25</ele><time>2026-04-20T11:35:40.936Z</time></trkpt><trkpt lat="43.4378267" lon="11.236855"><ele>296.5</ele><time>2026-04-20T11:35:41.936Z</time></trkpt><trkpt lat="43.4377017" lon="11.2369283"><ele>296.75</ele><time>2026-04-20T11:35:42.936Z</time></trkpt><trkpt lat="43.4375683" lon="11.2369983"><ele>297.0</ele><time>2026-04-20T11:35:43.936Z</time></trkpt><trkpt lat="43.437435" lon="11.2370767"><ele>297.0</ele><time>2026-04-20T11:35:44.936Z</time></trkpt><trkpt lat="43.4373067" lon="11.2371417"><ele>297.0</ele><time>2026-04-20T11:35:45.936Z</time></trkpt><trkpt lat="43.4371867" lon="11.2371867"><ele>297.0</ele><time>2026-04-20T11:35:46.936Z</time></trkpt><trkpt lat="43.4370767" lon="11.23724"><ele>297.0</ele><time>2026-04-20T11:35:47.937Z</time></trkpt><trkpt lat="43.4369833" lon="11.237305"><ele>296.8</ele><time>2026-04-20T11:35:48.937Z</time></trkpt><trkpt lat="43.4369" lon="11.2373867"><ele>296.6</ele><time>2026-04-20T11:35:49.936Z</time></trkpt><trkpt lat="43.4368167" lon="11.2374833"><ele>296.40000000000003</ele><time>2026-04-20T11:35:50.937Z</time></trkpt><trkpt lat="43.4367467" lon="11.2376"><ele>296.2</ele><time>2026-04-20T11:35:51.937Z</time></trkpt><trkpt lat="43.4366883" lon="11.2377317"><ele>296.0</ele><time>2026-04-20T11:35:52.936Z</time></trkpt><trkpt lat="43.4366333" lon="11.2378683"><ele>296.0</ele><time>2026-04-20T11:35:53.936Z</time></trkpt><trkpt lat="43.4365667" lon="11.2380133"><ele>296.0</ele><time>2026-04-20T11:35:54.936Z</time></trkpt><trkpt lat="43.4365017" lon="11.2381483"><ele>296.0</ele><time>2026-04-20T11:35:55.937Z</time></trkpt><trkpt lat="43.4364367" lon="11.2382783"><ele>296.0</ele><time>2026-04-20T11:35:56.937Z</time></trkpt><trkpt lat="43.4363917" lon="11.2384067"><ele>295.40000000000003</ele><time>2026-04-20T11:35:57.936Z</time></trkpt><trkpt lat="43.4363333" lon="11.23852"><ele>294.8</ele><time>2026-04-20T11:35:58.936Z</time></trkpt><trkpt lat="43.4362783" lon="11.2386383"><ele>294.20000000000005</ele><time>2026-04-20T11:35:59.936Z</time></trkpt><trkpt lat="43.43621" lon="11.2387567"><ele>293.6</ele><time>2026-04-20T11:36:00.936Z</time></trkpt><trkpt lat="43.4361467" lon="11.238905"><ele>293.0</ele><time>2026-04-20T11:36:01.936Z</time></trkpt><trkpt lat="43.436065" lon="11.2390517"><ele>291.5</ele><time>2026-04-20T11:36:02.936Z</time></trkpt><trkpt lat="43.4359783" lon="11.2392"><ele>290.0</ele><time>2026-04-20T11:36:03.936Z</time></trkpt><trkpt lat="43.4358917" lon="11.2393367"><ele>288.5</ele><time>2026-04-20T11:36:04.936Z</time></trkpt><trkpt lat="43.435815" lon="11.2394817"><ele>287.0</ele><time>2026-04-20T11:36:05.936Z</time></trkpt><trkpt lat="43.4357317" lon="11.239625"><ele>287.0</ele><time>2026-04-20T11:36:06.936Z</time></trkpt><trkpt lat="43.435655" lon="11.2397583"><ele>287.0</ele><time>2026-04-20T11:36:07.937Z</time></trkpt><trkpt lat="43.435585" lon="11.2398967"><ele>287.0</ele><time>2026-04-20T11:36:08.936Z</time></trkpt><trkpt lat="43.4355183" lon="11.24004"><ele>287.0</ele><time>2026-04-20T11:36:09.936Z</time></trkpt><trkpt lat="43.4354667" lon="11.24018"><ele>286.8</ele><time>2026-04-20T11:36:10.937Z</time></trkpt><trkpt lat="43.435425" lon="11.2403267"><ele>286.6</ele><time>2026-04-20T11:36:11.936Z</time></trkpt><trkpt lat="43.4354017" lon="11.2404733"><ele>286.40000000000003</ele><time>2026-04-20T11:36:12.936Z</time></trkpt><trkpt lat="43.435385" lon="11.2406233"><ele>286.2</ele><time>2026-04-20T11:36:13.936Z</time></trkpt><trkpt lat="43.4353817" lon="11.2407667"><ele>286.0</ele><time>2026-04-20T11:36:14.937Z</time></trkpt><trkpt lat="43.4353867" lon="11.2409183"><ele>286.6</ele><time>2026-04-20T11:36:15.936Z</time></trkpt><trkpt lat="43.4353983" lon="11.24107"><ele>287.20000000000005</ele><time>2026-04-20T11:36:16.936Z</time></trkpt><trkpt lat="43.435405" lon="11.2412217"><ele>287.79999999999995</ele><time>2026-04-20T11:36:17.937Z</time></trkpt><trkpt lat="43.4354117" lon="11.2413667"><ele>288.4</ele><time>2026-04-20T11:36:18.936Z</time></trkpt><trkpt lat="43.4354217" lon="11.2414933"><ele>289.0</ele><time>2026-04-20T11:36:19.937Z</time></trkpt><trkpt lat="43.4354383" lon="11.2416067"><ele>289.3333333333333</ele><time>2026-04-20T11:36:20.936Z</time></trkpt><trkpt lat="43.4354633" lon="11.2417083"><ele>289.66666666666663</ele><time>2026-04-20T11:36:21.936Z</time></trkpt><trkpt lat="43.4355033" lon="11.2418"><ele>290.0</ele><time>2026-04-20T11:36:22.936Z</time></trkpt><trkpt lat="43.435545" lon="11.24189"><ele>290.3333333333333</ele><time>2026-04-20T11:36:23.936Z</time></trkpt><trkpt lat="43.435595" lon="11.2419783"><ele>290.6666666666667</ele><time>2026-04-20T11:36:24.937Z</time></trkpt><trkpt lat="43.4356483" lon="11.2420717"><ele>291.0</ele><time>2026-04-20T11:36:25.936Z</time></trkpt><trkpt lat="43.4357083" lon="11.2421667"><ele>291.0</ele><time>2026-04-20T11:36:26.936Z</time></trkpt><trkpt lat="43.4357783" lon="11.2422833"><ele>291.0</ele><time>2026-04-20T11:36:27.936Z</time></trkpt><trkpt lat="43.4358533" lon="11.2424183"><ele>291.0</ele><time>2026-04-20T11:36:28.936Z</time></trkpt><trkpt lat="43.43594" lon="11.2425433"><ele>291.0</ele><time>2026-04-20T11:36:29.937Z</time></trkpt><trkpt lat="43.4360267" lon="11.2426683"><ele>290.25</ele><time>2026-04-20T11:36:30.936Z</time></trkpt><trkpt lat="43.4361167" lon="11.2428017"><ele>289.5</ele><time>2026-04-20T11:36:31.936Z</time></trkpt><trkpt lat="43.4362117" lon="11.242945"><ele>288.75</ele><time>2026-04-20T11:36:32.936Z</time></trkpt><trkpt lat="43.4363117" lon="11.2430883"><ele>288.0</ele><time>2026-04-20T11:36:33.935Z</time></trkpt><trkpt lat="43.4364033" lon="11.2432267"><ele>287.0</ele><time>2026-04-20T11:36:34.935Z</time></trkpt><trkpt lat="43.4364917" lon="11.2433783"><ele>286.0</ele><time>2026-04-20T11:36:35.936Z</time></trkpt><trkpt lat="43.436575" lon="11.2435133"><ele>285.0</ele><time>2026-04-20T11:36:36.935Z</time></trkpt><trkpt lat="43.4366533" lon="11.243635"><ele>284.0</ele><time>2026-04-20T11:36:37.935Z</time></trkpt><trkpt lat="43.436735" lon="11.2437517"><ele>284.0</ele><time>2026-04-20T11:36:38.935Z</time></trkpt><trkpt lat="43.436825" lon="11.2438817"><ele>284.0</ele><time>2026-04-20T11:36:39.935Z</time></trkpt><trkpt lat="43.4369083" lon="11.2440217"><ele>284.0</ele><time>2026-04-20T11:36:40.935Z</time></trkpt><trkpt lat="43.4369983" lon="11.24416"><ele>284.0</ele><time>2026-04-20T11:36:41.936Z</time></trkpt><trkpt lat="43.437085" lon="11.2442933"><ele>284.0</ele><time>2026-04-20T11:36:42.935Z</time></trkpt><trkpt lat="43.437165" lon="11.2444183"><ele>284.0</ele><time>2026-04-20T11:36:43.935Z</time></trkpt><trkpt lat="43.4372417" lon="11.2445417"><ele>284.0</ele><time>2026-04-20T11:36:44.935Z</time></trkpt><trkpt lat="43.43731" lon="11.244655"><ele>284.0</ele><time>2026-04-20T11:36:45.935Z</time></trkpt><trkpt lat="43.4373833" lon="11.244765"><ele>285.5</ele><time>2026-04-20T11:36:46.935Z</time></trkpt><trkpt lat="43.4374583" lon="11.2448817"><ele>287.0</ele><time>2026-04-20T11:36:47.936Z</time></trkpt><trkpt lat="43.43754" lon="11.2450033"><ele>288.5</ele><time>2026-04-20T11:36:48.936Z</time></trkpt><trkpt lat="43.4376233" lon="11.2451233"><ele>290.0</ele><time>2026-04-20T11:36:49.935Z</time></trkpt><trkpt lat="43.4377033" lon="11.2452433"><ele>290.0</ele><time>2026-04-20T11:36:50.935Z</time></trkpt><trkpt lat="43.4377883" lon="11.2453717"><ele>290.0</ele><time>2026-04-20T11:36:51.935Z</time></trkpt><trkpt lat="43.4378633" lon="11.245505"><ele>290.0</ele><time>2026-04-20T11:36:52.935Z</time></trkpt><trkpt lat="43.4379533" lon="11.2456317"><ele>290.0</ele><time>2026-04-20T11:36:53.935Z</time></trkpt><trkpt lat="43.4380333" lon="11.2457683"><ele>290.0</ele><time>2026-04-20T11:36:54.936Z</time></trkpt><trkpt lat="43.438115" lon="11.245905"><ele>290.0</ele><time>2026-04-20T11:36:55.935Z</time></trkpt><trkpt lat="43.4382017" lon="11.246045"><ele>290.0</ele><time>2026-04-20T11:36:56.935Z</time></trkpt><trkpt lat="43.43828" lon="11.2461817"><ele>290.0</ele><time>2026-04-20T11:36:57.935Z</time></trkpt><trkpt lat="43.43835" lon="11.246305"><ele>290.0</ele><time>2026-04-20T11:36:58.936Z</time></trkpt><trkpt lat="43.438405" lon="11.2464217"><ele>290.0</ele><time>2026-04-20T11:36:59.935Z</time></trkpt><trkpt lat="43.4384467" lon="11.24653"><ele>290.0</ele><time>2026-04-20T11:37:00.935Z</time></trkpt><trkpt lat="43.4384683" lon="11.2466383"><ele>290.0</ele><time>2026-04-20T11:37:01.935Z</time></trkpt><trkpt lat="43.4384783" lon="11.2467467"><ele>290.0</ele><time>2026-04-20T11:37:02.935Z</time></trkpt><trkpt lat="43.4384817" lon="11.2468667"><ele>290.0</ele><time>2026-04-20T11:37:03.935Z</time></trkpt><trkpt lat="43.4384883" lon="11.247"><ele>290.0</ele><time>2026-04-20T11:37:04.935Z</time></trkpt><trkpt lat="43.438505" lon="11.2471417"><ele>290.0</ele><time>2026-04-20T11:37:05.935Z</time></trkpt><trkpt lat="43.438515" lon="11.2472933"><ele>290.0</ele><time>2026-04-20T11:37:06.935Z</time></trkpt><trkpt lat="43.4385233" lon="11.2474567"><ele>290.0</ele><time>2026-04-20T11:37:07.936Z</time></trkpt><trkpt lat="43.43853" lon="11.2476233"><ele>290.0</ele><time>2026-04-20T11:37:08.935Z</time></trkpt><trkpt lat="43.4385367" lon="11.2477817"><ele>290.0</ele><time>2026-04-20T11:37:09.935Z</time></trkpt><trkpt lat="43.4385417" lon="11.247935"><ele>290.0</ele><time>2026-04-20T11:37:10.935Z</time></trkpt><trkpt lat="43.4385533" lon="11.2480767"><ele>290.0</ele><time>2026-04-20T11:37:11.936Z</time></trkpt><trkpt lat="43.4385617" lon="11.248215"><ele>290.0</ele><time>2026-04-20T11:37:12.935Z</time></trkpt><trkpt lat="43.4385733" lon="11.2483583"><ele>290.0</ele><time>2026-04-20T11:37:13.935Z</time></trkpt><trkpt lat="43.4385733" lon="11.248505"><ele>290.0</ele><time>2026-04-20T11:37:14.935Z</time></trkpt><trkpt lat="43.4385717" lon="11.248645"><ele>290.0</ele><time>2026-04-20T11:37:15.935Z</time></trkpt><trkpt lat="43.43858" lon="11.2487817"><ele>290.0</ele><time>2026-04-20T11:37:16.935Z</time></trkpt><trkpt lat="43.43858" lon="11.2489283"><ele>290.0</ele><time>2026-04-20T11:37:17.935Z</time></trkpt><trkpt lat="43.4385867" lon="11.2490917"><ele>290.5</ele><time>2026-04-20T11:37:18.936Z</time></trkpt><trkpt lat="43.4385967" lon="11.249245"><ele>291.0</ele><time>2026-04-20T11:37:19.935Z</time></trkpt><trkpt lat="43.4386083" lon="11.2494"><ele>291.5</ele><time>2026-04-20T11:37:20.935Z</time></trkpt><trkpt lat="43.4386233" lon="11.249555"><ele>292.0</ele><time>2026-04-20T11:37:21.935Z</time></trkpt><trkpt lat="43.4386333" lon="11.2497117"><ele>291.5</ele><time>2026-04-20T11:37:22.935Z</time></trkpt><trkpt lat="43.4386483" lon="11.2498767"><ele>291.0</ele><time>2026-04-20T11:37:23.935Z</time></trkpt><trkpt lat="43.4386583" lon="11.250045"><ele>290.5</ele><time>2026-04-20T11:37:24.935Z</time></trkpt><trkpt lat="43.43867" lon="11.2502183"><ele>290.0</ele><time>2026-04-20T11:37:25.935Z</time></trkpt><trkpt lat="43.4386867" lon="11.2503933"><ele>290.0</ele><time>2026-04-20T11:37:26.936Z</time></trkpt><trkpt lat="43.4386917" lon="11.2505583"><ele>290.0</ele><time>2026-04-20T11:37:27.935Z</time></trkpt><trkpt lat="43.4386983" lon="11.2507183"><ele>290.0</ele><time>2026-04-20T11:37:28.935Z</time></trkpt><trkpt lat="43.438705" lon="11.25086"><ele>290.0</ele><time>2026-04-20T11:37:29.935Z</time></trkpt><trkpt lat="43.4387067" lon="11.2509917"><ele>290.0</ele><time>2026-04-20T11:37:30.936Z</time></trkpt><trkpt lat="43.4386933" lon="11.2511233"><ele>290.0</ele><time>2026-04-20T11:37:31.936Z</time></trkpt><trkpt lat="43.43867" lon="11.251255"><ele>290.0</ele><time>2026-04-20T11:37:32.935Z</time></trkpt><trkpt lat="43.4386317" lon="11.2513983"><ele>290.0</ele><time>2026-04-20T11:37:33.936Z</time></trkpt><trkpt lat="43.4386017" lon="11.2515633"><ele>290.0</ele><time>2026-04-20T11:37:34.936Z</time></trkpt><trkpt lat="43.438575" lon="11.251715"><ele>290.0</ele><time>2026-04-20T11:37:35.935Z</time></trkpt><trkpt lat="43.4385467" lon="11.251855"><ele>290.0</ele><time>2026-04-20T11:37:36.935Z</time></trkpt><trkpt lat="43.4385167" lon="11.2519867"><ele>290.0</ele><time>2026-04-20T11:37:37.935Z</time></trkpt><trkpt lat="43.43848" lon="11.2521117"><ele>290.0</ele><time>2026-04-20T11:37:38.935Z</time></trkpt><trkpt lat="43.4384283" lon="11.2522367"><ele>290.0</ele><time>2026-04-20T11:37:39.935Z</time></trkpt><trkpt lat="43.43837" lon="11.252365"><ele>290.0</ele><time>2026-04-20T11:37:40.936Z</time></trkpt><trkpt lat="43.4383267" lon="11.252495"><ele>290.8</ele><time>2026-04-20T11:37:41.935Z</time></trkpt><trkpt lat="43.4382817" lon="11.2526367"><ele>291.6</ele><time>2026-04-20T11:37:42.935Z</time></trkpt><trkpt lat="43.4382383" lon="11.252775"><ele>292.4</ele><time>2026-04-20T11:37:43.935Z</time></trkpt><trkpt lat="43.43819" lon="11.2529133"><ele>293.2</ele><time>2026-04-20T11:37:44.935Z</time></trkpt><trkpt lat="43.438145" lon="11.2530483"><ele>294.0</ele><time>2026-04-20T11:37:45.935Z</time></trkpt><trkpt lat="43.4380867" lon="11.25319"><ele>293.59999999999997</ele><time>2026-04-20T11:37:46.935Z</time></trkpt><trkpt lat="43.438035" lon="11.25332"><ele>293.2</ele><time>2026-04-20T11:37:47.936Z</time></trkpt><trkpt lat="43.4379867" lon="11.25343"><ele>292.79999999999995</ele><time>2026-04-20T11:37:48.935Z</time></trkpt><trkpt lat="43.4379333" lon="11.2535433"><ele>292.4</ele><time>2026-04-20T11:37:49.935Z</time></trkpt><trkpt lat="43.4378733" lon="11.2536617"><ele>292.0</ele><time>2026-04-20T11:37:50.935Z</time></trkpt><trkpt lat="43.4378133" lon="11.2537617"><ele>292.0</ele><time>2026-04-20T11:37:51.935Z</time></trkpt><trkpt lat="43.437765" lon="11.2538483"><ele>292.0</ele><time>2026-04-20T11:37:52.935Z</time></trkpt><trkpt lat="43.437715" lon="11.253915"><ele>292.0</ele><time>2026-04-20T11:37:53.936Z</time></trkpt><trkpt lat="43.4376583" lon="11.25397"><ele>292.0</ele><time>2026-04-20T11:37:54.935Z</time></trkpt><trkpt lat="43.4375917" lon="11.25402"><ele>292.0</ele><time>2026-04-20T11:37:55.936Z</time></trkpt><trkpt lat="43.4375133" lon="11.25407"><ele>292.0</ele><time>2026-04-20T11:37:56.936Z</time></trkpt><trkpt lat="43.43743" lon="11.25411"><ele>292.57142857142856</ele><time>2026-04-20T11:37:57.935Z</time></trkpt><trkpt lat="43.43735" lon="11.2541383"><ele>293.14285714285717</ele><time>2026-04-20T11:37:58.935Z</time></trkpt><trkpt lat="43.4372733" lon="11.2541617"><ele>293.7142857142857</ele><time>2026-04-20T11:37:59.935Z</time></trkpt><trkpt lat="43.43721" lon="11.254185"><ele>294.2857142857143</ele><time>2026-04-20T11:38:00.935Z</time></trkpt><trkpt lat="43.4371483" lon="11.2542233"><ele>294.85714285714283</ele><time>2026-04-20T11:38:01.935Z</time></trkpt><trkpt lat="43.4370867" lon="11.25427"><ele>295.42857142857144</ele><time>2026-04-20T11:38:02.936Z</time></trkpt><trkpt lat="43.43702" lon="11.2542967"><ele>296.0</ele><time>2026-04-20T11:38:03.936Z</time></trkpt><trkpt lat="43.4369517" lon="11.2543217"><ele>296.0</ele><time>2026-04-20T11:38:04.936Z</time></trkpt><trkpt lat="43.4368883" lon="11.2543483"><ele>296.0</ele><time>2026-04-20T11:38:05.936Z</time></trkpt><trkpt lat="43.436815" lon="11.2544517"><ele>296.0</ele><time>2026-04-20T11:38:07.935Z</time></trkpt><trkpt lat="43.436805" lon="11.2545633"><ele>296.0</ele><time>2026-04-20T11:38:09.935Z</time></trkpt><trkpt lat="43.4367283" lon="11.2546283"><ele>296.0</ele><time>2026-04-20T11:38:12.935Z</time></trkpt><trkpt lat="43.4366333" lon="11.2546483"><ele>296.0</ele><time>2026-04-20T11:38:14.935Z</time></trkpt><trkpt lat="43.43656" lon="11.2546417"><ele>296.0</ele><time>2026-04-20T11:38:15.936Z</time></trkpt><trkpt lat="43.436485" lon="11.2546367"><ele>296.0</ele><time>2026-04-20T11:38:16.935Z</time></trkpt><trkpt lat="43.4364117" lon="11.2546367"><ele>296.0</ele><time>2026-04-20T11:38:17.936Z</time></trkpt><trkpt lat="43.4363333" lon="11.2546367"><ele>296.0</ele><time>2026-04-20T11:38:18.935Z</time></trkpt><trkpt lat="43.4362567" lon="11.2546233"><ele>296.0</ele><time>2026-04-20T11:38:19.935Z</time></trkpt><trkpt lat="43.436185" lon="11.254615"><ele>296.0</ele><time>2026-04-20T11:38:20.935Z</time></trkpt><trkpt lat="43.4361167" lon="11.2546083"><ele>296.0</ele><time>2026-04-20T11:38:21.935Z</time></trkpt><trkpt lat="43.4360483" lon="11.2545967"><ele>294.57142857142856</ele><time>2026-04-20T11:38:22.935Z</time></trkpt><trkpt lat="43.4359717" lon="11.254585"><ele>293.1428571428571</ele><time>2026-04-20T11:38:23.935Z</time></trkpt><trkpt lat="43.4359" lon="11.254575"><ele>291.71428571428567</ele><time>2026-04-20T11:38:24.935Z</time></trkpt><trkpt lat="43.4358283" lon="11.2545717"><ele>290.2857142857143</ele><time>2026-04-20T11:38:25.935Z</time></trkpt><trkpt lat="43.43576" lon="11.2545567"><ele>288.85714285714283</ele><time>2026-04-20T11:38:26.935Z</time></trkpt><trkpt lat="43.4356883" lon="11.254545"><ele>287.4285714285714</ele><time>2026-04-20T11:38:27.935Z</time></trkpt><trkpt lat="43.4356183" lon="11.2545317"><ele>286.0</ele><time>2026-04-20T11:38:28.935Z</time></trkpt><trkpt lat="43.4355367" lon="11.2545217"><ele>284.40000000000003</ele><time>2026-04-20T11:38:29.936Z</time></trkpt><trkpt lat="43.4354383" lon="11.2545033"><ele>282.8</ele><time>2026-04-20T11:38:30.935Z</time></trkpt><trkpt lat="43.4353383" lon="11.254485"><ele>281.20000000000005</ele><time>2026-04-20T11:38:31.936Z</time></trkpt><trkpt lat="43.4352217" lon="11.2544717"><ele>279.6</ele><time>2026-04-20T11:38:32.935Z</time></trkpt><trkpt lat="43.43511" lon="11.2544583"><ele>278.0</ele><time>2026-04-20T11:38:33.935Z</time></trkpt><trkpt lat="43.4350033" lon="11.2544367"><ele>278.0</ele><time>2026-04-20T11:38:34.935Z</time></trkpt><trkpt lat="43.434905" lon="11.2544233"><ele>278.0</ele><time>2026-04-20T11:38:35.935Z</time></trkpt><trkpt lat="43.4348" lon="11.2544067"><ele>278.0</ele><time>2026-04-20T11:38:36.935Z</time></trkpt><trkpt lat="43.434695" lon="11.2544"><ele>278.0</ele><time>2026-04-20T11:38:37.936Z</time></trkpt><trkpt lat="43.4345767" lon="11.2543933"><ele>278.0</ele><time>2026-04-20T11:38:38.936Z</time></trkpt><trkpt lat="43.434465" lon="11.2543783"><ele>276.0</ele><time>2026-04-20T11:38:39.935Z</time></trkpt><trkpt lat="43.4343567" lon="11.254355"><ele>274.0</ele><time>2026-04-20T11:38:40.935Z</time></trkpt><trkpt lat="43.4342533" lon="11.2543383"><ele>272.0</ele><time>2026-04-20T11:38:41.935Z</time></trkpt><trkpt lat="43.4341517" lon="11.2543267"><ele>270.0</ele><time>2026-04-20T11:38:42.935Z</time></trkpt><trkpt lat="43.4340383" lon="11.2543117"><ele>268.0</ele><time>2026-04-20T11:38:43.936Z</time></trkpt><trkpt lat="43.4339217" lon="11.2542983"><ele>268.0</ele><time>2026-04-20T11:38:44.935Z</time></trkpt><trkpt lat="43.4338117" lon="11.2542783"><ele>268.0</ele><time>2026-04-20T11:38:45.935Z</time></trkpt><trkpt lat="43.433705" lon="11.254255"><ele>268.0</ele><time>2026-04-20T11:38:46.935Z</time></trkpt><trkpt lat="43.4335983" lon="11.2542333"><ele>268.0</ele><time>2026-04-20T11:38:47.935Z</time></trkpt><trkpt lat="43.4334883" lon="11.2542117"><ele>268.0</ele><time>2026-04-20T11:38:48.935Z</time></trkpt><trkpt lat="43.4333733" lon="11.2541967"><ele>266.0</ele><time>2026-04-20T11:38:49.935Z</time></trkpt><trkpt lat="43.4332733" lon="11.2541783"><ele>264.0</ele><time>2026-04-20T11:38:50.935Z</time></trkpt><trkpt lat="43.4331767" lon="11.254165"><ele>262.0</ele><time>2026-04-20T11:38:51.935Z</time></trkpt><trkpt lat="43.4330783" lon="11.25416"><ele>260.0</ele><time>2026-04-20T11:38:52.935Z</time></trkpt><trkpt lat="43.4329833" lon="11.25416"><ele>258.0</ele><time>2026-04-20T11:38:53.935Z</time></trkpt><trkpt lat="43.4328933" lon="11.2541583"><ele>256.3333333333333</ele><time>2026-04-20T11:38:54.935Z</time></trkpt><trkpt lat="43.4328067" lon="11.25415"><ele>254.66666666666669</ele><time>2026-04-20T11:38:55.935Z</time></trkpt><trkpt lat="43.4327217" lon="11.25414"><ele>253.0</ele><time>2026-04-20T11:38:56.936Z</time></trkpt><trkpt lat="43.4326583" lon="11.25413"><ele>251.33333333333334</ele><time>2026-04-20T11:38:57.935Z</time></trkpt><trkpt lat="43.4325517" lon="11.25418"><ele>249.66666666666669</ele><time>2026-04-20T11:38:59.936Z</time></trkpt><trkpt lat="43.4324883" lon="11.25428"><ele>248.0</ele><time>2026-04-20T11:39:01.936Z</time></trkpt><trkpt lat="43.4324617" lon="11.2543983"><ele>248.0</ele><time>2026-04-20T11:39:03.935Z</time></trkpt><trkpt lat="43.432455" lon="11.2545233"><ele>248.0</ele><time>2026-04-20T11:39:05.936Z</time></trkpt><trkpt lat="43.4323733" lon="11.2546"><ele>248.0</ele><time>2026-04-20T11:39:07.935Z</time></trkpt><trkpt lat="43.4322933" lon="11.2546333"><ele>248.0</ele><time>2026-04-20T11:39:08.935Z</time></trkpt><trkpt lat="43.43221" lon="11.2546867"><ele>248.0</ele><time>2026-04-20T11:39:09.936Z</time></trkpt><trkpt lat="43.4321267" lon="11.2547467"><ele>246.0</ele><time>2026-04-20T11:39:10.935Z</time></trkpt><trkpt lat="43.43204" lon="11.25481"><ele>244.0</ele><time>2026-04-20T11:39:11.936Z</time></trkpt><trkpt lat="43.43194" lon="11.2548833"><ele>242.0</ele><time>2026-04-20T11:39:12.936Z</time></trkpt><trkpt lat="43.4318317" lon="11.254955"><ele>240.0</ele><time>2026-04-20T11:39:13.935Z</time></trkpt><trkpt lat="43.431725" lon="11.2550333"><ele>240.0</ele><time>2026-04-20T11:39:14.936Z</time></trkpt><trkpt lat="43.431615" lon="11.2551233"><ele>240.0</ele><time>2026-04-20T11:39:15.935Z</time></trkpt><trkpt lat="43.4314917" lon="11.255215"><ele>240.0</ele><time>2026-04-20T11:39:16.935Z</time></trkpt><trkpt lat="43.4313667" lon="11.255315"><ele>240.0</ele><time>2026-04-20T11:39:17.935Z</time></trkpt><trkpt lat="43.4312517" lon="11.2554"><ele>238.75</ele><time>2026-04-20T11:39:18.936Z</time></trkpt><trkpt lat="43.4311317" lon="11.255485"><ele>237.5</ele><time>2026-04-20T11:39:19.935Z</time></trkpt><trkpt lat="43.4310017" lon="11.255575"><ele>236.25</ele><time>2026-04-20T11:39:20.935Z</time></trkpt><trkpt lat="43.430885" lon="11.2556633"><ele>235.0</ele><time>2026-04-20T11:39:21.936Z</time></trkpt><trkpt lat="43.43076" lon="11.255755"><ele>235.0</ele><time>2026-04-20T11:39:22.935Z</time></trkpt><trkpt lat="43.43064" lon="11.2558333"><ele>235.0</ele><time>2026-04-20T11:39:23.936Z</time></trkpt><trkpt lat="43.4305233" lon="11.255915"><ele>235.0</ele><time>2026-04-20T11:39:24.935Z</time></trkpt><trkpt lat="43.430405" lon="11.2559917"><ele>235.0</ele><time>2026-04-20T11:39:25.936Z</time></trkpt><trkpt lat="43.4302983" lon="11.2560733"><ele>234.0</ele><time>2026-04-20T11:39:26.935Z</time></trkpt><trkpt lat="43.43018" lon="11.256155"><ele>233.0</ele><time>2026-04-20T11:39:27.936Z</time></trkpt><trkpt lat="43.430065" lon="11.2562267"><ele>232.0</ele><time>2026-04-20T11:39:28.935Z</time></trkpt><trkpt lat="43.4299483" lon="11.256295"><ele>231.0</ele><time>2026-04-20T11:39:29.935Z</time></trkpt><trkpt lat="43.4298283" lon="11.2563367"><ele>231.0</ele><time>2026-04-20T11:39:30.935Z</time></trkpt><trkpt lat="43.4297017" lon="11.2563717"><ele>231.0</ele><time>2026-04-20T11:39:31.935Z</time></trkpt><trkpt lat="43.4295783" lon="11.2563883"><ele>231.0</ele><time>2026-04-20T11:39:32.935Z</time></trkpt><trkpt lat="43.42945" lon="11.2563983"><ele>231.0</ele><time>2026-04-20T11:39:33.935Z</time></trkpt><trkpt lat="43.4293183" lon="11.2564083"><ele>231.0</ele><time>2026-04-20T11:39:34.936Z</time></trkpt><trkpt lat="43.429185" lon="11.2564183"><ele>231.0</ele><time>2026-04-20T11:39:35.936Z</time></trkpt><trkpt lat="43.4290517" lon="11.2564217"><ele>231.0</ele><time>2026-04-20T11:39:36.935Z</time></trkpt><trkpt lat="43.428915" lon="11.2564217"><ele>231.0</ele><time>2026-04-20T11:39:37.936Z</time></trkpt><trkpt lat="43.4287767" lon="11.2564367"><ele>231.75</ele><time>2026-04-20T11:39:38.935Z</time></trkpt><trkpt lat="43.4286433" lon="11.2564417"><ele>232.5</ele><time>2026-04-20T11:39:39.935Z</time></trkpt><trkpt lat="43.428505" lon="11.25643"><ele>233.25</ele><time>2026-04-20T11:39:40.936Z</time></trkpt><trkpt lat="43.4283633" lon="11.2564067"><ele>234.0</ele><time>2026-04-20T11:39:41.935Z</time></trkpt><trkpt lat="43.4282283" lon="11.2563683"><ele>234.0</ele><time>2026-04-20T11:39:42.935Z</time></trkpt><trkpt lat="43.42809" lon="11.25632"><ele>234.0</ele><time>2026-04-20T11:39:43.935Z</time></trkpt><trkpt lat="43.427945" lon="11.256285"><ele>234.0</ele><time>2026-04-20T11:39:44.935Z</time></trkpt><trkpt lat="43.4278133" lon="11.25625"><ele>234.0</ele><time>2026-04-20T11:39:45.935Z</time></trkpt><trkpt lat="43.4276983" lon="11.2562217"><ele>235.79999999999998</ele><time>2026-04-20T11:39:46.935Z</time></trkpt><trkpt lat="43.4275917" lon="11.2562083"><ele>237.59999999999997</ele><time>2026-04-20T11:39:47.935Z</time></trkpt><trkpt lat="43.4274833" lon="11.2562183"><ele>239.4</ele><time>2026-04-20T11:39:48.936Z</time></trkpt><trkpt lat="43.4273967" lon="11.2562417"><ele>241.2</ele><time>2026-04-20T11:39:49.936Z</time></trkpt><trkpt lat="43.4273283" lon="11.256285"><ele>243.0</ele><time>2026-04-20T11:39:50.936Z</time></trkpt><trkpt lat="43.4272683" lon="11.2563517"><ele>243.0</ele><time>2026-04-20T11:39:51.936Z</time></trkpt><trkpt lat="43.4272233" lon="11.2564267"><ele>243.0</ele><time>2026-04-20T11:39:52.936Z</time></trkpt><trkpt lat="43.4271867" lon="11.2565167"><ele>243.0</ele><time>2026-04-20T11:39:53.935Z</time></trkpt><trkpt lat="43.427135" lon="11.256625"><ele>243.0</ele><time>2026-04-20T11:39:54.935Z</time></trkpt><trkpt lat="43.4270817" lon="11.25676"><ele>243.0</ele><time>2026-04-20T11:39:55.935Z</time></trkpt><trkpt lat="43.4270167" lon="11.2568983"><ele>244.75</ele><time>2026-04-20T11:39:56.935Z</time></trkpt><trkpt lat="43.4269533" lon="11.257045"><ele>246.5</ele><time>2026-04-20T11:39:57.936Z</time></trkpt><trkpt lat="43.4268933" lon="11.257195"><ele>248.25</ele><time>2026-04-20T11:39:58.935Z</time></trkpt><trkpt lat="43.4268283" lon="11.2573467"><ele>250.0</ele><time>2026-04-20T11:39:59.935Z</time></trkpt><trkpt lat="43.426755" lon="11.2575017"><ele>251.0</ele><time>2026-04-20T11:40:00.936Z</time></trkpt><trkpt lat="43.42669" lon="11.2576417"><ele>252.0</ele><time>2026-04-20T11:40:01.936Z</time></trkpt><trkpt lat="43.4266333" lon="11.2577883"><ele>253.0</ele><time>2026-04-20T11:40:02.935Z</time></trkpt><trkpt lat="43.426585" lon="11.2579283"><ele>254.0</ele><time>2026-04-20T11:40:03.936Z</time></trkpt><trkpt lat="43.4265367" lon="11.25807"><ele>254.6</ele><time>2026-04-20T11:40:04.935Z</time></trkpt><trkpt lat="43.426495" lon="11.25822"><ele>255.2</ele><time>2026-04-20T11:40:05.935Z</time></trkpt><trkpt lat="43.4264717" lon="11.25837"><ele>255.79999999999998</ele><time>2026-04-20T11:40:06.936Z</time></trkpt><trkpt lat="43.4264617" lon="11.258515"><ele>256.4</ele><time>2026-04-20T11:40:07.935Z</time></trkpt><trkpt lat="43.4264583" lon="11.2586583"><ele>257.0</ele><time>2026-04-20T11:40:08.935Z</time></trkpt><trkpt lat="43.426455" lon="11.258815"><ele>258.0</ele><time>2026-04-20T11:40:09.935Z</time></trkpt><trkpt lat="43.42646" lon="11.258965"><ele>259.0</ele><time>2026-04-20T11:40:10.935Z</time></trkpt><trkpt lat="43.426465" lon="11.2591267"><ele>260.0</ele><time>2026-04-20T11:40:11.935Z</time></trkpt><trkpt lat="43.42647" lon="11.2592883"><ele>261.0</ele><time>2026-04-20T11:40:12.935Z</time></trkpt><trkpt lat="43.4264783" lon="11.259455"><ele>261.0</ele><time>2026-04-20T11:40:13.935Z</time></trkpt><trkpt lat="43.4264983" lon="11.2596233"><ele>261.0</ele><time>2026-04-20T11:40:14.935Z</time></trkpt><trkpt lat="43.42651" lon="11.2597933"><ele>261.0</ele><time>2026-04-20T11:40:15.935Z</time></trkpt><trkpt lat="43.42653" lon="11.2599683"><ele>261.0</ele><time>2026-04-20T11:40:16.935Z</time></trkpt><trkpt lat="43.42655" lon="11.2601483"><ele>262.0</ele><time>2026-04-20T11:40:17.935Z</time></trkpt><trkpt lat="43.4265683" lon="11.2603267"><ele>263.0</ele><time>2026-04-20T11:40:18.935Z</time></trkpt><trkpt lat="43.4265867" lon="11.2605"><ele>264.0</ele><time>2026-04-20T11:40:19.935Z</time></trkpt><trkpt lat="43.4266" lon="11.2606717"><ele>265.0</ele><time>2026-04-20T11:40:20.936Z</time></trkpt><trkpt lat="43.4266183" lon="11.260845"><ele>266.25</ele><time>2026-04-20T11:40:21.935Z</time></trkpt><trkpt lat="43.4266317" lon="11.26102"><ele>267.5</ele><time>2026-04-20T11:40:22.935Z</time></trkpt><trkpt lat="43.426645" lon="11.2611983"><ele>268.75</ele><time>2026-04-20T11:40:23.935Z</time></trkpt><trkpt lat="43.4266583" lon="11.26138"><ele>270.0</ele><time>2026-04-20T11:40:24.935Z</time></trkpt><trkpt lat="43.42667" lon="11.2615583"><ele>271.75</ele><time>2026-04-20T11:40:25.935Z</time></trkpt><trkpt lat="43.426695" lon="11.2617333"><ele>273.5</ele><time>2026-04-20T11:40:26.935Z</time></trkpt><trkpt lat="43.4267183" lon="11.2618983"><ele>275.25</ele><time>2026-04-20T11:40:27.935Z</time></trkpt><trkpt lat="43.4267567" lon="11.2620483"><ele>277.0</ele><time>2026-04-20T11:40:28.935Z</time></trkpt><trkpt lat="43.42681" lon="11.2621933"><ele>278.75</ele><time>2026-04-20T11:40:29.935Z</time></trkpt><trkpt lat="43.4268617" lon="11.2623283"><ele>280.5</ele><time>2026-04-20T11:40:30.936Z</time></trkpt><trkpt lat="43.4269183" lon="11.26247"><ele>282.25</ele><time>2026-04-20T11:40:31.935Z</time></trkpt><trkpt lat="43.42698" lon="11.26262"><ele>284.0</ele><time>2026-04-20T11:40:32.936Z</time></trkpt><trkpt lat="43.42703" lon="11.262775"><ele>284.0</ele><time>2026-04-20T11:40:33.935Z</time></trkpt><trkpt lat="43.4270867" lon="11.2629317"><ele>284.0</ele><time>2026-04-20T11:40:34.935Z</time></trkpt><trkpt lat="43.4271517" lon="11.2630867"><ele>284.0</ele><time>2026-04-20T11:40:35.935Z</time></trkpt><trkpt lat="43.427225" lon="11.2632417"><ele>284.0</ele><time>2026-04-20T11:40:36.935Z</time></trkpt><trkpt lat="43.4272983" lon="11.2633883"><ele>284.75</ele><time>2026-04-20T11:40:37.935Z</time></trkpt><trkpt lat="43.4273783" lon="11.263535"><ele>285.5</ele><time>2026-04-20T11:40:38.935Z</time></trkpt><trkpt lat="43.4274667" lon="11.2636767"><ele>286.25</ele><time>2026-04-20T11:40:39.935Z</time></trkpt><trkpt lat="43.4275483" lon="11.2638117"><ele>287.0</ele><time>2026-04-20T11:40:40.935Z</time></trkpt><trkpt lat="43.4276283" lon="11.26394"><ele>286.8</ele><time>2026-04-20T11:40:41.935Z</time></trkpt><trkpt lat="43.4277017" lon="11.2640617"><ele>286.6</ele><time>2026-04-20T11:40:42.936Z</time></trkpt><trkpt lat="43.427765" lon="11.2641833"><ele>286.40000000000003</ele><time>2026-04-20T11:40:43.935Z</time></trkpt><trkpt lat="43.4278167" lon="11.2643133"><ele>286.2</ele><time>2026-04-20T11:40:44.935Z</time></trkpt><trkpt lat="43.4278517" lon="11.264455"><ele>286.0</ele><time>2026-04-20T11:40:45.935Z</time></trkpt><trkpt lat="43.4278733" lon="11.264595"><ele>286.0</ele><time>2026-04-20T11:40:46.935Z</time></trkpt><trkpt lat="43.4278833" lon="11.2647517"><ele>286.0</ele><time>2026-04-20T11:40:47.935Z</time></trkpt><trkpt lat="43.42787" lon="11.2649183"><ele>286.0</ele><time>2026-04-20T11:40:48.935Z</time></trkpt><trkpt lat="43.427845" lon="11.2650817"><ele>286.0</ele><time>2026-04-20T11:40:49.935Z</time></trkpt><trkpt lat="43.427815" lon="11.2652333"><ele>285.25</ele><time>2026-04-20T11:40:50.935Z</time></trkpt><trkpt lat="43.42777" lon="11.2653783"><ele>284.5</ele><time>2026-04-20T11:40:51.935Z</time></trkpt><trkpt lat="43.4277133" lon="11.26553"><ele>283.75</ele><time>2026-04-20T11:40:52.935Z</time></trkpt><trkpt lat="43.4276467" lon="11.2656883"><ele>283.0</ele><time>2026-04-20T11:40:53.935Z</time></trkpt><trkpt lat="43.4275717" lon="11.265845"><ele>282.5</ele><time>2026-04-20T11:40:54.936Z</time></trkpt><trkpt lat="43.4275" lon="11.2660067"><ele>282.0</ele><time>2026-04-20T11:40:55.935Z</time></trkpt><trkpt lat="43.4274167" lon="11.26616"><ele>281.5</ele><time>2026-04-20T11:40:56.935Z</time></trkpt><trkpt lat="43.4273333" lon="11.2663217"><ele>281.0</ele><time>2026-04-20T11:40:57.936Z</time></trkpt><trkpt lat="43.427245" lon="11.26648"><ele>280.0</ele><time>2026-04-20T11:40:58.935Z</time></trkpt><trkpt lat="43.42716" lon="11.2666417"><ele>279.0</ele><time>2026-04-20T11:40:59.935Z</time></trkpt><trkpt lat="43.42708" lon="11.26681"><ele>278.0</ele><time>2026-04-20T11:41:00.935Z</time></trkpt><trkpt lat="43.4270017" lon="11.26698"><ele>277.0</ele><time>2026-04-20T11:41:01.935Z</time></trkpt><trkpt lat="43.4269267" lon="11.267145"><ele>277.5</ele><time>2026-04-20T11:41:02.936Z</time></trkpt><trkpt lat="43.4268567" lon="11.2673183"><ele>278.0</ele><time>2026-04-20T11:41:03.936Z</time></trkpt><trkpt lat="43.4267933" lon="11.2674883"><ele>278.5</ele><time>2026-04-20T11:41:04.935Z</time></trkpt><trkpt lat="43.42673" lon="11.2676633"><ele>279.0</ele><time>2026-04-20T11:41:05.935Z</time></trkpt><trkpt lat="43.4266683" lon="11.26785"><ele>279.0</ele><time>2026-04-20T11:41:06.935Z</time></trkpt><trkpt lat="43.4266183" lon="11.268045"><ele>279.0</ele><time>2026-04-20T11:41:07.936Z</time></trkpt><trkpt lat="43.426565" lon="11.268235"><ele>279.0</ele><time>2026-04-20T11:41:08.935Z</time></trkpt><trkpt lat="43.4265167" lon="11.2684283"><ele>279.0</ele><time>2026-04-20T11:41:09.935Z</time></trkpt><trkpt lat="43.426475" lon="11.2686233"><ele>279.0</ele><time>2026-04-20T11:41:10.935Z</time></trkpt><trkpt lat="43.4264417" lon="11.268805"><ele>279.0</ele><time>2026-04-20T11:41:11.935Z</time></trkpt><trkpt lat="43.4264133" lon="11.26897"><ele>279.0</ele><time>2026-04-20T11:41:12.936Z</time></trkpt><trkpt lat="43.4264017" lon="11.269145"><ele>279.0</ele><time>2026-04-20T11:41:13.935Z</time></trkpt><trkpt lat="43.426395" lon="11.2693317"><ele>279.0</ele><time>2026-04-20T11:41:14.935Z</time></trkpt><trkpt lat="43.4263967" lon="11.2695233"><ele>279.0</ele><time>2026-04-20T11:41:15.935Z</time></trkpt><trkpt lat="43.4264033" lon="11.2697033"><ele>279.0</ele><time>2026-04-20T11:41:16.935Z</time></trkpt><trkpt lat="43.4264033" lon="11.269875"><ele>279.0</ele><time>2026-04-20T11:41:17.935Z</time></trkpt><trkpt lat="43.426405" lon="11.2700283"><ele>279.2</ele><time>2026-04-20T11:41:18.935Z</time></trkpt><trkpt lat="43.42641" lon="11.2701617"><ele>279.4</ele><time>2026-04-20T11:41:19.935Z</time></trkpt><trkpt lat="43.426395" lon="11.27029"><ele>279.6</ele><time>2026-04-20T11:41:20.935Z</time></trkpt><trkpt lat="43.426355" lon="11.2704183"><ele>279.8</ele><time>2026-04-20T11:41:21.935Z</time></trkpt><trkpt lat="43.4262983" lon="11.2705617"><ele>280.0</ele><time>2026-04-20T11:41:22.935Z</time></trkpt><trkpt lat="43.42624" lon="11.2707167"><ele>279.25</ele><time>2026-04-20T11:41:23.936Z</time></trkpt><trkpt lat="43.4261733" lon="11.270875"><ele>278.5</ele><time>2026-04-20T11:41:24.934Z</time></trkpt><trkpt lat="43.4261083" lon="11.2710483"><ele>277.75</ele><time>2026-04-20T11:41:25.934Z</time></trkpt><trkpt lat="43.4260367" lon="11.27122"><ele>277.0</ele><time>2026-04-20T11:41:26.934Z</time></trkpt><trkpt lat="43.4259633" lon="11.271395"><ele>277.25</ele><time>2026-04-20T11:41:27.934Z</time></trkpt><trkpt lat="43.4258983" lon="11.2715717"><ele>277.5</ele><time>2026-04-20T11:41:28.935Z</time></trkpt><trkpt lat="43.425835" lon="11.2717567"><ele>277.75</ele><time>2026-04-20T11:41:29.934Z</time></trkpt><trkpt lat="43.4257667" lon="11.27194"><ele>278.0</ele><time>2026-04-20T11:41:30.934Z</time></trkpt><trkpt lat="43.4257033" lon="11.2721183"><ele>278.5</ele><time>2026-04-20T11:41:31.934Z</time></trkpt><trkpt lat="43.4256283" lon="11.2722917"><ele>279.0</ele><time>2026-04-20T11:41:32.935Z</time></trkpt><trkpt lat="43.4255533" lon="11.2724717"><ele>279.5</ele><time>2026-04-20T11:41:33.935Z</time></trkpt><trkpt lat="43.4254867" lon="11.2726467"><ele>280.0</ele><time>2026-04-20T11:41:34.935Z</time></trkpt><trkpt lat="43.4254083" lon="11.2728267"><ele>279.0</ele><time>2026-04-20T11:41:35.934Z</time></trkpt><trkpt lat="43.4253417" lon="11.2730067"><ele>278.0</ele><time>2026-04-20T11:41:36.934Z</time></trkpt><trkpt lat="43.4252733" lon="11.2731833"><ele>277.0</ele><time>2026-04-20T11:41:37.935Z</time></trkpt><trkpt lat="43.4252083" lon="11.27334"><ele>276.0</ele><time>2026-04-20T11:41:38.934Z</time></trkpt><trkpt lat="43.4251467" lon="11.2734883"><ele>276.0</ele><time>2026-04-20T11:41:39.934Z</time></trkpt><trkpt lat="43.4250883" lon="11.27362"><ele>276.0</ele><time>2026-04-20T11:41:40.934Z</time></trkpt><trkpt lat="43.4250417" lon="11.2737233"><ele>276.0</ele><time>2026-04-20T11:41:41.934Z</time></trkpt><trkpt lat="43.425015" lon="11.27382"><ele>276.0</ele><time>2026-04-20T11:41:42.934Z</time></trkpt><trkpt lat="43.4249917" lon="11.273935"><ele>276.0</ele><time>2026-04-20T11:41:43.934Z</time></trkpt><trkpt lat="43.424975" lon="11.2740517"><ele>276.0</ele><time>2026-04-20T11:41:44.934Z</time></trkpt><trkpt lat="43.424975" lon="11.27417"><ele>276.1666666666667</ele><time>2026-04-20T11:41:45.934Z</time></trkpt><trkpt lat="43.424985" lon="11.2743"><ele>276.3333333333333</ele><time>2026-04-20T11:41:46.934Z</time></trkpt><trkpt lat="43.4249917" lon="11.2744383"><ele>276.5</ele><time>2026-04-20T11:41:47.935Z</time></trkpt><trkpt lat="43.4249967" lon="11.27456"><ele>276.66666666666663</ele><time>2026-04-20T11:41:48.934Z</time></trkpt><trkpt lat="43.4249983" lon="11.2746717"><ele>276.8333333333333</ele><time>2026-04-20T11:41:49.934Z</time></trkpt><trkpt lat="43.424995" lon="11.2747733"><ele>277.0</ele><time>2026-04-20T11:41:50.934Z</time></trkpt><trkpt lat="43.42498" lon="11.27486"><ele>277.0</ele><time>2026-04-20T11:41:51.935Z</time></trkpt><trkpt lat="43.42491" lon="11.27502"><ele>277.0</ele><time>2026-04-20T11:41:53.934Z</time></trkpt><trkpt lat="43.4248483" lon="11.2751033"><ele>277.0</ele><time>2026-04-20T11:41:54.934Z</time></trkpt><trkpt lat="43.4247817" lon="11.275185"><ele>277.0</ele><time>2026-04-20T11:41:55.934Z</time></trkpt><trkpt lat="43.4247067" lon="11.2752717"><ele>277.0</ele><time>2026-04-20T11:41:56.935Z</time></trkpt><trkpt lat="43.42463" lon="11.2753617"><ele>277.0</ele><time>2026-04-20T11:41:57.934Z</time></trkpt><trkpt lat="43.4245467" lon="11.2754667"><ele>277.0</ele><time>2026-04-20T11:41:58.934Z</time></trkpt><trkpt lat="43.4244617" lon="11.2755717"><ele>277.0</ele><time>2026-04-20T11:41:59.934Z</time></trkpt><trkpt lat="43.4243667" lon="11.2756717"><ele>277.0</ele><time>2026-04-20T11:42:00.934Z</time></trkpt><trkpt lat="43.42427" lon="11.2757517"><ele>277.8</ele><time>2026-04-20T11:42:01.934Z</time></trkpt><trkpt lat="43.42418" lon="11.2757933"><ele>278.6</ele><time>2026-04-20T11:42:02.934Z</time></trkpt><trkpt lat="43.424085" lon="11.2758333"><ele>279.40000000000003</ele><time>2026-04-20T11:42:03.934Z</time></trkpt><trkpt lat="43.4239867" lon="11.27587"><ele>280.2</ele><time>2026-04-20T11:42:04.934Z</time></trkpt><trkpt lat="43.4238917" lon="11.2759267"><ele>281.0</ele><time>2026-04-20T11:42:05.934Z</time></trkpt><trkpt lat="43.423795" lon="11.2759883"><ele>281.0</ele><time>2026-04-20T11:42:06.934Z</time></trkpt><trkpt lat="43.4237017" lon="11.2760567"><ele>281.0</ele><time>2026-04-20T11:42:07.935Z</time></trkpt><trkpt lat="43.4236117" lon="11.276135"><ele>281.0</ele><time>2026-04-20T11:42:08.934Z</time></trkpt><trkpt lat="43.423525" lon="11.2762067"><ele>281.0</ele><time>2026-04-20T11:42:09.934Z</time></trkpt><trkpt lat="43.4234267" lon="11.2762933"><ele>281.0</ele><time>2026-04-20T11:42:10.934Z</time></trkpt><trkpt lat="43.42333" lon="11.27639"><ele>282.25</ele><time>2026-04-20T11:42:11.934Z</time></trkpt><trkpt lat="43.4232183" lon="11.2764867"><ele>283.5</ele><time>2026-04-20T11:42:12.934Z</time></trkpt><trkpt lat="43.423105" lon="11.2765983"><ele>284.75</ele><time>2026-04-20T11:42:13.934Z</time></trkpt><trkpt lat="43.42298" lon="11.2767167"><ele>286.0</ele><time>2026-04-20T11:42:14.934Z</time></trkpt><trkpt lat="43.422855" lon="11.2768317"><ele>286.0</ele><time>2026-04-20T11:42:15.934Z</time></trkpt><trkpt lat="43.4227367" lon="11.2769367"><ele>286.0</ele><time>2026-04-20T11:42:16.934Z</time></trkpt><trkpt lat="43.4226183" lon="11.2770317"><ele>286.0</ele><time>2026-04-20T11:42:17.934Z</time></trkpt><trkpt lat="43.422495" lon="11.2771233"><ele>286.0</ele><time>2026-04-20T11:42:18.934Z</time></trkpt><trkpt lat="43.4223833" lon="11.2772067"><ele>287.40000000000003</ele><time>2026-04-20T11:42:19.934Z</time></trkpt><trkpt lat="43.4222917" lon="11.27728"><ele>288.8</ele><time>2026-04-20T11:42:20.934Z</time></trkpt><trkpt lat="43.4222217" lon="11.27735"><ele>290.20000000000005</ele><time>2026-04-20T11:42:21.934Z</time></trkpt><trkpt lat="43.4221633" lon="11.277445"><ele>291.6</ele><time>2026-04-20T11:42:22.934Z</time></trkpt><trkpt lat="43.422125" lon="11.2775583"><ele>293.0</ele><time>2026-04-20T11:42:23.934Z</time></trkpt><trkpt lat="43.4220783" lon="11.277665"><ele>293.0</ele><time>2026-04-20T11:42:24.934Z</time></trkpt><trkpt lat="43.42202" lon="11.2777417"><ele>293.0</ele><time>2026-04-20T11:42:25.934Z</time></trkpt><trkpt lat="43.4219467" lon="11.2777717"><ele>293.0</ele><time>2026-04-20T11:42:26.935Z</time></trkpt><trkpt lat="43.421865" lon="11.2777683"><ele>293.0</ele><time>2026-04-20T11:42:27.934Z</time></trkpt><trkpt lat="43.4217933" lon="11.2777533"><ele>293.0</ele><time>2026-04-20T11:42:28.934Z</time></trkpt><trkpt lat="43.4217033" lon="11.2777433"><ele>293.0</ele><time>2026-04-20T11:42:29.935Z</time></trkpt><trkpt lat="43.4216167" lon="11.2777367"><ele>293.0</ele><time>2026-04-20T11:42:30.934Z</time></trkpt><trkpt lat="43.4215367" lon="11.2777717"><ele>293.0</ele><time>2026-04-20T11:42:31.934Z</time></trkpt><trkpt lat="43.4214633" lon="11.2778233"><ele>293.0</ele><time>2026-04-20T11:42:32.935Z</time></trkpt><trkpt lat="43.4214067" lon="11.27789"><ele>293.0</ele><time>2026-04-20T11:42:33.934Z</time></trkpt><trkpt lat="43.421345" lon="11.2779717"><ele>293.0</ele><time>2026-04-20T11:42:34.934Z</time></trkpt><trkpt lat="43.42128" lon="11.2780633"><ele>293.0</ele><time>2026-04-20T11:42:35.934Z</time></trkpt><trkpt lat="43.4212133" lon="11.27816"><ele>293.25</ele><time>2026-04-20T11:42:36.934Z</time></trkpt><trkpt lat="43.4211283" lon="11.2782583"><ele>293.5</ele><time>2026-04-20T11:42:37.935Z</time></trkpt><trkpt lat="43.4210367" lon="11.278365"><ele>293.75</ele><time>2026-04-20T11:42:38.934Z</time></trkpt><trkpt lat="43.4209483" lon="11.2784733"><ele>294.0</ele><time>2026-04-20T11:42:39.934Z</time></trkpt><trkpt lat="43.4208683" lon="11.2785767"><ele>294.0</ele><time>2026-04-20T11:42:40.934Z</time></trkpt><trkpt lat="43.4207933" lon="11.2786867"><ele>294.0</ele><time>2026-04-20T11:42:41.935Z</time></trkpt><trkpt lat="43.4207117" lon="11.2788033"><ele>294.0</ele><time>2026-04-20T11:42:42.934Z</time></trkpt><trkpt lat="43.4206383" lon="11.27892"><ele>294.0</ele><time>2026-04-20T11:42:43.934Z</time></trkpt><trkpt lat="43.420575" lon="11.2790317"><ele>294.0</ele><time>2026-04-20T11:42:44.934Z</time></trkpt><trkpt lat="43.4205317" lon="11.279155"><ele>292.59999999999997</ele><time>2026-04-20T11:42:45.934Z</time></trkpt><trkpt lat="43.4205" lon="11.2792833"><ele>291.2</ele><time>2026-04-20T11:42:46.934Z</time></trkpt><trkpt lat="43.4204767" lon="11.2793933"><ele>289.79999999999995</ele><time>2026-04-20T11:42:47.934Z</time></trkpt><trkpt lat="43.4204317" lon="11.279495"><ele>288.4</ele><time>2026-04-20T11:42:48.934Z</time></trkpt><trkpt lat="43.4203733" lon="11.279585"><ele>287.0</ele><time>2026-04-20T11:42:49.934Z</time></trkpt><trkpt lat="43.4202967" lon="11.2796633"><ele>287.0</ele><time>2026-04-20T11:42:50.935Z</time></trkpt><trkpt lat="43.4202067" lon="11.2797283"><ele>287.0</ele><time>2026-04-20T11:42:51.934Z</time></trkpt><trkpt lat="43.4201083" lon="11.2797767"><ele>287.0</ele><time>2026-04-20T11:42:52.934Z</time></trkpt><trkpt lat="43.4200017" lon="11.2798483"><ele>287.0</ele><time>2026-04-20T11:42:53.934Z</time></trkpt><trkpt lat="43.4198967" lon="11.2799417"><ele>286.25</ele><time>2026-04-20T11:42:54.934Z</time></trkpt><trkpt lat="43.4197967" lon="11.2800367"><ele>285.5</ele><time>2026-04-20T11:42:55.934Z</time></trkpt><trkpt lat="43.4196967" lon="11.280145"><ele>284.75</ele><time>2026-04-20T11:42:56.935Z</time></trkpt><trkpt lat="43.419595" lon="11.2802617"><ele>284.0</ele><time>2026-04-20T11:42:57.934Z</time></trkpt><trkpt lat="43.4195" lon="11.2803683"><ele>284.0</ele><time>2026-04-20T11:42:58.935Z</time></trkpt><trkpt lat="43.4194067" lon="11.2804767"><ele>284.0</ele><time>2026-04-20T11:42:59.934Z</time></trkpt><trkpt lat="43.4193233" lon="11.2805833"><ele>284.0</ele><time>2026-04-20T11:43:00.934Z</time></trkpt><trkpt lat="43.4192433" lon="11.28068"><ele>284.0</ele><time>2026-04-20T11:43:01.934Z</time></trkpt><trkpt lat="43.4191633" lon="11.28078"><ele>282.2</ele><time>2026-04-20T11:43:02.934Z</time></trkpt><trkpt lat="43.4190883" lon="11.2808817"><ele>280.4</ele><time>2026-04-20T11:43:03.934Z</time></trkpt><trkpt lat="43.4190083" lon="11.2809883"><ele>278.6</ele><time>2026-04-20T11:43:04.934Z</time></trkpt><trkpt lat="43.418925" lon="11.2810967"><ele>276.8</ele><time>2026-04-20T11:43:05.934Z</time></trkpt><trkpt lat="43.418845" lon="11.28119"><ele>275.0</ele><time>2026-04-20T11:43:06.934Z</time></trkpt><trkpt lat="43.4187667" lon="11.2812867"><ele>274.83333333333337</ele><time>2026-04-20T11:43:07.934Z</time></trkpt><trkpt lat="43.4186983" lon="11.2813683"><ele>274.6666666666667</ele><time>2026-04-20T11:43:08.934Z</time></trkpt><trkpt lat="43.418625" lon="11.2814317"><ele>274.5</ele><time>2026-04-20T11:43:09.934Z</time></trkpt><trkpt lat="43.418555" lon="11.281475"><ele>274.3333333333333</ele><time>2026-04-20T11:43:10.934Z</time></trkpt><trkpt lat="43.4184733" lon="11.28149"><ele>274.16666666666663</ele><time>2026-04-20T11:43:11.934Z</time></trkpt><trkpt lat="43.4183883" lon="11.2814667"><ele>274.0</ele><time>2026-04-20T11:43:12.934Z</time></trkpt><trkpt lat="43.4182883" lon="11.28143"><ele>274.0</ele><time>2026-04-20T11:43:13.934Z</time></trkpt><trkpt lat="43.4181983" lon="11.2813783"><ele>274.0</ele><time>2026-04-20T11:43:14.934Z</time></trkpt><trkpt lat="43.4181017" lon="11.2813367"><ele>274.0</ele><time>2026-04-20T11:43:15.934Z</time></trkpt><trkpt lat="43.4180083" lon="11.28131"><ele>274.0</ele><time>2026-04-20T11:43:16.934Z</time></trkpt><trkpt lat="43.417925" lon="11.281305"><ele>274.0</ele><time>2026-04-20T11:43:17.935Z</time></trkpt><trkpt lat="43.4178467" lon="11.28133"><ele>273.2</ele><time>2026-04-20T11:43:18.935Z</time></trkpt><trkpt lat="43.4177717" lon="11.2813683"><ele>272.4</ele><time>2026-04-20T11:43:19.934Z</time></trkpt><trkpt lat="43.4176833" lon="11.2814283"><ele>271.6</ele><time>2026-04-20T11:43:20.934Z</time></trkpt><trkpt lat="43.4175983" lon="11.2814967"><ele>270.8</ele><time>2026-04-20T11:43:21.934Z</time></trkpt><trkpt lat="43.4175033" lon="11.2815633"><ele>270.0</ele><time>2026-04-20T11:43:22.934Z</time></trkpt><trkpt lat="43.417425" lon="11.2816217"><ele>268.8</ele><time>2026-04-20T11:43:23.934Z</time></trkpt><trkpt lat="43.4173433" lon="11.281675"><ele>267.6</ele><time>2026-04-20T11:43:24.935Z</time></trkpt><trkpt lat="43.4172467" lon="11.2817367"><ele>266.4</ele><time>2026-04-20T11:43:25.934Z</time></trkpt><trkpt lat="43.4171417" lon="11.28181"><ele>265.2</ele><time>2026-04-20T11:43:26.935Z</time></trkpt><trkpt lat="43.417015" lon="11.2818633"><ele>264.0</ele><time>2026-04-20T11:43:27.934Z</time></trkpt><trkpt lat="43.4168883" lon="11.2819117"><ele>263.59999999999997</ele><time>2026-04-20T11:43:28.934Z</time></trkpt><trkpt lat="43.4167667" lon="11.28195"><ele>263.2</ele><time>2026-04-20T11:43:29.934Z</time></trkpt><trkpt lat="43.41666" lon="11.28198"><ele>262.79999999999995</ele><time>2026-04-20T11:43:30.934Z</time></trkpt><trkpt lat="43.4165583" lon="11.2820133"><ele>262.4</ele><time>2026-04-20T11:43:31.935Z</time></trkpt><trkpt lat="43.4164733" lon="11.2820417"><ele>262.0</ele><time>2026-04-20T11:43:32.934Z</time></trkpt><trkpt lat="43.4163933" lon="11.282065"><ele>262.0</ele><time>2026-04-20T11:43:33.934Z</time></trkpt><trkpt lat="43.41632" lon="11.28211"><ele>262.0</ele><time>2026-04-20T11:43:34.934Z</time></trkpt><trkpt lat="43.416255" lon="11.2821833"><ele>262.0</ele><time>2026-04-20T11:43:35.934Z</time></trkpt><trkpt lat="43.416215" lon="11.28227"><ele>262.0</ele><time>2026-04-20T11:43:36.934Z</time></trkpt><trkpt lat="43.4162033" lon="11.28236"><ele>262.0</ele><time>2026-04-20T11:43:37.934Z</time></trkpt><trkpt lat="43.4162" lon="11.2824517"><ele>262.0</ele><time>2026-04-20T11:43:38.934Z</time></trkpt><trkpt lat="43.4161683" lon="11.2826133"><ele>261.8333333333333</ele><time>2026-04-20T11:43:40.934Z</time></trkpt><trkpt lat="43.4161183" lon="11.2826783"><ele>261.66666666666663</ele><time>2026-04-20T11:43:41.934Z</time></trkpt><trkpt lat="43.416065" lon="11.2827333"><ele>261.5</ele><time>2026-04-20T11:43:42.935Z</time></trkpt><trkpt lat="43.4160083" lon="11.2827817"><ele>261.3333333333333</ele><time>2026-04-20T11:43:43.934Z</time></trkpt><trkpt lat="43.4159483" lon="11.2828533"><ele>261.1666666666667</ele><time>2026-04-20T11:43:44.934Z</time></trkpt><trkpt lat="43.4158817" lon="11.2829483"><ele>261.0</ele><time>2026-04-20T11:43:45.934Z</time></trkpt><trkpt lat="43.4158133" lon="11.2830583"><ele>262.5</ele><time>2026-04-20T11:43:46.934Z</time></trkpt><trkpt lat="43.4157383" lon="11.2831883"><ele>264.0</ele><time>2026-04-20T11:43:47.934Z</time></trkpt><trkpt lat="43.41567" lon="11.2833083"><ele>265.5</ele><time>2026-04-20T11:43:48.934Z</time></trkpt><trkpt lat="43.4155933" lon="11.2834533"><ele>267.0</ele><time>2026-04-20T11:43:49.934Z</time></trkpt><trkpt lat="43.415515" lon="11.2836083"><ele>267.75</ele><time>2026-04-20T11:43:50.934Z</time></trkpt><trkpt lat="43.4154267" lon="11.283755"><ele>268.5</ele><time>2026-04-20T11:43:51.934Z</time></trkpt><trkpt lat="43.415345" lon="11.28391"><ele>269.25</ele><time>2026-04-20T11:43:52.934Z</time></trkpt><trkpt lat="43.41526" lon="11.2840717"><ele>270.0</ele><time>2026-04-20T11:43:53.935Z</time></trkpt><trkpt lat="43.4151883" lon="11.2842333"><ele>271.75</ele><time>2026-04-20T11:43:54.934Z</time></trkpt><trkpt lat="43.4151067" lon="11.2843817"><ele>273.5</ele><time>2026-04-20T11:43:55.935Z</time></trkpt><trkpt lat="43.415045" lon="11.2845083"><ele>275.25</ele><time>2026-04-20T11:43:56.935Z</time></trkpt><trkpt lat="43.4149767" lon="11.2846183"><ele>277.0</ele><time>2026-04-20T11:43:57.934Z</time></trkpt><trkpt lat="43.414905" lon="11.28473"><ele>277.0</ele><time>2026-04-20T11:43:58.934Z</time></trkpt><trkpt lat="43.4148283" lon="11.2848267"><ele>277.0</ele><time>2026-04-20T11:43:59.935Z</time></trkpt><trkpt lat="43.4147367" lon="11.2849233"><ele>277.0</ele><time>2026-04-20T11:44:00.935Z</time></trkpt><trkpt lat="43.4146283" lon="11.285005"><ele>277.0</ele><time>2026-04-20T11:44:01.935Z</time></trkpt><trkpt lat="43.4145233" lon="11.285085"><ele>277.0</ele><time>2026-04-20T11:44:02.934Z</time></trkpt><trkpt lat="43.4144217" lon="11.2851733"><ele>277.0</ele><time>2026-04-20T11:44:03.934Z</time></trkpt><trkpt lat="43.414325" lon="11.2852683"><ele>277.0</ele><time>2026-04-20T11:44:04.934Z</time></trkpt><trkpt lat="43.4142267" lon="11.2853833"><ele>277.0</ele><time>2026-04-20T11:44:05.934Z</time></trkpt><trkpt lat="43.4141317" lon="11.2855"><ele>278.75</ele><time>2026-04-20T11:44:06.934Z</time></trkpt><trkpt lat="43.41404" lon="11.2856417"><ele>280.5</ele><time>2026-04-20T11:44:07.934Z</time></trkpt><trkpt lat="43.41396" lon="11.2857783"><ele>282.25</ele><time>2026-04-20T11:44:08.935Z</time></trkpt><trkpt lat="43.413895" lon="11.28592"><ele>284.0</ele><time>2026-04-20T11:44:09.934Z</time></trkpt><trkpt lat="43.41383" lon="11.2860567"><ele>281.0</ele><time>2026-04-20T11:44:10.935Z</time></trkpt><trkpt lat="43.4137783" lon="11.286205"><ele>278.0</ele><time>2026-04-20T11:44:11.934Z</time></trkpt><trkpt lat="43.4137283" lon="11.2863683"><ele>275.0</ele><time>2026-04-20T11:44:12.935Z</time></trkpt><trkpt lat="43.413675" lon="11.2865467"><ele>272.0</ele><time>2026-04-20T11:44:13.935Z</time></trkpt><trkpt lat="43.4136283" lon="11.2867283"><ele>272.0</ele><time>2026-04-20T11:44:14.934Z</time></trkpt><trkpt lat="43.4135733" lon="11.286905"><ele>272.0</ele><time>2026-04-20T11:44:15.935Z</time></trkpt><trkpt lat="43.4135267" lon="11.287065"><ele>272.0</ele><time>2026-04-20T11:44:16.935Z</time></trkpt><trkpt lat="43.4134867" lon="11.2872067"><ele>272.0</ele><time>2026-04-20T11:44:17.935Z</time></trkpt><trkpt lat="43.4134417" lon="11.287325"><ele>272.4</ele><time>2026-04-20T11:44:18.934Z</time></trkpt><trkpt lat="43.413385" lon="11.2874167"><ele>272.79999999999995</ele><time>2026-04-20T11:44:19.934Z</time></trkpt><trkpt lat="43.4133067" lon="11.287485"><ele>273.2</ele><time>2026-04-20T11:44:20.934Z</time></trkpt><trkpt lat="43.4132183" lon="11.2875433"><ele>273.59999999999997</ele><time>2026-04-20T11:44:21.934Z</time></trkpt><trkpt lat="43.4131183" lon="11.2875883"><ele>274.0</ele><time>2026-04-20T11:44:22.935Z</time></trkpt><trkpt lat="43.4130167" lon="11.287625"><ele>274.0</ele><time>2026-04-20T11:44:23.934Z</time></trkpt><trkpt lat="43.41292" lon="11.2876667"><ele>274.0</ele><time>2026-04-20T11:44:24.935Z</time></trkpt><trkpt lat="43.4128083" lon="11.2876917"><ele>274.0</ele><time>2026-04-20T11:44:25.935Z</time></trkpt><trkpt lat="43.4126933" lon="11.2876983"><ele>274.0</ele><time>2026-04-20T11:44:26.934Z</time></trkpt><trkpt lat="43.4125883" lon="11.2876917"><ele>274.0</ele><time>2026-04-20T11:44:27.934Z</time></trkpt><trkpt lat="43.4124817" lon="11.2876733"><ele>274.0</ele><time>2026-04-20T11:44:28.934Z</time></trkpt><trkpt lat="43.4123717" lon="11.2876533"><ele>274.0</ele><time>2026-04-20T11:44:29.934Z</time></trkpt><trkpt lat="43.412275" lon="11.2876333"><ele>274.0</ele><time>2026-04-20T11:44:30.935Z</time></trkpt><trkpt lat="43.4121733" lon="11.2876317"><ele>274.0</ele><time>2026-04-20T11:44:31.935Z</time></trkpt><trkpt lat="43.4120867" lon="11.2876533"><ele>274.0</ele><time>2026-04-20T11:44:32.934Z</time></trkpt><trkpt lat="43.4119867" lon="11.2876867"><ele>274.0</ele><time>2026-04-20T11:44:33.934Z</time></trkpt><trkpt lat="43.4119017" lon="11.2877367"><ele>274.0</ele><time>2026-04-20T11:44:34.935Z</time></trkpt><trkpt lat="43.4118033" lon="11.2877833"><ele>274.0</ele><time>2026-04-20T11:44:35.934Z</time></trkpt><trkpt lat="43.4117083" lon="11.28785"><ele>274.0</ele><time>2026-04-20T11:44:36.935Z</time></trkpt><trkpt lat="43.4116133" lon="11.2879283"><ele>274.0</ele><time>2026-04-20T11:44:37.935Z</time></trkpt><trkpt lat="43.411525" lon="11.2880183"><ele>275.0</ele><time>2026-04-20T11:44:38.934Z</time></trkpt><trkpt lat="43.41143" lon="11.28813"><ele>276.0</ele><time>2026-04-20T11:44:39.934Z</time></trkpt><trkpt lat="43.4113483" lon="11.28825"><ele>277.0</ele><time>2026-04-20T11:44:40.934Z</time></trkpt><trkpt lat="43.41127" lon="11.2883867"><ele>278.0</ele><time>2026-04-20T11:44:41.935Z</time></trkpt><trkpt lat="43.41121" lon="11.288525"><ele>278.0</ele><time>2026-04-20T11:44:42.934Z</time></trkpt><trkpt lat="43.4111567" lon="11.288665"><ele>278.0</ele><time>2026-04-20T11:44:43.934Z</time></trkpt><trkpt lat="43.4111117" lon="11.2887967"><ele>278.0</ele><time>2026-04-20T11:44:44.934Z</time></trkpt><trkpt lat="43.4110667" lon="11.2889017"><ele>278.0</ele><time>2026-04-20T11:44:45.935Z</time></trkpt><trkpt lat="43.4110133" lon="11.289005"><ele>278.0</ele><time>2026-04-20T11:44:46.935Z</time></trkpt><trkpt lat="43.4109467" lon="11.2890817"><ele>278.8</ele><time>2026-04-20T11:44:47.934Z</time></trkpt><trkpt lat="43.410865" lon="11.2891383"><ele>279.6</ele><time>2026-04-20T11:44:48.934Z</time></trkpt><trkpt lat="43.4107667" lon="11.2891683"><ele>280.4</ele><time>2026-04-20T11:44:49.934Z</time></trkpt><trkpt lat="43.4106533" lon="11.2891867"><ele>281.2</ele><time>2026-04-20T11:44:50.934Z</time></trkpt><trkpt lat="43.4105267" lon="11.2892083"><ele>282.0</ele><time>2026-04-20T11:44:51.934Z</time></trkpt><trkpt lat="43.4104117" lon="11.289235"><ele>282.5</ele><time>2026-04-20T11:44:52.934Z</time></trkpt><trkpt lat="43.41031" lon="11.2892583"><ele>283.0</ele><time>2026-04-20T11:44:53.934Z</time></trkpt><trkpt lat="43.4101983" lon="11.2892983"><ele>283.5</ele><time>2026-04-20T11:44:54.934Z</time></trkpt><trkpt lat="43.41009" lon="11.28933"><ele>284.0</ele><time>2026-04-20T11:44:55.934Z</time></trkpt><trkpt lat="43.4099667" lon="11.2893667"><ele>284.0</ele><time>2026-04-20T11:44:56.935Z</time></trkpt><trkpt lat="43.4098533" lon="11.2894083"><ele>284.0</ele><time>2026-04-20T11:44:57.934Z</time></trkpt><trkpt lat="43.40974" lon="11.2894617"><ele>284.0</ele><time>2026-04-20T11:44:58.935Z</time></trkpt><trkpt lat="43.4096367" lon="11.2895217"><ele>284.0</ele><time>2026-04-20T11:44:59.934Z</time></trkpt><trkpt lat="43.4095233" lon="11.2895867"><ele>285.25</ele><time>2026-04-20T11:45:00.934Z</time></trkpt><trkpt lat="43.4094117" lon="11.28965"><ele>286.5</ele><time>2026-04-20T11:45:01.934Z</time></trkpt><trkpt lat="43.4092883" lon="11.2897117"><ele>287.75</ele><time>2026-04-20T11:45:02.934Z</time></trkpt><trkpt lat="43.4091667" lon="11.2897617"><ele>289.0</ele><time>2026-04-20T11:45:03.934Z</time></trkpt><trkpt lat="43.4090467" lon="11.2897983"><ele>289.66666666666663</ele><time>2026-04-20T11:45:04.934Z</time></trkpt><trkpt lat="43.4089367" lon="11.289835"><ele>290.3333333333333</ele><time>2026-04-20T11:45:05.935Z</time></trkpt><trkpt lat="43.4088533" lon="11.2898967"><ele>291.0</ele><time>2026-04-20T11:45:06.934Z</time></trkpt><trkpt lat="43.4087833" lon="11.2899717"><ele>291.6666666666667</ele><time>2026-04-20T11:45:07.934Z</time></trkpt><trkpt lat="43.4087283" lon="11.2900417"><ele>292.33333333333337</ele><time>2026-04-20T11:45:08.934Z</time></trkpt><trkpt lat="43.4086733" lon="11.2901033"><ele>293.0</ele><time>2026-04-20T11:45:09.935Z</time></trkpt><trkpt lat="43.4085667" lon="11.2901717"><ele>293.2</ele><time>2026-04-20T11:45:11.934Z</time></trkpt><trkpt lat="43.4084917" lon="11.2902217"><ele>293.4</ele><time>2026-04-20T11:45:13.935Z</time></trkpt><trkpt lat="43.4084433" lon="11.2903267"><ele>293.59999999999997</ele><time>2026-04-20T11:45:15.935Z</time></trkpt><trkpt lat="43.4084617" lon="11.2904917"><ele>293.8</ele><time>2026-04-20T11:45:17.934Z</time></trkpt><trkpt lat="43.4085" lon="11.2905867"><ele>294.0</ele><time>2026-04-20T11:45:18.935Z</time></trkpt><trkpt lat="43.408575" lon="11.2907017"><ele>294.0</ele><time>2026-04-20T11:45:19.934Z</time></trkpt><trkpt lat="43.4086717" lon="11.2908017"><ele>294.0</ele><time>2026-04-20T11:45:20.934Z</time></trkpt><trkpt lat="43.4087817" lon="11.29089"><ele>294.0</ele><time>2026-04-20T11:45:21.934Z</time></trkpt><trkpt lat="43.4088933" lon="11.290995"><ele>294.0</ele><time>2026-04-20T11:45:22.934Z</time></trkpt><trkpt lat="43.40901" lon="11.2911033"><ele>295.25</ele><time>2026-04-20T11:45:23.934Z</time></trkpt><trkpt lat="43.4091267" lon="11.291205"><ele>296.5</ele><time>2026-04-20T11:45:24.934Z</time></trkpt><trkpt lat="43.4092367" lon="11.2913167"><ele>297.75</ele><time>2026-04-20T11:45:25.934Z</time></trkpt><trkpt lat="43.4093433" lon="11.291435"><ele>299.0</ele><time>2026-04-20T11:45:26.934Z</time></trkpt><trkpt lat="43.40945" lon="11.291565"><ele>300.5</ele><time>2026-04-20T11:45:27.934Z</time></trkpt><trkpt lat="43.409555" lon="11.2917083"><ele>302.0</ele><time>2026-04-20T11:45:28.934Z</time></trkpt><trkpt lat="43.409665" lon="11.2918533"><ele>303.5</ele><time>2026-04-20T11:45:29.934Z</time></trkpt><trkpt lat="43.4097717" lon="11.2919967"><ele>305.0</ele><time>2026-04-20T11:45:30.934Z</time></trkpt><trkpt lat="43.4098767" lon="11.292115"><ele>306.75</ele><time>2026-04-20T11:45:31.934Z</time></trkpt><trkpt lat="43.4099933" lon="11.292215"><ele>308.5</ele><time>2026-04-20T11:45:32.934Z</time></trkpt><trkpt lat="43.41012" lon="11.292315"><ele>310.25</ele><time>2026-04-20T11:45:33.934Z</time></trkpt><trkpt lat="43.410255" lon="11.2924217"><ele>312.0</ele><time>2026-04-20T11:45:34.934Z</time></trkpt><trkpt lat="43.4103917" lon="11.292535"><ele>311.3333333333333</ele><time>2026-04-20T11:45:35.934Z</time></trkpt><trkpt lat="43.4105283" lon="11.2926517"><ele>310.66666666666663</ele><time>2026-04-20T11:45:36.934Z</time></trkpt><trkpt lat="43.4106733" lon="11.2927583"><ele>310.0</ele><time>2026-04-20T11:45:37.935Z</time></trkpt><trkpt lat="43.4108267" lon="11.29287"><ele>310.0</ele><time>2026-04-20T11:45:38.934Z</time></trkpt><trkpt lat="43.4109917" lon="11.2929533"><ele>310.0</ele><time>2026-04-20T11:45:39.934Z</time></trkpt><trkpt lat="43.4111683" lon="11.29301"><ele>310.0</ele><time>2026-04-20T11:45:40.934Z</time></trkpt><trkpt lat="43.4113517" lon="11.2930417"><ele>310.0</ele><time>2026-04-20T11:45:41.934Z</time></trkpt><trkpt lat="43.4115367" lon="11.2930333"><ele>310.0</ele><time>2026-04-20T11:45:42.934Z</time></trkpt><trkpt lat="43.4117183" lon="11.2930133"><ele>310.0</ele><time>2026-04-20T11:45:43.934Z</time></trkpt><trkpt lat="43.4118967" lon="11.2929733"><ele>310.0</ele><time>2026-04-20T11:45:44.934Z</time></trkpt><trkpt lat="43.41207" lon="11.2929433"><ele>310.0</ele><time>2026-04-20T11:45:45.934Z</time></trkpt><trkpt lat="43.41225" lon="11.2929133"><ele>310.0</ele><time>2026-04-20T11:45:46.934Z</time></trkpt><trkpt lat="43.4124267" lon="11.2928833"><ele>312.0</ele><time>2026-04-20T11:45:47.934Z</time></trkpt><trkpt lat="43.4126017" lon="11.2928517"><ele>314.0</ele><time>2026-04-20T11:45:48.935Z</time></trkpt><trkpt lat="43.412775" lon="11.2928283"><ele>316.0</ele><time>2026-04-20T11:45:49.934Z</time></trkpt><trkpt lat="43.4129533" lon="11.2928017"><ele>318.0</ele><time>2026-04-20T11:45:50.935Z</time></trkpt><trkpt lat="43.4131417" lon="11.29278"><ele>320.0</ele><time>2026-04-20T11:45:51.934Z</time></trkpt><trkpt lat="43.413335" lon="11.2927733"><ele>322.0</ele><time>2026-04-20T11:45:52.934Z</time></trkpt><trkpt lat="43.413515" lon="11.292775"><ele>322.0</ele><time>2026-04-20T11:45:53.935Z</time></trkpt><trkpt lat="43.4137133" lon="11.29278"><ele>322.0</ele><time>2026-04-20T11:45:54.934Z</time></trkpt><trkpt lat="43.413915" lon="11.2927917"><ele>322.0</ele><time>2026-04-20T11:45:55.934Z</time></trkpt><trkpt lat="43.414125" lon="11.292805"><ele>322.3333333333333</ele><time>2026-04-20T11:45:56.935Z</time></trkpt><trkpt lat="43.4143283" lon="11.2928183"><ele>322.6666666666667</ele><time>2026-04-20T11:45:57.934Z</time></trkpt><trkpt lat="43.4145233" lon="11.2928367"><ele>323.0</ele><time>2026-04-20T11:45:58.935Z</time></trkpt><trkpt lat="43.4147133" lon="11.2928533"><ele>323.0</ele><time>2026-04-20T11:45:59.934Z</time></trkpt><trkpt lat="43.414905" lon="11.2928983"><ele>323.0</ele><time>2026-04-20T11:46:00.934Z</time></trkpt><trkpt lat="43.4150867" lon="11.29297"><ele>323.0</ele><time>2026-04-20T11:46:01.934Z</time></trkpt><trkpt lat="43.4152717" lon="11.2930733"><ele>324.33333333333337</ele><time>2026-04-20T11:46:02.934Z</time></trkpt><trkpt lat="43.4154517" lon="11.2931867"><ele>325.6666666666667</ele><time>2026-04-20T11:46:03.934Z</time></trkpt><trkpt lat="43.4156267" lon="11.2933067"><ele>327.0</ele><time>2026-04-20T11:46:04.934Z</time></trkpt><trkpt lat="43.415795" lon="11.2934167"><ele>328.0</ele><time>2026-04-20T11:46:05.934Z</time></trkpt><trkpt lat="43.4159567" lon="11.2935167"><ele>329.0</ele><time>2026-04-20T11:46:06.934Z</time></trkpt><trkpt lat="43.4160983" lon="11.2936283"><ele>330.0</ele><time>2026-04-20T11:46:07.935Z</time></trkpt><trkpt lat="43.4162117" lon="11.2937833"><ele>332.6666666666667</ele><time>2026-04-20T11:46:08.934Z</time></trkpt><trkpt lat="43.416315" lon="11.29396"><ele>335.33333333333337</ele><time>2026-04-20T11:46:09.935Z</time></trkpt><trkpt lat="43.4164" lon="11.294165"><ele>338.0</ele><time>2026-04-20T11:46:10.934Z</time></trkpt><trkpt lat="43.4164583" lon="11.2943983"><ele>338.0</ele><time>2026-04-20T11:46:11.935Z</time></trkpt><trkpt lat="43.4165033" lon="11.2946483"><ele>338.0</ele><time>2026-04-20T11:46:12.935Z</time></trkpt><trkpt lat="43.4165467" lon="11.2949067"><ele>338.0</ele><time>2026-04-20T11:46:13.935Z</time></trkpt><trkpt lat="43.4165867" lon="11.2951483"><ele>338.0</ele><time>2026-04-20T11:46:14.934Z</time></trkpt><trkpt lat="43.4166417" lon="11.2953683"><ele>338.0</ele><time>2026-04-20T11:46:15.934Z</time></trkpt><trkpt lat="43.416695" lon="11.2955667"><ele>338.0</ele><time>2026-04-20T11:46:16.934Z</time></trkpt><trkpt lat="43.4167717" lon="11.2957417"><ele>338.0</ele><time>2026-04-20T11:46:17.934Z</time></trkpt><trkpt lat="43.4168633" lon="11.29588"><ele>338.0</ele><time>2026-04-20T11:46:18.934Z</time></trkpt><trkpt lat="43.4169767" lon="11.295985"><ele>338.0</ele><time>2026-04-20T11:46:19.935Z</time></trkpt><trkpt lat="43.4170817" lon="11.2960683"><ele>338.0</ele><time>2026-04-20T11:46:20.934Z</time></trkpt><trkpt lat="43.4171817" lon="11.2961283"><ele>340.0</ele><time>2026-04-20T11:46:21.935Z</time></trkpt><trkpt lat="43.417275" lon="11.2961867"><ele>342.0</ele><time>2026-04-20T11:46:22.934Z</time></trkpt><trkpt lat="43.4173733" lon="11.29624"><ele>344.0</ele><time>2026-04-20T11:46:23.934Z</time></trkpt><trkpt lat="43.417475" lon="11.2962783"><ele>346.0</ele><time>2026-04-20T11:46:24.933Z</time></trkpt><trkpt lat="43.4175633" lon="11.296305"><ele>348.0</ele><time>2026-04-20T11:46:25.934Z</time></trkpt><trkpt lat="43.4176533" lon="11.2963317"><ele>348.0</ele><time>2026-04-20T11:46:26.933Z</time></trkpt><trkpt lat="43.41774" lon="11.2963617"><ele>348.0</ele><time>2026-04-20T11:46:27.933Z</time></trkpt><trkpt lat="43.4178267" lon="11.2964167"><ele>348.0</ele><time>2026-04-20T11:46:28.933Z</time></trkpt><trkpt lat="43.4179267" lon="11.2964783"><ele>348.0</ele><time>2026-04-20T11:46:29.933Z</time></trkpt><trkpt lat="43.41804" lon="11.296555"><ele>348.0</ele><time>2026-04-20T11:46:30.934Z</time></trkpt><trkpt lat="43.4181433" lon="11.2966567"><ele>348.75</ele><time>2026-04-20T11:46:31.933Z</time></trkpt><trkpt lat="43.418255" lon="11.2967517"><ele>349.5</ele><time>2026-04-20T11:46:32.933Z</time></trkpt><trkpt lat="43.41837" lon="11.2968433"><ele>350.25</ele><time>2026-04-20T11:46:33.933Z</time></trkpt><trkpt lat="43.418485" lon="11.2969283"><ele>351.0</ele><time>2026-04-20T11:46:34.933Z</time></trkpt><trkpt lat="43.4186133" lon="11.29701"><ele>351.0</ele><time>2026-04-20T11:46:35.933Z</time></trkpt><trkpt lat="43.4187383" lon="11.29708"><ele>351.0</ele><time>2026-04-20T11:46:36.933Z</time></trkpt><trkpt lat="43.41888" lon="11.2971333"><ele>351.0</ele><time>2026-04-20T11:46:37.933Z</time></trkpt><trkpt lat="43.4190183" lon="11.2971617"><ele>351.0</ele><time>2026-04-20T11:46:38.933Z</time></trkpt><trkpt lat="43.4191533" lon="11.297175"><ele>354.0</ele><time>2026-04-20T11:46:39.934Z</time></trkpt><trkpt lat="43.4192933" lon="11.2971933"><ele>357.0</ele><time>2026-04-20T11:46:40.933Z</time></trkpt><trkpt lat="43.4194433" lon="11.2972133"><ele>360.0</ele><time>2026-04-20T11:46:41.933Z</time></trkpt><trkpt lat="43.4195767" lon="11.297245"><ele>363.0</ele><time>2026-04-20T11:46:42.933Z</time></trkpt><trkpt lat="43.4196933" lon="11.2972683"><ele>363.4</ele><time>2026-04-20T11:46:43.934Z</time></trkpt><trkpt lat="43.4198033" lon="11.29729"><ele>363.79999999999995</ele><time>2026-04-20T11:46:44.933Z</time></trkpt><trkpt lat="43.4199017" lon="11.2973217"><ele>364.2</ele><time>2026-04-20T11:46:45.933Z</time></trkpt><trkpt lat="43.4199883" lon="11.2973483"><ele>364.6</ele><time>2026-04-20T11:46:46.933Z</time></trkpt><trkpt lat="43.420065" lon="11.2973667"><ele>365.0</ele><time>2026-04-20T11:46:47.933Z</time></trkpt><trkpt lat="43.42015" lon="11.2973783"><ele>365.0</ele><time>2026-04-20T11:46:48.934Z</time></trkpt><trkpt lat="43.420235" lon="11.2973883"><ele>365.0</ele><time>2026-04-20T11:46:49.934Z</time></trkpt><trkpt lat="43.42033" lon="11.2974117"><ele>365.0</ele><time>2026-04-20T11:46:50.934Z</time></trkpt><trkpt lat="43.4204283" lon="11.2974633"><ele>365.0</ele><time>2026-04-20T11:46:51.933Z</time></trkpt><trkpt lat="43.4205267" lon="11.2975383"><ele>365.0</ele><time>2026-04-20T11:46:52.933Z</time></trkpt><trkpt lat="43.420625" lon="11.2976417"><ele>366.0</ele><time>2026-04-20T11:46:53.934Z</time></trkpt><trkpt lat="43.4207117" lon="11.2977483"><ele>367.0</ele><time>2026-04-20T11:46:54.933Z</time></trkpt><trkpt lat="43.4208167" lon="11.29785"><ele>368.0</ele><time>2026-04-20T11:46:55.933Z</time></trkpt><trkpt lat="43.4209433" lon="11.2979267"><ele>369.0</ele><time>2026-04-20T11:46:56.933Z</time></trkpt><trkpt lat="43.42107" lon="11.2980067"><ele>369.0</ele><time>2026-04-20T11:46:57.933Z</time></trkpt><trkpt lat="43.4212017" lon="11.2980717"><ele>369.0</ele><time>2026-04-20T11:46:58.933Z</time></trkpt><trkpt lat="43.4213483" lon="11.29813"><ele>369.0</ele><time>2026-04-20T11:46:59.933Z</time></trkpt><trkpt lat="43.4215167" lon="11.2981833"><ele>374.33333333333337</ele><time>2026-04-20T11:47:00.933Z</time></trkpt><trkpt lat="43.4216883" lon="11.2982483"><ele>379.6666666666667</ele><time>2026-04-20T11:47:01.933Z</time></trkpt><trkpt lat="43.421865" lon="11.2982983"><ele>385.0</ele><time>2026-04-20T11:47:02.934Z</time></trkpt><trkpt lat="43.42203" lon="11.298365"><ele>388.33333333333337</ele><time>2026-04-20T11:47:03.933Z</time></trkpt><trkpt lat="43.4221883" lon="11.2984483"><ele>391.66666666666663</ele><time>2026-04-20T11:47:04.933Z</time></trkpt><trkpt lat="43.4223417" lon="11.2985533"><ele>395.0</ele><time>2026-04-20T11:47:05.933Z</time></trkpt><trkpt lat="43.4224733" lon="11.2986967"><ele>395.0</ele><time>2026-04-20T11:47:06.933Z</time></trkpt><trkpt lat="43.4225983" lon="11.298855"><ele>395.0</ele><time>2026-04-20T11:47:07.933Z</time></trkpt><trkpt lat="43.42271" lon="11.2990317"><ele>395.0</ele><time>2026-04-20T11:47:08.933Z</time></trkpt><trkpt lat="43.42283" lon="11.299205"><ele>395.66666666666663</ele><time>2026-04-20T11:47:09.933Z</time></trkpt><trkpt lat="43.4229567" lon="11.2993717"><ele>396.33333333333337</ele><time>2026-04-20T11:47:10.933Z</time></trkpt><trkpt lat="43.4230967" lon="11.2995217"><ele>397.0</ele><time>2026-04-20T11:47:11.934Z</time></trkpt><trkpt lat="43.4232517" lon="11.2996467"><ele>400.0</ele><time>2026-04-20T11:47:12.933Z</time></trkpt><trkpt lat="43.4234183" lon="11.29975"><ele>403.0</ele><time>2026-04-20T11:47:13.934Z</time></trkpt><trkpt lat="43.42358" lon="11.2998467"><ele>406.0</ele><time>2026-04-20T11:47:14.933Z</time></trkpt><trkpt lat="43.4237567" lon="11.2999517"><ele>408.6666666666667</ele><time>2026-04-20T11:47:15.933Z</time></trkpt><trkpt lat="43.423915" lon="11.3000433"><ele>411.33333333333337</ele><time>2026-04-20T11:47:16.933Z</time></trkpt><trkpt lat="43.424075" lon="11.300165"><ele>414.0</ele><time>2026-04-20T11:47:17.933Z</time></trkpt><trkpt lat="43.4242283" lon="11.300295"><ele>414.0</ele><time>2026-04-20T11:47:18.933Z</time></trkpt><trkpt lat="43.42437" lon="11.300455"><ele>414.0</ele><time>2026-04-20T11:47:19.933Z</time></trkpt><trkpt lat="43.4244933" lon="11.3006367"><ele>414.0</ele><time>2026-04-20T11:47:20.933Z</time></trkpt><trkpt lat="43.4246033" lon="11.3008383"><ele>414.33333333333337</ele><time>2026-04-20T11:47:21.934Z</time></trkpt><trkpt lat="43.42469" lon="11.3010533"><ele>414.6666666666667</ele><time>2026-04-20T11:47:22.934Z</time></trkpt><trkpt lat="43.4247483" lon="11.3012633"><ele>415.0</ele><time>2026-04-20T11:47:23.933Z</time></trkpt><trkpt lat="43.42481" lon="11.3014683"><ele>415.0</ele><time>2026-04-20T11:47:24.933Z</time></trkpt><trkpt lat="43.4248783" lon="11.301665"><ele>415.0</ele><time>2026-04-20T11:47:25.933Z</time></trkpt><trkpt lat="43.4249783" lon="11.301865"><ele>415.0</ele><time>2026-04-20T11:47:26.933Z</time></trkpt><trkpt lat="43.4251" lon="11.3020567"><ele>415.0</ele><time>2026-04-20T11:47:27.934Z</time></trkpt><trkpt lat="43.425235" lon="11.3022467"><ele>415.0</ele><time>2026-04-20T11:47:28.933Z</time></trkpt><trkpt lat="43.4253733" lon="11.3024217"><ele>415.0</ele><time>2026-04-20T11:47:29.934Z</time></trkpt><trkpt lat="43.425515" lon="11.3026"><ele>415.0</ele><time>2026-04-20T11:47:30.933Z</time></trkpt><trkpt lat="43.4256567" lon="11.3027817"><ele>415.0</ele><time>2026-04-20T11:47:31.933Z</time></trkpt><trkpt lat="43.4257967" lon="11.3029767"><ele>415.0</ele><time>2026-04-20T11:47:32.933Z</time></trkpt><trkpt lat="43.425925" lon="11.303175"><ele>415.0</ele><time>2026-04-20T11:47:33.933Z</time></trkpt><trkpt lat="43.4260383" lon="11.3033833"><ele>415.0</ele><time>2026-04-20T11:47:34.933Z</time></trkpt><trkpt lat="43.42614" lon="11.3036017"><ele>415.0</ele><time>2026-04-20T11:47:35.933Z</time></trkpt><trkpt lat="43.4262367" lon="11.3038233"><ele>416.33333333333337</ele><time>2026-04-20T11:47:36.933Z</time></trkpt><trkpt lat="43.4263217" lon="11.304045"><ele>417.66666666666663</ele><time>2026-04-20T11:47:37.933Z</time></trkpt><trkpt lat="43.4263967" lon="11.3042617"><ele>419.0</ele><time>2026-04-20T11:47:38.933Z</time></trkpt><trkpt lat="43.4264667" lon="11.3044533"><ele>419.0</ele><time>2026-04-20T11:47:39.933Z</time></trkpt><trkpt lat="43.42653" lon="11.3046283"><ele>419.0</ele><time>2026-04-20T11:47:40.934Z</time></trkpt><trkpt lat="43.4265817" lon="11.3047917"><ele>419.0</ele><time>2026-04-20T11:47:41.933Z</time></trkpt><trkpt lat="43.4266233" lon="11.3049233"><ele>419.0</ele><time>2026-04-20T11:47:42.933Z</time></trkpt><trkpt lat="43.4266583" lon="11.3050417"><ele>420.0</ele><time>2026-04-20T11:47:43.933Z</time></trkpt><trkpt lat="43.4267033" lon="11.305165"><ele>421.0</ele><time>2026-04-20T11:47:44.933Z</time></trkpt><trkpt lat="43.426765" lon="11.3052933"><ele>422.0</ele><time>2026-04-20T11:47:45.933Z</time></trkpt><trkpt lat="43.426845" lon="11.305425"><ele>423.0</ele><time>2026-04-20T11:47:46.933Z</time></trkpt><trkpt lat="43.4269417" lon="11.3055783"><ele>425.66666666666663</ele><time>2026-04-20T11:47:47.933Z</time></trkpt><trkpt lat="43.4270383" lon="11.3057267"><ele>428.3333333333333</ele><time>2026-04-20T11:47:48.934Z</time></trkpt><trkpt lat="43.4271467" lon="11.3058717"><ele>431.0</ele><time>2026-04-20T11:47:49.933Z</time></trkpt><trkpt lat="43.4272833" lon="11.3060133"><ele>431.3333333333333</ele><time>2026-04-20T11:47:50.934Z</time></trkpt><trkpt lat="43.4274317" lon="11.306155"><ele>431.66666666666663</ele><time>2026-04-20T11:47:51.934Z</time></trkpt><trkpt lat="43.4275883" lon="11.3062783"><ele>432.0</ele><time>2026-04-20T11:47:52.933Z</time></trkpt><trkpt lat="43.4277333" lon="11.3063833"><ele>435.25</ele><time>2026-04-20T11:47:53.933Z</time></trkpt><trkpt lat="43.4278733" lon="11.3064667"><ele>438.5</ele><time>2026-04-20T11:47:54.933Z</time></trkpt><trkpt lat="43.42801" lon="11.3065217"><ele>441.75</ele><time>2026-04-20T11:47:55.933Z</time></trkpt><trkpt lat="43.428135" lon="11.3065417"><ele>445.0</ele><time>2026-04-20T11:47:56.934Z</time></trkpt><trkpt lat="43.428235" lon="11.3065033"><ele>444.75</ele><time>2026-04-20T11:47:57.933Z</time></trkpt><trkpt lat="43.428315" lon="11.3064133"><ele>444.5</ele><time>2026-04-20T11:47:58.933Z</time></trkpt><trkpt lat="43.42836" lon="11.30626"><ele>444.25</ele><time>2026-04-20T11:47:59.933Z</time></trkpt><trkpt lat="43.4283683" lon="11.30608"><ele>444.0</ele><time>2026-04-20T11:48:00.934Z</time></trkpt><trkpt lat="43.42835" lon="11.3058833"><ele>444.0</ele><time>2026-04-20T11:48:01.933Z</time></trkpt><trkpt lat="43.42833" lon="11.3056883"><ele>444.0</ele><time>2026-04-20T11:48:02.934Z</time></trkpt><trkpt lat="43.4283183" lon="11.3054967"><ele>444.0</ele><time>2026-04-20T11:48:03.933Z</time></trkpt><trkpt lat="43.42832" lon="11.30531"><ele>444.0</ele><time>2026-04-20T11:48:04.933Z</time></trkpt><trkpt lat="43.4283383" lon="11.3051183"><ele>443.5</ele><time>2026-04-20T11:48:05.933Z</time></trkpt><trkpt lat="43.4283967" lon="11.3049333"><ele>443.0</ele><time>2026-04-20T11:48:06.933Z</time></trkpt><trkpt lat="43.4284933" lon="11.3047667"><ele>442.5</ele><time>2026-04-20T11:48:07.934Z</time></trkpt><trkpt lat="43.428605" lon="11.3046367"><ele>442.0</ele><time>2026-04-20T11:48:08.933Z</time></trkpt><trkpt lat="43.4287333" lon="11.3045583"><ele>442.0</ele><time>2026-04-20T11:48:09.934Z</time></trkpt><trkpt lat="43.4288767" lon="11.304505"><ele>442.0</ele><time>2026-04-20T11:48:10.933Z</time></trkpt><trkpt lat="43.4290217" lon="11.304485"><ele>442.0</ele><time>2026-04-20T11:48:11.933Z</time></trkpt><trkpt lat="43.4291633" lon="11.3044983"><ele>442.0</ele><time>2026-04-20T11:48:12.933Z</time></trkpt><trkpt lat="43.4292933" lon="11.30457"><ele>442.0</ele><time>2026-04-20T11:48:13.933Z</time></trkpt><trkpt lat="43.4294167" lon="11.3046683"><ele>442.0</ele><time>2026-04-20T11:48:14.934Z</time></trkpt><trkpt lat="43.4295133" lon="11.3047917"><ele>442.0</ele><time>2026-04-20T11:48:15.933Z</time></trkpt><trkpt lat="43.4295783" lon="11.3049467"><ele>442.0</ele><time>2026-04-20T11:48:16.934Z</time></trkpt><trkpt lat="43.42963" lon="11.3051467"><ele>444.33333333333337</ele><time>2026-04-20T11:48:17.933Z</time></trkpt><trkpt lat="43.4296567" lon="11.3053667"><ele>446.66666666666663</ele><time>2026-04-20T11:48:18.933Z</time></trkpt><trkpt lat="43.429685" lon="11.3055867"><ele>449.0</ele><time>2026-04-20T11:48:19.933Z</time></trkpt><trkpt lat="43.429705" lon="11.3058017"><ele>452.66666666666663</ele><time>2026-04-20T11:48:20.933Z</time></trkpt><trkpt lat="43.4297433" lon="11.306015"><ele>456.33333333333337</ele><time>2026-04-20T11:48:21.934Z</time></trkpt><trkpt lat="43.4298283" lon="11.3062183"><ele>460.0</ele><time>2026-04-20T11:48:22.933Z</time></trkpt><trkpt lat="43.4299333" lon="11.3064117"><ele>462.33333333333337</ele><time>2026-04-20T11:48:23.933Z</time></trkpt><trkpt lat="43.43005" lon="11.3066117"><ele>464.66666666666663</ele><time>2026-04-20T11:48:24.933Z</time></trkpt><trkpt lat="43.4301667" lon="11.30683"><ele>467.0</ele><time>2026-04-20T11:48:25.933Z</time></trkpt><trkpt lat="43.4302817" lon="11.30703"><ele>467.0</ele><time>2026-04-20T11:48:26.933Z</time></trkpt><trkpt lat="43.430385" lon="11.3072217"><ele>467.0</ele><time>2026-04-20T11:48:27.933Z</time></trkpt><trkpt lat="43.4304767" lon="11.3074283"><ele>467.0</ele><time>2026-04-20T11:48:28.933Z</time></trkpt><trkpt lat="43.4305367" lon="11.3076533"><ele>467.66666666666663</ele><time>2026-04-20T11:48:29.934Z</time></trkpt><trkpt lat="43.4305817" lon="11.3078633"><ele>468.33333333333337</ele><time>2026-04-20T11:48:30.933Z</time></trkpt><trkpt lat="43.4306117" lon="11.30808"><ele>469.0</ele><time>2026-04-20T11:48:31.933Z</time></trkpt><trkpt lat="43.4306167" lon="11.308305"><ele>469.0</ele><time>2026-04-20T11:48:32.933Z</time></trkpt><trkpt lat="43.43062" lon="11.3085183"><ele>469.0</ele><time>2026-04-20T11:48:33.933Z</time></trkpt><trkpt lat="43.43066" lon="11.3087283"><ele>469.0</ele><time>2026-04-20T11:48:34.933Z</time></trkpt><trkpt lat="43.4307233" lon="11.308935"><ele>472.33333333333337</ele><time>2026-04-20T11:48:35.933Z</time></trkpt><trkpt lat="43.4308033" lon="11.309145"><ele>475.66666666666663</ele><time>2026-04-20T11:48:36.934Z</time></trkpt><trkpt lat="43.430875" lon="11.30936"><ele>479.0</ele><time>2026-04-20T11:48:37.934Z</time></trkpt><trkpt lat="43.4309467" lon="11.3095433"><ele>479.0</ele><time>2026-04-20T11:48:38.933Z</time></trkpt><trkpt lat="43.4310183" lon="11.3097033"><ele>479.0</ele><time>2026-04-20T11:48:39.933Z</time></trkpt><trkpt lat="43.4311033" lon="11.3098283"><ele>479.0</ele><time>2026-04-20T11:48:40.934Z</time></trkpt><trkpt lat="43.4311983" lon="11.3099033"><ele>479.0</ele><time>2026-04-20T11:48:41.933Z</time></trkpt><trkpt lat="43.4312983" lon="11.30991"><ele>479.0</ele><time>2026-04-20T11:48:42.934Z</time></trkpt><trkpt lat="43.431405" lon="11.3098617"><ele>479.0</ele><time>2026-04-20T11:48:43.933Z</time></trkpt><trkpt lat="43.4315033" lon="11.309765"><ele>479.0</ele><time>2026-04-20T11:48:44.934Z</time></trkpt><trkpt lat="43.4315867" lon="11.3096367"><ele>479.0</ele><time>2026-04-20T11:48:45.933Z</time></trkpt><trkpt lat="43.4316817" lon="11.3094983"><ele>479.0</ele><time>2026-04-20T11:48:46.933Z</time></trkpt><trkpt lat="43.4317783" lon="11.3093733"><ele>479.0</ele><time>2026-04-20T11:48:47.934Z</time></trkpt><trkpt lat="43.4318833" lon="11.3092917"><ele>479.0</ele><time>2026-04-20T11:48:48.934Z</time></trkpt><trkpt lat="43.431995" lon="11.3092467"><ele>479.0</ele><time>2026-04-20T11:48:49.933Z</time></trkpt><trkpt lat="43.4321117" lon="11.3092183"><ele>480.79999999999995</ele><time>2026-04-20T11:48:50.933Z</time></trkpt><trkpt lat="43.432225" lon="11.3091867"><ele>482.59999999999997</ele><time>2026-04-20T11:48:51.933Z</time></trkpt><trkpt lat="43.4323367" lon="11.30917"><ele>484.4</ele><time>2026-04-20T11:48:52.933Z</time></trkpt><trkpt lat="43.43245" lon="11.3091517"><ele>486.2</ele><time>2026-04-20T11:48:53.934Z</time></trkpt><trkpt lat="43.4325533" lon="11.3091267"><ele>488.0</ele><time>2026-04-20T11:48:54.933Z</time></trkpt><trkpt lat="43.4326433" lon="11.3090967"><ele>488.0</ele><time>2026-04-20T11:48:55.933Z</time></trkpt><trkpt lat="43.43273" lon="11.309055"><ele>487.99999999999994</ele><time>2026-04-20T11:48:56.933Z</time></trkpt><trkpt lat="43.4328167" lon="11.30897"><ele>487.99999999999994</ele><time>2026-04-20T11:48:57.934Z</time></trkpt><trkpt lat="43.4329033" lon="11.308865"><ele>488.0</ele><time>2026-04-20T11:48:58.933Z</time></trkpt><trkpt lat="43.43299" lon="11.3087483"><ele>488.0</ele><time>2026-04-20T11:48:59.933Z</time></trkpt><trkpt lat="43.4330767" lon="11.30862"><ele>489.25</ele><time>2026-04-20T11:49:00.933Z</time></trkpt><trkpt lat="43.4331633" lon="11.3085"><ele>490.5</ele><time>2026-04-20T11:49:01.933Z</time></trkpt><trkpt lat="43.433265" lon="11.3083683"><ele>491.75</ele><time>2026-04-20T11:49:02.933Z</time></trkpt><trkpt lat="43.4333567" lon="11.308245"><ele>493.0</ele><time>2026-04-20T11:49:03.933Z</time></trkpt><trkpt lat="43.4334467" lon="11.3081383"><ele>493.0</ele><time>2026-04-20T11:49:04.933Z</time></trkpt><trkpt lat="43.4335383" lon="11.3080533"><ele>492.99999999999994</ele><time>2026-04-20T11:49:05.934Z</time></trkpt><trkpt lat="43.4336333" lon="11.3079983"><ele>492.99999999999994</ele><time>2026-04-20T11:49:06.933Z</time></trkpt><trkpt lat="43.4337417" lon="11.30796"><ele>493.0</ele><time>2026-04-20T11:49:07.934Z</time></trkpt><trkpt lat="43.433845" lon="11.30793"><ele>493.0</ele><time>2026-04-20T11:49:08.933Z</time></trkpt><trkpt lat="43.4339483" lon="11.3079067"><ele>493.0</ele><time>2026-04-20T11:49:09.934Z</time></trkpt><trkpt lat="43.4340483" lon="11.30788"><ele>492.99999999999994</ele><time>2026-04-20T11:49:10.933Z</time></trkpt><trkpt lat="43.4341483" lon="11.3078333"><ele>492.99999999999994</ele><time>2026-04-20T11:49:11.933Z</time></trkpt><trkpt lat="43.4342567" lon="11.3077817"><ele>493.0</ele><time>2026-04-20T11:49:12.933Z</time></trkpt><trkpt lat="43.4343633" lon="11.3077167"><ele>493.0</ele><time>2026-04-20T11:49:13.933Z</time></trkpt><trkpt lat="43.43447" lon="11.30764"><ele>493.0</ele><time>2026-04-20T11:49:14.934Z</time></trkpt><trkpt lat="43.4345767" lon="11.3075433"><ele>493.0</ele><time>2026-04-20T11:49:15.933Z</time></trkpt><trkpt lat="43.4346867" lon="11.307435"><ele>493.0</ele><time>2026-04-20T11:49:16.933Z</time></trkpt><trkpt lat="43.4347967" lon="11.3073233"><ele>493.0</ele><time>2026-04-20T11:49:17.933Z</time></trkpt><trkpt lat="43.4349033" lon="11.3072183"><ele>494.59999999999997</ele><time>2026-04-20T11:49:18.933Z</time></trkpt><trkpt lat="43.4350033" lon="11.30713"><ele>496.19999999999993</ele><time>2026-04-20T11:49:19.934Z</time></trkpt><trkpt lat="43.4350983" lon="11.307045"><ele>497.8</ele><time>2026-04-20T11:49:20.933Z</time></trkpt><trkpt lat="43.43519" lon="11.3069583"><ele>499.4</ele><time>2026-04-20T11:49:21.933Z</time></trkpt><trkpt lat="43.4352767" lon="11.306875"><ele>501.0</ele><time>2026-04-20T11:49:22.933Z</time></trkpt><trkpt lat="43.435365" lon="11.3068033"><ele>501.0</ele><time>2026-04-20T11:49:23.933Z</time></trkpt><trkpt lat="43.4354533" lon="11.3067383"><ele>501.0</ele><time>2026-04-20T11:49:24.933Z</time></trkpt><trkpt lat="43.43553" lon="11.30669"><ele>501.0</ele><time>2026-04-20T11:49:25.934Z</time></trkpt><trkpt lat="43.4356017" lon="11.3066567"><ele>501.0</ele><time>2026-04-20T11:49:26.933Z</time></trkpt><trkpt lat="43.4357133" lon="11.30661"><ele>501.0</ele><time>2026-04-20T11:49:28.933Z</time></trkpt><trkpt lat="43.4358117" lon="11.306575"><ele>501.20000000000005</ele><time>2026-04-20T11:49:30.934Z</time></trkpt><trkpt lat="43.435945" lon="11.3065633"><ele>501.40000000000003</ele><time>2026-04-20T11:49:32.933Z</time></trkpt><trkpt lat="43.4360317" lon="11.30657"><ele>501.6</ele><time>2026-04-20T11:49:33.933Z</time></trkpt><trkpt lat="43.4361267" lon="11.3066"><ele>501.8</ele><time>2026-04-20T11:49:34.933Z</time></trkpt><trkpt lat="43.4362267" lon="11.30667"><ele>502.0</ele><time>2026-04-20T11:49:35.934Z</time></trkpt><trkpt lat="43.4363233" lon="11.3067683"><ele>502.0</ele><time>2026-04-20T11:49:36.934Z</time></trkpt><trkpt lat="43.4364317" lon="11.306875"><ele>502.0</ele><time>2026-04-20T11:49:37.933Z</time></trkpt><trkpt lat="43.4365533" lon="11.3069983"><ele>502.0</ele><time>2026-04-20T11:49:38.933Z</time></trkpt><trkpt lat="43.43668" lon="11.3071083"><ele>502.0</ele><time>2026-04-20T11:49:39.933Z</time></trkpt><trkpt lat="43.436805" lon="11.3072233"><ele>504.0</ele><time>2026-04-20T11:49:40.933Z</time></trkpt><trkpt lat="43.4369383" lon="11.307345"><ele>506.0</ele><time>2026-04-20T11:49:41.933Z</time></trkpt><trkpt lat="43.4370817" lon="11.307455"><ele>508.0</ele><time>2026-04-20T11:49:42.933Z</time></trkpt><trkpt lat="43.4372433" lon="11.30757"><ele>508.0</ele><time>2026-04-20T11:49:43.933Z</time></trkpt><trkpt lat="43.437415" lon="11.3077067"><ele>508.0</ele><time>2026-04-20T11:49:44.933Z</time></trkpt><trkpt lat="43.4375883" lon="11.3078433"><ele>508.0</ele><time>2026-04-20T11:49:45.933Z</time></trkpt><trkpt lat="43.4377483" lon="11.3079733"><ele>511.0</ele><time>2026-04-20T11:49:46.933Z</time></trkpt><trkpt lat="43.43789" lon="11.3080933"><ele>514.0</ele><time>2026-04-20T11:49:47.933Z</time></trkpt><trkpt lat="43.4380317" lon="11.30818"><ele>517.0</ele><time>2026-04-20T11:49:48.933Z</time></trkpt><trkpt lat="43.4381633" lon="11.3082267"><ele>517.0</ele><time>2026-04-20T11:49:49.933Z</time></trkpt><trkpt lat="43.4382933" lon="11.3082133"><ele>517.0</ele><time>2026-04-20T11:49:50.933Z</time></trkpt><trkpt lat="43.4384133" lon="11.3081583"><ele>517.0</ele><time>2026-04-20T11:49:51.934Z</time></trkpt><trkpt lat="43.4385083" lon="11.3080567"><ele>517.0</ele><time>2026-04-20T11:49:52.933Z</time></trkpt><trkpt lat="43.4385683" lon="11.3079083"><ele>516.5</ele><time>2026-04-20T11:49:53.933Z</time></trkpt><trkpt lat="43.4386" lon="11.3077367"><ele>516.0</ele><time>2026-04-20T11:49:54.933Z</time></trkpt><trkpt lat="43.4385917" lon="11.3075533"><ele>515.5</ele><time>2026-04-20T11:49:55.933Z</time></trkpt><trkpt lat="43.43855" lon="11.3073783"><ele>515.0</ele><time>2026-04-20T11:49:56.933Z</time></trkpt><trkpt lat="43.4384667" lon="11.30722"><ele>517.0</ele><time>2026-04-20T11:49:57.933Z</time></trkpt><trkpt lat="43.438385" lon="11.3070567"><ele>519.0</ele><time>2026-04-20T11:49:58.934Z</time></trkpt><trkpt lat="43.4383317" lon="11.3068533"><ele>521.0</ele><time>2026-04-20T11:49:59.933Z</time></trkpt><trkpt lat="43.438315" lon="11.3066233"><ele>520.3333333333333</ele><time>2026-04-20T11:50:00.933Z</time></trkpt><trkpt lat="43.4383167" lon="11.3063917"><ele>519.6666666666666</ele><time>2026-04-20T11:50:01.934Z</time></trkpt><trkpt lat="43.4383533" lon="11.306175"><ele>519.0</ele><time>2026-04-20T11:50:02.933Z</time></trkpt><trkpt lat="43.4384067" lon="11.30599"><ele>519.0</ele><time>2026-04-20T11:50:03.933Z</time></trkpt><trkpt lat="43.4384817" lon="11.3058283"><ele>519.0</ele><time>2026-04-20T11:50:04.933Z</time></trkpt><trkpt lat="43.4385917" lon="11.3056917"><ele>519.0</ele><time>2026-04-20T11:50:05.933Z</time></trkpt><trkpt lat="43.438725" lon="11.3055767"><ele>519.0</ele><time>2026-04-20T11:50:06.933Z</time></trkpt><trkpt lat="43.4388833" lon="11.305485"><ele>520.0</ele><time>2026-04-20T11:50:07.933Z</time></trkpt><trkpt lat="43.4390533" lon="11.3054233"><ele>521.0</ele><time>2026-04-20T11:50:08.933Z</time></trkpt><trkpt lat="43.4392117" lon="11.30538"><ele>522.0</ele><time>2026-04-20T11:50:09.933Z</time></trkpt><trkpt lat="43.439355" lon="11.3053217"><ele>522.0</ele><time>2026-04-20T11:50:10.933Z</time></trkpt><trkpt lat="43.439475" lon="11.3052067"><ele>522.0</ele><time>2026-04-20T11:50:11.933Z</time></trkpt><trkpt lat="43.439575" lon="11.3050483"><ele>522.0</ele><time>2026-04-20T11:50:12.933Z</time></trkpt><trkpt lat="43.4396383" lon="11.304855"><ele>527.0</ele><time>2026-04-20T11:50:13.933Z</time></trkpt><trkpt lat="43.43966" lon="11.3046483"><ele>532.0</ele><time>2026-04-20T11:50:14.934Z</time></trkpt><trkpt lat="43.4396833" lon="11.304435"><ele>537.0</ele><time>2026-04-20T11:50:15.933Z</time></trkpt><trkpt lat="43.439715" lon="11.3042067"><ele>537.0</ele><time>2026-04-20T11:50:16.933Z</time></trkpt><trkpt lat="43.4397683" lon="11.303985"><ele>537.0</ele><time>2026-04-20T11:50:17.933Z</time></trkpt><trkpt lat="43.43982" lon="11.3037817"><ele>537.0</ele><time>2026-04-20T11:50:18.933Z</time></trkpt><trkpt lat="43.439835" lon="11.30358"><ele>537.3333333333334</ele><time>2026-04-20T11:50:19.933Z</time></trkpt><trkpt lat="43.4398017" lon="11.3033933"><ele>537.6666666666667</ele><time>2026-04-20T11:50:20.933Z</time></trkpt><trkpt lat="43.4397383" lon="11.3031783"><ele>538.0</ele><time>2026-04-20T11:50:21.933Z</time></trkpt><trkpt lat="43.4396867" lon="11.3029483"><ele>538.6666666666667</ele><time>2026-04-20T11:50:22.933Z</time></trkpt><trkpt lat="43.439645" lon="11.3027183"><ele>539.3333333333334</ele><time>2026-04-20T11:50:23.933Z</time></trkpt><trkpt lat="43.4396117" lon="11.3024867"><ele>540.0</ele><time>2026-04-20T11:50:24.933Z</time></trkpt><trkpt lat="43.439585" lon="11.3022783"><ele>537.25</ele><time>2026-04-20T11:50:25.934Z</time></trkpt><trkpt lat="43.4395717" lon="11.3020667"><ele>534.5</ele><time>2026-04-20T11:50:26.934Z</time></trkpt><trkpt lat="43.4395467" lon="11.301875"><ele>531.75</ele><time>2026-04-20T11:50:27.933Z</time></trkpt><trkpt lat="43.439525" lon="11.3017033"><ele>529.0</ele><time>2026-04-20T11:50:28.933Z</time></trkpt><trkpt lat="43.43953" lon="11.3015567"><ele>529.0</ele><time>2026-04-20T11:50:29.933Z</time></trkpt><trkpt lat="43.4395633" lon="11.3014283"><ele>529.0</ele><time>2026-04-20T11:50:30.934Z</time></trkpt><trkpt lat="43.43963" lon="11.3013317"><ele>529.0</ele><time>2026-04-20T11:50:31.933Z</time></trkpt><trkpt lat="43.4397233" lon="11.301275"><ele>529.0</ele><time>2026-04-20T11:50:32.934Z</time></trkpt><trkpt lat="43.439835" lon="11.3012483"><ele>529.0</ele><time>2026-04-20T11:50:33.933Z</time></trkpt><trkpt lat="43.439975" lon="11.3012233"><ele>529.0</ele><time>2026-04-20T11:50:34.933Z</time></trkpt><trkpt lat="43.4401267" lon="11.3011967"><ele>529.0</ele><time>2026-04-20T11:50:35.933Z</time></trkpt><trkpt lat="43.440285" lon="11.30117"><ele>529.0</ele><time>2026-04-20T11:50:36.933Z</time></trkpt><trkpt lat="43.44044" lon="11.3011417"><ele>528.75</ele><time>2026-04-20T11:50:37.933Z</time></trkpt><trkpt lat="43.4405833" lon="11.301095"><ele>528.5</ele><time>2026-04-20T11:50:38.934Z</time></trkpt><trkpt lat="43.44071" lon="11.3010133"><ele>528.25</ele><time>2026-04-20T11:50:39.933Z</time></trkpt><trkpt lat="43.4408083" lon="11.3008917"><ele>528.0</ele><time>2026-04-20T11:50:40.933Z</time></trkpt><trkpt lat="43.4408833" lon="11.30072"><ele>527.75</ele><time>2026-04-20T11:50:41.934Z</time></trkpt><trkpt lat="43.4409683" lon="11.3005767"><ele>527.5</ele><time>2026-04-20T11:50:42.933Z</time></trkpt><trkpt lat="43.4410617" lon="11.3004767"><ele>527.25</ele><time>2026-04-20T11:50:43.933Z</time></trkpt><trkpt lat="43.4412" lon="11.3004267"><ele>527.0</ele><time>2026-04-20T11:50:44.934Z</time></trkpt><trkpt lat="43.441345" lon="11.3004017"><ele>528.0</ele><time>2026-04-20T11:50:45.933Z</time></trkpt><trkpt lat="43.4414933" lon="11.3003867"><ele>529.0</ele><time>2026-04-20T11:50:46.933Z</time></trkpt><trkpt lat="43.441645" lon="11.300375"><ele>530.0</ele><time>2026-04-20T11:50:47.934Z</time></trkpt><trkpt lat="43.441795" lon="11.300395"><ele>530.0</ele><time>2026-04-20T11:50:48.933Z</time></trkpt><trkpt lat="43.4419433" lon="11.300445"><ele>530.0</ele><time>2026-04-20T11:50:49.933Z</time></trkpt><trkpt lat="43.442085" lon="11.30055"><ele>530.0</ele><time>2026-04-20T11:50:50.933Z</time></trkpt><trkpt lat="43.4422317" lon="11.30066"><ele>530.75</ele><time>2026-04-20T11:50:51.933Z</time></trkpt><trkpt lat="43.4423683" lon="11.3007817"><ele>531.5</ele><time>2026-04-20T11:50:52.933Z</time></trkpt><trkpt lat="43.4424967" lon="11.30089"><ele>532.25</ele><time>2026-04-20T11:50:53.933Z</time></trkpt><trkpt lat="43.4426133" lon="11.300975"><ele>533.0</ele><time>2026-04-20T11:50:54.933Z</time></trkpt><trkpt lat="43.44273" lon="11.3010083"><ele>533.0</ele><time>2026-04-20T11:50:55.933Z</time></trkpt><trkpt lat="43.4428583" lon="11.30098"><ele>533.0</ele><time>2026-04-20T11:50:56.934Z</time></trkpt><trkpt lat="43.4429883" lon="11.3009333"><ele>533.0</ele><time>2026-04-20T11:50:57.933Z</time></trkpt><trkpt lat="43.4431117" lon="11.3008717"><ele>533.0</ele><time>2026-04-20T11:50:58.933Z</time></trkpt><trkpt lat="43.4432033" lon="11.30078"><ele>535.0</ele><time>2026-04-20T11:50:59.933Z</time></trkpt><trkpt lat="43.4432633" lon="11.3006583"><ele>537.0</ele><time>2026-04-20T11:51:00.933Z</time></trkpt><trkpt lat="43.44328" lon="11.30049"><ele>539.0</ele><time>2026-04-20T11:51:01.933Z</time></trkpt><trkpt lat="43.4432667" lon="11.300305"><ele>541.0</ele><time>2026-04-20T11:51:02.933Z</time></trkpt><trkpt lat="43.4432717" lon="11.3001117"><ele>541.0</ele><time>2026-04-20T11:51:03.934Z</time></trkpt><trkpt lat="43.4433" lon="11.2999183"><ele>541.0</ele><time>2026-04-20T11:51:04.933Z</time></trkpt><trkpt lat="43.4433733" lon="11.299725"><ele>541.0</ele><time>2026-04-20T11:51:05.933Z</time></trkpt><trkpt lat="43.443475" lon="11.2995367"><ele>541.5</ele><time>2026-04-20T11:51:06.933Z</time></trkpt><trkpt lat="43.44357" lon="11.2993683"><ele>542.0</ele><time>2026-04-20T11:51:07.934Z</time></trkpt><trkpt lat="43.4436617" lon="11.299225"><ele>542.5</ele><time>2026-04-20T11:51:08.932Z</time></trkpt><trkpt lat="43.4437517" lon="11.299125"><ele>543.0</ele><time>2026-04-20T11:51:09.932Z</time></trkpt><trkpt lat="43.4438683" lon="11.2990933"><ele>543.0</ele><time>2026-04-20T11:51:10.932Z</time></trkpt><trkpt lat="43.4440117" lon="11.2991133"><ele>543.0</ele><time>2026-04-20T11:51:11.933Z</time></trkpt><trkpt lat="43.4441567" lon="11.2991867"><ele>543.0</ele><time>2026-04-20T11:51:12.932Z</time></trkpt><trkpt lat="43.4443017" lon="11.2993033"><ele>543.0</ele><time>2026-04-20T11:51:13.932Z</time></trkpt><trkpt lat="43.44445" lon="11.2994517"><ele>543.0</ele><time>2026-04-20T11:51:14.932Z</time></trkpt><trkpt lat="43.444615" lon="11.299595"><ele>543.0</ele><time>2026-04-20T11:51:15.932Z</time></trkpt><trkpt lat="43.4447767" lon="11.2997167"><ele>546.3333333333334</ele><time>2026-04-20T11:51:16.932Z</time></trkpt><trkpt lat="43.4449433" lon="11.29981"><ele>549.6666666666667</ele><time>2026-04-20T11:51:17.932Z</time></trkpt><trkpt lat="43.4451067" lon="11.29986"><ele>553.0</ele><time>2026-04-20T11:51:18.932Z</time></trkpt><trkpt lat="43.445265" lon="11.2998467"><ele>553.0</ele><time>2026-04-20T11:51:19.933Z</time></trkpt><trkpt lat="43.4454417" lon="11.2998167"><ele>553.0</ele><time>2026-04-20T11:51:20.932Z</time></trkpt><trkpt lat="43.4456183" lon="11.29977"><ele>553.0</ele><time>2026-04-20T11:51:21.932Z</time></trkpt><trkpt lat="43.4457983" lon="11.2997"><ele>550.0</ele><time>2026-04-20T11:51:22.932Z</time></trkpt><trkpt lat="43.4459617" lon="11.299595"><ele>547.0</ele><time>2026-04-20T11:51:23.932Z</time></trkpt><trkpt lat="43.4461333" lon="11.299465"><ele>544.0</ele><time>2026-04-20T11:51:24.932Z</time></trkpt><trkpt lat="43.4462917" lon="11.2992833"><ele>545.3333333333334</ele><time>2026-04-20T11:51:25.932Z</time></trkpt><trkpt lat="43.4464367" lon="11.29907"><ele>546.6666666666666</ele><time>2026-04-20T11:51:26.932Z</time></trkpt><trkpt lat="43.446585" lon="11.2988383"><ele>548.0</ele><time>2026-04-20T11:51:27.933Z</time></trkpt><trkpt lat="43.4467517" lon="11.2986067"><ele>549.3333333333333</ele><time>2026-04-20T11:51:28.933Z</time></trkpt><trkpt lat="43.4469117" lon="11.29839"><ele>550.6666666666666</ele><time>2026-04-20T11:51:29.932Z</time></trkpt><trkpt lat="43.4470583" lon="11.2981733"><ele>552.0</ele><time>2026-04-20T11:51:30.932Z</time></trkpt><trkpt lat="43.447195" lon="11.2979517"><ele>553.6666666666666</ele><time>2026-04-20T11:51:31.932Z</time></trkpt><trkpt lat="43.44732" lon="11.2977533"><ele>555.3333333333333</ele><time>2026-04-20T11:51:32.933Z</time></trkpt><trkpt lat="43.4474667" lon="11.2975817"><ele>557.0</ele><time>2026-04-20T11:51:33.932Z</time></trkpt><trkpt lat="43.4476133" lon="11.2974033"><ele>556.3333333333333</ele><time>2026-04-20T11:51:34.932Z</time></trkpt><trkpt lat="43.4477383" lon="11.2972217"><ele>555.6666666666666</ele><time>2026-04-20T11:51:35.932Z</time></trkpt><trkpt lat="43.447855" lon="11.2970483"><ele>555.0</ele><time>2026-04-20T11:51:36.932Z</time></trkpt><trkpt lat="43.44793" lon="11.2968633"><ele>555.0</ele><time>2026-04-20T11:51:37.932Z</time></trkpt><trkpt lat="43.447955" lon="11.2966683"><ele>555.0</ele><time>2026-04-20T11:51:38.932Z</time></trkpt><trkpt lat="43.4479433" lon="11.2964583"><ele>555.0</ele><time>2026-04-20T11:51:39.932Z</time></trkpt><trkpt lat="43.4479333" lon="11.29627"><ele>555.0</ele><time>2026-04-20T11:51:40.932Z</time></trkpt><trkpt lat="43.4479467" lon="11.2960867"><ele>558.0</ele><time>2026-04-20T11:51:41.932Z</time></trkpt><trkpt lat="43.447995" lon="11.29589"><ele>561.0</ele><time>2026-04-20T11:51:42.932Z</time></trkpt><trkpt lat="43.4480783" lon="11.2956767"><ele>564.0</ele><time>2026-04-20T11:51:43.932Z</time></trkpt><trkpt lat="43.4481817" lon="11.2954667"><ele>564.0</ele><time>2026-04-20T11:51:44.932Z</time></trkpt><trkpt lat="43.4482683" lon="11.2952867"><ele>564.0</ele><time>2026-04-20T11:51:45.932Z</time></trkpt><trkpt lat="43.44837" lon="11.295125"><ele>564.0</ele><time>2026-04-20T11:51:46.932Z</time></trkpt><trkpt lat="43.44849" lon="11.294995"><ele>564.0</ele><time>2026-04-20T11:51:47.932Z</time></trkpt><trkpt lat="43.4486517" lon="11.2948917"><ele>564.0</ele><time>2026-04-20T11:51:48.932Z</time></trkpt><trkpt lat="43.4488283" lon="11.2948033"><ele>564.0</ele><time>2026-04-20T11:51:49.933Z</time></trkpt><trkpt lat="43.44902" lon="11.2947133"><ele>561.3333333333334</ele><time>2026-04-20T11:51:50.932Z</time></trkpt><trkpt lat="43.449205" lon="11.2946217"><ele>558.6666666666667</ele><time>2026-04-20T11:51:51.932Z</time></trkpt><trkpt lat="43.4493867" lon="11.2944883"><ele>556.0</ele><time>2026-04-20T11:51:52.932Z</time></trkpt><trkpt lat="43.4495567" lon="11.2943117"><ele>556.6666666666667</ele><time>2026-04-20T11:51:53.932Z</time></trkpt><trkpt lat="43.449705" lon="11.2941133"><ele>557.3333333333334</ele><time>2026-04-20T11:51:54.932Z</time></trkpt><trkpt lat="43.4498133" lon="11.2938983"><ele>558.0</ele><time>2026-04-20T11:51:55.932Z</time></trkpt><trkpt lat="43.44991" lon="11.2936783"><ele>559.0</ele><time>2026-04-20T11:51:56.933Z</time></trkpt><trkpt lat="43.4500133" lon="11.29349"><ele>560.0</ele><time>2026-04-20T11:51:57.932Z</time></trkpt><trkpt lat="43.45013" lon="11.293345"><ele>561.0</ele><time>2026-04-20T11:51:58.933Z</time></trkpt><trkpt lat="43.4502783" lon="11.293245"><ele>561.0</ele><time>2026-04-20T11:51:59.932Z</time></trkpt><trkpt lat="43.4504483" lon="11.2931617"><ele>561.0</ele><time>2026-04-20T11:52:00.932Z</time></trkpt><trkpt lat="43.450635" lon="11.29308"><ele>561.0</ele><time>2026-04-20T11:52:01.933Z</time></trkpt><trkpt lat="43.450835" lon="11.2929867"><ele>565.3333333333334</ele><time>2026-04-20T11:52:02.932Z</time></trkpt><trkpt lat="43.451025" lon="11.2928867"><ele>569.6666666666667</ele><time>2026-04-20T11:52:03.932Z</time></trkpt><trkpt lat="43.4512083" lon="11.2928067"><ele>574.0</ele><time>2026-04-20T11:52:04.932Z</time></trkpt><trkpt lat="43.4513717" lon="11.2927367"><ele>574.25</ele><time>2026-04-20T11:52:05.932Z</time></trkpt><trkpt lat="43.451505" lon="11.2926383"><ele>574.5</ele><time>2026-04-20T11:52:06.933Z</time></trkpt><trkpt lat="43.4516217" lon="11.2925167"><ele>574.75</ele><time>2026-04-20T11:52:07.932Z</time></trkpt><trkpt lat="43.451725" lon="11.29239"><ele>575.0</ele><time>2026-04-20T11:52:08.932Z</time></trkpt><trkpt lat="43.4518217" lon="11.2922783"><ele>575.4</ele><time>2026-04-20T11:52:09.932Z</time></trkpt><trkpt lat="43.4519233" lon="11.2921933"><ele>575.8</ele><time>2026-04-20T11:52:10.932Z</time></trkpt><trkpt lat="43.4520217" lon="11.2921183"><ele>576.2</ele><time>2026-04-20T11:52:11.932Z</time></trkpt><trkpt lat="43.452125" lon="11.2920717"><ele>576.6</ele><time>2026-04-20T11:52:12.932Z</time></trkpt><trkpt lat="43.4522267" lon="11.2920617"><ele>577.0</ele><time>2026-04-20T11:52:13.932Z</time></trkpt><trkpt lat="43.452325" lon="11.29209"><ele>577.6</ele><time>2026-04-20T11:52:14.932Z</time></trkpt><trkpt lat="43.452425" lon="11.29213"><ele>578.2</ele><time>2026-04-20T11:52:15.932Z</time></trkpt><trkpt lat="43.452525" lon="11.2921667"><ele>578.8</ele><time>2026-04-20T11:52:16.933Z</time></trkpt><trkpt lat="43.45263" lon="11.29221"><ele>579.4</ele><time>2026-04-20T11:52:17.932Z</time></trkpt><trkpt lat="43.452725" lon="11.2922517"><ele>580.0</ele><time>2026-04-20T11:52:18.932Z</time></trkpt><trkpt lat="43.45283" lon="11.2922867"><ele>578.5</ele><time>2026-04-20T11:52:19.932Z</time></trkpt><trkpt lat="43.45294" lon="11.2923217"><ele>577.0</ele><time>2026-04-20T11:52:20.932Z</time></trkpt><trkpt lat="43.4530583" lon="11.2923567"><ele>575.5</ele><time>2026-04-20T11:52:21.932Z</time></trkpt><trkpt lat="43.4531783" lon="11.2923917"><ele>574.0</ele><time>2026-04-20T11:52:22.932Z</time></trkpt><trkpt lat="43.4533033" lon="11.2924067"><ele>574.0</ele><time>2026-04-20T11:52:23.933Z</time></trkpt><trkpt lat="43.45343" lon="11.292415"><ele>574.0</ele><time>2026-04-20T11:52:24.932Z</time></trkpt><trkpt lat="43.4535517" lon="11.2924067"><ele>574.0</ele><time>2026-04-20T11:52:25.932Z</time></trkpt><trkpt lat="43.4536767" lon="11.2923833"><ele>574.0</ele><time>2026-04-20T11:52:26.933Z</time></trkpt><trkpt lat="43.4537983" lon="11.2923467"><ele>573.75</ele><time>2026-04-20T11:52:27.932Z</time></trkpt><trkpt lat="43.4539117" lon="11.2922983"><ele>573.5</ele><time>2026-04-20T11:52:28.932Z</time></trkpt><trkpt lat="43.454025" lon="11.2922417"><ele>573.25</ele><time>2026-04-20T11:52:29.932Z</time></trkpt><trkpt lat="43.4541367" lon="11.2921883"><ele>573.0</ele><time>2026-04-20T11:52:30.932Z</time></trkpt><trkpt lat="43.454255" lon="11.2921317"><ele>573.25</ele><time>2026-04-20T11:52:31.932Z</time></trkpt><trkpt lat="43.4543783" lon="11.2920683"><ele>573.5</ele><time>2026-04-20T11:52:32.933Z</time></trkpt><trkpt lat="43.454495" lon="11.29202"><ele>573.75</ele><time>2026-04-20T11:52:33.932Z</time></trkpt><trkpt lat="43.45461" lon="11.2919783"><ele>574.0</ele><time>2026-04-20T11:52:34.932Z</time></trkpt><trkpt lat="43.4547367" lon="11.291955"><ele>574.0</ele><time>2026-04-20T11:52:35.932Z</time></trkpt><trkpt lat="43.4548633" lon="11.2919433"><ele>574.0</ele><time>2026-04-20T11:52:36.932Z</time></trkpt><trkpt lat="43.4549833" lon="11.2919583"><ele>574.0</ele><time>2026-04-20T11:52:37.932Z</time></trkpt><trkpt lat="43.4551017" lon="11.2919783"><ele>574.0</ele><time>2026-04-20T11:52:38.932Z</time></trkpt><trkpt lat="43.45522" lon="11.2920067"><ele>574.0</ele><time>2026-04-20T11:52:39.932Z</time></trkpt><trkpt lat="43.4553383" lon="11.2920383"><ele>574.0</ele><time>2026-04-20T11:52:40.933Z</time></trkpt><trkpt lat="43.4554567" lon="11.2920767"><ele>574.0</ele><time>2026-04-20T11:52:41.932Z</time></trkpt><trkpt lat="43.455575" lon="11.2921183"><ele>574.0</ele><time>2026-04-20T11:52:42.932Z</time></trkpt><trkpt lat="43.45569" lon="11.2921517"><ele>574.8</ele><time>2026-04-20T11:52:43.932Z</time></trkpt><trkpt lat="43.4557983" lon="11.29218"><ele>575.5999999999999</ele><time>2026-04-20T11:52:44.933Z</time></trkpt><trkpt lat="43.455905" lon="11.292205"><ele>576.4</ele><time>2026-04-20T11:52:45.932Z</time></trkpt><trkpt lat="43.4560133" lon="11.2922333"><ele>577.1999999999999</ele><time>2026-04-20T11:52:46.933Z</time></trkpt><trkpt lat="43.4561233" lon="11.2922633"><ele>578.0</ele><time>2026-04-20T11:52:47.932Z</time></trkpt><trkpt lat="43.4562417" lon="11.2922967"><ele>577.5</ele><time>2026-04-20T11:52:48.932Z</time></trkpt><trkpt lat="43.456355" lon="11.2923283"><ele>577.0</ele><time>2026-04-20T11:52:49.933Z</time></trkpt><trkpt lat="43.456475" lon="11.292345"><ele>576.5</ele><time>2026-04-20T11:52:50.932Z</time></trkpt><trkpt lat="43.456595" lon="11.2923433"><ele>576.0</ele><time>2026-04-20T11:52:51.932Z</time></trkpt><trkpt lat="43.45672" lon="11.2923367"><ele>576.0</ele><time>2026-04-20T11:52:52.933Z</time></trkpt><trkpt lat="43.4568567" lon="11.2923183"><ele>576.0</ele><time>2026-04-20T11:52:53.932Z</time></trkpt><trkpt lat="43.457" lon="11.2922917"><ele>576.0</ele><time>2026-04-20T11:52:54.933Z</time></trkpt><trkpt lat="43.4571383" lon="11.29227"><ele>576.0</ele><time>2026-04-20T11:52:55.932Z</time></trkpt><trkpt lat="43.457275" lon="11.2922483"><ele>571.3333333333334</ele><time>2026-04-20T11:52:56.932Z</time></trkpt><trkpt lat="43.4574233" lon="11.29222"><ele>566.6666666666667</ele><time>2026-04-20T11:52:57.932Z</time></trkpt><trkpt lat="43.457585" lon="11.2921933"><ele>562.0</ele><time>2026-04-20T11:52:58.933Z</time></trkpt><trkpt lat="43.457745" lon="11.2921533"><ele>562.0</ele><time>2026-04-20T11:52:59.933Z</time></trkpt><trkpt lat="43.4578983" lon="11.2921167"><ele>562.0</ele><time>2026-04-20T11:53:00.932Z</time></trkpt><trkpt lat="43.4580583" lon="11.292085"><ele>562.0</ele><time>2026-04-20T11:53:01.932Z</time></trkpt><trkpt lat="43.4582267" lon="11.2920567"><ele>562.3333333333334</ele><time>2026-04-20T11:53:02.932Z</time></trkpt><trkpt lat="43.4583883" lon="11.2920117"><ele>562.6666666666666</ele><time>2026-04-20T11:53:03.932Z</time></trkpt><trkpt lat="43.4585367" lon="11.2919383"><ele>563.0</ele><time>2026-04-20T11:53:04.932Z</time></trkpt><trkpt lat="43.4586767" lon="11.2918633"><ele>564.5</ele><time>2026-04-20T11:53:05.932Z</time></trkpt><trkpt lat="43.4588083" lon="11.2917983"><ele>566.0</ele><time>2026-04-20T11:53:06.932Z</time></trkpt><trkpt lat="43.45894" lon="11.2917333"><ele>567.5</ele><time>2026-04-20T11:53:07.933Z</time></trkpt><trkpt lat="43.4590833" lon="11.291665"><ele>569.0</ele><time>2026-04-20T11:53:08.932Z</time></trkpt><trkpt lat="43.4592267" lon="11.2916"><ele>569.0</ele><time>2026-04-20T11:53:09.932Z</time></trkpt><trkpt lat="43.4593683" lon="11.2915267"><ele>569.0</ele><time>2026-04-20T11:53:10.932Z</time></trkpt><trkpt lat="43.459505" lon="11.2914617"><ele>569.0</ele><time>2026-04-20T11:53:11.932Z</time></trkpt><trkpt lat="43.4596417" lon="11.29139"><ele>569.0</ele><time>2026-04-20T11:53:12.932Z</time></trkpt><trkpt lat="43.459785" lon="11.2913167"><ele>566.75</ele><time>2026-04-20T11:53:13.933Z</time></trkpt><trkpt lat="43.4599267" lon="11.291245"><ele>564.5</ele><time>2026-04-20T11:53:14.932Z</time></trkpt><trkpt lat="43.460065" lon="11.2911783"><ele>562.25</ele><time>2026-04-20T11:53:15.932Z</time></trkpt><trkpt lat="43.4601917" lon="11.29111"><ele>560.0</ele><time>2026-04-20T11:53:16.932Z</time></trkpt><trkpt lat="43.4603233" lon="11.291045"><ele>562.0</ele><time>2026-04-20T11:53:17.933Z</time></trkpt><trkpt lat="43.4604517" lon="11.2909733"><ele>564.0</ele><time>2026-04-20T11:53:18.932Z</time></trkpt><trkpt lat="43.46058" lon="11.290905"><ele>566.0</ele><time>2026-04-20T11:53:19.932Z</time></trkpt><trkpt lat="43.4606983" lon="11.2908467"><ele>568.0</ele><time>2026-04-20T11:53:20.932Z</time></trkpt><trkpt lat="43.460805" lon="11.2907833"><ele>568.0</ele><time>2026-04-20T11:53:21.933Z</time></trkpt><trkpt lat="43.4609233" lon="11.29071"><ele>568.0</ele><time>2026-04-20T11:53:22.932Z</time></trkpt><trkpt lat="43.4610433" lon="11.2906417"><ele>568.0</ele><time>2026-04-20T11:53:23.932Z</time></trkpt><trkpt lat="43.461155" lon="11.29058"><ele>568.0</ele><time>2026-04-20T11:53:24.933Z</time></trkpt><trkpt lat="43.46127" lon="11.2905167"><ele>566.25</ele><time>2026-04-20T11:53:25.932Z</time></trkpt><trkpt lat="43.461375" lon="11.2904567"><ele>564.5</ele><time>2026-04-20T11:53:26.932Z</time></trkpt><trkpt lat="43.461475" lon="11.2903983"><ele>562.75</ele><time>2026-04-20T11:53:27.932Z</time></trkpt><trkpt lat="43.461585" lon="11.290345"><ele>561.0</ele><time>2026-04-20T11:53:28.932Z</time></trkpt><trkpt lat="43.46169" lon="11.290295"><ele>561.0</ele><time>2026-04-20T11:53:29.932Z</time></trkpt><trkpt lat="43.4617983" lon="11.290255"><ele>561.0</ele><time>2026-04-20T11:53:30.932Z</time></trkpt><trkpt lat="43.461905" lon="11.29022"><ele>561.0</ele><time>2026-04-20T11:53:31.932Z</time></trkpt><trkpt lat="43.462015" lon="11.2902017"><ele>561.0</ele><time>2026-04-20T11:53:32.932Z</time></trkpt><trkpt lat="43.4621333" lon="11.2901733"><ele>561.25</ele><time>2026-04-20T11:53:33.932Z</time></trkpt><trkpt lat="43.4622467" lon="11.2901517"><ele>561.5</ele><time>2026-04-20T11:53:34.932Z</time></trkpt><trkpt lat="43.4623517" lon="11.2901283"><ele>561.75</ele><time>2026-04-20T11:53:35.932Z</time></trkpt><trkpt lat="43.4624667" lon="11.290105"><ele>562.0</ele><time>2026-04-20T11:53:36.932Z</time></trkpt><trkpt lat="43.4625783" lon="11.290085"><ele>562.0</ele><time>2026-04-20T11:53:37.932Z</time></trkpt><trkpt lat="43.46269" lon="11.290055"><ele>562.0</ele><time>2026-04-20T11:53:38.932Z</time></trkpt><trkpt lat="43.4627983" lon="11.290035"><ele>562.0</ele><time>2026-04-20T11:53:39.932Z</time></trkpt><trkpt lat="43.4629033" lon="11.2899983"><ele>562.0</ele><time>2026-04-20T11:53:40.932Z</time></trkpt><trkpt lat="43.4630067" lon="11.289975"><ele>562.0</ele><time>2026-04-20T11:53:41.933Z</time></trkpt><trkpt lat="43.4631167" lon="11.289935"><ele>562.5</ele><time>2026-04-20T11:53:42.932Z</time></trkpt><trkpt lat="43.4632317" lon="11.289895"><ele>563.0</ele><time>2026-04-20T11:53:43.932Z</time></trkpt><trkpt lat="43.4633417" lon="11.2898667"><ele>563.5</ele><time>2026-04-20T11:53:44.932Z</time></trkpt><trkpt lat="43.4634533" lon="11.28984"><ele>564.0</ele><time>2026-04-20T11:53:45.932Z</time></trkpt><trkpt lat="43.4635683" lon="11.2898083"><ele>564.0</ele><time>2026-04-20T11:53:46.932Z</time></trkpt><trkpt lat="43.46368" lon="11.2897767"><ele>564.0</ele><time>2026-04-20T11:53:47.933Z</time></trkpt><trkpt lat="43.4637917" lon="11.2897433"><ele>564.0</ele><time>2026-04-20T11:53:48.932Z</time></trkpt><trkpt lat="43.4639017" lon="11.28971"><ele>564.0</ele><time>2026-04-20T11:53:49.932Z</time></trkpt><trkpt lat="43.464015" lon="11.289675"><ele>563.4</ele><time>2026-04-20T11:53:50.932Z</time></trkpt><trkpt lat="43.464125" lon="11.28964"><ele>562.8</ele><time>2026-04-20T11:53:51.932Z</time></trkpt><trkpt lat="43.4642283" lon="11.2896033"><ele>562.2</ele><time>2026-04-20T11:53:52.932Z</time></trkpt><trkpt lat="43.46433" lon="11.289575"><ele>561.6</ele><time>2026-04-20T11:53:53.932Z</time></trkpt><trkpt lat="43.4644333" lon="11.289545"><ele>561.0</ele><time>2026-04-20T11:53:54.932Z</time></trkpt><trkpt lat="43.4645317" lon="11.28951"><ele>561.0</ele><time>2026-04-20T11:53:55.932Z</time></trkpt><trkpt lat="43.4646367" lon="11.2894833"><ele>564.0</ele><time>2026-04-20T11:53:56.932Z</time></trkpt></trkseg><trkseg><trkpt lat="43.4682433" lon="11.2878283"><ele>570.0</ele><time>2026-04-20T13:19:56.034Z</time></trkpt><trkpt lat="43.4682417" lon="11.2877067"><ele>570.0</ele><time>2026-04-20T13:20:16.033Z</time></trkpt><trkpt lat="43.4682267" lon="11.2876017"><ele>570.0</ele><time>2026-04-20T13:20:19.033Z</time></trkpt><trkpt lat="43.4682267" lon="11.287475"><ele>570.0</ele><time>2026-04-20T13:20:22.033Z</time></trkpt><trkpt lat="43.46822" lon="11.2873883"><ele>570.0</ele><time>2026-04-20T13:20:24.034Z</time></trkpt><trkpt lat="43.468215" lon="11.2872717"><ele>570.0</ele><time>2026-04-20T13:20:27.034Z</time></trkpt><trkpt lat="43.468245" lon="11.287195"><ele>569.3333333333334</ele><time>2026-04-20T13:20:29.034Z</time></trkpt><trkpt lat="43.4682983" lon="11.28712"><ele>568.6666666666666</ele><time>2026-04-20T13:20:31.034Z</time></trkpt><trkpt lat="43.4683933" lon="11.2870033"><ele>568.0</ele><time>2026-04-20T13:20:33.034Z</time></trkpt><trkpt lat="43.468445" lon="11.2869333"><ele>567.3333333333333</ele><time>2026-04-20T13:20:34.033Z</time></trkpt><trkpt lat="43.4685017" lon="11.28685"><ele>566.6666666666666</ele><time>2026-04-20T13:20:35.033Z</time></trkpt><trkpt lat="43.4685533" lon="11.2867633"><ele>566.0</ele><time>2026-04-20T13:20:36.033Z</time></trkpt><trkpt lat="43.4685967" lon="11.286685"><ele>566.0</ele><time>2026-04-20T13:20:37.033Z</time></trkpt><trkpt lat="43.468635" lon="11.286615"><ele>566.0</ele><time>2026-04-20T13:20:38.033Z</time></trkpt><trkpt lat="43.46871" lon="11.2865"><ele>566.0</ele><time>2026-04-20T13:20:40.032Z</time></trkpt><trkpt lat="43.46876" lon="11.2864317"><ele>566.0</ele><time>2026-04-20T13:20:41.032Z</time></trkpt><trkpt lat="43.4688183" lon="11.28636"><ele>566.0</ele><time>2026-04-20T13:20:42.032Z</time></trkpt><trkpt lat="43.4688933" lon="11.286295"><ele>566.0</ele><time>2026-04-20T13:20:43.033Z</time></trkpt><trkpt lat="43.4689683" lon="11.28623"><ele>566.0</ele><time>2026-04-20T13:20:44.033Z</time></trkpt><trkpt lat="43.4690533" lon="11.2861783"><ele>566.0</ele><time>2026-04-20T13:20:45.033Z</time></trkpt><trkpt lat="43.469145" lon="11.2861383"><ele>566.0</ele><time>2026-04-20T13:20:46.033Z</time></trkpt><trkpt lat="43.4692383" lon="11.286105"><ele>566.0</ele><time>2026-04-20T13:20:47.032Z</time></trkpt><trkpt lat="43.4693333" lon="11.2860833"><ele>566.0</ele><time>2026-04-20T13:20:48.033Z</time></trkpt><trkpt lat="43.4694267" lon="11.2860633"><ele>566.0</ele><time>2026-04-20T13:20:49.033Z</time></trkpt><trkpt lat="43.4695233" lon="11.286055"><ele>566.0</ele><time>2026-04-20T13:20:50.033Z</time></trkpt><trkpt lat="43.4696183" lon="11.2860467"><ele>566.0</ele><time>2026-04-20T13:20:51.033Z</time></trkpt><trkpt lat="43.4697067" lon="11.286035"><ele>566.0</ele><time>2026-04-20T13:20:52.033Z</time></trkpt><trkpt lat="43.4697883" lon="11.2860167"><ele>566.0</ele><time>2026-04-20T13:20:53.033Z</time></trkpt><trkpt lat="43.469865" lon="11.285995"><ele>566.0</ele><time>2026-04-20T13:20:54.033Z</time></trkpt><trkpt lat="43.4699417" lon="11.28597"><ele>566.4</ele><time>2026-04-20T13:20:55.033Z</time></trkpt><trkpt lat="43.4700217" lon="11.2859333"><ele>566.8</ele><time>2026-04-20T13:20:56.033Z</time></trkpt><trkpt lat="43.4701" lon="11.28589"><ele>567.1999999999999</ele><time>2026-04-20T13:20:57.033Z</time></trkpt><trkpt lat="43.470185" lon="11.2858383"><ele>567.6</ele><time>2026-04-20T13:20:58.033Z</time></trkpt><trkpt lat="43.4702733" lon="11.2857783"><ele>568.0</ele><time>2026-04-20T13:20:59.032Z</time></trkpt><trkpt lat="43.4703767" lon="11.285725"><ele>568.25</ele><time>2026-04-20T13:21:00.033Z</time></trkpt><trkpt lat="43.4704933" lon="11.2856717"><ele>568.5</ele><time>2026-04-20T13:21:01.033Z</time></trkpt><trkpt lat="43.4706133" lon="11.2856167"><ele>568.75</ele><time>2026-04-20T13:21:02.033Z</time></trkpt><trkpt lat="43.47073" lon="11.2855617"><ele>569.0</ele><time>2026-04-20T13:21:03.033Z</time></trkpt><trkpt lat="43.4708383" lon="11.28551"><ele>567.6</ele><time>2026-04-20T13:21:04.033Z</time></trkpt><trkpt lat="43.4709417" lon="11.2854617"><ele>566.2</ele><time>2026-04-20T13:21:05.033Z</time></trkpt><trkpt lat="43.471045" lon="11.2854267"><ele>564.8000000000001</ele><time>2026-04-20T13:21:06.033Z</time></trkpt><trkpt lat="43.4711483" lon="11.2854083"><ele>563.4</ele><time>2026-04-20T13:21:07.033Z</time></trkpt><trkpt lat="43.4712483" lon="11.2854083"><ele>562.0</ele><time>2026-04-20T13:21:08.033Z</time></trkpt><trkpt lat="43.4713483" lon="11.2854183"><ele>564.8000000000001</ele><time>2026-04-20T13:21:09.033Z</time></trkpt><trkpt lat="43.4714517" lon="11.2854417"><ele>567.6</ele><time>2026-04-20T13:21:10.033Z</time></trkpt><trkpt lat="43.4715633" lon="11.2854767"><ele>570.4000000000001</ele><time>2026-04-20T13:21:11.033Z</time></trkpt><trkpt lat="43.4716767" lon="11.2855117"><ele>573.2</ele><time>2026-04-20T13:21:12.033Z</time></trkpt><trkpt lat="43.4717883" lon="11.2855433"><ele>576.0</ele><time>2026-04-20T13:21:13.033Z</time></trkpt><trkpt lat="43.4719033" lon="11.2855733"><ele>576.4</ele><time>2026-04-20T13:21:14.033Z</time></trkpt><trkpt lat="43.4720167" lon="11.2856133"><ele>576.8</ele><time>2026-04-20T13:21:15.033Z</time></trkpt><trkpt lat="43.4721183" lon="11.2856433"><ele>577.1999999999999</ele><time>2026-04-20T13:21:16.033Z</time></trkpt><trkpt lat="43.4722133" lon="11.2856783"><ele>577.6</ele><time>2026-04-20T13:21:17.033Z</time></trkpt><trkpt lat="43.4722983" lon="11.28571"><ele>578.0</ele><time>2026-04-20T13:21:18.033Z</time></trkpt><trkpt lat="43.4723867" lon="11.2857467"><ele>578.0</ele><time>2026-04-20T13:21:19.033Z</time></trkpt><trkpt lat="43.4724833" lon="11.2857883"><ele>578.0</ele><time>2026-04-20T13:21:20.033Z</time></trkpt><trkpt lat="43.472585" lon="11.2858267"><ele>578.0</ele><time>2026-04-20T13:21:21.032Z</time></trkpt><trkpt lat="43.4726883" lon="11.2858667"><ele>578.0</ele><time>2026-04-20T13:21:22.033Z</time></trkpt><trkpt lat="43.4727883" lon="11.2859367"><ele>578.0</ele><time>2026-04-20T13:21:23.033Z</time></trkpt><trkpt lat="43.472875" lon="11.2860333"><ele>576.75</ele><time>2026-04-20T13:21:24.033Z</time></trkpt><trkpt lat="43.47295" lon="11.286165"><ele>575.5</ele><time>2026-04-20T13:21:25.033Z</time></trkpt><trkpt lat="43.4730133" lon="11.286305"><ele>574.25</ele><time>2026-04-20T13:21:26.033Z</time></trkpt><trkpt lat="43.47307" lon="11.2864483"><ele>573.0</ele><time>2026-04-20T13:21:27.033Z</time></trkpt><trkpt lat="43.47311" lon="11.2865967"><ele>572.5</ele><time>2026-04-20T13:21:28.033Z</time></trkpt><trkpt lat="43.4731333" lon="11.2867483"><ele>572.0</ele><time>2026-04-20T13:21:29.033Z</time></trkpt><trkpt lat="43.4731383" lon="11.286905"><ele>571.5</ele><time>2026-04-20T13:21:30.033Z</time></trkpt><trkpt lat="43.4731383" lon="11.2870617"><ele>571.0</ele><time>2026-04-20T13:21:31.033Z</time></trkpt><trkpt lat="43.4731283" lon="11.2872217"><ele>570.75</ele><time>2026-04-20T13:21:32.033Z</time></trkpt><trkpt lat="43.473105" lon="11.2873833"><ele>570.5</ele><time>2026-04-20T13:21:33.032Z</time></trkpt><trkpt lat="43.47308" lon="11.2875417"><ele>570.25</ele><time>2026-04-20T13:21:34.033Z</time></trkpt><trkpt lat="43.4730533" lon="11.2876983"><ele>570.0</ele><time>2026-04-20T13:21:35.033Z</time></trkpt><trkpt lat="43.4730283" lon="11.28786"><ele>570.0</ele><time>2026-04-20T13:21:36.033Z</time></trkpt><trkpt lat="43.4730033" lon="11.2880117"><ele>570.0</ele><time>2026-04-20T13:21:37.033Z</time></trkpt><trkpt lat="43.4729833" lon="11.2881617"><ele>570.0</ele><time>2026-04-20T13:21:38.032Z</time></trkpt><trkpt lat="43.4729717" lon="11.2883083"><ele>570.0</ele><time>2026-04-20T13:21:39.033Z</time></trkpt><trkpt lat="43.4729717" lon="11.28845"><ele>570.0</ele><time>2026-04-20T13:21:40.033Z</time></trkpt><trkpt lat="43.4729967" lon="11.2885867"><ele>569.4</ele><time>2026-04-20T13:21:41.033Z</time></trkpt><trkpt lat="43.47304" lon="11.2887083"><ele>568.8</ele><time>2026-04-20T13:21:42.033Z</time></trkpt><trkpt lat="43.4731083" lon="11.2888017"><ele>568.2</ele><time>2026-04-20T13:21:43.033Z</time></trkpt><trkpt lat="43.4732" lon="11.2888533"><ele>567.6</ele><time>2026-04-20T13:21:44.033Z</time></trkpt><trkpt lat="43.473295" lon="11.2888767"><ele>567.0</ele><time>2026-04-20T13:21:45.033Z</time></trkpt><trkpt lat="43.473395" lon="11.2888117"><ele>567.0</ele><time>2026-04-20T13:21:46.033Z</time></trkpt><trkpt lat="43.4734767" lon="11.288715"><ele>567.0</ele><time>2026-04-20T13:21:47.032Z</time></trkpt><trkpt lat="43.4735433" lon="11.28859"><ele>567.0</ele><time>2026-04-20T13:21:48.033Z</time></trkpt><trkpt lat="43.4736" lon="11.2884583"><ele>567.0</ele><time>2026-04-20T13:21:49.033Z</time></trkpt><trkpt lat="43.4736533" lon="11.288315"><ele>567.0</ele><time>2026-04-20T13:21:50.033Z</time></trkpt><trkpt lat="43.4737017" lon="11.28817"><ele>567.75</ele><time>2026-04-20T13:21:51.032Z</time></trkpt><trkpt lat="43.4737467" lon="11.288025"><ele>568.5</ele><time>2026-04-20T13:21:52.032Z</time></trkpt><trkpt lat="43.4737883" lon="11.2878783"><ele>569.25</ele><time>2026-04-20T13:21:53.033Z</time></trkpt><trkpt lat="43.4738267" lon="11.2877267"><ele>570.0</ele><time>2026-04-20T13:21:54.033Z</time></trkpt><trkpt lat="43.4738633" lon="11.2875717"><ele>566.0</ele><time>2026-04-20T13:21:55.033Z</time></trkpt><trkpt lat="43.473895" lon="11.2874067"><ele>562.0</ele><time>2026-04-20T13:21:56.033Z</time></trkpt><trkpt lat="43.473925" lon="11.28724"><ele>558.0</ele><time>2026-04-20T13:21:57.033Z</time></trkpt><trkpt lat="43.4739483" lon="11.2870667"><ele>554.0</ele><time>2026-04-20T13:21:58.033Z</time></trkpt><trkpt lat="43.473975" lon="11.2868933"><ele>554.0</ele><time>2026-04-20T13:21:59.033Z</time></trkpt><trkpt lat="43.4739983" lon="11.2867233"><ele>554.0</ele><time>2026-04-20T13:22:00.032Z</time></trkpt><trkpt lat="43.4740233" lon="11.2865533"><ele>554.0</ele><time>2026-04-20T13:22:01.033Z</time></trkpt><trkpt lat="43.4740517" lon="11.2863883"><ele>554.0</ele><time>2026-04-20T13:22:02.032Z</time></trkpt><trkpt lat="43.4740933" lon="11.28623"><ele>554.2</ele><time>2026-04-20T13:22:03.033Z</time></trkpt><trkpt lat="43.4741517" lon="11.2860867"><ele>554.4</ele><time>2026-04-20T13:22:04.033Z</time></trkpt><trkpt lat="43.4742267" lon="11.2859733"><ele>554.6</ele><time>2026-04-20T13:22:05.033Z</time></trkpt><trkpt lat="43.4743167" lon="11.285905"><ele>554.8</ele><time>2026-04-20T13:22:06.033Z</time></trkpt><trkpt lat="43.4744133" lon="11.285875"><ele>555.0</ele><time>2026-04-20T13:22:07.033Z</time></trkpt><trkpt lat="43.4745083" lon="11.28589"><ele>555.0</ele><time>2026-04-20T13:22:08.033Z</time></trkpt><trkpt lat="43.474595" lon="11.285965"><ele>555.0</ele><time>2026-04-20T13:22:09.033Z</time></trkpt><trkpt lat="43.4746533" lon="11.2861033"><ele>555.0</ele><time>2026-04-20T13:22:10.033Z</time></trkpt><trkpt lat="43.47469" lon="11.286275"><ele>555.0</ele><time>2026-04-20T13:22:11.033Z</time></trkpt><trkpt lat="43.4747133" lon="11.2864683"><ele>557.5</ele><time>2026-04-20T13:22:12.033Z</time></trkpt><trkpt lat="43.4747283" lon="11.2866667"><ele>560.0</ele><time>2026-04-20T13:22:13.033Z</time></trkpt><trkpt lat="43.474745" lon="11.2868633"><ele>562.5</ele><time>2026-04-20T13:22:14.033Z</time></trkpt><trkpt lat="43.47477" lon="11.28705"><ele>565.0</ele><time>2026-04-20T13:22:15.033Z</time></trkpt><trkpt lat="43.4748" lon="11.2872283"><ele>563.0</ele><time>2026-04-20T13:22:16.032Z</time></trkpt><trkpt lat="43.4748267" lon="11.287405"><ele>561.0</ele><time>2026-04-20T13:22:17.033Z</time></trkpt><trkpt lat="43.47485" lon="11.2875683"><ele>559.0</ele><time>2026-04-20T13:22:18.033Z</time></trkpt><trkpt lat="43.4748817" lon="11.287725"><ele>557.0</ele><time>2026-04-20T13:22:19.032Z</time></trkpt><trkpt lat="43.4749117" lon="11.287875"><ele>557.0</ele><time>2026-04-20T13:22:20.032Z</time></trkpt><trkpt lat="43.4749483" lon="11.2880183"><ele>557.0</ele><time>2026-04-20T13:22:21.032Z</time></trkpt><trkpt lat="43.474995" lon="11.288155"><ele>557.0</ele><time>2026-04-20T13:22:22.033Z</time></trkpt><trkpt lat="43.475055" lon="11.288275"><ele>557.0</ele><time>2026-04-20T13:22:23.032Z</time></trkpt><trkpt lat="43.47513" lon="11.28838"><ele>557.0</ele><time>2026-04-20T13:22:24.033Z</time></trkpt><trkpt lat="43.4752183" lon="11.288465"><ele>555.5</ele><time>2026-04-20T13:22:25.033Z</time></trkpt><trkpt lat="43.4753217" lon="11.288525"><ele>554.0</ele><time>2026-04-20T13:22:26.032Z</time></trkpt><trkpt lat="43.4754417" lon="11.28857"><ele>552.5</ele><time>2026-04-20T13:22:27.033Z</time></trkpt><trkpt lat="43.4755667" lon="11.2886117"><ele>551.0</ele><time>2026-04-20T13:22:28.033Z</time></trkpt><trkpt lat="43.47569" lon="11.2886567"><ele>551.0</ele><time>2026-04-20T13:22:29.033Z</time></trkpt><trkpt lat="43.4758083" lon="11.2887083"><ele>551.0</ele><time>2026-04-20T13:22:30.033Z</time></trkpt><trkpt lat="43.4759167" lon="11.2887767"><ele>551.0</ele><time>2026-04-20T13:22:31.033Z</time></trkpt><trkpt lat="43.4760117" lon="11.2888667"><ele>551.0</ele><time>2026-04-20T13:22:32.033Z</time></trkpt><trkpt lat="43.4760917" lon="11.2889783"><ele>549.25</ele><time>2026-04-20T13:22:33.032Z</time></trkpt><trkpt lat="43.4761567" lon="11.289115"><ele>547.5</ele><time>2026-04-20T13:22:34.032Z</time></trkpt><trkpt lat="43.4762067" lon="11.2892683"><ele>545.75</ele><time>2026-04-20T13:22:35.032Z</time></trkpt><trkpt lat="43.4762517" lon="11.2894367"><ele>544.0</ele><time>2026-04-20T13:22:36.033Z</time></trkpt><trkpt lat="43.4762867" lon="11.2896117"><ele>544.5</ele><time>2026-04-20T13:22:37.033Z</time></trkpt><trkpt lat="43.476315" lon="11.2898"><ele>545.0</ele><time>2026-04-20T13:22:38.033Z</time></trkpt><trkpt lat="43.47635" lon="11.2899833"><ele>545.5</ele><time>2026-04-20T13:22:39.033Z</time></trkpt><trkpt lat="43.4763833" lon="11.2901683"><ele>546.0</ele><time>2026-04-20T13:22:40.033Z</time></trkpt><trkpt lat="43.4764183" lon="11.2903533"><ele>546.0</ele><time>2026-04-20T13:22:41.032Z</time></trkpt><trkpt lat="43.4764533" lon="11.290525"><ele>546.0</ele><time>2026-04-20T13:22:42.033Z</time></trkpt><trkpt lat="43.4764867" lon="11.2906833"><ele>546.0</ele><time>2026-04-20T13:22:43.033Z</time></trkpt><trkpt lat="43.476515" lon="11.29083"><ele>546.0</ele><time>2026-04-20T13:22:44.033Z</time></trkpt><trkpt lat="43.4765233" lon="11.290975"><ele>546.0</ele><time>2026-04-20T13:22:45.033Z</time></trkpt><trkpt lat="43.4764983" lon="11.291105"><ele>546.0</ele><time>2026-04-20T13:22:46.033Z</time></trkpt><trkpt lat="43.4764383" lon="11.2912067"><ele>546.0</ele><time>2026-04-20T13:22:47.033Z</time></trkpt><trkpt lat="43.4763467" lon="11.2912733"><ele>546.0</ele><time>2026-04-20T13:22:48.033Z</time></trkpt><trkpt lat="43.47624" lon="11.291325"><ele>546.0</ele><time>2026-04-20T13:22:49.033Z</time></trkpt><trkpt lat="43.4761333" lon="11.2913883"><ele>545.75</ele><time>2026-04-20T13:22:50.032Z</time></trkpt><trkpt lat="43.4760317" lon="11.2914633"><ele>545.5</ele><time>2026-04-20T13:22:51.033Z</time></trkpt><trkpt lat="43.47594" lon="11.29156"><ele>545.25</ele><time>2026-04-20T13:22:52.033Z</time></trkpt><trkpt lat="43.4758517" lon="11.2916783"><ele>545.0</ele><time>2026-04-20T13:22:53.032Z</time></trkpt><trkpt lat="43.4757667" lon="11.2918067"><ele>545.0</ele><time>2026-04-20T13:22:54.033Z</time></trkpt><trkpt lat="43.4756867" lon="11.29194"><ele>545.0</ele><time>2026-04-20T13:22:55.033Z</time></trkpt><trkpt lat="43.4756067" lon="11.2920783"><ele>545.0</ele><time>2026-04-20T13:22:56.032Z</time></trkpt><trkpt lat="43.47553" lon="11.2922217"><ele>545.0</ele><time>2026-04-20T13:22:57.033Z</time></trkpt><trkpt lat="43.4754617" lon="11.2923767"><ele>543.75</ele><time>2026-04-20T13:22:58.033Z</time></trkpt><trkpt lat="43.475405" lon="11.2925417"><ele>542.5</ele><time>2026-04-20T13:22:59.033Z</time></trkpt><trkpt lat="43.4753733" lon="11.2927183"><ele>541.25</ele><time>2026-04-20T13:23:00.033Z</time></trkpt><trkpt lat="43.475355" lon="11.2929067"><ele>540.0</ele><time>2026-04-20T13:23:01.033Z</time></trkpt><trkpt lat="43.4753383" lon="11.2930933"><ele>540.0</ele><time>2026-04-20T13:23:02.032Z</time></trkpt><trkpt lat="43.4753233" lon="11.2932833"><ele>540.0</ele><time>2026-04-20T13:23:03.033Z</time></trkpt><trkpt lat="43.4753083" lon="11.2934767"><ele>540.0</ele><time>2026-04-20T13:23:04.033Z</time></trkpt><trkpt lat="43.4752933" lon="11.2936717"><ele>540.0</ele><time>2026-04-20T13:23:05.033Z</time></trkpt><trkpt lat="43.47528" lon="11.29387"><ele>542.0</ele><time>2026-04-20T13:23:06.032Z</time></trkpt><trkpt lat="43.4752683" lon="11.2940717"><ele>544.0</ele><time>2026-04-20T13:23:07.033Z</time></trkpt><trkpt lat="43.4752533" lon="11.2942717"><ele>546.0</ele><time>2026-04-20T13:23:08.033Z</time></trkpt><trkpt lat="43.47524" lon="11.2944733"><ele>548.0</ele><time>2026-04-20T13:23:09.033Z</time></trkpt><trkpt lat="43.4752233" lon="11.2946717"><ele>548.75</ele><time>2026-04-20T13:23:10.033Z</time></trkpt><trkpt lat="43.4752017" lon="11.2948717"><ele>549.5</ele><time>2026-04-20T13:23:11.033Z</time></trkpt><trkpt lat="43.4751867" lon="11.29507"><ele>550.25</ele><time>2026-04-20T13:23:12.033Z</time></trkpt><trkpt lat="43.4751817" lon="11.2952633"><ele>551.0</ele><time>2026-04-20T13:23:13.033Z</time></trkpt><trkpt lat="43.4751933" lon="11.2954433"><ele>550.5</ele><time>2026-04-20T13:23:14.033Z</time></trkpt><trkpt lat="43.4752183" lon="11.2956217"><ele>550.0</ele><time>2026-04-20T13:23:15.033Z</time></trkpt><trkpt lat="43.4752583" lon="11.2957967"><ele>549.5</ele><time>2026-04-20T13:23:16.033Z</time></trkpt><trkpt lat="43.47531" lon="11.295965"><ele>549.0</ele><time>2026-04-20T13:23:17.033Z</time></trkpt><trkpt lat="43.475375" lon="11.296125"><ele>552.25</ele><time>2026-04-20T13:23:18.033Z</time></trkpt><trkpt lat="43.4754567" lon="11.2962717"><ele>555.5</ele><time>2026-04-20T13:23:19.033Z</time></trkpt><trkpt lat="43.475555" lon="11.2964"><ele>558.75</ele><time>2026-04-20T13:23:20.032Z</time></trkpt><trkpt lat="43.4756633" lon="11.2965083"><ele>562.0</ele><time>2026-04-20T13:23:21.033Z</time></trkpt><trkpt lat="43.4757767" lon="11.2966033"><ele>562.0</ele><time>2026-04-20T13:23:22.033Z</time></trkpt><trkpt lat="43.475895" lon="11.2966817"><ele>562.0</ele><time>2026-04-20T13:23:23.033Z</time></trkpt><trkpt lat="43.4760183" lon="11.2967467"><ele>562.0</ele><time>2026-04-20T13:23:24.033Z</time></trkpt><trkpt lat="43.4761433" lon="11.296795"><ele>562.0</ele><time>2026-04-20T13:23:25.032Z</time></trkpt><trkpt lat="43.4762617" lon="11.296845"><ele>564.6</ele><time>2026-04-20T13:23:26.032Z</time></trkpt><trkpt lat="43.4763717" lon="11.2968967"><ele>567.2</ele><time>2026-04-20T13:23:27.033Z</time></trkpt><trkpt lat="43.47647" lon="11.2969517"><ele>569.8</ele><time>2026-04-20T13:23:28.033Z</time></trkpt><trkpt lat="43.4765583" lon="11.2970217"><ele>572.4</ele><time>2026-04-20T13:23:29.033Z</time></trkpt><trkpt lat="43.4766367" lon="11.29712"><ele>575.0</ele><time>2026-04-20T13:23:30.033Z</time></trkpt><trkpt lat="43.4767033" lon="11.2972417"><ele>573.0</ele><time>2026-04-20T13:23:31.033Z</time></trkpt><trkpt lat="43.47677" lon="11.2973733"><ele>571.0</ele><time>2026-04-20T13:23:32.033Z</time></trkpt><trkpt lat="43.4768383" lon="11.297515"><ele>569.0</ele><time>2026-04-20T13:23:33.033Z</time></trkpt><trkpt lat="43.476905" lon="11.2976667"><ele>567.0</ele><time>2026-04-20T13:23:34.033Z</time></trkpt><trkpt lat="43.476965" lon="11.29782"><ele>567.0</ele><time>2026-04-20T13:23:35.033Z</time></trkpt><trkpt lat="43.477015" lon="11.2979767"><ele>567.0</ele><time>2026-04-20T13:23:36.033Z</time></trkpt><trkpt lat="43.4770617" lon="11.29814"><ele>567.0</ele><time>2026-04-20T13:23:37.033Z</time></trkpt><trkpt lat="43.4771133" lon="11.2983067"><ele>567.0</ele><time>2026-04-20T13:23:38.033Z</time></trkpt><trkpt lat="43.477165" lon="11.298475"><ele>567.25</ele><time>2026-04-20T13:23:39.033Z</time></trkpt><trkpt lat="43.477215" lon="11.2986517"><ele>567.5</ele><time>2026-04-20T13:23:40.033Z</time></trkpt><trkpt lat="43.4772633" lon="11.2988317"><ele>567.75</ele><time>2026-04-20T13:23:41.033Z</time></trkpt><trkpt lat="43.477305" lon="11.2990167"><ele>568.0</ele><time>2026-04-20T13:23:42.033Z</time></trkpt><trkpt lat="43.4773317" lon="11.29921"><ele>568.0</ele><time>2026-04-20T13:23:43.032Z</time></trkpt><trkpt lat="43.4773317" lon="11.2994"><ele>568.0</ele><time>2026-04-20T13:23:44.033Z</time></trkpt><trkpt lat="43.4773083" lon="11.2995883"><ele>568.0</ele><time>2026-04-20T13:23:45.033Z</time></trkpt><trkpt lat="43.4772733" lon="11.2997767"><ele>568.0</ele><time>2026-04-20T13:23:46.033Z</time></trkpt><trkpt lat="43.4772333" lon="11.2999617"><ele>569.0</ele><time>2026-04-20T13:23:47.033Z</time></trkpt><trkpt lat="43.4771917" lon="11.3001433"><ele>570.0</ele><time>2026-04-20T13:23:48.033Z</time></trkpt><trkpt lat="43.47715" lon="11.3003267"><ele>571.0</ele><time>2026-04-20T13:23:49.033Z</time></trkpt><trkpt lat="43.4771117" lon="11.300515"><ele>572.0</ele><time>2026-04-20T13:23:50.033Z</time></trkpt><trkpt lat="43.4770767" lon="11.3007017"><ele>575.75</ele><time>2026-04-20T13:23:51.033Z</time></trkpt><trkpt lat="43.4770317" lon="11.3008867"><ele>579.5</ele><time>2026-04-20T13:23:52.032Z</time></trkpt><trkpt lat="43.477" lon="11.3010583"><ele>583.25</ele><time>2026-04-20T13:23:53.033Z</time></trkpt><trkpt lat="43.476995" lon="11.3012183"><ele>587.0</ele><time>2026-04-20T13:23:54.033Z</time></trkpt><trkpt lat="43.477025" lon="11.3013633"><ele>587.25</ele><time>2026-04-20T13:23:55.032Z</time></trkpt><trkpt lat="43.477085" lon="11.301495"><ele>587.5</ele><time>2026-04-20T13:23:56.032Z</time></trkpt><trkpt lat="43.47717" lon="11.301605"><ele>587.75</ele><time>2026-04-20T13:23:57.033Z</time></trkpt><trkpt lat="43.477275" lon="11.3016933"><ele>588.0</ele><time>2026-04-20T13:23:58.032Z</time></trkpt><trkpt lat="43.4773933" lon="11.30177"><ele>586.25</ele><time>2026-04-20T13:23:59.032Z</time></trkpt><trkpt lat="43.4775133" lon="11.301845"><ele>584.5</ele><time>2026-04-20T13:24:00.033Z</time></trkpt><trkpt lat="43.4776283" lon="11.3019233"><ele>582.75</ele><time>2026-04-20T13:24:01.033Z</time></trkpt><trkpt lat="43.4777433" lon="11.3020033"><ele>581.0</ele><time>2026-04-20T13:24:02.032Z</time></trkpt><trkpt lat="43.4778533" lon="11.3020917"><ele>582.75</ele><time>2026-04-20T13:24:03.032Z</time></trkpt><trkpt lat="43.477955" lon="11.3021883"><ele>584.5</ele><time>2026-04-20T13:24:04.033Z</time></trkpt><trkpt lat="43.4780467" lon="11.302305"><ele>586.25</ele><time>2026-04-20T13:24:05.033Z</time></trkpt><trkpt lat="43.4781217" lon="11.3024367"><ele>588.0</ele><time>2026-04-20T13:24:06.033Z</time></trkpt><trkpt lat="43.478185" lon="11.30259"><ele>588.0</ele><time>2026-04-20T13:24:07.033Z</time></trkpt><trkpt lat="43.4782333" lon="11.3027567"><ele>588.0</ele><time>2026-04-20T13:24:08.033Z</time></trkpt><trkpt lat="43.478275" lon="11.3029267"><ele>588.0</ele><time>2026-04-20T13:24:09.032Z</time></trkpt><trkpt lat="43.4783233" lon="11.3030983"><ele>588.0</ele><time>2026-04-20T13:24:10.033Z</time></trkpt><trkpt lat="43.4783783" lon="11.3032717"><ele>587.75</ele><time>2026-04-20T13:24:11.033Z</time></trkpt><trkpt lat="43.4784517" lon="11.303435"><ele>587.5</ele><time>2026-04-20T13:24:12.033Z</time></trkpt><trkpt lat="43.4785383" lon="11.303585"><ele>587.25</ele><time>2026-04-20T13:24:13.032Z</time></trkpt><trkpt lat="43.4786317" lon="11.30373"><ele>587.0</ele><time>2026-04-20T13:24:14.033Z</time></trkpt><trkpt lat="43.47873" lon="11.3038733"><ele>586.25</ele><time>2026-04-20T13:24:15.032Z</time></trkpt><trkpt lat="43.4788233" lon="11.3040183"><ele>585.5</ele><time>2026-04-20T13:24:16.033Z</time></trkpt><trkpt lat="43.4789183" lon="11.3041667"><ele>584.75</ele><time>2026-04-20T13:24:17.033Z</time></trkpt><trkpt lat="43.4790133" lon="11.3043167"><ele>584.0</ele><time>2026-04-20T13:24:18.033Z</time></trkpt><trkpt lat="43.4791067" lon="11.3044667"><ele>584.0</ele><time>2026-04-20T13:24:19.033Z</time></trkpt><trkpt lat="43.4792" lon="11.3046217"><ele>584.0</ele><time>2026-04-20T13:24:20.032Z</time></trkpt><trkpt lat="43.479295" lon="11.3047783"><ele>584.0</ele><time>2026-04-20T13:24:21.033Z</time></trkpt><trkpt lat="43.4794033" lon="11.3049317"><ele>583.6666666666666</ele><time>2026-04-20T13:24:22.031Z</time></trkpt><trkpt lat="43.4795183" lon="11.30507"><ele>583.3333333333334</ele><time>2026-04-20T13:24:23.033Z</time></trkpt><trkpt lat="43.4796333" lon="11.3051983"><ele>583.0</ele><time>2026-04-20T13:24:24.033Z</time></trkpt><trkpt lat="43.4797533" lon="11.3053217"><ele>582.0</ele><time>2026-04-20T13:24:25.032Z</time></trkpt><trkpt lat="43.479875" lon="11.3054383"><ele>581.0</ele><time>2026-04-20T13:24:26.032Z</time></trkpt><trkpt lat="43.4799967" lon="11.3055483"><ele>580.0</ele><time>2026-04-20T13:24:27.033Z</time></trkpt><trkpt lat="43.4801183" lon="11.3056433"><ele>579.0</ele><time>2026-04-20T13:24:28.032Z</time></trkpt><trkpt lat="43.4802367" lon="11.3057167"><ele>578.8</ele><time>2026-04-20T13:24:29.032Z</time></trkpt><trkpt lat="43.4803517" lon="11.3057583"><ele>578.5999999999999</ele><time>2026-04-20T13:24:30.033Z</time></trkpt><trkpt lat="43.480465" lon="11.3057583"><ele>578.4</ele><time>2026-04-20T13:24:31.033Z</time></trkpt><trkpt lat="43.4805683" lon="11.3057133"><ele>578.1999999999999</ele><time>2026-04-20T13:24:32.032Z</time></trkpt><trkpt lat="43.4806633" lon="11.3056417"><ele>578.0</ele><time>2026-04-20T13:24:33.033Z</time></trkpt><trkpt lat="43.480755" lon="11.30557"><ele>577.8</ele><time>2026-04-20T13:24:34.033Z</time></trkpt><trkpt lat="43.480845" lon="11.305525"><ele>577.5999999999999</ele><time>2026-04-20T13:24:35.033Z</time></trkpt><trkpt lat="43.4809367" lon="11.3055333"><ele>577.4000000000001</ele><time>2026-04-20T13:24:36.033Z</time></trkpt><trkpt lat="43.481015" lon="11.3056067"><ele>577.2</ele><time>2026-04-20T13:24:37.032Z</time></trkpt><trkpt lat="43.4810667" lon="11.3057267"><ele>577.0</ele><time>2026-04-20T13:24:38.033Z</time></trkpt><trkpt lat="43.481085" lon="11.3058667"><ele>578.25</ele><time>2026-04-20T13:24:39.033Z</time></trkpt><trkpt lat="43.4810783" lon="11.3060333"><ele>579.5</ele><time>2026-04-20T13:24:40.032Z</time></trkpt><trkpt lat="43.4810583" lon="11.3062033"><ele>580.75</ele><time>2026-04-20T13:24:41.033Z</time></trkpt><trkpt lat="43.48104" lon="11.3063767"><ele>582.0</ele><time>2026-04-20T13:24:42.033Z</time></trkpt><trkpt lat="43.48103" lon="11.3065617"><ele>583.25</ele><time>2026-04-20T13:24:43.032Z</time></trkpt><trkpt lat="43.48103" lon="11.3067533"><ele>584.5</ele><time>2026-04-20T13:24:44.033Z</time></trkpt><trkpt lat="43.4810383" lon="11.3069483"><ele>585.75</ele><time>2026-04-20T13:24:45.033Z</time></trkpt><trkpt lat="43.4810533" lon="11.307145"><ele>587.0</ele><time>2026-04-20T13:24:46.033Z</time></trkpt><trkpt lat="43.4810783" lon="11.3073417"><ele>588.75</ele><time>2026-04-20T13:24:47.033Z</time></trkpt><trkpt lat="43.4811117" lon="11.30754"><ele>590.5</ele><time>2026-04-20T13:24:48.033Z</time></trkpt><trkpt lat="43.48115" lon="11.3077383"><ele>592.25</ele><time>2026-04-20T13:24:49.033Z</time></trkpt><trkpt lat="43.4811983" lon="11.307935"><ele>594.0</ele><time>2026-04-20T13:24:50.033Z</time></trkpt><trkpt lat="43.4812583" lon="11.308125"><ele>596.0</ele><time>2026-04-20T13:24:51.033Z</time></trkpt><trkpt lat="43.4813217" lon="11.30831"><ele>598.0</ele><time>2026-04-20T13:24:52.033Z</time></trkpt><trkpt lat="43.481385" lon="11.308495"><ele>600.0</ele><time>2026-04-20T13:24:53.032Z</time></trkpt><trkpt lat="43.4814467" lon="11.30868"><ele>602.0</ele><time>2026-04-20T13:24:54.033Z</time></trkpt><trkpt lat="43.4814983" lon="11.3088717"><ele>602.5</ele><time>2026-04-20T13:24:55.032Z</time></trkpt><trkpt lat="43.4815317" lon="11.30907"><ele>603.0</ele><time>2026-04-20T13:24:56.033Z</time></trkpt><trkpt lat="43.4815433" lon="11.30927"><ele>603.5</ele><time>2026-04-20T13:24:57.033Z</time></trkpt><trkpt lat="43.4815333" lon="11.3094717"><ele>604.0</ele><time>2026-04-20T13:24:58.033Z</time></trkpt><trkpt lat="43.481515" lon="11.30967"><ele>604.5</ele><time>2026-04-20T13:24:59.033Z</time></trkpt><trkpt lat="43.4814933" lon="11.3098633"><ele>605.0</ele><time>2026-04-20T13:25:00.033Z</time></trkpt><trkpt lat="43.4814633" lon="11.3100433"><ele>605.5</ele><time>2026-04-20T13:25:01.033Z</time></trkpt><trkpt lat="43.4814183" lon="11.3102033"><ele>606.0</ele><time>2026-04-20T13:25:02.033Z</time></trkpt><trkpt lat="43.4813517" lon="11.310345"><ele>606.0</ele><time>2026-04-20T13:25:03.033Z</time></trkpt><trkpt lat="43.481265" lon="11.3104617"><ele>606.0</ele><time>2026-04-20T13:25:04.033Z</time></trkpt><trkpt lat="43.4811817" lon="11.310575"><ele>606.0</ele><time>2026-04-20T13:25:05.033Z</time></trkpt><trkpt lat="43.48112" lon="11.3107017"><ele>606.0</ele><time>2026-04-20T13:25:06.033Z</time></trkpt><trkpt lat="43.4810883" lon="11.3108483"><ele>606.0</ele><time>2026-04-20T13:25:07.033Z</time></trkpt><trkpt lat="43.4810917" lon="11.3109917"><ele>606.0</ele><time>2026-04-20T13:25:08.033Z</time></trkpt><trkpt lat="43.4811283" lon="11.31113"><ele>606.0</ele><time>2026-04-20T13:25:09.033Z</time></trkpt><trkpt lat="43.4811983" lon="11.311255"><ele>606.0</ele><time>2026-04-20T13:25:10.033Z</time></trkpt><trkpt lat="43.4812833" lon="11.3113683"><ele>606.0</ele><time>2026-04-20T13:25:11.033Z</time></trkpt><trkpt lat="43.4813817" lon="11.311485"><ele>606.0</ele><time>2026-04-20T13:25:12.033Z</time></trkpt><trkpt lat="43.4814817" lon="11.3116117"><ele>606.0</ele><time>2026-04-20T13:25:13.033Z</time></trkpt><trkpt lat="43.4815817" lon="11.3117433"><ele>606.0</ele><time>2026-04-20T13:25:14.032Z</time></trkpt><trkpt lat="43.48169" lon="11.3118733"><ele>606.0</ele><time>2026-04-20T13:25:15.032Z</time></trkpt><trkpt lat="43.4818067" lon="11.3119867"><ele>606.0</ele><time>2026-04-20T13:25:16.033Z</time></trkpt><trkpt lat="43.4819383" lon="11.3120667"><ele>606.0</ele><time>2026-04-20T13:25:17.033Z</time></trkpt><trkpt lat="43.4820783" lon="11.3121183"><ele>606.0</ele><time>2026-04-20T13:25:18.032Z</time></trkpt><trkpt lat="43.4822233" lon="11.3121583"><ele>606.0</ele><time>2026-04-20T13:25:19.032Z</time></trkpt><trkpt lat="43.4823717" lon="11.3121983"><ele>605.5</ele><time>2026-04-20T13:25:20.033Z</time></trkpt><trkpt lat="43.4825167" lon="11.31225"><ele>605.0</ele><time>2026-04-20T13:25:21.033Z</time></trkpt><trkpt lat="43.4826533" lon="11.3123183"><ele>604.5</ele><time>2026-04-20T13:25:22.033Z</time></trkpt><trkpt lat="43.48278" lon="11.3124117"><ele>604.0</ele><time>2026-04-20T13:25:23.033Z</time></trkpt><trkpt lat="43.4828967" lon="11.31253"><ele>607.25</ele><time>2026-04-20T13:25:24.033Z</time></trkpt><trkpt lat="43.483005" lon="11.3126633"><ele>610.5</ele><time>2026-04-20T13:25:25.033Z</time></trkpt><trkpt lat="43.4831083" lon="11.3128067"><ele>613.75</ele><time>2026-04-20T13:25:26.033Z</time></trkpt><trkpt lat="43.4832167" lon="11.3129383"><ele>617.0</ele><time>2026-04-20T13:25:27.032Z</time></trkpt><trkpt lat="43.4833317" lon="11.313055"><ele>614.5</ele><time>2026-04-20T13:25:28.033Z</time></trkpt><trkpt lat="43.48345" lon="11.3131533"><ele>612.0</ele><time>2026-04-20T13:25:29.033Z</time></trkpt><trkpt lat="43.48358" lon="11.3132217"><ele>609.5</ele><time>2026-04-20T13:25:30.032Z</time></trkpt><trkpt lat="43.4837183" lon="11.31327"><ele>607.0</ele><time>2026-04-20T13:25:31.033Z</time></trkpt><trkpt lat="43.48386" lon="11.3132967"><ele>607.0</ele><time>2026-04-20T13:25:32.033Z</time></trkpt><trkpt lat="43.4839983" lon="11.3133133"><ele>607.0</ele><time>2026-04-20T13:25:33.033Z</time></trkpt><trkpt lat="43.4841317" lon="11.31333"><ele>607.0</ele><time>2026-04-20T13:25:34.032Z</time></trkpt><trkpt lat="43.4842567" lon="11.3133617"><ele>607.0</ele><time>2026-04-20T13:25:35.033Z</time></trkpt><trkpt lat="43.484375" lon="11.313415"><ele>607.0</ele><time>2026-04-20T13:25:36.033Z</time></trkpt><trkpt lat="43.4844817" lon="11.3135017"><ele>607.0</ele><time>2026-04-20T13:25:37.033Z</time></trkpt><trkpt lat="43.4845883" lon="11.3136083"><ele>607.0</ele><time>2026-04-20T13:25:38.033Z</time></trkpt><trkpt lat="43.48466" lon="11.313755"><ele>607.0</ele><time>2026-04-20T13:25:39.033Z</time></trkpt><trkpt lat="43.4847183" lon="11.3139233"><ele>608.75</ele><time>2026-04-20T13:25:40.033Z</time></trkpt><trkpt lat="43.4847533" lon="11.314105"><ele>610.5</ele><time>2026-04-20T13:25:41.033Z</time></trkpt><trkpt lat="43.4847733" lon="11.3142917"><ele>612.25</ele><time>2026-04-20T13:25:42.033Z</time></trkpt><trkpt lat="43.4847867" lon="11.3144783"><ele>614.0</ele><time>2026-04-20T13:25:43.033Z</time></trkpt><trkpt lat="43.484805" lon="11.3146533"><ele>611.5</ele><time>2026-04-20T13:25:44.033Z</time></trkpt><trkpt lat="43.484835" lon="11.314835"><ele>609.0</ele><time>2026-04-20T13:25:45.033Z</time></trkpt><trkpt lat="43.484875" lon="11.3150167"><ele>606.5</ele><time>2026-04-20T13:25:46.032Z</time></trkpt><trkpt lat="43.484935" lon="11.3151817"><ele>604.0</ele><time>2026-04-20T13:25:47.033Z</time></trkpt><trkpt lat="43.485015" lon="11.3153167"><ele>604.0</ele><time>2026-04-20T13:25:48.033Z</time></trkpt><trkpt lat="43.4851167" lon="11.3154233"><ele>604.0</ele><time>2026-04-20T13:25:49.033Z</time></trkpt><trkpt lat="43.4852217" lon="11.31551"><ele>604.0</ele><time>2026-04-20T13:25:50.032Z</time></trkpt><trkpt lat="43.4853283" lon="11.3156"><ele>604.0</ele><time>2026-04-20T13:25:51.032Z</time></trkpt><trkpt lat="43.4854167" lon="11.315715"><ele>606.25</ele><time>2026-04-20T13:25:52.032Z</time></trkpt><trkpt lat="43.4854817" lon="11.3158533"><ele>608.5</ele><time>2026-04-20T13:25:53.033Z</time></trkpt><trkpt lat="43.48551" lon="11.316015"><ele>610.75</ele><time>2026-04-20T13:25:54.033Z</time></trkpt><trkpt lat="43.48552" lon="11.3161817"><ele>613.0</ele><time>2026-04-20T13:25:55.033Z</time></trkpt><trkpt lat="43.4855267" lon="11.31636"><ele>611.25</ele><time>2026-04-20T13:25:56.033Z</time></trkpt><trkpt lat="43.48555" lon="11.3165367"><ele>609.5</ele><time>2026-04-20T13:25:57.033Z</time></trkpt><trkpt lat="43.4855867" lon="11.3167167"><ele>607.75</ele><time>2026-04-20T13:25:58.033Z</time></trkpt><trkpt lat="43.48564" lon="11.3168933"><ele>606.0</ele><time>2026-04-20T13:25:59.033Z</time></trkpt><trkpt lat="43.48571" lon="11.31706"><ele>606.0</ele><time>2026-04-20T13:26:00.033Z</time></trkpt><trkpt lat="43.4857967" lon="11.3172067"><ele>606.0</ele><time>2026-04-20T13:26:01.032Z</time></trkpt><trkpt lat="43.4858867" lon="11.3173333"><ele>606.0</ele><time>2026-04-20T13:26:02.033Z</time></trkpt><trkpt lat="43.4859683" lon="11.3174583"><ele>606.0</ele><time>2026-04-20T13:26:03.033Z</time></trkpt><trkpt lat="43.4860217" lon="11.31759"><ele>604.8</ele><time>2026-04-20T13:26:04.033Z</time></trkpt><trkpt lat="43.4860417" lon="11.317735"><ele>603.6</ele><time>2026-04-20T13:26:05.032Z</time></trkpt><trkpt lat="43.48603" lon="11.31788"><ele>602.4</ele><time>2026-04-20T13:26:06.033Z</time></trkpt><trkpt lat="43.4859783" lon="11.318015"><ele>601.2</ele><time>2026-04-20T13:26:07.033Z</time></trkpt><trkpt lat="43.4859" lon="11.3181367"><ele>600.0</ele><time>2026-04-20T13:26:08.033Z</time></trkpt><trkpt lat="43.4858133" lon="11.318255"><ele>600.0</ele><time>2026-04-20T13:26:09.033Z</time></trkpt><trkpt lat="43.4857167" lon="11.3183717"><ele>600.0</ele><time>2026-04-20T13:26:10.033Z</time></trkpt><trkpt lat="43.4856267" lon="11.3184933"><ele>600.0</ele><time>2026-04-20T13:26:11.033Z</time></trkpt><trkpt lat="43.4855367" lon="11.3186233"><ele>600.0</ele><time>2026-04-20T13:26:12.033Z</time></trkpt><trkpt lat="43.4854533" lon="11.3187633"><ele>601.5</ele><time>2026-04-20T13:26:13.033Z</time></trkpt><trkpt lat="43.4853817" lon="11.318915"><ele>603.0</ele><time>2026-04-20T13:26:14.033Z</time></trkpt><trkpt lat="43.48532" lon="11.319075"><ele>604.5</ele><time>2026-04-20T13:26:15.033Z</time></trkpt><trkpt lat="43.4852717" lon="11.3192417"><ele>606.0</ele><time>2026-04-20T13:26:16.033Z</time></trkpt><trkpt lat="43.4852317" lon="11.319415"><ele>606.0</ele><time>2026-04-20T13:26:17.033Z</time></trkpt><trkpt lat="43.485215" lon="11.3195983"><ele>606.0</ele><time>2026-04-20T13:26:18.033Z</time></trkpt><trkpt lat="43.4852133" lon="11.319785"><ele>606.0</ele><time>2026-04-20T13:26:19.032Z</time></trkpt><trkpt lat="43.4852283" lon="11.319975"><ele>606.0</ele><time>2026-04-20T13:26:20.032Z</time></trkpt><trkpt lat="43.4852417" lon="11.3201683"><ele>606.75</ele><time>2026-04-20T13:26:21.033Z</time></trkpt><trkpt lat="43.4852367" lon="11.3203733"><ele>607.5</ele><time>2026-04-20T13:26:22.033Z</time></trkpt><trkpt lat="43.4852167" lon="11.32058"><ele>608.25</ele><time>2026-04-20T13:26:23.033Z</time></trkpt><trkpt lat="43.485175" lon="11.3207733"><ele>609.0</ele><time>2026-04-20T13:26:24.033Z</time></trkpt><trkpt lat="43.48512" lon="11.320955"><ele>607.0</ele><time>2026-04-20T13:26:25.033Z</time></trkpt><trkpt lat="43.4850567" lon="11.3211283"><ele>605.0</ele><time>2026-04-20T13:26:26.033Z</time></trkpt><trkpt lat="43.4849933" lon="11.3213033"><ele>603.0</ele><time>2026-04-20T13:26:27.033Z</time></trkpt><trkpt lat="43.48493" lon="11.32148"><ele>601.0</ele><time>2026-04-20T13:26:28.033Z</time></trkpt><trkpt lat="43.4848683" lon="11.32166"><ele>600.3333333333334</ele><time>2026-04-20T13:26:29.032Z</time></trkpt><trkpt lat="43.4848083" lon="11.3218433"><ele>599.6666666666666</ele><time>2026-04-20T13:26:30.033Z</time></trkpt><trkpt lat="43.4847483" lon="11.322035"><ele>599.0</ele><time>2026-04-20T13:26:31.033Z</time></trkpt><trkpt lat="43.4846917" lon="11.3222383"><ele>600.6666666666666</ele><time>2026-04-20T13:26:32.032Z</time></trkpt><trkpt lat="43.48464" lon="11.3224483"><ele>602.3333333333334</ele><time>2026-04-20T13:26:33.033Z</time></trkpt><trkpt lat="43.4846017" lon="11.3226667"><ele>604.0</ele><time>2026-04-20T13:26:34.033Z</time></trkpt><trkpt lat="43.484565" lon="11.322885"><ele>600.6666666666667</ele><time>2026-04-20T13:26:35.033Z</time></trkpt><trkpt lat="43.484535" lon="11.323105"><ele>597.3333333333334</ele><time>2026-04-20T13:26:36.032Z</time></trkpt><trkpt lat="43.4845067" lon="11.3233267"><ele>594.0</ele><time>2026-04-20T13:26:37.033Z</time></trkpt><trkpt lat="43.4844767" lon="11.3235467"><ele>594.0</ele><time>2026-04-20T13:26:38.033Z</time></trkpt><trkpt lat="43.48444" lon="11.323765"><ele>594.0</ele><time>2026-04-20T13:26:39.033Z</time></trkpt><trkpt lat="43.4843967" lon="11.3239817"><ele>594.0</ele><time>2026-04-20T13:26:40.033Z</time></trkpt><trkpt lat="43.4843433" lon="11.3241917"><ele>596.0</ele><time>2026-04-20T13:26:41.033Z</time></trkpt><trkpt lat="43.4842817" lon="11.3243933"><ele>598.0</ele><time>2026-04-20T13:26:42.032Z</time></trkpt><trkpt lat="43.4842117" lon="11.3245833"><ele>600.0</ele><time>2026-04-20T13:26:43.032Z</time></trkpt><trkpt lat="43.4841267" lon="11.3247583"><ele>601.6666666666666</ele><time>2026-04-20T13:26:44.033Z</time></trkpt><trkpt lat="43.4840267" lon="11.324915"><ele>603.3333333333333</ele><time>2026-04-20T13:26:45.033Z</time></trkpt><trkpt lat="43.4839033" lon="11.325045"><ele>605.0</ele><time>2026-04-20T13:26:46.033Z</time></trkpt><trkpt lat="43.483765" lon="11.3251533"><ele>606.6666666666666</ele><time>2026-04-20T13:26:47.033Z</time></trkpt><trkpt lat="43.48362" lon="11.3252483"><ele>608.3333333333334</ele><time>2026-04-20T13:26:48.033Z</time></trkpt><trkpt lat="43.4834717" lon="11.32534"><ele>610.0</ele><time>2026-04-20T13:26:49.032Z</time></trkpt><trkpt lat="43.4833267" lon="11.3254317"><ele>610.0</ele><time>2026-04-20T13:26:50.033Z</time></trkpt><trkpt lat="43.4831867" lon="11.3255167"><ele>610.0</ele><time>2026-04-20T13:26:51.033Z</time></trkpt><trkpt lat="43.483055" lon="11.3255917"><ele>610.0</ele><time>2026-04-20T13:26:52.033Z</time></trkpt><trkpt lat="43.4829167" lon="11.3256417"><ele>610.0</ele><time>2026-04-20T13:26:53.033Z</time></trkpt><trkpt lat="43.4827717" lon="11.3256617"><ele>609.3333333333334</ele><time>2026-04-20T13:26:54.033Z</time></trkpt><trkpt lat="43.4826217" lon="11.3256517"><ele>608.6666666666666</ele><time>2026-04-20T13:26:55.032Z</time></trkpt><trkpt lat="43.48247" lon="11.3256183"><ele>608.0</ele><time>2026-04-20T13:26:56.032Z</time></trkpt><trkpt lat="43.4823133" lon="11.3255767"><ele>611.0</ele><time>2026-04-20T13:26:57.032Z</time></trkpt><trkpt lat="43.4821533" lon="11.325535"><ele>614.0</ele><time>2026-04-20T13:26:58.032Z</time></trkpt><trkpt lat="43.4819917" lon="11.3254933"><ele>617.0</ele><time>2026-04-20T13:26:59.031Z</time></trkpt><trkpt lat="43.4818317" lon="11.325455"><ele>617.0</ele><time>2026-04-20T13:27:00.032Z</time></trkpt><trkpt lat="43.4816767" lon="11.3254217"><ele>617.0</ele><time>2026-04-20T13:27:01.032Z</time></trkpt><trkpt lat="43.48153" lon="11.325395"><ele>617.0</ele><time>2026-04-20T13:27:02.032Z</time></trkpt><trkpt lat="43.48139" lon="11.3253717"><ele>617.0</ele><time>2026-04-20T13:27:03.032Z</time></trkpt><trkpt lat="43.4812567" lon="11.32538"><ele>617.25</ele><time>2026-04-20T13:27:04.032Z</time></trkpt><trkpt lat="43.481135" lon="11.3254333"><ele>617.5</ele><time>2026-04-20T13:27:05.032Z</time></trkpt><trkpt lat="43.4810283" lon="11.3255367"><ele>617.75</ele><time>2026-04-20T13:27:06.032Z</time></trkpt><trkpt lat="43.48093" lon="11.3256833"><ele>618.0</ele><time>2026-04-20T13:27:07.031Z</time></trkpt><trkpt lat="43.4808383" lon="11.3258533"><ele>617.3333333333334</ele><time>2026-04-20T13:27:08.032Z</time></trkpt><trkpt lat="43.48075" lon="11.32603"><ele>616.6666666666667</ele><time>2026-04-20T13:27:09.032Z</time></trkpt><trkpt lat="43.48066" lon="11.3261967"><ele>616.0</ele><time>2026-04-20T13:27:10.032Z</time></trkpt><trkpt lat="43.4805667" lon="11.32635"><ele>614.75</ele><time>2026-04-20T13:27:11.032Z</time></trkpt><trkpt lat="43.4804717" lon="11.3264883"><ele>613.5</ele><time>2026-04-20T13:27:12.032Z</time></trkpt><trkpt lat="43.4803833" lon="11.32662"><ele>612.25</ele><time>2026-04-20T13:27:13.032Z</time></trkpt><trkpt lat="43.4803083" lon="11.3267467"><ele>611.0</ele><time>2026-04-20T13:27:14.031Z</time></trkpt><trkpt lat="43.48025" lon="11.3268833"><ele>611.0</ele><time>2026-04-20T13:27:15.032Z</time></trkpt><trkpt lat="43.4802183" lon="11.32703"><ele>611.0</ele><time>2026-04-20T13:27:16.032Z</time></trkpt><trkpt lat="43.4802317" lon="11.3271917"><ele>611.0</ele><time>2026-04-20T13:27:17.031Z</time></trkpt><trkpt lat="43.4802683" lon="11.3273617"><ele>611.0</ele><time>2026-04-20T13:27:18.032Z</time></trkpt><trkpt lat="43.48031" lon="11.3275367"><ele>610.25</ele><time>2026-04-20T13:27:19.032Z</time></trkpt><trkpt lat="43.48035" lon="11.3277117"><ele>609.5</ele><time>2026-04-20T13:27:20.032Z</time></trkpt><trkpt lat="43.4803783" lon="11.3278883"><ele>608.75</ele><time>2026-04-20T13:27:21.032Z</time></trkpt><trkpt lat="43.4803983" lon="11.32807"><ele>608.0</ele><time>2026-04-20T13:27:22.032Z</time></trkpt><trkpt lat="43.4803983" lon="11.3282517"><ele>608.0</ele><time>2026-04-20T13:27:23.032Z</time></trkpt><trkpt lat="43.4803783" lon="11.3284317"><ele>608.0</ele><time>2026-04-20T13:27:24.032Z</time></trkpt><trkpt lat="43.48034" lon="11.3286033"><ele>608.0</ele><time>2026-04-20T13:27:25.032Z</time></trkpt><trkpt lat="43.4802817" lon="11.32876"><ele>608.0</ele><time>2026-04-20T13:27:26.032Z</time></trkpt><trkpt lat="43.4802017" lon="11.3288867"><ele>610.25</ele><time>2026-04-20T13:27:27.032Z</time></trkpt><trkpt lat="43.4800967" lon="11.328965"><ele>612.5</ele><time>2026-04-20T13:27:28.031Z</time></trkpt><trkpt lat="43.479975" lon="11.32899"><ele>614.75</ele><time>2026-04-20T13:27:29.032Z</time></trkpt><trkpt lat="43.4798567" lon="11.3289867"><ele>617.0</ele><time>2026-04-20T13:27:30.032Z</time></trkpt><trkpt lat="43.47974" lon="11.32901"><ele>617.0</ele><time>2026-04-20T13:27:31.032Z</time></trkpt><trkpt lat="43.4796317" lon="11.3290767"><ele>617.0</ele><time>2026-04-20T13:27:32.032Z</time></trkpt><trkpt lat="43.4795383" lon="11.3291883"><ele>617.0</ele><time>2026-04-20T13:27:33.032Z</time></trkpt><trkpt lat="43.4794633" lon="11.3293367"><ele>617.0</ele><time>2026-04-20T13:27:34.032Z</time></trkpt><trkpt lat="43.4794017" lon="11.3294967"><ele>617.25</ele><time>2026-04-20T13:27:35.032Z</time></trkpt><trkpt lat="43.4793433" lon="11.329665"><ele>617.5</ele><time>2026-04-20T13:27:36.032Z</time></trkpt><trkpt lat="43.4792867" lon="11.3298383"><ele>617.75</ele><time>2026-04-20T13:27:37.032Z</time></trkpt><trkpt lat="43.4792333" lon="11.3300067"><ele>618.0</ele><time>2026-04-20T13:27:38.032Z</time></trkpt><trkpt lat="43.47919" lon="11.33018"><ele>618.0</ele><time>2026-04-20T13:27:39.032Z</time></trkpt><trkpt lat="43.4791683" lon="11.3303583"><ele>618.0</ele><time>2026-04-20T13:27:40.032Z</time></trkpt><trkpt lat="43.4791667" lon="11.3305433"><ele>618.0</ele><time>2026-04-20T13:27:41.032Z</time></trkpt><trkpt lat="43.4791783" lon="11.3307333"><ele>618.0</ele><time>2026-04-20T13:27:42.032Z</time></trkpt><trkpt lat="43.479195" lon="11.3309217"><ele>618.5</ele><time>2026-04-20T13:27:43.031Z</time></trkpt><trkpt lat="43.4792067" lon="11.3311"><ele>619.0</ele><time>2026-04-20T13:27:44.032Z</time></trkpt><trkpt lat="43.479205" lon="11.3312667"><ele>619.5</ele><time>2026-04-20T13:27:45.032Z</time></trkpt><trkpt lat="43.4791833" lon="11.33142"><ele>620.0</ele><time>2026-04-20T13:27:46.032Z</time></trkpt><trkpt lat="43.47914" lon="11.331555"><ele>619.5</ele><time>2026-04-20T13:27:47.032Z</time></trkpt><trkpt lat="43.4790667" lon="11.3316667"><ele>619.0</ele><time>2026-04-20T13:27:48.032Z</time></trkpt><trkpt lat="43.478965" lon="11.3317517"><ele>618.5</ele><time>2026-04-20T13:27:49.032Z</time></trkpt><trkpt lat="43.4788433" lon="11.331825"><ele>618.0</ele><time>2026-04-20T13:27:50.031Z</time></trkpt><trkpt lat="43.478715" lon="11.3319017"><ele>618.0</ele><time>2026-04-20T13:27:51.031Z</time></trkpt><trkpt lat="43.47859" lon="11.3319883"><ele>618.0</ele><time>2026-04-20T13:27:52.032Z</time></trkpt><trkpt lat="43.4784683" lon="11.3320783"><ele>618.0</ele><time>2026-04-20T13:27:53.032Z</time></trkpt><trkpt lat="43.4783567" lon="11.3321733"><ele>618.0</ele><time>2026-04-20T13:27:54.032Z</time></trkpt><trkpt lat="43.4782533" lon="11.332275"><ele>616.75</ele><time>2026-04-20T13:27:55.032Z</time></trkpt><trkpt lat="43.47815" lon="11.33238"><ele>615.5</ele><time>2026-04-20T13:27:56.032Z</time></trkpt><trkpt lat="43.4780433" lon="11.3324817"><ele>614.25</ele><time>2026-04-20T13:27:57.031Z</time></trkpt><trkpt lat="43.477935" lon="11.3325783"><ele>613.0</ele><time>2026-04-20T13:27:58.031Z</time></trkpt><trkpt lat="43.4778217" lon="11.33267"><ele>613.0</ele><time>2026-04-20T13:27:59.032Z</time></trkpt><trkpt lat="43.4777083" lon="11.3327583"><ele>613.0</ele><time>2026-04-20T13:28:00.031Z</time></trkpt><trkpt lat="43.477595" lon="11.3328333"><ele>613.0</ele><time>2026-04-20T13:28:01.032Z</time></trkpt><trkpt lat="43.4774767" lon="11.3328983"><ele>613.0</ele><time>2026-04-20T13:28:02.032Z</time></trkpt><trkpt lat="43.4773533" lon="11.3329467"><ele>613.0</ele><time>2026-04-20T13:28:03.032Z</time></trkpt><trkpt lat="43.4772267" lon="11.3329767"><ele>613.0</ele><time>2026-04-20T13:28:04.032Z</time></trkpt><trkpt lat="43.4770967" lon="11.33299"><ele>613.0</ele><time>2026-04-20T13:28:05.032Z</time></trkpt><trkpt lat="43.4769667" lon="11.33297"><ele>613.0</ele><time>2026-04-20T13:28:06.032Z</time></trkpt><trkpt lat="43.47684" lon="11.33293"><ele>612.25</ele><time>2026-04-20T13:28:07.032Z</time></trkpt><trkpt lat="43.4767183" lon="11.332885"><ele>611.5</ele><time>2026-04-20T13:28:08.032Z</time></trkpt><trkpt lat="43.4765983" lon="11.332855"><ele>610.75</ele><time>2026-04-20T13:28:09.032Z</time></trkpt><trkpt lat="43.4764833" lon="11.33286"><ele>610.0</ele><time>2026-04-20T13:28:10.032Z</time></trkpt><trkpt lat="43.4763783" lon="11.332915"><ele>610.0</ele><time>2026-04-20T13:28:11.032Z</time></trkpt><trkpt lat="43.4762833" lon="11.3330083"><ele>610.0</ele><time>2026-04-20T13:28:12.032Z</time></trkpt><trkpt lat="43.4761983" lon="11.3331317"><ele>610.0</ele><time>2026-04-20T13:28:13.031Z</time></trkpt><trkpt lat="43.4761183" lon="11.3332683"><ele>610.0</ele><time>2026-04-20T13:28:14.032Z</time></trkpt><trkpt lat="43.476035" lon="11.3334033"><ele>608.75</ele><time>2026-04-20T13:28:15.032Z</time></trkpt><trkpt lat="43.47595" lon="11.3335217"><ele>607.5</ele><time>2026-04-20T13:28:16.032Z</time></trkpt><trkpt lat="43.475855" lon="11.3336183"><ele>606.25</ele><time>2026-04-20T13:28:17.031Z</time></trkpt><trkpt lat="43.475745" lon="11.3336917"><ele>605.0</ele><time>2026-04-20T13:28:18.032Z</time></trkpt><trkpt lat="43.4756217" lon="11.33373"><ele>605.0</ele><time>2026-04-20T13:28:19.032Z</time></trkpt><trkpt lat="43.47549" lon="11.3337383"><ele>605.0</ele><time>2026-04-20T13:28:20.032Z</time></trkpt><trkpt lat="43.47535" lon="11.333725"><ele>605.0</ele><time>2026-04-20T13:28:21.031Z</time></trkpt><trkpt lat="43.4752083" lon="11.3337083"><ele>605.0</ele><time>2026-04-20T13:28:22.032Z</time></trkpt><trkpt lat="43.4750633" lon="11.3336917"><ele>604.25</ele><time>2026-04-20T13:28:23.032Z</time></trkpt><trkpt lat="43.4749167" lon="11.333675"><ele>603.5</ele><time>2026-04-20T13:28:24.032Z</time></trkpt><trkpt lat="43.4747717" lon="11.3336617"><ele>602.75</ele><time>2026-04-20T13:28:25.032Z</time></trkpt><trkpt lat="43.4746333" lon="11.333645"><ele>602.0</ele><time>2026-04-20T13:28:26.032Z</time></trkpt><trkpt lat="43.4745033" lon="11.33363"><ele>601.6</ele><time>2026-04-20T13:28:27.032Z</time></trkpt><trkpt lat="43.4743833" lon="11.333615"><ele>601.2</ele><time>2026-04-20T13:28:28.032Z</time></trkpt><trkpt lat="43.474275" lon="11.3336133"><ele>600.8</ele><time>2026-04-20T13:28:29.031Z</time></trkpt><trkpt lat="43.474175" lon="11.3336417"><ele>600.4</ele><time>2026-04-20T13:28:30.032Z</time></trkpt><trkpt lat="43.4740933" lon="11.3337033"><ele>600.0</ele><time>2026-04-20T13:28:31.032Z</time></trkpt><trkpt lat="43.4740417" lon="11.3337983"><ele>599.2</ele><time>2026-04-20T13:28:32.032Z</time></trkpt><trkpt lat="43.4740117" lon="11.3339017"><ele>598.4</ele><time>2026-04-20T13:28:33.032Z</time></trkpt><trkpt lat="43.4740083" lon="11.3340167"><ele>597.6</ele><time>2026-04-20T13:28:34.032Z</time></trkpt><trkpt lat="43.474035" lon="11.3341483"><ele>596.8</ele><time>2026-04-20T13:28:35.032Z</time></trkpt><trkpt lat="43.47409" lon="11.3343"><ele>596.0</ele><time>2026-04-20T13:28:36.032Z</time></trkpt><trkpt lat="43.4741783" lon="11.3344683"><ele>596.0</ele><time>2026-04-20T13:28:37.032Z</time></trkpt><trkpt lat="43.4742633" lon="11.3346483"><ele>596.0</ele><time>2026-04-20T13:28:38.032Z</time></trkpt><trkpt lat="43.4743483" lon="11.3348217"><ele>596.0</ele><time>2026-04-20T13:28:39.032Z</time></trkpt><trkpt lat="43.4744283" lon="11.334995"><ele>598.0</ele><time>2026-04-20T13:28:40.032Z</time></trkpt><trkpt lat="43.4745133" lon="11.3351683"><ele>600.0</ele><time>2026-04-20T13:28:41.032Z</time></trkpt><trkpt lat="43.4745983" lon="11.335345"><ele>602.0</ele><time>2026-04-20T13:28:42.032Z</time></trkpt><trkpt lat="43.474685" lon="11.33552"><ele>598.3333333333333</ele><time>2026-04-20T13:28:43.032Z</time></trkpt><trkpt lat="43.47477" lon="11.3357"><ele>594.6666666666666</ele><time>2026-04-20T13:28:44.032Z</time></trkpt><trkpt lat="43.4748567" lon="11.3358817"><ele>591.0</ele><time>2026-04-20T13:28:45.032Z</time></trkpt><trkpt lat="43.47495" lon="11.3360633"><ele>591.0</ele><time>2026-04-20T13:28:46.031Z</time></trkpt><trkpt lat="43.4750533" lon="11.3362383"><ele>591.0</ele><time>2026-04-20T13:28:47.032Z</time></trkpt><trkpt lat="43.4751583" lon="11.33641"><ele>591.0</ele><time>2026-04-20T13:28:48.032Z</time></trkpt><trkpt lat="43.4752717" lon="11.3365767"><ele>590.3333333333334</ele><time>2026-04-20T13:28:49.032Z</time></trkpt><trkpt lat="43.4753817" lon="11.3367417"><ele>589.6666666666667</ele><time>2026-04-20T13:28:50.032Z</time></trkpt><trkpt lat="43.4754883" lon="11.336905"><ele>589.0</ele><time>2026-04-20T13:28:51.032Z</time></trkpt><trkpt lat="43.4755917" lon="11.3370667"><ele>591.25</ele><time>2026-04-20T13:28:52.032Z</time></trkpt><trkpt lat="43.4756883" lon="11.3372217"><ele>593.5</ele><time>2026-04-20T13:28:53.032Z</time></trkpt><trkpt lat="43.4757767" lon="11.3373683"><ele>595.75</ele><time>2026-04-20T13:28:54.032Z</time></trkpt><trkpt lat="43.47585" lon="11.3375083"><ele>598.0</ele><time>2026-04-20T13:28:55.032Z</time></trkpt><trkpt lat="43.47591" lon="11.3376517"><ele>598.0</ele><time>2026-04-20T13:28:56.032Z</time></trkpt><trkpt lat="43.47596" lon="11.3378083"><ele>598.0</ele><time>2026-04-20T13:28:57.032Z</time></trkpt><trkpt lat="43.476" lon="11.337975"><ele>598.0</ele><time>2026-04-20T13:28:58.032Z</time></trkpt><trkpt lat="43.476035" lon="11.3381483"><ele>598.0</ele><time>2026-04-20T13:28:59.032Z</time></trkpt><trkpt lat="43.4760533" lon="11.338335"><ele>597.25</ele><time>2026-04-20T13:29:00.032Z</time></trkpt><trkpt lat="43.476055" lon="11.338525"><ele>596.5</ele><time>2026-04-20T13:29:01.031Z</time></trkpt><trkpt lat="43.476035" lon="11.33872"><ele>595.75</ele><time>2026-04-20T13:29:02.032Z</time></trkpt><trkpt lat="43.4759983" lon="11.3389167"><ele>595.0</ele><time>2026-04-20T13:29:03.032Z</time></trkpt><trkpt lat="43.475955" lon="11.3391117"><ele>593.75</ele><time>2026-04-20T13:29:04.031Z</time></trkpt><trkpt lat="43.4759117" lon="11.3393"><ele>592.5</ele><time>2026-04-20T13:29:05.032Z</time></trkpt><trkpt lat="43.47587" lon="11.3394833"><ele>591.25</ele><time>2026-04-20T13:29:06.032Z</time></trkpt><trkpt lat="43.4758317" lon="11.3396617"><ele>590.0</ele><time>2026-04-20T13:29:07.032Z</time></trkpt><trkpt lat="43.4758" lon="11.33984"><ele>590.0</ele><time>2026-04-20T13:29:08.032Z</time></trkpt><trkpt lat="43.4757833" lon="11.340025"><ele>590.0</ele><time>2026-04-20T13:29:09.032Z</time></trkpt><trkpt lat="43.4757833" lon="11.3402183"><ele>590.0</ele><time>2026-04-20T13:29:10.032Z</time></trkpt><trkpt lat="43.4758" lon="11.3404167"><ele>590.0</ele><time>2026-04-20T13:29:11.032Z</time></trkpt><trkpt lat="43.4758133" lon="11.340615"><ele>589.25</ele><time>2026-04-20T13:29:12.031Z</time></trkpt><trkpt lat="43.4758083" lon="11.3408083"><ele>588.5</ele><time>2026-04-20T13:29:13.032Z</time></trkpt><trkpt lat="43.475785" lon="11.3410017"><ele>587.75</ele><time>2026-04-20T13:29:14.032Z</time></trkpt><trkpt lat="43.475755" lon="11.3411983"><ele>587.0</ele><time>2026-04-20T13:29:15.032Z</time></trkpt><trkpt lat="43.47572" lon="11.341395"><ele>586.5</ele><time>2026-04-20T13:29:16.032Z</time></trkpt><trkpt lat="43.475685" lon="11.3415867"><ele>586.0</ele><time>2026-04-20T13:29:17.032Z</time></trkpt><trkpt lat="43.4756517" lon="11.3417767"><ele>585.5</ele><time>2026-04-20T13:29:18.031Z</time></trkpt><trkpt lat="43.47562" lon="11.3419717"><ele>585.0</ele><time>2026-04-20T13:29:19.031Z</time></trkpt><trkpt lat="43.47559" lon="11.3421633"><ele>584.5</ele><time>2026-04-20T13:29:20.032Z</time></trkpt><trkpt lat="43.4755633" lon="11.3423517"><ele>584.0</ele><time>2026-04-20T13:29:21.032Z</time></trkpt><trkpt lat="43.4755383" lon="11.3425367"><ele>583.5</ele><time>2026-04-20T13:29:22.031Z</time></trkpt><trkpt lat="43.4755233" lon="11.342715"><ele>583.0</ele><time>2026-04-20T13:29:23.032Z</time></trkpt><trkpt lat="43.4755233" lon="11.3428917"><ele>581.75</ele><time>2026-04-20T13:29:24.032Z</time></trkpt><trkpt lat="43.4755533" lon="11.34307"><ele>580.5</ele><time>2026-04-20T13:29:25.031Z</time></trkpt><trkpt lat="43.4756" lon="11.3432483"><ele>579.25</ele><time>2026-04-20T13:29:26.032Z</time></trkpt><trkpt lat="43.4756583" lon="11.3434233"><ele>578.0</ele><time>2026-04-20T13:29:27.032Z</time></trkpt><trkpt lat="43.4757183" lon="11.343605"><ele>578.0</ele><time>2026-04-20T13:29:28.031Z</time></trkpt><trkpt lat="43.4757717" lon="11.343795"><ele>578.0</ele><time>2026-04-20T13:29:29.031Z</time></trkpt><trkpt lat="43.47581" lon="11.3439883"><ele>578.0</ele><time>2026-04-20T13:29:30.032Z</time></trkpt><trkpt lat="43.47583" lon="11.3441867"><ele>578.0</ele><time>2026-04-20T13:29:31.031Z</time></trkpt><trkpt lat="43.4758333" lon="11.3443883"><ele>577.75</ele><time>2026-04-20T13:29:32.032Z</time></trkpt><trkpt lat="43.475815" lon="11.3445883"><ele>577.5</ele><time>2026-04-20T13:29:33.032Z</time></trkpt><trkpt lat="43.4757833" lon="11.344785"><ele>577.25</ele><time>2026-04-20T13:29:34.031Z</time></trkpt><trkpt lat="43.475735" lon="11.3449783"><ele>577.0</ele><time>2026-04-20T13:29:35.031Z</time></trkpt><trkpt lat="43.47568" lon="11.3451733"><ele>576.0</ele><time>2026-04-20T13:29:36.032Z</time></trkpt><trkpt lat="43.4756183" lon="11.3453667"><ele>575.0</ele><time>2026-04-20T13:29:37.032Z</time></trkpt><trkpt lat="43.4755567" lon="11.3455633"><ele>574.0</ele><time>2026-04-20T13:29:38.031Z</time></trkpt><trkpt lat="43.4754933" lon="11.3457533"><ele>576.5</ele><time>2026-04-20T13:29:39.032Z</time></trkpt><trkpt lat="43.475435" lon="11.3459367"><ele>579.0</ele><time>2026-04-20T13:29:40.032Z</time></trkpt><trkpt lat="43.4753817" lon="11.3461067"><ele>581.5</ele><time>2026-04-20T13:29:41.031Z</time></trkpt><trkpt lat="43.4753317" lon="11.3462633"><ele>584.0</ele><time>2026-04-20T13:29:42.032Z</time></trkpt><trkpt lat="43.475295" lon="11.3464133"><ele>584.2</ele><time>2026-04-20T13:29:43.032Z</time></trkpt><trkpt lat="43.4752833" lon="11.346555"><ele>584.4</ele><time>2026-04-20T13:29:44.032Z</time></trkpt><trkpt lat="43.475305" lon="11.3466867"><ele>584.6</ele><time>2026-04-20T13:29:45.032Z</time></trkpt><trkpt lat="43.4753583" lon="11.3467917"><ele>584.8</ele><time>2026-04-20T13:29:46.032Z</time></trkpt><trkpt lat="43.4754367" lon="11.3468683"><ele>585.0</ele><time>2026-04-20T13:29:47.032Z</time></trkpt><trkpt lat="43.4755333" lon="11.3469033"><ele>581.25</ele><time>2026-04-20T13:29:48.032Z</time></trkpt><trkpt lat="43.4756717" lon="11.3468667"><ele>577.5</ele><time>2026-04-20T13:29:49.032Z</time></trkpt><trkpt lat="43.475805" lon="11.3468183"><ele>573.75</ele><time>2026-04-20T13:29:50.032Z</time></trkpt><trkpt lat="43.4759417" lon="11.3467717"><ele>570.0</ele><time>2026-04-20T13:29:51.032Z</time></trkpt><trkpt lat="43.4760767" lon="11.3467367"><ele>570.0</ele><time>2026-04-20T13:29:52.032Z</time></trkpt><trkpt lat="43.47621" lon="11.3467183"><ele>570.0</ele><time>2026-04-20T13:29:53.032Z</time></trkpt><trkpt lat="43.4763383" lon="11.3467283"><ele>570.0</ele><time>2026-04-20T13:29:54.032Z</time></trkpt><trkpt lat="43.47646" lon="11.3467817"><ele>570.0</ele><time>2026-04-20T13:29:55.032Z</time></trkpt><trkpt lat="43.4765667" lon="11.3468783"><ele>570.5</ele><time>2026-04-20T13:29:56.032Z</time></trkpt><trkpt lat="43.47665" lon="11.3470083"><ele>571.0</ele><time>2026-04-20T13:29:57.031Z</time></trkpt><trkpt lat="43.4767133" lon="11.3471567"><ele>571.5</ele><time>2026-04-20T13:29:58.032Z</time></trkpt><trkpt lat="43.4767683" lon="11.3473233"><ele>572.0</ele><time>2026-04-20T13:29:59.032Z</time></trkpt><trkpt lat="43.476815" lon="11.3475033"><ele>572.0</ele><time>2026-04-20T13:30:00.031Z</time></trkpt><trkpt lat="43.4768517" lon="11.3476933"><ele>572.0</ele><time>2026-04-20T13:30:01.032Z</time></trkpt><trkpt lat="43.476885" lon="11.3478933"><ele>572.0</ele><time>2026-04-20T13:30:02.031Z</time></trkpt><trkpt lat="43.4769133" lon="11.34809"><ele>572.0</ele><time>2026-04-20T13:30:03.032Z</time></trkpt><trkpt lat="43.4769417" lon="11.3482833"><ele>573.5</ele><time>2026-04-20T13:30:04.032Z</time></trkpt><trkpt lat="43.4769683" lon="11.3484733"><ele>575.0</ele><time>2026-04-20T13:30:05.032Z</time></trkpt><trkpt lat="43.477" lon="11.3486517"><ele>576.5</ele><time>2026-04-20T13:30:06.031Z</time></trkpt><trkpt lat="43.4770383" lon="11.3488183"><ele>578.0</ele><time>2026-04-20T13:30:07.031Z</time></trkpt><trkpt lat="43.4771033" lon="11.3489683"><ele>573.5</ele><time>2026-04-20T13:30:08.032Z</time></trkpt><trkpt lat="43.4771867" lon="11.3491017"><ele>569.0</ele><time>2026-04-20T13:30:09.032Z</time></trkpt><trkpt lat="43.4772933" lon="11.3492283"><ele>564.5</ele><time>2026-04-20T13:30:10.032Z</time></trkpt><trkpt lat="43.4774" lon="11.3493617"><ele>560.0</ele><time>2026-04-20T13:30:11.031Z</time></trkpt><trkpt lat="43.4774917" lon="11.3495117"><ele>560.0</ele><time>2026-04-20T13:30:12.031Z</time></trkpt><trkpt lat="43.4775533" lon="11.34968"><ele>560.0</ele><time>2026-04-20T13:30:13.032Z</time></trkpt><trkpt lat="43.4775783" lon="11.3498617"><ele>560.0</ele><time>2026-04-20T13:30:14.032Z</time></trkpt><trkpt lat="43.4775667" lon="11.35005"><ele>560.0</ele><time>2026-04-20T13:30:15.032Z</time></trkpt><trkpt lat="43.4775367" lon="11.3502417"><ele>562.25</ele><time>2026-04-20T13:30:16.032Z</time></trkpt><trkpt lat="43.4775083" lon="11.350435"><ele>564.5</ele><time>2026-04-20T13:30:17.031Z</time></trkpt><trkpt lat="43.4774983" lon="11.350635"><ele>566.75</ele><time>2026-04-20T13:30:18.032Z</time></trkpt><trkpt lat="43.47752" lon="11.3508283"><ele>569.0</ele><time>2026-04-20T13:30:19.032Z</time></trkpt><trkpt lat="43.4775467" lon="11.3510167"><ele>569.75</ele><time>2026-04-20T13:30:20.032Z</time></trkpt><trkpt lat="43.4775817" lon="11.3511917"><ele>570.5</ele><time>2026-04-20T13:30:21.031Z</time></trkpt><trkpt lat="43.4776283" lon="11.35135"><ele>571.25</ele><time>2026-04-20T13:30:22.032Z</time></trkpt><trkpt lat="43.4776983" lon="11.35149"><ele>572.0</ele><time>2026-04-20T13:30:23.032Z</time></trkpt><trkpt lat="43.4777767" lon="11.35162"><ele>573.75</ele><time>2026-04-20T13:30:24.032Z</time></trkpt><trkpt lat="43.4778433" lon="11.3517517"><ele>575.5</ele><time>2026-04-20T13:30:25.031Z</time></trkpt><trkpt lat="43.477885" lon="11.3518983"><ele>577.25</ele><time>2026-04-20T13:30:26.032Z</time></trkpt><trkpt lat="43.477905" lon="11.352065"><ele>579.0</ele><time>2026-04-20T13:30:27.032Z</time></trkpt><trkpt lat="43.4779067" lon="11.3522583"><ele>580.25</ele><time>2026-04-20T13:30:28.032Z</time></trkpt><trkpt lat="43.4779" lon="11.3524633"><ele>581.5</ele><time>2026-04-20T13:30:29.032Z</time></trkpt><trkpt lat="43.4778983" lon="11.3526617"><ele>582.75</ele><time>2026-04-20T13:30:30.032Z</time></trkpt><trkpt lat="43.4779167" lon="11.3528467"><ele>584.0</ele><time>2026-04-20T13:30:31.031Z</time></trkpt><trkpt lat="43.4779717" lon="11.3530083"><ele>577.75</ele><time>2026-04-20T13:30:32.032Z</time></trkpt><trkpt lat="43.4780517" lon="11.3531567"><ele>571.5</ele><time>2026-04-20T13:30:33.032Z</time></trkpt><trkpt lat="43.4781383" lon="11.3533133"><ele>565.25</ele><time>2026-04-20T13:30:34.032Z</time></trkpt><trkpt lat="43.4782217" lon="11.3534883"><ele>559.0</ele><time>2026-04-20T13:30:35.032Z</time></trkpt><trkpt lat="43.4783033" lon="11.3536683"><ele>559.0</ele><time>2026-04-20T13:30:36.032Z</time></trkpt><trkpt lat="43.47838" lon="11.353845"><ele>559.0</ele><time>2026-04-20T13:30:37.032Z</time></trkpt><trkpt lat="43.4784517" lon="11.354015"><ele>559.0</ele><time>2026-04-20T13:30:38.032Z</time></trkpt><trkpt lat="43.4785133" lon="11.3541783"><ele>559.0</ele><time>2026-04-20T13:30:39.032Z</time></trkpt><trkpt lat="43.478565" lon="11.35434"><ele>559.5</ele><time>2026-04-20T13:30:40.032Z</time></trkpt><trkpt lat="43.4786083" lon="11.3545033"><ele>560.0</ele><time>2026-04-20T13:30:41.032Z</time></trkpt><trkpt lat="43.478645" lon="11.3546617"><ele>560.5</ele><time>2026-04-20T13:30:42.032Z</time></trkpt><trkpt lat="43.4786683" lon="11.3548133"><ele>561.0</ele><time>2026-04-20T13:30:43.031Z</time></trkpt><trkpt lat="43.4786883" lon="11.3549483"><ele>561.0</ele><time>2026-04-20T13:30:44.031Z</time></trkpt><trkpt lat="43.4787067" lon="11.3550617"><ele>561.0</ele><time>2026-04-20T13:30:45.032Z</time></trkpt><trkpt lat="43.47872" lon="11.35515"><ele>561.0</ele><time>2026-04-20T13:30:46.032Z</time></trkpt><trkpt lat="43.478765" lon="11.35527"><ele>561.0</ele><time>2026-04-20T13:30:48.032Z</time></trkpt><trkpt lat="43.4788433" lon="11.355345"><ele>561.0</ele><time>2026-04-20T13:30:50.032Z</time></trkpt><trkpt lat="43.478965" lon="11.3553717"><ele>559.8333333333334</ele><time>2026-04-20T13:30:52.032Z</time></trkpt><trkpt lat="43.4790367" lon="11.3553833"><ele>558.6666666666666</ele><time>2026-04-20T13:30:53.032Z</time></trkpt><trkpt lat="43.4791117" lon="11.3553967"><ele>557.5</ele><time>2026-04-20T13:30:54.032Z</time></trkpt><trkpt lat="43.4791867" lon="11.355415"><ele>556.3333333333333</ele><time>2026-04-20T13:30:55.032Z</time></trkpt><trkpt lat="43.47926" lon="11.3554367"><ele>555.1666666666666</ele><time>2026-04-20T13:30:56.032Z</time></trkpt><trkpt lat="43.47934" lon="11.355465"><ele>554.0</ele><time>2026-04-20T13:30:57.031Z</time></trkpt><trkpt lat="43.4794167" lon="11.3554983"><ele>555.0</ele><time>2026-04-20T13:30:58.032Z</time></trkpt><trkpt lat="43.4794833" lon="11.355545"><ele>556.0</ele><time>2026-04-20T13:30:59.031Z</time></trkpt><trkpt lat="43.4795483" lon="11.3556017"><ele>557.0</ele><time>2026-04-20T13:31:00.032Z</time></trkpt><trkpt lat="43.47961" lon="11.3556733"><ele>558.0</ele><time>2026-04-20T13:31:01.031Z</time></trkpt><trkpt lat="43.4796767" lon="11.3557567"><ele>559.0</ele><time>2026-04-20T13:31:02.031Z</time></trkpt><trkpt lat="43.479745" lon="11.35584"><ele>560.0</ele><time>2026-04-20T13:31:03.032Z</time></trkpt><trkpt lat="43.4798133" lon="11.35592"><ele>557.8333333333333</ele><time>2026-04-20T13:31:04.032Z</time></trkpt><trkpt lat="43.4798783" lon="11.35599"><ele>555.6666666666666</ele><time>2026-04-20T13:31:05.032Z</time></trkpt><trkpt lat="43.4799483" lon="11.3560533"><ele>553.5</ele><time>2026-04-20T13:31:06.032Z</time></trkpt><trkpt lat="43.48003" lon="11.3561133"><ele>551.3333333333334</ele><time>2026-04-20T13:31:07.032Z</time></trkpt><trkpt lat="43.4801083" lon="11.3561667"><ele>549.1666666666667</ele><time>2026-04-20T13:31:08.032Z</time></trkpt><trkpt lat="43.48019" lon="11.3562167"><ele>547.0</ele><time>2026-04-20T13:31:09.032Z</time></trkpt><trkpt lat="43.480275" lon="11.3562633"><ele>547.0</ele><time>2026-04-20T13:31:10.031Z</time></trkpt><trkpt lat="43.4803633" lon="11.3562967"><ele>547.0</ele><time>2026-04-20T13:31:11.032Z</time></trkpt><trkpt lat="43.4804567" lon="11.35632"><ele>547.0</ele><time>2026-04-20T13:31:12.032Z</time></trkpt><trkpt lat="43.4805467" lon="11.3563433"><ele>547.0</ele><time>2026-04-20T13:31:13.032Z</time></trkpt><trkpt lat="43.480645" lon="11.3563517"><ele>547.0</ele><time>2026-04-20T13:31:14.032Z</time></trkpt><trkpt lat="43.48075" lon="11.3563567"><ele>547.8000000000001</ele><time>2026-04-20T13:31:15.032Z</time></trkpt><trkpt lat="43.480855" lon="11.3563617"><ele>548.6</ele><time>2026-04-20T13:31:16.032Z</time></trkpt><trkpt lat="43.4809533" lon="11.3563767"><ele>549.4000000000001</ele><time>2026-04-20T13:31:17.032Z</time></trkpt><trkpt lat="43.48104" lon="11.3564"><ele>550.2</ele><time>2026-04-20T13:31:18.032Z</time></trkpt><trkpt lat="43.48112" lon="11.3564417"><ele>551.0</ele><time>2026-04-20T13:31:19.032Z</time></trkpt><trkpt lat="43.48119" lon="11.356495"><ele>551.0</ele><time>2026-04-20T13:31:20.032Z</time></trkpt><trkpt lat="43.4812617" lon="11.3565617"><ele>551.0</ele><time>2026-04-20T13:31:21.031Z</time></trkpt><trkpt lat="43.4813433" lon="11.3566333"><ele>551.0</ele><time>2026-04-20T13:31:22.032Z</time></trkpt><trkpt lat="43.4814367" lon="11.3567067"><ele>551.0</ele><time>2026-04-20T13:31:23.032Z</time></trkpt><trkpt lat="43.4815417" lon="11.35677"><ele>551.0</ele><time>2026-04-20T13:31:24.032Z</time></trkpt><trkpt lat="43.481645" lon="11.35683"><ele>548.8</ele><time>2026-04-20T13:31:25.031Z</time></trkpt><trkpt lat="43.4817417" lon="11.3568783"><ele>546.6</ele><time>2026-04-20T13:31:26.032Z</time></trkpt><trkpt lat="43.481835" lon="11.3569167"><ele>544.4</ele><time>2026-04-20T13:31:27.031Z</time></trkpt><trkpt lat="43.4819283" lon="11.356945"><ele>542.2</ele><time>2026-04-20T13:31:28.031Z</time></trkpt><trkpt lat="43.48202" lon="11.356965"><ele>540.0</ele><time>2026-04-20T13:31:29.032Z</time></trkpt><trkpt lat="43.4821083" lon="11.3569783"><ele>538.5</ele><time>2026-04-20T13:31:30.032Z</time></trkpt><trkpt lat="43.4821883" lon="11.3569833"><ele>537.0</ele><time>2026-04-20T13:31:31.032Z</time></trkpt><trkpt lat="43.48227" lon="11.3569983"><ele>535.5</ele><time>2026-04-20T13:31:32.032Z</time></trkpt><trkpt lat="43.4823533" lon="11.35703"><ele>534.0</ele><time>2026-04-20T13:31:33.031Z</time></trkpt><trkpt lat="43.4824317" lon="11.35708"><ele>532.5</ele><time>2026-04-20T13:31:34.032Z</time></trkpt><trkpt lat="43.4825067" lon="11.3571483"><ele>531.0</ele><time>2026-04-20T13:31:35.032Z</time></trkpt><trkpt lat="43.4825733" lon="11.3572283"><ele>535.0</ele><time>2026-04-20T13:31:36.031Z</time></trkpt><trkpt lat="43.4826317" lon="11.3573233"><ele>539.0</ele><time>2026-04-20T13:31:37.032Z</time></trkpt><trkpt lat="43.4826833" lon="11.35743"><ele>543.0</ele><time>2026-04-20T13:31:38.032Z</time></trkpt><trkpt lat="43.4827333" lon="11.357535"><ele>547.0</ele><time>2026-04-20T13:31:39.032Z</time></trkpt><trkpt lat="43.4827867" lon="11.3576333"><ele>551.0</ele><time>2026-04-20T13:31:40.031Z</time></trkpt><trkpt lat="43.4828433" lon="11.35773"><ele>551.0</ele><time>2026-04-20T13:31:41.032Z</time></trkpt><trkpt lat="43.4829117" lon="11.35782"><ele>551.0</ele><time>2026-04-20T13:31:42.032Z</time></trkpt><trkpt lat="43.4829833" lon="11.3579083"><ele>551.0</ele><time>2026-04-20T13:31:43.031Z</time></trkpt><trkpt lat="43.4830533" lon="11.3579967"><ele>551.0</ele><time>2026-04-20T13:31:44.032Z</time></trkpt><trkpt lat="43.4831233" lon="11.35808"><ele>551.0</ele><time>2026-04-20T13:31:45.032Z</time></trkpt><trkpt lat="43.48319" lon="11.3581633"><ele>550.5</ele><time>2026-04-20T13:31:46.032Z</time></trkpt><trkpt lat="43.4832433" lon="11.3582517"><ele>550.0</ele><time>2026-04-20T13:31:47.032Z</time></trkpt><trkpt lat="43.4832917" lon="11.3583483"><ele>549.5</ele><time>2026-04-20T13:31:48.032Z</time></trkpt><trkpt lat="43.4833333" lon="11.35845"><ele>549.0</ele><time>2026-04-20T13:31:49.031Z</time></trkpt><trkpt lat="43.4833667" lon="11.3585583"><ele>548.5</ele><time>2026-04-20T13:31:50.032Z</time></trkpt><trkpt lat="43.483395" lon="11.35867"><ele>548.0</ele><time>2026-04-20T13:31:51.032Z</time></trkpt><trkpt lat="43.48342" lon="11.3587933"><ele>549.1999999999999</ele><time>2026-04-20T13:31:52.031Z</time></trkpt><trkpt lat="43.4834517" lon="11.358925"><ele>550.4</ele><time>2026-04-20T13:31:53.032Z</time></trkpt><trkpt lat="43.48349" lon="11.359055"><ele>551.5999999999999</ele><time>2026-04-20T13:31:54.031Z</time></trkpt><trkpt lat="43.4835217" lon="11.3591767"><ele>552.8</ele><time>2026-04-20T13:31:55.032Z</time></trkpt><trkpt lat="43.483545" lon="11.3593017"><ele>554.0</ele><time>2026-04-20T13:31:56.032Z</time></trkpt><trkpt lat="43.483555" lon="11.35943"><ele>554.0</ele><time>2026-04-20T13:31:57.032Z</time></trkpt><trkpt lat="43.483545" lon="11.3595617"><ele>554.0</ele><time>2026-04-20T13:31:58.032Z</time></trkpt><trkpt lat="43.4835233" lon="11.359685"><ele>554.0</ele><time>2026-04-20T13:31:59.031Z</time></trkpt><trkpt lat="43.4835083" lon="11.3598033"><ele>554.0</ele><time>2026-04-20T13:32:00.031Z</time></trkpt><trkpt lat="43.4835017" lon="11.3599167"><ele>554.0</ele><time>2026-04-20T13:32:01.032Z</time></trkpt><trkpt lat="43.483515" lon="11.3600233"><ele>554.0</ele><time>2026-04-20T13:32:02.031Z</time></trkpt><trkpt lat="43.4835483" lon="11.3601317"><ele>554.6</ele><time>2026-04-20T13:32:03.032Z</time></trkpt><trkpt lat="43.483595" lon="11.3602467"><ele>555.2</ele><time>2026-04-20T13:32:04.032Z</time></trkpt><trkpt lat="43.4836483" lon="11.3603683"><ele>555.8000000000001</ele><time>2026-04-20T13:32:05.032Z</time></trkpt><trkpt lat="43.4837067" lon="11.36049"><ele>556.4</ele><time>2026-04-20T13:32:06.032Z</time></trkpt><trkpt lat="43.4837667" lon="11.3606117"><ele>557.0</ele><time>2026-04-20T13:32:07.031Z</time></trkpt><trkpt lat="43.483835" lon="11.3607333"><ele>552.0</ele><time>2026-04-20T13:32:08.032Z</time></trkpt><trkpt lat="43.483905" lon="11.36085"><ele>547.0</ele><time>2026-04-20T13:32:09.032Z</time></trkpt><trkpt lat="43.4839767" lon="11.360955"><ele>542.0</ele><time>2026-04-20T13:32:10.031Z</time></trkpt><trkpt lat="43.4840467" lon="11.3610533"><ele>537.0</ele><time>2026-04-20T13:32:11.031Z</time></trkpt><trkpt lat="43.484125" lon="11.3611483"><ele>532.0</ele><time>2026-04-20T13:32:12.032Z</time></trkpt><trkpt lat="43.4841967" lon="11.3612417"><ele>532.0</ele><time>2026-04-20T13:32:13.032Z</time></trkpt><trkpt lat="43.48426" lon="11.3613317"><ele>532.0</ele><time>2026-04-20T13:32:14.032Z</time></trkpt><trkpt lat="43.484315" lon="11.3614233"><ele>532.0</ele><time>2026-04-20T13:32:15.032Z</time></trkpt><trkpt lat="43.4843667" lon="11.3615167"><ele>532.0</ele><time>2026-04-20T13:32:16.032Z</time></trkpt><trkpt lat="43.4844133" lon="11.3616067"><ele>532.0</ele><time>2026-04-20T13:32:17.031Z</time></trkpt><trkpt lat="43.4844567" lon="11.3617017"><ele>532.0</ele><time>2026-04-20T13:32:18.032Z</time></trkpt><trkpt lat="43.484495" lon="11.36181"><ele>533.8000000000001</ele><time>2026-04-20T13:32:19.031Z</time></trkpt><trkpt lat="43.4845217" lon="11.3619217"><ele>535.6</ele><time>2026-04-20T13:32:20.032Z</time></trkpt><trkpt lat="43.4845367" lon="11.3620383"><ele>537.4000000000001</ele><time>2026-04-20T13:32:21.032Z</time></trkpt><trkpt lat="43.4845433" lon="11.362165"><ele>539.2</ele><time>2026-04-20T13:32:22.032Z</time></trkpt><trkpt lat="43.48455" lon="11.362295"><ele>541.0</ele><time>2026-04-20T13:32:23.032Z</time></trkpt><trkpt lat="43.4845583" lon="11.362425"><ele>541.0</ele><time>2026-04-20T13:32:24.032Z</time></trkpt><trkpt lat="43.4845683" lon="11.3625567"><ele>541.0</ele><time>2026-04-20T13:32:25.031Z</time></trkpt><trkpt lat="43.4845783" lon="11.3626833"><ele>541.0</ele><time>2026-04-20T13:32:26.032Z</time></trkpt><trkpt lat="43.4845883" lon="11.3628117"><ele>541.0</ele><time>2026-04-20T13:32:27.031Z</time></trkpt><trkpt lat="43.4846033" lon="11.362945"><ele>541.0</ele><time>2026-04-20T13:32:28.031Z</time></trkpt><trkpt lat="43.4846167" lon="11.36308"><ele>534.2</ele><time>2026-04-20T13:32:29.031Z</time></trkpt><trkpt lat="43.4846317" lon="11.36321"><ele>527.4000000000001</ele><time>2026-04-20T13:32:30.032Z</time></trkpt><trkpt lat="43.4846433" lon="11.363335"><ele>520.6</ele><time>2026-04-20T13:32:31.032Z</time></trkpt><trkpt lat="43.4846567" lon="11.3634583"><ele>513.8000000000001</ele><time>2026-04-20T13:32:32.031Z</time></trkpt><trkpt lat="43.4846733" lon="11.3635783"><ele>507.0</ele><time>2026-04-20T13:32:33.032Z</time></trkpt><trkpt lat="43.4846933" lon="11.363695"><ele>507.0</ele><time>2026-04-20T13:32:34.032Z</time></trkpt><trkpt lat="43.4847067" lon="11.3638133"><ele>507.0</ele><time>2026-04-20T13:32:35.031Z</time></trkpt><trkpt lat="43.4847183" lon="11.3639317"><ele>507.0</ele><time>2026-04-20T13:32:36.032Z</time></trkpt><trkpt lat="43.48473" lon="11.3640483"><ele>507.0</ele><time>2026-04-20T13:32:37.031Z</time></trkpt><trkpt lat="43.4847417" lon="11.3641667"><ele>507.0</ele><time>2026-04-20T13:32:38.032Z</time></trkpt><trkpt lat="43.4847617" lon="11.3642833"><ele>507.0</ele><time>2026-04-20T13:32:39.032Z</time></trkpt><trkpt lat="43.4847883" lon="11.3643967"><ele>506.8333333333333</ele><time>2026-04-20T13:32:40.032Z</time></trkpt><trkpt lat="43.484825" lon="11.3645017"><ele>506.66666666666663</ele><time>2026-04-20T13:32:41.032Z</time></trkpt><trkpt lat="43.4848667" lon="11.3646"><ele>506.5</ele><time>2026-04-20T13:32:42.031Z</time></trkpt><trkpt lat="43.4849067" lon="11.3647017"><ele>506.3333333333333</ele><time>2026-04-20T13:32:43.03Z</time></trkpt><trkpt lat="43.4849317" lon="11.364805"><ele>506.16666666666663</ele><time>2026-04-20T13:32:44.03Z</time></trkpt><trkpt lat="43.484935" lon="11.3649233"><ele>506.0</ele><time>2026-04-20T13:32:45.031Z</time></trkpt><trkpt lat="43.4849317" lon="11.365045"><ele>505.66666666666663</ele><time>2026-04-20T13:32:46.031Z</time></trkpt><trkpt lat="43.4849183" lon="11.365165"><ele>505.3333333333333</ele><time>2026-04-20T13:32:47.031Z</time></trkpt><trkpt lat="43.4848983" lon="11.3652833"><ele>505.0</ele><time>2026-04-20T13:32:48.031Z</time></trkpt><trkpt lat="43.484865" lon="11.3653967"><ele>504.66666666666663</ele><time>2026-04-20T13:32:49.031Z</time></trkpt><trkpt lat="43.4848283" lon="11.365505"><ele>504.3333333333333</ele><time>2026-04-20T13:32:50.031Z</time></trkpt><trkpt lat="43.484785" lon="11.3656133"><ele>504.0</ele><time>2026-04-20T13:32:51.031Z</time></trkpt><trkpt lat="43.484745" lon="11.365715"><ele>503.5</ele><time>2026-04-20T13:32:52.031Z</time></trkpt><trkpt lat="43.4847117" lon="11.3658167"><ele>503.0</ele><time>2026-04-20T13:32:53.03Z</time></trkpt><trkpt lat="43.48468" lon="11.3659067"><ele>502.5</ele><time>2026-04-20T13:32:54.031Z</time></trkpt><trkpt lat="43.4846517" lon="11.365995"><ele>502.0</ele><time>2026-04-20T13:32:55.031Z</time></trkpt><trkpt lat="43.48463" lon="11.3660783"><ele>501.5</ele><time>2026-04-20T13:32:56.03Z</time></trkpt><trkpt lat="43.4846083" lon="11.3661617"><ele>501.0</ele><time>2026-04-20T13:32:57.031Z</time></trkpt><trkpt lat="43.48457" lon="11.3663183"><ele>499.8</ele><time>2026-04-20T13:32:59.031Z</time></trkpt><trkpt lat="43.48454" lon="11.3664667"><ele>498.6</ele><time>2026-04-20T13:33:01.031Z</time></trkpt><trkpt lat="43.484505" lon="11.3665883"><ele>497.4</ele><time>2026-04-20T13:33:03.03Z</time></trkpt><trkpt lat="43.4844833" lon="11.3666933"><ele>496.2</ele><time>2026-04-20T13:33:06.03Z</time></trkpt><trkpt lat="43.4845183" lon="11.3665767"><ele>495.0</ele><time>2026-04-20T13:33:21.031Z</time></trkpt><trkpt lat="43.4845417" lon="11.366425"><ele>495.1666666666667</ele><time>2026-04-20T13:33:23.031Z</time></trkpt><trkpt lat="43.4845717" lon="11.3662767"><ele>495.33333333333337</ele><time>2026-04-20T13:33:25.03Z</time></trkpt><trkpt lat="43.4846017" lon="11.36614"><ele>495.5</ele><time>2026-04-20T13:33:27.031Z</time></trkpt><trkpt lat="43.4846267" lon="11.3660533"><ele>495.6666666666667</ele><time>2026-04-20T13:33:29.031Z</time></trkpt><trkpt lat="43.4846517" lon="11.3659683"><ele>495.83333333333337</ele><time>2026-04-20T13:33:32.031Z</time></trkpt><trkpt lat="43.4846833" lon="11.3658717"><ele>496.0</ele><time>2026-04-20T13:33:34.031Z</time></trkpt><trkpt lat="43.48473" lon="11.3657517"><ele>496.00000000000006</ele><time>2026-04-20T13:33:36.031Z</time></trkpt><trkpt lat="43.4847633" lon="11.3656383"><ele>496.0</ele><time>2026-04-20T13:33:38.031Z</time></trkpt><trkpt lat="43.4848117" lon="11.3655217"><ele>496.0</ele><time>2026-04-20T13:33:40.03Z</time></trkpt><trkpt lat="43.4848483" lon="11.3654283"><ele>496.0</ele><time>2026-04-20T13:33:42.031Z</time></trkpt><trkpt lat="43.4847917" lon="11.3655133"><ele>496.00000000000006</ele><time>2026-04-20T13:33:51.031Z</time></trkpt><trkpt lat="43.4847683" lon="11.365605"><ele>496.0</ele><time>2026-04-20T13:33:53.031Z</time></trkpt><trkpt lat="43.4847267" lon="11.365725"><ele>496.00000000000006</ele><time>2026-04-20T13:33:55.031Z</time></trkpt><trkpt lat="43.4846917" lon="11.3658433"><ele>496.0</ele><time>2026-04-20T13:33:57.031Z</time></trkpt><trkpt lat="43.4846533" lon="11.3659383"><ele>496.0</ele><time>2026-04-20T13:33:59.03Z</time></trkpt><trkpt lat="43.4845733" lon="11.3659867"><ele>496.0</ele><time>2026-04-20T13:34:02.03Z</time></trkpt><trkpt lat="43.48451" lon="11.3659433"><ele>496.00000000000006</ele><time>2026-04-20T13:34:04.031Z</time></trkpt><trkpt lat="43.48445" lon="11.365855"><ele>496.0</ele><time>2026-04-20T13:34:06.031Z</time></trkpt><trkpt lat="43.484365" lon="11.3657217"><ele>496.83333333333337</ele><time>2026-04-20T13:34:08.031Z</time></trkpt><trkpt lat="43.4843" lon="11.3656417"><ele>497.6666666666667</ele><time>2026-04-20T13:34:09.031Z</time></trkpt><trkpt lat="43.48422" lon="11.365565"><ele>498.5</ele><time>2026-04-20T13:34:10.03Z</time></trkpt><trkpt lat="43.484135" lon="11.3655017"><ele>499.33333333333337</ele><time>2026-04-20T13:34:11.031Z</time></trkpt><trkpt lat="43.4840617" lon="11.36546"><ele>500.1666666666667</ele><time>2026-04-20T13:34:12.031Z</time></trkpt><trkpt lat="43.4839933" lon="11.3654467"><ele>501.0</ele><time>2026-04-20T13:34:13.031Z</time></trkpt><trkpt lat="43.4839333" lon="11.3654733"><ele>501.0</ele><time>2026-04-20T13:34:14.031Z</time></trkpt><trkpt lat="43.483885" lon="11.3655367"><ele>501.0</ele><time>2026-04-20T13:34:15.03Z</time></trkpt><trkpt lat="43.483835" lon="11.365615"><ele>501.0</ele><time>2026-04-20T13:34:16.03Z</time></trkpt><trkpt lat="43.4837783" lon="11.3657"><ele>501.0</ele><time>2026-04-20T13:34:17.031Z</time></trkpt><trkpt lat="43.4837117" lon="11.3657967"><ele>501.0</ele><time>2026-04-20T13:34:18.031Z</time></trkpt><trkpt lat="43.4836383" lon="11.365905"><ele>501.0</ele><time>2026-04-20T13:34:19.03Z</time></trkpt><trkpt lat="43.4835617" lon="11.3660233"><ele>502.5</ele><time>2026-04-20T13:34:20.031Z</time></trkpt><trkpt lat="43.48348" lon="11.3661417"><ele>504.0</ele><time>2026-04-20T13:34:21.031Z</time></trkpt><trkpt lat="43.483395" lon="11.366245"><ele>505.5</ele><time>2026-04-20T13:34:22.031Z</time></trkpt><trkpt lat="43.483305" lon="11.3663383"><ele>507.0</ele><time>2026-04-20T13:34:23.03Z</time></trkpt><trkpt lat="43.48321" lon="11.366425"><ele>503.5</ele><time>2026-04-20T13:34:24.03Z</time></trkpt><trkpt lat="43.48311" lon="11.366485"><ele>500.0</ele><time>2026-04-20T13:34:25.031Z</time></trkpt><trkpt lat="43.4830033" lon="11.3665167"><ele>496.5</ele><time>2026-04-20T13:34:26.031Z</time></trkpt><trkpt lat="43.4828867" lon="11.3665083"><ele>493.0</ele><time>2026-04-20T13:34:27.031Z</time></trkpt><trkpt lat="43.482765" lon="11.36648"><ele>492.75</ele><time>2026-04-20T13:34:28.031Z</time></trkpt><trkpt lat="43.48264" lon="11.3664467"><ele>492.5</ele><time>2026-04-20T13:34:29.03Z</time></trkpt><trkpt lat="43.4825167" lon="11.3664233"><ele>492.25</ele><time>2026-04-20T13:34:30.031Z</time></trkpt><trkpt lat="43.4824" lon="11.366415"><ele>492.0</ele><time>2026-04-20T13:34:31.031Z</time></trkpt><trkpt lat="43.4822933" lon="11.366445"><ele>492.0</ele><time>2026-04-20T13:34:32.03Z</time></trkpt><trkpt lat="43.482195" lon="11.3665083"><ele>492.00000000000006</ele><time>2026-04-20T13:34:33.031Z</time></trkpt><trkpt lat="43.4821083" lon="11.3665983"><ele>492.00000000000006</ele><time>2026-04-20T13:34:34.031Z</time></trkpt><trkpt lat="43.4820317" lon="11.366705"><ele>492.0</ele><time>2026-04-20T13:34:35.031Z</time></trkpt><trkpt lat="43.4819617" lon="11.3668217"><ele>492.0</ele><time>2026-04-20T13:34:36.031Z</time></trkpt><trkpt lat="43.4818917" lon="11.3669267"><ele>492.8</ele><time>2026-04-20T13:34:37.031Z</time></trkpt><trkpt lat="43.48181" lon="11.3670117"><ele>493.6</ele><time>2026-04-20T13:34:38.031Z</time></trkpt><trkpt lat="43.4817167" lon="11.3670717"><ele>494.40000000000003</ele><time>2026-04-20T13:34:39.031Z</time></trkpt><trkpt lat="43.4816117" lon="11.3671133"><ele>495.20000000000005</ele><time>2026-04-20T13:34:40.03Z</time></trkpt><trkpt lat="43.4814967" lon="11.367135"><ele>496.0</ele><time>2026-04-20T13:34:41.031Z</time></trkpt><trkpt lat="43.48138" lon="11.3671367"><ele>494.5</ele><time>2026-04-20T13:34:42.031Z</time></trkpt><trkpt lat="43.48126" lon="11.3671483"><ele>493.0</ele><time>2026-04-20T13:34:43.03Z</time></trkpt><trkpt lat="43.481145" lon="11.3671833"><ele>491.5</ele><time>2026-04-20T13:34:44.03Z</time></trkpt><trkpt lat="43.4810433" lon="11.3672567"><ele>490.0</ele><time>2026-04-20T13:34:45.03Z</time></trkpt><trkpt lat="43.4809567" lon="11.3673567"><ele>490.0</ele><time>2026-04-20T13:34:46.03Z</time></trkpt><trkpt lat="43.4808883" lon="11.36747"><ele>490.0</ele><time>2026-04-20T13:34:47.03Z</time></trkpt><trkpt lat="43.4808233" lon="11.36758"><ele>490.0</ele><time>2026-04-20T13:34:48.031Z</time></trkpt><trkpt lat="43.4807517" lon="11.3676683"><ele>490.0</ele><time>2026-04-20T13:34:49.03Z</time></trkpt><trkpt lat="43.480665" lon="11.367725"><ele>490.0</ele><time>2026-04-20T13:34:50.031Z</time></trkpt><trkpt lat="43.4805683" lon="11.36774"><ele>490.0</ele><time>2026-04-20T13:34:51.031Z</time></trkpt><trkpt lat="43.4804717" lon="11.36771"><ele>490.0</ele><time>2026-04-20T13:34:52.031Z</time></trkpt><trkpt lat="43.4803817" lon="11.3676667"><ele>490.0</ele><time>2026-04-20T13:34:53.031Z</time></trkpt><trkpt lat="43.4802933" lon="11.3676483"><ele>490.0</ele><time>2026-04-20T13:34:54.03Z</time></trkpt><trkpt lat="43.4802117" lon="11.3676733"><ele>490.0</ele><time>2026-04-20T13:34:55.031Z</time></trkpt><trkpt lat="43.48014" lon="11.36773"><ele>491.2</ele><time>2026-04-20T13:34:56.031Z</time></trkpt><trkpt lat="43.480075" lon="11.3678083"><ele>492.4</ele><time>2026-04-20T13:34:57.03Z</time></trkpt><trkpt lat="43.4800117" lon="11.367895"><ele>493.6</ele><time>2026-04-20T13:34:58.031Z</time></trkpt><trkpt lat="43.47994" lon="11.3679933"><ele>494.8</ele><time>2026-04-20T13:34:59.03Z</time></trkpt><trkpt lat="43.4798633" lon="11.3681117"><ele>496.0</ele><time>2026-04-20T13:35:00.031Z</time></trkpt><trkpt lat="43.4797767" lon="11.3682383"><ele>495.75</ele><time>2026-04-20T13:35:01.03Z</time></trkpt><trkpt lat="43.4796833" lon="11.3683783"><ele>495.5</ele><time>2026-04-20T13:35:02.031Z</time></trkpt><trkpt lat="43.4795833" lon="11.3685317"><ele>495.25</ele><time>2026-04-20T13:35:03.031Z</time></trkpt><trkpt lat="43.479475" lon="11.3686867"><ele>495.0</ele><time>2026-04-20T13:35:04.031Z</time></trkpt><trkpt lat="43.4793667" lon="11.3688417"><ele>490.33333333333337</ele><time>2026-04-20T13:35:05.031Z</time></trkpt><trkpt lat="43.4792583" lon="11.3689917"><ele>485.6666666666667</ele><time>2026-04-20T13:35:06.031Z</time></trkpt><trkpt lat="43.4791517" lon="11.3691367"><ele>481.0</ele><time>2026-04-20T13:35:07.031Z</time></trkpt><trkpt lat="43.4790483" lon="11.3692817"><ele>481.0</ele><time>2026-04-20T13:35:08.031Z</time></trkpt><trkpt lat="43.4789467" lon="11.3694233"><ele>481.0</ele><time>2026-04-20T13:35:09.031Z</time></trkpt><trkpt lat="43.4788517" lon="11.3695567"><ele>481.0</ele><time>2026-04-20T13:35:10.031Z</time></trkpt><trkpt lat="43.4787617" lon="11.369675"><ele>481.0</ele><time>2026-04-20T13:35:11.031Z</time></trkpt><trkpt lat="43.4786667" lon="11.3697667"><ele>478.5</ele><time>2026-04-20T13:35:12.031Z</time></trkpt><trkpt lat="43.4785583" lon="11.36981"><ele>476.0</ele><time>2026-04-20T13:35:13.031Z</time></trkpt><trkpt lat="43.478445" lon="11.3698167"><ele>473.5</ele><time>2026-04-20T13:35:14.031Z</time></trkpt><trkpt lat="43.4783267" lon="11.3697983"><ele>471.0</ele><time>2026-04-20T13:35:15.031Z</time></trkpt><trkpt lat="43.47822" lon="11.36978"><ele>471.0</ele><time>2026-04-20T13:35:16.031Z</time></trkpt><trkpt lat="43.478125" lon="11.36979"><ele>471.0</ele><time>2026-04-20T13:35:17.031Z</time></trkpt><trkpt lat="43.478045" lon="11.3698317"><ele>471.0</ele><time>2026-04-20T13:35:18.031Z</time></trkpt><trkpt lat="43.4779767" lon="11.3698983"><ele>471.0</ele><time>2026-04-20T13:35:19.031Z</time></trkpt><trkpt lat="43.4779317" lon="11.370005"><ele>471.0</ele><time>2026-04-20T13:35:20.031Z</time></trkpt><trkpt lat="43.4779283" lon="11.3701467"><ele>471.0</ele><time>2026-04-20T13:35:21.031Z</time></trkpt><trkpt lat="43.47796" lon="11.370305"><ele>471.0</ele><time>2026-04-20T13:35:22.031Z</time></trkpt><trkpt lat="43.4780383" lon="11.3704967"><ele>471.0</ele><time>2026-04-20T13:35:23.031Z</time></trkpt><trkpt lat="43.47809" lon="11.3706767"><ele>471.0</ele><time>2026-04-20T13:35:24.031Z</time></trkpt><trkpt lat="43.4781333" lon="11.3708533"><ele>469.0</ele><time>2026-04-20T13:35:25.031Z</time></trkpt><trkpt lat="43.478175" lon="11.3710183"><ele>467.0</ele><time>2026-04-20T13:35:26.031Z</time></trkpt><trkpt lat="43.478215" lon="11.371175"><ele>465.0</ele><time>2026-04-20T13:35:27.03Z</time></trkpt><trkpt lat="43.4782433" lon="11.3713267"><ele>463.0</ele><time>2026-04-20T13:35:28.031Z</time></trkpt><trkpt lat="43.478245" lon="11.3714817"><ele>460.75</ele><time>2026-04-20T13:35:29.031Z</time></trkpt><trkpt lat="43.478215" lon="11.37163"><ele>458.5</ele><time>2026-04-20T13:35:30.031Z</time></trkpt><trkpt lat="43.4781567" lon="11.3717633"><ele>456.25</ele><time>2026-04-20T13:35:31.031Z</time></trkpt><trkpt lat="43.4780683" lon="11.3718667"><ele>454.0</ele><time>2026-04-20T13:35:32.03Z</time></trkpt><trkpt lat="43.4779617" lon="11.37194"><ele>454.75</ele><time>2026-04-20T13:35:33.031Z</time></trkpt><trkpt lat="43.477845" lon="11.3719783"><ele>455.5</ele><time>2026-04-20T13:35:34.03Z</time></trkpt><trkpt lat="43.4777217" lon="11.3719967"><ele>456.25</ele><time>2026-04-20T13:35:35.03Z</time></trkpt><trkpt lat="43.4775983" lon="11.3719917"><ele>457.0</ele><time>2026-04-20T13:35:36.031Z</time></trkpt><trkpt lat="43.4774733" lon="11.371965"><ele>457.0</ele><time>2026-04-20T13:35:37.03Z</time></trkpt><trkpt lat="43.477355" lon="11.3719183"><ele>457.0</ele><time>2026-04-20T13:35:38.031Z</time></trkpt><trkpt lat="43.4772433" lon="11.3718617"><ele>457.0</ele><time>2026-04-20T13:35:39.031Z</time></trkpt><trkpt lat="43.4771317" lon="11.3718167"><ele>457.0</ele><time>2026-04-20T13:35:40.03Z</time></trkpt><trkpt lat="43.47702" lon="11.371805"><ele>456.6</ele><time>2026-04-20T13:35:41.031Z</time></trkpt><trkpt lat="43.476915" lon="11.3718333"><ele>456.20000000000005</ele><time>2026-04-20T13:35:42.031Z</time></trkpt><trkpt lat="43.4768217" lon="11.3718933"><ele>455.8</ele><time>2026-04-20T13:35:43.031Z</time></trkpt><trkpt lat="43.4767467" lon="11.3719933"><ele>455.4</ele><time>2026-04-20T13:35:44.031Z</time></trkpt><trkpt lat="43.4766933" lon="11.3721183"><ele>455.0</ele><time>2026-04-20T13:35:45.031Z</time></trkpt><trkpt lat="43.4766717" lon="11.3722717"><ele>452.75</ele><time>2026-04-20T13:35:46.031Z</time></trkpt><trkpt lat="43.4766633" lon="11.3724367"><ele>450.5</ele><time>2026-04-20T13:35:47.031Z</time></trkpt><trkpt lat="43.4766517" lon="11.3726083"><ele>448.25</ele><time>2026-04-20T13:35:48.031Z</time></trkpt><trkpt lat="43.4766317" lon="11.37278"><ele>446.0</ele><time>2026-04-20T13:35:49.03Z</time></trkpt><trkpt lat="43.4766117" lon="11.372945"><ele>443.6</ele><time>2026-04-20T13:35:50.031Z</time></trkpt><trkpt lat="43.4765917" lon="11.3731033"><ele>441.20000000000005</ele><time>2026-04-20T13:35:51.031Z</time></trkpt><trkpt lat="43.4765717" lon="11.3732567"><ele>438.79999999999995</ele><time>2026-04-20T13:35:52.031Z</time></trkpt><trkpt lat="43.4765483" lon="11.3734033"><ele>436.4</ele><time>2026-04-20T13:35:53.031Z</time></trkpt><trkpt lat="43.47652" lon="11.3735317"><ele>434.0</ele><time>2026-04-20T13:35:54.031Z</time></trkpt><trkpt lat="43.476475" lon="11.37364"><ele>434.0</ele><time>2026-04-20T13:35:55.031Z</time></trkpt><trkpt lat="43.4764117" lon="11.3737283"><ele>434.0</ele><time>2026-04-20T13:35:56.031Z</time></trkpt><trkpt lat="43.476335" lon="11.3737933"><ele>434.0</ele><time>2026-04-20T13:35:57.031Z</time></trkpt><trkpt lat="43.4762383" lon="11.3738233"><ele>434.0</ele><time>2026-04-20T13:35:58.031Z</time></trkpt><trkpt lat="43.47612" lon="11.3738167"><ele>434.0</ele><time>2026-04-20T13:35:59.031Z</time></trkpt><trkpt lat="43.476" lon="11.3738167"><ele>435.5</ele><time>2026-04-20T13:36:00.031Z</time></trkpt><trkpt lat="43.4758717" lon="11.373825"><ele>437.0</ele><time>2026-04-20T13:36:01.031Z</time></trkpt><trkpt lat="43.4757367" lon="11.3738383"><ele>438.5</ele><time>2026-04-20T13:36:02.031Z</time></trkpt><trkpt lat="43.4756067" lon="11.373855"><ele>440.0</ele><time>2026-04-20T13:36:03.031Z</time></trkpt><trkpt lat="43.47548" lon="11.3738667"><ele>435.0</ele><time>2026-04-20T13:36:04.031Z</time></trkpt><trkpt lat="43.4753567" lon="11.373885"><ele>430.0</ele><time>2026-04-20T13:36:05.031Z</time></trkpt><trkpt lat="43.4752367" lon="11.373905"><ele>425.0</ele><time>2026-04-20T13:36:06.03Z</time></trkpt><trkpt lat="43.47512" lon="11.37392"><ele>420.0</ele><time>2026-04-20T13:36:07.031Z</time></trkpt><trkpt lat="43.475005" lon="11.3739317"><ele>420.0</ele><time>2026-04-20T13:36:08.031Z</time></trkpt><trkpt lat="43.4748933" lon="11.3739267"><ele>420.0</ele><time>2026-04-20T13:36:09.031Z</time></trkpt><trkpt lat="43.4747883" lon="11.3738867"><ele>420.0</ele><time>2026-04-20T13:36:10.031Z</time></trkpt><trkpt lat="43.4747017" lon="11.3738133"><ele>420.0</ele><time>2026-04-20T13:36:11.03Z</time></trkpt><trkpt lat="43.4746233" lon="11.3737217"><ele>420.0</ele><time>2026-04-20T13:36:12.031Z</time></trkpt><trkpt lat="43.47454" lon="11.3736367"><ele>421.8</ele><time>2026-04-20T13:36:13.031Z</time></trkpt><trkpt lat="43.474445" lon="11.3735817"><ele>423.6</ele><time>2026-04-20T13:36:14.03Z</time></trkpt><trkpt lat="43.474345" lon="11.3735583"><ele>425.4</ele><time>2026-04-20T13:36:15.031Z</time></trkpt><trkpt lat="43.4742467" lon="11.3735783"><ele>427.2</ele><time>2026-04-20T13:36:16.03Z</time></trkpt><trkpt lat="43.4741483" lon="11.373635"><ele>429.0</ele><time>2026-04-20T13:36:17.031Z</time></trkpt><trkpt lat="43.4740567" lon="11.3737267"><ele>429.0</ele><time>2026-04-20T13:36:18.031Z</time></trkpt><trkpt lat="43.4739717" lon="11.3738433"><ele>429.0</ele><time>2026-04-20T13:36:19.031Z</time></trkpt><trkpt lat="43.4738967" lon="11.3739717"><ele>429.0</ele><time>2026-04-20T13:36:20.031Z</time></trkpt><trkpt lat="43.4738233" lon="11.374095"><ele>429.0</ele><time>2026-04-20T13:36:21.031Z</time></trkpt><trkpt lat="43.473745" lon="11.3742033"><ele>425.25</ele><time>2026-04-20T13:36:22.031Z</time></trkpt><trkpt lat="43.4736567" lon="11.374295"><ele>421.5</ele><time>2026-04-20T13:36:23.031Z</time></trkpt><trkpt lat="43.473555" lon="11.3743617"><ele>417.75</ele><time>2026-04-20T13:36:24.031Z</time></trkpt><trkpt lat="43.473445" lon="11.37439"><ele>414.0</ele><time>2026-04-20T13:36:25.031Z</time></trkpt><trkpt lat="43.47333" lon="11.3743817"><ele>414.0</ele><time>2026-04-20T13:36:26.031Z</time></trkpt><trkpt lat="43.4732133" lon="11.37435"><ele>414.0</ele><time>2026-04-20T13:36:27.031Z</time></trkpt><trkpt lat="43.4730983" lon="11.3743"><ele>414.0</ele><time>2026-04-20T13:36:28.03Z</time></trkpt><trkpt lat="43.4729783" lon="11.374235"><ele>414.0</ele><time>2026-04-20T13:36:29.031Z</time></trkpt><trkpt lat="43.4728533" lon="11.37416"><ele>411.25</ele><time>2026-04-20T13:36:30.03Z</time></trkpt><trkpt lat="43.4727317" lon="11.3740817"><ele>408.5</ele><time>2026-04-20T13:36:31.031Z</time></trkpt><trkpt lat="43.4726117" lon="11.3740133"><ele>405.75</ele><time>2026-04-20T13:36:32.031Z</time></trkpt><trkpt lat="43.47249" lon="11.3739567"><ele>403.0</ele><time>2026-04-20T13:36:33.031Z</time></trkpt><trkpt lat="43.4723667" lon="11.3739317"><ele>403.0</ele><time>2026-04-20T13:36:34.031Z</time></trkpt><trkpt lat="43.4722383" lon="11.373935"><ele>403.0</ele><time>2026-04-20T13:36:35.031Z</time></trkpt><trkpt lat="43.47211" lon="11.3739533"><ele>403.0</ele><time>2026-04-20T13:36:36.031Z</time></trkpt><trkpt lat="43.4719833" lon="11.373975"><ele>403.0</ele><time>2026-04-20T13:36:37.031Z</time></trkpt><trkpt lat="43.4718517" lon="11.3740067"><ele>401.5</ele><time>2026-04-20T13:36:38.031Z</time></trkpt><trkpt lat="43.4717183" lon="11.3740467"><ele>400.0</ele><time>2026-04-20T13:36:39.031Z</time></trkpt><trkpt lat="43.4715867" lon="11.37409"><ele>398.5</ele><time>2026-04-20T13:36:40.03Z</time></trkpt><trkpt lat="43.47146" lon="11.37413"><ele>397.0</ele><time>2026-04-20T13:36:41.031Z</time></trkpt><trkpt lat="43.4713383" lon="11.3741683"><ele>396.5</ele><time>2026-04-20T13:36:42.03Z</time></trkpt><trkpt lat="43.4712183" lon="11.3742067"><ele>396.0</ele><time>2026-04-20T13:36:43.031Z</time></trkpt><trkpt lat="43.4710933" lon="11.3742383"><ele>395.5</ele><time>2026-04-20T13:36:44.031Z</time></trkpt><trkpt lat="43.4709633" lon="11.3742633"><ele>395.0</ele><time>2026-04-20T13:36:45.03Z</time></trkpt><trkpt lat="43.47083" lon="11.3742783"><ele>395.0</ele><time>2026-04-20T13:36:46.031Z</time></trkpt><trkpt lat="43.470695" lon="11.3742917"><ele>395.0</ele><time>2026-04-20T13:36:47.031Z</time></trkpt><trkpt lat="43.4705633" lon="11.3743"><ele>395.0</ele><time>2026-04-20T13:36:48.03Z</time></trkpt><trkpt lat="43.4704333" lon="11.3742933"><ele>395.0</ele><time>2026-04-20T13:36:49.031Z</time></trkpt><trkpt lat="43.4703033" lon="11.3742817"><ele>394.25</ele><time>2026-04-20T13:36:50.031Z</time></trkpt><trkpt lat="43.47017" lon="11.37427"><ele>393.5</ele><time>2026-04-20T13:36:51.031Z</time></trkpt><trkpt lat="43.47003" lon="11.3742683"><ele>392.75</ele><time>2026-04-20T13:36:52.031Z</time></trkpt><trkpt lat="43.46989" lon="11.3742717"><ele>392.0</ele><time>2026-04-20T13:36:53.031Z</time></trkpt><trkpt lat="43.4697533" lon="11.37428"><ele>392.0</ele><time>2026-04-20T13:36:54.03Z</time></trkpt><trkpt lat="43.4696233" lon="11.37427"><ele>392.0</ele><time>2026-04-20T13:36:55.031Z</time></trkpt><trkpt lat="43.4694967" lon="11.3742567"><ele>392.0</ele><time>2026-04-20T13:36:56.031Z</time></trkpt><trkpt lat="43.4693733" lon="11.3742533"><ele>392.0</ele><time>2026-04-20T13:36:57.03Z</time></trkpt><trkpt lat="43.469255" lon="11.3742433"><ele>390.25</ele><time>2026-04-20T13:36:58.031Z</time></trkpt><trkpt lat="43.4691367" lon="11.3742233"><ele>388.5</ele><time>2026-04-20T13:36:59.031Z</time></trkpt><trkpt lat="43.469025" lon="11.3741817"><ele>386.75</ele><time>2026-04-20T13:37:00.031Z</time></trkpt><trkpt lat="43.4689167" lon="11.3741117"><ele>385.0</ele><time>2026-04-20T13:37:01.031Z</time></trkpt><trkpt lat="43.4688233" lon="11.374015"><ele>384.6</ele><time>2026-04-20T13:37:02.031Z</time></trkpt><trkpt lat="43.4687383" lon="11.3738967"><ele>384.2</ele><time>2026-04-20T13:37:03.031Z</time></trkpt><trkpt lat="43.4686683" lon="11.3737567"><ele>383.79999999999995</ele><time>2026-04-20T13:37:04.031Z</time></trkpt><trkpt lat="43.4686017" lon="11.373645"><ele>383.4</ele><time>2026-04-20T13:37:05.031Z</time></trkpt><trkpt lat="43.4685267" lon="11.37356"><ele>383.0</ele><time>2026-04-20T13:37:06.031Z</time></trkpt><trkpt lat="43.468445" lon="11.3734867"><ele>383.0</ele><time>2026-04-20T13:37:07.03Z</time></trkpt><trkpt lat="43.46835" lon="11.3734183"><ele>383.0</ele><time>2026-04-20T13:37:08.031Z</time></trkpt><trkpt lat="43.468245" lon="11.373365"><ele>383.0</ele><time>2026-04-20T13:37:09.031Z</time></trkpt><trkpt lat="43.468145" lon="11.3733217"><ele>383.0</ele><time>2026-04-20T13:37:10.031Z</time></trkpt><trkpt lat="43.4680417" lon="11.3732733"><ele>383.0</ele><time>2026-04-20T13:37:11.031Z</time></trkpt><trkpt lat="43.4679383" lon="11.37323"><ele>381.79999999999995</ele><time>2026-04-20T13:37:12.031Z</time></trkpt><trkpt lat="43.467835" lon="11.3731883"><ele>380.6</ele><time>2026-04-20T13:37:13.031Z</time></trkpt><trkpt lat="43.4677333" lon="11.3731567"><ele>379.4</ele><time>2026-04-20T13:37:14.031Z</time></trkpt><trkpt lat="43.4676383" lon="11.3731167"><ele>378.20000000000005</ele><time>2026-04-20T13:37:15.031Z</time></trkpt><trkpt lat="43.46755" lon="11.3730783"><ele>377.0</ele><time>2026-04-20T13:37:16.031Z</time></trkpt><trkpt lat="43.4674667" lon="11.3730583"><ele>377.0</ele><time>2026-04-20T13:37:17.03Z</time></trkpt><trkpt lat="43.467395" lon="11.3730567"><ele>377.0</ele><time>2026-04-20T13:37:18.031Z</time></trkpt><trkpt lat="43.4672917" lon="11.3730917"><ele>377.0</ele><time>2026-04-20T13:37:20.031Z</time></trkpt><trkpt lat="43.467245" lon="11.3731567"><ele>377.0</ele><time>2026-04-20T13:37:22.03Z</time></trkpt><trkpt lat="43.4673383" lon="11.373155"><ele>377.0</ele><time>2026-04-20T13:37:27.031Z</time></trkpt><trkpt lat="43.4674017" lon="11.3731017"><ele>377.0</ele><time>2026-04-20T13:37:28.031Z</time></trkpt><trkpt lat="43.46747" lon="11.3730717"><ele>377.0</ele><time>2026-04-20T13:37:29.03Z</time></trkpt><trkpt lat="43.4675433" lon="11.37307"><ele>377.0</ele><time>2026-04-20T13:37:30.031Z</time></trkpt><trkpt lat="43.4676217" lon="11.3730967"><ele>377.0</ele><time>2026-04-20T13:37:31.03Z</time></trkpt><trkpt lat="43.4676933" lon="11.3731333"><ele>377.0</ele><time>2026-04-20T13:37:32.031Z</time></trkpt><trkpt lat="43.467755" lon="11.3731633"><ele>377.0</ele><time>2026-04-20T13:37:33.03Z</time></trkpt><trkpt lat="43.4678583" lon="11.3731483"><ele>377.0</ele><time>2026-04-20T13:37:35.031Z</time></trkpt><trkpt lat="43.4679117" lon="11.3730417"><ele>376.83333333333337</ele><time>2026-04-20T13:37:37.031Z</time></trkpt><trkpt lat="43.4679083" lon="11.37295"><ele>376.6666666666667</ele><time>2026-04-20T13:37:38.031Z</time></trkpt><trkpt lat="43.4678933" lon="11.372835"><ele>376.5</ele><time>2026-04-20T13:37:39.03Z</time></trkpt><trkpt lat="43.4678683" lon="11.3727117"><ele>376.3333333333333</ele><time>2026-04-20T13:37:40.031Z</time></trkpt><trkpt lat="43.4678333" lon="11.3725867"><ele>376.16666666666663</ele><time>2026-04-20T13:37:41.03Z</time></trkpt><trkpt lat="43.46779" lon="11.372455"><ele>376.0</ele><time>2026-04-20T13:37:42.031Z</time></trkpt><trkpt lat="43.46774" lon="11.3723133"><ele>376.8</ele><time>2026-04-20T13:37:43.031Z</time></trkpt><trkpt lat="43.467685" lon="11.37217"><ele>377.6</ele><time>2026-04-20T13:37:44.031Z</time></trkpt><trkpt lat="43.46763" lon="11.3720367"><ele>378.4</ele><time>2026-04-20T13:37:45.031Z</time></trkpt><trkpt lat="43.4675733" lon="11.3719083"><ele>379.2</ele><time>2026-04-20T13:37:46.03Z</time></trkpt><trkpt lat="43.46751" lon="11.3717883"><ele>380.0</ele><time>2026-04-20T13:37:47.031Z</time></trkpt><trkpt lat="43.4674367" lon="11.3716783"><ele>380.0</ele><time>2026-04-20T13:37:48.031Z</time></trkpt><trkpt lat="43.4673583" lon="11.371585"><ele>380.0</ele><time>2026-04-20T13:37:49.03Z</time></trkpt><trkpt lat="43.4672717" lon="11.3715083"><ele>380.0</ele><time>2026-04-20T13:37:50.03Z</time></trkpt><trkpt lat="43.46718" lon="11.3714467"><ele>380.0</ele><time>2026-04-20T13:37:51.03Z</time></trkpt><trkpt lat="43.4670883" lon="11.3713867"><ele>380.0</ele><time>2026-04-20T13:37:52.03Z</time></trkpt><trkpt lat="43.4669967" lon="11.3713217"><ele>379.8</ele><time>2026-04-20T13:37:53.03Z</time></trkpt><trkpt lat="43.466905" lon="11.3712517"><ele>379.6</ele><time>2026-04-20T13:37:54.03Z</time></trkpt><trkpt lat="43.4668167" lon="11.37118"><ele>379.4</ele><time>2026-04-20T13:37:55.03Z</time></trkpt><trkpt lat="43.4667317" lon="11.371095"><ele>379.2</ele><time>2026-04-20T13:37:56.03Z</time></trkpt><trkpt lat="43.4666583" lon="11.370995"><ele>379.0</ele><time>2026-04-20T13:37:57.03Z</time></trkpt><trkpt lat="43.4665867" lon="11.37088"><ele>379.0</ele><time>2026-04-20T13:37:58.03Z</time></trkpt><trkpt lat="43.4665167" lon="11.3707617"><ele>379.0</ele><time>2026-04-20T13:37:59.03Z</time></trkpt><trkpt lat="43.466445" lon="11.3706433"><ele>379.0</ele><time>2026-04-20T13:38:00.03Z</time></trkpt><trkpt lat="43.4663733" lon="11.370525"><ele>379.0</ele><time>2026-04-20T13:38:01.029Z</time></trkpt><trkpt lat="43.4663083" lon="11.3704"><ele>379.0</ele><time>2026-04-20T13:38:02.029Z</time></trkpt><trkpt lat="43.46624" lon="11.370265"><ele>378.4</ele><time>2026-04-20T13:38:03.029Z</time></trkpt><trkpt lat="43.4661817" lon="11.3701333"><ele>377.79999999999995</ele><time>2026-04-20T13:38:04.03Z</time></trkpt><trkpt lat="43.4661267" lon="11.3699967"><ele>377.20000000000005</ele><time>2026-04-20T13:38:05.029Z</time></trkpt><trkpt lat="43.466075" lon="11.36986"><ele>376.6</ele><time>2026-04-20T13:38:06.03Z</time></trkpt><trkpt lat="43.4660333" lon="11.3697183"><ele>376.0</ele><time>2026-04-20T13:38:07.03Z</time></trkpt><trkpt lat="43.4659917" lon="11.3695767"><ele>375.5</ele><time>2026-04-20T13:38:08.029Z</time></trkpt><trkpt lat="43.4659467" lon="11.36943"><ele>375.0</ele><time>2026-04-20T13:38:09.029Z</time></trkpt><trkpt lat="43.4659083" lon="11.3692833"><ele>374.5</ele><time>2026-04-20T13:38:10.03Z</time></trkpt><trkpt lat="43.4658717" lon="11.36913"><ele>374.0</ele><time>2026-04-20T13:38:11.03Z</time></trkpt><trkpt lat="43.4658333" lon="11.368975"><ele>374.0</ele><time>2026-04-20T13:38:12.03Z</time></trkpt><trkpt lat="43.4657983" lon="11.3688183"><ele>374.0</ele><time>2026-04-20T13:38:13.03Z</time></trkpt><trkpt lat="43.46577" lon="11.3686683"><ele>374.0</ele><time>2026-04-20T13:38:14.03Z</time></trkpt><trkpt lat="43.465755" lon="11.368515"><ele>374.0</ele><time>2026-04-20T13:38:15.03Z</time></trkpt><trkpt lat="43.4657567" lon="11.368355"><ele>374.0</ele><time>2026-04-20T13:38:16.029Z</time></trkpt><trkpt lat="43.46577" lon="11.368195"><ele>374.0</ele><time>2026-04-20T13:38:17.03Z</time></trkpt><trkpt lat="43.465795" lon="11.3680383"><ele>374.0</ele><time>2026-04-20T13:38:18.03Z</time></trkpt><trkpt lat="43.4658267" lon="11.3678817"><ele>374.0</ele><time>2026-04-20T13:38:19.03Z</time></trkpt><trkpt lat="43.465855" lon="11.367725"><ele>373.25</ele><time>2026-04-20T13:38:20.03Z</time></trkpt><trkpt lat="43.4658883" lon="11.3675717"><ele>372.5</ele><time>2026-04-20T13:38:21.03Z</time></trkpt><trkpt lat="43.4659217" lon="11.3674117"><ele>371.75</ele><time>2026-04-20T13:38:22.03Z</time></trkpt><trkpt lat="43.4659533" lon="11.367255"><ele>371.0</ele><time>2026-04-20T13:38:23.03Z</time></trkpt><trkpt lat="43.4659867" lon="11.3670983"><ele>370.5</ele><time>2026-04-20T13:38:24.03Z</time></trkpt><trkpt lat="43.466025" lon="11.3669433"><ele>370.0</ele><time>2026-04-20T13:38:25.03Z</time></trkpt><trkpt lat="43.46606" lon="11.3667817"><ele>369.5</ele><time>2026-04-20T13:38:26.03Z</time></trkpt><trkpt lat="43.4660967" lon="11.3666233"><ele>369.0</ele><time>2026-04-20T13:38:27.03Z</time></trkpt><trkpt lat="43.4661283" lon="11.366465"><ele>368.75</ele><time>2026-04-20T13:38:28.03Z</time></trkpt><trkpt lat="43.46616" lon="11.3663083"><ele>368.5</ele><time>2026-04-20T13:38:29.03Z</time></trkpt><trkpt lat="43.46619" lon="11.3661533"><ele>368.25</ele><time>2026-04-20T13:38:30.03Z</time></trkpt><trkpt lat="43.4662233" lon="11.3660017"><ele>368.0</ele><time>2026-04-20T13:38:31.03Z</time></trkpt><trkpt lat="43.4662567" lon="11.36585"><ele>368.5</ele><time>2026-04-20T13:38:32.03Z</time></trkpt><trkpt lat="43.4662917" lon="11.3656967"><ele>369.0</ele><time>2026-04-20T13:38:33.03Z</time></trkpt><trkpt lat="43.4663283" lon="11.3655417"><ele>369.5</ele><time>2026-04-20T13:38:34.03Z</time></trkpt><trkpt lat="43.4663633" lon="11.3653817"><ele>370.0</ele><time>2026-04-20T13:38:35.03Z</time></trkpt><trkpt lat="43.4663967" lon="11.36522"><ele>370.0</ele><time>2026-04-20T13:38:36.03Z</time></trkpt><trkpt lat="43.46643" lon="11.3650617"><ele>370.0</ele><time>2026-04-20T13:38:37.03Z</time></trkpt><trkpt lat="43.466465" lon="11.3649033"><ele>370.0</ele><time>2026-04-20T13:38:38.03Z</time></trkpt><trkpt lat="43.4664967" lon="11.36475"><ele>370.0</ele><time>2026-04-20T13:38:39.03Z</time></trkpt><trkpt lat="43.4665283" lon="11.3645983"><ele>369.75</ele><time>2026-04-20T13:38:40.03Z</time></trkpt><trkpt lat="43.46656" lon="11.3644483"><ele>369.5</ele><time>2026-04-20T13:38:41.029Z</time></trkpt><trkpt lat="43.4665933" lon="11.3643017"><ele>369.25</ele><time>2026-04-20T13:38:42.03Z</time></trkpt><trkpt lat="43.46663" lon="11.3641533"><ele>369.0</ele><time>2026-04-20T13:38:43.029Z</time></trkpt><trkpt lat="43.4666683" lon="11.3640033"><ele>368.4</ele><time>2026-04-20T13:38:44.03Z</time></trkpt><trkpt lat="43.4667033" lon="11.3638567"><ele>367.79999999999995</ele><time>2026-04-20T13:38:45.03Z</time></trkpt><trkpt lat="43.466735" lon="11.3637167"><ele>367.20000000000005</ele><time>2026-04-20T13:38:46.03Z</time></trkpt><trkpt lat="43.4667683" lon="11.363585"><ele>366.6</ele><time>2026-04-20T13:38:47.03Z</time></trkpt><trkpt lat="43.4667983" lon="11.3634617"><ele>366.0</ele><time>2026-04-20T13:38:48.03Z</time></trkpt><trkpt lat="43.4668283" lon="11.3633383"><ele>366.0</ele><time>2026-04-20T13:38:49.029Z</time></trkpt><trkpt lat="43.4668517" lon="11.363215"><ele>366.0</ele><time>2026-04-20T13:38:50.03Z</time></trkpt><trkpt lat="43.4668617" lon="11.363095"><ele>366.0</ele><time>2026-04-20T13:38:51.03Z</time></trkpt><trkpt lat="43.4668583" lon="11.3629833"><ele>366.0</ele><time>2026-04-20T13:38:52.03Z</time></trkpt><trkpt lat="43.466835" lon="11.3628833"><ele>366.0</ele><time>2026-04-20T13:38:53.03Z</time></trkpt><trkpt lat="43.4667883" lon="11.3627917"><ele>366.0</ele><time>2026-04-20T13:38:54.029Z</time></trkpt><trkpt lat="43.4667283" lon="11.362705"><ele>366.6</ele><time>2026-04-20T13:38:55.029Z</time></trkpt><trkpt lat="43.4666617" lon="11.3626217"><ele>367.20000000000005</ele><time>2026-04-20T13:38:56.029Z</time></trkpt><trkpt lat="43.4665917" lon="11.362525"><ele>367.79999999999995</ele><time>2026-04-20T13:38:57.03Z</time></trkpt><trkpt lat="43.466525" lon="11.3624133"><ele>368.4</ele><time>2026-04-20T13:38:58.03Z</time></trkpt><trkpt lat="43.4664633" lon="11.36229"><ele>369.0</ele><time>2026-04-20T13:38:59.03Z</time></trkpt><trkpt lat="43.466405" lon="11.3621517"><ele>368.6</ele><time>2026-04-20T13:39:00.03Z</time></trkpt><trkpt lat="43.466355" lon="11.3620083"><ele>368.2</ele><time>2026-04-20T13:39:01.03Z</time></trkpt><trkpt lat="43.4663133" lon="11.3618667"><ele>367.8</ele><time>2026-04-20T13:39:02.029Z</time></trkpt><trkpt lat="43.4662767" lon="11.3617283"><ele>367.40000000000003</ele><time>2026-04-20T13:39:03.03Z</time></trkpt><trkpt lat="43.4662483" lon="11.361585"><ele>367.0</ele><time>2026-04-20T13:39:04.03Z</time></trkpt><trkpt lat="43.46622" lon="11.361445"><ele>367.6</ele><time>2026-04-20T13:39:05.03Z</time></trkpt><trkpt lat="43.4661833" lon="11.36132"><ele>368.20000000000005</ele><time>2026-04-20T13:39:06.03Z</time></trkpt><trkpt lat="43.466135" lon="11.36121"><ele>368.8</ele><time>2026-04-20T13:39:07.03Z</time></trkpt><trkpt lat="43.466075" lon="11.3611167"><ele>369.4</ele><time>2026-04-20T13:39:08.03Z</time></trkpt><trkpt lat="43.466005" lon="11.36104"><ele>370.0</ele><time>2026-04-20T13:39:09.03Z</time></trkpt><trkpt lat="43.4659233" lon="11.3609717"><ele>370.0</ele><time>2026-04-20T13:39:10.029Z</time></trkpt><trkpt lat="43.465835" lon="11.3609017"><ele>370.0</ele><time>2026-04-20T13:39:11.03Z</time></trkpt><trkpt lat="43.4657517" lon="11.36082"><ele>370.0</ele><time>2026-04-20T13:39:12.03Z</time></trkpt><trkpt lat="43.46567" lon="11.3607333"><ele>370.0</ele><time>2026-04-20T13:39:13.029Z</time></trkpt><trkpt lat="43.465605" lon="11.36063"><ele>370.0</ele><time>2026-04-20T13:39:14.03Z</time></trkpt><trkpt lat="43.46555" lon="11.3605067"><ele>370.5</ele><time>2026-04-20T13:39:15.03Z</time></trkpt><trkpt lat="43.465485" lon="11.360375"><ele>371.0</ele><time>2026-04-20T13:39:16.029Z</time></trkpt><trkpt lat="43.4654133" lon="11.36024"><ele>371.5</ele><time>2026-04-20T13:39:17.03Z</time></trkpt><trkpt lat="43.4653317" lon="11.3601217"><ele>372.0</ele><time>2026-04-20T13:39:18.03Z</time></trkpt><trkpt lat="43.4652583" lon="11.3600233"><ele>370.6</ele><time>2026-04-20T13:39:19.03Z</time></trkpt><trkpt lat="43.46519" lon="11.3599233"><ele>369.20000000000005</ele><time>2026-04-20T13:39:20.03Z</time></trkpt><trkpt lat="43.4651317" lon="11.3598133"><ele>367.8</ele><time>2026-04-20T13:39:21.03Z</time></trkpt><trkpt lat="43.4650817" lon="11.3596933"><ele>366.4</ele><time>2026-04-20T13:39:22.03Z</time></trkpt><trkpt lat="43.4650333" lon="11.359565"><ele>365.0</ele><time>2026-04-20T13:39:23.03Z</time></trkpt><trkpt lat="43.4649967" lon="11.359435"><ele>365.0</ele><time>2026-04-20T13:39:24.03Z</time></trkpt><trkpt lat="43.46497" lon="11.3593017"><ele>365.0</ele><time>2026-04-20T13:39:25.029Z</time></trkpt><trkpt lat="43.4649517" lon="11.3591617"><ele>365.0</ele><time>2026-04-20T13:39:26.03Z</time></trkpt><trkpt lat="43.4649333" lon="11.359015"><ele>365.0</ele><time>2026-04-20T13:39:27.03Z</time></trkpt><trkpt lat="43.4649117" lon="11.358865"><ele>365.0</ele><time>2026-04-20T13:39:28.03Z</time></trkpt><trkpt lat="43.46489" lon="11.3587167"><ele>365.8</ele><time>2026-04-20T13:39:29.03Z</time></trkpt><trkpt lat="43.4648583" lon="11.358565"><ele>366.6</ele><time>2026-04-20T13:39:30.029Z</time></trkpt><trkpt lat="43.46482" lon="11.3584233"><ele>367.4</ele><time>2026-04-20T13:39:31.03Z</time></trkpt><trkpt lat="43.4647767" lon="11.3582833"><ele>368.2</ele><time>2026-04-20T13:39:32.03Z</time></trkpt><trkpt lat="43.4647333" lon="11.3581467"><ele>369.0</ele><time>2026-04-20T13:39:33.029Z</time></trkpt><trkpt lat="43.4646833" lon="11.35801"><ele>368.0</ele><time>2026-04-20T13:39:34.029Z</time></trkpt><trkpt lat="43.4646283" lon="11.3578817"><ele>367.0</ele><time>2026-04-20T13:39:35.029Z</time></trkpt><trkpt lat="43.4645717" lon="11.35777"><ele>366.0</ele><time>2026-04-20T13:39:36.03Z</time></trkpt><trkpt lat="43.464515" lon="11.3576517"><ele>365.0</ele><time>2026-04-20T13:39:37.03Z</time></trkpt><trkpt lat="43.464445" lon="11.3575517"><ele>364.0</ele><time>2026-04-20T13:39:38.03Z</time></trkpt><trkpt lat="43.4643583" lon="11.3574617"><ele>364.0</ele><time>2026-04-20T13:39:39.03Z</time></trkpt><trkpt lat="43.4642683" lon="11.3574"><ele>364.0</ele><time>2026-04-20T13:39:40.03Z</time></trkpt><trkpt lat="43.4641817" lon="11.3573283"><ele>364.0</ele><time>2026-04-20T13:39:41.029Z</time></trkpt><trkpt lat="43.4640817" lon="11.3572533"><ele>364.0</ele><time>2026-04-20T13:39:42.03Z</time></trkpt><trkpt lat="43.4639833" lon="11.3571917"><ele>364.0</ele><time>2026-04-20T13:39:43.03Z</time></trkpt><trkpt lat="43.4638933" lon="11.3571567"><ele>364.79999999999995</ele><time>2026-04-20T13:39:44.03Z</time></trkpt><trkpt lat="43.4638067" lon="11.35713"><ele>365.59999999999997</ele><time>2026-04-20T13:39:45.03Z</time></trkpt><trkpt lat="43.46372" lon="11.3571"><ele>366.4</ele><time>2026-04-20T13:39:46.03Z</time></trkpt><trkpt lat="43.463635" lon="11.3570767"><ele>367.2</ele><time>2026-04-20T13:39:47.03Z</time></trkpt><trkpt lat="43.4635383" lon="11.3570567"><ele>368.0</ele><time>2026-04-20T13:39:48.029Z</time></trkpt><trkpt lat="43.463445" lon="11.3570383"><ele>368.0</ele><time>2026-04-20T13:39:49.03Z</time></trkpt><trkpt lat="43.463345" lon="11.3570217"><ele>368.0</ele><time>2026-04-20T13:39:50.03Z</time></trkpt><trkpt lat="43.4632433" lon="11.3570167"><ele>368.0</ele><time>2026-04-20T13:39:51.03Z</time></trkpt><trkpt lat="43.46315" lon="11.356995"><ele>368.0</ele><time>2026-04-20T13:39:52.029Z</time></trkpt><trkpt lat="43.4630617" lon="11.35697"><ele>368.0</ele><time>2026-04-20T13:39:53.03Z</time></trkpt><trkpt lat="43.4629767" lon="11.356915"><ele>365.4</ele><time>2026-04-20T13:39:54.029Z</time></trkpt><trkpt lat="43.4628933" lon="11.35683"><ele>362.79999999999995</ele><time>2026-04-20T13:39:55.03Z</time></trkpt><trkpt lat="43.462805" lon="11.3567317"><ele>360.2</ele><time>2026-04-20T13:39:56.03Z</time></trkpt><trkpt lat="43.4627167" lon="11.3566317"><ele>357.6</ele><time>2026-04-20T13:39:57.03Z</time></trkpt><trkpt lat="43.462625" lon="11.3565483"><ele>355.0</ele><time>2026-04-20T13:39:58.03Z</time></trkpt><trkpt lat="43.46253" lon="11.356465"><ele>357.25</ele><time>2026-04-20T13:39:59.03Z</time></trkpt><trkpt lat="43.4624417" lon="11.3563667"><ele>359.5</ele><time>2026-04-20T13:40:00.029Z</time></trkpt><trkpt lat="43.4623483" lon="11.356275"><ele>361.75</ele><time>2026-04-20T13:40:01.03Z</time></trkpt><trkpt lat="43.4622483" lon="11.3561817"><ele>364.0</ele><time>2026-04-20T13:40:02.03Z</time></trkpt><trkpt lat="43.4621483" lon="11.35608"><ele>362.0</ele><time>2026-04-20T13:40:03.03Z</time></trkpt><trkpt lat="43.4620517" lon="11.3559783"><ele>360.0</ele><time>2026-04-20T13:40:04.029Z</time></trkpt><trkpt lat="43.4619533" lon="11.355885"><ele>358.0</ele><time>2026-04-20T13:40:05.03Z</time></trkpt><trkpt lat="43.4618517" lon="11.355805"><ele>356.0</ele><time>2026-04-20T13:40:06.03Z</time></trkpt><trkpt lat="43.4617467" lon="11.3557283"><ele>356.0</ele><time>2026-04-20T13:40:07.03Z</time></trkpt><trkpt lat="43.4616433" lon="11.3556517"><ele>356.0</ele><time>2026-04-20T13:40:08.03Z</time></trkpt><trkpt lat="43.46155" lon="11.3555817"><ele>356.0</ele><time>2026-04-20T13:40:09.03Z</time></trkpt><trkpt lat="43.4614617" lon="11.3555367"><ele>356.0</ele><time>2026-04-20T13:40:10.03Z</time></trkpt><trkpt lat="43.46137" lon="11.35551"><ele>356.0</ele><time>2026-04-20T13:40:11.03Z</time></trkpt><trkpt lat="43.4612717" lon="11.3555017"><ele>355.6</ele><time>2026-04-20T13:40:12.03Z</time></trkpt><trkpt lat="43.4611633" lon="11.355515"><ele>355.20000000000005</ele><time>2026-04-20T13:40:13.03Z</time></trkpt><trkpt lat="43.461055" lon="11.3555367"><ele>354.79999999999995</ele><time>2026-04-20T13:40:14.029Z</time></trkpt><trkpt lat="43.4609467" lon="11.35555"><ele>354.4</ele><time>2026-04-20T13:40:15.03Z</time></trkpt><trkpt lat="43.46084" lon="11.3555783"><ele>354.0</ele><time>2026-04-20T13:40:16.03Z</time></trkpt><trkpt lat="43.46073" lon="11.355595"><ele>354.0</ele><time>2026-04-20T13:40:17.03Z</time></trkpt><trkpt lat="43.4606183" lon="11.3555833"><ele>354.0</ele><time>2026-04-20T13:40:18.03Z</time></trkpt><trkpt lat="43.4605017" lon="11.355555"><ele>354.0</ele><time>2026-04-20T13:40:19.029Z</time></trkpt><trkpt lat="43.4603867" lon="11.3555217"><ele>354.0</ele><time>2026-04-20T13:40:20.03Z</time></trkpt><trkpt lat="43.460275" lon="11.35549"><ele>353.4</ele><time>2026-04-20T13:40:21.03Z</time></trkpt><trkpt lat="43.4601717" lon="11.355475"><ele>352.79999999999995</ele><time>2026-04-20T13:40:22.029Z</time></trkpt><trkpt lat="43.4600683" lon="11.355485"><ele>352.20000000000005</ele><time>2026-04-20T13:40:23.03Z</time></trkpt><trkpt lat="43.4599667" lon="11.3555117"><ele>351.6</ele><time>2026-04-20T13:40:24.03Z</time></trkpt><trkpt lat="43.4598717" lon="11.3555483"><ele>351.0</ele><time>2026-04-20T13:40:25.03Z</time></trkpt><trkpt lat="43.4597817" lon="11.355565"><ele>351.0</ele><time>2026-04-20T13:40:26.03Z</time></trkpt><trkpt lat="43.459685" lon="11.3555583"><ele>351.0</ele><time>2026-04-20T13:40:27.03Z</time></trkpt><trkpt lat="43.4595817" lon="11.3555433"><ele>351.0</ele><time>2026-04-20T13:40:28.03Z</time></trkpt><trkpt lat="43.45947" lon="11.3555217"><ele>351.0</ele><time>2026-04-20T13:40:29.03Z</time></trkpt><trkpt lat="43.4593583" lon="11.3554983"><ele>351.0</ele><time>2026-04-20T13:40:30.029Z</time></trkpt><trkpt lat="43.4592467" lon="11.3554733"><ele>350.8</ele><time>2026-04-20T13:40:31.03Z</time></trkpt><trkpt lat="43.4591417" lon="11.35545"><ele>350.6</ele><time>2026-04-20T13:40:32.029Z</time></trkpt><trkpt lat="43.4590433" lon="11.35542"><ele>350.4</ele><time>2026-04-20T13:40:33.03Z</time></trkpt><trkpt lat="43.4589483" lon="11.35539"><ele>350.2</ele><time>2026-04-20T13:40:34.029Z</time></trkpt><trkpt lat="43.45885" lon="11.35535"><ele>350.0</ele><time>2026-04-20T13:40:35.03Z</time></trkpt><trkpt lat="43.4587467" lon="11.355295"><ele>350.0</ele><time>2026-04-20T13:40:36.03Z</time></trkpt><trkpt lat="43.4586433" lon="11.355225"><ele>350.0</ele><time>2026-04-20T13:40:37.03Z</time></trkpt><trkpt lat="43.45854" lon="11.355145"><ele>350.0</ele><time>2026-04-20T13:40:38.029Z</time></trkpt><trkpt lat="43.4584433" lon="11.35506"><ele>350.0</ele><time>2026-04-20T13:40:39.03Z</time></trkpt><trkpt lat="43.458345" lon="11.3549767"><ele>350.0</ele><time>2026-04-20T13:40:40.03Z</time></trkpt><trkpt lat="43.4582533" lon="11.3548933"><ele>350.0</ele><time>2026-04-20T13:40:41.03Z</time></trkpt><trkpt lat="43.458165" lon="11.3548183"><ele>350.0</ele><time>2026-04-20T13:40:42.03Z</time></trkpt><trkpt lat="43.45808" lon="11.354765"><ele>350.0</ele><time>2026-04-20T13:40:43.03Z</time></trkpt><trkpt lat="43.4579883" lon="11.3547333"><ele>350.0</ele><time>2026-04-20T13:40:44.03Z</time></trkpt><trkpt lat="43.457895" lon="11.3546933"><ele>351.0</ele><time>2026-04-20T13:40:45.029Z</time></trkpt><trkpt lat="43.4577933" lon="11.3546567"><ele>352.0</ele><time>2026-04-20T13:40:46.03Z</time></trkpt><trkpt lat="43.4576983" lon="11.3546233"><ele>353.0</ele><time>2026-04-20T13:40:47.029Z</time></trkpt><trkpt lat="43.457605" lon="11.3545967"><ele>354.0</ele><time>2026-04-20T13:40:48.029Z</time></trkpt><trkpt lat="43.4575067" lon="11.354555"><ele>355.0</ele><time>2026-04-20T13:40:49.03Z</time></trkpt><trkpt lat="43.4574067" lon="11.35451"><ele>355.0</ele><time>2026-04-20T13:40:50.03Z</time></trkpt><trkpt lat="43.457315" lon="11.3544583"><ele>355.0</ele><time>2026-04-20T13:40:51.03Z</time></trkpt><trkpt lat="43.4572233" lon="11.3544117"><ele>355.0</ele><time>2026-04-20T13:40:52.029Z</time></trkpt><trkpt lat="43.457135" lon="11.3543733"><ele>355.0</ele><time>2026-04-20T13:40:53.03Z</time></trkpt><trkpt lat="43.4570517" lon="11.35434"><ele>355.0</ele><time>2026-04-20T13:40:54.03Z</time></trkpt><trkpt lat="43.4569667" lon="11.35431"><ele>353.2</ele><time>2026-04-20T13:40:55.03Z</time></trkpt><trkpt lat="43.4568767" lon="11.3542833"><ele>351.4</ele><time>2026-04-20T13:40:56.03Z</time></trkpt><trkpt lat="43.456785" lon="11.35426"><ele>349.6</ele><time>2026-04-20T13:40:57.029Z</time></trkpt><trkpt lat="43.45669" lon="11.35424"><ele>347.8</ele><time>2026-04-20T13:40:58.03Z</time></trkpt><trkpt lat="43.4565933" lon="11.3542183"><ele>346.0</ele><time>2026-04-20T13:40:59.029Z</time></trkpt><trkpt lat="43.4565" lon="11.354195"><ele>346.0</ele><time>2026-04-20T13:41:00.03Z</time></trkpt><trkpt lat="43.4564083" lon="11.3541783"><ele>346.0</ele><time>2026-04-20T13:41:01.03Z</time></trkpt><trkpt lat="43.4563067" lon="11.3541667"><ele>346.0</ele><time>2026-04-20T13:41:02.029Z</time></trkpt><trkpt lat="43.456205" lon="11.354155"><ele>346.0</ele><time>2026-04-20T13:41:03.03Z</time></trkpt><trkpt lat="43.45611" lon="11.3541333"><ele>346.0</ele><time>2026-04-20T13:41:04.03Z</time></trkpt><trkpt lat="43.4560067" lon="11.3541067"><ele>345.75</ele><time>2026-04-20T13:41:05.029Z</time></trkpt><trkpt lat="43.4559" lon="11.3540583"><ele>345.5</ele><time>2026-04-20T13:41:06.03Z</time></trkpt><trkpt lat="43.4557767" lon="11.354015"><ele>345.25</ele><time>2026-04-20T13:41:07.03Z</time></trkpt><trkpt lat="43.4556633" lon="11.3539667"><ele>345.0</ele><time>2026-04-20T13:41:08.03Z</time></trkpt><trkpt lat="43.455555" lon="11.3539333"><ele>344.6</ele><time>2026-04-20T13:41:09.03Z</time></trkpt><trkpt lat="43.45545" lon="11.3539133"><ele>344.2</ele><time>2026-04-20T13:41:10.03Z</time></trkpt><trkpt lat="43.4553533" lon="11.3539067"><ele>343.79999999999995</ele><time>2026-04-20T13:41:11.03Z</time></trkpt><trkpt lat="43.4552683" lon="11.353925"><ele>343.4</ele><time>2026-04-20T13:41:12.03Z</time></trkpt><trkpt lat="43.4551833" lon="11.35395"><ele>343.0</ele><time>2026-04-20T13:41:13.029Z</time></trkpt><trkpt lat="43.4551067" lon="11.353985"><ele>343.0</ele><time>2026-04-20T13:41:14.029Z</time></trkpt><trkpt lat="43.4550233" lon="11.3540183"><ele>343.0</ele><time>2026-04-20T13:41:15.03Z</time></trkpt><trkpt lat="43.4549417" lon="11.3540483"><ele>343.0</ele><time>2026-04-20T13:41:16.03Z</time></trkpt><trkpt lat="43.4548633" lon="11.354075"><ele>343.0</ele><time>2026-04-20T13:41:17.03Z</time></trkpt><trkpt lat="43.4547833" lon="11.3541167"><ele>343.0</ele><time>2026-04-20T13:41:18.03Z</time></trkpt><trkpt lat="43.4547083" lon="11.354165"><ele>343.0</ele><time>2026-04-20T13:41:19.03Z</time></trkpt><trkpt lat="43.4546317" lon="11.35422"><ele>341.8333333333333</ele><time>2026-04-20T13:41:20.029Z</time></trkpt><trkpt lat="43.454555" lon="11.3542767"><ele>340.66666666666663</ele><time>2026-04-20T13:41:21.03Z</time></trkpt><trkpt lat="43.45448" lon="11.3543267"><ele>339.5</ele><time>2026-04-20T13:41:22.03Z</time></trkpt><trkpt lat="43.454405" lon="11.3543633"><ele>338.3333333333333</ele><time>2026-04-20T13:41:23.03Z</time></trkpt><trkpt lat="43.45433" lon="11.354395"><ele>337.1666666666667</ele><time>2026-04-20T13:41:24.029Z</time></trkpt><trkpt lat="43.454255" lon="11.354395"><ele>336.0</ele><time>2026-04-20T13:41:25.03Z</time></trkpt><trkpt lat="43.4541867" lon="11.3543833"><ele>336.0</ele><time>2026-04-20T13:41:26.03Z</time></trkpt><trkpt lat="43.454085" lon="11.3543233"><ele>336.0</ele><time>2026-04-20T13:41:28.03Z</time></trkpt><trkpt lat="43.4539867" lon="11.3542867"><ele>336.0</ele><time>2026-04-20T13:41:30.03Z</time></trkpt><trkpt lat="43.4538783" lon="11.3543067"><ele>336.0</ele><time>2026-04-20T13:41:32.03Z</time></trkpt><trkpt lat="43.453815" lon="11.354335"><ele>336.0</ele><time>2026-04-20T13:41:33.03Z</time></trkpt><trkpt lat="43.4537483" lon="11.3543717"><ele>337.3333333333333</ele><time>2026-04-20T13:41:34.03Z</time></trkpt><trkpt lat="43.4536817" lon="11.3544083"><ele>338.6666666666667</ele><time>2026-04-20T13:41:35.03Z</time></trkpt><trkpt lat="43.4536167" lon="11.3544417"><ele>340.0</ele><time>2026-04-20T13:41:36.03Z</time></trkpt><trkpt lat="43.453545" lon="11.35447"><ele>341.33333333333337</ele><time>2026-04-20T13:41:37.03Z</time></trkpt><trkpt lat="43.4534517" lon="11.3545117"><ele>342.6666666666667</ele><time>2026-04-20T13:41:38.029Z</time></trkpt><trkpt lat="43.4533483" lon="11.35456"><ele>344.0</ele><time>2026-04-20T13:41:39.03Z</time></trkpt><trkpt lat="43.453255" lon="11.354605"><ele>344.0</ele><time>2026-04-20T13:41:40.03Z</time></trkpt><trkpt lat="43.45316" lon="11.3546483"><ele>344.0</ele><time>2026-04-20T13:41:41.03Z</time></trkpt><trkpt lat="43.4530633" lon="11.3547067"><ele>344.0</ele><time>2026-04-20T13:41:42.03Z</time></trkpt><trkpt lat="43.4529683" lon="11.3547633"><ele>344.0</ele><time>2026-04-20T13:41:43.03Z</time></trkpt><trkpt lat="43.4528733" lon="11.35482"><ele>344.0</ele><time>2026-04-20T13:41:44.03Z</time></trkpt><trkpt lat="43.452775" lon="11.3548767"><ele>343.6</ele><time>2026-04-20T13:41:45.03Z</time></trkpt><trkpt lat="43.4526833" lon="11.354935"><ele>343.2</ele><time>2026-04-20T13:41:46.03Z</time></trkpt><trkpt lat="43.4525983" lon="11.3549867"><ele>342.8</ele><time>2026-04-20T13:41:47.03Z</time></trkpt><trkpt lat="43.4525033" lon="11.3550383"><ele>342.40000000000003</ele><time>2026-04-20T13:41:48.03Z</time></trkpt><trkpt lat="43.45241" lon="11.35508"><ele>342.0</ele><time>2026-04-20T13:41:49.03Z</time></trkpt><trkpt lat="43.4523167" lon="11.35512"><ele>342.0</ele><time>2026-04-20T13:41:50.029Z</time></trkpt><trkpt lat="43.452215" lon="11.355165"><ele>342.0</ele><time>2026-04-20T13:41:51.03Z</time></trkpt><trkpt lat="43.4521167" lon="11.3552017"><ele>342.0</ele><time>2026-04-20T13:41:52.03Z</time></trkpt><trkpt lat="43.4520183" lon="11.3552267"><ele>342.0</ele><time>2026-04-20T13:41:53.03Z</time></trkpt><trkpt lat="43.451925" lon="11.3552417"><ele>342.0</ele><time>2026-04-20T13:41:54.03Z</time></trkpt><trkpt lat="43.45183" lon="11.3552517"><ele>343.40000000000003</ele><time>2026-04-20T13:41:55.03Z</time></trkpt><trkpt lat="43.451735" lon="11.3552683"><ele>344.8</ele><time>2026-04-20T13:41:56.03Z</time></trkpt><trkpt lat="43.4516417" lon="11.35529"><ele>346.2</ele><time>2026-04-20T13:41:57.03Z</time></trkpt><trkpt lat="43.4515583" lon="11.3553367"><ele>347.6</ele><time>2026-04-20T13:41:58.03Z</time></trkpt><trkpt lat="43.45148" lon="11.3553933"><ele>349.0</ele><time>2026-04-20T13:41:59.03Z</time></trkpt><trkpt lat="43.4514067" lon="11.3554617"><ele>349.0</ele><time>2026-04-20T13:42:00.03Z</time></trkpt><trkpt lat="43.45133" lon="11.3555217"><ele>349.0</ele><time>2026-04-20T13:42:01.03Z</time></trkpt><trkpt lat="43.4512517" lon="11.3555767"><ele>349.0</ele><time>2026-04-20T13:42:02.03Z</time></trkpt><trkpt lat="43.45117" lon="11.35563"><ele>349.0</ele><time>2026-04-20T13:42:03.03Z</time></trkpt><trkpt lat="43.4510867" lon="11.3556917"><ele>349.0</ele><time>2026-04-20T13:42:04.03Z</time></trkpt><trkpt lat="43.45101" lon="11.3557717"><ele>348.66666666666663</ele><time>2026-04-20T13:42:05.03Z</time></trkpt><trkpt lat="43.45094" lon="11.35586"><ele>348.3333333333333</ele><time>2026-04-20T13:42:06.03Z</time></trkpt><trkpt lat="43.4508817" lon="11.3559417"><ele>348.0</ele><time>2026-04-20T13:42:07.03Z</time></trkpt><trkpt lat="43.450825" lon="11.3560083"><ele>347.6666666666667</ele><time>2026-04-20T13:42:08.029Z</time></trkpt><trkpt lat="43.4507683" lon="11.3560733"><ele>347.33333333333337</ele><time>2026-04-20T13:42:09.03Z</time></trkpt><trkpt lat="43.4507133" lon="11.3561283"><ele>347.0</ele><time>2026-04-20T13:42:10.03Z</time></trkpt><trkpt lat="43.450665" lon="11.3561867"><ele>347.0</ele><time>2026-04-20T13:42:11.03Z</time></trkpt><trkpt lat="43.45061" lon="11.3562467"><ele>347.0</ele><time>2026-04-20T13:42:12.03Z</time></trkpt><trkpt lat="43.45055" lon="11.35631"><ele>347.0</ele><time>2026-04-20T13:42:13.03Z</time></trkpt><trkpt lat="43.4504833" lon="11.356375"><ele>347.0</ele><time>2026-04-20T13:42:14.029Z</time></trkpt><trkpt lat="43.45041" lon="11.3564433"><ele>347.0</ele><time>2026-04-20T13:42:15.03Z</time></trkpt><trkpt lat="43.4503367" lon="11.35651"><ele>347.0</ele><time>2026-04-20T13:42:16.03Z</time></trkpt><trkpt lat="43.45026" lon="11.3565783"><ele>345.6</ele><time>2026-04-20T13:42:17.03Z</time></trkpt><trkpt lat="43.45018" lon="11.35664"><ele>344.20000000000005</ele><time>2026-04-20T13:42:18.029Z</time></trkpt><trkpt lat="43.4501033" lon="11.356695"><ele>342.8</ele><time>2026-04-20T13:42:19.029Z</time></trkpt><trkpt lat="43.450025" lon="11.35673"><ele>341.4</ele><time>2026-04-20T13:42:20.03Z</time></trkpt><trkpt lat="43.4499317" lon="11.3567483"><ele>340.0</ele><time>2026-04-20T13:42:21.03Z</time></trkpt><trkpt lat="43.449835" lon="11.3567483"><ele>340.0</ele><time>2026-04-20T13:42:22.03Z</time></trkpt><trkpt lat="43.4497383" lon="11.3567367"><ele>340.0</ele><time>2026-04-20T13:42:23.03Z</time></trkpt><trkpt lat="43.4496383" lon="11.3567217"><ele>340.0</ele><time>2026-04-20T13:42:24.03Z</time></trkpt><trkpt lat="43.44954" lon="11.3567117"><ele>340.0</ele><time>2026-04-20T13:42:25.03Z</time></trkpt><trkpt lat="43.449445" lon="11.3566967"><ele>340.0</ele><time>2026-04-20T13:42:26.03Z</time></trkpt><trkpt lat="43.4493533" lon="11.35667"><ele>338.4</ele><time>2026-04-20T13:42:27.03Z</time></trkpt><trkpt lat="43.4492683" lon="11.3566217"><ele>336.8</ele><time>2026-04-20T13:42:28.029Z</time></trkpt><trkpt lat="43.4491833" lon="11.3565567"><ele>335.20000000000005</ele><time>2026-04-20T13:42:29.03Z</time></trkpt><trkpt lat="43.4490983" lon="11.3564767"><ele>333.6</ele><time>2026-04-20T13:42:30.03Z</time></trkpt><trkpt lat="43.44901" lon="11.356395"><ele>332.0</ele><time>2026-04-20T13:42:31.029Z</time></trkpt><trkpt lat="43.4489217" lon="11.35632"><ele>332.8</ele><time>2026-04-20T13:42:32.03Z</time></trkpt><trkpt lat="43.4488333" lon="11.356255"><ele>333.6</ele><time>2026-04-20T13:42:33.03Z</time></trkpt><trkpt lat="43.4487433" lon="11.356195"><ele>334.40000000000003</ele><time>2026-04-20T13:42:34.03Z</time></trkpt><trkpt lat="43.4486533" lon="11.3561317"><ele>335.20000000000005</ele><time>2026-04-20T13:42:35.03Z</time></trkpt><trkpt lat="43.44856" lon="11.3560683"><ele>336.0</ele><time>2026-04-20T13:42:36.03Z</time></trkpt><trkpt lat="43.448465" lon="11.3560117"><ele>336.0</ele><time>2026-04-20T13:42:37.03Z</time></trkpt><trkpt lat="43.448375" lon="11.35596"><ele>336.0</ele><time>2026-04-20T13:42:38.03Z</time></trkpt><trkpt lat="43.4482867" lon="11.35591"><ele>336.0</ele><time>2026-04-20T13:42:39.03Z</time></trkpt><trkpt lat="43.4481933" lon="11.355865"><ele>336.0</ele><time>2026-04-20T13:42:40.03Z</time></trkpt><trkpt lat="43.4481017" lon="11.3558183"><ele>336.0</ele><time>2026-04-20T13:42:41.03Z</time></trkpt><trkpt lat="43.44801" lon="11.3557717"><ele>335.0</ele><time>2026-04-20T13:42:42.029Z</time></trkpt><trkpt lat="43.44792" lon="11.3557217"><ele>334.0</ele><time>2026-04-20T13:42:43.03Z</time></trkpt><trkpt lat="43.4478283" lon="11.35566"><ele>333.0</ele><time>2026-04-20T13:42:44.03Z</time></trkpt><trkpt lat="43.4477417" lon="11.3556033"><ele>332.0</ele><time>2026-04-20T13:42:45.03Z</time></trkpt><trkpt lat="43.4476483" lon="11.3555533"><ele>331.0</ele><time>2026-04-20T13:42:46.03Z</time></trkpt><trkpt lat="43.447555" lon="11.3555067"><ele>332.0</ele><time>2026-04-20T13:42:47.03Z</time></trkpt><trkpt lat="43.4474617" lon="11.3554667"><ele>333.0</ele><time>2026-04-20T13:42:48.03Z</time></trkpt><trkpt lat="43.447365" lon="11.35544"><ele>334.0</ele><time>2026-04-20T13:42:49.029Z</time></trkpt><trkpt lat="43.4472767" lon="11.3554167"><ele>335.0</ele><time>2026-04-20T13:42:50.029Z</time></trkpt><trkpt lat="43.4471967" lon="11.3554"><ele>336.0</ele><time>2026-04-20T13:42:51.03Z</time></trkpt><trkpt lat="43.4471317" lon="11.3553867"><ele>337.0</ele><time>2026-04-20T13:42:52.03Z</time></trkpt><trkpt lat="43.4470083" lon="11.3553583"><ele>337.0</ele><time>2026-04-20T13:42:54.029Z</time></trkpt><trkpt lat="43.446895" lon="11.355345"><ele>337.0</ele><time>2026-04-20T13:42:56.03Z</time></trkpt><trkpt lat="43.4467817" lon="11.35533"><ele>337.0</ele><time>2026-04-20T13:42:58.03Z</time></trkpt><trkpt lat="43.4467133" lon="11.3553167"><ele>337.0</ele><time>2026-04-20T13:42:59.029Z</time></trkpt><trkpt lat="43.4466383" lon="11.3553"><ele>337.0</ele><time>2026-04-20T13:43:00.028Z</time></trkpt><trkpt lat="43.446555" lon="11.3552783"><ele>337.0</ele><time>2026-04-20T13:43:01.029Z</time></trkpt><trkpt lat="43.44647" lon="11.355255"><ele>337.0</ele><time>2026-04-20T13:43:02.029Z</time></trkpt><trkpt lat="43.4463783" lon="11.3552433"><ele>337.0</ele><time>2026-04-20T13:43:03.029Z</time></trkpt><trkpt lat="43.4462817" lon="11.3552283"><ele>337.0</ele><time>2026-04-20T13:43:04.029Z</time></trkpt><trkpt lat="43.4461833" lon="11.355215"><ele>337.0</ele><time>2026-04-20T13:43:05.028Z</time></trkpt><trkpt lat="43.4460833" lon="11.3552017"><ele>336.0</ele><time>2026-04-20T13:43:06.029Z</time></trkpt><trkpt lat="43.4459867" lon="11.3551983"><ele>335.0</ele><time>2026-04-20T13:43:07.028Z</time></trkpt><trkpt lat="43.44589" lon="11.3551967"><ele>334.0</ele><time>2026-04-20T13:43:08.029Z</time></trkpt><trkpt lat="43.4458" lon="11.355185"><ele>333.0</ele><time>2026-04-20T13:43:09.029Z</time></trkpt><trkpt lat="43.4457117" lon="11.355165"><ele>332.0</ele><time>2026-04-20T13:43:10.029Z</time></trkpt><trkpt lat="43.4456267" lon="11.3551367"><ele>332.0</ele><time>2026-04-20T13:43:11.029Z</time></trkpt><trkpt lat="43.4455417" lon="11.35509"><ele>332.0</ele><time>2026-04-20T13:43:12.029Z</time></trkpt><trkpt lat="43.4454533" lon="11.3550317"><ele>332.0</ele><time>2026-04-20T13:43:13.028Z</time></trkpt><trkpt lat="43.4453683" lon="11.3549633"><ele>332.0</ele><time>2026-04-20T13:43:14.028Z</time></trkpt><trkpt lat="43.4452917" lon="11.3548967"><ele>332.0</ele><time>2026-04-20T13:43:15.029Z</time></trkpt><trkpt lat="43.4452117" lon="11.35482"><ele>331.20000000000005</ele><time>2026-04-20T13:43:16.029Z</time></trkpt><trkpt lat="43.4451417" lon="11.3547333"><ele>330.4</ele><time>2026-04-20T13:43:17.029Z</time></trkpt><trkpt lat="43.4450817" lon="11.3546333"><ele>329.6</ele><time>2026-04-20T13:43:18.029Z</time></trkpt><trkpt lat="43.44503" lon="11.35452"><ele>328.79999999999995</ele><time>2026-04-20T13:43:19.028Z</time></trkpt><trkpt lat="43.44499" lon="11.3543967"><ele>328.0</ele><time>2026-04-20T13:43:20.029Z</time></trkpt><trkpt lat="43.4449617" lon="11.3542633"><ele>328.0</ele><time>2026-04-20T13:43:21.029Z</time></trkpt><trkpt lat="43.4449433" lon="11.3541367"><ele>328.0</ele><time>2026-04-20T13:43:22.029Z</time></trkpt><trkpt lat="43.4449367" lon="11.3540167"><ele>328.0</ele><time>2026-04-20T13:43:23.029Z</time></trkpt><trkpt lat="43.44493" lon="11.3539017"><ele>328.0</ele><time>2026-04-20T13:43:24.029Z</time></trkpt><trkpt lat="43.444915" lon="11.3538017"><ele>328.0</ele><time>2026-04-20T13:43:25.028Z</time></trkpt><trkpt lat="43.444855" lon="11.3537033"><ele>328.0</ele><time>2026-04-20T13:43:27.028Z</time></trkpt><trkpt lat="43.4447733" lon="11.3537017"><ele>327.79999999999995</ele><time>2026-04-20T13:43:29.029Z</time></trkpt><trkpt lat="43.44467" lon="11.3537417"><ele>327.6</ele><time>2026-04-20T13:43:31.029Z</time></trkpt><trkpt lat="43.4445967" lon="11.353755"><ele>327.4</ele><time>2026-04-20T13:43:32.029Z</time></trkpt><trkpt lat="43.4445" lon="11.353785"><ele>327.20000000000005</ele><time>2026-04-20T13:43:33.028Z</time></trkpt><trkpt lat="43.4443933" lon="11.35383"><ele>327.0</ele><time>2026-04-20T13:43:34.028Z</time></trkpt><trkpt lat="43.4442867" lon="11.353875"><ele>326.25</ele><time>2026-04-20T13:43:35.028Z</time></trkpt><trkpt lat="43.444165" lon="11.3539283"><ele>325.5</ele><time>2026-04-20T13:43:36.029Z</time></trkpt><trkpt lat="43.4440383" lon="11.3539833"><ele>324.75</ele><time>2026-04-20T13:43:37.029Z</time></trkpt><trkpt lat="43.4439317" lon="11.3540533"><ele>324.0</ele><time>2026-04-20T13:43:38.029Z</time></trkpt><trkpt lat="43.4438217" lon="11.3541233"><ele>326.5</ele><time>2026-04-20T13:43:39.029Z</time></trkpt><trkpt lat="43.4437167" lon="11.354205"><ele>329.0</ele><time>2026-04-20T13:43:40.029Z</time></trkpt><trkpt lat="43.443605" lon="11.35428"><ele>331.5</ele><time>2026-04-20T13:43:41.029Z</time></trkpt><trkpt lat="43.4434967" lon="11.3543533"><ele>334.0</ele><time>2026-04-20T13:43:42.029Z</time></trkpt><trkpt lat="43.4433933" lon="11.35442"><ele>334.0</ele><time>2026-04-20T13:43:43.029Z</time></trkpt><trkpt lat="43.4432883" lon="11.3544917"><ele>334.0</ele><time>2026-04-20T13:43:44.029Z</time></trkpt><trkpt lat="43.4431833" lon="11.3545567"><ele>334.0</ele><time>2026-04-20T13:43:45.028Z</time></trkpt><trkpt lat="43.4430733" lon="11.3546167"><ele>334.0</ele><time>2026-04-20T13:43:46.028Z</time></trkpt><trkpt lat="43.4429617" lon="11.35467"><ele>334.4</ele><time>2026-04-20T13:43:47.029Z</time></trkpt><trkpt lat="43.4428567" lon="11.354725"><ele>334.79999999999995</ele><time>2026-04-20T13:43:48.029Z</time></trkpt><trkpt lat="43.442755" lon="11.3547833"><ele>335.20000000000005</ele><time>2026-04-20T13:43:49.029Z</time></trkpt><trkpt lat="43.442665" lon="11.3548483"><ele>335.6</ele><time>2026-04-20T13:43:50.029Z</time></trkpt><trkpt lat="43.4425867" lon="11.3549167"><ele>336.0</ele><time>2026-04-20T13:43:51.029Z</time></trkpt><trkpt lat="43.4425067" lon="11.3549883"><ele>336.0</ele><time>2026-04-20T13:43:52.029Z</time></trkpt><trkpt lat="43.4424283" lon="11.355055"><ele>336.0</ele><time>2026-04-20T13:43:53.029Z</time></trkpt><trkpt lat="43.44235" lon="11.3551217"><ele>336.0</ele><time>2026-04-20T13:43:54.029Z</time></trkpt><trkpt lat="43.442265" lon="11.3551767"><ele>336.0</ele><time>2026-04-20T13:43:55.029Z</time></trkpt><trkpt lat="43.4421817" lon="11.3552133"><ele>336.0</ele><time>2026-04-20T13:43:56.028Z</time></trkpt><trkpt lat="43.4420983" lon="11.3552383"><ele>339.1666666666667</ele><time>2026-04-20T13:43:57.029Z</time></trkpt><trkpt lat="43.442015" lon="11.355255"><ele>342.3333333333333</ele><time>2026-04-20T13:43:58.029Z</time></trkpt><trkpt lat="43.4419317" lon="11.3552733"><ele>345.5</ele><time>2026-04-20T13:43:59.029Z</time></trkpt><trkpt lat="43.4418483" lon="11.3552867"><ele>348.66666666666663</ele><time>2026-04-20T13:44:00.029Z</time></trkpt><trkpt lat="43.4417633" lon="11.3552967"><ele>351.8333333333333</ele><time>2026-04-20T13:44:01.028Z</time></trkpt><trkpt lat="43.4416783" lon="11.3553117"><ele>355.0</ele><time>2026-04-20T13:44:02.029Z</time></trkpt><trkpt lat="43.4416033" lon="11.3553417"><ele>355.0</ele><time>2026-04-20T13:44:03.029Z</time></trkpt><trkpt lat="43.4415417" lon="11.3553933"><ele>355.0</ele><time>2026-04-20T13:44:04.029Z</time></trkpt><trkpt lat="43.441485" lon="11.3554533"><ele>355.0</ele><time>2026-04-20T13:44:05.029Z</time></trkpt><trkpt lat="43.4414317" lon="11.355525"><ele>355.0</ele><time>2026-04-20T13:44:06.029Z</time></trkpt><trkpt lat="43.4413833" lon="11.3556117"><ele>355.0</ele><time>2026-04-20T13:44:07.029Z</time></trkpt><trkpt lat="43.4413317" lon="11.35569"><ele>355.0</ele><time>2026-04-20T13:44:08.029Z</time></trkpt><trkpt lat="43.4412767" lon="11.3557567"><ele>355.0</ele><time>2026-04-20T13:44:09.028Z</time></trkpt><trkpt lat="43.44122" lon="11.3558083"><ele>354.6</ele><time>2026-04-20T13:44:10.029Z</time></trkpt><trkpt lat="43.441115" lon="11.355855"><ele>354.2</ele><time>2026-04-20T13:44:12.029Z</time></trkpt><trkpt lat="43.4410233" lon="11.35582"><ele>353.79999999999995</ele><time>2026-04-20T13:44:14.029Z</time></trkpt><trkpt lat="43.440975" lon="11.3557067"><ele>353.4</ele><time>2026-04-20T13:44:16.029Z</time></trkpt><trkpt lat="43.4410033" lon="11.3555667"><ele>353.0</ele><time>2026-04-20T13:44:18.029Z</time></trkpt><trkpt lat="43.4410283" lon="11.3554867"><ele>353.0</ele><time>2026-04-20T13:44:19.028Z</time></trkpt><trkpt lat="43.4410583" lon="11.3553267"><ele>353.0</ele><time>2026-04-20T13:44:21.028Z</time></trkpt><trkpt lat="43.441055" lon="11.3551683"><ele>353.0</ele><time>2026-04-20T13:44:23.029Z</time></trkpt><trkpt lat="43.441045" lon="11.355065"><ele>353.0</ele><time>2026-04-20T13:44:24.029Z</time></trkpt><trkpt lat="43.4410267" lon="11.3549483"><ele>353.0</ele><time>2026-04-20T13:44:25.029Z</time></trkpt><trkpt lat="43.4410067" lon="11.3548217"><ele>353.4</ele><time>2026-04-20T13:44:26.029Z</time></trkpt><trkpt lat="43.4409767" lon="11.3546967"><ele>353.79999999999995</ele><time>2026-04-20T13:44:27.029Z</time></trkpt><trkpt lat="43.4409467" lon="11.3545733"><ele>354.2</ele><time>2026-04-20T13:44:28.029Z</time></trkpt><trkpt lat="43.4409183" lon="11.3544517"><ele>354.6</ele><time>2026-04-20T13:44:29.029Z</time></trkpt><trkpt lat="43.4408917" lon="11.3543383"><ele>355.0</ele><time>2026-04-20T13:44:30.029Z</time></trkpt><trkpt lat="43.440865" lon="11.354225"><ele>355.0</ele><time>2026-04-20T13:44:31.029Z</time></trkpt><trkpt lat="43.4408417" lon="11.3541033"><ele>355.0</ele><time>2026-04-20T13:44:32.028Z</time></trkpt><trkpt lat="43.4408183" lon="11.3539717"><ele>355.0</ele><time>2026-04-20T13:44:33.028Z</time></trkpt><trkpt lat="43.4408067" lon="11.35384"><ele>355.0</ele><time>2026-04-20T13:44:34.029Z</time></trkpt><trkpt lat="43.4407983" lon="11.353715"><ele>355.0</ele><time>2026-04-20T13:44:35.029Z</time></trkpt><trkpt lat="43.44079" lon="11.3535983"><ele>356.2</ele><time>2026-04-20T13:44:36.029Z</time></trkpt><trkpt lat="43.4407833" lon="11.35348"><ele>357.4</ele><time>2026-04-20T13:44:37.028Z</time></trkpt><trkpt lat="43.44077" lon="11.3533533"><ele>358.6</ele><time>2026-04-20T13:44:38.029Z</time></trkpt><trkpt lat="43.4407533" lon="11.3532233"><ele>359.8</ele><time>2026-04-20T13:44:39.028Z</time></trkpt><trkpt lat="43.44074" lon="11.35309"><ele>361.0</ele><time>2026-04-20T13:44:40.028Z</time></trkpt><trkpt lat="43.4407283" lon="11.3529583"><ele>362.20000000000005</ele><time>2026-04-20T13:44:41.029Z</time></trkpt><trkpt lat="43.4407133" lon="11.3528217"><ele>363.40000000000003</ele><time>2026-04-20T13:44:42.028Z</time></trkpt><trkpt lat="43.4406967" lon="11.3526817"><ele>364.6</ele><time>2026-04-20T13:44:43.029Z</time></trkpt><trkpt lat="43.4406783" lon="11.352545"><ele>365.8</ele><time>2026-04-20T13:44:44.029Z</time></trkpt><trkpt lat="43.4406483" lon="11.3524067"><ele>367.0</ele><time>2026-04-20T13:44:45.028Z</time></trkpt><trkpt lat="43.440625" lon="11.3522667"><ele>368.20000000000005</ele><time>2026-04-20T13:44:46.028Z</time></trkpt><trkpt lat="43.4406033" lon="11.35213"><ele>369.4</ele><time>2026-04-20T13:44:47.028Z</time></trkpt><trkpt lat="43.4405833" lon="11.3520033"><ele>370.6</ele><time>2026-04-20T13:44:48.029Z</time></trkpt><trkpt lat="43.44057" lon="11.35188"><ele>371.79999999999995</ele><time>2026-04-20T13:44:49.029Z</time></trkpt><trkpt lat="43.440555" lon="11.3517667"><ele>373.0</ele><time>2026-04-20T13:44:50.029Z</time></trkpt><trkpt lat="43.4405383" lon="11.3516533"><ele>373.0</ele><time>2026-04-20T13:44:51.029Z</time></trkpt><trkpt lat="43.4405033" lon="11.3515567"><ele>373.0</ele><time>2026-04-20T13:44:52.029Z</time></trkpt><trkpt lat="43.4404633" lon="11.35145"><ele>373.0</ele><time>2026-04-20T13:44:53.029Z</time></trkpt><trkpt lat="43.4404117" lon="11.351335"><ele>373.0</ele><time>2026-04-20T13:44:54.029Z</time></trkpt><trkpt lat="43.44037" lon="11.351215"><ele>373.0</ele><time>2026-04-20T13:44:55.029Z</time></trkpt><trkpt lat="43.4403233" lon="11.35109"><ele>373.0</ele><time>2026-04-20T13:44:56.029Z</time></trkpt><trkpt lat="43.44028" lon="11.350975"><ele>373.0</ele><time>2026-04-20T13:44:57.029Z</time></trkpt><trkpt lat="43.4402517" lon="11.3508717"><ele>373.0</ele><time>2026-04-20T13:44:58.029Z</time></trkpt><trkpt lat="43.4402283" lon="11.3507867"><ele>373.0</ele><time>2026-04-20T13:44:59.028Z</time></trkpt><trkpt lat="43.44013" lon="11.350665"><ele>373.0</ele><time>2026-04-20T13:45:01.029Z</time></trkpt><trkpt lat="43.44005" lon="11.350605"><ele>373.59999999999997</ele><time>2026-04-20T13:45:02.029Z</time></trkpt><trkpt lat="43.4399633" lon="11.3505367"><ele>374.2</ele><time>2026-04-20T13:45:03.029Z</time></trkpt><trkpt lat="43.4398567" lon="11.3504683"><ele>374.8</ele><time>2026-04-20T13:45:04.029Z</time></trkpt><trkpt lat="43.439765" lon="11.3504183"><ele>375.4</ele><time>2026-04-20T13:45:05.028Z</time></trkpt><trkpt lat="43.4396733" lon="11.3503783"><ele>376.0</ele><time>2026-04-20T13:45:06.029Z</time></trkpt><trkpt lat="43.4395833" lon="11.350335"><ele>376.20000000000005</ele><time>2026-04-20T13:45:07.029Z</time></trkpt><trkpt lat="43.4394917" lon="11.3502867"><ele>376.40000000000003</ele><time>2026-04-20T13:45:08.029Z</time></trkpt><trkpt lat="43.4393917" lon="11.3502417"><ele>376.6</ele><time>2026-04-20T13:45:09.029Z</time></trkpt><trkpt lat="43.439295" lon="11.3502"><ele>376.8</ele><time>2026-04-20T13:45:10.029Z</time></trkpt><trkpt lat="43.4392017" lon="11.35017"><ele>377.0</ele><time>2026-04-20T13:45:11.029Z</time></trkpt><trkpt lat="43.439105" lon="11.350135"><ele>377.0</ele><time>2026-04-20T13:45:12.029Z</time></trkpt><trkpt lat="43.43901" lon="11.3500967"><ele>377.0</ele><time>2026-04-20T13:45:13.029Z</time></trkpt><trkpt lat="43.4389117" lon="11.3500517"><ele>377.0</ele><time>2026-04-20T13:45:14.029Z</time></trkpt><trkpt lat="43.4388133" lon="11.3500067"><ele>377.0</ele><time>2026-04-20T13:45:15.029Z</time></trkpt><trkpt lat="43.4387133" lon="11.3499617"><ele>377.0</ele><time>2026-04-20T13:45:16.029Z</time></trkpt><trkpt lat="43.438615" lon="11.3499183"><ele>376.6</ele><time>2026-04-20T13:45:17.029Z</time></trkpt><trkpt lat="43.4385167" lon="11.3498667"><ele>376.20000000000005</ele><time>2026-04-20T13:45:18.029Z</time></trkpt><trkpt lat="43.4384167" lon="11.3498017"><ele>375.8</ele><time>2026-04-20T13:45:19.029Z</time></trkpt><trkpt lat="43.438335" lon="11.3497317"><ele>375.4</ele><time>2026-04-20T13:45:20.029Z</time></trkpt><trkpt lat="43.438255" lon="11.34966"><ele>375.0</ele><time>2026-04-20T13:45:21.029Z</time></trkpt><trkpt lat="43.4381817" lon="11.3495717"><ele>374.0</ele><time>2026-04-20T13:45:22.029Z</time></trkpt><trkpt lat="43.4381133" lon="11.3494583"><ele>373.0</ele><time>2026-04-20T13:45:23.029Z</time></trkpt><trkpt lat="43.4380533" lon="11.3493217"><ele>372.0</ele><time>2026-04-20T13:45:24.029Z</time></trkpt><trkpt lat="43.438005" lon="11.34917"><ele>371.0</ele><time>2026-04-20T13:45:25.029Z</time></trkpt><trkpt lat="43.4379683" lon="11.3490133"><ele>372.20000000000005</ele><time>2026-04-20T13:45:26.029Z</time></trkpt><trkpt lat="43.4379383" lon="11.3488617"><ele>373.40000000000003</ele><time>2026-04-20T13:45:27.029Z</time></trkpt><trkpt lat="43.4379083" lon="11.3487167"><ele>374.6</ele><time>2026-04-20T13:45:28.028Z</time></trkpt><trkpt lat="43.4378717" lon="11.3485817"><ele>375.8</ele><time>2026-04-20T13:45:29.029Z</time></trkpt><trkpt lat="43.437815" lon="11.34847"><ele>377.0</ele><time>2026-04-20T13:45:30.028Z</time></trkpt><trkpt lat="43.43774" lon="11.3483883"><ele>377.0</ele><time>2026-04-20T13:45:31.029Z</time></trkpt><trkpt lat="43.4376517" lon="11.3483433"><ele>377.0</ele><time>2026-04-20T13:45:32.029Z</time></trkpt><trkpt lat="43.4375533" lon="11.3483367"><ele>377.0</ele><time>2026-04-20T13:45:33.029Z</time></trkpt><trkpt lat="43.43746" lon="11.3483717"><ele>377.0</ele><time>2026-04-20T13:45:34.028Z</time></trkpt><trkpt lat="43.4373767" lon="11.34844"><ele>377.0</ele><time>2026-04-20T13:45:35.029Z</time></trkpt><trkpt lat="43.4373133" lon="11.34854"><ele>377.0</ele><time>2026-04-20T13:45:36.029Z</time></trkpt><trkpt lat="43.4372683" lon="11.3486683"><ele>377.0</ele><time>2026-04-20T13:45:37.028Z</time></trkpt><trkpt lat="43.437235" lon="11.3488117"><ele>377.0</ele><time>2026-04-20T13:45:38.028Z</time></trkpt><trkpt lat="43.4372067" lon="11.3489483"><ele>377.0</ele><time>2026-04-20T13:45:39.029Z</time></trkpt><trkpt lat="43.4371683" lon="11.34907"><ele>377.0</ele><time>2026-04-20T13:45:40.029Z</time></trkpt><trkpt lat="43.437125" lon="11.3491717"><ele>376.33333333333337</ele><time>2026-04-20T13:45:41.029Z</time></trkpt><trkpt lat="43.4370833" lon="11.3492617"><ele>375.6666666666667</ele><time>2026-04-20T13:45:42.028Z</time></trkpt><trkpt lat="43.4370283" lon="11.3493333"><ele>375.0</ele><time>2026-04-20T13:45:43.029Z</time></trkpt><trkpt lat="43.4369517" lon="11.34938"><ele>374.3333333333333</ele><time>2026-04-20T13:45:44.029Z</time></trkpt><trkpt lat="43.436865" lon="11.349395"><ele>373.66666666666663</ele><time>2026-04-20T13:45:45.029Z</time></trkpt><trkpt lat="43.4367867" lon="11.3493817"><ele>373.0</ele><time>2026-04-20T13:45:46.029Z</time></trkpt><trkpt lat="43.436705" lon="11.3493517"><ele>373.0</ele><time>2026-04-20T13:45:47.028Z</time></trkpt><trkpt lat="43.436635" lon="11.3493017"><ele>373.0</ele><time>2026-04-20T13:45:48.029Z</time></trkpt><trkpt lat="43.4365683" lon="11.3492317"><ele>373.0</ele><time>2026-04-20T13:45:49.029Z</time></trkpt><trkpt lat="43.4365017" lon="11.3491517"><ele>373.0</ele><time>2026-04-20T13:45:50.028Z</time></trkpt><trkpt lat="43.4364283" lon="11.34906"><ele>373.0</ele><time>2026-04-20T13:45:51.028Z</time></trkpt><trkpt lat="43.4363467" lon="11.348975"><ele>372.4</ele><time>2026-04-20T13:45:52.029Z</time></trkpt><trkpt lat="43.4362633" lon="11.3488983"><ele>371.79999999999995</ele><time>2026-04-20T13:45:53.029Z</time></trkpt><trkpt lat="43.4361833" lon="11.3488283"><ele>371.2</ele><time>2026-04-20T13:45:54.028Z</time></trkpt><trkpt lat="43.4361067" lon="11.3487683"><ele>370.6</ele><time>2026-04-20T13:45:55.029Z</time></trkpt><trkpt lat="43.43603" lon="11.348725"><ele>370.0</ele><time>2026-04-20T13:45:56.029Z</time></trkpt><trkpt lat="43.43595" lon="11.3486883"><ele>372.16666666666663</ele><time>2026-04-20T13:45:57.029Z</time></trkpt><trkpt lat="43.4358733" lon="11.3486633"><ele>374.3333333333333</ele><time>2026-04-20T13:45:58.029Z</time></trkpt><trkpt lat="43.4357883" lon="11.3486583"><ele>376.5</ele><time>2026-04-20T13:45:59.029Z</time></trkpt><trkpt lat="43.4357067" lon="11.3486667"><ele>378.6666666666667</ele><time>2026-04-20T13:46:00.029Z</time></trkpt><trkpt lat="43.4356183" lon="11.34869"><ele>380.83333333333337</ele><time>2026-04-20T13:46:01.029Z</time></trkpt><trkpt lat="43.4355367" lon="11.348725"><ele>383.0</ele><time>2026-04-20T13:46:02.028Z</time></trkpt><trkpt lat="43.435455" lon="11.3487633"><ele>383.1666666666667</ele><time>2026-04-20T13:46:03.029Z</time></trkpt><trkpt lat="43.43537" lon="11.34879"><ele>383.33333333333337</ele><time>2026-04-20T13:46:04.029Z</time></trkpt><trkpt lat="43.43529" lon="11.3488067"><ele>383.5</ele><time>2026-04-20T13:46:05.028Z</time></trkpt><trkpt lat="43.4352167" lon="11.348825"><ele>383.6666666666667</ele><time>2026-04-20T13:46:06.029Z</time></trkpt><trkpt lat="43.4351417" lon="11.3488167"><ele>383.8333333333333</ele><time>2026-04-20T13:46:07.029Z</time></trkpt><trkpt lat="43.4350717" lon="11.34879"><ele>384.0</ele><time>2026-04-20T13:46:08.029Z</time></trkpt><trkpt lat="43.4350017" lon="11.348755"><ele>383.99999999999994</ele><time>2026-04-20T13:46:09.029Z</time></trkpt><trkpt lat="43.4349317" lon="11.34872"><ele>384.0</ele><time>2026-04-20T13:46:10.028Z</time></trkpt><trkpt lat="43.4348583" lon="11.348715"><ele>384.0</ele><time>2026-04-20T13:46:11.029Z</time></trkpt><trkpt lat="43.4347883" lon="11.3487267"><ele>384.0</ele><time>2026-04-20T13:46:12.029Z</time></trkpt><trkpt lat="43.4347233" lon="11.3487683"><ele>384.0</ele><time>2026-04-20T13:46:13.029Z</time></trkpt><trkpt lat="43.4346667" lon="11.34884"><ele>383.99999999999994</ele><time>2026-04-20T13:46:14.029Z</time></trkpt><trkpt lat="43.4346183" lon="11.3489317"><ele>384.0</ele><time>2026-04-20T13:46:15.029Z</time></trkpt><trkpt lat="43.4345783" lon="11.3490383"><ele>385.6</ele><time>2026-04-20T13:46:16.029Z</time></trkpt><trkpt lat="43.434545" lon="11.34915"><ele>387.2</ele><time>2026-04-20T13:46:17.029Z</time></trkpt><trkpt lat="43.4345067" lon="11.3492617"><ele>388.8</ele><time>2026-04-20T13:46:18.029Z</time></trkpt><trkpt lat="43.4344733" lon="11.34938"><ele>390.40000000000003</ele><time>2026-04-20T13:46:19.029Z</time></trkpt><trkpt lat="43.434435" lon="11.34951"><ele>392.0</ele><time>2026-04-20T13:46:20.029Z</time></trkpt><trkpt lat="43.4343933" lon="11.3496317"><ele>390.0</ele><time>2026-04-20T13:46:21.029Z</time></trkpt><trkpt lat="43.4343417" lon="11.3497517"><ele>388.0</ele><time>2026-04-20T13:46:22.029Z</time></trkpt><trkpt lat="43.4342917" lon="11.3498567"><ele>386.0</ele><time>2026-04-20T13:46:23.029Z</time></trkpt><trkpt lat="43.43423" lon="11.349945"><ele>384.0</ele><time>2026-04-20T13:46:24.028Z</time></trkpt><trkpt lat="43.4341583" lon="11.3500333"><ele>382.0</ele><time>2026-04-20T13:46:25.028Z</time></trkpt><trkpt lat="43.434085" lon="11.3501233"><ele>382.0</ele><time>2026-04-20T13:46:26.029Z</time></trkpt><trkpt lat="43.4340067" lon="11.3502117"><ele>382.0</ele><time>2026-04-20T13:46:27.029Z</time></trkpt><trkpt lat="43.43393" lon="11.3502983"><ele>382.0</ele><time>2026-04-20T13:46:28.029Z</time></trkpt><trkpt lat="43.4338533" lon="11.3503733"><ele>382.0</ele><time>2026-04-20T13:46:29.029Z</time></trkpt><trkpt lat="43.433775" lon="11.3504533"><ele>382.0</ele><time>2026-04-20T13:46:30.028Z</time></trkpt><trkpt lat="43.4337033" lon="11.3505333"><ele>381.8</ele><time>2026-04-20T13:46:31.029Z</time></trkpt><trkpt lat="43.4336283" lon="11.3506233"><ele>381.6</ele><time>2026-04-20T13:46:32.028Z</time></trkpt><trkpt lat="43.43355" lon="11.350715"><ele>381.40000000000003</ele><time>2026-04-20T13:46:33.029Z</time></trkpt><trkpt lat="43.4334733" lon="11.3508067"><ele>381.20000000000005</ele><time>2026-04-20T13:46:34.028Z</time></trkpt><trkpt lat="43.4333983" lon="11.3508867"><ele>381.0</ele><time>2026-04-20T13:46:35.029Z</time></trkpt><trkpt lat="43.4333183" lon="11.350965"><ele>381.0</ele><time>2026-04-20T13:46:36.029Z</time></trkpt><trkpt lat="43.4332317" lon="11.3510417"><ele>381.0</ele><time>2026-04-20T13:46:37.029Z</time></trkpt><trkpt lat="43.4331417" lon="11.351105"><ele>381.0</ele><time>2026-04-20T13:46:38.029Z</time></trkpt><trkpt lat="43.43305" lon="11.3511767"><ele>381.0</ele><time>2026-04-20T13:46:39.029Z</time></trkpt><trkpt lat="43.43296" lon="11.3512483"><ele>381.0</ele><time>2026-04-20T13:46:40.029Z</time></trkpt><trkpt lat="43.43287" lon="11.3513167"><ele>382.8</ele><time>2026-04-20T13:46:41.029Z</time></trkpt><trkpt lat="43.4327833" lon="11.3513683"><ele>384.6</ele><time>2026-04-20T13:46:42.029Z</time></trkpt><trkpt lat="43.4326967" lon="11.3514133"><ele>386.4</ele><time>2026-04-20T13:46:43.029Z</time></trkpt><trkpt lat="43.4326017" lon="11.3514317"><ele>388.2</ele><time>2026-04-20T13:46:44.029Z</time></trkpt><trkpt lat="43.4325017" lon="11.3514317"><ele>390.0</ele><time>2026-04-20T13:46:45.029Z</time></trkpt><trkpt lat="43.432405" lon="11.3514117"><ele>390.0</ele><time>2026-04-20T13:46:46.029Z</time></trkpt><trkpt lat="43.4323133" lon="11.3513967"><ele>390.0</ele><time>2026-04-20T13:46:47.029Z</time></trkpt><trkpt lat="43.43223" lon="11.3513717"><ele>390.0</ele><time>2026-04-20T13:46:48.029Z</time></trkpt><trkpt lat="43.4321417" lon="11.3513483"><ele>390.0</ele><time>2026-04-20T13:46:49.029Z</time></trkpt><trkpt lat="43.4320533" lon="11.3513417"><ele>390.0</ele><time>2026-04-20T13:46:50.029Z</time></trkpt><trkpt lat="43.4319783" lon="11.3513233"><ele>390.0</ele><time>2026-04-20T13:46:51.029Z</time></trkpt><trkpt lat="43.4319117" lon="11.3512917"><ele>391.0</ele><time>2026-04-20T13:46:52.029Z</time></trkpt><trkpt lat="43.4318083" lon="11.3512"><ele>392.0</ele><time>2026-04-20T13:46:54.029Z</time></trkpt><trkpt lat="43.4317567" lon="11.351145"><ele>393.0</ele><time>2026-04-20T13:46:55.029Z</time></trkpt><trkpt lat="43.43171" lon="11.3510867"><ele>394.0</ele><time>2026-04-20T13:46:56.028Z</time></trkpt><trkpt lat="43.431655" lon="11.3510183"><ele>395.0</ele><time>2026-04-20T13:46:57.029Z</time></trkpt><trkpt lat="43.4316017" lon="11.35094"><ele>396.0</ele><time>2026-04-20T13:46:58.029Z</time></trkpt><trkpt lat="43.4315567" lon="11.3508633"><ele>396.0</ele><time>2026-04-20T13:46:59.029Z</time></trkpt><trkpt lat="43.4315083" lon="11.3507867"><ele>396.0</ele><time>2026-04-20T13:47:00.028Z</time></trkpt><trkpt lat="43.4314217" lon="11.350665"><ele>396.0</ele><time>2026-04-20T13:47:02.029Z</time></trkpt><trkpt lat="43.4312967" lon="11.3506383"><ele>396.0</ele><time>2026-04-20T13:47:04.029Z</time></trkpt><trkpt lat="43.4312317" lon="11.35067"><ele>396.0</ele><time>2026-04-20T13:47:05.029Z</time></trkpt><trkpt lat="43.4311617" lon="11.3507317"><ele>393.20000000000005</ele><time>2026-04-20T13:47:06.028Z</time></trkpt><trkpt lat="43.431095" lon="11.3507983"><ele>390.40000000000003</ele><time>2026-04-20T13:47:07.029Z</time></trkpt><trkpt lat="43.4310167" lon="11.35086"><ele>387.6</ele><time>2026-04-20T13:47:08.029Z</time></trkpt><trkpt lat="43.4309333" lon="11.3509017"><ele>384.8</ele><time>2026-04-20T13:47:09.029Z</time></trkpt><trkpt lat="43.4308383" lon="11.35092"><ele>382.0</ele><time>2026-04-20T13:47:10.029Z</time></trkpt><trkpt lat="43.4307333" lon="11.3509267"><ele>382.0</ele><time>2026-04-20T13:47:11.029Z</time></trkpt><trkpt lat="43.4306233" lon="11.350915"><ele>382.0</ele><time>2026-04-20T13:47:12.029Z</time></trkpt><trkpt lat="43.43051" lon="11.350895"><ele>382.0</ele><time>2026-04-20T13:47:13.029Z</time></trkpt><trkpt lat="43.4304083" lon="11.3508667"><ele>382.0</ele><time>2026-04-20T13:47:14.029Z</time></trkpt><trkpt lat="43.4303067" lon="11.3508517"><ele>382.0</ele><time>2026-04-20T13:47:15.029Z</time></trkpt><trkpt lat="43.4302017" lon="11.3508433"><ele>381.40000000000003</ele><time>2026-04-20T13:47:16.029Z</time></trkpt><trkpt lat="43.4300983" lon="11.35085"><ele>380.8</ele><time>2026-04-20T13:47:17.029Z</time></trkpt><trkpt lat="43.4300067" lon="11.35086"><ele>380.2</ele><time>2026-04-20T13:47:18.029Z</time></trkpt><trkpt lat="43.4299083" lon="11.3508717"><ele>379.6</ele><time>2026-04-20T13:47:19.029Z</time></trkpt><trkpt lat="43.4298133" lon="11.35089"><ele>379.0</ele><time>2026-04-20T13:47:20.029Z</time></trkpt><trkpt lat="43.4297167" lon="11.350885"><ele>377.79999999999995</ele><time>2026-04-20T13:47:21.029Z</time></trkpt><trkpt lat="43.42962" lon="11.3508583"><ele>376.59999999999997</ele><time>2026-04-20T13:47:22.029Z</time></trkpt><trkpt lat="43.4295233" lon="11.3508133"><ele>375.4</ele><time>2026-04-20T13:47:23.029Z</time></trkpt><trkpt lat="43.429425" lon="11.3507417"><ele>374.2</ele><time>2026-04-20T13:47:24.028Z</time></trkpt><trkpt lat="43.4293267" lon="11.350665"><ele>373.0</ele><time>2026-04-20T13:47:25.029Z</time></trkpt><trkpt lat="43.4292317" lon="11.3505933"><ele>374.0</ele><time>2026-04-20T13:47:26.029Z</time></trkpt><trkpt lat="43.42912" lon="11.35052"><ele>375.0</ele><time>2026-04-20T13:47:27.028Z</time></trkpt><trkpt lat="43.4290183" lon="11.3504417"><ele>376.0</ele><time>2026-04-20T13:47:28.029Z</time></trkpt><trkpt lat="43.42892" lon="11.3503583"><ele>377.0</ele><time>2026-04-20T13:47:29.028Z</time></trkpt><trkpt lat="43.4288233" lon="11.3502883"><ele>377.0</ele><time>2026-04-20T13:47:30.029Z</time></trkpt><trkpt lat="43.4287317" lon="11.3502183"><ele>377.0</ele><time>2026-04-20T13:47:31.029Z</time></trkpt><trkpt lat="43.42864" lon="11.3501517"><ele>377.0</ele><time>2026-04-20T13:47:32.029Z</time></trkpt><trkpt lat="43.4285517" lon="11.3500867"><ele>377.0</ele><time>2026-04-20T13:47:33.028Z</time></trkpt><trkpt lat="43.428465" lon="11.3500417"><ele>377.0</ele><time>2026-04-20T13:47:34.029Z</time></trkpt><trkpt lat="43.4283833" lon="11.350015"><ele>377.0</ele><time>2026-04-20T13:47:35.029Z</time></trkpt><trkpt lat="43.4283017" lon="11.350005"><ele>377.0</ele><time>2026-04-20T13:47:36.029Z</time></trkpt><trkpt lat="43.4282133" lon="11.3499967"><ele>377.0</ele><time>2026-04-20T13:47:37.029Z</time></trkpt><trkpt lat="43.4281233" lon="11.3500133"><ele>377.0</ele><time>2026-04-20T13:47:38.028Z</time></trkpt><trkpt lat="43.4280267" lon="11.35006"><ele>377.0</ele><time>2026-04-20T13:47:39.028Z</time></trkpt><trkpt lat="43.42794" lon="11.35011"><ele>377.1666666666667</ele><time>2026-04-20T13:47:40.028Z</time></trkpt><trkpt lat="43.4278633" lon="11.3501683"><ele>377.33333333333337</ele><time>2026-04-20T13:47:41.029Z</time></trkpt><trkpt lat="43.4277867" lon="11.35022"><ele>377.5</ele><time>2026-04-20T13:47:42.029Z</time></trkpt><trkpt lat="43.427715" lon="11.3502683"><ele>377.6666666666667</ele><time>2026-04-20T13:47:43.029Z</time></trkpt><trkpt lat="43.42764" lon="11.350315"><ele>377.8333333333333</ele><time>2026-04-20T13:47:44.029Z</time></trkpt><trkpt lat="43.4275533" lon="11.350355"><ele>378.0</ele><time>2026-04-20T13:47:45.029Z</time></trkpt><trkpt lat="43.4274617" lon="11.3503867"><ele>378.0</ele><time>2026-04-20T13:47:46.029Z</time></trkpt><trkpt lat="43.42735" lon="11.35042"><ele>378.0</ele><time>2026-04-20T13:47:47.028Z</time></trkpt><trkpt lat="43.4272233" lon="11.3504433"><ele>378.0</ele><time>2026-04-20T13:47:48.029Z</time></trkpt><trkpt lat="43.4271167" lon="11.3504717"><ele>378.0</ele><time>2026-04-20T13:47:49.029Z</time></trkpt><trkpt lat="43.4270233" lon="11.3505283"><ele>381.2</ele><time>2026-04-20T13:47:50.029Z</time></trkpt><trkpt lat="43.4269467" lon="11.350605"><ele>384.4</ele><time>2026-04-20T13:47:51.028Z</time></trkpt><trkpt lat="43.4268917" lon="11.3507033"><ele>387.59999999999997</ele><time>2026-04-20T13:47:52.029Z</time></trkpt><trkpt lat="43.4268517" lon="11.3508017"><ele>390.79999999999995</ele><time>2026-04-20T13:47:53.028Z</time></trkpt><trkpt lat="43.4268067" lon="11.3509033"><ele>394.0</ele><time>2026-04-20T13:47:54.029Z</time></trkpt><trkpt lat="43.4267533" lon="11.3510167"><ele>394.0</ele><time>2026-04-20T13:47:55.028Z</time></trkpt><trkpt lat="43.426705" lon="11.35113"><ele>394.0</ele><time>2026-04-20T13:47:56.029Z</time></trkpt><trkpt lat="43.4266517" lon="11.35124"><ele>394.0</ele><time>2026-04-20T13:47:57.028Z</time></trkpt><trkpt lat="43.4266083" lon="11.351345"><ele>394.0</ele><time>2026-04-20T13:47:58.029Z</time></trkpt><trkpt lat="43.4265483" lon="11.3514517"><ele>394.0</ele><time>2026-04-20T13:47:59.029Z</time></trkpt><trkpt lat="43.4264783" lon="11.351555"><ele>393.0</ele><time>2026-04-20T13:48:00.028Z</time></trkpt><trkpt lat="43.4264" lon="11.351655"><ele>392.0</ele><time>2026-04-20T13:48:01.029Z</time></trkpt><trkpt lat="43.4263183" lon="11.3517433"><ele>391.0</ele><time>2026-04-20T13:48:02.029Z</time></trkpt><trkpt lat="43.426225" lon="11.3518267"><ele>390.0</ele><time>2026-04-20T13:48:03.029Z</time></trkpt><trkpt lat="43.4261317" lon="11.3519017"><ele>389.0</ele><time>2026-04-20T13:48:04.029Z</time></trkpt><trkpt lat="43.4260467" lon="11.3519683"><ele>391.4</ele><time>2026-04-20T13:48:05.029Z</time></trkpt><trkpt lat="43.4259767" lon="11.35205"><ele>393.79999999999995</ele><time>2026-04-20T13:48:06.029Z</time></trkpt><trkpt lat="43.4259183" lon="11.352155"><ele>396.20000000000005</ele><time>2026-04-20T13:48:07.029Z</time></trkpt><trkpt lat="43.42587" lon="11.3522633"><ele>398.6</ele><time>2026-04-20T13:48:08.029Z</time></trkpt><trkpt lat="43.42583" lon="11.3524067"><ele>401.0</ele><time>2026-04-20T13:48:09.029Z</time></trkpt><trkpt lat="43.4257983" lon="11.3525517"><ele>401.0</ele><time>2026-04-20T13:48:10.029Z</time></trkpt><trkpt lat="43.4257767" lon="11.35271"><ele>401.0</ele><time>2026-04-20T13:48:11.028Z</time></trkpt><trkpt lat="43.425755" lon="11.35287"><ele>401.0</ele><time>2026-04-20T13:48:12.028Z</time></trkpt><trkpt lat="43.42574" lon="11.3530367"><ele>401.0</ele><time>2026-04-20T13:48:13.028Z</time></trkpt><trkpt lat="43.4257417" lon="11.3532033"><ele>400.5</ele><time>2026-04-20T13:48:14.029Z</time></trkpt><trkpt lat="43.4257517" lon="11.3533733"><ele>400.0</ele><time>2026-04-20T13:48:15.029Z</time></trkpt><trkpt lat="43.42576" lon="11.3535367"><ele>399.5</ele><time>2026-04-20T13:48:16.028Z</time></trkpt><trkpt lat="43.4257567" lon="11.3536967"><ele>399.0</ele><time>2026-04-20T13:48:17.029Z</time></trkpt><trkpt lat="43.4257583" lon="11.3538367"><ele>400.6</ele><time>2026-04-20T13:48:18.029Z</time></trkpt><trkpt lat="43.42574" lon="11.3539683"><ele>402.2</ele><time>2026-04-20T13:48:19.029Z</time></trkpt><trkpt lat="43.4257083" lon="11.354085"><ele>403.8</ele><time>2026-04-20T13:48:20.029Z</time></trkpt><trkpt lat="43.4256617" lon="11.3541983"><ele>405.40000000000003</ele><time>2026-04-20T13:48:21.029Z</time></trkpt><trkpt lat="43.4256017" lon="11.3542967"><ele>407.0</ele><time>2026-04-20T13:48:22.029Z</time></trkpt><trkpt lat="43.42553" lon="11.3543717"><ele>409.99999999999994</ele><time>2026-04-20T13:48:23.029Z</time></trkpt><trkpt lat="43.4254467" lon="11.3544183"><ele>413.0</ele><time>2026-04-20T13:48:24.029Z</time></trkpt><trkpt lat="43.42536" lon="11.354435"><ele>416.0</ele><time>2026-04-20T13:48:25.029Z</time></trkpt><trkpt lat="43.4252683" lon="11.35443"><ele>419.0</ele><time>2026-04-20T13:48:26.028Z</time></trkpt><trkpt lat="43.4251783" lon="11.3544267"><ele>421.99999999999994</ele><time>2026-04-20T13:48:27.028Z</time></trkpt><trkpt lat="43.4250983" lon="11.3544567"><ele>425.0</ele><time>2026-04-20T13:48:28.028Z</time></trkpt><trkpt lat="43.4250333" lon="11.3545133"><ele>425.0</ele><time>2026-04-20T13:48:29.028Z</time></trkpt><trkpt lat="43.42499" lon="11.3546033"><ele>425.0</ele><time>2026-04-20T13:48:30.028Z</time></trkpt><trkpt lat="43.4249683" lon="11.3547117"><ele>425.0</ele><time>2026-04-20T13:48:31.028Z</time></trkpt><trkpt lat="43.424935" lon="11.3548033"><ele>425.0</ele><time>2026-04-20T13:48:32.028Z</time></trkpt><trkpt lat="43.4248333" lon="11.3548817"><ele>425.0</ele><time>2026-04-20T13:48:34.028Z</time></trkpt><trkpt lat="43.4247083" lon="11.354865"><ele>423.99999999999994</ele><time>2026-04-20T13:48:36.028Z</time></trkpt><trkpt lat="43.4246317" lon="11.3548433"><ele>423.0</ele><time>2026-04-20T13:48:37.028Z</time></trkpt><trkpt lat="43.4245483" lon="11.3548317"><ele>422.0</ele><time>2026-04-20T13:48:38.028Z</time></trkpt><trkpt lat="43.424465" lon="11.3548183"><ele>421.0</ele><time>2026-04-20T13:48:39.028Z</time></trkpt><trkpt lat="43.424385" lon="11.354805"><ele>419.99999999999994</ele><time>2026-04-20T13:48:40.028Z</time></trkpt><trkpt lat="43.4243067" lon="11.3547783"><ele>419.0</ele><time>2026-04-20T13:48:41.027Z</time></trkpt><trkpt lat="43.4242283" lon="11.3547467"><ele>421.66666666666663</ele><time>2026-04-20T13:48:42.028Z</time></trkpt><trkpt lat="43.424155" lon="11.3547017"><ele>424.3333333333333</ele><time>2026-04-20T13:48:43.028Z</time></trkpt><trkpt lat="43.4240917" lon="11.354635"><ele>427.0</ele><time>2026-04-20T13:48:44.027Z</time></trkpt><trkpt lat="43.424045" lon="11.354545"><ele>429.66666666666663</ele><time>2026-04-20T13:48:45.028Z</time></trkpt><trkpt lat="43.4239933" lon="11.3544583"><ele>432.3333333333333</ele><time>2026-04-20T13:48:46.027Z</time></trkpt><trkpt lat="43.4239533" lon="11.3543667"><ele>435.0</ele><time>2026-04-20T13:48:47.028Z</time></trkpt><trkpt lat="43.42392" lon="11.3542867"><ele>435.0</ele><time>2026-04-20T13:48:48.028Z</time></trkpt><trkpt lat="43.42389" lon="11.3541833"><ele>435.0</ele><time>2026-04-20T13:48:49.027Z</time></trkpt><trkpt lat="43.4238667" lon="11.354075"><ele>435.0</ele><time>2026-04-20T13:48:50.027Z</time></trkpt><trkpt lat="43.4238517" lon="11.3539667"><ele>435.0</ele><time>2026-04-20T13:48:51.028Z</time></trkpt><trkpt lat="43.4238367" lon="11.3538567"><ele>435.0</ele><time>2026-04-20T13:48:52.028Z</time></trkpt><trkpt lat="43.4238183" lon="11.353735"><ele>435.0</ele><time>2026-04-20T13:48:53.028Z</time></trkpt><trkpt lat="43.4238083" lon="11.3536117"><ele>434.6</ele><time>2026-04-20T13:48:54.028Z</time></trkpt><trkpt lat="43.4238017" lon="11.3534767"><ele>434.2</ele><time>2026-04-20T13:48:55.028Z</time></trkpt><trkpt lat="43.423785" lon="11.353345"><ele>433.79999999999995</ele><time>2026-04-20T13:48:56.028Z</time></trkpt><trkpt lat="43.4237667" lon="11.3532067"><ele>433.4</ele><time>2026-04-20T13:48:57.028Z</time></trkpt><trkpt lat="43.42375" lon="11.353065"><ele>433.0</ele><time>2026-04-20T13:48:58.027Z</time></trkpt><trkpt lat="43.4237383" lon="11.35292"><ele>435.0</ele><time>2026-04-20T13:48:59.028Z</time></trkpt><trkpt lat="43.4237267" lon="11.3527683"><ele>436.99999999999994</ele><time>2026-04-20T13:49:00.028Z</time></trkpt><trkpt lat="43.4237117" lon="11.3526133"><ele>438.99999999999994</ele><time>2026-04-20T13:49:01.028Z</time></trkpt><trkpt lat="43.4236983" lon="11.35246"><ele>441.0</ele><time>2026-04-20T13:49:02.028Z</time></trkpt><trkpt lat="43.4236917" lon="11.35231"><ele>443.0</ele><time>2026-04-20T13:49:03.027Z</time></trkpt><trkpt lat="43.4237" lon="11.3521583"><ele>444.0</ele><time>2026-04-20T13:49:04.028Z</time></trkpt><trkpt lat="43.4237233" lon="11.35201"><ele>444.99999999999994</ele><time>2026-04-20T13:49:05.028Z</time></trkpt><trkpt lat="43.4237583" lon="11.3518667"><ele>445.99999999999994</ele><time>2026-04-20T13:49:06.028Z</time></trkpt><trkpt lat="43.4238017" lon="11.351725"><ele>447.0</ele><time>2026-04-20T13:49:07.027Z</time></trkpt><trkpt lat="43.42385" lon="11.3515933"><ele>448.0</ele><time>2026-04-20T13:49:08.028Z</time></trkpt><trkpt lat="43.4238933" lon="11.351455"><ele>449.0</ele><time>2026-04-20T13:49:09.027Z</time></trkpt><trkpt lat="43.4239317" lon="11.3513167"><ele>449.99999999999994</ele><time>2026-04-20T13:49:10.028Z</time></trkpt><trkpt lat="43.4239633" lon="11.3511733"><ele>450.99999999999994</ele><time>2026-04-20T13:49:11.028Z</time></trkpt><trkpt lat="43.4239767" lon="11.3510217"><ele>452.0</ele><time>2026-04-20T13:49:12.028Z</time></trkpt><trkpt lat="43.4239867" lon="11.35087"><ele>453.0</ele><time>2026-04-20T13:49:13.027Z</time></trkpt><trkpt lat="43.4240017" lon="11.350715"><ele>453.0</ele><time>2026-04-20T13:49:14.028Z</time></trkpt><trkpt lat="43.4240033" lon="11.3505833"><ele>453.0</ele><time>2026-04-20T13:49:15.028Z</time></trkpt><trkpt lat="43.4239967" lon="11.3504667"><ele>453.0</ele><time>2026-04-20T13:49:16.028Z</time></trkpt><trkpt lat="43.42398" lon="11.3503683"><ele>453.0</ele><time>2026-04-20T13:49:17.028Z</time></trkpt><trkpt lat="43.4239483" lon="11.3502867"><ele>453.0</ele><time>2026-04-20T13:49:18.028Z</time></trkpt><trkpt lat="43.423855" lon="11.3501817"><ele>453.0</ele><time>2026-04-20T13:49:20.028Z</time></trkpt><trkpt lat="43.423795" lon="11.3501533"><ele>457.59999999999997</ele><time>2026-04-20T13:49:21.028Z</time></trkpt><trkpt lat="43.4237283" lon="11.350155"><ele>462.19999999999993</ele><time>2026-04-20T13:49:22.028Z</time></trkpt><trkpt lat="43.42361" lon="11.3501733"><ele>466.8</ele><time>2026-04-20T13:49:24.027Z</time></trkpt><trkpt lat="43.4234983" lon="11.3502117"><ele>471.4</ele><time>2026-04-20T13:49:26.028Z</time></trkpt><trkpt lat="43.4233833" lon="11.3502417"><ele>476.0</ele><time>2026-04-20T13:49:28.028Z</time></trkpt><trkpt lat="43.42327" lon="11.3502917"><ele>475.99999999999994</ele><time>2026-04-20T13:49:30.028Z</time></trkpt><trkpt lat="43.4232033" lon="11.3503433"><ele>476.0</ele><time>2026-04-20T13:49:31.028Z</time></trkpt><trkpt lat="43.42314" lon="11.3504017"><ele>476.0</ele><time>2026-04-20T13:49:32.027Z</time></trkpt><trkpt lat="43.42308" lon="11.3504533"><ele>476.0</ele><time>2026-04-20T13:49:33.028Z</time></trkpt><trkpt lat="43.4230267" lon="11.3505117"><ele>475.99999999999994</ele><time>2026-04-20T13:49:34.028Z</time></trkpt><trkpt lat="43.42294" lon="11.3505783"><ele>476.0</ele><time>2026-04-20T13:49:36.028Z</time></trkpt><trkpt lat="43.4228633" lon="11.3505517"><ele>477.6</ele><time>2026-04-20T13:49:38.028Z</time></trkpt><trkpt lat="43.42281" lon="11.3504717"><ele>479.20000000000005</ele><time>2026-04-20T13:49:40.028Z</time></trkpt><trkpt lat="43.42278" lon="11.350335"><ele>480.79999999999995</ele><time>2026-04-20T13:49:42.028Z</time></trkpt><trkpt lat="43.4227283" lon="11.3502167"><ele>482.4</ele><time>2026-04-20T13:49:44.027Z</time></trkpt><trkpt lat="43.4226367" lon="11.3501183"><ele>484.0</ele><time>2026-04-20T13:49:46.028Z</time></trkpt><trkpt lat="43.4225733" lon="11.35007"><ele>484.00000000000006</ele><time>2026-04-20T13:49:47.028Z</time></trkpt><trkpt lat="43.4225083" lon="11.3500233"><ele>484.0</ele><time>2026-04-20T13:49:48.027Z</time></trkpt><trkpt lat="43.422435" lon="11.3499783"><ele>484.0</ele><time>2026-04-20T13:49:49.028Z</time></trkpt><trkpt lat="43.4223583" lon="11.3499217"><ele>484.0</ele><time>2026-04-20T13:49:50.028Z</time></trkpt><trkpt lat="43.4222817" lon="11.349855"><ele>484.00000000000006</ele><time>2026-04-20T13:49:51.028Z</time></trkpt><trkpt lat="43.4222067" lon="11.349775"><ele>484.0</ele><time>2026-04-20T13:49:52.028Z</time></trkpt><trkpt lat="43.4221267" lon="11.349685"><ele>486.79999999999995</ele><time>2026-04-20T13:49:53.028Z</time></trkpt><trkpt lat="43.42205" lon="11.3496017"><ele>489.59999999999997</ele><time>2026-04-20T13:49:54.028Z</time></trkpt><trkpt lat="43.42197" lon="11.3495317"><ele>492.4</ele><time>2026-04-20T13:49:55.028Z</time></trkpt><trkpt lat="43.4218867" lon="11.349505"><ele>495.2</ele><time>2026-04-20T13:49:56.028Z</time></trkpt><trkpt lat="43.421795" lon="11.3495033"><ele>498.0</ele><time>2026-04-20T13:49:57.028Z</time></trkpt><trkpt lat="43.4217" lon="11.3495183"><ele>498.0</ele><time>2026-04-20T13:49:58.028Z</time></trkpt><trkpt lat="43.4216083" lon="11.349535"><ele>497.99999999999994</ele><time>2026-04-20T13:49:59.028Z</time></trkpt><trkpt lat="43.4215233" lon="11.3495517"><ele>497.99999999999994</ele><time>2026-04-20T13:50:00.028Z</time></trkpt><trkpt lat="43.421455" lon="11.34952"><ele>498.0</ele><time>2026-04-20T13:50:01.028Z</time></trkpt><trkpt lat="43.4213933" lon="11.3494767"><ele>498.0</ele><time>2026-04-20T13:50:02.028Z</time></trkpt><trkpt lat="43.4213233" lon="11.349315"><ele>498.0</ele><time>2026-04-20T13:50:04.028Z</time></trkpt><trkpt lat="43.4213217" lon="11.349205"><ele>498.0</ele><time>2026-04-20T13:50:05.028Z</time></trkpt><trkpt lat="43.4213183" lon="11.3490867"><ele>498.0</ele><time>2026-04-20T13:50:06.027Z</time></trkpt><trkpt lat="43.42132" lon="11.3489567"><ele>498.0</ele><time>2026-04-20T13:50:07.028Z</time></trkpt><trkpt lat="43.4213267" lon="11.3488283"><ele>498.0</ele><time>2026-04-20T13:50:08.028Z</time></trkpt><trkpt lat="43.4213417" lon="11.3487033"><ele>498.0</ele><time>2026-04-20T13:50:09.028Z</time></trkpt><trkpt lat="43.4213517" lon="11.3485617"><ele>498.59999999999997</ele><time>2026-04-20T13:50:10.027Z</time></trkpt><trkpt lat="43.42137" lon="11.3484233"><ele>499.19999999999993</ele><time>2026-04-20T13:50:11.028Z</time></trkpt><trkpt lat="43.4213867" lon="11.3482833"><ele>499.8</ele><time>2026-04-20T13:50:12.028Z</time></trkpt><trkpt lat="43.4214" lon="11.3481417"><ele>500.4</ele><time>2026-04-20T13:50:13.028Z</time></trkpt><trkpt lat="43.4214083" lon="11.3480067"><ele>501.0</ele><time>2026-04-20T13:50:14.028Z</time></trkpt><trkpt lat="43.4214083" lon="11.34789"><ele>501.0</ele><time>2026-04-20T13:50:15.028Z</time></trkpt><trkpt lat="43.42141" lon="11.3477933"><ele>501.0</ele><time>2026-04-20T13:50:16.028Z</time></trkpt><trkpt lat="43.4213983" lon="11.3476433"><ele>501.0</ele><time>2026-04-20T13:50:18.028Z</time></trkpt><trkpt lat="43.42136" lon="11.347535"><ele>501.0</ele><time>2026-04-20T13:50:20.028Z</time></trkpt><trkpt lat="43.4212583" lon="11.347415"><ele>501.0</ele><time>2026-04-20T13:50:22.028Z</time></trkpt><trkpt lat="43.4211867" lon="11.34737"><ele>501.0</ele><time>2026-04-20T13:50:23.028Z</time></trkpt><trkpt lat="43.4210983" lon="11.34733"><ele>501.0</ele><time>2026-04-20T13:50:24.028Z</time></trkpt><trkpt lat="43.4210117" lon="11.3473017"><ele>501.0</ele><time>2026-04-20T13:50:25.027Z</time></trkpt><trkpt lat="43.4209183" lon="11.3472867"><ele>501.0</ele><time>2026-04-20T13:50:26.028Z</time></trkpt><trkpt lat="43.42082" lon="11.3472717"><ele>501.0</ele><time>2026-04-20T13:50:27.028Z</time></trkpt><trkpt lat="43.42072" lon="11.3472783"><ele>501.0</ele><time>2026-04-20T13:50:28.027Z</time></trkpt><trkpt lat="43.420615" lon="11.3472717"><ele>501.0</ele><time>2026-04-20T13:50:29.028Z</time></trkpt><trkpt lat="43.420515" lon="11.3472583"><ele>501.0</ele><time>2026-04-20T13:50:30.028Z</time></trkpt><trkpt lat="43.4204267" lon="11.34722"><ele>501.0</ele><time>2026-04-20T13:50:31.028Z</time></trkpt><trkpt lat="43.4203417" lon="11.3471583"><ele>501.0</ele><time>2026-04-20T13:50:32.028Z</time></trkpt><trkpt lat="43.4202517" lon="11.3471"><ele>502.20000000000005</ele><time>2026-04-20T13:50:33.028Z</time></trkpt><trkpt lat="43.42016" lon="11.3470467"><ele>503.40000000000003</ele><time>2026-04-20T13:50:34.028Z</time></trkpt><trkpt lat="43.4200583" lon="11.3470033"><ele>504.6</ele><time>2026-04-20T13:50:35.028Z</time></trkpt><trkpt lat="43.419955" lon="11.346975"><ele>505.8</ele><time>2026-04-20T13:50:36.027Z</time></trkpt><trkpt lat="43.4198467" lon="11.3469683"><ele>507.0</ele><time>2026-04-20T13:50:37.027Z</time></trkpt><trkpt lat="43.419735" lon="11.3469767"><ele>505.8</ele><time>2026-04-20T13:50:38.028Z</time></trkpt><trkpt lat="43.4196217" lon="11.3469833"><ele>504.6</ele><time>2026-04-20T13:50:39.028Z</time></trkpt><trkpt lat="43.4195083" lon="11.3469583"><ele>503.40000000000003</ele><time>2026-04-20T13:50:40.028Z</time></trkpt><trkpt lat="43.4194033" lon="11.34691"><ele>502.20000000000005</ele><time>2026-04-20T13:50:41.027Z</time></trkpt><trkpt lat="43.4193067" lon="11.3468483"><ele>501.0</ele><time>2026-04-20T13:50:42.028Z</time></trkpt><trkpt lat="43.4192117" lon="11.3467717"><ele>501.0</ele><time>2026-04-20T13:50:43.028Z</time></trkpt><trkpt lat="43.41912" lon="11.3466817"><ele>501.0</ele><time>2026-04-20T13:50:44.028Z</time></trkpt><trkpt lat="43.4190283" lon="11.3465917"><ele>501.0</ele><time>2026-04-20T13:50:45.028Z</time></trkpt><trkpt lat="43.41893" lon="11.3465167"><ele>501.0</ele><time>2026-04-20T13:50:46.028Z</time></trkpt><trkpt lat="43.4188233" lon="11.3464583"><ele>500.5</ele><time>2026-04-20T13:50:47.027Z</time></trkpt><trkpt lat="43.4187067" lon="11.3464217"><ele>500.0</ele><time>2026-04-20T13:50:48.028Z</time></trkpt><trkpt lat="43.4185867" lon="11.346425"><ele>499.5</ele><time>2026-04-20T13:50:49.028Z</time></trkpt><trkpt lat="43.4184633" lon="11.3464483"><ele>499.0</ele><time>2026-04-20T13:50:50.028Z</time></trkpt><trkpt lat="43.418345" lon="11.3464883"><ele>499.0</ele><time>2026-04-20T13:50:51.028Z</time></trkpt><trkpt lat="43.4182283" lon="11.3465333"><ele>499.0</ele><time>2026-04-20T13:50:52.027Z</time></trkpt><trkpt lat="43.4181133" lon="11.3465833"><ele>499.0</ele><time>2026-04-20T13:50:53.028Z</time></trkpt><trkpt lat="43.417995" lon="11.3466433"><ele>499.0</ele><time>2026-04-20T13:50:54.028Z</time></trkpt><trkpt lat="43.4178733" lon="11.3467033"><ele>502.0</ele><time>2026-04-20T13:50:55.028Z</time></trkpt><trkpt lat="43.4177583" lon="11.3467817"><ele>505.0</ele><time>2026-04-20T13:50:56.028Z</time></trkpt><trkpt lat="43.4176467" lon="11.3468683"><ele>508.0</ele><time>2026-04-20T13:50:57.028Z</time></trkpt><trkpt lat="43.41754" lon="11.346965"><ele>511.0</ele><time>2026-04-20T13:50:58.028Z</time></trkpt><trkpt lat="43.417435" lon="11.34707"><ele>511.0</ele><time>2026-04-20T13:50:59.028Z</time></trkpt><trkpt lat="43.4173317" lon="11.3471817"><ele>511.0</ele><time>2026-04-20T13:51:00.028Z</time></trkpt><trkpt lat="43.4172417" lon="11.3472817"><ele>511.0</ele><time>2026-04-20T13:51:01.028Z</time></trkpt><trkpt lat="43.4171683" lon="11.3474017"><ele>511.0</ele><time>2026-04-20T13:51:02.028Z</time></trkpt><trkpt lat="43.4171117" lon="11.3475533"><ele>511.0</ele><time>2026-04-20T13:51:03.028Z</time></trkpt><trkpt lat="43.4170883" lon="11.347715"><ele>511.0</ele><time>2026-04-20T13:51:04.027Z</time></trkpt><trkpt lat="43.4171017" lon="11.3478783"><ele>511.0</ele><time>2026-04-20T13:51:05.028Z</time></trkpt><trkpt lat="43.4171267" lon="11.3480383"><ele>511.0</ele><time>2026-04-20T13:51:06.028Z</time></trkpt><trkpt lat="43.4171567" lon="11.3481833"><ele>510.00000000000006</ele><time>2026-04-20T13:51:07.027Z</time></trkpt><trkpt lat="43.417185" lon="11.3483167"><ele>509.0</ele><time>2026-04-20T13:51:08.028Z</time></trkpt><trkpt lat="43.4171867" lon="11.348435"><ele>508.0</ele><time>2026-04-20T13:51:09.028Z</time></trkpt><trkpt lat="43.4171617" lon="11.3485417"><ele>507.0</ele><time>2026-04-20T13:51:10.028Z</time></trkpt><trkpt lat="43.4171117" lon="11.34863"><ele>506.00000000000006</ele><time>2026-04-20T13:51:11.028Z</time></trkpt><trkpt lat="43.417035" lon="11.348695"><ele>505.0</ele><time>2026-04-20T13:51:12.028Z</time></trkpt><trkpt lat="43.4169383" lon="11.34874"><ele>505.0</ele><time>2026-04-20T13:51:13.028Z</time></trkpt><trkpt lat="43.416835" lon="11.3487583"><ele>505.0</ele><time>2026-04-20T13:51:14.027Z</time></trkpt><trkpt lat="43.41673" lon="11.34878"><ele>505.0</ele><time>2026-04-20T13:51:15.028Z</time></trkpt><trkpt lat="43.416625" lon="11.34879"><ele>505.0</ele><time>2026-04-20T13:51:16.028Z</time></trkpt><trkpt lat="43.4165267" lon="11.3488017"><ele>505.0</ele><time>2026-04-20T13:51:17.028Z</time></trkpt><trkpt lat="43.41642" lon="11.34881"><ele>505.0</ele><time>2026-04-20T13:51:18.028Z</time></trkpt><trkpt lat="43.41632" lon="11.3488183"><ele>505.0</ele><time>2026-04-20T13:51:19.027Z</time></trkpt><trkpt lat="43.4162083" lon="11.3488333"><ele>505.0</ele><time>2026-04-20T13:51:20.028Z</time></trkpt><trkpt lat="43.416085" lon="11.3488567"><ele>505.0</ele><time>2026-04-20T13:51:21.028Z</time></trkpt><trkpt lat="43.4159667" lon="11.3488883"><ele>501.25</ele><time>2026-04-20T13:51:22.028Z</time></trkpt><trkpt lat="43.41586" lon="11.3489267"><ele>497.5</ele><time>2026-04-20T13:51:23.027Z</time></trkpt><trkpt lat="43.4157383" lon="11.34894"><ele>493.75</ele><time>2026-04-20T13:51:24.028Z</time></trkpt><trkpt lat="43.41561" lon="11.3489317"><ele>490.0</ele><time>2026-04-20T13:51:25.028Z</time></trkpt><trkpt lat="43.4154917" lon="11.34889"><ele>493.0</ele><time>2026-04-20T13:51:26.028Z</time></trkpt><trkpt lat="43.4153683" lon="11.348845"><ele>496.0</ele><time>2026-04-20T13:51:27.027Z</time></trkpt><trkpt lat="43.4152483" lon="11.3488133"><ele>499.0</ele><time>2026-04-20T13:51:28.028Z</time></trkpt><trkpt lat="43.415135" lon="11.3488167"><ele>502.0</ele><time>2026-04-20T13:51:29.028Z</time></trkpt><trkpt lat="43.4150333" lon="11.3488617"><ele>499.25</ele><time>2026-04-20T13:51:30.028Z</time></trkpt><trkpt lat="43.41493" lon="11.3489433"><ele>496.5</ele><time>2026-04-20T13:51:31.028Z</time></trkpt><trkpt lat="43.4148333" lon="11.3490467"><ele>493.75</ele><time>2026-04-20T13:51:32.028Z</time></trkpt><trkpt lat="43.414745" lon="11.3491633"><ele>491.0</ele><time>2026-04-20T13:51:33.028Z</time></trkpt><trkpt lat="43.41467" lon="11.34929"><ele>491.75</ele><time>2026-04-20T13:51:34.027Z</time></trkpt><trkpt lat="43.4146167" lon="11.349435"><ele>492.5</ele><time>2026-04-20T13:51:35.028Z</time></trkpt><trkpt lat="43.4145983" lon="11.34958"><ele>493.25</ele><time>2026-04-20T13:51:36.028Z</time></trkpt><trkpt lat="43.4145933" lon="11.3497417"><ele>494.0</ele><time>2026-04-20T13:51:37.027Z</time></trkpt><trkpt lat="43.4146017" lon="11.3499083"><ele>494.0</ele><time>2026-04-20T13:51:38.027Z</time></trkpt><trkpt lat="43.414595" lon="11.3500667"><ele>494.0</ele><time>2026-04-20T13:51:39.028Z</time></trkpt><trkpt lat="43.41458" lon="11.3502133"><ele>494.0</ele><time>2026-04-20T13:51:40.027Z</time></trkpt><trkpt lat="43.41455" lon="11.3503433"><ele>494.0</ele><time>2026-04-20T13:51:41.028Z</time></trkpt><trkpt lat="43.414495" lon="11.3504417"><ele>494.0</ele><time>2026-04-20T13:51:42.028Z</time></trkpt><trkpt lat="43.4144317" lon="11.35051"><ele>494.0</ele><time>2026-04-20T13:51:43.028Z</time></trkpt><trkpt lat="43.4143483" lon="11.3504967"><ele>494.0</ele><time>2026-04-20T13:51:44.028Z</time></trkpt><trkpt lat="43.41426" lon="11.35045"><ele>494.0</ele><time>2026-04-20T13:51:45.028Z</time></trkpt><trkpt lat="43.4141683" lon="11.3503983"><ele>494.0</ele><time>2026-04-20T13:51:46.028Z</time></trkpt><trkpt lat="43.4140733" lon="11.3503533"><ele>494.0</ele><time>2026-04-20T13:51:47.028Z</time></trkpt><trkpt lat="43.413975" lon="11.350335"><ele>494.0</ele><time>2026-04-20T13:51:48.028Z</time></trkpt><trkpt lat="43.4138717" lon="11.3503667"><ele>494.0</ele><time>2026-04-20T13:51:49.028Z</time></trkpt><trkpt lat="43.413775" lon="11.350435"><ele>494.0</ele><time>2026-04-20T13:51:50.028Z</time></trkpt><trkpt lat="43.4136783" lon="11.3505417"><ele>494.0</ele><time>2026-04-20T13:51:51.028Z</time></trkpt><trkpt lat="43.4135867" lon="11.350655"><ele>490.5</ele><time>2026-04-20T13:51:52.028Z</time></trkpt><trkpt lat="43.4135" lon="11.3507667"><ele>487.0</ele><time>2026-04-20T13:51:53.028Z</time></trkpt><trkpt lat="43.4134167" lon="11.3508667"><ele>483.5</ele><time>2026-04-20T13:51:54.028Z</time></trkpt><trkpt lat="43.4133217" lon="11.3510183"><ele>480.0</ele><time>2026-04-20T13:51:55.028Z</time></trkpt><trkpt lat="43.413225" lon="11.3511567"><ele>480.0</ele><time>2026-04-20T13:51:56.028Z</time></trkpt><trkpt lat="43.4131367" lon="11.351265"><ele>480.0</ele><time>2026-04-20T13:51:57.028Z</time></trkpt><trkpt lat="43.413035" lon="11.3513983"><ele>480.0</ele><time>2026-04-20T13:51:58.028Z</time></trkpt><trkpt lat="43.4129283" lon="11.3515267"><ele>480.0</ele><time>2026-04-20T13:51:59.028Z</time></trkpt><trkpt lat="43.4128183" lon="11.35164"><ele>478.0</ele><time>2026-04-20T13:52:00.027Z</time></trkpt><trkpt lat="43.4126967" lon="11.35172"><ele>476.0</ele><time>2026-04-20T13:52:01.028Z</time></trkpt><trkpt lat="43.4125733" lon="11.3517783"><ele>474.0</ele><time>2026-04-20T13:52:02.027Z</time></trkpt><trkpt lat="43.4124333" lon="11.3518117"><ele>472.0</ele><time>2026-04-20T13:52:03.028Z</time></trkpt><trkpt lat="43.4122867" lon="11.35184"><ele>470.75</ele><time>2026-04-20T13:52:04.027Z</time></trkpt><trkpt lat="43.4121417" lon="11.3518767"><ele>469.5</ele><time>2026-04-20T13:52:05.027Z</time></trkpt><trkpt lat="43.411995" lon="11.35191"><ele>468.25</ele><time>2026-04-20T13:52:06.028Z</time></trkpt><trkpt lat="43.41186" lon="11.3519417"><ele>467.0</ele><time>2026-04-20T13:52:07.028Z</time></trkpt><trkpt lat="43.4117283" lon="11.351975"><ele>467.0</ele><time>2026-04-20T13:52:08.028Z</time></trkpt><trkpt lat="43.4116" lon="11.352005"><ele>467.0</ele><time>2026-04-20T13:52:09.028Z</time></trkpt><trkpt lat="43.411465" lon="11.35203"><ele>467.0</ele><time>2026-04-20T13:52:10.027Z</time></trkpt><trkpt lat="43.4113233" lon="11.35207"><ele>467.0</ele><time>2026-04-20T13:52:11.028Z</time></trkpt><trkpt lat="43.4111833" lon="11.3521033"><ele>468.0</ele><time>2026-04-20T13:52:12.027Z</time></trkpt><trkpt lat="43.4110417" lon="11.3521417"><ele>469.0</ele><time>2026-04-20T13:52:13.028Z</time></trkpt><trkpt lat="43.4109033" lon="11.352185"><ele>470.0</ele><time>2026-04-20T13:52:14.028Z</time></trkpt><trkpt lat="43.41077" lon="11.352215"><ele>471.0</ele><time>2026-04-20T13:52:15.028Z</time></trkpt><trkpt lat="43.4106483" lon="11.3522467"><ele>470.6</ele><time>2026-04-20T13:52:16.028Z</time></trkpt><trkpt lat="43.4105317" lon="11.352275"><ele>470.20000000000005</ele><time>2026-04-20T13:52:17.028Z</time></trkpt><trkpt lat="43.4104367" lon="11.3522967"><ele>469.79999999999995</ele><time>2026-04-20T13:52:18.028Z</time></trkpt><trkpt lat="43.4103517" lon="11.352315"><ele>469.4</ele><time>2026-04-20T13:52:19.028Z</time></trkpt><trkpt lat="43.41028" lon="11.3523233"><ele>469.0</ele><time>2026-04-20T13:52:20.028Z</time></trkpt><trkpt lat="43.410165" lon="11.3523817"><ele>469.00000000000006</ele><time>2026-04-20T13:52:22.028Z</time></trkpt><trkpt lat="43.4101167" lon="11.3524383"><ele>469.0</ele><time>2026-04-20T13:52:23.028Z</time></trkpt><trkpt lat="43.410025" lon="11.3525417"><ele>469.0</ele><time>2026-04-20T13:52:25.028Z</time></trkpt><trkpt lat="43.4099367" lon="11.3526517"><ele>469.0</ele><time>2026-04-20T13:52:27.028Z</time></trkpt><trkpt lat="43.4098917" lon="11.3527183"><ele>469.00000000000006</ele><time>2026-04-20T13:52:28.028Z</time></trkpt><trkpt lat="43.4098483" lon="11.3528017"><ele>469.0</ele><time>2026-04-20T13:52:29.028Z</time></trkpt><trkpt lat="43.40981" lon="11.3528817"><ele>469.00000000000006</ele><time>2026-04-20T13:52:30.028Z</time></trkpt><trkpt lat="43.4097883" lon="11.3529717"><ele>469.0</ele><time>2026-04-20T13:52:31.028Z</time></trkpt><trkpt lat="43.4097817" lon="11.3530667"><ele>469.0</ele><time>2026-04-20T13:52:32.028Z</time></trkpt><trkpt lat="43.4097733" lon="11.353155"><ele>469.0</ele><time>2026-04-20T13:52:33.028Z</time></trkpt><trkpt lat="43.4097517" lon="11.3532367"><ele>469.00000000000006</ele><time>2026-04-20T13:52:34.028Z</time></trkpt><trkpt lat="43.4096667" lon="11.35332"><ele>469.0</ele><time>2026-04-20T13:52:36.028Z</time></trkpt><trkpt lat="43.4095533" lon="11.3533033"><ele>468.79999999999995</ele><time>2026-04-20T13:52:38.028Z</time></trkpt><trkpt lat="43.4094867" lon="11.3532633"><ele>468.59999999999997</ele><time>2026-04-20T13:52:39.028Z</time></trkpt><trkpt lat="43.409405" lon="11.3532233"><ele>468.4</ele><time>2026-04-20T13:52:40.028Z</time></trkpt><trkpt lat="43.4093133" lon="11.35319"><ele>468.2</ele><time>2026-04-20T13:52:41.028Z</time></trkpt><trkpt lat="43.4092217" lon="11.3531783"><ele>468.0</ele><time>2026-04-20T13:52:42.028Z</time></trkpt><trkpt lat="43.4091183" lon="11.3531833"><ele>468.0</ele><time>2026-04-20T13:52:43.028Z</time></trkpt><trkpt lat="43.4090267" lon="11.3532117"><ele>468.0</ele><time>2026-04-20T13:52:44.028Z</time></trkpt><trkpt lat="43.4089417" lon="11.3532483"><ele>468.0</ele><time>2026-04-20T13:52:45.028Z</time></trkpt><trkpt lat="43.4088767" lon="11.3533033"><ele>468.0</ele><time>2026-04-20T13:52:46.028Z</time></trkpt><trkpt lat="43.4088233" lon="11.3533817"><ele>468.0</ele><time>2026-04-20T13:52:47.027Z</time></trkpt><trkpt lat="43.4087817" lon="11.3534717"><ele>468.0</ele><time>2026-04-20T13:52:48.028Z</time></trkpt><trkpt lat="43.4087583" lon="11.353575"><ele>468.5714285714286</ele><time>2026-04-20T13:52:49.027Z</time></trkpt><trkpt lat="43.4087483" lon="11.3536833"><ele>469.1428571428572</ele><time>2026-04-20T13:52:50.027Z</time></trkpt><trkpt lat="43.4087367" lon="11.3537917"><ele>469.7142857142857</ele><time>2026-04-20T13:52:51.028Z</time></trkpt><trkpt lat="43.4087333" lon="11.3538967"><ele>470.28571428571433</ele><time>2026-04-20T13:52:52.028Z</time></trkpt><trkpt lat="43.4087167" lon="11.3539917"><ele>470.8571428571429</ele><time>2026-04-20T13:52:53.028Z</time></trkpt><trkpt lat="43.4086817" lon="11.354075"><ele>471.42857142857144</ele><time>2026-04-20T13:52:54.028Z</time></trkpt><trkpt lat="43.408635" lon="11.3541383"><ele>472.0</ele><time>2026-04-20T13:52:55.028Z</time></trkpt><trkpt lat="43.408565" lon="11.354175"><ele>472.00000000000006</ele><time>2026-04-20T13:52:56.028Z</time></trkpt><trkpt lat="43.4084833" lon="11.3541633"><ele>472.0</ele><time>2026-04-20T13:52:57.028Z</time></trkpt><trkpt lat="43.4084" lon="11.354125"><ele>472.0</ele><time>2026-04-20T13:52:58.028Z</time></trkpt><trkpt lat="43.4083233" lon="11.3540717"><ele>472.0</ele><time>2026-04-20T13:52:59.027Z</time></trkpt><trkpt lat="43.408255" lon="11.35398"><ele>472.00000000000006</ele><time>2026-04-20T13:53:00.028Z</time></trkpt><trkpt lat="43.4081867" lon="11.353895"><ele>472.0</ele><time>2026-04-20T13:53:01.028Z</time></trkpt><trkpt lat="43.408115" lon="11.3538233"><ele>470.83333333333337</ele><time>2026-04-20T13:53:02.028Z</time></trkpt><trkpt lat="43.4080383" lon="11.353785"><ele>469.6666666666667</ele><time>2026-04-20T13:53:03.027Z</time></trkpt><trkpt lat="43.4079517" lon="11.3537817"><ele>468.5</ele><time>2026-04-20T13:53:04.028Z</time></trkpt><trkpt lat="43.4078717" lon="11.3537967"><ele>467.33333333333337</ele><time>2026-04-20T13:53:05.028Z</time></trkpt><trkpt lat="43.4078" lon="11.3538383"><ele>466.1666666666667</ele><time>2026-04-20T13:53:06.028Z</time></trkpt><trkpt lat="43.4077383" lon="11.3539067"><ele>465.0</ele><time>2026-04-20T13:53:07.028Z</time></trkpt><trkpt lat="43.4076867" lon="11.3539917"><ele>465.0</ele><time>2026-04-20T13:53:08.027Z</time></trkpt><trkpt lat="43.40765" lon="11.3540933"><ele>465.0</ele><time>2026-04-20T13:53:09.027Z</time></trkpt><trkpt lat="43.407625" lon="11.354205"><ele>465.0</ele><time>2026-04-20T13:53:10.028Z</time></trkpt><trkpt lat="43.4076" lon="11.35431"><ele>465.0</ele><time>2026-04-20T13:53:11.027Z</time></trkpt><trkpt lat="43.40756" lon="11.3543983"><ele>465.0</ele><time>2026-04-20T13:53:12.028Z</time></trkpt><trkpt lat="43.407505" lon="11.3544567"><ele>465.0</ele><time>2026-04-20T13:53:13.028Z</time></trkpt><trkpt lat="43.4074383" lon="11.3544867"><ele>465.0</ele><time>2026-04-20T13:53:14.028Z</time></trkpt><trkpt lat="43.40736" lon="11.3544617"><ele>465.0</ele><time>2026-04-20T13:53:15.028Z</time></trkpt><trkpt lat="43.40728" lon="11.3544233"><ele>465.0</ele><time>2026-04-20T13:53:16.027Z</time></trkpt><trkpt lat="43.40719" lon="11.3543967"><ele>465.0</ele><time>2026-04-20T13:53:17.028Z</time></trkpt><trkpt lat="43.407095" lon="11.3544033"><ele>465.0</ele><time>2026-04-20T13:53:18.028Z</time></trkpt><trkpt lat="43.4069917" lon="11.3544433"><ele>464.4</ele><time>2026-04-20T13:53:19.028Z</time></trkpt><trkpt lat="43.4068983" lon="11.354505"><ele>463.8</ele><time>2026-04-20T13:53:20.028Z</time></trkpt><trkpt lat="43.406815" lon="11.35457"><ele>463.20000000000005</ele><time>2026-04-20T13:53:21.028Z</time></trkpt><trkpt lat="43.4067383" lon="11.354635"><ele>462.6</ele><time>2026-04-20T13:53:22.028Z</time></trkpt><trkpt lat="43.4066733" lon="11.35471"><ele>462.0</ele><time>2026-04-20T13:53:23.027Z</time></trkpt><trkpt lat="43.4066217" lon="11.35479"><ele>462.0</ele><time>2026-04-20T13:53:24.027Z</time></trkpt><trkpt lat="43.406585" lon="11.3548833"><ele>462.0</ele><time>2026-04-20T13:53:25.028Z</time></trkpt><trkpt lat="43.4065633" lon="11.3549883"><ele>462.0</ele><time>2026-04-20T13:53:26.027Z</time></trkpt><trkpt lat="43.4065567" lon="11.3550983"><ele>462.0</ele><time>2026-04-20T13:53:27.028Z</time></trkpt><trkpt lat="43.4065683" lon="11.3552217"><ele>462.0</ele><time>2026-04-20T13:53:28.027Z</time></trkpt><trkpt lat="43.406585" lon="11.3553533"><ele>462.0</ele><time>2026-04-20T13:53:29.028Z</time></trkpt><trkpt lat="43.4066067" lon="11.3554833"><ele>462.6666666666667</ele><time>2026-04-20T13:53:30.028Z</time></trkpt><trkpt lat="43.4066333" lon="11.3556017"><ele>463.33333333333337</ele><time>2026-04-20T13:53:31.028Z</time></trkpt><trkpt lat="43.4066633" lon="11.3557083"><ele>464.0</ele><time>2026-04-20T13:53:32.028Z</time></trkpt><trkpt lat="43.4066717" lon="11.35581"><ele>464.6666666666667</ele><time>2026-04-20T13:53:33.027Z</time></trkpt><trkpt lat="43.40668" lon="11.355905"><ele>465.33333333333337</ele><time>2026-04-20T13:53:34.028Z</time></trkpt><trkpt lat="43.4066733" lon="11.3559933"><ele>466.0</ele><time>2026-04-20T13:53:35.028Z</time></trkpt><trkpt lat="43.4065867" lon="11.3560833"><ele>466.0</ele><time>2026-04-20T13:53:37.028Z</time></trkpt><trkpt lat="43.4064533" lon="11.3560483"><ele>466.0</ele><time>2026-04-20T13:53:39.028Z</time></trkpt><trkpt lat="43.4063817" lon="11.356"><ele>466.0</ele><time>2026-04-20T13:53:40.028Z</time></trkpt><trkpt lat="43.40631" lon="11.3559283"><ele>466.0</ele><time>2026-04-20T13:53:41.027Z</time></trkpt><trkpt lat="43.406235" lon="11.3558467"><ele>466.0</ele><time>2026-04-20T13:53:42.027Z</time></trkpt><trkpt lat="43.40615" lon="11.35577"><ele>465.4</ele><time>2026-04-20T13:53:43.027Z</time></trkpt><trkpt lat="43.4060667" lon="11.3556883"><ele>464.8</ele><time>2026-04-20T13:53:44.027Z</time></trkpt><trkpt lat="43.405985" lon="11.3556117"><ele>464.19999999999993</ele><time>2026-04-20T13:53:45.027Z</time></trkpt><trkpt lat="43.4059067" lon="11.3555367"><ele>463.59999999999997</ele><time>2026-04-20T13:53:46.027Z</time></trkpt><trkpt lat="43.405825" lon="11.3554783"><ele>463.0</ele><time>2026-04-20T13:53:47.027Z</time></trkpt><trkpt lat="43.405735" lon="11.3554267"><ele>461.83333333333337</ele><time>2026-04-20T13:53:48.027Z</time></trkpt><trkpt lat="43.4056333" lon="11.3554017"><ele>460.6666666666667</ele><time>2026-04-20T13:53:49.026Z</time></trkpt><trkpt lat="43.405545" lon="11.3554067"><ele>459.5</ele><time>2026-04-20T13:53:50.027Z</time></trkpt><trkpt lat="43.4054683" lon="11.3554517"><ele>458.33333333333337</ele><time>2026-04-20T13:53:51.027Z</time></trkpt><trkpt lat="43.4054233" lon="11.3555283"><ele>457.1666666666667</ele><time>2026-04-20T13:53:52.026Z</time></trkpt><trkpt lat="43.4053883" lon="11.3556133"><ele>456.0</ele><time>2026-04-20T13:53:53.027Z</time></trkpt><trkpt lat="43.4053567" lon="11.3557167"><ele>456.0</ele><time>2026-04-20T13:53:54.027Z</time></trkpt><trkpt lat="43.40535" lon="11.3558233"><ele>456.0</ele><time>2026-04-20T13:53:55.027Z</time></trkpt><trkpt lat="43.4053417" lon="11.355925"><ele>456.0</ele><time>2026-04-20T13:53:56.027Z</time></trkpt><trkpt lat="43.4053217" lon="11.35602"><ele>456.0</ele><time>2026-04-20T13:53:57.027Z</time></trkpt><trkpt lat="43.4052183" lon="11.3561"><ele>456.0</ele><time>2026-04-20T13:53:59.026Z</time></trkpt><trkpt lat="43.40515" lon="11.3560867"><ele>456.0</ele><time>2026-04-20T13:54:00.026Z</time></trkpt><trkpt lat="43.405085" lon="11.3560617"><ele>456.0</ele><time>2026-04-20T13:54:01.027Z</time></trkpt><trkpt lat="43.40497" lon="11.3559717"><ele>456.0</ele><time>2026-04-20T13:54:03.027Z</time></trkpt><trkpt lat="43.404915" lon="11.3559117"><ele>456.0</ele><time>2026-04-20T13:54:04.026Z</time></trkpt><trkpt lat="43.404845" lon="11.3558467"><ele>456.0</ele><time>2026-04-20T13:54:05.027Z</time></trkpt><trkpt lat="43.4047717" lon="11.3557833"><ele>456.0</ele><time>2026-04-20T13:54:06.027Z</time></trkpt><trkpt lat="43.4046867" lon="11.3557183"><ele>455.3333333333333</ele><time>2026-04-20T13:54:07.027Z</time></trkpt><trkpt lat="43.4046083" lon="11.3556633"><ele>454.66666666666663</ele><time>2026-04-20T13:54:08.027Z</time></trkpt><trkpt lat="43.4045333" lon="11.355615"><ele>454.0</ele><time>2026-04-20T13:54:09.027Z</time></trkpt><trkpt lat="43.4044533" lon="11.3555783"><ele>453.3333333333333</ele><time>2026-04-20T13:54:10.027Z</time></trkpt><trkpt lat="43.4043583" lon="11.3555517"><ele>452.66666666666663</ele><time>2026-04-20T13:54:11.027Z</time></trkpt><trkpt lat="43.4042683" lon="11.3555383"><ele>452.0</ele><time>2026-04-20T13:54:12.027Z</time></trkpt><trkpt lat="43.4041617" lon="11.3555517"><ele>452.0</ele><time>2026-04-20T13:54:13.027Z</time></trkpt><trkpt lat="43.4040733" lon="11.3555883"><ele>452.00000000000006</ele><time>2026-04-20T13:54:14.026Z</time></trkpt><trkpt lat="43.4039833" lon="11.3556333"><ele>452.00000000000006</ele><time>2026-04-20T13:54:15.027Z</time></trkpt><trkpt lat="43.4039033" lon="11.3556967"><ele>452.0</ele><time>2026-04-20T13:54:16.027Z</time></trkpt><trkpt lat="43.4038283" lon="11.35576"><ele>452.0</ele><time>2026-04-20T13:54:17.027Z</time></trkpt><trkpt lat="43.4037567" lon="11.355825"><ele>451.16666666666663</ele><time>2026-04-20T13:54:18.027Z</time></trkpt><trkpt lat="43.403695" lon="11.35589"><ele>450.3333333333333</ele><time>2026-04-20T13:54:19.027Z</time></trkpt><trkpt lat="43.4036433" lon="11.3559567"><ele>449.5</ele><time>2026-04-20T13:54:20.027Z</time></trkpt><trkpt lat="43.4036067" lon="11.3560283"><ele>448.66666666666663</ele><time>2026-04-20T13:54:21.027Z</time></trkpt><trkpt lat="43.4035883" lon="11.35618"><ele>447.8333333333333</ele><time>2026-04-20T13:54:23.027Z</time></trkpt><trkpt lat="43.4036317" lon="11.35634"><ele>447.0</ele><time>2026-04-20T13:54:25.027Z</time></trkpt><trkpt lat="43.4036817" lon="11.3564217"><ele>447.0</ele><time>2026-04-20T13:54:26.027Z</time></trkpt><trkpt lat="43.4037383" lon="11.3565067"><ele>447.0</ele><time>2026-04-20T13:54:27.027Z</time></trkpt><trkpt lat="43.40379" lon="11.35659"><ele>447.0</ele><time>2026-04-20T13:54:28.027Z</time></trkpt><trkpt lat="43.4038233" lon="11.356685"><ele>447.0</ele><time>2026-04-20T13:54:29.027Z</time></trkpt><trkpt lat="43.4038383" lon="11.3567783"><ele>447.0</ele><time>2026-04-20T13:54:30.027Z</time></trkpt><trkpt lat="43.4038383" lon="11.35688"><ele>447.0</ele><time>2026-04-20T13:54:31.027Z</time></trkpt><trkpt lat="43.4038067" lon="11.3569633"><ele>447.0</ele><time>2026-04-20T13:54:32.027Z</time></trkpt><trkpt lat="43.4037633" lon="11.3570317"><ele>447.0</ele><time>2026-04-20T13:54:33.027Z</time></trkpt><trkpt lat="43.4037083" lon="11.3570833"><ele>447.0</ele><time>2026-04-20T13:54:34.027Z</time></trkpt><trkpt lat="43.4036483" lon="11.357115"><ele>447.0</ele><time>2026-04-20T13:54:35.027Z</time></trkpt><trkpt lat="43.40356" lon="11.3571267"><ele>447.0</ele><time>2026-04-20T13:54:36.026Z</time></trkpt><trkpt lat="43.40347" lon="11.3571217"><ele>447.0</ele><time>2026-04-20T13:54:37.027Z</time></trkpt><trkpt lat="43.4033833" lon="11.3571217"><ele>447.0</ele><time>2026-04-20T13:54:38.026Z</time></trkpt><trkpt lat="43.4032883" lon="11.3571167"><ele>447.00000000000006</ele><time>2026-04-20T13:54:39.027Z</time></trkpt><trkpt lat="43.403195" lon="11.35711"><ele>447.00000000000006</ele><time>2026-04-20T13:54:40.027Z</time></trkpt><trkpt lat="43.403105" lon="11.3571233"><ele>447.0</ele><time>2026-04-20T13:54:41.026Z</time></trkpt><trkpt lat="43.40302" lon="11.3571533"><ele>447.0</ele><time>2026-04-20T13:54:42.027Z</time></trkpt><trkpt lat="43.4029383" lon="11.357205"><ele>446.3333333333333</ele><time>2026-04-20T13:54:43.026Z</time></trkpt><trkpt lat="43.4028667" lon="11.3572783"><ele>445.66666666666663</ele><time>2026-04-20T13:54:44.026Z</time></trkpt><trkpt lat="43.4028083" lon="11.35737"><ele>445.0</ele><time>2026-04-20T13:54:45.027Z</time></trkpt><trkpt lat="43.402765" lon="11.3574733"><ele>444.3333333333333</ele><time>2026-04-20T13:54:46.027Z</time></trkpt><trkpt lat="43.40274" lon="11.3575867"><ele>443.66666666666663</ele><time>2026-04-20T13:54:47.027Z</time></trkpt><trkpt lat="43.4027367" lon="11.3577117"><ele>443.0</ele><time>2026-04-20T13:54:48.027Z</time></trkpt><trkpt lat="43.40275" lon="11.3578433"><ele>443.0</ele><time>2026-04-20T13:54:49.026Z</time></trkpt><trkpt lat="43.4027717" lon="11.35797"><ele>442.99999999999994</ele><time>2026-04-20T13:54:50.027Z</time></trkpt><trkpt lat="43.4027967" lon="11.3581067"><ele>442.99999999999994</ele><time>2026-04-20T13:54:51.027Z</time></trkpt><trkpt lat="43.4028233" lon="11.3582383"><ele>443.0</ele><time>2026-04-20T13:54:52.027Z</time></trkpt><trkpt lat="43.4028517" lon="11.35837"><ele>443.0</ele><time>2026-04-20T13:54:53.027Z</time></trkpt><trkpt lat="43.402875" lon="11.3584967"><ele>442.8333333333333</ele><time>2026-04-20T13:54:54.027Z</time></trkpt><trkpt lat="43.4029" lon="11.3586133"><ele>442.66666666666663</ele><time>2026-04-20T13:54:55.027Z</time></trkpt><trkpt lat="43.4029333" lon="11.35872"><ele>442.5</ele><time>2026-04-20T13:54:56.027Z</time></trkpt><trkpt lat="43.4029733" lon="11.358815"><ele>442.33333333333337</ele><time>2026-04-20T13:54:57.027Z</time></trkpt><trkpt lat="43.4030283" lon="11.358895"><ele>442.1666666666667</ele><time>2026-04-20T13:54:58.027Z</time></trkpt><trkpt lat="43.4030917" lon="11.3589583"><ele>442.0</ele><time>2026-04-20T13:54:59.027Z</time></trkpt><trkpt lat="43.4031717" lon="11.3589967"><ele>442.50000000000006</ele><time>2026-04-20T13:55:00.026Z</time></trkpt><trkpt lat="43.4032633" lon="11.35902"><ele>443.0</ele><time>2026-04-20T13:55:01.027Z</time></trkpt><trkpt lat="43.403355" lon="11.3590483"><ele>443.5</ele><time>2026-04-20T13:55:02.027Z</time></trkpt><trkpt lat="43.4034333" lon="11.3590967"><ele>444.0</ele><time>2026-04-20T13:55:03.027Z</time></trkpt><trkpt lat="43.403505" lon="11.3591633"><ele>444.50000000000006</ele><time>2026-04-20T13:55:04.026Z</time></trkpt><trkpt lat="43.4035583" lon="11.3592483"><ele>445.0</ele><time>2026-04-20T13:55:05.027Z</time></trkpt><trkpt lat="43.4035883" lon="11.3593617"><ele>445.0</ele><time>2026-04-20T13:55:06.027Z</time></trkpt><trkpt lat="43.4036033" lon="11.3594917"><ele>445.0</ele><time>2026-04-20T13:55:07.027Z</time></trkpt><trkpt lat="43.403595" lon="11.3596117"><ele>445.0</ele><time>2026-04-20T13:55:08.027Z</time></trkpt><trkpt lat="43.4035633" lon="11.35973"><ele>445.0</ele><time>2026-04-20T13:55:09.027Z</time></trkpt><trkpt lat="43.4035183" lon="11.3598483"><ele>445.0</ele><time>2026-04-20T13:55:10.027Z</time></trkpt><trkpt lat="43.4034867" lon="11.359975"><ele>445.2</ele><time>2026-04-20T13:55:11.027Z</time></trkpt><trkpt lat="43.403475" lon="11.3601067"><ele>445.4</ele><time>2026-04-20T13:55:12.027Z</time></trkpt><trkpt lat="43.4034833" lon="11.36024"><ele>445.6</ele><time>2026-04-20T13:55:13.027Z</time></trkpt><trkpt lat="43.4035017" lon="11.3603733"><ele>445.8</ele><time>2026-04-20T13:55:14.027Z</time></trkpt><trkpt lat="43.4035067" lon="11.360495"><ele>446.0</ele><time>2026-04-20T13:55:15.026Z</time></trkpt><trkpt lat="43.4034983" lon="11.3606017"><ele>445.99999999999994</ele><time>2026-04-20T13:55:16.027Z</time></trkpt><trkpt lat="43.4034733" lon="11.36069"><ele>446.0</ele><time>2026-04-20T13:55:17.026Z</time></trkpt><trkpt lat="43.4034283" lon="11.360765"><ele>446.0</ele><time>2026-04-20T13:55:18.027Z</time></trkpt><trkpt lat="43.4033633" lon="11.3608283"><ele>446.0</ele><time>2026-04-20T13:55:19.027Z</time></trkpt><trkpt lat="43.40328" lon="11.3608683"><ele>445.99999999999994</ele><time>2026-04-20T13:55:20.027Z</time></trkpt><trkpt lat="43.4031767" lon="11.3608933"><ele>446.0</ele><time>2026-04-20T13:55:21.027Z</time></trkpt><trkpt lat="43.403075" lon="11.3609167"><ele>445.0</ele><time>2026-04-20T13:55:22.027Z</time></trkpt><trkpt lat="43.4029767" lon="11.3609367"><ele>444.0</ele><time>2026-04-20T13:55:23.027Z</time></trkpt><trkpt lat="43.4028817" lon="11.3609417"><ele>443.0</ele><time>2026-04-20T13:55:24.027Z</time></trkpt><trkpt lat="43.40279" lon="11.3609333"><ele>442.0</ele><time>2026-04-20T13:55:25.026Z</time></trkpt><trkpt lat="43.4026983" lon="11.360915"><ele>441.0</ele><time>2026-04-20T13:55:26.026Z</time></trkpt><trkpt lat="43.40261" lon="11.3608883"><ele>441.0</ele><time>2026-04-20T13:55:27.026Z</time></trkpt><trkpt lat="43.4025233" lon="11.3608717"><ele>441.0</ele><time>2026-04-20T13:55:28.027Z</time></trkpt><trkpt lat="43.40243" lon="11.3608767"><ele>441.0</ele><time>2026-04-20T13:55:29.027Z</time></trkpt><trkpt lat="43.4023367" lon="11.3609033"><ele>441.0</ele><time>2026-04-20T13:55:30.026Z</time></trkpt><trkpt lat="43.40224" lon="11.36095"><ele>441.0</ele><time>2026-04-20T13:55:31.026Z</time></trkpt><trkpt lat="43.402155" lon="11.3610117"><ele>441.6</ele><time>2026-04-20T13:55:32.027Z</time></trkpt><trkpt lat="43.402085" lon="11.361085"><ele>442.20000000000005</ele><time>2026-04-20T13:55:33.027Z</time></trkpt><trkpt lat="43.4020167" lon="11.3611667"><ele>442.79999999999995</ele><time>2026-04-20T13:55:34.026Z</time></trkpt><trkpt lat="43.4019483" lon="11.3612583"><ele>443.4</ele><time>2026-04-20T13:55:35.027Z</time></trkpt><trkpt lat="43.401875" lon="11.3613533"><ele>444.0</ele><time>2026-04-20T13:55:36.027Z</time></trkpt><trkpt lat="43.4018033" lon="11.3614417"><ele>444.0</ele><time>2026-04-20T13:55:37.026Z</time></trkpt><trkpt lat="43.4017283" lon="11.3615217"><ele>444.0</ele><time>2026-04-20T13:55:38.026Z</time></trkpt><trkpt lat="43.4016467" lon="11.361595"><ele>444.0</ele><time>2026-04-20T13:55:39.026Z</time></trkpt><trkpt lat="43.401565" lon="11.3616683"><ele>444.0</ele><time>2026-04-20T13:55:40.026Z</time></trkpt><trkpt lat="43.40149" lon="11.3617417"><ele>444.0</ele><time>2026-04-20T13:55:41.026Z</time></trkpt><trkpt lat="43.4014233" lon="11.3618067"><ele>444.0</ele><time>2026-04-20T13:55:42.027Z</time></trkpt><trkpt lat="43.4013633" lon="11.3618767"><ele>444.0</ele><time>2026-04-20T13:55:43.027Z</time></trkpt><trkpt lat="43.4013167" lon="11.3619633"><ele>444.0</ele><time>2026-04-20T13:55:44.027Z</time></trkpt><trkpt lat="43.4012967" lon="11.3620583"><ele>444.0</ele><time>2026-04-20T13:55:45.027Z</time></trkpt><trkpt lat="43.401295" lon="11.3621667"><ele>444.0</ele><time>2026-04-20T13:55:46.026Z</time></trkpt><trkpt lat="43.401315" lon="11.3622717"><ele>444.0</ele><time>2026-04-20T13:55:47.026Z</time></trkpt><trkpt lat="43.4013533" lon="11.36239"><ele>445.0</ele><time>2026-04-20T13:55:48.027Z</time></trkpt><trkpt lat="43.4013867" lon="11.3625283"><ele>446.0</ele><time>2026-04-20T13:55:49.026Z</time></trkpt><trkpt lat="43.4013967" lon="11.3626617"><ele>447.0</ele><time>2026-04-20T13:55:50.026Z</time></trkpt><trkpt lat="43.4013883" lon="11.3627917"><ele>448.0</ele><time>2026-04-20T13:55:51.027Z</time></trkpt><trkpt lat="43.4013633" lon="11.36291"><ele>449.0</ele><time>2026-04-20T13:55:52.027Z</time></trkpt><trkpt lat="43.40133" lon="11.363015"><ele>447.49999999999994</ele><time>2026-04-20T13:55:53.027Z</time></trkpt><trkpt lat="43.4012733" lon="11.363095"><ele>446.0</ele><time>2026-04-20T13:55:54.027Z</time></trkpt><trkpt lat="43.4011983" lon="11.3631567"><ele>444.5</ele><time>2026-04-20T13:55:55.026Z</time></trkpt><trkpt lat="43.4011183" lon="11.3632017"><ele>443.0</ele><time>2026-04-20T13:55:56.027Z</time></trkpt><trkpt lat="43.40104" lon="11.363245"><ele>441.49999999999994</ele><time>2026-04-20T13:55:57.027Z</time></trkpt><trkpt lat="43.4009733" lon="11.3633017"><ele>440.0</ele><time>2026-04-20T13:55:58.027Z</time></trkpt><trkpt lat="43.40091" lon="11.3633767"><ele>439.99999999999994</ele><time>2026-04-20T13:55:59.027Z</time></trkpt><trkpt lat="43.4008533" lon="11.3634633"><ele>440.0</ele><time>2026-04-20T13:56:00.026Z</time></trkpt><trkpt lat="43.400815" lon="11.3635667"><ele>440.0</ele><time>2026-04-20T13:56:01.026Z</time></trkpt><trkpt lat="43.4007883" lon="11.363675"><ele>440.0</ele><time>2026-04-20T13:56:02.026Z</time></trkpt><trkpt lat="43.4007733" lon="11.363785"><ele>439.99999999999994</ele><time>2026-04-20T13:56:03.026Z</time></trkpt><trkpt lat="43.40077" lon="11.3638967"><ele>440.0</ele><time>2026-04-20T13:56:04.026Z</time></trkpt><trkpt lat="43.400775" lon="11.3640017"><ele>440.4</ele><time>2026-04-20T13:56:05.027Z</time></trkpt><trkpt lat="43.4007883" lon="11.3641117"><ele>440.8</ele><time>2026-04-20T13:56:06.027Z</time></trkpt><trkpt lat="43.4008133" lon="11.3642217"><ele>441.20000000000005</ele><time>2026-04-20T13:56:07.027Z</time></trkpt><trkpt lat="43.4008517" lon="11.3643317"><ele>441.6</ele><time>2026-04-20T13:56:08.026Z</time></trkpt><trkpt lat="43.4009" lon="11.3644467"><ele>442.0</ele><time>2026-04-20T13:56:09.027Z</time></trkpt><trkpt lat="43.40095" lon="11.3645683"><ele>442.0</ele><time>2026-04-20T13:56:10.026Z</time></trkpt><trkpt lat="43.4009933" lon="11.3646883"><ele>442.00000000000006</ele><time>2026-04-20T13:56:11.026Z</time></trkpt><trkpt lat="43.4010267" lon="11.3648133"><ele>442.00000000000006</ele><time>2026-04-20T13:56:12.026Z</time></trkpt><trkpt lat="43.40105" lon="11.3649367"><ele>442.0</ele><time>2026-04-20T13:56:13.027Z</time></trkpt><trkpt lat="43.4010633" lon="11.3650567"><ele>442.0</ele><time>2026-04-20T13:56:14.027Z</time></trkpt><trkpt lat="43.4010733" lon="11.3651733"><ele>441.83333333333337</ele><time>2026-04-20T13:56:15.027Z</time></trkpt><trkpt lat="43.4010867" lon="11.3652817"><ele>441.6666666666667</ele><time>2026-04-20T13:56:16.026Z</time></trkpt><trkpt lat="43.4011067" lon="11.3653883"><ele>441.5</ele><time>2026-04-20T13:56:17.027Z</time></trkpt><trkpt lat="43.4011283" lon="11.3654933"><ele>441.33333333333337</ele><time>2026-04-20T13:56:18.027Z</time></trkpt><trkpt lat="43.4011467" lon="11.365605"><ele>441.1666666666667</ele><time>2026-04-20T13:56:19.027Z</time></trkpt><trkpt lat="43.4011667" lon="11.3657217"><ele>441.0</ele><time>2026-04-20T13:56:20.027Z</time></trkpt><trkpt lat="43.4011883" lon="11.3658433"><ele>441.0</ele><time>2026-04-20T13:56:21.027Z</time></trkpt><trkpt lat="43.40121" lon="11.3659733"><ele>441.0</ele><time>2026-04-20T13:56:22.026Z</time></trkpt><trkpt lat="43.4012333" lon="11.3660983"><ele>441.0</ele><time>2026-04-20T13:56:23.026Z</time></trkpt><trkpt lat="43.401255" lon="11.3662233"><ele>441.0</ele><time>2026-04-20T13:56:24.027Z</time></trkpt><trkpt lat="43.4012817" lon="11.3663483"><ele>441.0</ele><time>2026-04-20T13:56:25.027Z</time></trkpt><trkpt lat="43.40131" lon="11.3664717"><ele>439.8</ele><time>2026-04-20T13:56:26.027Z</time></trkpt><trkpt lat="43.4013467" lon="11.366595"><ele>438.6</ele><time>2026-04-20T13:56:27.026Z</time></trkpt><trkpt lat="43.4013933" lon="11.3667167"><ele>437.4</ele><time>2026-04-20T13:56:28.027Z</time></trkpt><trkpt lat="43.4014483" lon="11.3668417"><ele>436.2</ele><time>2026-04-20T13:56:29.027Z</time></trkpt><trkpt lat="43.4015033" lon="11.3669683"><ele>435.0</ele><time>2026-04-20T13:56:30.027Z</time></trkpt><trkpt lat="43.4015483" lon="11.3670967"><ele>434.75</ele><time>2026-04-20T13:56:31.027Z</time></trkpt><trkpt lat="43.401585" lon="11.3672317"><ele>434.5</ele><time>2026-04-20T13:56:32.027Z</time></trkpt><trkpt lat="43.40161" lon="11.3673867"><ele>434.25</ele><time>2026-04-20T13:56:33.027Z</time></trkpt><trkpt lat="43.401625" lon="11.3675533"><ele>434.0</ele><time>2026-04-20T13:56:34.027Z</time></trkpt><trkpt lat="43.4016483" lon="11.3677267"><ele>434.0</ele><time>2026-04-20T13:56:35.027Z</time></trkpt><trkpt lat="43.401665" lon="11.367915"><ele>434.0</ele><time>2026-04-20T13:56:36.027Z</time></trkpt><trkpt lat="43.4016767" lon="11.3681233"><ele>434.0</ele><time>2026-04-20T13:56:37.027Z</time></trkpt><trkpt lat="43.40169" lon="11.3683467"><ele>433.5</ele><time>2026-04-20T13:56:38.027Z</time></trkpt><trkpt lat="43.4017017" lon="11.3685667"><ele>433.0</ele><time>2026-04-20T13:56:39.027Z</time></trkpt><trkpt lat="43.4017117" lon="11.36877"><ele>432.5</ele><time>2026-04-20T13:56:40.027Z</time></trkpt><trkpt lat="43.4017117" lon="11.3689617"><ele>432.0</ele><time>2026-04-20T13:56:41.027Z</time></trkpt><trkpt lat="43.4017" lon="11.36915"><ele>431.5</ele><time>2026-04-20T13:56:42.027Z</time></trkpt><trkpt lat="43.4016783" lon="11.3693383"><ele>431.0</ele><time>2026-04-20T13:56:43.027Z</time></trkpt><trkpt lat="43.401645" lon="11.3695333"><ele>430.5</ele><time>2026-04-20T13:56:44.027Z</time></trkpt><trkpt lat="43.40161" lon="11.3697233"><ele>430.0</ele><time>2026-04-20T13:56:45.027Z</time></trkpt><trkpt lat="43.4015683" lon="11.3699117"><ele>429.75</ele><time>2026-04-20T13:56:46.027Z</time></trkpt><trkpt lat="43.4015183" lon="11.3701033"><ele>429.5</ele><time>2026-04-20T13:56:47.027Z</time></trkpt><trkpt lat="43.40146" lon="11.3702817"><ele>429.25</ele><time>2026-04-20T13:56:48.027Z</time></trkpt><trkpt lat="43.401405" lon="11.3704433"><ele>429.0</ele><time>2026-04-20T13:56:49.027Z</time></trkpt><trkpt lat="43.40136" lon="11.370595"><ele>429.2</ele><time>2026-04-20T13:56:50.026Z</time></trkpt><trkpt lat="43.4013267" lon="11.3707383"><ele>429.4</ele><time>2026-04-20T13:56:51.027Z</time></trkpt><trkpt lat="43.4013033" lon="11.3708783"><ele>429.6</ele><time>2026-04-20T13:56:52.027Z</time></trkpt><trkpt lat="43.40129" lon="11.3710267"><ele>429.8</ele><time>2026-04-20T13:56:53.027Z</time></trkpt><trkpt lat="43.4012783" lon="11.3711767"><ele>430.0</ele><time>2026-04-20T13:56:54.027Z</time></trkpt><trkpt lat="43.4012667" lon="11.371325"><ele>431.0</ele><time>2026-04-20T13:56:55.027Z</time></trkpt><trkpt lat="43.401265" lon="11.3714817"><ele>432.0</ele><time>2026-04-20T13:56:56.027Z</time></trkpt><trkpt lat="43.401265" lon="11.3716533"><ele>433.0</ele><time>2026-04-20T13:56:57.027Z</time></trkpt><trkpt lat="43.4012667" lon="11.371815"><ele>434.0</ele><time>2026-04-20T13:56:58.027Z</time></trkpt><trkpt lat="43.4012717" lon="11.37197"><ele>434.0</ele><time>2026-04-20T13:56:59.027Z</time></trkpt><trkpt lat="43.4012783" lon="11.3721383"><ele>434.0</ele><time>2026-04-20T13:57:00.027Z</time></trkpt><trkpt lat="43.4012817" lon="11.3722967"><ele>434.0</ele><time>2026-04-20T13:57:01.027Z</time></trkpt><trkpt lat="43.4012683" lon="11.37243"><ele>434.0</ele><time>2026-04-20T13:57:02.027Z</time></trkpt><trkpt lat="43.4012383" lon="11.37256"><ele>434.0</ele><time>2026-04-20T13:57:03.027Z</time></trkpt><trkpt lat="43.40119" lon="11.3726817"><ele>434.4</ele><time>2026-04-20T13:57:04.027Z</time></trkpt><trkpt lat="43.4011283" lon="11.3727917"><ele>434.79999999999995</ele><time>2026-04-20T13:57:05.027Z</time></trkpt><trkpt lat="43.4010517" lon="11.372895"><ele>435.20000000000005</ele><time>2026-04-20T13:57:06.026Z</time></trkpt><trkpt lat="43.4009617" lon="11.373"><ele>435.6</ele><time>2026-04-20T13:57:07.026Z</time></trkpt><trkpt lat="43.4008767" lon="11.3731033"><ele>436.0</ele><time>2026-04-20T13:57:08.027Z</time></trkpt><trkpt lat="43.4007967" lon="11.37319"><ele>436.4</ele><time>2026-04-20T13:57:09.027Z</time></trkpt><trkpt lat="43.4007383" lon="11.3732883"><ele>436.8</ele><time>2026-04-20T13:57:10.027Z</time></trkpt><trkpt lat="43.400695" lon="11.3734067"><ele>437.19999999999993</ele><time>2026-04-20T13:57:11.027Z</time></trkpt><trkpt lat="43.4006583" lon="11.373525"><ele>437.59999999999997</ele><time>2026-04-20T13:57:12.027Z</time></trkpt><trkpt lat="43.40064" lon="11.3736533"><ele>438.0</ele><time>2026-04-20T13:57:13.027Z</time></trkpt><trkpt lat="43.4006117" lon="11.3738"><ele>438.2</ele><time>2026-04-20T13:57:14.027Z</time></trkpt><trkpt lat="43.4005767" lon="11.37394"><ele>438.4</ele><time>2026-04-20T13:57:15.026Z</time></trkpt><trkpt lat="43.400545" lon="11.3740617"><ele>438.59999999999997</ele><time>2026-04-20T13:57:16.027Z</time></trkpt><trkpt lat="43.400515" lon="11.3741767"><ele>438.79999999999995</ele><time>2026-04-20T13:57:17.026Z</time></trkpt><trkpt lat="43.4004733" lon="11.374295"><ele>439.0</ele><time>2026-04-20T13:57:18.027Z</time></trkpt><trkpt lat="43.4004167" lon="11.3744033"><ele>439.0</ele><time>2026-04-20T13:57:19.027Z</time></trkpt><trkpt lat="43.40035" lon="11.374515"><ele>439.0</ele><time>2026-04-20T13:57:20.027Z</time></trkpt><trkpt lat="43.4002817" lon="11.374625"><ele>439.0</ele><time>2026-04-20T13:57:21.027Z</time></trkpt><trkpt lat="43.4002083" lon="11.37474"><ele>439.0</ele><time>2026-04-20T13:57:22.026Z</time></trkpt><trkpt lat="43.4001333" lon="11.374855"><ele>439.0</ele><time>2026-04-20T13:57:23.027Z</time></trkpt><trkpt lat="43.4000567" lon="11.3749667"><ele>438.4</ele><time>2026-04-20T13:57:24.027Z</time></trkpt><trkpt lat="43.3999867" lon="11.3750833"><ele>437.79999999999995</ele><time>2026-04-20T13:57:25.027Z</time></trkpt><trkpt lat="43.39992" lon="11.3751933"><ele>437.20000000000005</ele><time>2026-04-20T13:57:26.027Z</time></trkpt><trkpt lat="43.399855" lon="11.3752967"><ele>436.6</ele><time>2026-04-20T13:57:27.027Z</time></trkpt><trkpt lat="43.3997867" lon="11.3754117"><ele>436.0</ele><time>2026-04-20T13:57:28.027Z</time></trkpt><trkpt lat="43.39972" lon="11.3755267"><ele>434.4</ele><time>2026-04-20T13:57:29.027Z</time></trkpt><trkpt lat="43.39965" lon="11.3756517"><ele>432.8</ele><time>2026-04-20T13:57:30.027Z</time></trkpt><trkpt lat="43.3995683" lon="11.37576"><ele>431.19999999999993</ele><time>2026-04-20T13:57:31.027Z</time></trkpt><trkpt lat="43.3994883" lon="11.37584"><ele>429.59999999999997</ele><time>2026-04-20T13:57:32.027Z</time></trkpt><trkpt lat="43.3994017" lon="11.3759"><ele>428.0</ele><time>2026-04-20T13:57:33.027Z</time></trkpt><trkpt lat="43.3993083" lon="11.375945"><ele>428.0</ele><time>2026-04-20T13:57:34.027Z</time></trkpt><trkpt lat="43.399205" lon="11.375985"><ele>428.0</ele><time>2026-04-20T13:57:35.027Z</time></trkpt><trkpt lat="43.399095" lon="11.3760233"><ele>428.0</ele><time>2026-04-20T13:57:36.026Z</time></trkpt><trkpt lat="43.39898" lon="11.3760567"><ele>428.0</ele><time>2026-04-20T13:57:37.026Z</time></trkpt><trkpt lat="43.398865" lon="11.3761"><ele>426.75</ele><time>2026-04-20T13:57:38.027Z</time></trkpt><trkpt lat="43.39875" lon="11.37617"><ele>425.5</ele><time>2026-04-20T13:57:39.027Z</time></trkpt><trkpt lat="43.39864" lon="11.3762367"><ele>424.25</ele><time>2026-04-20T13:57:40.027Z</time></trkpt><trkpt lat="43.3985383" lon="11.3763117"><ele>423.0</ele><time>2026-04-20T13:57:41.026Z</time></trkpt><trkpt lat="43.398445" lon="11.3763983"><ele>422.5</ele><time>2026-04-20T13:57:42.027Z</time></trkpt><trkpt lat="43.3983483" lon="11.3764867"><ele>422.0</ele><time>2026-04-20T13:57:43.027Z</time></trkpt><trkpt lat="43.3982517" lon="11.376585"><ele>421.5</ele><time>2026-04-20T13:57:44.027Z</time></trkpt><trkpt lat="43.398155" lon="11.3766867"><ele>421.0</ele><time>2026-04-20T13:57:45.027Z</time></trkpt><trkpt lat="43.3980617" lon="11.376795"><ele>420.5</ele><time>2026-04-20T13:57:46.027Z</time></trkpt><trkpt lat="43.397975" lon="11.376915"><ele>420.0</ele><time>2026-04-20T13:57:47.027Z</time></trkpt><trkpt lat="43.3978883" lon="11.3770267"><ele>419.5</ele><time>2026-04-20T13:57:48.026Z</time></trkpt><trkpt lat="43.3978" lon="11.3771433"><ele>419.0</ele><time>2026-04-20T13:57:49.026Z</time></trkpt><trkpt lat="43.3977167" lon="11.3772633"><ele>419.0</ele><time>2026-04-20T13:57:50.027Z</time></trkpt><trkpt lat="43.3976383" lon="11.37739"><ele>419.0</ele><time>2026-04-20T13:57:51.027Z</time></trkpt><trkpt lat="43.39756" lon="11.3775183"><ele>419.0</ele><time>2026-04-20T13:57:52.027Z</time></trkpt><trkpt lat="43.397485" lon="11.377645"><ele>419.0</ele><time>2026-04-20T13:57:53.026Z</time></trkpt><trkpt lat="43.3974117" lon="11.37777"><ele>419.0</ele><time>2026-04-20T13:57:54.026Z</time></trkpt><trkpt lat="43.3973417" lon="11.3779"><ele>419.0</ele><time>2026-04-20T13:57:55.027Z</time></trkpt><trkpt lat="43.3972717" lon="11.378035"><ele>419.0</ele><time>2026-04-20T13:57:56.027Z</time></trkpt><trkpt lat="43.3972067" lon="11.3781633"><ele>419.0</ele><time>2026-04-20T13:57:57.027Z</time></trkpt><trkpt lat="43.397135" lon="11.3782867"><ele>418.75</ele><time>2026-04-20T13:57:58.027Z</time></trkpt><trkpt lat="43.3970667" lon="11.3784117"><ele>418.5</ele><time>2026-04-20T13:57:59.027Z</time></trkpt><trkpt lat="43.39699" lon="11.3785467"><ele>418.25</ele><time>2026-04-20T13:58:00.027Z</time></trkpt><trkpt lat="43.3969317" lon="11.37869"><ele>418.0</ele><time>2026-04-20T13:58:01.027Z</time></trkpt><trkpt lat="43.3968733" lon="11.3788467"><ele>417.0</ele><time>2026-04-20T13:58:02.027Z</time></trkpt><trkpt lat="43.3968333" lon="11.3790083"><ele>416.0</ele><time>2026-04-20T13:58:03.027Z</time></trkpt><trkpt lat="43.3967967" lon="11.3791767"><ele>415.0</ele><time>2026-04-20T13:58:04.027Z</time></trkpt><trkpt lat="43.3967617" lon="11.3793433"><ele>414.0</ele><time>2026-04-20T13:58:05.027Z</time></trkpt><trkpt lat="43.3967333" lon="11.3795167"><ele>412.75</ele><time>2026-04-20T13:58:06.027Z</time></trkpt><trkpt lat="43.396695" lon="11.379685"><ele>411.5</ele><time>2026-04-20T13:58:07.026Z</time></trkpt><trkpt lat="43.39666" lon="11.3798567"><ele>410.25</ele><time>2026-04-20T13:58:08.026Z</time></trkpt><trkpt lat="43.396635" lon="11.3800167"><ele>409.0</ele><time>2026-04-20T13:58:09.027Z</time></trkpt><trkpt lat="43.3966067" lon="11.380165"><ele>409.0</ele><time>2026-04-20T13:58:10.026Z</time></trkpt><trkpt lat="43.3965733" lon="11.3803117"><ele>409.0</ele><time>2026-04-20T13:58:11.027Z</time></trkpt><trkpt lat="43.39653" lon="11.3804617"><ele>409.0</ele><time>2026-04-20T13:58:12.026Z</time></trkpt><trkpt lat="43.3964717" lon="11.380605"><ele>409.0</ele><time>2026-04-20T13:58:13.027Z</time></trkpt><trkpt lat="43.3963967" lon="11.3807317"><ele>409.75</ele><time>2026-04-20T13:58:14.026Z</time></trkpt><trkpt lat="43.3963083" lon="11.3808417"><ele>410.5</ele><time>2026-04-20T13:58:15.026Z</time></trkpt><trkpt lat="43.3962067" lon="11.380935"><ele>411.25</ele><time>2026-04-20T13:58:16.027Z</time></trkpt><trkpt lat="43.396095" lon="11.381"><ele>412.0</ele><time>2026-04-20T13:58:17.027Z</time></trkpt><trkpt lat="43.3959783" lon="11.3810417"><ele>412.0</ele><time>2026-04-20T13:58:18.027Z</time></trkpt><trkpt lat="43.3958567" lon="11.3810567"><ele>412.0</ele><time>2026-04-20T13:58:19.027Z</time></trkpt><trkpt lat="43.39573" lon="11.3810533"><ele>412.0</ele><time>2026-04-20T13:58:20.026Z</time></trkpt><trkpt lat="43.3956" lon="11.38104"><ele>412.0</ele><time>2026-04-20T13:58:21.027Z</time></trkpt><trkpt lat="43.395465" lon="11.3810233"><ele>413.0</ele><time>2026-04-20T13:58:22.027Z</time></trkpt><trkpt lat="43.3953267" lon="11.3810067"><ele>414.0</ele><time>2026-04-20T13:58:23.026Z</time></trkpt><trkpt lat="43.395185" lon="11.3809933"><ele>415.0</ele><time>2026-04-20T13:58:24.027Z</time></trkpt><trkpt lat="43.39504" lon="11.3809883"><ele>416.0</ele><time>2026-04-20T13:58:25.026Z</time></trkpt><trkpt lat="43.3949" lon="11.38099"><ele>416.0</ele><time>2026-04-20T13:58:26.027Z</time></trkpt><trkpt lat="43.3947583" lon="11.3810067"><ele>416.0</ele><time>2026-04-20T13:58:27.027Z</time></trkpt><trkpt lat="43.3946117" lon="11.3810333"><ele>416.0</ele><time>2026-04-20T13:58:28.026Z</time></trkpt><trkpt lat="43.3944617" lon="11.38107"><ele>416.0</ele><time>2026-04-20T13:58:29.026Z</time></trkpt><trkpt lat="43.3943133" lon="11.381115"><ele>415.75</ele><time>2026-04-20T13:58:30.027Z</time></trkpt><trkpt lat="43.394165" lon="11.38117"><ele>415.5</ele><time>2026-04-20T13:58:31.026Z</time></trkpt><trkpt lat="43.39402" lon="11.3812317"><ele>415.25</ele><time>2026-04-20T13:58:32.027Z</time></trkpt><trkpt lat="43.3938867" lon="11.3813"><ele>415.0</ele><time>2026-04-20T13:58:33.027Z</time></trkpt><trkpt lat="43.3937583" lon="11.38137"><ele>416.5</ele><time>2026-04-20T13:58:34.027Z</time></trkpt><trkpt lat="43.3936317" lon="11.3814583"><ele>418.0</ele><time>2026-04-20T13:58:35.027Z</time></trkpt><trkpt lat="43.393505" lon="11.3815517"><ele>419.5</ele><time>2026-04-20T13:58:36.027Z</time></trkpt><trkpt lat="43.3933767" lon="11.381645"><ele>421.0</ele><time>2026-04-20T13:58:37.027Z</time></trkpt><trkpt lat="43.3932483" lon="11.3817433"><ele>421.0</ele><time>2026-04-20T13:58:38.027Z</time></trkpt><trkpt lat="43.3931167" lon="11.3818417"><ele>421.0</ele><time>2026-04-20T13:58:39.027Z</time></trkpt><trkpt lat="43.3929883" lon="11.3819433"><ele>421.0</ele><time>2026-04-20T13:58:40.027Z</time></trkpt><trkpt lat="43.3928617" lon="11.38204"><ele>421.0</ele><time>2026-04-20T13:58:41.027Z</time></trkpt><trkpt lat="43.3927417" lon="11.3821367"><ele>422.0</ele><time>2026-04-20T13:58:42.026Z</time></trkpt><trkpt lat="43.3926167" lon="11.3822483"><ele>423.0</ele><time>2026-04-20T13:58:43.026Z</time></trkpt><trkpt lat="43.39249" lon="11.382355"><ele>424.0</ele><time>2026-04-20T13:58:44.027Z</time></trkpt><trkpt lat="43.3923667" lon="11.3824717"><ele>425.0</ele><time>2026-04-20T13:58:45.027Z</time></trkpt><trkpt lat="43.392265" lon="11.3825733"><ele>425.0</ele><time>2026-04-20T13:58:46.027Z</time></trkpt><trkpt lat="43.3921717" lon="11.3826983"><ele>425.0</ele><time>2026-04-20T13:58:47.027Z</time></trkpt><trkpt lat="43.3920967" lon="11.3828417"><ele>425.0</ele><time>2026-04-20T13:58:48.027Z</time></trkpt><trkpt lat="43.3920317" lon="11.38302"><ele>425.0</ele><time>2026-04-20T13:58:49.026Z</time></trkpt><trkpt lat="43.39198" lon="11.38321"><ele>425.0</ele><time>2026-04-20T13:58:50.026Z</time></trkpt><trkpt lat="43.3919533" lon="11.3834083"><ele>425.0</ele><time>2026-04-20T13:58:51.026Z</time></trkpt><trkpt lat="43.3919333" lon="11.3836033"><ele>425.0</ele><time>2026-04-20T13:58:52.026Z</time></trkpt><trkpt lat="43.3919" lon="11.3837883"><ele>425.0</ele><time>2026-04-20T13:58:53.026Z</time></trkpt><trkpt lat="43.3918533" lon="11.383955"><ele>425.0</ele><time>2026-04-20T13:58:54.026Z</time></trkpt><trkpt lat="43.39179" lon="11.38411"><ele>425.0</ele><time>2026-04-20T13:58:55.026Z</time></trkpt><trkpt lat="43.3917117" lon="11.3842433"><ele>425.0</ele><time>2026-04-20T13:58:56.026Z</time></trkpt><trkpt lat="43.3916133" lon="11.3843533"><ele>425.0</ele><time>2026-04-20T13:58:57.026Z</time></trkpt><trkpt lat="43.3915017" lon="11.3844617"><ele>425.0</ele><time>2026-04-20T13:58:58.026Z</time></trkpt><trkpt lat="43.3913917" lon="11.3845583"><ele>425.0</ele><time>2026-04-20T13:58:59.026Z</time></trkpt><trkpt lat="43.3912683" lon="11.3846583"><ele>425.0</ele><time>2026-04-20T13:59:00.026Z</time></trkpt><trkpt lat="43.3911517" lon="11.384755"><ele>425.0</ele><time>2026-04-20T13:59:01.026Z</time></trkpt><trkpt lat="43.391035" lon="11.3848467"><ele>424.75</ele><time>2026-04-20T13:59:02.026Z</time></trkpt><trkpt lat="43.3909183" lon="11.384945"><ele>424.5</ele><time>2026-04-20T13:59:03.026Z</time></trkpt><trkpt lat="43.3907883" lon="11.38504"><ele>424.25</ele><time>2026-04-20T13:59:04.026Z</time></trkpt><trkpt lat="43.3906683" lon="11.3851367"><ele>424.0</ele><time>2026-04-20T13:59:05.026Z</time></trkpt><trkpt lat="43.39055" lon="11.3852317"><ele>423.75</ele><time>2026-04-20T13:59:06.025Z</time></trkpt><trkpt lat="43.3904333" lon="11.3853167"><ele>423.5</ele><time>2026-04-20T13:59:07.026Z</time></trkpt><trkpt lat="43.3903167" lon="11.3853917"><ele>423.25</ele><time>2026-04-20T13:59:08.026Z</time></trkpt><trkpt lat="43.3902167" lon="11.3854617"><ele>423.0</ele><time>2026-04-20T13:59:09.026Z</time></trkpt><trkpt lat="43.39012" lon="11.385525"><ele>422.8333333333333</ele><time>2026-04-20T13:59:10.026Z</time></trkpt><trkpt lat="43.39003" lon="11.3855833"><ele>422.66666666666663</ele><time>2026-04-20T13:59:11.025Z</time></trkpt><trkpt lat="43.3899517" lon="11.3856383"><ele>422.5</ele><time>2026-04-20T13:59:12.026Z</time></trkpt><trkpt lat="43.38989" lon="11.3856917"><ele>422.3333333333333</ele><time>2026-04-20T13:59:13.026Z</time></trkpt><trkpt lat="43.389835" lon="11.3857567"><ele>422.16666666666663</ele><time>2026-04-20T13:59:14.026Z</time></trkpt><trkpt lat="43.3897917" lon="11.38584"><ele>422.0</ele><time>2026-04-20T13:59:15.026Z</time></trkpt><trkpt lat="43.3897617" lon="11.3859483"><ele>422.0</ele><time>2026-04-20T13:59:16.025Z</time></trkpt><trkpt lat="43.3897333" lon="11.3860617"><ele>422.0</ele><time>2026-04-20T13:59:17.026Z</time></trkpt><trkpt lat="43.3897017" lon="11.3861883"><ele>422.0</ele><time>2026-04-20T13:59:18.026Z</time></trkpt><trkpt lat="43.3896567" lon="11.3863367"><ele>422.0</ele><time>2026-04-20T13:59:19.026Z</time></trkpt><trkpt lat="43.3895967" lon="11.38649"><ele>422.0</ele><time>2026-04-20T13:59:20.025Z</time></trkpt><trkpt lat="43.3895283" lon="11.3866283"><ele>422.0</ele><time>2026-04-20T13:59:21.026Z</time></trkpt><trkpt lat="43.3894517" lon="11.3867667"><ele>422.0</ele><time>2026-04-20T13:59:22.026Z</time></trkpt><trkpt lat="43.3893883" lon="11.3869067"><ele>422.0</ele><time>2026-04-20T13:59:23.025Z</time></trkpt><trkpt lat="43.3893167" lon="11.387055"><ele>422.0</ele><time>2026-04-20T13:59:24.026Z</time></trkpt><trkpt lat="43.3892433" lon="11.38721"><ele>422.0</ele><time>2026-04-20T13:59:25.025Z</time></trkpt><trkpt lat="43.3891683" lon="11.38737"><ele>422.0</ele><time>2026-04-20T13:59:26.026Z</time></trkpt><trkpt lat="43.3890983" lon="11.3875417"><ele>422.0</ele><time>2026-04-20T13:59:27.026Z</time></trkpt><trkpt lat="43.3890317" lon="11.3877167"><ele>422.0</ele><time>2026-04-20T13:59:28.026Z</time></trkpt><trkpt lat="43.3889633" lon="11.3878917"><ele>420.75</ele><time>2026-04-20T13:59:29.025Z</time></trkpt><trkpt lat="43.38889" lon="11.3880667"><ele>419.5</ele><time>2026-04-20T13:59:30.026Z</time></trkpt><trkpt lat="43.388815" lon="11.3882383"><ele>418.25</ele><time>2026-04-20T13:59:31.025Z</time></trkpt><trkpt lat="43.3887383" lon="11.388405"><ele>417.0</ele><time>2026-04-20T13:59:32.026Z</time></trkpt><trkpt lat="43.3886633" lon="11.3885717"><ele>419.5</ele><time>2026-04-20T13:59:33.026Z</time></trkpt><trkpt lat="43.38859" lon="11.3887367"><ele>422.0</ele><time>2026-04-20T13:59:34.026Z</time></trkpt><trkpt lat="43.388515" lon="11.3889017"><ele>424.5</ele><time>2026-04-20T13:59:35.026Z</time></trkpt><trkpt lat="43.3884433" lon="11.3890667"><ele>427.0</ele><time>2026-04-20T13:59:36.026Z</time></trkpt><trkpt lat="43.388375" lon="11.3892317"><ele>427.0</ele><time>2026-04-20T13:59:37.026Z</time></trkpt><trkpt lat="43.3883083" lon="11.3893967"><ele>427.0</ele><time>2026-04-20T13:59:38.026Z</time></trkpt><trkpt lat="43.3882417" lon="11.3895667"><ele>427.0</ele><time>2026-04-20T13:59:39.026Z</time></trkpt><trkpt lat="43.3881867" lon="11.38974"><ele>427.0</ele><time>2026-04-20T13:59:40.026Z</time></trkpt><trkpt lat="43.3881467" lon="11.38991"><ele>427.20000000000005</ele><time>2026-04-20T13:59:41.026Z</time></trkpt><trkpt lat="43.3881183" lon="11.3900683"><ele>427.40000000000003</ele><time>2026-04-20T13:59:42.025Z</time></trkpt><trkpt lat="43.3880967" lon="11.3902167"><ele>427.59999999999997</ele><time>2026-04-20T13:59:43.026Z</time></trkpt><trkpt lat="43.3880667" lon="11.3903567"><ele>427.79999999999995</ele><time>2026-04-20T13:59:44.026Z</time></trkpt><trkpt lat="43.3880217" lon="11.3904883"><ele>428.0</ele><time>2026-04-20T13:59:45.026Z</time></trkpt><trkpt lat="43.38796" lon="11.3906083"><ele>430.0</ele><time>2026-04-20T13:59:46.026Z</time></trkpt><trkpt lat="43.387885" lon="11.3907233"><ele>432.0</ele><time>2026-04-20T13:59:47.026Z</time></trkpt><trkpt lat="43.3878" lon="11.3908417"><ele>434.0</ele><time>2026-04-20T13:59:48.026Z</time></trkpt><trkpt lat="43.3877167" lon="11.390965"><ele>436.0</ele><time>2026-04-20T13:59:49.026Z</time></trkpt><trkpt lat="43.3876317" lon="11.3910917"><ele>436.0</ele><time>2026-04-20T13:59:50.026Z</time></trkpt><trkpt lat="43.3875483" lon="11.3912183"><ele>436.0</ele><time>2026-04-20T13:59:51.025Z</time></trkpt><trkpt lat="43.387465" lon="11.391345"><ele>436.0</ele><time>2026-04-20T13:59:52.026Z</time></trkpt><trkpt lat="43.387385" lon="11.3914733"><ele>436.0</ele><time>2026-04-20T13:59:53.026Z</time></trkpt><trkpt lat="43.3873033" lon="11.391605"><ele>435.5</ele><time>2026-04-20T13:59:54.026Z</time></trkpt><trkpt lat="43.3872217" lon="11.3917317"><ele>435.0</ele><time>2026-04-20T13:59:55.025Z</time></trkpt><trkpt lat="43.3871433" lon="11.3918533"><ele>434.5</ele><time>2026-04-20T13:59:56.026Z</time></trkpt><trkpt lat="43.387065" lon="11.3919717"><ele>434.0</ele><time>2026-04-20T13:59:57.026Z</time></trkpt><trkpt lat="43.3869867" lon="11.392085"><ele>433.25</ele><time>2026-04-20T13:59:58.026Z</time></trkpt><trkpt lat="43.386905" lon="11.3921983"><ele>432.5</ele><time>2026-04-20T13:59:59.026Z</time></trkpt><trkpt lat="43.3868167" lon="11.3923"><ele>431.75</ele><time>2026-04-20T14:00:00.026Z</time></trkpt><trkpt lat="43.3867217" lon="11.3923917"><ele>431.0</ele><time>2026-04-20T14:00:01.025Z</time></trkpt><trkpt lat="43.3866217" lon="11.3924783"><ele>431.0</ele><time>2026-04-20T14:00:02.026Z</time></trkpt><trkpt lat="43.3865233" lon="11.39257"><ele>431.0</ele><time>2026-04-20T14:00:03.026Z</time></trkpt><trkpt lat="43.386425" lon="11.3926633"><ele>431.0</ele><time>2026-04-20T14:00:04.026Z</time></trkpt><trkpt lat="43.3863283" lon="11.392765"><ele>431.0</ele><time>2026-04-20T14:00:05.026Z</time></trkpt><trkpt lat="43.386235" lon="11.39288"><ele>430.25</ele><time>2026-04-20T14:00:06.026Z</time></trkpt><trkpt lat="43.3861467" lon="11.3930067"><ele>429.5</ele><time>2026-04-20T14:00:07.026Z</time></trkpt><trkpt lat="43.38606" lon="11.3931367"><ele>428.75</ele><time>2026-04-20T14:00:08.026Z</time></trkpt><trkpt lat="43.3859717" lon="11.3932717"><ele>428.0</ele><time>2026-04-20T14:00:09.026Z</time></trkpt><trkpt lat="43.3858783" lon="11.3934083"><ele>428.0</ele><time>2026-04-20T14:00:10.026Z</time></trkpt><trkpt lat="43.385785" lon="11.3935467"><ele>428.0</ele><time>2026-04-20T14:00:11.025Z</time></trkpt><trkpt lat="43.3856933" lon="11.3936783"><ele>428.0</ele><time>2026-04-20T14:00:12.026Z</time></trkpt><trkpt lat="43.38561" lon="11.3938083"><ele>428.0</ele><time>2026-04-20T14:00:13.026Z</time></trkpt><trkpt lat="43.385515" lon="11.3939417"><ele>427.25</ele><time>2026-04-20T14:00:14.026Z</time></trkpt><trkpt lat="43.3854267" lon="11.394075"><ele>426.5</ele><time>2026-04-20T14:00:15.026Z</time></trkpt><trkpt lat="43.3853383" lon="11.394205"><ele>425.75</ele><time>2026-04-20T14:00:16.026Z</time></trkpt><trkpt lat="43.38525" lon="11.394325"><ele>425.0</ele><time>2026-04-20T14:00:17.026Z</time></trkpt><trkpt lat="43.3851617" lon="11.3944633"><ele>425.0</ele><time>2026-04-20T14:00:18.026Z</time></trkpt><trkpt lat="43.3850733" lon="11.3946033"><ele>425.0</ele><time>2026-04-20T14:00:19.025Z</time></trkpt><trkpt lat="43.3849883" lon="11.3947333"><ele>425.0</ele><time>2026-04-20T14:00:20.026Z</time></trkpt><trkpt lat="43.3849033" lon="11.3948717"><ele>425.0</ele><time>2026-04-20T14:00:21.026Z</time></trkpt><trkpt lat="43.3848183" lon="11.3950067"><ele>424.5</ele><time>2026-04-20T14:00:22.026Z</time></trkpt><trkpt lat="43.38473" lon="11.3951283"><ele>424.0</ele><time>2026-04-20T14:00:23.026Z</time></trkpt><trkpt lat="43.3846383" lon="11.3952333"><ele>423.5</ele><time>2026-04-20T14:00:24.026Z</time></trkpt><trkpt lat="43.3845367" lon="11.3953183"><ele>423.0</ele><time>2026-04-20T14:00:25.026Z</time></trkpt><trkpt lat="43.384425" lon="11.3953833"><ele>422.75</ele><time>2026-04-20T14:00:26.026Z</time></trkpt><trkpt lat="43.3843083" lon="11.3954367"><ele>422.5</ele><time>2026-04-20T14:00:27.026Z</time></trkpt><trkpt lat="43.3841883" lon="11.3954817"><ele>422.25</ele><time>2026-04-20T14:00:28.026Z</time></trkpt><trkpt lat="43.3840667" lon="11.3955233"><ele>422.0</ele><time>2026-04-20T14:00:29.026Z</time></trkpt><trkpt lat="43.3839467" lon="11.3955667"><ele>421.0</ele><time>2026-04-20T14:00:30.026Z</time></trkpt><trkpt lat="43.383825" lon="11.3956117"><ele>420.0</ele><time>2026-04-20T14:00:31.026Z</time></trkpt><trkpt lat="43.3837033" lon="11.3956567"><ele>419.0</ele><time>2026-04-20T14:00:32.026Z</time></trkpt><trkpt lat="43.3835867" lon="11.3957017"><ele>418.0</ele><time>2026-04-20T14:00:33.025Z</time></trkpt><trkpt lat="43.3834717" lon="11.3957417"><ele>418.0</ele><time>2026-04-20T14:00:34.026Z</time></trkpt><trkpt lat="43.3833533" lon="11.395785"><ele>418.0</ele><time>2026-04-20T14:00:35.026Z</time></trkpt><trkpt lat="43.383235" lon="11.3958317"><ele>418.0</ele><time>2026-04-20T14:00:36.026Z</time></trkpt><trkpt lat="43.3831167" lon="11.3958817"><ele>418.0</ele><time>2026-04-20T14:00:37.025Z</time></trkpt><trkpt lat="43.3829983" lon="11.3959283"><ele>417.0</ele><time>2026-04-20T14:00:38.026Z</time></trkpt><trkpt lat="43.3828767" lon="11.3959733"><ele>416.0</ele><time>2026-04-20T14:00:39.026Z</time></trkpt><trkpt lat="43.3827533" lon="11.3960167"><ele>415.0</ele><time>2026-04-20T14:00:40.026Z</time></trkpt><trkpt lat="43.3826283" lon="11.3960533"><ele>414.0</ele><time>2026-04-20T14:00:41.026Z</time></trkpt><trkpt lat="43.3825017" lon="11.3960867"><ele>414.0</ele><time>2026-04-20T14:00:42.025Z</time></trkpt><trkpt lat="43.382375" lon="11.3961167"><ele>414.0</ele><time>2026-04-20T14:00:43.026Z</time></trkpt><trkpt lat="43.3822467" lon="11.3961433"><ele>414.0</ele><time>2026-04-20T14:00:44.026Z</time></trkpt><trkpt lat="43.38212" lon="11.39617"><ele>414.0</ele><time>2026-04-20T14:00:45.026Z</time></trkpt><trkpt lat="43.3819983" lon="11.3961933"><ele>413.0</ele><time>2026-04-20T14:00:46.025Z</time></trkpt><trkpt lat="43.3818733" lon="11.3962183"><ele>412.0</ele><time>2026-04-20T14:00:47.026Z</time></trkpt><trkpt lat="43.381745" lon="11.39624"><ele>411.0</ele><time>2026-04-20T14:00:48.026Z</time></trkpt><trkpt lat="43.3816167" lon="11.39626"><ele>410.0</ele><time>2026-04-20T14:00:49.026Z</time></trkpt><trkpt lat="43.381485" lon="11.3962767"><ele>409.5</ele><time>2026-04-20T14:00:50.026Z</time></trkpt><trkpt lat="43.3813483" lon="11.3962833"><ele>409.0</ele><time>2026-04-20T14:00:51.026Z</time></trkpt><trkpt lat="43.3812017" lon="11.3962767"><ele>408.5</ele><time>2026-04-20T14:00:52.026Z</time></trkpt><trkpt lat="43.3810617" lon="11.3962767"><ele>408.0</ele><time>2026-04-20T14:00:53.026Z</time></trkpt><trkpt lat="43.3809183" lon="11.39628"><ele>408.0</ele><time>2026-04-20T14:00:54.026Z</time></trkpt><trkpt lat="43.3807717" lon="11.3962967"><ele>408.0</ele><time>2026-04-20T14:00:55.026Z</time></trkpt><trkpt lat="43.3806233" lon="11.3963317"><ele>408.0</ele><time>2026-04-20T14:00:56.026Z</time></trkpt><trkpt lat="43.3804783" lon="11.3963683"><ele>408.0</ele><time>2026-04-20T14:00:57.026Z</time></trkpt><trkpt lat="43.3803267" lon="11.396405"><ele>406.66666666666663</ele><time>2026-04-20T14:00:58.026Z</time></trkpt><trkpt lat="43.380175" lon="11.396445"><ele>405.3333333333333</ele><time>2026-04-20T14:00:59.025Z</time></trkpt><trkpt lat="43.380025" lon="11.3964817"><ele>404.0</ele><time>2026-04-20T14:01:00.026Z</time></trkpt><trkpt lat="43.379875" lon="11.39652"><ele>404.0</ele><time>2026-04-20T14:01:01.026Z</time></trkpt><trkpt lat="43.3797267" lon="11.3965567"><ele>404.0</ele><time>2026-04-20T14:01:02.026Z</time></trkpt><trkpt lat="43.3795783" lon="11.3965967"><ele>404.0</ele><time>2026-04-20T14:01:03.026Z</time></trkpt><trkpt lat="43.3794333" lon="11.3966383"><ele>402.66666666666663</ele><time>2026-04-20T14:01:04.026Z</time></trkpt><trkpt lat="43.3792883" lon="11.3966817"><ele>401.33333333333337</ele><time>2026-04-20T14:01:05.026Z</time></trkpt><trkpt lat="43.3791417" lon="11.39673"><ele>400.0</ele><time>2026-04-20T14:01:06.025Z</time></trkpt><trkpt lat="43.37899" lon="11.3967817"><ele>398.0</ele><time>2026-04-20T14:01:07.026Z</time></trkpt><trkpt lat="43.3788383" lon="11.3968333"><ele>396.0</ele><time>2026-04-20T14:01:08.026Z</time></trkpt><trkpt lat="43.378685" lon="11.396885"><ele>394.0</ele><time>2026-04-20T14:01:09.026Z</time></trkpt><trkpt lat="43.3785317" lon="11.39694"><ele>394.0</ele><time>2026-04-20T14:01:10.026Z</time></trkpt><trkpt lat="43.3783767" lon="11.3969933"><ele>394.0</ele><time>2026-04-20T14:01:11.025Z</time></trkpt><trkpt lat="43.3782233" lon="11.3970433"><ele>394.0</ele><time>2026-04-20T14:01:12.026Z</time></trkpt><trkpt lat="43.3780767" lon="11.3970867"><ele>392.75</ele><time>2026-04-20T14:01:13.026Z</time></trkpt><trkpt lat="43.3779317" lon="11.3971167"><ele>391.5</ele><time>2026-04-20T14:01:14.026Z</time></trkpt><trkpt lat="43.37779" lon="11.3971383"><ele>390.25</ele><time>2026-04-20T14:01:15.025Z</time></trkpt><trkpt lat="43.37765" lon="11.3971667"><ele>389.0</ele><time>2026-04-20T14:01:16.025Z</time></trkpt><trkpt lat="43.37752" lon="11.39722"><ele>388.5</ele><time>2026-04-20T14:01:17.026Z</time></trkpt><trkpt lat="43.3773933" lon="11.3972933"><ele>388.0</ele><time>2026-04-20T14:01:18.026Z</time></trkpt><trkpt lat="43.377265" lon="11.3973867"><ele>387.5</ele><time>2026-04-20T14:01:19.026Z</time></trkpt><trkpt lat="43.3771417" lon="11.397495"><ele>387.0</ele><time>2026-04-20T14:01:20.026Z</time></trkpt><trkpt lat="43.3770267" lon="11.3976083"><ele>387.0</ele><time>2026-04-20T14:01:21.026Z</time></trkpt><trkpt lat="43.37692" lon="11.39772"><ele>387.0</ele><time>2026-04-20T14:01:22.026Z</time></trkpt><trkpt lat="43.3768217" lon="11.397825"><ele>387.0</ele><time>2026-04-20T14:01:23.025Z</time></trkpt><trkpt lat="43.3767267" lon="11.3979233"><ele>387.0</ele><time>2026-04-20T14:01:24.026Z</time></trkpt><trkpt lat="43.3766217" lon="11.3980083"><ele>386.0</ele><time>2026-04-20T14:01:25.026Z</time></trkpt><trkpt lat="43.3765067" lon="11.3980817"><ele>385.0</ele><time>2026-04-20T14:01:26.026Z</time></trkpt><trkpt lat="43.37638" lon="11.398145"><ele>384.0</ele><time>2026-04-20T14:01:27.025Z</time></trkpt><trkpt lat="43.3762467" lon="11.3982"><ele>383.0</ele><time>2026-04-20T14:01:28.026Z</time></trkpt><trkpt lat="43.3761083" lon="11.39825"><ele>383.0</ele><time>2026-04-20T14:01:29.025Z</time></trkpt><trkpt lat="43.37597" lon="11.3983"><ele>383.0</ele><time>2026-04-20T14:01:30.025Z</time></trkpt><trkpt lat="43.3758367" lon="11.3983467"><ele>383.0</ele><time>2026-04-20T14:01:31.026Z</time></trkpt><trkpt lat="43.37571" lon="11.3983917"><ele>383.0</ele><time>2026-04-20T14:01:32.026Z</time></trkpt><trkpt lat="43.3755917" lon="11.3984417"><ele>383.0</ele><time>2026-04-20T14:01:33.026Z</time></trkpt><trkpt lat="43.3754817" lon="11.3984983"><ele>383.0</ele><time>2026-04-20T14:01:34.025Z</time></trkpt><trkpt lat="43.3753733" lon="11.3985667"><ele>383.0</ele><time>2026-04-20T14:01:35.025Z</time></trkpt><trkpt lat="43.3752667" lon="11.3986517"><ele>383.0</ele><time>2026-04-20T14:01:36.026Z</time></trkpt><trkpt lat="43.3751633" lon="11.3987517"><ele>382.75</ele><time>2026-04-20T14:01:37.026Z</time></trkpt><trkpt lat="43.37506" lon="11.3988683"><ele>382.5</ele><time>2026-04-20T14:01:38.025Z</time></trkpt><trkpt lat="43.3749533" lon="11.3989883"><ele>382.25</ele><time>2026-04-20T14:01:39.026Z</time></trkpt><trkpt lat="43.3748433" lon="11.3991117"><ele>382.0</ele><time>2026-04-20T14:01:40.025Z</time></trkpt><trkpt lat="43.3747317" lon="11.39924"><ele>382.25</ele><time>2026-04-20T14:01:41.026Z</time></trkpt><trkpt lat="43.3746233" lon="11.3993633"><ele>382.5</ele><time>2026-04-20T14:01:42.026Z</time></trkpt><trkpt lat="43.3745183" lon="11.3994733"><ele>382.75</ele><time>2026-04-20T14:01:43.026Z</time></trkpt><trkpt lat="43.374415" lon="11.399575"><ele>383.0</ele><time>2026-04-20T14:01:44.025Z</time></trkpt><trkpt lat="43.3743133" lon="11.3996733"><ele>383.0</ele><time>2026-04-20T14:01:45.026Z</time></trkpt><trkpt lat="43.3742083" lon="11.3997633"><ele>383.0</ele><time>2026-04-20T14:01:46.026Z</time></trkpt><trkpt lat="43.3740917" lon="11.3998483"><ele>383.0</ele><time>2026-04-20T14:01:47.026Z</time></trkpt><trkpt lat="43.3739683" lon="11.3999133"><ele>383.0</ele><time>2026-04-20T14:01:48.026Z</time></trkpt><trkpt lat="43.373835" lon="11.3999717"><ele>383.0</ele><time>2026-04-20T14:01:49.026Z</time></trkpt><trkpt lat="43.373705" lon="11.4000283"><ele>383.0</ele><time>2026-04-20T14:01:50.026Z</time></trkpt><trkpt lat="43.3735767" lon="11.4000817"><ele>383.0</ele><time>2026-04-20T14:01:51.026Z</time></trkpt><trkpt lat="43.3734517" lon="11.400135"><ele>383.0</ele><time>2026-04-20T14:01:52.026Z</time></trkpt><trkpt lat="43.3733317" lon="11.4001883"><ele>383.0</ele><time>2026-04-20T14:01:53.026Z</time></trkpt><trkpt lat="43.3732167" lon="11.4002567"><ele>383.0</ele><time>2026-04-20T14:01:54.026Z</time></trkpt><trkpt lat="43.3731117" lon="11.4003417"><ele>383.0</ele><time>2026-04-20T14:01:55.026Z</time></trkpt><trkpt lat="43.37301" lon="11.4004417"><ele>383.0</ele><time>2026-04-20T14:01:56.026Z</time></trkpt><trkpt lat="43.37291" lon="11.4005533"><ele>383.75</ele><time>2026-04-20T14:01:57.026Z</time></trkpt><trkpt lat="43.37281" lon="11.4006683"><ele>384.5</ele><time>2026-04-20T14:01:58.026Z</time></trkpt><trkpt lat="43.3727117" lon="11.4007833"><ele>385.25</ele><time>2026-04-20T14:01:59.026Z</time></trkpt><trkpt lat="43.3726183" lon="11.4008967"><ele>386.0</ele><time>2026-04-20T14:02:00.026Z</time></trkpt><trkpt lat="43.372535" lon="11.401"><ele>386.0</ele><time>2026-04-20T14:02:01.026Z</time></trkpt><trkpt lat="43.3724542" lon="11.4010914"><ele>386.0</ele><time>2026-04-20T14:02:02.026Z</time></trkpt><trkpt lat="43.3723746" lon="11.4011718"><ele>386.0</ele><time>2026-04-20T14:02:03.026Z</time></trkpt><trkpt lat="43.3722975" lon="11.4012365"><ele>386.0</ele><time>2026-04-20T14:02:04.026Z</time></trkpt><trkpt lat="43.3722251" lon="11.4013076"><ele>386.0</ele><time>2026-04-20T14:02:05.026Z</time></trkpt><trkpt lat="43.3721552" lon="11.401377"><ele>385.16666666666663</ele><time>2026-04-20T14:02:06.026Z</time></trkpt><trkpt lat="43.3720823" lon="11.4014462"><ele>384.3333333333333</ele><time>2026-04-20T14:02:07.025Z</time></trkpt><trkpt lat="43.3720117" lon="11.4015176"><ele>383.5</ele><time>2026-04-20T14:02:08.026Z</time></trkpt><trkpt lat="43.3719528" lon="11.4016055"><ele>382.66666666666663</ele><time>2026-04-20T14:02:09.025Z</time></trkpt><trkpt lat="43.3719041" lon="11.4017052"><ele>381.8333333333333</ele><time>2026-04-20T14:02:10.026Z</time></trkpt><trkpt lat="43.371872" lon="11.4018166"><ele>381.0</ele><time>2026-04-20T14:02:11.026Z</time></trkpt><trkpt lat="43.3718561" lon="11.4019265"><ele>381.0</ele><time>2026-04-20T14:02:12.026Z</time></trkpt><trkpt lat="43.3718462" lon="11.4020526"><ele>381.0</ele><time>2026-04-20T14:02:13.026Z</time></trkpt><trkpt lat="43.37183" lon="11.4021867"><ele>381.0</ele><time>2026-04-20T14:02:14.026Z</time></trkpt><trkpt lat="43.371795" lon="11.4023167"><ele>381.0</ele><time>2026-04-20T14:02:15.026Z</time></trkpt><trkpt lat="43.3717533" lon="11.4024383"><ele>381.0</ele><time>2026-04-20T14:02:16.026Z</time></trkpt><trkpt lat="43.3717083" lon="11.4025567"><ele>380.5</ele><time>2026-04-20T14:02:17.026Z</time></trkpt><trkpt lat="43.3716517" lon="11.4026933"><ele>380.0</ele><time>2026-04-20T14:02:18.026Z</time></trkpt><trkpt lat="43.3715967" lon="11.4028367"><ele>379.5</ele><time>2026-04-20T14:02:19.026Z</time></trkpt><trkpt lat="43.371535" lon="11.4029817"><ele>379.0</ele><time>2026-04-20T14:02:20.026Z</time></trkpt><trkpt lat="43.371475" lon="11.403115"><ele>377.6</ele><time>2026-04-20T14:02:21.026Z</time></trkpt><trkpt lat="43.3714167" lon="11.4032417"><ele>376.2</ele><time>2026-04-20T14:02:22.026Z</time></trkpt><trkpt lat="43.3713633" lon="11.4033633"><ele>374.8</ele><time>2026-04-20T14:02:23.026Z</time></trkpt><trkpt lat="43.37131" lon="11.4034817"><ele>373.40000000000003</ele><time>2026-04-20T14:02:24.026Z</time></trkpt><trkpt lat="43.37126" lon="11.4036033"><ele>372.0</ele><time>2026-04-20T14:02:25.026Z</time></trkpt><trkpt lat="43.3712" lon="11.4037317"><ele>370.8</ele><time>2026-04-20T14:02:26.026Z</time></trkpt><trkpt lat="43.3711483" lon="11.40387"><ele>369.6</ele><time>2026-04-20T14:02:27.026Z</time></trkpt><trkpt lat="43.3710967" lon="11.4039983"><ele>368.40000000000003</ele><time>2026-04-20T14:02:28.026Z</time></trkpt><trkpt lat="43.371045" lon="11.40412"><ele>367.20000000000005</ele><time>2026-04-20T14:02:29.025Z</time></trkpt><trkpt lat="43.37099" lon="11.404235"><ele>366.0</ele><time>2026-04-20T14:02:30.025Z</time></trkpt><trkpt lat="43.370925" lon="11.4043317"><ele>366.0</ele><time>2026-04-20T14:02:31.026Z</time></trkpt><trkpt lat="43.3708467" lon="11.404405"><ele>366.0</ele><time>2026-04-20T14:02:32.025Z</time></trkpt><trkpt lat="43.370755" lon="11.4044567"><ele>366.0</ele><time>2026-04-20T14:02:33.026Z</time></trkpt><trkpt lat="43.37066" lon="11.4044917"><ele>366.0</ele><time>2026-04-20T14:02:34.026Z</time></trkpt><trkpt lat="43.37056" lon="11.4045117"><ele>366.0</ele><time>2026-04-20T14:02:35.026Z</time></trkpt><trkpt lat="43.3704467" lon="11.4045217"><ele>364.75</ele><time>2026-04-20T14:02:36.026Z</time></trkpt><trkpt lat="43.370325" lon="11.4045233"><ele>363.5</ele><time>2026-04-20T14:02:37.026Z</time></trkpt><trkpt lat="43.370205" lon="11.40452"><ele>362.25</ele><time>2026-04-20T14:02:38.026Z</time></trkpt><trkpt lat="43.3700883" lon="11.4045117"><ele>361.0</ele><time>2026-04-20T14:02:39.026Z</time></trkpt><trkpt lat="43.3699717" lon="11.404505"><ele>361.0</ele><time>2026-04-20T14:02:40.026Z</time></trkpt><trkpt lat="43.3698567" lon="11.4045"><ele>361.0</ele><time>2026-04-20T14:02:41.026Z</time></trkpt><trkpt lat="43.3697417" lon="11.40449"><ele>361.0</ele><time>2026-04-20T14:02:42.025Z</time></trkpt><trkpt lat="43.369625" lon="11.4044817"><ele>361.0</ele><time>2026-04-20T14:02:43.026Z</time></trkpt><trkpt lat="43.3695083" lon="11.4044783"><ele>359.5</ele><time>2026-04-20T14:02:44.026Z</time></trkpt><trkpt lat="43.3693917" lon="11.4044767"><ele>358.0</ele><time>2026-04-20T14:02:45.026Z</time></trkpt><trkpt lat="43.369275" lon="11.40448"><ele>356.5</ele><time>2026-04-20T14:02:46.026Z</time></trkpt><trkpt lat="43.36916" lon="11.40449"><ele>355.0</ele><time>2026-04-20T14:02:47.026Z</time></trkpt><trkpt lat="43.36904" lon="11.4044983"><ele>355.0</ele><time>2026-04-20T14:02:48.025Z</time></trkpt><trkpt lat="43.3689233" lon="11.4045067"><ele>355.0</ele><time>2026-04-20T14:02:49.025Z</time></trkpt><trkpt lat="43.3688033" lon="11.4045083"><ele>355.0</ele><time>2026-04-20T14:02:50.026Z</time></trkpt><trkpt lat="43.3686817" lon="11.4045017"><ele>355.0</ele><time>2026-04-20T14:02:51.026Z</time></trkpt><trkpt lat="43.3685583" lon="11.4044883"><ele>354.25</ele><time>2026-04-20T14:02:52.026Z</time></trkpt><trkpt lat="43.3684367" lon="11.4044733"><ele>353.5</ele><time>2026-04-20T14:02:53.026Z</time></trkpt><trkpt lat="43.368315" lon="11.4044533"><ele>352.75</ele><time>2026-04-20T14:02:54.026Z</time></trkpt><trkpt lat="43.3681933" lon="11.40443"><ele>352.0</ele><time>2026-04-20T14:02:55.026Z</time></trkpt><trkpt lat="43.3680667" lon="11.4044083"><ele>351.25</ele><time>2026-04-20T14:02:56.026Z</time></trkpt><trkpt lat="43.3679333" lon="11.40439"><ele>350.5</ele><time>2026-04-20T14:02:57.026Z</time></trkpt><trkpt lat="43.3678083" lon="11.4043683"><ele>349.75</ele><time>2026-04-20T14:02:58.026Z</time></trkpt><trkpt lat="43.3676883" lon="11.404345"><ele>349.0</ele><time>2026-04-20T14:02:59.026Z</time></trkpt><trkpt lat="43.367575" lon="11.40432"><ele>349.0</ele><time>2026-04-20T14:03:00.025Z</time></trkpt><trkpt lat="43.3674667" lon="11.4042983"><ele>349.0</ele><time>2026-04-20T14:03:01.026Z</time></trkpt><trkpt lat="43.367355" lon="11.4042783"><ele>349.0</ele><time>2026-04-20T14:03:02.026Z</time></trkpt><trkpt lat="43.3672417" lon="11.4042717"><ele>349.0</ele><time>2026-04-20T14:03:03.026Z</time></trkpt><trkpt lat="43.3671233" lon="11.4042733"><ele>349.0</ele><time>2026-04-20T14:03:04.026Z</time></trkpt><trkpt lat="43.367005" lon="11.4042933"><ele>349.0</ele><time>2026-04-20T14:03:05.025Z</time></trkpt><trkpt lat="43.3668933" lon="11.4043433"><ele>349.0</ele><time>2026-04-20T14:03:06.026Z</time></trkpt><trkpt lat="43.3667867" lon="11.4044133"><ele>349.0</ele><time>2026-04-20T14:03:07.026Z</time></trkpt><trkpt lat="43.3666883" lon="11.404495"><ele>349.0</ele><time>2026-04-20T14:03:08.026Z</time></trkpt><trkpt lat="43.366595" lon="11.4045983"><ele>349.0</ele><time>2026-04-20T14:03:09.026Z</time></trkpt><trkpt lat="43.36651" lon="11.4047217"><ele>349.0</ele><time>2026-04-20T14:03:10.026Z</time></trkpt><trkpt lat="43.3664417" lon="11.404855"><ele>349.0</ele><time>2026-04-20T14:03:11.026Z</time></trkpt><trkpt lat="43.36639" lon="11.4049933"><ele>348.79999999999995</ele><time>2026-04-20T14:03:12.026Z</time></trkpt><trkpt lat="43.3663383" lon="11.4051317"><ele>348.59999999999997</ele><time>2026-04-20T14:03:13.026Z</time></trkpt><trkpt lat="43.36629" lon="11.4052683"><ele>348.4</ele><time>2026-04-20T14:03:14.026Z</time></trkpt><trkpt lat="43.3662417" lon="11.4053933"><ele>348.2</ele><time>2026-04-20T14:03:15.025Z</time></trkpt><trkpt lat="43.3661867" lon="11.405515"><ele>348.0</ele><time>2026-04-20T14:03:16.025Z</time></trkpt><trkpt lat="43.3661317" lon="11.405635"><ele>347.2</ele><time>2026-04-20T14:03:17.026Z</time></trkpt><trkpt lat="43.36608" lon="11.4057617"><ele>346.4</ele><time>2026-04-20T14:03:18.026Z</time></trkpt><trkpt lat="43.3660333" lon="11.405885"><ele>345.59999999999997</ele><time>2026-04-20T14:03:19.026Z</time></trkpt><trkpt lat="43.3659867" lon="11.4060033"><ele>344.79999999999995</ele><time>2026-04-20T14:03:20.026Z</time></trkpt><trkpt lat="43.3659417" lon="11.4061017"><ele>344.0</ele><time>2026-04-20T14:03:21.026Z</time></trkpt><trkpt lat="43.3658817" lon="11.4061817"><ele>344.0</ele><time>2026-04-20T14:03:22.026Z</time></trkpt><trkpt lat="43.3658017" lon="11.4062333"><ele>344.0</ele><time>2026-04-20T14:03:23.026Z</time></trkpt><trkpt lat="43.3657067" lon="11.40628"><ele>344.0</ele><time>2026-04-20T14:03:24.026Z</time></trkpt><trkpt lat="43.3656" lon="11.4063233"><ele>344.0</ele><time>2026-04-20T14:03:25.026Z</time></trkpt><trkpt lat="43.36549" lon="11.406355"><ele>344.0</ele><time>2026-04-20T14:03:26.026Z</time></trkpt><trkpt lat="43.3653817" lon="11.4063967"><ele>343.1666666666667</ele><time>2026-04-20T14:03:27.025Z</time></trkpt><trkpt lat="43.365285" lon="11.4064417"><ele>342.33333333333337</ele><time>2026-04-20T14:03:28.026Z</time></trkpt><trkpt lat="43.365195" lon="11.406475"><ele>341.5</ele><time>2026-04-20T14:03:29.026Z</time></trkpt><trkpt lat="43.3651167" lon="11.4064883"><ele>340.6666666666667</ele><time>2026-04-20T14:03:30.026Z</time></trkpt><trkpt lat="43.3650417" lon="11.4064733"><ele>339.8333333333333</ele><time>2026-04-20T14:03:31.026Z</time></trkpt><trkpt lat="43.364965" lon="11.4064367"><ele>339.0</ele><time>2026-04-20T14:03:32.026Z</time></trkpt><trkpt lat="43.36489" lon="11.40637"><ele>339.2</ele><time>2026-04-20T14:03:33.026Z</time></trkpt><trkpt lat="43.36482" lon="11.4062867"><ele>339.4</ele><time>2026-04-20T14:03:34.026Z</time></trkpt><trkpt lat="43.3647567" lon="11.406205"><ele>339.6</ele><time>2026-04-20T14:03:35.026Z</time></trkpt><trkpt lat="43.3647" lon="11.4061317"><ele>339.8</ele><time>2026-04-20T14:03:36.026Z</time></trkpt><trkpt lat="43.3646517" lon="11.406065"><ele>340.0</ele><time>2026-04-20T14:03:37.026Z</time></trkpt><trkpt lat="43.3645317" lon="11.40601"><ele>337.8</ele><time>2026-04-20T14:03:39.024Z</time></trkpt><trkpt lat="43.36446" lon="11.4060233"><ele>335.6</ele><time>2026-04-20T14:03:40.025Z</time></trkpt><trkpt lat="43.3643717" lon="11.4060683"><ele>333.4</ele><time>2026-04-20T14:03:41.024Z</time></trkpt><trkpt lat="43.3642717" lon="11.4061383"><ele>331.2</ele><time>2026-04-20T14:03:42.025Z</time></trkpt><trkpt lat="43.3641567" lon="11.4062217"><ele>329.0</ele><time>2026-04-20T14:03:43.025Z</time></trkpt><trkpt lat="43.3640467" lon="11.4063"><ele>328.75</ele><time>2026-04-20T14:03:44.025Z</time></trkpt><trkpt lat="43.3639317" lon="11.4063817"><ele>328.5</ele><time>2026-04-20T14:03:45.024Z</time></trkpt><trkpt lat="43.3638233" lon="11.40645"><ele>328.25</ele><time>2026-04-20T14:03:46.024Z</time></trkpt><trkpt lat="43.3637217" lon="11.4065167"><ele>328.0</ele><time>2026-04-20T14:03:47.024Z</time></trkpt><trkpt lat="43.36362" lon="11.40658"><ele>325.75</ele><time>2026-04-20T14:03:48.024Z</time></trkpt><trkpt lat="43.3635183" lon="11.4066467"><ele>323.5</ele><time>2026-04-20T14:03:49.024Z</time></trkpt><trkpt lat="43.363405" lon="11.406715"><ele>321.25</ele><time>2026-04-20T14:03:50.025Z</time></trkpt><trkpt lat="43.3632917" lon="11.4067883"><ele>319.0</ele><time>2026-04-20T14:03:51.025Z</time></trkpt><trkpt lat="43.3631733" lon="11.4068583"><ele>319.0</ele><time>2026-04-20T14:03:52.025Z</time></trkpt><trkpt lat="43.36306" lon="11.4069267"><ele>319.0</ele><time>2026-04-20T14:03:53.025Z</time></trkpt><trkpt lat="43.36294" lon="11.4069917"><ele>319.0</ele><time>2026-04-20T14:03:54.025Z</time></trkpt><trkpt lat="43.36282" lon="11.4070617"><ele>319.0</ele><time>2026-04-20T14:03:55.025Z</time></trkpt><trkpt lat="43.362695" lon="11.4071267"><ele>317.75</ele><time>2026-04-20T14:03:56.025Z</time></trkpt><trkpt lat="43.36257" lon="11.4071733"><ele>316.5</ele><time>2026-04-20T14:03:57.025Z</time></trkpt><trkpt lat="43.3624533" lon="11.40721"><ele>315.25</ele><time>2026-04-20T14:03:58.025Z</time></trkpt><trkpt lat="43.3623317" lon="11.407255"><ele>314.0</ele><time>2026-04-20T14:03:59.025Z</time></trkpt><trkpt lat="43.3622067" lon="11.4072983"><ele>312.0</ele><time>2026-04-20T14:04:00.025Z</time></trkpt><trkpt lat="43.36209" lon="11.4073333"><ele>310.0</ele><time>2026-04-20T14:04:01.024Z</time></trkpt><trkpt lat="43.3619733" lon="11.40736"><ele>308.0</ele><time>2026-04-20T14:04:02.025Z</time></trkpt><trkpt lat="43.36186" lon="11.4073883"><ele>306.0</ele><time>2026-04-20T14:04:03.025Z</time></trkpt><trkpt lat="43.3617417" lon="11.4074083"><ele>306.0</ele><time>2026-04-20T14:04:04.025Z</time></trkpt><trkpt lat="43.36163" lon="11.4074433"><ele>306.0</ele><time>2026-04-20T14:04:05.025Z</time></trkpt><trkpt lat="43.3615133" lon="11.4074683"><ele>306.0</ele><time>2026-04-20T14:04:06.025Z</time></trkpt><trkpt lat="43.3613967" lon="11.4074967"><ele>306.0</ele><time>2026-04-20T14:04:07.025Z</time></trkpt><trkpt lat="43.361275" lon="11.4075267"><ele>304.0</ele><time>2026-04-20T14:04:08.025Z</time></trkpt><trkpt lat="43.3611433" lon="11.407545"><ele>302.0</ele><time>2026-04-20T14:04:09.025Z</time></trkpt><trkpt lat="43.36102" lon="11.4075617"><ele>300.0</ele><time>2026-04-20T14:04:10.025Z</time></trkpt><trkpt lat="43.3609017" lon="11.4075633"><ele>298.0</ele><time>2026-04-20T14:04:11.025Z</time></trkpt><trkpt lat="43.3607817" lon="11.4075667"><ele>298.0</ele><time>2026-04-20T14:04:12.025Z</time></trkpt><trkpt lat="43.36066" lon="11.4075567"><ele>298.0</ele><time>2026-04-20T14:04:13.025Z</time></trkpt><trkpt lat="43.36054" lon="11.4075417"><ele>298.0</ele><time>2026-04-20T14:04:14.025Z</time></trkpt><trkpt lat="43.3604133" lon="11.4075267"><ele>298.0</ele><time>2026-04-20T14:04:15.025Z</time></trkpt><trkpt lat="43.3602983" lon="11.4075017"><ele>297.4</ele><time>2026-04-20T14:04:16.025Z</time></trkpt><trkpt lat="43.3601917" lon="11.4074767"><ele>296.8</ele><time>2026-04-20T14:04:17.024Z</time></trkpt><trkpt lat="43.3600867" lon="11.4074483"><ele>296.2</ele><time>2026-04-20T14:04:18.025Z</time></trkpt><trkpt lat="43.3599867" lon="11.407425"><ele>295.6</ele><time>2026-04-20T14:04:19.025Z</time></trkpt><trkpt lat="43.359895" lon="11.4074017"><ele>295.0</ele><time>2026-04-20T14:04:20.025Z</time></trkpt><trkpt lat="43.3598083" lon="11.4074083"><ele>295.0</ele><time>2026-04-20T14:04:21.024Z</time></trkpt><trkpt lat="43.359725" lon="11.407435"><ele>295.0</ele><time>2026-04-20T14:04:22.025Z</time></trkpt><trkpt lat="43.3596517" lon="11.4074967"><ele>295.0</ele><time>2026-04-20T14:04:23.024Z</time></trkpt><trkpt lat="43.3595817" lon="11.4075883"><ele>295.0</ele><time>2026-04-20T14:04:24.024Z</time></trkpt><trkpt lat="43.35953" lon="11.4076883"><ele>295.0</ele><time>2026-04-20T14:04:25.025Z</time></trkpt><trkpt lat="43.359495" lon="11.4078017"><ele>295.0</ele><time>2026-04-20T14:04:26.025Z</time></trkpt><trkpt lat="43.3594717" lon="11.407915"><ele>293.8</ele><time>2026-04-20T14:04:27.024Z</time></trkpt><trkpt lat="43.359475" lon="11.4080367"><ele>292.6</ele><time>2026-04-20T14:04:28.025Z</time></trkpt><trkpt lat="43.359495" lon="11.4081517"><ele>291.4</ele><time>2026-04-20T14:04:29.024Z</time></trkpt><trkpt lat="43.3595367" lon="11.4082567"><ele>290.2</ele><time>2026-04-20T14:04:30.025Z</time></trkpt><trkpt lat="43.3596133" lon="11.4083367"><ele>289.0</ele><time>2026-04-20T14:04:31.024Z</time></trkpt><trkpt lat="43.3596917" lon="11.4084083"><ele>289.0</ele><time>2026-04-20T14:04:32.024Z</time></trkpt><trkpt lat="43.35979" lon="11.4084767"><ele>289.0</ele><time>2026-04-20T14:04:33.025Z</time></trkpt><trkpt lat="43.359895" lon="11.408555"><ele>289.0</ele><time>2026-04-20T14:04:34.025Z</time></trkpt><trkpt lat="43.360005" lon="11.408635"><ele>289.0</ele><time>2026-04-20T14:04:35.024Z</time></trkpt><trkpt lat="43.36011" lon="11.4087167"><ele>289.0</ele><time>2026-04-20T14:04:36.025Z</time></trkpt><trkpt lat="43.3602067" lon="11.4087967"><ele>289.0</ele><time>2026-04-20T14:04:37.025Z</time></trkpt><trkpt lat="43.3603017" lon="11.4088917"><ele>289.0</ele><time>2026-04-20T14:04:38.024Z</time></trkpt><trkpt lat="43.3603833" lon="11.408995"><ele>289.0</ele><time>2026-04-20T14:04:39.024Z</time></trkpt><trkpt lat="43.3604567" lon="11.4091183"><ele>288.5</ele><time>2026-04-20T14:04:40.025Z</time></trkpt><trkpt lat="43.3605183" lon="11.4092533"><ele>288.0</ele><time>2026-04-20T14:04:41.025Z</time></trkpt><trkpt lat="43.3605833" lon="11.4093817"><ele>287.5</ele><time>2026-04-20T14:04:42.024Z</time></trkpt><trkpt lat="43.3606483" lon="11.4095183"><ele>287.0</ele><time>2026-04-20T14:04:43.024Z</time></trkpt><trkpt lat="43.360705" lon="11.4096533"><ele>286.0</ele><time>2026-04-20T14:04:44.025Z</time></trkpt><trkpt lat="43.3607483" lon="11.409775"><ele>285.0</ele><time>2026-04-20T14:04:45.025Z</time></trkpt><trkpt lat="43.36079" lon="11.4098817"><ele>284.0</ele><time>2026-04-20T14:04:46.025Z</time></trkpt><trkpt lat="43.3608217" lon="11.4099817"><ele>283.0</ele><time>2026-04-20T14:04:47.025Z</time></trkpt><trkpt lat="43.360845" lon="11.4100883"><ele>282.0</ele><time>2026-04-20T14:04:48.025Z</time></trkpt><trkpt lat="43.36086" lon="11.4101933"><ele>281.0</ele><time>2026-04-20T14:04:49.025Z</time></trkpt><trkpt lat="43.3608667" lon="11.4103"><ele>281.0</ele><time>2026-04-20T14:04:50.025Z</time></trkpt><trkpt lat="43.3608567" lon="11.410405"><ele>281.0</ele><time>2026-04-20T14:04:51.024Z</time></trkpt><trkpt lat="43.360835" lon="11.4105083"><ele>281.0</ele><time>2026-04-20T14:04:52.025Z</time></trkpt><trkpt lat="43.3608" lon="11.410595"><ele>281.0</ele><time>2026-04-20T14:04:53.025Z</time></trkpt><trkpt lat="43.3607583" lon="11.4106683"><ele>281.0</ele><time>2026-04-20T14:04:54.024Z</time></trkpt><trkpt lat="43.3607033" lon="11.410735"><ele>281.0</ele><time>2026-04-20T14:04:55.025Z</time></trkpt><trkpt lat="43.3606317" lon="11.41079"><ele>280.40000000000003</ele><time>2026-04-20T14:04:56.025Z</time></trkpt><trkpt lat="43.3605433" lon="11.4108283"><ele>279.8</ele><time>2026-04-20T14:04:57.025Z</time></trkpt><trkpt lat="43.3604417" lon="11.410865"><ele>279.20000000000005</ele><time>2026-04-20T14:04:58.025Z</time></trkpt><trkpt lat="43.3603433" lon="11.410905"><ele>278.6</ele><time>2026-04-20T14:04:59.024Z</time></trkpt><trkpt lat="43.3602483" lon="11.4109533"><ele>278.0</ele><time>2026-04-20T14:05:00.024Z</time></trkpt><trkpt lat="43.3601567" lon="11.411005"><ele>276.6666666666667</ele><time>2026-04-20T14:05:01.025Z</time></trkpt><trkpt lat="43.3600817" lon="11.4110633"><ele>275.33333333333337</ele><time>2026-04-20T14:05:02.024Z</time></trkpt><trkpt lat="43.3600117" lon="11.41115"><ele>274.0</ele><time>2026-04-20T14:05:03.025Z</time></trkpt><trkpt lat="43.3599617" lon="11.4112483"><ele>272.6666666666667</ele><time>2026-04-20T14:05:04.025Z</time></trkpt><trkpt lat="43.3599267" lon="11.411355"><ele>271.3333333333333</ele><time>2026-04-20T14:05:05.024Z</time></trkpt><trkpt lat="43.3599083" lon="11.4114633"><ele>270.0</ele><time>2026-04-20T14:05:06.025Z</time></trkpt><trkpt lat="43.3599017" lon="11.41157"><ele>270.0</ele><time>2026-04-20T14:05:07.025Z</time></trkpt><trkpt lat="43.3599033" lon="11.41167"><ele>270.0</ele><time>2026-04-20T14:05:08.024Z</time></trkpt><trkpt lat="43.3599233" lon="11.4117633"><ele>270.0</ele><time>2026-04-20T14:05:09.025Z</time></trkpt><trkpt lat="43.3599467" lon="11.4118533"><ele>270.0</ele><time>2026-04-20T14:05:10.025Z</time></trkpt><trkpt lat="43.3599317" lon="11.4119917"><ele>270.0</ele><time>2026-04-20T14:05:12.025Z</time></trkpt><trkpt lat="43.35984" lon="11.4120617"><ele>270.0</ele><time>2026-04-20T14:05:14.025Z</time></trkpt><trkpt lat="43.3597267" lon="11.4119833"><ele>269.0</ele><time>2026-04-20T14:05:16.024Z</time></trkpt><trkpt lat="43.35968" lon="11.4118983"><ele>268.0</ele><time>2026-04-20T14:05:17.025Z</time></trkpt><trkpt lat="43.3596467" lon="11.4117867"><ele>267.0</ele><time>2026-04-20T14:05:18.024Z</time></trkpt><trkpt lat="43.359625" lon="11.41166"><ele>266.0</ele><time>2026-04-20T14:05:19.025Z</time></trkpt><trkpt lat="43.3596067" lon="11.4115367"><ele>265.0</ele><time>2026-04-20T14:05:20.025Z</time></trkpt><trkpt lat="43.3595883" lon="11.4114083"><ele>264.0</ele><time>2026-04-20T14:05:21.024Z</time></trkpt><trkpt lat="43.3595617" lon="11.4112883"><ele>264.0</ele><time>2026-04-20T14:05:22.025Z</time></trkpt><trkpt lat="43.35953" lon="11.4111817"><ele>264.0</ele><time>2026-04-20T14:05:23.024Z</time></trkpt><trkpt lat="43.35949" lon="11.4110883"><ele>264.0</ele><time>2026-04-20T14:05:24.025Z</time></trkpt><trkpt lat="43.3594433" lon="11.411005"><ele>264.0</ele><time>2026-04-20T14:05:25.025Z</time></trkpt><trkpt lat="43.3593833" lon="11.4109533"><ele>264.0</ele><time>2026-04-20T14:05:26.025Z</time></trkpt><trkpt lat="43.3593083" lon="11.410925"><ele>264.0</ele><time>2026-04-20T14:05:27.024Z</time></trkpt><trkpt lat="43.3592283" lon="11.4109333"><ele>264.0</ele><time>2026-04-20T14:05:28.025Z</time></trkpt><trkpt lat="43.359155" lon="11.4109767"><ele>264.0</ele><time>2026-04-20T14:05:29.024Z</time></trkpt><trkpt lat="43.359095" lon="11.4110633"><ele>264.0</ele><time>2026-04-20T14:05:30.025Z</time></trkpt><trkpt lat="43.3590383" lon="11.4111517"><ele>264.0</ele><time>2026-04-20T14:05:31.025Z</time></trkpt><trkpt lat="43.359" lon="11.4112733"><ele>264.0</ele><time>2026-04-20T14:05:32.025Z</time></trkpt><trkpt lat="43.358985" lon="11.4114233"><ele>262.8</ele><time>2026-04-20T14:05:33.025Z</time></trkpt><trkpt lat="43.3589717" lon="11.4115683"><ele>261.59999999999997</ele><time>2026-04-20T14:05:34.025Z</time></trkpt><trkpt lat="43.3589717" lon="11.4116983"><ele>260.4</ele><time>2026-04-20T14:05:35.025Z</time></trkpt><trkpt lat="43.358975" lon="11.4118333"><ele>259.2</ele><time>2026-04-20T14:05:36.024Z</time></trkpt><trkpt lat="43.35897" lon="11.41196"><ele>258.0</ele><time>2026-04-20T14:05:37.024Z</time></trkpt><trkpt lat="43.35896" lon="11.4120767"><ele>256.5</ele><time>2026-04-20T14:05:38.025Z</time></trkpt><trkpt lat="43.358935" lon="11.4121817"><ele>255.0</ele><time>2026-04-20T14:05:39.025Z</time></trkpt><trkpt lat="43.3588883" lon="11.4122717"><ele>253.5</ele><time>2026-04-20T14:05:40.025Z</time></trkpt><trkpt lat="43.3588267" lon="11.4123367"><ele>252.0</ele><time>2026-04-20T14:05:41.024Z</time></trkpt><trkpt lat="43.3587467" lon="11.4123833"><ele>250.5</ele><time>2026-04-20T14:05:42.025Z</time></trkpt><trkpt lat="43.35865" lon="11.4124117"><ele>249.0</ele><time>2026-04-20T14:05:43.025Z</time></trkpt><trkpt lat="43.3585383" lon="11.4124267"><ele>248.6</ele><time>2026-04-20T14:05:44.025Z</time></trkpt><trkpt lat="43.3584267" lon="11.4124317"><ele>248.2</ele><time>2026-04-20T14:05:45.025Z</time></trkpt><trkpt lat="43.3583133" lon="11.4124467"><ele>247.79999999999998</ele><time>2026-04-20T14:05:46.024Z</time></trkpt><trkpt lat="43.3582017" lon="11.41245"><ele>247.39999999999998</ele><time>2026-04-20T14:05:47.025Z</time></trkpt><trkpt lat="43.3581033" lon="11.4124467"><ele>247.0</ele><time>2026-04-20T14:05:48.025Z</time></trkpt><trkpt lat="43.3580083" lon="11.412425"><ele>246.0</ele><time>2026-04-20T14:05:49.025Z</time></trkpt><trkpt lat="43.357905" lon="11.412385"><ele>245.0</ele><time>2026-04-20T14:05:50.024Z</time></trkpt><trkpt lat="43.3578067" lon="11.4123267"><ele>244.0</ele><time>2026-04-20T14:05:51.025Z</time></trkpt><trkpt lat="43.35771" lon="11.41229"><ele>243.0</ele><time>2026-04-20T14:05:52.025Z</time></trkpt><trkpt lat="43.3576117" lon="11.41228"><ele>242.0</ele><time>2026-04-20T14:05:53.025Z</time></trkpt><trkpt lat="43.3575067" lon="11.41229"><ele>242.0</ele><time>2026-04-20T14:05:54.025Z</time></trkpt><trkpt lat="43.3574033" lon="11.4123267"><ele>242.0</ele><time>2026-04-20T14:05:55.025Z</time></trkpt><trkpt lat="43.35732" lon="11.412385"><ele>242.0</ele><time>2026-04-20T14:05:56.024Z</time></trkpt><trkpt lat="43.3572417" lon="11.412455"><ele>242.0</ele><time>2026-04-20T14:05:57.025Z</time></trkpt><trkpt lat="43.3571717" lon="11.4125433"><ele>242.0</ele><time>2026-04-20T14:05:58.024Z</time></trkpt><trkpt lat="43.3571167" lon="11.4126517"><ele>240.75</ele><time>2026-04-20T14:05:59.025Z</time></trkpt><trkpt lat="43.3570667" lon="11.41278"><ele>239.5</ele><time>2026-04-20T14:06:00.025Z</time></trkpt><trkpt lat="43.3570167" lon="11.412915"><ele>238.25</ele><time>2026-04-20T14:06:01.024Z</time></trkpt><trkpt lat="43.3569683" lon="11.4130633"><ele>237.0</ele><time>2026-04-20T14:06:02.025Z</time></trkpt><trkpt lat="43.356915" lon="11.4132233"><ele>236.25</ele><time>2026-04-20T14:06:03.025Z</time></trkpt><trkpt lat="43.3568667" lon="11.4133917"><ele>235.5</ele><time>2026-04-20T14:06:04.025Z</time></trkpt><trkpt lat="43.35682" lon="11.4135733"><ele>234.75</ele><time>2026-04-20T14:06:05.025Z</time></trkpt><trkpt lat="43.35677" lon="11.41376"><ele>234.0</ele><time>2026-04-20T14:06:06.025Z</time></trkpt><trkpt lat="43.3567183" lon="11.4139383"><ele>233.39999999999998</ele><time>2026-04-20T14:06:07.025Z</time></trkpt><trkpt lat="43.3566767" lon="11.4140983"><ele>232.79999999999998</ele><time>2026-04-20T14:06:08.024Z</time></trkpt><trkpt lat="43.3566383" lon="11.4142367"><ele>232.20000000000002</ele><time>2026-04-20T14:06:09.025Z</time></trkpt><trkpt lat="43.3566033" lon="11.41435"><ele>231.60000000000002</ele><time>2026-04-20T14:06:10.025Z</time></trkpt><trkpt lat="43.3565817" lon="11.4144417"><ele>231.0</ele><time>2026-04-20T14:06:11.024Z</time></trkpt><trkpt lat="43.3565417" lon="11.4145867"><ele>230.20000000000002</ele><time>2026-04-20T14:06:13.025Z</time></trkpt><trkpt lat="43.3565083" lon="11.4147467"><ele>229.40000000000003</ele><time>2026-04-20T14:06:15.025Z</time></trkpt><trkpt lat="43.3564917" lon="11.414845"><ele>228.6</ele><time>2026-04-20T14:06:16.025Z</time></trkpt><trkpt lat="43.35647" lon="11.414955"><ele>227.8</ele><time>2026-04-20T14:06:17.025Z</time></trkpt><trkpt lat="43.35645" lon="11.4150733"><ele>227.0</ele><time>2026-04-20T14:06:18.025Z</time></trkpt><trkpt lat="43.356425" lon="11.41519"><ele>227.00000000000003</ele><time>2026-04-20T14:06:19.025Z</time></trkpt><trkpt lat="43.3564017" lon="11.4152983"><ele>227.0</ele><time>2026-04-20T14:06:20.025Z</time></trkpt><trkpt lat="43.3563817" lon="11.4154"><ele>227.0</ele><time>2026-04-20T14:06:21.025Z</time></trkpt><trkpt lat="43.3563633" lon="11.4155"><ele>227.0</ele><time>2026-04-20T14:06:22.025Z</time></trkpt><trkpt lat="43.3563467" lon="11.41559"><ele>227.00000000000003</ele><time>2026-04-20T14:06:23.025Z</time></trkpt><trkpt lat="43.356325" lon="11.415675"><ele>227.0</ele><time>2026-04-20T14:06:24.024Z</time></trkpt><trkpt lat="43.35626" lon="11.4158033"><ele>226.0</ele><time>2026-04-20T14:06:26.025Z</time></trkpt><trkpt lat="43.3561933" lon="11.41585"><ele>225.0</ele><time>2026-04-20T14:06:27.025Z</time></trkpt><trkpt lat="43.3561083" lon="11.4158817"><ele>224.0</ele><time>2026-04-20T14:06:28.025Z</time></trkpt><trkpt lat="43.3560117" lon="11.4159167"><ele>223.0</ele><time>2026-04-20T14:06:29.025Z</time></trkpt><trkpt lat="43.3559133" lon="11.4159583"><ele>222.0</ele><time>2026-04-20T14:06:30.025Z</time></trkpt><trkpt lat="43.35582" lon="11.41601"><ele>222.0</ele><time>2026-04-20T14:06:31.025Z</time></trkpt><trkpt lat="43.3557267" lon="11.416075"><ele>222.0</ele><time>2026-04-20T14:06:32.025Z</time></trkpt><trkpt lat="43.3556217" lon="11.41614"><ele>222.0</ele><time>2026-04-20T14:06:33.024Z</time></trkpt><trkpt lat="43.3555183" lon="11.4162033"><ele>222.0</ele><time>2026-04-20T14:06:34.025Z</time></trkpt><trkpt lat="43.3554133" lon="11.4162417"><ele>222.0</ele><time>2026-04-20T14:06:35.025Z</time></trkpt><trkpt lat="43.3553" lon="11.4162483"><ele>223.25</ele><time>2026-04-20T14:06:36.025Z</time></trkpt><trkpt lat="43.35518" lon="11.41624"><ele>224.5</ele><time>2026-04-20T14:06:37.025Z</time></trkpt><trkpt lat="43.355065" lon="11.4162217"><ele>225.75</ele><time>2026-04-20T14:06:38.024Z</time></trkpt><trkpt lat="43.354945" lon="11.4162117"><ele>227.0</ele><time>2026-04-20T14:06:39.025Z</time></trkpt><trkpt lat="43.35482" lon="11.4162017"><ele>226.5</ele><time>2026-04-20T14:06:40.025Z</time></trkpt><trkpt lat="43.3546933" lon="11.4161917"><ele>226.0</ele><time>2026-04-20T14:06:41.025Z</time></trkpt><trkpt lat="43.35457" lon="11.4161717"><ele>225.5</ele><time>2026-04-20T14:06:42.025Z</time></trkpt><trkpt lat="43.354445" lon="11.41616"><ele>225.0</ele><time>2026-04-20T14:06:43.025Z</time></trkpt><trkpt lat="43.3543217" lon="11.4161417"><ele>225.0</ele><time>2026-04-20T14:06:44.025Z</time></trkpt><trkpt lat="43.3541933" lon="11.4161267"><ele>225.0</ele><time>2026-04-20T14:06:45.025Z</time></trkpt><trkpt lat="43.354065" lon="11.41611"><ele>225.0</ele><time>2026-04-20T14:06:46.025Z</time></trkpt><trkpt lat="43.353935" lon="11.416095"><ele>225.0</ele><time>2026-04-20T14:06:47.025Z</time></trkpt><trkpt lat="43.3538033" lon="11.416075"><ele>224.5</ele><time>2026-04-20T14:06:48.025Z</time></trkpt><trkpt lat="43.3536633" lon="11.4160533"><ele>224.0</ele><time>2026-04-20T14:06:49.025Z</time></trkpt><trkpt lat="43.3535233" lon="11.41602"><ele>223.5</ele><time>2026-04-20T14:06:50.025Z</time></trkpt><trkpt lat="43.3533783" lon="11.4159783"><ele>223.0</ele><time>2026-04-20T14:06:51.024Z</time></trkpt><trkpt lat="43.353235" lon="11.415935"><ele>223.0</ele><time>2026-04-20T14:06:52.025Z</time></trkpt><trkpt lat="43.3530933" lon="11.4158883"><ele>223.0</ele><time>2026-04-20T14:06:53.025Z</time></trkpt><trkpt lat="43.3529483" lon="11.4158383"><ele>223.0</ele><time>2026-04-20T14:06:54.025Z</time></trkpt><trkpt lat="43.3528033" lon="11.4157983"><ele>223.0</ele><time>2026-04-20T14:06:55.025Z</time></trkpt><trkpt lat="43.3526583" lon="11.4157583"><ele>223.0</ele><time>2026-04-20T14:06:56.025Z</time></trkpt><trkpt lat="43.3525167" lon="11.4157167"><ele>223.0</ele><time>2026-04-20T14:06:57.025Z</time></trkpt><trkpt lat="43.3523733" lon="11.4156767"><ele>223.0</ele><time>2026-04-20T14:06:58.025Z</time></trkpt><trkpt lat="43.352235" lon="11.4156517"><ele>223.0</ele><time>2026-04-20T14:06:59.025Z</time></trkpt><trkpt lat="43.3521117" lon="11.4156133"><ele>222.5</ele><time>2026-04-20T14:07:00.025Z</time></trkpt><trkpt lat="43.3519917" lon="11.41557"><ele>222.0</ele><time>2026-04-20T14:07:01.024Z</time></trkpt><trkpt lat="43.3518683" lon="11.4155367"><ele>221.5</ele><time>2026-04-20T14:07:02.025Z</time></trkpt><trkpt lat="43.35174" lon="11.4154983"><ele>221.0</ele><time>2026-04-20T14:07:03.025Z</time></trkpt><trkpt lat="43.3516083" lon="11.4154567"><ele>221.0</ele><time>2026-04-20T14:07:04.025Z</time></trkpt><trkpt lat="43.3514667" lon="11.415415"><ele>221.0</ele><time>2026-04-20T14:07:05.024Z</time></trkpt><trkpt lat="43.351315" lon="11.4153783"><ele>221.0</ele><time>2026-04-20T14:07:06.025Z</time></trkpt><trkpt lat="43.3511517" lon="11.41534"><ele>220.66666666666669</ele><time>2026-04-20T14:07:07.025Z</time></trkpt><trkpt lat="43.3509917" lon="11.4152967"><ele>220.33333333333331</ele><time>2026-04-20T14:07:08.025Z</time></trkpt><trkpt lat="43.35083" lon="11.4152467"><ele>220.0</ele><time>2026-04-20T14:07:09.025Z</time></trkpt><trkpt lat="43.3506667" lon="11.415205"><ele>221.5</ele><time>2026-04-20T14:07:10.025Z</time></trkpt><trkpt lat="43.3505067" lon="11.41516"><ele>223.0</ele><time>2026-04-20T14:07:11.025Z</time></trkpt><trkpt lat="43.3503617" lon="11.4151017"><ele>224.5</ele><time>2026-04-20T14:07:12.025Z</time></trkpt><trkpt lat="43.3502333" lon="11.4150467"><ele>226.0</ele><time>2026-04-20T14:07:13.025Z</time></trkpt><trkpt lat="43.350125" lon="11.41497"><ele>226.0</ele><time>2026-04-20T14:07:14.025Z</time></trkpt><trkpt lat="43.3500283" lon="11.414855"><ele>226.0</ele><time>2026-04-20T14:07:15.025Z</time></trkpt><trkpt lat="43.3499317" lon="11.414715"><ele>226.0</ele><time>2026-04-20T14:07:16.025Z</time></trkpt><trkpt lat="43.3498433" lon="11.4145483"><ele>226.0</ele><time>2026-04-20T14:07:17.025Z</time></trkpt><trkpt lat="43.3497583" lon="11.41438"><ele>226.33333333333331</ele><time>2026-04-20T14:07:18.025Z</time></trkpt><trkpt lat="43.34967" lon="11.4142067"><ele>226.66666666666669</ele><time>2026-04-20T14:07:19.025Z</time></trkpt><trkpt lat="43.3495867" lon="11.4140233"><ele>227.0</ele><time>2026-04-20T14:07:20.024Z</time></trkpt><trkpt lat="43.349515" lon="11.4138367"><ele>227.0</ele><time>2026-04-20T14:07:21.025Z</time></trkpt><trkpt lat="43.3494417" lon="11.4136317"><ele>227.0</ele><time>2026-04-20T14:07:22.025Z</time></trkpt><trkpt lat="43.34937" lon="11.4134283"><ele>227.0</ele><time>2026-04-20T14:07:23.025Z</time></trkpt><trkpt lat="43.34928" lon="11.4132417"><ele>227.0</ele><time>2026-04-20T14:07:24.025Z</time></trkpt><trkpt lat="43.3491683" lon="11.4130633"><ele>227.0</ele><time>2026-04-20T14:07:25.025Z</time></trkpt><trkpt lat="43.3490533" lon="11.4129"><ele>227.0</ele><time>2026-04-20T14:07:26.025Z</time></trkpt><trkpt lat="43.3489467" lon="11.4127383"><ele>228.66666666666669</ele><time>2026-04-20T14:07:27.025Z</time></trkpt><trkpt lat="43.3488383" lon="11.4125633"><ele>230.33333333333331</ele><time>2026-04-20T14:07:28.024Z</time></trkpt><trkpt lat="43.3487467" lon="11.41238"><ele>232.0</ele><time>2026-04-20T14:07:29.025Z</time></trkpt><trkpt lat="43.3486783" lon="11.4121917"><ele>232.0</ele><time>2026-04-20T14:07:30.025Z</time></trkpt><trkpt lat="43.3486183" lon="11.4119933"><ele>232.0</ele><time>2026-04-20T14:07:31.025Z</time></trkpt><trkpt lat="43.3485767" lon="11.411785"><ele>232.0</ele><time>2026-04-20T14:07:32.025Z</time></trkpt><trkpt lat="43.34855" lon="11.411575"><ele>232.0</ele><time>2026-04-20T14:07:33.025Z</time></trkpt><trkpt lat="43.3485333" lon="11.4113567"><ele>232.0</ele><time>2026-04-20T14:07:34.024Z</time></trkpt><trkpt lat="43.3485167" lon="11.41114"><ele>232.0</ele><time>2026-04-20T14:07:35.025Z</time></trkpt><trkpt lat="43.3484967" lon="11.4109233"><ele>234.0</ele><time>2026-04-20T14:07:36.025Z</time></trkpt><trkpt lat="43.348465" lon="11.41071"><ele>236.0</ele><time>2026-04-20T14:07:37.025Z</time></trkpt><trkpt lat="43.3484233" lon="11.4104967"><ele>238.0</ele><time>2026-04-20T14:07:38.025Z</time></trkpt><trkpt lat="43.34837" lon="11.4102833"><ele>238.66666666666666</ele><time>2026-04-20T14:07:39.025Z</time></trkpt><trkpt lat="43.3483183" lon="11.410065"><ele>239.33333333333331</ele><time>2026-04-20T14:07:40.024Z</time></trkpt><trkpt lat="43.3482683" lon="11.4098483"><ele>240.0</ele><time>2026-04-20T14:07:41.025Z</time></trkpt><trkpt lat="43.3482133" lon="11.4096283"><ele>240.0</ele><time>2026-04-20T14:07:42.024Z</time></trkpt><trkpt lat="43.348155" lon="11.4094033"><ele>240.0</ele><time>2026-04-20T14:07:43.024Z</time></trkpt><trkpt lat="43.3481033" lon="11.4091833"><ele>240.0</ele><time>2026-04-20T14:07:44.025Z</time></trkpt><trkpt lat="43.3480633" lon="11.408955"><ele>248.0</ele><time>2026-04-20T14:07:45.025Z</time></trkpt><trkpt lat="43.3480417" lon="11.4087283"><ele>256.0</ele><time>2026-04-20T14:07:46.025Z</time></trkpt><trkpt lat="43.34803" lon="11.408505"><ele>264.0</ele><time>2026-04-20T14:07:47.024Z</time></trkpt><trkpt lat="43.348025" lon="11.4082717"><ele>264.0</ele><time>2026-04-20T14:07:48.024Z</time></trkpt><trkpt lat="43.3480217" lon="11.40804"><ele>264.0</ele><time>2026-04-20T14:07:49.025Z</time></trkpt><trkpt lat="43.34803" lon="11.4078083"><ele>264.0</ele><time>2026-04-20T14:07:50.025Z</time></trkpt><trkpt lat="43.3480383" lon="11.407575"><ele>259.0</ele><time>2026-04-20T14:07:51.025Z</time></trkpt><trkpt lat="43.3480483" lon="11.4073383"><ele>254.0</ele><time>2026-04-20T14:07:52.025Z</time></trkpt><trkpt lat="43.3480567" lon="11.4071083"><ele>249.0</ele><time>2026-04-20T14:07:53.025Z</time></trkpt><trkpt lat="43.348075" lon="11.4068833"><ele>249.0</ele><time>2026-04-20T14:07:54.025Z</time></trkpt><trkpt lat="43.3481033" lon="11.4066583"><ele>249.0</ele><time>2026-04-20T14:07:55.025Z</time></trkpt><trkpt lat="43.34814" lon="11.406435"><ele>249.0</ele><time>2026-04-20T14:07:56.024Z</time></trkpt><trkpt lat="43.348195" lon="11.4062117"><ele>251.33333333333331</ele><time>2026-04-20T14:07:57.025Z</time></trkpt><trkpt lat="43.348265" lon="11.4059983"><ele>253.66666666666666</ele><time>2026-04-20T14:07:58.025Z</time></trkpt><trkpt lat="43.3483333" lon="11.4057867"><ele>256.0</ele><time>2026-04-20T14:07:59.025Z</time></trkpt><trkpt lat="43.3483917" lon="11.40558"><ele>259.66666666666663</ele><time>2026-04-20T14:08:00.025Z</time></trkpt><trkpt lat="43.3484333" lon="11.4053483"><ele>263.3333333333333</ele><time>2026-04-20T14:08:01.025Z</time></trkpt><trkpt lat="43.3484667" lon="11.40511"><ele>267.0</ele><time>2026-04-20T14:08:02.025Z</time></trkpt><trkpt lat="43.34849" lon="11.4048767"><ele>267.6666666666667</ele><time>2026-04-20T14:08:03.025Z</time></trkpt><trkpt lat="43.3485217" lon="11.40464"><ele>268.33333333333337</ele><time>2026-04-20T14:08:04.025Z</time></trkpt><trkpt lat="43.348565" lon="11.4044283"><ele>269.0</ele><time>2026-04-20T14:08:05.025Z</time></trkpt><trkpt lat="43.3486317" lon="11.40425"><ele>269.0</ele><time>2026-04-20T14:08:06.025Z</time></trkpt><trkpt lat="43.34873" lon="11.4041"><ele>269.0</ele><time>2026-04-20T14:08:07.025Z</time></trkpt><trkpt lat="43.3488317" lon="11.4039633"><ele>269.0</ele><time>2026-04-20T14:08:08.025Z</time></trkpt><trkpt lat="43.3489267" lon="11.4038167"><ele>269.0</ele><time>2026-04-20T14:08:09.025Z</time></trkpt><trkpt lat="43.3490067" lon="11.403655"><ele>269.75</ele><time>2026-04-20T14:08:10.025Z</time></trkpt><trkpt lat="43.3490783" lon="11.4034867"><ele>270.5</ele><time>2026-04-20T14:08:11.025Z</time></trkpt><trkpt lat="43.3491267" lon="11.4033133"><ele>271.25</ele><time>2026-04-20T14:08:12.025Z</time></trkpt><trkpt lat="43.34916" lon="11.403125"><ele>272.0</ele><time>2026-04-20T14:08:13.025Z</time></trkpt><trkpt lat="43.3491867" lon="11.4029267"><ele>274.33333333333337</ele><time>2026-04-20T14:08:14.025Z</time></trkpt><trkpt lat="43.3492067" lon="11.4027217"><ele>276.6666666666667</ele><time>2026-04-20T14:08:15.025Z</time></trkpt><trkpt lat="43.34922" lon="11.4025033"><ele>279.0</ele><time>2026-04-20T14:08:16.025Z</time></trkpt><trkpt lat="43.34923" lon="11.4022867"><ele>281.0</ele><time>2026-04-20T14:08:17.025Z</time></trkpt><trkpt lat="43.3492533" lon="11.4020883"><ele>283.0</ele><time>2026-04-20T14:08:18.025Z</time></trkpt><trkpt lat="43.3492933" lon="11.4019133"><ele>285.0</ele><time>2026-04-20T14:08:19.025Z</time></trkpt><trkpt lat="43.3493417" lon="11.401745"><ele>287.0</ele><time>2026-04-20T14:08:20.025Z</time></trkpt><trkpt lat="43.3493983" lon="11.4016317"><ele>287.0</ele><time>2026-04-20T14:08:21.025Z</time></trkpt><trkpt lat="43.349485" lon="11.4015467"><ele>287.0</ele><time>2026-04-20T14:08:22.025Z</time></trkpt><trkpt lat="43.3495883" lon="11.4015067"><ele>287.0</ele><time>2026-04-20T14:08:23.025Z</time></trkpt><trkpt lat="43.3496917" lon="11.4015067"><ele>287.0</ele><time>2026-04-20T14:08:24.025Z</time></trkpt><trkpt lat="43.3498017" lon="11.40154"><ele>287.0</ele><time>2026-04-20T14:08:25.025Z</time></trkpt><trkpt lat="43.3499217" lon="11.4015983"><ele>286.0</ele><time>2026-04-20T14:08:26.025Z</time></trkpt><trkpt lat="43.3500283" lon="11.4016267"><ele>285.0</ele><time>2026-04-20T14:08:27.025Z</time></trkpt><trkpt lat="43.3501167" lon="11.4016117"><ele>284.0</ele><time>2026-04-20T14:08:28.024Z</time></trkpt><trkpt lat="43.35019" lon="11.40156"><ele>283.0</ele><time>2026-04-20T14:08:29.025Z</time></trkpt><trkpt lat="43.350245" lon="11.4014667"><ele>282.0</ele><time>2026-04-20T14:08:30.025Z</time></trkpt><trkpt lat="43.35027" lon="11.4013483"><ele>284.5</ele><time>2026-04-20T14:08:31.024Z</time></trkpt><trkpt lat="43.3502583" lon="11.4012183"><ele>287.0</ele><time>2026-04-20T14:08:32.025Z</time></trkpt><trkpt lat="43.3502033" lon="11.401095"><ele>289.5</ele><time>2026-04-20T14:08:33.025Z</time></trkpt><trkpt lat="43.3500967" lon="11.4009667"><ele>292.0</ele><time>2026-04-20T14:08:34.025Z</time></trkpt><trkpt lat="43.3499867" lon="11.40084"><ele>292.0</ele><time>2026-04-20T14:08:35.024Z</time></trkpt><trkpt lat="43.34987" lon="11.40072"><ele>292.0</ele><time>2026-04-20T14:08:36.025Z</time></trkpt><trkpt lat="43.34973" lon="11.40065"><ele>292.0</ele><time>2026-04-20T14:08:37.025Z</time></trkpt><trkpt lat="43.3495833" lon="11.400625"><ele>292.0</ele><time>2026-04-20T14:08:38.025Z</time></trkpt><trkpt lat="43.3494467" lon="11.4006433"><ele>292.5</ele><time>2026-04-20T14:08:39.025Z</time></trkpt><trkpt lat="43.3493133" lon="11.4007067"><ele>293.0</ele><time>2026-04-20T14:08:40.024Z</time></trkpt><trkpt lat="43.349185" lon="11.4007967"><ele>293.5</ele><time>2026-04-20T14:08:41.025Z</time></trkpt><trkpt lat="43.349055" lon="11.4008783"><ele>294.0</ele><time>2026-04-20T14:08:42.025Z</time></trkpt><trkpt lat="43.34894" lon="11.4009517"><ele>295.2</ele><time>2026-04-20T14:08:43.024Z</time></trkpt><trkpt lat="43.3488233" lon="11.4010183"><ele>296.4</ele><time>2026-04-20T14:08:44.024Z</time></trkpt><trkpt lat="43.3487167" lon="11.40106"><ele>297.6</ele><time>2026-04-20T14:08:45.023Z</time></trkpt><trkpt lat="43.34863" lon="11.4010433"><ele>298.8</ele><time>2026-04-20T14:08:46.024Z</time></trkpt><trkpt lat="43.3485483" lon="11.4009867"><ele>300.0</ele><time>2026-04-20T14:08:47.024Z</time></trkpt><trkpt lat="43.34846" lon="11.4008917"><ele>300.0</ele><time>2026-04-20T14:08:48.024Z</time></trkpt><trkpt lat="43.3483667" lon="11.4007817"><ele>300.0</ele><time>2026-04-20T14:08:49.024Z</time></trkpt><trkpt lat="43.34826" lon="11.4006617"><ele>300.0</ele><time>2026-04-20T14:08:50.024Z</time></trkpt><trkpt lat="43.3481533" lon="11.4005567"><ele>300.0</ele><time>2026-04-20T14:08:51.024Z</time></trkpt><trkpt lat="43.348035" lon="11.4004533"><ele>301.75</ele><time>2026-04-20T14:08:52.024Z</time></trkpt><trkpt lat="43.34791" lon="11.400365"><ele>303.5</ele><time>2026-04-20T14:08:53.023Z</time></trkpt><trkpt lat="43.3477917" lon="11.400285"><ele>305.25</ele><time>2026-04-20T14:08:54.024Z</time></trkpt><trkpt lat="43.3476783" lon="11.4002267"><ele>307.0</ele><time>2026-04-20T14:08:55.023Z</time></trkpt><trkpt lat="43.34758" lon="11.4001633"><ele>307.0</ele><time>2026-04-20T14:08:56.023Z</time></trkpt><trkpt lat="43.3475017" lon="11.4000717"><ele>307.0</ele><time>2026-04-20T14:08:57.024Z</time></trkpt><trkpt lat="43.347455" lon="11.3999717"><ele>307.0</ele><time>2026-04-20T14:08:58.024Z</time></trkpt><trkpt lat="43.3474333" lon="11.3998583"><ele>307.0</ele><time>2026-04-20T14:08:59.023Z</time></trkpt><trkpt lat="43.3474333" lon="11.3997317"><ele>307.0</ele><time>2026-04-20T14:09:00.024Z</time></trkpt><trkpt lat="43.347455" lon="11.3996133"><ele>307.2</ele><time>2026-04-20T14:09:01.024Z</time></trkpt><trkpt lat="43.3474967" lon="11.3995017"><ele>307.4</ele><time>2026-04-20T14:09:02.024Z</time></trkpt><trkpt lat="43.3475517" lon="11.3994117"><ele>307.6</ele><time>2026-04-20T14:09:03.023Z</time></trkpt><trkpt lat="43.34762" lon="11.39933"><ele>307.8</ele><time>2026-04-20T14:09:04.023Z</time></trkpt><trkpt lat="43.347705" lon="11.3992567"><ele>308.0</ele><time>2026-04-20T14:09:05.024Z</time></trkpt><trkpt lat="43.3477933" lon="11.3991967"><ele>308.0</ele><time>2026-04-20T14:09:06.023Z</time></trkpt><trkpt lat="43.34789" lon="11.3991433"><ele>308.0</ele><time>2026-04-20T14:09:07.024Z</time></trkpt><trkpt lat="43.347985" lon="11.3990967"><ele>308.0</ele><time>2026-04-20T14:09:08.024Z</time></trkpt><trkpt lat="43.34808" lon="11.39906"><ele>308.0</ele><time>2026-04-20T14:09:09.023Z</time></trkpt><trkpt lat="43.348175" lon="11.39903"><ele>308.0</ele><time>2026-04-20T14:09:10.024Z</time></trkpt><trkpt lat="43.3482583" lon="11.399005"><ele>308.33333333333337</ele><time>2026-04-20T14:09:11.024Z</time></trkpt><trkpt lat="43.3483317" lon="11.399"><ele>308.6666666666667</ele><time>2026-04-20T14:09:12.023Z</time></trkpt><trkpt lat="43.3483983" lon="11.39899"><ele>309.0</ele><time>2026-04-20T14:09:13.024Z</time></trkpt><trkpt lat="43.3484483" lon="11.398925"><ele>309.3333333333333</ele><time>2026-04-20T14:09:15.024Z</time></trkpt><trkpt lat="43.3484217" lon="11.39883"><ele>309.66666666666663</ele><time>2026-04-20T14:09:17.024Z</time></trkpt><trkpt lat="43.348345" lon="11.3986983"><ele>310.0</ele><time>2026-04-20T14:09:19.024Z</time></trkpt><trkpt lat="43.3483" lon="11.3986267"><ele>309.16666666666663</ele><time>2026-04-20T14:09:20.024Z</time></trkpt><trkpt lat="43.3482517" lon="11.398565"><ele>308.3333333333333</ele><time>2026-04-20T14:09:21.023Z</time></trkpt><trkpt lat="43.3481883" lon="11.398525"><ele>307.5</ele><time>2026-04-20T14:09:22.023Z</time></trkpt><trkpt lat="43.3481117" lon="11.3985083"><ele>306.6666666666667</ele><time>2026-04-20T14:09:23.023Z</time></trkpt><trkpt lat="43.3480317" lon="11.3985233"><ele>305.83333333333337</ele><time>2026-04-20T14:09:24.024Z</time></trkpt><trkpt lat="43.3479467" lon="11.398565"><ele>305.0</ele><time>2026-04-20T14:09:25.023Z</time></trkpt><trkpt lat="43.3478567" lon="11.3986033"><ele>303.8</ele><time>2026-04-20T14:09:26.024Z</time></trkpt><trkpt lat="43.347765" lon="11.39864"><ele>302.6</ele><time>2026-04-20T14:09:27.024Z</time></trkpt><trkpt lat="43.3476683" lon="11.3986767"><ele>301.4</ele><time>2026-04-20T14:09:28.024Z</time></trkpt><trkpt lat="43.347575" lon="11.398695"><ele>300.2</ele><time>2026-04-20T14:09:29.024Z</time></trkpt><trkpt lat="43.3474917" lon="11.3987017"><ele>299.0</ele><time>2026-04-20T14:09:30.023Z</time></trkpt><trkpt lat="43.34741" lon="11.3987217"><ele>299.0</ele><time>2026-04-20T14:09:31.024Z</time></trkpt><trkpt lat="43.3473267" lon="11.3987367"><ele>299.0</ele><time>2026-04-20T14:09:32.024Z</time></trkpt><trkpt lat="43.347235" lon="11.3987483"><ele>299.0</ele><time>2026-04-20T14:09:33.024Z</time></trkpt><trkpt lat="43.3471317" lon="11.3987633"><ele>299.0</ele><time>2026-04-20T14:09:34.024Z</time></trkpt><trkpt lat="43.3470283" lon="11.398795"><ele>299.0</ele><time>2026-04-20T14:09:35.023Z</time></trkpt><trkpt lat="43.3469367" lon="11.3988367"><ele>299.59999999999997</ele><time>2026-04-20T14:09:36.024Z</time></trkpt><trkpt lat="43.3468467" lon="11.3989033"><ele>300.2</ele><time>2026-04-20T14:09:37.024Z</time></trkpt><trkpt lat="43.34676" lon="11.39899"><ele>300.79999999999995</ele><time>2026-04-20T14:09:38.024Z</time></trkpt><trkpt lat="43.3466833" lon="11.3990933"><ele>301.4</ele><time>2026-04-20T14:09:39.024Z</time></trkpt><trkpt lat="43.3466117" lon="11.3992067"><ele>302.0</ele><time>2026-04-20T14:09:40.024Z</time></trkpt><trkpt lat="43.3465267" lon="11.3993283"><ele>302.0</ele><time>2026-04-20T14:09:41.024Z</time></trkpt><trkpt lat="43.3464483" lon="11.3994567"><ele>302.0</ele><time>2026-04-20T14:09:42.024Z</time></trkpt><trkpt lat="43.3463617" lon="11.39959"><ele>302.0</ele><time>2026-04-20T14:09:43.023Z</time></trkpt><trkpt lat="43.3462867" lon="11.39972"><ele>302.0</ele><time>2026-04-20T14:09:44.023Z</time></trkpt><trkpt lat="43.3462067" lon="11.39985"><ele>301.25</ele><time>2026-04-20T14:09:45.024Z</time></trkpt><trkpt lat="43.3461317" lon="11.39998"><ele>300.5</ele><time>2026-04-20T14:09:46.024Z</time></trkpt><trkpt lat="43.3460433" lon="11.4000983"><ele>299.75</ele><time>2026-04-20T14:09:47.024Z</time></trkpt><trkpt lat="43.3459583" lon="11.4002167"><ele>299.0</ele><time>2026-04-20T14:09:48.023Z</time></trkpt><trkpt lat="43.345875" lon="11.4003367"><ele>299.0</ele><time>2026-04-20T14:09:49.024Z</time></trkpt><trkpt lat="43.3457933" lon="11.400455"><ele>299.0</ele><time>2026-04-20T14:09:50.024Z</time></trkpt><trkpt lat="43.3457183" lon="11.400565"><ele>299.0</ele><time>2026-04-20T14:09:51.024Z</time></trkpt><trkpt lat="43.34565" lon="11.4006767"><ele>299.0</ele><time>2026-04-20T14:09:52.024Z</time></trkpt><trkpt lat="43.3455817" lon="11.4007783"><ele>299.0</ele><time>2026-04-20T14:09:53.023Z</time></trkpt><trkpt lat="43.3455133" lon="11.4008683"><ele>299.0</ele><time>2026-04-20T14:09:54.023Z</time></trkpt><trkpt lat="43.3454483" lon="11.4009633"><ele>299.0</ele><time>2026-04-20T14:09:55.023Z</time></trkpt><trkpt lat="43.345385" lon="11.4010433"><ele>299.0</ele><time>2026-04-20T14:09:56.024Z</time></trkpt><trkpt lat="43.3453183" lon="11.4011083"><ele>299.0</ele><time>2026-04-20T14:09:57.024Z</time></trkpt><trkpt lat="43.3452333" lon="11.4011567"><ele>299.0</ele><time>2026-04-20T14:09:58.023Z</time></trkpt><trkpt lat="43.3451417" lon="11.4012017"><ele>299.0</ele><time>2026-04-20T14:09:59.024Z</time></trkpt><trkpt lat="43.3450417" lon="11.401245"><ele>299.0</ele><time>2026-04-20T14:10:00.024Z</time></trkpt><trkpt lat="43.344935" lon="11.4012867"><ele>299.0</ele><time>2026-04-20T14:10:01.024Z</time></trkpt><trkpt lat="43.3448283" lon="11.401315"><ele>299.0</ele><time>2026-04-20T14:10:02.024Z</time></trkpt><trkpt lat="43.3447183" lon="11.4013383"><ele>299.0</ele><time>2026-04-20T14:10:03.024Z</time></trkpt><trkpt lat="43.3446033" lon="11.4013517"><ele>297.8</ele><time>2026-04-20T14:10:04.024Z</time></trkpt><trkpt lat="43.3444917" lon="11.40135"><ele>296.59999999999997</ele><time>2026-04-20T14:10:05.024Z</time></trkpt><trkpt lat="43.34438" lon="11.4013467"><ele>295.4</ele><time>2026-04-20T14:10:06.024Z</time></trkpt><trkpt lat="43.344275" lon="11.40135"><ele>294.2</ele><time>2026-04-20T14:10:07.024Z</time></trkpt><trkpt lat="43.344175" lon="11.4013583"><ele>293.0</ele><time>2026-04-20T14:10:08.024Z</time></trkpt><trkpt lat="43.3440667" lon="11.4013917"><ele>293.0</ele><time>2026-04-20T14:10:09.024Z</time></trkpt><trkpt lat="43.3439633" lon="11.4014317"><ele>293.0</ele><time>2026-04-20T14:10:10.023Z</time></trkpt><trkpt lat="43.343855" lon="11.40149"><ele>293.0</ele><time>2026-04-20T14:10:11.024Z</time></trkpt><trkpt lat="43.343745" lon="11.4015567"><ele>293.0</ele><time>2026-04-20T14:10:12.023Z</time></trkpt><trkpt lat="43.3436333" lon="11.40162"><ele>292.75</ele><time>2026-04-20T14:10:13.023Z</time></trkpt><trkpt lat="43.343535" lon="11.4016833"><ele>292.5</ele><time>2026-04-20T14:10:14.024Z</time></trkpt><trkpt lat="43.343435" lon="11.401755"><ele>292.25</ele><time>2026-04-20T14:10:15.024Z</time></trkpt><trkpt lat="43.343335" lon="11.4018417"><ele>292.0</ele><time>2026-04-20T14:10:16.024Z</time></trkpt><trkpt lat="43.343255" lon="11.4019483"><ele>292.0</ele><time>2026-04-20T14:10:17.024Z</time></trkpt><trkpt lat="43.3431917" lon="11.4020633"><ele>292.0</ele><time>2026-04-20T14:10:18.024Z</time></trkpt><trkpt lat="43.3431483" lon="11.4021967"><ele>292.0</ele><time>2026-04-20T14:10:19.023Z</time></trkpt><trkpt lat="43.34311" lon="11.4023333"><ele>292.0</ele><time>2026-04-20T14:10:20.024Z</time></trkpt><trkpt lat="43.3430867" lon="11.4024733"><ele>292.0</ele><time>2026-04-20T14:10:21.024Z</time></trkpt><trkpt lat="43.3430783" lon="11.4026233"><ele>291.4</ele><time>2026-04-20T14:10:22.024Z</time></trkpt><trkpt lat="43.3430717" lon="11.4027567"><ele>290.79999999999995</ele><time>2026-04-20T14:10:23.024Z</time></trkpt><trkpt lat="43.34306" lon="11.4028983"><ele>290.2</ele><time>2026-04-20T14:10:24.023Z</time></trkpt><trkpt lat="43.3430283" lon="11.403025"><ele>289.59999999999997</ele><time>2026-04-20T14:10:25.024Z</time></trkpt><trkpt lat="43.342985" lon="11.4031367"><ele>289.0</ele><time>2026-04-20T14:10:26.024Z</time></trkpt><trkpt lat="43.3429233" lon="11.40323"><ele>289.0</ele><time>2026-04-20T14:10:27.024Z</time></trkpt><trkpt lat="43.342845" lon="11.4032933"><ele>289.0</ele><time>2026-04-20T14:10:28.024Z</time></trkpt><trkpt lat="43.342755" lon="11.4033217"><ele>289.0</ele><time>2026-04-20T14:10:29.024Z</time></trkpt><trkpt lat="43.34266" lon="11.4033433"><ele>289.0</ele><time>2026-04-20T14:10:30.024Z</time></trkpt><trkpt lat="43.3425617" lon="11.403355"><ele>289.0</ele><time>2026-04-20T14:10:31.024Z</time></trkpt><trkpt lat="43.34247" lon="11.4033817"><ele>289.0</ele><time>2026-04-20T14:10:32.024Z</time></trkpt><trkpt lat="43.3423833" lon="11.4034183"><ele>289.0</ele><time>2026-04-20T14:10:33.023Z</time></trkpt><trkpt lat="43.3422967" lon="11.4034833"><ele>289.0</ele><time>2026-04-20T14:10:34.024Z</time></trkpt><trkpt lat="43.34221" lon="11.403575"><ele>289.0</ele><time>2026-04-20T14:10:35.024Z</time></trkpt><trkpt lat="43.3421167" lon="11.4036767"><ele>289.0</ele><time>2026-04-20T14:10:36.024Z</time></trkpt><trkpt lat="43.3420233" lon="11.403785"><ele>287.75</ele><time>2026-04-20T14:10:37.024Z</time></trkpt><trkpt lat="43.34193" lon="11.4039067"><ele>286.5</ele><time>2026-04-20T14:10:38.024Z</time></trkpt><trkpt lat="43.3418333" lon="11.4040133"><ele>285.25</ele><time>2026-04-20T14:10:39.024Z</time></trkpt><trkpt lat="43.3417267" lon="11.40413"><ele>284.0</ele><time>2026-04-20T14:10:40.024Z</time></trkpt><trkpt lat="43.3416267" lon="11.4042433"><ele>284.0</ele><time>2026-04-20T14:10:41.024Z</time></trkpt><trkpt lat="43.34153" lon="11.404355"><ele>284.0</ele><time>2026-04-20T14:10:42.024Z</time></trkpt><trkpt lat="43.3414433" lon="11.40446"><ele>284.0</ele><time>2026-04-20T14:10:43.024Z</time></trkpt><trkpt lat="43.34136" lon="11.40457"><ele>284.0</ele><time>2026-04-20T14:10:44.024Z</time></trkpt><trkpt lat="43.341285" lon="11.404695"><ele>285.5</ele><time>2026-04-20T14:10:45.024Z</time></trkpt><trkpt lat="43.3412133" lon="11.4048233"><ele>287.0</ele><time>2026-04-20T14:10:46.024Z</time></trkpt><trkpt lat="43.3411317" lon="11.404945"><ele>288.5</ele><time>2026-04-20T14:10:47.024Z</time></trkpt><trkpt lat="43.3410517" lon="11.4050617"><ele>290.0</ele><time>2026-04-20T14:10:48.024Z</time></trkpt><trkpt lat="43.3409717" lon="11.4051733"><ele>290.0</ele><time>2026-04-20T14:10:49.023Z</time></trkpt><trkpt lat="43.3408867" lon="11.405265"><ele>290.0</ele><time>2026-04-20T14:10:50.024Z</time></trkpt><trkpt lat="43.340795" lon="11.405345"><ele>290.0</ele><time>2026-04-20T14:10:51.024Z</time></trkpt><trkpt lat="43.34069" lon="11.4054183"><ele>290.0</ele><time>2026-04-20T14:10:52.024Z</time></trkpt><trkpt lat="43.3405767" lon="11.4054917"><ele>290.0</ele><time>2026-04-20T14:10:53.024Z</time></trkpt><trkpt lat="43.3404583" lon="11.4055567"><ele>290.0</ele><time>2026-04-20T14:10:54.024Z</time></trkpt><trkpt lat="43.3403367" lon="11.4056267"><ele>290.0</ele><time>2026-04-20T14:10:55.023Z</time></trkpt><trkpt lat="43.3402133" lon="11.4057"><ele>290.0</ele><time>2026-04-20T14:10:56.023Z</time></trkpt><trkpt lat="43.3400967" lon="11.405775"><ele>290.0</ele><time>2026-04-20T14:10:57.023Z</time></trkpt><trkpt lat="43.33998" lon="11.40585"><ele>290.0</ele><time>2026-04-20T14:10:58.024Z</time></trkpt><trkpt lat="43.3398717" lon="11.4059183"><ele>290.0</ele><time>2026-04-20T14:10:59.024Z</time></trkpt><trkpt lat="43.3397683" lon="11.4059833"><ele>290.0</ele><time>2026-04-20T14:11:00.024Z</time></trkpt><trkpt lat="43.3396833" lon="11.40605"><ele>289.5</ele><time>2026-04-20T14:11:01.023Z</time></trkpt><trkpt lat="43.3396117" lon="11.40612"><ele>289.0</ele><time>2026-04-20T14:11:02.024Z</time></trkpt><trkpt lat="43.3395567" lon="11.4061983"><ele>288.5</ele><time>2026-04-20T14:11:03.024Z</time></trkpt><trkpt lat="43.3395133" lon="11.4062917"><ele>288.0</ele><time>2026-04-20T14:11:04.024Z</time></trkpt><trkpt lat="43.3394783" lon="11.4063933"><ele>287.5</ele><time>2026-04-20T14:11:05.024Z</time></trkpt><trkpt lat="43.339435" lon="11.4065017"><ele>287.0</ele><time>2026-04-20T14:11:06.024Z</time></trkpt><trkpt lat="43.3393867" lon="11.4066083"><ele>287.0</ele><time>2026-04-20T14:11:07.023Z</time></trkpt><trkpt lat="43.3393233" lon="11.4067067"><ele>287.0</ele><time>2026-04-20T14:11:08.024Z</time></trkpt><trkpt lat="43.3392483" lon="11.4068067"><ele>287.0</ele><time>2026-04-20T14:11:09.023Z</time></trkpt><trkpt lat="43.3391617" lon="11.4069"><ele>287.0</ele><time>2026-04-20T14:11:10.024Z</time></trkpt><trkpt lat="43.3390767" lon="11.4070033"><ele>287.0</ele><time>2026-04-20T14:11:11.024Z</time></trkpt><trkpt lat="43.3389933" lon="11.4071133"><ele>287.0</ele><time>2026-04-20T14:11:12.024Z</time></trkpt><trkpt lat="43.338905" lon="11.4072183"><ele>287.0</ele><time>2026-04-20T14:11:13.024Z</time></trkpt><trkpt lat="43.3388167" lon="11.407325"><ele>287.0</ele><time>2026-04-20T14:11:14.024Z</time></trkpt><trkpt lat="43.3387217" lon="11.407425"><ele>287.0</ele><time>2026-04-20T14:11:15.024Z</time></trkpt><trkpt lat="43.3386233" lon="11.4075233"><ele>287.4</ele><time>2026-04-20T14:11:16.024Z</time></trkpt><trkpt lat="43.3385267" lon="11.407615"><ele>287.79999999999995</ele><time>2026-04-20T14:11:17.024Z</time></trkpt><trkpt lat="43.338425" lon="11.407695"><ele>288.2</ele><time>2026-04-20T14:11:18.024Z</time></trkpt><trkpt lat="43.3383283" lon="11.4077617"><ele>288.59999999999997</ele><time>2026-04-20T14:11:19.024Z</time></trkpt><trkpt lat="43.338235" lon="11.4078033"><ele>289.0</ele><time>2026-04-20T14:11:20.023Z</time></trkpt><trkpt lat="43.3381483" lon="11.4078283"><ele>289.0</ele><time>2026-04-20T14:11:21.024Z</time></trkpt><trkpt lat="43.33807" lon="11.407815"><ele>289.0</ele><time>2026-04-20T14:11:22.024Z</time></trkpt><trkpt lat="43.3379867" lon="11.407765"><ele>289.0</ele><time>2026-04-20T14:11:23.024Z</time></trkpt><trkpt lat="43.3379" lon="11.407695"><ele>289.0</ele><time>2026-04-20T14:11:24.023Z</time></trkpt><trkpt lat="43.33781" lon="11.4076033"><ele>289.0</ele><time>2026-04-20T14:11:25.024Z</time></trkpt><trkpt lat="43.3377117" lon="11.4075117"><ele>289.25</ele><time>2026-04-20T14:11:26.024Z</time></trkpt><trkpt lat="43.3376167" lon="11.407415"><ele>289.5</ele><time>2026-04-20T14:11:27.023Z</time></trkpt><trkpt lat="43.3375217" lon="11.407325"><ele>289.75</ele><time>2026-04-20T14:11:28.024Z</time></trkpt><trkpt lat="43.3374283" lon="11.40723"><ele>290.0</ele><time>2026-04-20T14:11:29.023Z</time></trkpt><trkpt lat="43.3373267" lon="11.4071417"><ele>290.0</ele><time>2026-04-20T14:11:30.024Z</time></trkpt><trkpt lat="43.3372217" lon="11.40706"><ele>290.0</ele><time>2026-04-20T14:11:31.024Z</time></trkpt><trkpt lat="43.3371083" lon="11.40699"><ele>290.0</ele><time>2026-04-20T14:11:32.024Z</time></trkpt><trkpt lat="43.3369833" lon="11.4069383"><ele>290.0</ele><time>2026-04-20T14:11:33.024Z</time></trkpt><trkpt lat="43.3368633" lon="11.406885"><ele>290.4</ele><time>2026-04-20T14:11:34.023Z</time></trkpt><trkpt lat="43.3367433" lon="11.4068367"><ele>290.8</ele><time>2026-04-20T14:11:35.024Z</time></trkpt><trkpt lat="43.33664" lon="11.4067883"><ele>291.2</ele><time>2026-04-20T14:11:36.024Z</time></trkpt><trkpt lat="43.3365417" lon="11.40675"><ele>291.6</ele><time>2026-04-20T14:11:37.024Z</time></trkpt><trkpt lat="43.33645" lon="11.4067183"><ele>292.0</ele><time>2026-04-20T14:11:38.023Z</time></trkpt><trkpt lat="43.3363533" lon="11.4066933"><ele>293.4</ele><time>2026-04-20T14:11:39.024Z</time></trkpt><trkpt lat="43.336255" lon="11.4066867"><ele>294.79999999999995</ele><time>2026-04-20T14:11:40.024Z</time></trkpt><trkpt lat="43.3361533" lon="11.4067"><ele>296.2</ele><time>2026-04-20T14:11:41.024Z</time></trkpt><trkpt lat="43.33606" lon="11.406735"><ele>297.59999999999997</ele><time>2026-04-20T14:11:42.024Z</time></trkpt><trkpt lat="43.335975" lon="11.4068017"><ele>299.0</ele><time>2026-04-20T14:11:43.023Z</time></trkpt><trkpt lat="43.3358817" lon="11.4068833"><ele>299.0</ele><time>2026-04-20T14:11:44.024Z</time></trkpt><trkpt lat="43.3357917" lon="11.406975"><ele>299.0</ele><time>2026-04-20T14:11:45.024Z</time></trkpt><trkpt lat="43.3357017" lon="11.4070683"><ele>299.0</ele><time>2026-04-20T14:11:46.024Z</time></trkpt><trkpt lat="43.3356217" lon="11.40716"><ele>299.0</ele><time>2026-04-20T14:11:47.024Z</time></trkpt><trkpt lat="43.3355483" lon="11.40724"><ele>299.0</ele><time>2026-04-20T14:11:48.024Z</time></trkpt><trkpt lat="43.3354783" lon="11.4073033"><ele>298.6666666666667</ele><time>2026-04-20T14:11:49.024Z</time></trkpt><trkpt lat="43.3354233" lon="11.4073583"><ele>298.33333333333337</ele><time>2026-04-20T14:11:50.024Z</time></trkpt><trkpt lat="43.3353467" lon="11.4073917"><ele>298.0</ele><time>2026-04-20T14:11:51.024Z</time></trkpt><trkpt lat="43.3352667" lon="11.407385"><ele>297.6666666666667</ele><time>2026-04-20T14:11:52.024Z</time></trkpt><trkpt lat="43.3351833" lon="11.407395"><ele>297.3333333333333</ele><time>2026-04-20T14:11:53.024Z</time></trkpt><trkpt lat="43.3351" lon="11.4074133"><ele>297.0</ele><time>2026-04-20T14:11:54.024Z</time></trkpt><trkpt lat="43.33502" lon="11.407415"><ele>297.0</ele><time>2026-04-20T14:11:55.024Z</time></trkpt><trkpt lat="43.334935" lon="11.407425"><ele>297.0</ele><time>2026-04-20T14:11:56.024Z</time></trkpt><trkpt lat="43.3348533" lon="11.4074467"><ele>297.0</ele><time>2026-04-20T14:11:57.024Z</time></trkpt><trkpt lat="43.334765" lon="11.4074683"><ele>297.0</ele><time>2026-04-20T14:11:58.024Z</time></trkpt><trkpt lat="43.334685" lon="11.40748"><ele>297.0</ele><time>2026-04-20T14:11:59.024Z</time></trkpt><trkpt lat="43.3345917" lon="11.40748"><ele>297.0</ele><time>2026-04-20T14:12:00.024Z</time></trkpt><trkpt lat="43.33451" lon="11.4074817"><ele>295.8333333333333</ele><time>2026-04-20T14:12:01.024Z</time></trkpt><trkpt lat="43.3344433" lon="11.4074867"><ele>294.6666666666667</ele><time>2026-04-20T14:12:02.023Z</time></trkpt><trkpt lat="43.3343267" lon="11.40744"><ele>293.5</ele><time>2026-04-20T14:12:04.024Z</time></trkpt><trkpt lat="43.334275" lon="11.4073733"><ele>292.33333333333337</ele><time>2026-04-20T14:12:05.024Z</time></trkpt><trkpt lat="43.3342467" lon="11.4072817"><ele>291.1666666666667</ele><time>2026-04-20T14:12:06.024Z</time></trkpt><trkpt lat="43.3342283" lon="11.407165"><ele>290.0</ele><time>2026-04-20T14:12:07.024Z</time></trkpt><trkpt lat="43.3342167" lon="11.40703"><ele>289.75</ele><time>2026-04-20T14:12:08.024Z</time></trkpt><trkpt lat="43.3342017" lon="11.4068717"><ele>289.5</ele><time>2026-04-20T14:12:09.024Z</time></trkpt><trkpt lat="43.33418" lon="11.4067017"><ele>289.25</ele><time>2026-04-20T14:12:10.024Z</time></trkpt><trkpt lat="43.33416" lon="11.4065467"><ele>289.0</ele><time>2026-04-20T14:12:11.024Z</time></trkpt><trkpt lat="43.3341467" lon="11.4064083"><ele>288.4</ele><time>2026-04-20T14:12:12.023Z</time></trkpt><trkpt lat="43.3341267" lon="11.4062767"><ele>287.79999999999995</ele><time>2026-04-20T14:12:13.023Z</time></trkpt><trkpt lat="43.3341133" lon="11.4061567"><ele>287.20000000000005</ele><time>2026-04-20T14:12:14.024Z</time></trkpt><trkpt lat="43.334105" lon="11.4060317"><ele>286.6</ele><time>2026-04-20T14:12:15.024Z</time></trkpt><trkpt lat="43.3340967" lon="11.4059017"><ele>286.0</ele><time>2026-04-20T14:12:16.023Z</time></trkpt><trkpt lat="43.334095" lon="11.4057533"><ele>286.0</ele><time>2026-04-20T14:12:17.024Z</time></trkpt><trkpt lat="43.334105" lon="11.4056017"><ele>286.0</ele><time>2026-04-20T14:12:18.024Z</time></trkpt><trkpt lat="43.33412" lon="11.40545"><ele>286.0</ele><time>2026-04-20T14:12:19.024Z</time></trkpt><trkpt lat="43.3341317" lon="11.4052917"><ele>286.0</ele><time>2026-04-20T14:12:20.024Z</time></trkpt><trkpt lat="43.3341483" lon="11.4051267"><ele>285.0</ele><time>2026-04-20T14:12:21.024Z</time></trkpt><trkpt lat="43.3341567" lon="11.4049517"><ele>284.0</ele><time>2026-04-20T14:12:22.024Z</time></trkpt><trkpt lat="43.3341683" lon="11.4047867"><ele>283.0</ele><time>2026-04-20T14:12:23.024Z</time></trkpt><trkpt lat="43.3341783" lon="11.4046367"><ele>282.0</ele><time>2026-04-20T14:12:24.024Z</time></trkpt><trkpt lat="43.3341917" lon="11.404505"><ele>282.0</ele><time>2026-04-20T14:12:25.024Z</time></trkpt><trkpt lat="43.3342033" lon="11.4043883"><ele>282.0</ele><time>2026-04-20T14:12:26.023Z</time></trkpt><trkpt lat="43.3342133" lon="11.4042783"><ele>282.0</ele><time>2026-04-20T14:12:27.024Z</time></trkpt><trkpt lat="43.334205" lon="11.4041817"><ele>282.0</ele><time>2026-04-20T14:12:28.024Z</time></trkpt><trkpt lat="43.33415" lon="11.4040583"><ele>282.0</ele><time>2026-04-20T14:12:30.024Z</time></trkpt><trkpt lat="43.33404" lon="11.4040283"><ele>282.0</ele><time>2026-04-20T14:12:32.024Z</time></trkpt><trkpt lat="43.3339767" lon="11.4040517"><ele>282.0</ele><time>2026-04-20T14:12:33.023Z</time></trkpt><trkpt lat="43.3339067" lon="11.4040883"><ele>282.0</ele><time>2026-04-20T14:12:34.024Z</time></trkpt><trkpt lat="43.3338283" lon="11.4041383"><ele>282.0</ele><time>2026-04-20T14:12:35.024Z</time></trkpt><trkpt lat="43.3337467" lon="11.4041867"><ele>282.0</ele><time>2026-04-20T14:12:36.024Z</time></trkpt><trkpt lat="43.33365" lon="11.4042417"><ele>282.0</ele><time>2026-04-20T14:12:37.024Z</time></trkpt><trkpt lat="43.3335367" lon="11.4042883"><ele>281.5</ele><time>2026-04-20T14:12:38.024Z</time></trkpt><trkpt lat="43.3334267" lon="11.40434"><ele>281.0</ele><time>2026-04-20T14:12:39.024Z</time></trkpt><trkpt lat="43.333325" lon="11.4043967"><ele>280.5</ele><time>2026-04-20T14:12:40.024Z</time></trkpt><trkpt lat="43.333225" lon="11.4044567"><ele>280.0</ele><time>2026-04-20T14:12:41.024Z</time></trkpt><trkpt lat="43.333115" lon="11.4045133"><ele>280.2</ele><time>2026-04-20T14:12:42.023Z</time></trkpt><trkpt lat="43.33301" lon="11.4045667"><ele>280.4</ele><time>2026-04-20T14:12:43.024Z</time></trkpt><trkpt lat="43.3329067" lon="11.40462"><ele>280.6</ele><time>2026-04-20T14:12:44.023Z</time></trkpt><trkpt lat="43.332805" lon="11.4046783"><ele>280.8</ele><time>2026-04-20T14:12:45.024Z</time></trkpt><trkpt lat="43.332705" lon="11.4047333"><ele>281.0</ele><time>2026-04-20T14:12:46.024Z</time></trkpt><trkpt lat="43.3326117" lon="11.4047883"><ele>280.40000000000003</ele><time>2026-04-20T14:12:47.024Z</time></trkpt><trkpt lat="43.3325167" lon="11.4048433"><ele>279.8</ele><time>2026-04-20T14:12:48.024Z</time></trkpt><trkpt lat="43.3324217" lon="11.4048867"><ele>279.20000000000005</ele><time>2026-04-20T14:12:49.024Z</time></trkpt><trkpt lat="43.3323283" lon="11.4049367"><ele>278.6</ele><time>2026-04-20T14:12:50.024Z</time></trkpt><trkpt lat="43.3322417" lon="11.4049817"><ele>278.0</ele><time>2026-04-20T14:12:51.024Z</time></trkpt><trkpt lat="43.3321667" lon="11.40503"><ele>278.0</ele><time>2026-04-20T14:12:52.024Z</time></trkpt><trkpt lat="43.332085" lon="11.4050683"><ele>278.0</ele><time>2026-04-20T14:12:53.024Z</time></trkpt><trkpt lat="43.3320067" lon="11.4051117"><ele>278.0</ele><time>2026-04-20T14:12:54.024Z</time></trkpt><trkpt lat="43.33193" lon="11.40516"><ele>278.0</ele><time>2026-04-20T14:12:55.024Z</time></trkpt><trkpt lat="43.3318483" lon="11.4051883"><ele>278.0</ele><time>2026-04-20T14:12:56.024Z</time></trkpt><trkpt lat="43.33176" lon="11.4052067"><ele>278.0</ele><time>2026-04-20T14:12:57.023Z</time></trkpt><trkpt lat="43.331675" lon="11.4052267"><ele>278.0</ele><time>2026-04-20T14:12:58.024Z</time></trkpt><trkpt lat="43.3315867" lon="11.4052583"><ele>278.0</ele><time>2026-04-20T14:12:59.023Z</time></trkpt><trkpt lat="43.331495" lon="11.40528"><ele>278.0</ele><time>2026-04-20T14:13:00.024Z</time></trkpt><trkpt lat="43.3314" lon="11.405305"><ele>278.0</ele><time>2026-04-20T14:13:01.024Z</time></trkpt><trkpt lat="43.3313033" lon="11.4053367"><ele>278.0</ele><time>2026-04-20T14:13:02.024Z</time></trkpt><trkpt lat="43.3312067" lon="11.4053667"><ele>276.8</ele><time>2026-04-20T14:13:03.024Z</time></trkpt><trkpt lat="43.3311033" lon="11.40539"><ele>275.6</ele><time>2026-04-20T14:13:04.024Z</time></trkpt><trkpt lat="43.331" lon="11.4054133"><ele>274.4</ele><time>2026-04-20T14:13:05.023Z</time></trkpt><trkpt lat="43.3308983" lon="11.40545"><ele>273.2</ele><time>2026-04-20T14:13:06.024Z</time></trkpt><trkpt lat="43.3307933" lon="11.405475"><ele>272.0</ele><time>2026-04-20T14:13:07.024Z</time></trkpt><trkpt lat="43.3306883" lon="11.4055067"><ele>271.25</ele><time>2026-04-20T14:13:08.024Z</time></trkpt><trkpt lat="43.3305783" lon="11.4055417"><ele>270.5</ele><time>2026-04-20T14:13:09.024Z</time></trkpt><trkpt lat="43.3304683" lon="11.4055817"><ele>269.75</ele><time>2026-04-20T14:13:10.024Z</time></trkpt><trkpt lat="43.3303567" lon="11.4056283"><ele>269.0</ele><time>2026-04-20T14:13:11.024Z</time></trkpt><trkpt lat="43.3302367" lon="11.4056867"><ele>267.75</ele><time>2026-04-20T14:13:12.024Z</time></trkpt><trkpt lat="43.33013" lon="11.4057417"><ele>266.5</ele><time>2026-04-20T14:13:13.024Z</time></trkpt><trkpt lat="43.3300217" lon="11.4058033"><ele>265.25</ele><time>2026-04-20T14:13:14.024Z</time></trkpt><trkpt lat="43.3299183" lon="11.4058667"><ele>264.0</ele><time>2026-04-20T14:13:15.024Z</time></trkpt><trkpt lat="43.3298167" lon="11.40594"><ele>262.75</ele><time>2026-04-20T14:13:16.024Z</time></trkpt><trkpt lat="43.32972" lon="11.4060183"><ele>261.5</ele><time>2026-04-20T14:13:17.024Z</time></trkpt><trkpt lat="43.3296267" lon="11.4061017"><ele>260.25</ele><time>2026-04-20T14:13:18.024Z</time></trkpt><trkpt lat="43.3295317" lon="11.406185"><ele>259.0</ele><time>2026-04-20T14:13:19.024Z</time></trkpt><trkpt lat="43.3294433" lon="11.4062917"><ele>258.75</ele><time>2026-04-20T14:13:20.024Z</time></trkpt><trkpt lat="43.3293517" lon="11.406395"><ele>258.5</ele><time>2026-04-20T14:13:21.023Z</time></trkpt><trkpt lat="43.3292533" lon="11.4065033"><ele>258.25</ele><time>2026-04-20T14:13:22.024Z</time></trkpt><trkpt lat="43.32916" lon="11.4066167"><ele>258.0</ele><time>2026-04-20T14:13:23.024Z</time></trkpt><trkpt lat="43.329065" lon="11.4067233"><ele>258.0</ele><time>2026-04-20T14:13:24.024Z</time></trkpt><trkpt lat="43.3289633" lon="11.4068367"><ele>258.0</ele><time>2026-04-20T14:13:25.024Z</time></trkpt><trkpt lat="43.3288733" lon="11.406945"><ele>258.0</ele><time>2026-04-20T14:13:26.024Z</time></trkpt><trkpt lat="43.3287817" lon="11.40706"><ele>258.0</ele><time>2026-04-20T14:13:27.023Z</time></trkpt><trkpt lat="43.328695" lon="11.4071567"><ele>256.75</ele><time>2026-04-20T14:13:28.024Z</time></trkpt><trkpt lat="43.32862" lon="11.4072583"><ele>255.5</ele><time>2026-04-20T14:13:29.023Z</time></trkpt><trkpt lat="43.328535" lon="11.4073667"><ele>254.25</ele><time>2026-04-20T14:13:30.024Z</time></trkpt><trkpt lat="43.3284517" lon="11.4074717"><ele>253.0</ele><time>2026-04-20T14:13:31.024Z</time></trkpt><trkpt lat="43.3283567" lon="11.407585"><ele>253.0</ele><time>2026-04-20T14:13:32.024Z</time></trkpt><trkpt lat="43.328265" lon="11.4076967"><ele>253.0</ele><time>2026-04-20T14:13:33.024Z</time></trkpt><trkpt lat="43.3281783" lon="11.4078067"><ele>253.0</ele><time>2026-04-20T14:13:34.024Z</time></trkpt><trkpt lat="43.328095" lon="11.407905"><ele>253.0</ele><time>2026-04-20T14:13:35.023Z</time></trkpt><trkpt lat="43.3280067" lon="11.4079983"><ele>253.0</ele><time>2026-04-20T14:13:36.024Z</time></trkpt><trkpt lat="43.32792" lon="11.4081067"><ele>253.0</ele><time>2026-04-20T14:13:37.024Z</time></trkpt><trkpt lat="43.3278333" lon="11.40821"><ele>253.0</ele><time>2026-04-20T14:13:38.024Z</time></trkpt><trkpt lat="43.3277517" lon="11.4083167"><ele>253.0</ele><time>2026-04-20T14:13:39.023Z</time></trkpt><trkpt lat="43.32767" lon="11.4084133"><ele>253.0</ele><time>2026-04-20T14:13:40.024Z</time></trkpt><trkpt lat="43.32758" lon="11.40851"><ele>253.0</ele><time>2026-04-20T14:13:41.023Z</time></trkpt><trkpt lat="43.3274883" lon="11.408605"><ele>253.0</ele><time>2026-04-20T14:13:42.024Z</time></trkpt><trkpt lat="43.3273967" lon="11.4087067"><ele>253.0</ele><time>2026-04-20T14:13:43.024Z</time></trkpt><trkpt lat="43.3273083" lon="11.40881"><ele>251.25</ele><time>2026-04-20T14:13:44.024Z</time></trkpt><trkpt lat="43.327225" lon="11.4089083"><ele>249.5</ele><time>2026-04-20T14:13:45.024Z</time></trkpt><trkpt lat="43.3271383" lon="11.40902"><ele>247.75</ele><time>2026-04-20T14:13:46.024Z</time></trkpt><trkpt lat="43.32705" lon="11.40912"><ele>246.0</ele><time>2026-04-20T14:13:47.024Z</time></trkpt><trkpt lat="43.3269683" lon="11.40923"><ele>246.0</ele><time>2026-04-20T14:13:48.023Z</time></trkpt><trkpt lat="43.3268933" lon="11.4093417"><ele>246.0</ele><time>2026-04-20T14:13:49.024Z</time></trkpt><trkpt lat="43.3268283" lon="11.4094583"><ele>246.0</ele><time>2026-04-20T14:13:50.024Z</time></trkpt><trkpt lat="43.3267483" lon="11.4095783"><ele>246.0</ele><time>2026-04-20T14:13:51.023Z</time></trkpt><trkpt lat="43.3266667" lon="11.4096933"><ele>245.4</ele><time>2026-04-20T14:13:52.023Z</time></trkpt><trkpt lat="43.326585" lon="11.40979"><ele>244.8</ele><time>2026-04-20T14:13:53.024Z</time></trkpt><trkpt lat="43.3265017" lon="11.40987"><ele>244.20000000000002</ele><time>2026-04-20T14:13:54.024Z</time></trkpt><trkpt lat="43.3264183" lon="11.40995"><ele>243.60000000000002</ele><time>2026-04-20T14:13:55.024Z</time></trkpt><trkpt lat="43.3263417" lon="11.4100317"><ele>243.0</ele><time>2026-04-20T14:13:56.024Z</time></trkpt><trkpt lat="43.3262717" lon="11.4101083"><ele>243.0</ele><time>2026-04-20T14:13:57.024Z</time></trkpt><trkpt lat="43.32621" lon="11.4101783"><ele>243.0</ele><time>2026-04-20T14:13:58.023Z</time></trkpt><trkpt lat="43.32616" lon="11.4102467"><ele>243.0</ele><time>2026-04-20T14:13:59.024Z</time></trkpt><trkpt lat="43.32608" lon="11.410335"><ele>243.0</ele><time>2026-04-20T14:14:01.024Z</time></trkpt><trkpt lat="43.3259933" lon="11.4103317"><ele>243.0</ele><time>2026-04-20T14:14:03.024Z</time></trkpt><trkpt lat="43.32591" lon="11.4102167"><ele>243.0</ele><time>2026-04-20T14:14:05.024Z</time></trkpt><trkpt lat="43.3258783" lon="11.4101367"><ele>243.0</ele><time>2026-04-20T14:14:06.023Z</time></trkpt><trkpt lat="43.32585" lon="11.4100367"><ele>243.0</ele><time>2026-04-20T14:14:07.024Z</time></trkpt><trkpt lat="43.3258233" lon="11.4099283"><ele>243.0</ele><time>2026-04-20T14:14:08.024Z</time></trkpt><trkpt lat="43.32581" lon="11.4098083"><ele>243.0</ele><time>2026-04-20T14:14:09.023Z</time></trkpt><trkpt lat="43.3258117" lon="11.40968"><ele>243.0</ele><time>2026-04-20T14:14:10.023Z</time></trkpt><trkpt lat="43.3258233" lon="11.4095467"><ele>241.4</ele><time>2026-04-20T14:14:11.023Z</time></trkpt><trkpt lat="43.3258333" lon="11.40942"><ele>239.8</ele><time>2026-04-20T14:14:12.022Z</time></trkpt><trkpt lat="43.3258317" lon="11.4092817"><ele>238.2</ele><time>2026-04-20T14:14:13.023Z</time></trkpt><trkpt lat="43.3258267" lon="11.4091417"><ele>236.6</ele><time>2026-04-20T14:14:14.023Z</time></trkpt><trkpt lat="43.3258233" lon="11.40899"><ele>235.0</ele><time>2026-04-20T14:14:15.023Z</time></trkpt><trkpt lat="43.3258067" lon="11.40883"><ele>234.0</ele><time>2026-04-20T14:14:16.022Z</time></trkpt><trkpt lat="43.32579" lon="11.4086433"><ele>233.0</ele><time>2026-04-20T14:14:17.023Z</time></trkpt><trkpt lat="43.32577" lon="11.40845"><ele>232.0</ele><time>2026-04-20T14:14:18.022Z</time></trkpt><trkpt lat="43.3257433" lon="11.408245"><ele>231.0</ele><time>2026-04-20T14:14:19.022Z</time></trkpt><trkpt lat="43.3257183" lon="11.40803"><ele>229.66666666666669</ele><time>2026-04-20T14:14:20.023Z</time></trkpt><trkpt lat="43.3256983" lon="11.407805"><ele>228.33333333333334</ele><time>2026-04-20T14:14:21.023Z</time></trkpt><trkpt lat="43.3256783" lon="11.40759"><ele>227.0</ele><time>2026-04-20T14:14:22.023Z</time></trkpt><trkpt lat="43.325655" lon="11.40739"><ele>227.0</ele><time>2026-04-20T14:14:23.023Z</time></trkpt><trkpt lat="43.3256333" lon="11.4072017"><ele>227.0</ele><time>2026-04-20T14:14:24.022Z</time></trkpt><trkpt lat="43.3256117" lon="11.407015"><ele>227.0</ele><time>2026-04-20T14:14:25.022Z</time></trkpt><trkpt lat="43.3255817" lon="11.4068383"><ele>227.0</ele><time>2026-04-20T14:14:26.023Z</time></trkpt><trkpt lat="43.32554" lon="11.4066833"><ele>226.0</ele><time>2026-04-20T14:14:27.023Z</time></trkpt><trkpt lat="43.3254783" lon="11.406535"><ele>225.0</ele><time>2026-04-20T14:14:28.023Z</time></trkpt><trkpt lat="43.3254" lon="11.4063867"><ele>224.0</ele><time>2026-04-20T14:14:29.023Z</time></trkpt><trkpt lat="43.325325" lon="11.40624"><ele>223.0</ele><time>2026-04-20T14:14:30.023Z</time></trkpt><trkpt lat="43.3252583" lon="11.4060833"><ele>221.5</ele><time>2026-04-20T14:14:31.023Z</time></trkpt><trkpt lat="43.3252" lon="11.4059283"><ele>220.0</ele><time>2026-04-20T14:14:32.023Z</time></trkpt><trkpt lat="43.3251517" lon="11.4057733"><ele>218.5</ele><time>2026-04-20T14:14:33.023Z</time></trkpt><trkpt lat="43.3251083" lon="11.4056217"><ele>217.0</ele><time>2026-04-20T14:14:34.022Z</time></trkpt><trkpt lat="43.3250683" lon="11.4054583"><ele>216.5</ele><time>2026-04-20T14:14:35.023Z</time></trkpt><trkpt lat="43.325025" lon="11.4052833"><ele>216.0</ele><time>2026-04-20T14:14:36.022Z</time></trkpt><trkpt lat="43.324995" lon="11.4051017"><ele>215.5</ele><time>2026-04-20T14:14:37.023Z</time></trkpt><trkpt lat="43.3249667" lon="11.40492"><ele>215.0</ele><time>2026-04-20T14:14:38.022Z</time></trkpt><trkpt lat="43.3249533" lon="11.4047317"><ele>214.75</ele><time>2026-04-20T14:14:39.023Z</time></trkpt><trkpt lat="43.3249433" lon="11.40454"><ele>214.5</ele><time>2026-04-20T14:14:40.023Z</time></trkpt><trkpt lat="43.3249383" lon="11.4043417"><ele>214.25</ele><time>2026-04-20T14:14:41.023Z</time></trkpt><trkpt lat="43.3249383" lon="11.40415"><ele>214.0</ele><time>2026-04-20T14:14:42.023Z</time></trkpt><trkpt lat="43.324935" lon="11.4039917"><ele>214.0</ele><time>2026-04-20T14:14:43.023Z</time></trkpt><trkpt lat="43.3249433" lon="11.403885"><ele>213.99999999999997</ele><time>2026-04-20T14:14:44.023Z</time></trkpt><trkpt lat="43.3249467" lon="11.4037383"><ele>213.99999999999997</ele><time>2026-04-20T14:14:52.023Z</time></trkpt><trkpt lat="43.3249417" lon="11.403575"><ele>214.0</ele><time>2026-04-20T14:14:54.023Z</time></trkpt><trkpt lat="43.32495" lon="11.4034633"><ele>214.0</ele><time>2026-04-20T14:14:55.023Z</time></trkpt><trkpt lat="43.32496" lon="11.403325"><ele>213.5</ele><time>2026-04-20T14:14:56.023Z</time></trkpt><trkpt lat="43.3249733" lon="11.4031817"><ele>213.0</ele><time>2026-04-20T14:14:57.023Z</time></trkpt><trkpt lat="43.3249833" lon="11.4030333"><ele>212.5</ele><time>2026-04-20T14:14:58.023Z</time></trkpt><trkpt lat="43.3250067" lon="11.4028683"><ele>212.0</ele><time>2026-04-20T14:14:59.023Z</time></trkpt><trkpt lat="43.325025" lon="11.4026883"><ele>213.0</ele><time>2026-04-20T14:15:00.023Z</time></trkpt><trkpt lat="43.3250417" lon="11.402505"><ele>214.0</ele><time>2026-04-20T14:15:01.023Z</time></trkpt><trkpt lat="43.3250517" lon="11.402325"><ele>215.0</ele><time>2026-04-20T14:15:02.023Z</time></trkpt><trkpt lat="43.3250617" lon="11.4021483"><ele>216.0</ele><time>2026-04-20T14:15:03.023Z</time></trkpt><trkpt lat="43.32507" lon="11.4019667"><ele>218.5</ele><time>2026-04-20T14:15:04.023Z</time></trkpt><trkpt lat="43.3250817" lon="11.4017833"><ele>221.0</ele><time>2026-04-20T14:15:05.023Z</time></trkpt><trkpt lat="43.3250867" lon="11.4016083"><ele>223.5</ele><time>2026-04-20T14:15:06.023Z</time></trkpt><trkpt lat="43.325085" lon="11.4014383"><ele>226.0</ele><time>2026-04-20T14:15:07.023Z</time></trkpt><trkpt lat="43.3250767" lon="11.401275"><ele>227.25</ele><time>2026-04-20T14:15:08.023Z</time></trkpt><trkpt lat="43.3250767" lon="11.4011133"><ele>228.5</ele><time>2026-04-20T14:15:09.022Z</time></trkpt><trkpt lat="43.325075" lon="11.400945"><ele>229.75</ele><time>2026-04-20T14:15:10.023Z</time></trkpt><trkpt lat="43.32508" lon="11.400775"><ele>231.0</ele><time>2026-04-20T14:15:11.023Z</time></trkpt><trkpt lat="43.325095" lon="11.4006067"><ele>232.25</ele><time>2026-04-20T14:15:12.023Z</time></trkpt><trkpt lat="43.3251167" lon="11.400435"><ele>233.5</ele><time>2026-04-20T14:15:13.022Z</time></trkpt><trkpt lat="43.325135" lon="11.4002583"><ele>234.75</ele><time>2026-04-20T14:15:14.022Z</time></trkpt><trkpt lat="43.3251517" lon="11.40008"><ele>236.0</ele><time>2026-04-20T14:15:15.023Z</time></trkpt><trkpt lat="43.32516" lon="11.3998867"><ele>236.0</ele><time>2026-04-20T14:15:16.023Z</time></trkpt><trkpt lat="43.32515" lon="11.3996783"><ele>236.0</ele><time>2026-04-20T14:15:17.023Z</time></trkpt><trkpt lat="43.3251317" lon="11.39947"><ele>236.0</ele><time>2026-04-20T14:15:18.023Z</time></trkpt><trkpt lat="43.32512" lon="11.39926"><ele>237.25</ele><time>2026-04-20T14:15:19.023Z</time></trkpt><trkpt lat="43.3251033" lon="11.3990567"><ele>238.5</ele><time>2026-04-20T14:15:20.023Z</time></trkpt><trkpt lat="43.32509" lon="11.3988517"><ele>239.75</ele><time>2026-04-20T14:15:21.023Z</time></trkpt><trkpt lat="43.32508" lon="11.398655"><ele>241.0</ele><time>2026-04-20T14:15:22.022Z</time></trkpt><trkpt lat="43.3250733" lon="11.398475"><ele>242.5</ele><time>2026-04-20T14:15:23.022Z</time></trkpt><trkpt lat="43.3250667" lon="11.3983"><ele>244.0</ele><time>2026-04-20T14:15:24.023Z</time></trkpt><trkpt lat="43.3250567" lon="11.3981333"><ele>245.5</ele><time>2026-04-20T14:15:25.023Z</time></trkpt><trkpt lat="43.3250617" lon="11.3979633"><ele>247.0</ele><time>2026-04-20T14:15:26.022Z</time></trkpt><trkpt lat="43.3250867" lon="11.3977933"><ele>247.0</ele><time>2026-04-20T14:15:27.023Z</time></trkpt><trkpt lat="43.325135" lon="11.3976167"><ele>247.0</ele><time>2026-04-20T14:15:28.023Z</time></trkpt><trkpt lat="43.325205" lon="11.3974467"><ele>247.0</ele><time>2026-04-20T14:15:29.023Z</time></trkpt><trkpt lat="43.325275" lon="11.3972833"><ele>247.0</ele><time>2026-04-20T14:15:30.023Z</time></trkpt><trkpt lat="43.3253333" lon="11.3971033"><ele>247.0</ele><time>2026-04-20T14:15:31.023Z</time></trkpt><trkpt lat="43.325385" lon="11.3969267"><ele>247.0</ele><time>2026-04-20T14:15:32.023Z</time></trkpt><trkpt lat="43.325435" lon="11.3967533"><ele>247.0</ele><time>2026-04-20T14:15:33.023Z</time></trkpt><trkpt lat="43.32549" lon="11.39657"><ele>247.0</ele><time>2026-04-20T14:15:34.023Z</time></trkpt><trkpt lat="43.3255417" lon="11.3964"><ele>247.75</ele><time>2026-04-20T14:15:35.023Z</time></trkpt><trkpt lat="43.3255917" lon="11.3962317"><ele>248.5</ele><time>2026-04-20T14:15:36.023Z</time></trkpt><trkpt lat="43.32564" lon="11.3960733"><ele>249.25</ele><time>2026-04-20T14:15:37.023Z</time></trkpt><trkpt lat="43.3256717" lon="11.395905"><ele>250.0</ele><time>2026-04-20T14:15:38.022Z</time></trkpt><trkpt lat="43.32568" lon="11.3957317"><ele>250.0</ele><time>2026-04-20T14:15:39.023Z</time></trkpt><trkpt lat="43.3256767" lon="11.3955433"><ele>250.0</ele><time>2026-04-20T14:15:40.023Z</time></trkpt><trkpt lat="43.325675" lon="11.39535"><ele>250.0</ele><time>2026-04-20T14:15:41.023Z</time></trkpt><trkpt lat="43.3256783" lon="11.3951433"><ele>250.0</ele><time>2026-04-20T14:15:42.023Z</time></trkpt><trkpt lat="43.325685" lon="11.3949233"><ele>250.66666666666666</ele><time>2026-04-20T14:15:43.023Z</time></trkpt><trkpt lat="43.3256767" lon="11.3947017"><ele>251.33333333333331</ele><time>2026-04-20T14:15:44.022Z</time></trkpt><trkpt lat="43.3256533" lon="11.3944883"><ele>252.0</ele><time>2026-04-20T14:15:45.023Z</time></trkpt><trkpt lat="43.325605" lon="11.3942867"><ele>253.0</ele><time>2026-04-20T14:15:46.023Z</time></trkpt><trkpt lat="43.3255517" lon="11.3940917"><ele>254.0</ele><time>2026-04-20T14:15:47.023Z</time></trkpt><trkpt lat="43.3255017" lon="11.39389"><ele>255.0</ele><time>2026-04-20T14:15:48.023Z</time></trkpt><trkpt lat="43.32544" lon="11.3936833"><ele>256.6666666666667</ele><time>2026-04-20T14:15:49.023Z</time></trkpt><trkpt lat="43.3253817" lon="11.393485"><ele>258.33333333333337</ele><time>2026-04-20T14:15:50.022Z</time></trkpt><trkpt lat="43.3253167" lon="11.39329"><ele>260.0</ele><time>2026-04-20T14:15:51.023Z</time></trkpt><trkpt lat="43.3252517" lon="11.3931"><ele>261.0</ele><time>2026-04-20T14:15:52.023Z</time></trkpt><trkpt lat="43.3252" lon="11.3929233"><ele>262.0</ele><time>2026-04-20T14:15:53.023Z</time></trkpt><trkpt lat="43.32515" lon="11.392775"><ele>263.0</ele><time>2026-04-20T14:15:54.023Z</time></trkpt><trkpt lat="43.3250917" lon="11.392655"><ele>264.0</ele><time>2026-04-20T14:15:55.022Z</time></trkpt><trkpt lat="43.3250283" lon="11.39257"><ele>264.0</ele><time>2026-04-20T14:15:56.023Z</time></trkpt><trkpt lat="43.32496" lon="11.3925183"><ele>264.0</ele><time>2026-04-20T14:15:57.022Z</time></trkpt><trkpt lat="43.3248817" lon="11.3925133"><ele>264.0</ele><time>2026-04-20T14:15:58.023Z</time></trkpt><trkpt lat="43.3247967" lon="11.3925267"><ele>264.0</ele><time>2026-04-20T14:15:59.023Z</time></trkpt><trkpt lat="43.3247033" lon="11.39255"><ele>264.0</ele><time>2026-04-20T14:16:00.023Z</time></trkpt><trkpt lat="43.3246033" lon="11.3925617"><ele>264.0</ele><time>2026-04-20T14:16:01.022Z</time></trkpt><trkpt lat="43.3245017" lon="11.3925583"><ele>264.2</ele><time>2026-04-20T14:16:02.023Z</time></trkpt><trkpt lat="43.3244033" lon="11.39253"><ele>264.4</ele><time>2026-04-20T14:16:03.023Z</time></trkpt><trkpt lat="43.3243017" lon="11.39249"><ele>264.6</ele><time>2026-04-20T14:16:04.023Z</time></trkpt><trkpt lat="43.32419" lon="11.3924367"><ele>264.8</ele><time>2026-04-20T14:16:05.023Z</time></trkpt><trkpt lat="43.32408" lon="11.3923933"><ele>265.0</ele><time>2026-04-20T14:16:06.023Z</time></trkpt><trkpt lat="43.3239733" lon="11.3923583"><ele>264.8</ele><time>2026-04-20T14:16:07.023Z</time></trkpt><trkpt lat="43.3238717" lon="11.3923283"><ele>264.6</ele><time>2026-04-20T14:16:08.023Z</time></trkpt><trkpt lat="43.3237817" lon="11.3923"><ele>264.4</ele><time>2026-04-20T14:16:09.023Z</time></trkpt><trkpt lat="43.323685" lon="11.3922783"><ele>264.2</ele><time>2026-04-20T14:16:10.022Z</time></trkpt><trkpt lat="43.323595" lon="11.3922583"><ele>264.0</ele><time>2026-04-20T14:16:11.022Z</time></trkpt><trkpt lat="43.323505" lon="11.3922383"><ele>264.0</ele><time>2026-04-20T14:16:12.023Z</time></trkpt><trkpt lat="43.3234017" lon="11.3922217"><ele>264.0</ele><time>2026-04-20T14:16:13.022Z</time></trkpt><trkpt lat="43.3233033" lon="11.392215"><ele>264.0</ele><time>2026-04-20T14:16:14.023Z</time></trkpt><trkpt lat="43.32321" lon="11.392195"><ele>264.0</ele><time>2026-04-20T14:16:15.023Z</time></trkpt><trkpt lat="43.3231133" lon="11.3921617"><ele>264.0</ele><time>2026-04-20T14:16:16.022Z</time></trkpt><trkpt lat="43.3230167" lon="11.3921233"><ele>262.59999999999997</ele><time>2026-04-20T14:16:17.023Z</time></trkpt><trkpt lat="43.3229283" lon="11.3920933"><ele>261.2</ele><time>2026-04-20T14:16:18.023Z</time></trkpt><trkpt lat="43.32284" lon="11.3920717"><ele>259.79999999999995</ele><time>2026-04-20T14:16:19.022Z</time></trkpt><trkpt lat="43.322745" lon="11.3920483"><ele>258.4</ele><time>2026-04-20T14:16:20.023Z</time></trkpt><trkpt lat="43.3226483" lon="11.39203"><ele>257.0</ele><time>2026-04-20T14:16:21.023Z</time></trkpt><trkpt lat="43.322545" lon="11.39201"><ele>257.0</ele><time>2026-04-20T14:16:22.022Z</time></trkpt><trkpt lat="43.3224417" lon="11.39198"><ele>257.0</ele><time>2026-04-20T14:16:23.023Z</time></trkpt><trkpt lat="43.3223433" lon="11.391945"><ele>257.0</ele><time>2026-04-20T14:16:24.023Z</time></trkpt><trkpt lat="43.3222517" lon="11.3919167"><ele>257.0</ele><time>2026-04-20T14:16:25.023Z</time></trkpt><trkpt lat="43.32216" lon="11.3918833"><ele>257.0</ele><time>2026-04-20T14:16:26.023Z</time></trkpt><trkpt lat="43.322065" lon="11.3918617"><ele>256.2</ele><time>2026-04-20T14:16:27.023Z</time></trkpt><trkpt lat="43.3219667" lon="11.3918417"><ele>255.39999999999998</ele><time>2026-04-20T14:16:28.023Z</time></trkpt><trkpt lat="43.3218683" lon="11.3918267"><ele>254.60000000000002</ele><time>2026-04-20T14:16:29.023Z</time></trkpt><trkpt lat="43.3217767" lon="11.3917933"><ele>253.8</ele><time>2026-04-20T14:16:30.023Z</time></trkpt><trkpt lat="43.3216883" lon="11.39176"><ele>253.0</ele><time>2026-04-20T14:16:31.023Z</time></trkpt><trkpt lat="43.3216" lon="11.3917233"><ele>253.0</ele><time>2026-04-20T14:16:32.023Z</time></trkpt><trkpt lat="43.3215083" lon="11.3916667"><ele>253.0</ele><time>2026-04-20T14:16:33.023Z</time></trkpt><trkpt lat="43.32142" lon="11.3916017"><ele>253.0</ele><time>2026-04-20T14:16:34.023Z</time></trkpt><trkpt lat="43.3213333" lon="11.391535"><ele>253.0</ele><time>2026-04-20T14:16:35.023Z</time></trkpt><trkpt lat="43.3212417" lon="11.3914717"><ele>253.0</ele><time>2026-04-20T14:16:36.023Z</time></trkpt><trkpt lat="43.3211483" lon="11.3914167"><ele>252.2</ele><time>2026-04-20T14:16:37.023Z</time></trkpt><trkpt lat="43.3210517" lon="11.3913483"><ele>251.4</ele><time>2026-04-20T14:16:38.023Z</time></trkpt><trkpt lat="43.320955" lon="11.39128"><ele>250.59999999999997</ele><time>2026-04-20T14:16:39.023Z</time></trkpt><trkpt lat="43.3208567" lon="11.3912117"><ele>249.79999999999998</ele><time>2026-04-20T14:16:40.022Z</time></trkpt><trkpt lat="43.3207633" lon="11.3911467"><ele>249.0</ele><time>2026-04-20T14:16:41.022Z</time></trkpt><trkpt lat="43.3206717" lon="11.3910833"><ele>249.0</ele><time>2026-04-20T14:16:42.023Z</time></trkpt><trkpt lat="43.3205783" lon="11.3910317"><ele>249.0</ele><time>2026-04-20T14:16:43.022Z</time></trkpt><trkpt lat="43.3204883" lon="11.3909933"><ele>249.0</ele><time>2026-04-20T14:16:44.023Z</time></trkpt><trkpt lat="43.3204" lon="11.3909733"><ele>249.0</ele><time>2026-04-20T14:16:45.023Z</time></trkpt><trkpt lat="43.3203217" lon="11.390955"><ele>249.0</ele><time>2026-04-20T14:16:46.023Z</time></trkpt><trkpt lat="43.3202533" lon="11.39093"><ele>249.0</ele><time>2026-04-20T14:16:47.023Z</time></trkpt><trkpt lat="43.320195" lon="11.39089"><ele>249.0</ele><time>2026-04-20T14:16:48.023Z</time></trkpt><trkpt lat="43.3201467" lon="11.39083"><ele>249.0</ele><time>2026-04-20T14:16:49.023Z</time></trkpt><trkpt lat="43.3201117" lon="11.39074"><ele>249.0</ele><time>2026-04-20T14:16:50.023Z</time></trkpt><trkpt lat="43.32009" lon="11.3906283"><ele>249.0</ele><time>2026-04-20T14:16:51.023Z</time></trkpt><trkpt lat="43.32007" lon="11.3904983"><ele>249.0</ele><time>2026-04-20T14:16:52.022Z</time></trkpt><trkpt lat="43.3200567" lon="11.3903583"><ele>249.0</ele><time>2026-04-20T14:16:53.022Z</time></trkpt><trkpt lat="43.32004" lon="11.390205"><ele>248.5</ele><time>2026-04-20T14:16:54.023Z</time></trkpt><trkpt lat="43.32001" lon="11.39005"><ele>248.0</ele><time>2026-04-20T14:16:55.022Z</time></trkpt><trkpt lat="43.319975" lon="11.3898933"><ele>247.5</ele><time>2026-04-20T14:16:56.023Z</time></trkpt><trkpt lat="43.3199317" lon="11.3897317"><ele>247.0</ele><time>2026-04-20T14:16:57.022Z</time></trkpt><trkpt lat="43.3198883" lon="11.3895683"><ele>246.0</ele><time>2026-04-20T14:16:58.023Z</time></trkpt><trkpt lat="43.3198333" lon="11.38941"><ele>245.0</ele><time>2026-04-20T14:16:59.023Z</time></trkpt><trkpt lat="43.3197917" lon="11.3892533"><ele>244.0</ele><time>2026-04-20T14:17:00.023Z</time></trkpt><trkpt lat="43.3197467" lon="11.3891"><ele>243.0</ele><time>2026-04-20T14:17:01.022Z</time></trkpt><trkpt lat="43.3197067" lon="11.3889367"><ele>239.5</ele><time>2026-04-20T14:17:02.022Z</time></trkpt><trkpt lat="43.3196767" lon="11.3887783"><ele>236.0</ele><time>2026-04-20T14:17:03.023Z</time></trkpt><trkpt lat="43.3196483" lon="11.38862"><ele>232.5</ele><time>2026-04-20T14:17:04.023Z</time></trkpt><trkpt lat="43.3196217" lon="11.38847"><ele>229.0</ele><time>2026-04-20T14:17:05.023Z</time></trkpt><trkpt lat="43.3195883" lon="11.3883267"><ele>229.0</ele><time>2026-04-20T14:17:06.023Z</time></trkpt><trkpt lat="43.319555" lon="11.3881783"><ele>229.0</ele><time>2026-04-20T14:17:07.023Z</time></trkpt><trkpt lat="43.319525" lon="11.3880267"><ele>229.0</ele><time>2026-04-20T14:17:08.023Z</time></trkpt><trkpt lat="43.3194933" lon="11.3878683"><ele>229.0</ele><time>2026-04-20T14:17:09.023Z</time></trkpt><trkpt lat="43.3194717" lon="11.38772"><ele>229.0</ele><time>2026-04-20T14:17:10.023Z</time></trkpt><trkpt lat="43.3194367" lon="11.387595"><ele>228.99999999999997</ele><time>2026-04-20T14:17:11.023Z</time></trkpt><trkpt lat="43.3193783" lon="11.3874917"><ele>228.99999999999997</ele><time>2026-04-20T14:17:12.023Z</time></trkpt><trkpt lat="43.3192933" lon="11.3874233"><ele>229.0</ele><time>2026-04-20T14:17:13.022Z</time></trkpt><trkpt lat="43.3192067" lon="11.387385"><ele>229.0</ele><time>2026-04-20T14:17:14.023Z</time></trkpt><trkpt lat="43.3191267" lon="11.3873317"><ele>229.0</ele><time>2026-04-20T14:17:15.022Z</time></trkpt><trkpt lat="43.3190633" lon="11.387245"><ele>228.99999999999997</ele><time>2026-04-20T14:17:16.023Z</time></trkpt><trkpt lat="43.3190267" lon="11.3871367"><ele>228.99999999999997</ele><time>2026-04-20T14:17:17.023Z</time></trkpt><trkpt lat="43.3190317" lon="11.3870167"><ele>229.0</ele><time>2026-04-20T14:17:18.023Z</time></trkpt><trkpt lat="43.3190567" lon="11.386885"><ele>229.0</ele><time>2026-04-20T14:17:19.023Z</time></trkpt><trkpt lat="43.3190983" lon="11.3867583"><ele>228.6</ele><time>2026-04-20T14:17:20.023Z</time></trkpt><trkpt lat="43.3191433" lon="11.3866383"><ele>228.2</ele><time>2026-04-20T14:17:21.023Z</time></trkpt><trkpt lat="43.319205" lon="11.3865533"><ele>227.79999999999998</ele><time>2026-04-20T14:17:22.023Z</time></trkpt><trkpt lat="43.3192817" lon="11.3864783"><ele>227.39999999999998</ele><time>2026-04-20T14:17:23.023Z</time></trkpt><trkpt lat="43.3193717" lon="11.3864117"><ele>227.0</ele><time>2026-04-20T14:17:24.023Z</time></trkpt><trkpt lat="43.3194767" lon="11.3863483"><ele>226.2</ele><time>2026-04-20T14:17:25.023Z</time></trkpt><trkpt lat="43.3195883" lon="11.3862883"><ele>225.39999999999998</ele><time>2026-04-20T14:17:26.023Z</time></trkpt><trkpt lat="43.319685" lon="11.3862383"><ele>224.60000000000002</ele><time>2026-04-20T14:17:27.023Z</time></trkpt><trkpt lat="43.319775" lon="11.3861767"><ele>223.8</ele><time>2026-04-20T14:17:28.023Z</time></trkpt><trkpt lat="43.3198733" lon="11.38612"><ele>223.0</ele><time>2026-04-20T14:17:29.023Z</time></trkpt><trkpt lat="43.3199617" lon="11.3860583"><ele>222.8</ele><time>2026-04-20T14:17:30.023Z</time></trkpt><trkpt lat="43.3200317" lon="11.3859633"><ele>222.60000000000002</ele><time>2026-04-20T14:17:31.022Z</time></trkpt><trkpt lat="43.3200883" lon="11.385855"><ele>222.39999999999998</ele><time>2026-04-20T14:17:32.023Z</time></trkpt><trkpt lat="43.320125" lon="11.3857333"><ele>222.2</ele><time>2026-04-20T14:17:33.023Z</time></trkpt><trkpt lat="43.320135" lon="11.3856017"><ele>222.0</ele><time>2026-04-20T14:17:34.023Z</time></trkpt><trkpt lat="43.320125" lon="11.3854617"><ele>221.0</ele><time>2026-04-20T14:17:35.022Z</time></trkpt><trkpt lat="43.3201133" lon="11.38532"><ele>220.0</ele><time>2026-04-20T14:17:36.023Z</time></trkpt><trkpt lat="43.3201233" lon="11.3851817"><ele>219.0</ele><time>2026-04-20T14:17:37.023Z</time></trkpt><trkpt lat="43.3201467" lon="11.385045"><ele>218.0</ele><time>2026-04-20T14:17:38.023Z</time></trkpt><trkpt lat="43.3201933" lon="11.3849167"><ele>217.0</ele><time>2026-04-20T14:17:39.023Z</time></trkpt><trkpt lat="43.3202483" lon="11.38479"><ele>216.0</ele><time>2026-04-20T14:17:40.022Z</time></trkpt><trkpt lat="43.3203233" lon="11.3846733"><ele>215.0</ele><time>2026-04-20T14:17:41.023Z</time></trkpt><trkpt lat="43.3204133" lon="11.384565"><ele>214.0</ele><time>2026-04-20T14:17:42.023Z</time></trkpt><trkpt lat="43.3204983" lon="11.3844767"><ele>213.0</ele><time>2026-04-20T14:17:43.023Z</time></trkpt><trkpt lat="43.3205883" lon="11.3843767"><ele>212.4</ele><time>2026-04-20T14:17:44.023Z</time></trkpt><trkpt lat="43.320675" lon="11.3842667"><ele>211.8</ele><time>2026-04-20T14:17:45.023Z</time></trkpt><trkpt lat="43.32074" lon="11.3841433"><ele>211.2</ele><time>2026-04-20T14:17:46.022Z</time></trkpt><trkpt lat="43.3207733" lon="11.3840183"><ele>210.6</ele><time>2026-04-20T14:17:47.023Z</time></trkpt><trkpt lat="43.32078" lon="11.3838717"><ele>210.0</ele><time>2026-04-20T14:17:48.023Z</time></trkpt><trkpt lat="43.3207583" lon="11.3837283"><ele>208.0</ele><time>2026-04-20T14:17:49.022Z</time></trkpt><trkpt lat="43.320715" lon="11.38358"><ele>206.0</ele><time>2026-04-20T14:17:50.023Z</time></trkpt><trkpt lat="43.3206733" lon="11.3834267"><ele>204.0</ele><time>2026-04-20T14:17:51.023Z</time></trkpt><trkpt lat="43.32064" lon="11.38326"><ele>202.0</ele><time>2026-04-20T14:17:52.023Z</time></trkpt><trkpt lat="43.320615" lon="11.38309"><ele>201.25</ele><time>2026-04-20T14:17:53.023Z</time></trkpt><trkpt lat="43.3205967" lon="11.382915"><ele>200.5</ele><time>2026-04-20T14:17:54.023Z</time></trkpt><trkpt lat="43.3205733" lon="11.3827283"><ele>199.75</ele><time>2026-04-20T14:17:55.023Z</time></trkpt><trkpt lat="43.3205517" lon="11.382545"><ele>199.0</ele><time>2026-04-20T14:17:56.023Z</time></trkpt><trkpt lat="43.3205217" lon="11.3823517"><ele>198.75</ele><time>2026-04-20T14:17:57.023Z</time></trkpt><trkpt lat="43.320495" lon="11.38215"><ele>198.5</ele><time>2026-04-20T14:17:58.023Z</time></trkpt><trkpt lat="43.3204683" lon="11.3819533"><ele>198.25</ele><time>2026-04-20T14:17:59.023Z</time></trkpt><trkpt lat="43.3204367" lon="11.3817567"><ele>198.0</ele><time>2026-04-20T14:18:00.022Z</time></trkpt><trkpt lat="43.3204033" lon="11.381555"><ele>198.0</ele><time>2026-04-20T14:18:01.023Z</time></trkpt><trkpt lat="43.320375" lon="11.381355"><ele>198.0</ele><time>2026-04-20T14:18:02.023Z</time></trkpt><trkpt lat="43.3203383" lon="11.3811483"><ele>198.0</ele><time>2026-04-20T14:18:03.023Z</time></trkpt><trkpt lat="43.3203267" lon="11.380955"><ele>198.0</ele><time>2026-04-20T14:18:04.023Z</time></trkpt><trkpt lat="43.32033" lon="11.380755"><ele>197.75</ele><time>2026-04-20T14:18:05.023Z</time></trkpt><trkpt lat="43.3203483" lon="11.38056"><ele>197.5</ele><time>2026-04-20T14:18:06.023Z</time></trkpt><trkpt lat="43.3203767" lon="11.3803767"><ele>197.25</ele><time>2026-04-20T14:18:07.023Z</time></trkpt><trkpt lat="43.3203967" lon="11.3802017"><ele>197.0</ele><time>2026-04-20T14:18:08.023Z</time></trkpt><trkpt lat="43.3204183" lon="11.380045"><ele>197.0</ele><time>2026-04-20T14:18:09.023Z</time></trkpt><trkpt lat="43.3204383" lon="11.3799067"><ele>197.0</ele><time>2026-04-20T14:18:10.023Z</time></trkpt><trkpt lat="43.320455" lon="11.379775"><ele>197.0</ele><time>2026-04-20T14:18:11.023Z</time></trkpt><trkpt lat="43.3204717" lon="11.37964"><ele>197.0</ele><time>2026-04-20T14:18:12.023Z</time></trkpt><trkpt lat="43.320495" lon="11.3795067"><ele>197.0</ele><time>2026-04-20T14:18:13.023Z</time></trkpt><trkpt lat="43.3205117" lon="11.3793683"><ele>197.5</ele><time>2026-04-20T14:18:14.023Z</time></trkpt><trkpt lat="43.32053" lon="11.3792133"><ele>198.0</ele><time>2026-04-20T14:18:15.022Z</time></trkpt><trkpt lat="43.3205483" lon="11.37904"><ele>198.5</ele><time>2026-04-20T14:18:16.022Z</time></trkpt><trkpt lat="43.3205667" lon="11.3788617"><ele>199.0</ele><time>2026-04-20T14:18:17.023Z</time></trkpt><trkpt lat="43.32058" lon="11.378675"><ele>199.5</ele><time>2026-04-20T14:18:18.022Z</time></trkpt><trkpt lat="43.3205867" lon="11.3784833"><ele>200.0</ele><time>2026-04-20T14:18:19.023Z</time></trkpt><trkpt lat="43.3205867" lon="11.37829"><ele>200.5</ele><time>2026-04-20T14:18:20.022Z</time></trkpt><trkpt lat="43.3205633" lon="11.3780967"><ele>201.0</ele><time>2026-04-20T14:18:21.023Z</time></trkpt><trkpt lat="43.3205383" lon="11.3778967"><ele>204.25</ele><time>2026-04-20T14:18:22.023Z</time></trkpt><trkpt lat="43.320515" lon="11.377695"><ele>207.5</ele><time>2026-04-20T14:18:23.023Z</time></trkpt><trkpt lat="43.3204867" lon="11.3775017"><ele>210.75</ele><time>2026-04-20T14:18:24.023Z</time></trkpt><trkpt lat="43.32046" lon="11.3773033"><ele>214.0</ele><time>2026-04-20T14:18:25.022Z</time></trkpt><trkpt lat="43.3204467" lon="11.377115"><ele>216.5</ele><time>2026-04-20T14:18:26.023Z</time></trkpt><trkpt lat="43.3204433" lon="11.3769317"><ele>219.0</ele><time>2026-04-20T14:18:27.023Z</time></trkpt><trkpt lat="43.3204483" lon="11.37674"><ele>221.5</ele><time>2026-04-20T14:18:28.022Z</time></trkpt><trkpt lat="43.3204583" lon="11.37655"><ele>224.0</ele><time>2026-04-20T14:18:29.023Z</time></trkpt><trkpt lat="43.3204783" lon="11.3763583"><ele>223.25</ele><time>2026-04-20T14:18:30.023Z</time></trkpt><trkpt lat="43.320495" lon="11.3761717"><ele>222.5</ele><time>2026-04-20T14:18:31.023Z</time></trkpt><trkpt lat="43.3205067" lon="11.3759783"><ele>221.75</ele><time>2026-04-20T14:18:32.023Z</time></trkpt><trkpt lat="43.320515" lon="11.3757983"><ele>221.0</ele><time>2026-04-20T14:18:33.023Z</time></trkpt><trkpt lat="43.3205067" lon="11.3756317"><ele>220.60000000000002</ele><time>2026-04-20T14:18:34.023Z</time></trkpt><trkpt lat="43.3204717" lon="11.3754783"><ele>220.20000000000002</ele><time>2026-04-20T14:18:35.022Z</time></trkpt><trkpt lat="43.32042" lon="11.375355"><ele>219.79999999999998</ele><time>2026-04-20T14:18:36.023Z</time></trkpt><trkpt lat="43.3203533" lon="11.3752483"><ele>219.39999999999998</ele><time>2026-04-20T14:18:37.023Z</time></trkpt><trkpt lat="43.32029" lon="11.3751517"><ele>219.0</ele><time>2026-04-20T14:18:38.023Z</time></trkpt><trkpt lat="43.3202417" lon="11.3750467"><ele>219.0</ele><time>2026-04-20T14:18:39.023Z</time></trkpt><trkpt lat="43.3202217" lon="11.3749133"><ele>219.0</ele><time>2026-04-20T14:18:40.023Z</time></trkpt><trkpt lat="43.3202483" lon="11.3747733"><ele>219.0</ele><time>2026-04-20T14:18:41.023Z</time></trkpt><trkpt lat="43.3202883" lon="11.3746183"><ele>219.0</ele><time>2026-04-20T14:18:42.023Z</time></trkpt><trkpt lat="43.3203317" lon="11.3744433"><ele>219.5</ele><time>2026-04-20T14:18:43.023Z</time></trkpt><trkpt lat="43.32038" lon="11.3742567"><ele>220.0</ele><time>2026-04-20T14:18:44.023Z</time></trkpt><trkpt lat="43.32043" lon="11.3740683"><ele>220.5</ele><time>2026-04-20T14:18:45.023Z</time></trkpt><trkpt lat="43.320485" lon="11.3738933"><ele>221.0</ele><time>2026-04-20T14:18:46.023Z</time></trkpt><trkpt lat="43.32055" lon="11.3737133"><ele>223.66666666666669</ele><time>2026-04-20T14:18:47.023Z</time></trkpt><trkpt lat="43.3206283" lon="11.3735267"><ele>226.33333333333331</ele><time>2026-04-20T14:18:48.023Z</time></trkpt><trkpt lat="43.3207133" lon="11.3733517"><ele>229.0</ele><time>2026-04-20T14:18:49.022Z</time></trkpt><trkpt lat="43.320795" lon="11.3731833"><ele>229.0</ele><time>2026-04-20T14:18:50.023Z</time></trkpt><trkpt lat="43.3208683" lon="11.3730367"><ele>229.0</ele><time>2026-04-20T14:18:51.022Z</time></trkpt><trkpt lat="43.320935" lon="11.3729067"><ele>229.0</ele><time>2026-04-20T14:18:52.023Z</time></trkpt><trkpt lat="43.3209933" lon="11.3727733"><ele>229.0</ele><time>2026-04-20T14:18:53.023Z</time></trkpt><trkpt lat="43.321035" lon="11.3726233"><ele>231.25</ele><time>2026-04-20T14:18:54.023Z</time></trkpt><trkpt lat="43.3210683" lon="11.3724617"><ele>233.5</ele><time>2026-04-20T14:18:55.022Z</time></trkpt><trkpt lat="43.321095" lon="11.3722917"><ele>235.75</ele><time>2026-04-20T14:18:56.023Z</time></trkpt><trkpt lat="43.3211233" lon="11.372115"><ele>238.0</ele><time>2026-04-20T14:18:57.023Z</time></trkpt><trkpt lat="43.32115" lon="11.37193"><ele>240.25</ele><time>2026-04-20T14:18:58.022Z</time></trkpt><trkpt lat="43.32117" lon="11.3717517"><ele>242.5</ele><time>2026-04-20T14:18:59.023Z</time></trkpt><trkpt lat="43.3211933" lon="11.3715583"><ele>244.75</ele><time>2026-04-20T14:19:00.022Z</time></trkpt><trkpt lat="43.321215" lon="11.3713683"><ele>247.0</ele><time>2026-04-20T14:19:01.022Z</time></trkpt><trkpt lat="43.32124" lon="11.371175"><ele>248.25</ele><time>2026-04-20T14:19:02.022Z</time></trkpt><trkpt lat="43.3212783" lon="11.3709833"><ele>249.5</ele><time>2026-04-20T14:19:03.023Z</time></trkpt><trkpt lat="43.32133" lon="11.37079"><ele>250.75</ele><time>2026-04-20T14:19:04.022Z</time></trkpt><trkpt lat="43.32139" lon="11.3706133"><ele>252.0</ele><time>2026-04-20T14:19:05.023Z</time></trkpt><trkpt lat="43.3214767" lon="11.37046"><ele>252.0</ele><time>2026-04-20T14:19:06.023Z</time></trkpt><trkpt lat="43.3215583" lon="11.3703017"><ele>252.0</ele><time>2026-04-20T14:19:07.023Z</time></trkpt><trkpt lat="43.3216317" lon="11.3701433"><ele>252.0</ele><time>2026-04-20T14:19:08.022Z</time></trkpt><trkpt lat="43.3217017" lon="11.36999"><ele>252.0</ele><time>2026-04-20T14:19:09.023Z</time></trkpt><trkpt lat="43.3217717" lon="11.36984"><ele>252.0</ele><time>2026-04-20T14:19:10.022Z</time></trkpt><trkpt lat="43.3218383" lon="11.3697"><ele>252.0</ele><time>2026-04-20T14:19:11.023Z</time></trkpt><trkpt lat="43.3219017" lon="11.3695783"><ele>252.0</ele><time>2026-04-20T14:19:12.023Z</time></trkpt><trkpt lat="43.3219583" lon="11.36947"><ele>252.0</ele><time>2026-04-20T14:19:13.023Z</time></trkpt><trkpt lat="43.3220067" lon="11.3693683"><ele>252.0</ele><time>2026-04-20T14:19:14.023Z</time></trkpt><trkpt lat="43.3220317" lon="11.369275"><ele>253.8</ele><time>2026-04-20T14:19:15.023Z</time></trkpt><trkpt lat="43.3219833" lon="11.369145"><ele>255.6</ele><time>2026-04-20T14:19:17.023Z</time></trkpt><trkpt lat="43.3219067" lon="11.36916"><ele>257.40000000000003</ele><time>2026-04-20T14:19:18.023Z</time></trkpt><trkpt lat="43.3218317" lon="11.3692033"><ele>259.2</ele><time>2026-04-20T14:19:19.023Z</time></trkpt><trkpt lat="43.3217517" lon="11.3692733"><ele>261.0</ele><time>2026-04-20T14:19:20.023Z</time></trkpt><trkpt lat="43.3216733" lon="11.3693567"><ele>261.0</ele><time>2026-04-20T14:19:21.023Z</time></trkpt><trkpt lat="43.321585" lon="11.36942"><ele>261.0</ele><time>2026-04-20T14:19:22.023Z</time></trkpt><trkpt lat="43.3214983" lon="11.3694417"><ele>261.0</ele><time>2026-04-20T14:19:23.023Z</time></trkpt><trkpt lat="43.3214133" lon="11.369415"><ele>261.0</ele><time>2026-04-20T14:19:24.022Z</time></trkpt><trkpt lat="43.3213283" lon="11.3693533"><ele>261.0</ele><time>2026-04-20T14:19:25.022Z</time></trkpt><trkpt lat="43.3212417" lon="11.36926"><ele>261.3333333333333</ele><time>2026-04-20T14:19:26.022Z</time></trkpt><trkpt lat="43.3211583" lon="11.3691617"><ele>261.6666666666667</ele><time>2026-04-20T14:19:27.023Z</time></trkpt><trkpt lat="43.3210783" lon="11.3690733"><ele>262.0</ele><time>2026-04-20T14:19:28.023Z</time></trkpt><trkpt lat="43.3210167" lon="11.368995"><ele>262.33333333333337</ele><time>2026-04-20T14:19:29.023Z</time></trkpt><trkpt lat="43.3209617" lon="11.3689183"><ele>262.6666666666667</ele><time>2026-04-20T14:19:30.023Z</time></trkpt><trkpt lat="43.320925" lon="11.368835"><ele>263.0</ele><time>2026-04-20T14:19:31.023Z</time></trkpt><trkpt lat="43.32092" lon="11.368745"><ele>263.0</ele><time>2026-04-20T14:19:32.023Z</time></trkpt><trkpt lat="43.3209383" lon="11.3686583"><ele>263.0</ele><time>2026-04-20T14:19:33.022Z</time></trkpt><trkpt lat="43.32097" lon="11.3685567"><ele>263.0</ele><time>2026-04-20T14:19:34.023Z</time></trkpt><trkpt lat="43.3210067" lon="11.3684367"><ele>263.0</ele><time>2026-04-20T14:19:35.022Z</time></trkpt><trkpt lat="43.3210417" lon="11.3683067"><ele>263.0</ele><time>2026-04-20T14:19:36.023Z</time></trkpt><trkpt lat="43.3210683" lon="11.3681683"><ele>263.0</ele><time>2026-04-20T14:19:37.023Z</time></trkpt><trkpt lat="43.3210817" lon="11.3680183"><ele>264.0</ele><time>2026-04-20T14:19:38.023Z</time></trkpt><trkpt lat="43.321085" lon="11.367865"><ele>265.0</ele><time>2026-04-20T14:19:39.023Z</time></trkpt><trkpt lat="43.3210883" lon="11.367705"><ele>266.0</ele><time>2026-04-20T14:19:40.023Z</time></trkpt><trkpt lat="43.3210883" lon="11.3675383"><ele>267.0</ele><time>2026-04-20T14:19:41.023Z</time></trkpt><trkpt lat="43.3210933" lon="11.367375"><ele>267.0</ele><time>2026-04-20T14:19:42.022Z</time></trkpt><trkpt lat="43.3211083" lon="11.3672133"><ele>267.0</ele><time>2026-04-20T14:19:43.022Z</time></trkpt><trkpt lat="43.321115" lon="11.367045"><ele>267.0</ele><time>2026-04-20T14:19:44.023Z</time></trkpt><trkpt lat="43.3211217" lon="11.36689"><ele>267.0</ele><time>2026-04-20T14:19:45.022Z</time></trkpt><trkpt lat="43.3211317" lon="11.3667333"><ele>267.8</ele><time>2026-04-20T14:19:46.022Z</time></trkpt><trkpt lat="43.3211217" lon="11.3665867"><ele>268.6</ele><time>2026-04-20T14:19:47.022Z</time></trkpt><trkpt lat="43.3210933" lon="11.3664533"><ele>269.40000000000003</ele><time>2026-04-20T14:19:48.022Z</time></trkpt><trkpt lat="43.3210633" lon="11.3663233"><ele>270.2</ele><time>2026-04-20T14:19:49.022Z</time></trkpt><trkpt lat="43.3210333" lon="11.366185"><ele>271.0</ele><time>2026-04-20T14:19:50.023Z</time></trkpt><trkpt lat="43.3210083" lon="11.366045"><ele>271.0</ele><time>2026-04-20T14:19:51.022Z</time></trkpt><trkpt lat="43.3209867" lon="11.3658967"><ele>271.0</ele><time>2026-04-20T14:19:52.023Z</time></trkpt><trkpt lat="43.320955" lon="11.3657517"><ele>271.0</ele><time>2026-04-20T14:19:53.023Z</time></trkpt><trkpt lat="43.3209133" lon="11.3656017"><ele>271.0</ele><time>2026-04-20T14:19:54.022Z</time></trkpt><trkpt lat="43.3208717" lon="11.36546"><ele>271.0</ele><time>2026-04-20T14:19:55.021Z</time></trkpt><trkpt lat="43.3208217" lon="11.36532"><ele>271.25</ele><time>2026-04-20T14:19:56.022Z</time></trkpt><trkpt lat="43.3207567" lon="11.3651733"><ele>271.5</ele><time>2026-04-20T14:19:57.022Z</time></trkpt><trkpt lat="43.3206917" lon="11.3650183"><ele>271.75</ele><time>2026-04-20T14:19:58.022Z</time></trkpt><trkpt lat="43.3206217" lon="11.3648633"><ele>272.0</ele><time>2026-04-20T14:19:59.022Z</time></trkpt><trkpt lat="43.3205517" lon="11.364715"><ele>272.5</ele><time>2026-04-20T14:20:00.022Z</time></trkpt><trkpt lat="43.3204733" lon="11.3645767"><ele>273.0</ele><time>2026-04-20T14:20:01.022Z</time></trkpt><trkpt lat="43.3204017" lon="11.3644467"><ele>273.5</ele><time>2026-04-20T14:20:02.021Z</time></trkpt><trkpt lat="43.3203283" lon="11.3643233"><ele>274.0</ele><time>2026-04-20T14:20:03.022Z</time></trkpt><trkpt lat="43.32025" lon="11.3641983"><ele>274.0</ele><time>2026-04-20T14:20:04.022Z</time></trkpt><trkpt lat="43.3201683" lon="11.36407"><ele>274.0</ele><time>2026-04-20T14:20:05.022Z</time></trkpt><trkpt lat="43.3200833" lon="11.3639417"><ele>274.0</ele><time>2026-04-20T14:20:06.021Z</time></trkpt><trkpt lat="43.3200117" lon="11.3638217"><ele>274.0</ele><time>2026-04-20T14:20:07.021Z</time></trkpt><trkpt lat="43.3199383" lon="11.36371"><ele>274.59999999999997</ele><time>2026-04-20T14:20:08.022Z</time></trkpt><trkpt lat="43.319855" lon="11.3635967"><ele>275.2</ele><time>2026-04-20T14:20:09.021Z</time></trkpt><trkpt lat="43.3197767" lon="11.3634817"><ele>275.79999999999995</ele><time>2026-04-20T14:20:10.022Z</time></trkpt><trkpt lat="43.3196967" lon="11.363385"><ele>276.4</ele><time>2026-04-20T14:20:11.022Z</time></trkpt><trkpt lat="43.319625" lon="11.3632933"><ele>277.0</ele><time>2026-04-20T14:20:12.022Z</time></trkpt><trkpt lat="43.31956" lon="11.3631867"><ele>277.0</ele><time>2026-04-20T14:20:13.021Z</time></trkpt><trkpt lat="43.3195017" lon="11.3630633"><ele>277.0</ele><time>2026-04-20T14:20:14.021Z</time></trkpt><trkpt lat="43.3194533" lon="11.3629383"><ele>277.0</ele><time>2026-04-20T14:20:15.021Z</time></trkpt><trkpt lat="43.3194183" lon="11.3628"><ele>277.0</ele><time>2026-04-20T14:20:16.022Z</time></trkpt><trkpt lat="43.3193883" lon="11.3626733"><ele>277.0</ele><time>2026-04-20T14:20:17.022Z</time></trkpt><trkpt lat="43.31934" lon="11.3625767"><ele>275.8333333333333</ele><time>2026-04-20T14:20:18.022Z</time></trkpt><trkpt lat="43.3192833" lon="11.36248"><ele>274.66666666666663</ele><time>2026-04-20T14:20:19.022Z</time></trkpt><trkpt lat="43.31923" lon="11.362395"><ele>273.5</ele><time>2026-04-20T14:20:20.022Z</time></trkpt><trkpt lat="43.3191733" lon="11.3623183"><ele>272.3333333333333</ele><time>2026-04-20T14:20:21.021Z</time></trkpt><trkpt lat="43.3191083" lon="11.3622317"><ele>271.1666666666667</ele><time>2026-04-20T14:20:22.022Z</time></trkpt><trkpt lat="43.3190433" lon="11.3621333"><ele>270.0</ele><time>2026-04-20T14:20:23.022Z</time></trkpt><trkpt lat="43.3189683" lon="11.3620333"><ele>269.2</ele><time>2026-04-20T14:20:24.022Z</time></trkpt><trkpt lat="43.3189017" lon="11.361915"><ele>268.4</ele><time>2026-04-20T14:20:25.022Z</time></trkpt><trkpt lat="43.3188283" lon="11.3617967"><ele>267.6</ele><time>2026-04-20T14:20:26.022Z</time></trkpt><trkpt lat="43.3187667" lon="11.3616617"><ele>266.8</ele><time>2026-04-20T14:20:27.022Z</time></trkpt><trkpt lat="43.3187117" lon="11.3615317"><ele>266.0</ele><time>2026-04-20T14:20:28.022Z</time></trkpt><trkpt lat="43.3186567" lon="11.3613983"><ele>264.40000000000003</ele><time>2026-04-20T14:20:29.021Z</time></trkpt><trkpt lat="43.3186117" lon="11.361255"><ele>262.8</ele><time>2026-04-20T14:20:30.022Z</time></trkpt><trkpt lat="43.31857" lon="11.3611267"><ele>261.20000000000005</ele><time>2026-04-20T14:20:31.022Z</time></trkpt><trkpt lat="43.3185283" lon="11.3609967"><ele>259.6</ele><time>2026-04-20T14:20:32.022Z</time></trkpt><trkpt lat="43.3184767" lon="11.36087"><ele>258.0</ele><time>2026-04-20T14:20:33.022Z</time></trkpt><trkpt lat="43.3184183" lon="11.3607517"><ele>258.0</ele><time>2026-04-20T14:20:34.021Z</time></trkpt><trkpt lat="43.3183667" lon="11.3606383"><ele>258.0</ele><time>2026-04-20T14:20:35.022Z</time></trkpt><trkpt lat="43.3183183" lon="11.3605217"><ele>258.0</ele><time>2026-04-20T14:20:36.021Z</time></trkpt><trkpt lat="43.318275" lon="11.3603983"><ele>258.0</ele><time>2026-04-20T14:20:37.022Z</time></trkpt><trkpt lat="43.3182233" lon="11.3602817"><ele>258.0</ele><time>2026-04-20T14:20:38.022Z</time></trkpt><trkpt lat="43.3181683" lon="11.3601767"><ele>256.6</ele><time>2026-04-20T14:20:39.021Z</time></trkpt><trkpt lat="43.31811" lon="11.3600767"><ele>255.20000000000002</ele><time>2026-04-20T14:20:40.021Z</time></trkpt><trkpt lat="43.318045" lon="11.3599767"><ele>253.8</ele><time>2026-04-20T14:20:41.022Z</time></trkpt><trkpt lat="43.3179833" lon="11.3598817"><ele>252.4</ele><time>2026-04-20T14:20:42.021Z</time></trkpt><trkpt lat="43.3179333" lon="11.3597917"><ele>251.0</ele><time>2026-04-20T14:20:43.022Z</time></trkpt><trkpt lat="43.31789" lon="11.3596917"><ele>249.33333333333334</ele><time>2026-04-20T14:20:44.022Z</time></trkpt><trkpt lat="43.3178567" lon="11.3595917"><ele>247.66666666666669</ele><time>2026-04-20T14:20:45.022Z</time></trkpt><trkpt lat="43.3178283" lon="11.359485"><ele>246.0</ele><time>2026-04-20T14:20:46.021Z</time></trkpt><trkpt lat="43.317805" lon="11.3593767"><ele>244.33333333333331</ele><time>2026-04-20T14:20:47.022Z</time></trkpt><trkpt lat="43.3177833" lon="11.3592683"><ele>242.66666666666666</ele><time>2026-04-20T14:20:48.022Z</time></trkpt><trkpt lat="43.3177583" lon="11.3591733"><ele>241.0</ele><time>2026-04-20T14:20:49.022Z</time></trkpt><trkpt lat="43.3177417" lon="11.35908"><ele>240.99999999999997</ele><time>2026-04-20T14:20:50.022Z</time></trkpt><trkpt lat="43.3177217" lon="11.3589883"><ele>241.0</ele><time>2026-04-20T14:20:51.022Z</time></trkpt><trkpt lat="43.317705" lon="11.3589"><ele>241.0</ele><time>2026-04-20T14:20:52.021Z</time></trkpt><trkpt lat="43.3176783" lon="11.358805"><ele>241.0</ele><time>2026-04-20T14:20:53.022Z</time></trkpt><trkpt lat="43.3176367" lon="11.3587033"><ele>240.99999999999997</ele><time>2026-04-20T14:20:54.022Z</time></trkpt><trkpt lat="43.31759" lon="11.3586117"><ele>241.0</ele><time>2026-04-20T14:20:55.022Z</time></trkpt><trkpt lat="43.31753" lon="11.3585367"><ele>240.20000000000002</ele><time>2026-04-20T14:20:56.022Z</time></trkpt><trkpt lat="43.31747" lon="11.3584633"><ele>239.40000000000003</ele><time>2026-04-20T14:20:57.022Z</time></trkpt><trkpt lat="43.3173967" lon="11.3584033"><ele>238.6</ele><time>2026-04-20T14:20:58.021Z</time></trkpt><trkpt lat="43.3173067" lon="11.3583517"><ele>237.8</ele><time>2026-04-20T14:20:59.022Z</time></trkpt><trkpt lat="43.3172133" lon="11.35832"><ele>237.0</ele><time>2026-04-20T14:21:00.022Z</time></trkpt><trkpt lat="43.3171167" lon="11.3583083"><ele>235.6</ele><time>2026-04-20T14:21:01.021Z</time></trkpt><trkpt lat="43.3170267" lon="11.3583083"><ele>234.2</ele><time>2026-04-20T14:21:02.022Z</time></trkpt><trkpt lat="43.3169367" lon="11.3583017"><ele>232.8</ele><time>2026-04-20T14:21:03.022Z</time></trkpt><trkpt lat="43.3168367" lon="11.35829"><ele>231.4</ele><time>2026-04-20T14:21:04.022Z</time></trkpt><trkpt lat="43.3167417" lon="11.3582517"><ele>230.0</ele><time>2026-04-20T14:21:05.022Z</time></trkpt><trkpt lat="43.316665" lon="11.3581883"><ele>230.0</ele><time>2026-04-20T14:21:06.022Z</time></trkpt><trkpt lat="43.3165967" lon="11.3581033"><ele>230.0</ele><time>2026-04-20T14:21:07.022Z</time></trkpt><trkpt lat="43.316535" lon="11.3580033"><ele>230.0</ele><time>2026-04-20T14:21:08.022Z</time></trkpt><trkpt lat="43.3164783" lon="11.3579"><ele>230.0</ele><time>2026-04-20T14:21:09.021Z</time></trkpt><trkpt lat="43.3164217" lon="11.357805"><ele>230.0</ele><time>2026-04-20T14:21:10.022Z</time></trkpt><trkpt lat="43.3163717" lon="11.35772"><ele>229.4</ele><time>2026-04-20T14:21:11.022Z</time></trkpt><trkpt lat="43.3163133" lon="11.35761"><ele>228.8</ele><time>2026-04-20T14:21:13.021Z</time></trkpt><trkpt lat="43.3162917" lon="11.3575217"><ele>228.2</ele><time>2026-04-20T14:21:15.021Z</time></trkpt><trkpt lat="43.3162067" lon="11.3574617"><ele>227.6</ele><time>2026-04-20T14:25:17.022Z</time></trkpt><trkpt lat="43.3161583" lon="11.357355"><ele>227.0</ele><time>2026-04-20T14:25:19.022Z</time></trkpt><trkpt lat="43.31611" lon="11.3571883"><ele>226.83333333333334</ele><time>2026-04-20T14:25:21.021Z</time></trkpt><trkpt lat="43.3160817" lon="11.3570767"><ele>226.66666666666669</ele><time>2026-04-20T14:25:22.02Z</time></trkpt><trkpt lat="43.3160633" lon="11.356955"><ele>226.5</ele><time>2026-04-20T14:25:23.02Z</time></trkpt><trkpt lat="43.3160533" lon="11.3568367"><ele>226.33333333333331</ele><time>2026-04-20T14:25:24.021Z</time></trkpt><trkpt lat="43.3160517" lon="11.356735"><ele>226.16666666666666</ele><time>2026-04-20T14:25:25.021Z</time></trkpt><trkpt lat="43.316045" lon="11.3566367"><ele>226.0</ele><time>2026-04-20T14:25:26.021Z</time></trkpt><trkpt lat="43.3160367" lon="11.35655"><ele>225.99999999999997</ele><time>2026-04-20T14:25:27.021Z</time></trkpt><trkpt lat="43.3160217" lon="11.35641"><ele>226.0</ele><time>2026-04-20T14:25:29.021Z</time></trkpt><trkpt lat="43.316015" lon="11.3562933"><ele>226.0</ele><time>2026-04-20T14:25:31.021Z</time></trkpt><trkpt lat="43.3160117" lon="11.3562017"><ele>226.0</ele><time>2026-04-20T14:25:45.021Z</time></trkpt><trkpt lat="43.3160567" lon="11.356095"><ele>225.99999999999997</ele><time>2026-04-20T14:26:02.021Z</time></trkpt><trkpt lat="43.3160983" lon="11.3560083"><ele>226.0</ele><time>2026-04-20T14:26:04.021Z</time></trkpt><trkpt lat="43.31617" lon="11.3558733"><ele>225.75</ele><time>2026-04-20T14:26:06.021Z</time></trkpt><trkpt lat="43.3162433" lon="11.3557483"><ele>225.5</ele><time>2026-04-20T14:26:08.021Z</time></trkpt><trkpt lat="43.3163217" lon="11.3556283"><ele>225.25</ele><time>2026-04-20T14:26:10.021Z</time></trkpt><trkpt lat="43.31638" lon="11.35548"><ele>225.0</ele><time>2026-04-20T14:26:12.021Z</time></trkpt><trkpt lat="43.316355" lon="11.35533"><ele>225.0</ele><time>2026-04-20T14:26:14.02Z</time></trkpt><trkpt lat="43.3162617" lon="11.35524"><ele>225.0</ele><time>2026-04-20T14:26:16.021Z</time></trkpt><trkpt lat="43.3161983" lon="11.3552433"><ele>225.0</ele><time>2026-04-20T14:26:17.021Z</time></trkpt><trkpt lat="43.31612" lon="11.355345"><ele>225.0</ele><time>2026-04-20T14:26:19.021Z</time></trkpt><trkpt lat="43.3160833" lon="11.355485"><ele>225.0</ele><time>2026-04-20T14:26:21.02Z</time></trkpt><trkpt lat="43.3160683" lon="11.3555767"><ele>225.0</ele><time>2026-04-20T14:26:22.021Z</time></trkpt><trkpt lat="43.3160467" lon="11.35568"><ele>225.0</ele><time>2026-04-20T14:26:23.02Z</time></trkpt><trkpt lat="43.3160167" lon="11.35578"><ele>225.0</ele><time>2026-04-20T14:26:24.02Z</time></trkpt><trkpt lat="43.315975" lon="11.3558783"><ele>225.0</ele><time>2026-04-20T14:26:25.021Z</time></trkpt><trkpt lat="43.3159167" lon="11.3559617"><ele>225.0</ele><time>2026-04-20T14:26:26.021Z</time></trkpt><trkpt lat="43.3158533" lon="11.35604"><ele>225.0</ele><time>2026-04-20T14:26:27.021Z</time></trkpt><trkpt lat="43.3157867" lon="11.3561133"><ele>225.0</ele><time>2026-04-20T14:26:28.02Z</time></trkpt><trkpt lat="43.3157283" lon="11.3561733"><ele>225.0</ele><time>2026-04-20T14:26:29.021Z</time></trkpt><trkpt lat="43.315675" lon="11.356235"><ele>225.0</ele><time>2026-04-20T14:26:30.021Z</time></trkpt><trkpt lat="43.315585" lon="11.3563483"><ele>225.0</ele><time>2026-04-20T14:26:32.021Z</time></trkpt><trkpt lat="43.3155467" lon="11.3564633"><ele>225.0</ele><time>2026-04-20T14:26:34.02Z</time></trkpt><trkpt lat="43.3155917" lon="11.3565483"><ele>225.0</ele><time>2026-04-20T14:26:38.021Z</time></trkpt><trkpt lat="43.3156733" lon="11.3565"><ele>225.0</ele><time>2026-04-20T14:26:40.021Z</time></trkpt><trkpt lat="43.31573" lon="11.3564383"><ele>225.0</ele><time>2026-04-20T14:26:41.021Z</time></trkpt><trkpt lat="43.3157833" lon="11.3563717"><ele>225.0</ele><time>2026-04-20T14:26:42.021Z</time></trkpt><trkpt lat="43.3158433" lon="11.3563017"><ele>225.0</ele><time>2026-04-20T14:26:43.02Z</time></trkpt><trkpt lat="43.315905" lon="11.356235"><ele>225.0</ele><time>2026-04-20T14:26:44.021Z</time></trkpt><trkpt lat="43.3159617" lon="11.3561667"><ele>225.0</ele><time>2026-04-20T14:26:45.02Z</time></trkpt><trkpt lat="43.3160133" lon="11.356095"><ele>225.0</ele><time>2026-04-20T14:26:46.021Z</time></trkpt><trkpt lat="43.3160617" lon="11.356025"><ele>225.0</ele><time>2026-04-20T14:26:47.02Z</time></trkpt><trkpt lat="43.3161283" lon="11.3559167"><ele>225.0</ele><time>2026-04-20T14:26:49.021Z</time></trkpt><trkpt lat="43.3161817" lon="11.3558267"><ele>225.0</ele><time>2026-04-20T14:26:51.021Z</time></trkpt><trkpt lat="43.3162517" lon="11.3557267"><ele>225.0</ele><time>2026-04-20T14:26:53.021Z</time></trkpt><trkpt lat="43.31632" lon="11.3556267"><ele>225.5</ele><time>2026-04-20T14:26:55.021Z</time></trkpt><trkpt lat="43.3163733" lon="11.355475"><ele>226.0</ele><time>2026-04-20T14:26:57.021Z</time></trkpt><trkpt lat="43.3163517" lon="11.3553217"><ele>226.5</ele><time>2026-04-20T14:26:59.021Z</time></trkpt><trkpt lat="43.31626" lon="11.355245"><ele>227.0</ele><time>2026-04-20T14:27:01.021Z</time></trkpt><trkpt lat="43.316155" lon="11.355275"><ele>227.00000000000003</ele><time>2026-04-20T14:27:03.021Z</time></trkpt><trkpt lat="43.316085" lon="11.3554017"><ele>227.0</ele><time>2026-04-20T14:27:05.021Z</time></trkpt><trkpt lat="43.3160717" lon="11.3555033"><ele>227.0</ele><time>2026-04-20T14:27:06.02Z</time></trkpt><trkpt lat="43.3160617" lon="11.35561"><ele>227.0</ele><time>2026-04-20T14:27:07.021Z</time></trkpt><trkpt lat="43.3160417" lon="11.3557117"><ele>227.00000000000003</ele><time>2026-04-20T14:27:08.021Z</time></trkpt><trkpt lat="43.3160133" lon="11.3558017"><ele>227.0</ele><time>2026-04-20T14:27:09.021Z</time></trkpt><trkpt lat="43.3159767" lon="11.355885"><ele>226.6</ele><time>2026-04-20T14:27:10.021Z</time></trkpt><trkpt lat="43.3159317" lon="11.3559467"><ele>226.2</ele><time>2026-04-20T14:27:11.021Z</time></trkpt><trkpt lat="43.3158167" lon="11.3559817"><ele>225.8</ele><time>2026-04-20T14:27:13.021Z</time></trkpt><trkpt lat="43.3156967" lon="11.3559233"><ele>225.4</ele><time>2026-04-20T14:27:15.021Z</time></trkpt><trkpt lat="43.3156267" lon="11.355895"><ele>225.0</ele><time>2026-04-20T14:27:16.021Z</time></trkpt><trkpt lat="43.315555" lon="11.3558633"><ele>225.66666666666666</ele><time>2026-04-20T14:27:17.021Z</time></trkpt><trkpt lat="43.315475" lon="11.3558367"><ele>226.33333333333331</ele><time>2026-04-20T14:27:18.021Z</time></trkpt><trkpt lat="43.3153983" lon="11.3558183"><ele>227.0</ele><time>2026-04-20T14:27:19.021Z</time></trkpt><trkpt lat="43.3153183" lon="11.3558183"><ele>227.66666666666666</ele><time>2026-04-20T14:27:20.021Z</time></trkpt><trkpt lat="43.31523" lon="11.3558283"><ele>228.33333333333331</ele><time>2026-04-20T14:27:21.021Z</time></trkpt><trkpt lat="43.3151433" lon="11.3558767"><ele>229.0</ele><time>2026-04-20T14:27:22.021Z</time></trkpt><trkpt lat="43.31507" lon="11.3559317"><ele>228.99999999999997</ele><time>2026-04-20T14:27:23.02Z</time></trkpt><trkpt lat="43.3150017" lon="11.3560017"><ele>229.0</ele><time>2026-04-20T14:27:24.021Z</time></trkpt><trkpt lat="43.3149317" lon="11.3560633"><ele>229.0</ele><time>2026-04-20T14:27:25.021Z</time></trkpt><trkpt lat="43.3148583" lon="11.356135"><ele>229.0</ele><time>2026-04-20T14:27:26.021Z</time></trkpt><trkpt lat="43.3147817" lon="11.3562067"><ele>228.99999999999997</ele><time>2026-04-20T14:27:27.021Z</time></trkpt><trkpt lat="43.3147167" lon="11.3562733"><ele>229.0</ele><time>2026-04-20T14:27:28.02Z</time></trkpt><trkpt lat="43.3146533" lon="11.356325"><ele>229.79999999999998</ele><time>2026-04-20T14:27:29.021Z</time></trkpt><trkpt lat="43.3145967" lon="11.3563767"><ele>230.59999999999997</ele><time>2026-04-20T14:27:30.021Z</time></trkpt><trkpt lat="43.314495" lon="11.3564083"><ele>231.4</ele><time>2026-04-20T14:27:32.021Z</time></trkpt><trkpt lat="43.3144267" lon="11.3563067"><ele>232.2</ele><time>2026-04-20T14:27:34.02Z</time></trkpt><trkpt lat="43.3144533" lon="11.3561267"><ele>233.0</ele><time>2026-04-20T14:27:36.021Z</time></trkpt><trkpt lat="43.3144917" lon="11.3560217"><ele>235.0</ele><time>2026-04-20T14:27:37.021Z</time></trkpt><trkpt lat="43.3145333" lon="11.3559033"><ele>237.0</ele><time>2026-04-20T14:27:38.021Z</time></trkpt><trkpt lat="43.3145783" lon="11.35578"><ele>239.0</ele><time>2026-04-20T14:27:39.02Z</time></trkpt><trkpt lat="43.31461" lon="11.3556483"><ele>241.0</ele><time>2026-04-20T14:27:40.02Z</time></trkpt><trkpt lat="43.314635" lon="11.3555133"><ele>243.0</ele><time>2026-04-20T14:27:41.021Z</time></trkpt><trkpt lat="43.3146483" lon="11.3553833"><ele>245.2</ele><time>2026-04-20T14:27:42.021Z</time></trkpt><trkpt lat="43.3146583" lon="11.355245"><ele>247.4</ele><time>2026-04-20T14:27:43.021Z</time></trkpt><trkpt lat="43.3146683" lon="11.355105"><ele>249.59999999999997</ele><time>2026-04-20T14:27:44.021Z</time></trkpt><trkpt lat="43.3146617" lon="11.354965"><ele>251.79999999999998</ele><time>2026-04-20T14:27:45.021Z</time></trkpt><trkpt lat="43.3146517" lon="11.35483"><ele>254.0</ele><time>2026-04-20T14:27:46.021Z</time></trkpt><trkpt lat="43.31464" lon="11.354695"><ele>255.0</ele><time>2026-04-20T14:27:47.021Z</time></trkpt><trkpt lat="43.314615" lon="11.354575"><ele>255.99999999999997</ele><time>2026-04-20T14:27:48.02Z</time></trkpt><trkpt lat="43.3145717" lon="11.3544617"><ele>257.0</ele><time>2026-04-20T14:27:49.021Z</time></trkpt><trkpt lat="43.3145167" lon="11.3543733"><ele>258.0</ele><time>2026-04-20T14:27:50.021Z</time></trkpt><trkpt lat="43.31445" lon="11.354285"><ele>259.0</ele><time>2026-04-20T14:27:51.021Z</time></trkpt><trkpt lat="43.3143917" lon="11.3541883"><ele>259.0</ele><time>2026-04-20T14:27:52.021Z</time></trkpt><trkpt lat="43.3143333" lon="11.3540967"><ele>259.0</ele><time>2026-04-20T14:27:53.021Z</time></trkpt><trkpt lat="43.3142883" lon="11.3539933"><ele>259.0</ele><time>2026-04-20T14:27:54.021Z</time></trkpt><trkpt lat="43.314245" lon="11.3538783"><ele>259.0</ele><time>2026-04-20T14:27:55.02Z</time></trkpt><trkpt lat="43.3142033" lon="11.3537783"><ele>259.0</ele><time>2026-04-20T14:27:56.02Z</time></trkpt><trkpt lat="43.3141467" lon="11.3536783"><ele>259.0</ele><time>2026-04-20T14:27:57.021Z</time></trkpt><trkpt lat="43.3140883" lon="11.3535817"><ele>258.2</ele><time>2026-04-20T14:27:58.021Z</time></trkpt><trkpt lat="43.31402" lon="11.353495"><ele>257.4</ele><time>2026-04-20T14:27:59.021Z</time></trkpt><trkpt lat="43.3139433" lon="11.35341"><ele>256.6</ele><time>2026-04-20T14:28:00.021Z</time></trkpt><trkpt lat="43.3138667" lon="11.3533233"><ele>255.8</ele><time>2026-04-20T14:28:01.021Z</time></trkpt><trkpt lat="43.313795" lon="11.35324"><ele>255.0</ele><time>2026-04-20T14:28:02.021Z</time></trkpt><trkpt lat="43.3137183" lon="11.35316"><ele>257.8</ele><time>2026-04-20T14:28:03.021Z</time></trkpt><trkpt lat="43.3136467" lon="11.3530767"><ele>260.6</ele><time>2026-04-20T14:28:04.021Z</time></trkpt><trkpt lat="43.3135717" lon="11.3529867"><ele>263.4</ele><time>2026-04-20T14:28:05.021Z</time></trkpt><trkpt lat="43.3135" lon="11.3528883"><ele>266.2</ele><time>2026-04-20T14:28:06.021Z</time></trkpt><trkpt lat="43.3134333" lon="11.3527967"><ele>269.0</ele><time>2026-04-20T14:28:07.021Z</time></trkpt><trkpt lat="43.31337" lon="11.352685"><ele>269.0</ele><time>2026-04-20T14:28:08.021Z</time></trkpt><trkpt lat="43.3133183" lon="11.35258"><ele>269.0</ele><time>2026-04-20T14:28:09.021Z</time></trkpt><trkpt lat="43.3132667" lon="11.352475"><ele>269.0</ele><time>2026-04-20T14:28:10.021Z</time></trkpt><trkpt lat="43.3132067" lon="11.3523783"><ele>269.0</ele><time>2026-04-20T14:28:11.021Z</time></trkpt><trkpt lat="43.3131583" lon="11.352285"><ele>269.0</ele><time>2026-04-20T14:28:12.02Z</time></trkpt><trkpt lat="43.3131117" lon="11.3522083"><ele>269.0</ele><time>2026-04-20T14:28:13.021Z</time></trkpt><trkpt lat="43.3130683" lon="11.3521267"><ele>270.4</ele><time>2026-04-20T14:28:14.021Z</time></trkpt><trkpt lat="43.3130317" lon="11.3520383"><ele>271.79999999999995</ele><time>2026-04-20T14:28:15.021Z</time></trkpt><trkpt lat="43.31299" lon="11.3519317"><ele>273.20000000000005</ele><time>2026-04-20T14:28:16.021Z</time></trkpt><trkpt lat="43.3129433" lon="11.3518067"><ele>274.6</ele><time>2026-04-20T14:28:17.021Z</time></trkpt><trkpt lat="43.3129067" lon="11.3516617"><ele>276.0</ele><time>2026-04-20T14:28:18.02Z</time></trkpt><trkpt lat="43.3128683" lon="11.3515183"><ele>277.0</ele><time>2026-04-20T14:28:19.021Z</time></trkpt><trkpt lat="43.31284" lon="11.3513667"><ele>278.0</ele><time>2026-04-20T14:28:20.021Z</time></trkpt><trkpt lat="43.3128217" lon="11.351215"><ele>279.0</ele><time>2026-04-20T14:28:21.021Z</time></trkpt><trkpt lat="43.312795" lon="11.3510683"><ele>280.0</ele><time>2026-04-20T14:28:22.021Z</time></trkpt><trkpt lat="43.3127633" lon="11.350935"><ele>281.0</ele><time>2026-04-20T14:28:23.021Z</time></trkpt><trkpt lat="43.312725" lon="11.3508067"><ele>281.0</ele><time>2026-04-20T14:28:24.021Z</time></trkpt><trkpt lat="43.3126933" lon="11.3506917"><ele>281.0</ele><time>2026-04-20T14:28:25.021Z</time></trkpt><trkpt lat="43.31267" lon="11.3505883"><ele>281.0</ele><time>2026-04-20T14:28:26.021Z</time></trkpt><trkpt lat="43.3126417" lon="11.3505"><ele>281.0</ele><time>2026-04-20T14:28:27.02Z</time></trkpt><trkpt lat="43.3126167" lon="11.3504133"><ele>281.0</ele><time>2026-04-20T14:28:28.021Z</time></trkpt><trkpt lat="43.3125833" lon="11.3503283"><ele>281.0</ele><time>2026-04-20T14:28:29.021Z</time></trkpt><trkpt lat="43.3125267" lon="11.35018"><ele>280.6</ele><time>2026-04-20T14:28:31.02Z</time></trkpt><trkpt lat="43.3124817" lon="11.3500217"><ele>280.20000000000005</ele><time>2026-04-20T14:28:33.021Z</time></trkpt><trkpt lat="43.3124883" lon="11.3498517"><ele>279.79999999999995</ele><time>2026-04-20T14:28:35.021Z</time></trkpt><trkpt lat="43.3125117" lon="11.34977"><ele>279.4</ele><time>2026-04-20T14:28:36.021Z</time></trkpt><trkpt lat="43.31257" lon="11.3496317"><ele>279.0</ele><time>2026-04-20T14:28:38.021Z</time></trkpt><trkpt lat="43.3126167" lon="11.3495567"><ele>278.0</ele><time>2026-04-20T14:28:39.021Z</time></trkpt><trkpt lat="43.31266" lon="11.3494767"><ele>277.0</ele><time>2026-04-20T14:28:40.021Z</time></trkpt><trkpt lat="43.3126867" lon="11.3493983"><ele>276.0</ele><time>2026-04-20T14:28:41.021Z</time></trkpt><trkpt lat="43.3127433" lon="11.3492533"><ele>275.0</ele><time>2026-04-20T14:28:43.021Z</time></trkpt><trkpt lat="43.3127767" lon="11.3491133"><ele>274.0</ele><time>2026-04-20T14:28:45.021Z</time></trkpt><trkpt lat="43.312755" lon="11.3489617"><ele>273.3333333333333</ele><time>2026-04-20T14:28:47.021Z</time></trkpt><trkpt lat="43.3127417" lon="11.3488717"><ele>272.66666666666663</ele><time>2026-04-20T14:28:48.021Z</time></trkpt><trkpt lat="43.31272" lon="11.3487833"><ele>272.0</ele><time>2026-04-20T14:28:49.021Z</time></trkpt><trkpt lat="43.3127017" lon="11.348695"><ele>271.3333333333333</ele><time>2026-04-20T14:28:50.021Z</time></trkpt><trkpt lat="43.31268" lon="11.3486117"><ele>270.6666666666667</ele><time>2026-04-20T14:28:51.02Z</time></trkpt><trkpt lat="43.3126517" lon="11.34853"><ele>270.0</ele><time>2026-04-20T14:28:52.021Z</time></trkpt><trkpt lat="43.3125683" lon="11.3483917"><ele>270.0</ele><time>2026-04-20T14:28:54.021Z</time></trkpt><trkpt lat="43.312485" lon="11.3482733"><ele>270.0</ele><time>2026-04-20T14:28:56.02Z</time></trkpt><trkpt lat="43.31241" lon="11.348175"><ele>270.0</ele><time>2026-04-20T14:28:58.021Z</time></trkpt><trkpt lat="43.3123417" lon="11.3480933"><ele>270.0</ele><time>2026-04-20T14:29:00.021Z</time></trkpt><trkpt lat="43.3122817" lon="11.3480633"><ele>270.0</ele><time>2026-04-20T14:29:02.021Z</time></trkpt><trkpt lat="43.3122117" lon="11.3481533"><ele>269.0</ele><time>2026-04-20T14:29:05.021Z</time></trkpt><trkpt lat="43.3121517" lon="11.348295"><ele>268.0</ele><time>2026-04-20T14:29:07.021Z</time></trkpt><trkpt lat="43.3121117" lon="11.3483867"><ele>267.0</ele><time>2026-04-20T14:29:08.021Z</time></trkpt><trkpt lat="43.3120767" lon="11.3484933"><ele>266.0</ele><time>2026-04-20T14:29:09.021Z</time></trkpt><trkpt lat="43.312045" lon="11.3485983"><ele>265.0</ele><time>2026-04-20T14:29:10.021Z</time></trkpt><trkpt lat="43.3120167" lon="11.3487183"><ele>265.0</ele><time>2026-04-20T14:29:11.021Z</time></trkpt><trkpt lat="43.3119883" lon="11.3488517"><ele>265.0</ele><time>2026-04-20T14:29:12.021Z</time></trkpt><trkpt lat="43.3119567" lon="11.3489867"><ele>265.0</ele><time>2026-04-20T14:29:13.02Z</time></trkpt><trkpt lat="43.3119183" lon="11.34912"><ele>265.0</ele><time>2026-04-20T14:29:14.02Z</time></trkpt><trkpt lat="43.3118783" lon="11.3492483"><ele>265.0</ele><time>2026-04-20T14:29:15.021Z</time></trkpt><trkpt lat="43.31183" lon="11.34937"><ele>264.4</ele><time>2026-04-20T14:29:16.02Z</time></trkpt><trkpt lat="43.3117717" lon="11.3494817"><ele>263.8</ele><time>2026-04-20T14:29:17.021Z</time></trkpt><trkpt lat="43.3117083" lon="11.349585"><ele>263.2</ele><time>2026-04-20T14:29:18.021Z</time></trkpt><trkpt lat="43.3116267" lon="11.34967"><ele>262.6</ele><time>2026-04-20T14:29:19.021Z</time></trkpt><trkpt lat="43.3115383" lon="11.349745"><ele>262.0</ele><time>2026-04-20T14:29:20.021Z</time></trkpt><trkpt lat="43.3114467" lon="11.3498067"><ele>262.0</ele><time>2026-04-20T14:29:21.021Z</time></trkpt><trkpt lat="43.3113583" lon="11.3498683"><ele>262.0</ele><time>2026-04-20T14:29:22.021Z</time></trkpt><trkpt lat="43.3112817" lon="11.3499133"><ele>262.0</ele><time>2026-04-20T14:29:23.02Z</time></trkpt><trkpt lat="43.3112017" lon="11.3499333"><ele>262.0</ele><time>2026-04-20T14:29:24.021Z</time></trkpt><trkpt lat="43.3111283" lon="11.3499583"><ele>262.0</ele><time>2026-04-20T14:29:25.021Z</time></trkpt><trkpt lat="43.311065" lon="11.3499717"><ele>262.0</ele><time>2026-04-20T14:29:26.02Z</time></trkpt><trkpt lat="43.3109967" lon="11.3499867"><ele>262.0</ele><time>2026-04-20T14:29:27.021Z</time></trkpt><trkpt lat="43.310885" lon="11.35002"><ele>262.0</ele><time>2026-04-20T14:29:29.021Z</time></trkpt><trkpt lat="43.310775" lon="11.3500583"><ele>262.0</ele><time>2026-04-20T14:29:31.021Z</time></trkpt><trkpt lat="43.3106633" lon="11.35011"><ele>262.0</ele><time>2026-04-20T14:29:33.021Z</time></trkpt><trkpt lat="43.310595" lon="11.350165"><ele>262.0</ele><time>2026-04-20T14:29:35.021Z</time></trkpt><trkpt lat="43.310545" lon="11.3502317"><ele>262.0</ele><time>2026-04-20T14:29:37.02Z</time></trkpt><trkpt lat="43.3104617" lon="11.3503"><ele>262.0</ele><time>2026-04-20T14:29:40.021Z</time></trkpt><trkpt lat="43.3103433" lon="11.35039"><ele>262.0</ele><time>2026-04-20T14:29:42.021Z</time></trkpt><trkpt lat="43.3102733" lon="11.3504333"><ele>262.0</ele><time>2026-04-20T14:29:43.021Z</time></trkpt><trkpt lat="43.31022" lon="11.3504967"><ele>262.0</ele><time>2026-04-20T14:29:44.021Z</time></trkpt><trkpt lat="43.3101617" lon="11.3505683"><ele>261.8333333333333</ele><time>2026-04-20T14:29:45.021Z</time></trkpt><trkpt lat="43.3101033" lon="11.3506433"><ele>261.66666666666663</ele><time>2026-04-20T14:29:46.021Z</time></trkpt><trkpt lat="43.3100467" lon="11.3507267"><ele>261.5</ele><time>2026-04-20T14:29:47.021Z</time></trkpt><trkpt lat="43.3099967" lon="11.3508"><ele>261.3333333333333</ele><time>2026-04-20T14:29:48.021Z</time></trkpt><trkpt lat="43.30994" lon="11.3508817"><ele>261.1666666666667</ele><time>2026-04-20T14:29:49.021Z</time></trkpt><trkpt lat="43.3098867" lon="11.3509667"><ele>261.0</ele><time>2026-04-20T14:29:50.021Z</time></trkpt><trkpt lat="43.30983" lon="11.3510483"><ele>261.0</ele><time>2026-04-20T14:29:51.02Z</time></trkpt><trkpt lat="43.3097733" lon="11.3511517"><ele>261.0</ele><time>2026-04-20T14:29:52.021Z</time></trkpt><trkpt lat="43.309725" lon="11.3512667"><ele>261.0</ele><time>2026-04-20T14:29:53.021Z</time></trkpt><trkpt lat="43.3096833" lon="11.3513983"><ele>261.0</ele><time>2026-04-20T14:29:54.021Z</time></trkpt><trkpt lat="43.3096383" lon="11.3515267"><ele>261.0</ele><time>2026-04-20T14:29:55.021Z</time></trkpt><trkpt lat="43.3095967" lon="11.3516667"><ele>261.6</ele><time>2026-04-20T14:29:56.021Z</time></trkpt><trkpt lat="43.3095633" lon="11.3517983"><ele>262.20000000000005</ele><time>2026-04-20T14:29:57.021Z</time></trkpt><trkpt lat="43.3095383" lon="11.3519317"><ele>262.79999999999995</ele><time>2026-04-20T14:29:58.021Z</time></trkpt><trkpt lat="43.3095117" lon="11.35207"><ele>263.4</ele><time>2026-04-20T14:29:59.021Z</time></trkpt><trkpt lat="43.3094917" lon="11.352215"><ele>264.0</ele><time>2026-04-20T14:30:00.02Z</time></trkpt><trkpt lat="43.3094633" lon="11.352355"><ele>264.0</ele><time>2026-04-20T14:30:01.021Z</time></trkpt><trkpt lat="43.3094333" lon="11.3524983"><ele>264.0</ele><time>2026-04-20T14:30:02.021Z</time></trkpt><trkpt lat="43.3094083" lon="11.3526483"><ele>264.0</ele><time>2026-04-20T14:30:03.021Z</time></trkpt><trkpt lat="43.3093867" lon="11.3527983"><ele>264.0</ele><time>2026-04-20T14:30:04.021Z</time></trkpt><trkpt lat="43.3093733" lon="11.3529383"><ele>264.0</ele><time>2026-04-20T14:30:05.021Z</time></trkpt><trkpt lat="43.3093483" lon="11.3530733"><ele>264.2</ele><time>2026-04-20T14:30:06.021Z</time></trkpt><trkpt lat="43.309325" lon="11.35321"><ele>264.4</ele><time>2026-04-20T14:30:07.021Z</time></trkpt><trkpt lat="43.3093033" lon="11.3533467"><ele>264.6</ele><time>2026-04-20T14:30:08.021Z</time></trkpt><trkpt lat="43.3092833" lon="11.353485"><ele>264.8</ele><time>2026-04-20T14:30:09.021Z</time></trkpt><trkpt lat="43.3092667" lon="11.3536217"><ele>265.0</ele><time>2026-04-20T14:30:10.021Z</time></trkpt><trkpt lat="43.3092633" lon="11.3537667"><ele>264.4</ele><time>2026-04-20T14:30:11.021Z</time></trkpt><trkpt lat="43.3092583" lon="11.35392"><ele>263.8</ele><time>2026-04-20T14:30:12.021Z</time></trkpt><trkpt lat="43.3092533" lon="11.354055"><ele>263.2</ele><time>2026-04-20T14:30:13.021Z</time></trkpt><trkpt lat="43.3092483" lon="11.3542"><ele>262.6</ele><time>2026-04-20T14:30:14.021Z</time></trkpt><trkpt lat="43.3092483" lon="11.3543483"><ele>262.0</ele><time>2026-04-20T14:30:15.021Z</time></trkpt><trkpt lat="43.309245" lon="11.3544967"><ele>262.0</ele><time>2026-04-20T14:30:16.021Z</time></trkpt><trkpt lat="43.309235" lon="11.35464"><ele>262.0</ele><time>2026-04-20T14:30:17.019Z</time></trkpt><trkpt lat="43.3092317" lon="11.3547817"><ele>262.0</ele><time>2026-04-20T14:30:18.02Z</time></trkpt><trkpt lat="43.3092333" lon="11.3549117"><ele>262.0</ele><time>2026-04-20T14:30:19.02Z</time></trkpt><trkpt lat="43.30924" lon="11.3550517"><ele>262.0</ele><time>2026-04-20T14:30:20.02Z</time></trkpt><trkpt lat="43.3092533" lon="11.3551833"><ele>262.2</ele><time>2026-04-20T14:30:21.02Z</time></trkpt><trkpt lat="43.3092783" lon="11.3553233"><ele>262.4</ele><time>2026-04-20T14:30:22.02Z</time></trkpt><trkpt lat="43.3093083" lon="11.3554533"><ele>262.6</ele><time>2026-04-20T14:30:23.02Z</time></trkpt><trkpt lat="43.3093417" lon="11.3555933"><ele>262.8</ele><time>2026-04-20T14:30:24.019Z</time></trkpt><trkpt lat="43.3093833" lon="11.3557283"><ele>263.0</ele><time>2026-04-20T14:30:25.02Z</time></trkpt><trkpt lat="43.3094183" lon="11.3558717"><ele>262.6</ele><time>2026-04-20T14:30:26.02Z</time></trkpt><trkpt lat="43.3094583" lon="11.3560333"><ele>262.20000000000005</ele><time>2026-04-20T14:30:27.02Z</time></trkpt><trkpt lat="43.3094867" lon="11.356185"><ele>261.8</ele><time>2026-04-20T14:30:28.02Z</time></trkpt><trkpt lat="43.3095117" lon="11.3563317"><ele>261.40000000000003</ele><time>2026-04-20T14:30:29.02Z</time></trkpt><trkpt lat="43.3095217" lon="11.356465"><ele>261.0</ele><time>2026-04-20T14:30:30.019Z</time></trkpt><trkpt lat="43.30952" lon="11.356605"><ele>259.8</ele><time>2026-04-20T14:30:31.02Z</time></trkpt><trkpt lat="43.309505" lon="11.3567483"><ele>258.6</ele><time>2026-04-20T14:30:32.02Z</time></trkpt><trkpt lat="43.3094783" lon="11.3568917"><ele>257.4</ele><time>2026-04-20T14:30:33.02Z</time></trkpt><trkpt lat="43.3094417" lon="11.3570267"><ele>256.2</ele><time>2026-04-20T14:30:34.02Z</time></trkpt><trkpt lat="43.3094017" lon="11.35715"><ele>255.0</ele><time>2026-04-20T14:30:35.02Z</time></trkpt><trkpt lat="43.3093467" lon="11.35727"><ele>254.6</ele><time>2026-04-20T14:30:36.02Z</time></trkpt><trkpt lat="43.30928" lon="11.3573783"><ele>254.2</ele><time>2026-04-20T14:30:37.02Z</time></trkpt><trkpt lat="43.3092" lon="11.3574733"><ele>253.8</ele><time>2026-04-20T14:30:38.019Z</time></trkpt><trkpt lat="43.3091183" lon="11.3575633"><ele>253.4</ele><time>2026-04-20T14:30:39.02Z</time></trkpt><trkpt lat="43.309025" lon="11.3576517"><ele>253.0</ele><time>2026-04-20T14:30:40.02Z</time></trkpt><trkpt lat="43.3089267" lon="11.35774"><ele>251.5</ele><time>2026-04-20T14:30:41.02Z</time></trkpt><trkpt lat="43.3088283" lon="11.357835"><ele>250.0</ele><time>2026-04-20T14:30:42.02Z</time></trkpt><trkpt lat="43.3087333" lon="11.3579183"><ele>248.5</ele><time>2026-04-20T14:30:43.02Z</time></trkpt><trkpt lat="43.3086417" lon="11.3580067"><ele>247.0</ele><time>2026-04-20T14:30:44.02Z</time></trkpt><trkpt lat="43.3085417" lon="11.3580917"><ele>247.0</ele><time>2026-04-20T14:30:45.02Z</time></trkpt><trkpt lat="43.3084317" lon="11.3581683"><ele>247.0</ele><time>2026-04-20T14:30:46.019Z</time></trkpt><trkpt lat="43.3083317" lon="11.3582383"><ele>247.0</ele><time>2026-04-20T14:30:47.02Z</time></trkpt><trkpt lat="43.3082383" lon="11.3583117"><ele>247.0</ele><time>2026-04-20T14:30:48.02Z</time></trkpt><trkpt lat="43.3081417" lon="11.3583917"><ele>244.5</ele><time>2026-04-20T14:30:49.02Z</time></trkpt><trkpt lat="43.3080417" lon="11.3584883"><ele>242.0</ele><time>2026-04-20T14:30:50.02Z</time></trkpt><trkpt lat="43.30795" lon="11.3585867"><ele>239.5</ele><time>2026-04-20T14:30:51.02Z</time></trkpt><trkpt lat="43.3078583" lon="11.3586683"><ele>237.0</ele><time>2026-04-20T14:30:52.02Z</time></trkpt><trkpt lat="43.3077733" lon="11.3587817"><ele>237.25</ele><time>2026-04-20T14:30:53.02Z</time></trkpt><trkpt lat="43.30769" lon="11.3588817"><ele>237.5</ele><time>2026-04-20T14:30:54.02Z</time></trkpt><trkpt lat="43.3076067" lon="11.3589833"><ele>237.75</ele><time>2026-04-20T14:30:55.02Z</time></trkpt><trkpt lat="43.30751" lon="11.3591"><ele>238.0</ele><time>2026-04-20T14:30:56.019Z</time></trkpt><trkpt lat="43.3074133" lon="11.359215"><ele>238.0</ele><time>2026-04-20T14:30:57.02Z</time></trkpt><trkpt lat="43.3073033" lon="11.3593417"><ele>238.0</ele><time>2026-04-20T14:30:58.02Z</time></trkpt><trkpt lat="43.3071883" lon="11.35948"><ele>238.0</ele><time>2026-04-20T14:30:59.019Z</time></trkpt><trkpt lat="43.3070817" lon="11.3596217"><ele>238.0</ele><time>2026-04-20T14:31:00.02Z</time></trkpt><trkpt lat="43.3069767" lon="11.3597433"><ele>238.75</ele><time>2026-04-20T14:31:01.02Z</time></trkpt><trkpt lat="43.306875" lon="11.359865"><ele>239.5</ele><time>2026-04-20T14:31:02.02Z</time></trkpt><trkpt lat="43.3067917" lon="11.3599933"><ele>240.25</ele><time>2026-04-20T14:31:03.02Z</time></trkpt><trkpt lat="43.30671" lon="11.36012"><ele>241.0</ele><time>2026-04-20T14:31:04.019Z</time></trkpt><trkpt lat="43.3066433" lon="11.360245"><ele>241.0</ele><time>2026-04-20T14:31:05.02Z</time></trkpt><trkpt lat="43.306565" lon="11.360365"><ele>241.0</ele><time>2026-04-20T14:31:06.019Z</time></trkpt><trkpt lat="43.3064833" lon="11.3604867"><ele>241.0</ele><time>2026-04-20T14:31:07.02Z</time></trkpt><trkpt lat="43.3063967" lon="11.3606017"><ele>241.0</ele><time>2026-04-20T14:31:08.02Z</time></trkpt><trkpt lat="43.3063067" lon="11.36072"><ele>243.75</ele><time>2026-04-20T14:31:09.02Z</time></trkpt><trkpt lat="43.3062183" lon="11.3608417"><ele>246.5</ele><time>2026-04-20T14:31:10.019Z</time></trkpt><trkpt lat="43.3061417" lon="11.3609833"><ele>249.25</ele><time>2026-04-20T14:31:11.02Z</time></trkpt><trkpt lat="43.3060833" lon="11.3611133"><ele>252.0</ele><time>2026-04-20T14:31:12.02Z</time></trkpt><trkpt lat="43.3060267" lon="11.36124"><ele>252.0</ele><time>2026-04-20T14:31:13.02Z</time></trkpt><trkpt lat="43.3059633" lon="11.361355"><ele>252.0</ele><time>2026-04-20T14:31:14.02Z</time></trkpt><trkpt lat="43.3059" lon="11.3614567"><ele>252.0</ele><time>2026-04-20T14:31:15.02Z</time></trkpt><trkpt lat="43.3058283" lon="11.36154"><ele>252.0</ele><time>2026-04-20T14:31:16.019Z</time></trkpt><trkpt lat="43.3057567" lon="11.3616133"><ele>252.0</ele><time>2026-04-20T14:31:17.02Z</time></trkpt><trkpt lat="43.3056717" lon="11.3616633"><ele>251.0</ele><time>2026-04-20T14:31:18.02Z</time></trkpt><trkpt lat="43.305575" lon="11.3616917"><ele>250.0</ele><time>2026-04-20T14:31:19.019Z</time></trkpt><trkpt lat="43.3054783" lon="11.3617167"><ele>249.0</ele><time>2026-04-20T14:31:20.02Z</time></trkpt><trkpt lat="43.30537" lon="11.36174"><ele>248.0</ele><time>2026-04-20T14:31:21.02Z</time></trkpt><trkpt lat="43.30526" lon="11.3617533"><ele>247.0</ele><time>2026-04-20T14:31:22.02Z</time></trkpt><trkpt lat="43.3051633" lon="11.3617583"><ele>246.99999999999997</ele><time>2026-04-20T14:31:23.02Z</time></trkpt><trkpt lat="43.3050633" lon="11.3617817"><ele>247.0</ele><time>2026-04-20T14:31:24.019Z</time></trkpt><trkpt lat="43.3049783" lon="11.3617967"><ele>247.0</ele><time>2026-04-20T14:31:25.02Z</time></trkpt><trkpt lat="43.3048983" lon="11.3618117"><ele>247.0</ele><time>2026-04-20T14:31:26.02Z</time></trkpt><trkpt lat="43.3048317" lon="11.3618317"><ele>246.99999999999997</ele><time>2026-04-20T14:31:27.019Z</time></trkpt><trkpt lat="43.3047633" lon="11.3618383"><ele>247.0</ele><time>2026-04-20T14:31:28.02Z</time></trkpt><trkpt lat="43.3047" lon="11.36184"><ele>245.0</ele><time>2026-04-20T14:31:29.02Z</time></trkpt><trkpt lat="43.3045783" lon="11.3618533"><ele>243.0</ele><time>2026-04-20T14:31:31.019Z</time></trkpt><trkpt lat="43.30445" lon="11.3618767"><ele>241.0</ele><time>2026-04-20T14:31:33.02Z</time></trkpt><trkpt lat="43.304385" lon="11.3619033"><ele>239.0</ele><time>2026-04-20T14:31:34.019Z</time></trkpt><trkpt lat="43.3043183" lon="11.3619483"><ele>237.0</ele><time>2026-04-20T14:31:35.02Z</time></trkpt><trkpt lat="43.3042583" lon="11.361985"><ele>237.0</ele><time>2026-04-20T14:31:36.02Z</time></trkpt><trkpt lat="43.30416" lon="11.3620483"><ele>237.0</ele><time>2026-04-20T14:31:38.02Z</time></trkpt><trkpt lat="43.3040683" lon="11.362135"><ele>237.0</ele><time>2026-04-20T14:31:40.02Z</time></trkpt><trkpt lat="43.30401" lon="11.3621833"><ele>237.0</ele><time>2026-04-20T14:31:41.02Z</time></trkpt><trkpt lat="43.303945" lon="11.362235"><ele>237.0</ele><time>2026-04-20T14:31:42.02Z</time></trkpt><trkpt lat="43.3038583" lon="11.3622983"><ele>238.8</ele><time>2026-04-20T14:31:43.02Z</time></trkpt><trkpt lat="43.30377" lon="11.3623833"><ele>240.6</ele><time>2026-04-20T14:31:44.02Z</time></trkpt><trkpt lat="43.3036883" lon="11.3624733"><ele>242.40000000000003</ele><time>2026-04-20T14:31:45.02Z</time></trkpt><trkpt lat="43.303595" lon="11.362565"><ele>244.20000000000002</ele><time>2026-04-20T14:31:46.02Z</time></trkpt><trkpt lat="43.3035117" lon="11.3626733"><ele>246.0</ele><time>2026-04-20T14:31:47.019Z</time></trkpt><trkpt lat="43.303455" lon="11.362805"><ele>246.0</ele><time>2026-04-20T14:31:48.019Z</time></trkpt><trkpt lat="43.3034167" lon="11.3629383"><ele>246.00000000000003</ele><time>2026-04-20T14:31:49.02Z</time></trkpt><trkpt lat="43.30339" lon="11.3630633"><ele>246.00000000000003</ele><time>2026-04-20T14:31:50.02Z</time></trkpt><trkpt lat="43.303375" lon="11.3632017"><ele>246.0</ele><time>2026-04-20T14:31:51.02Z</time></trkpt><trkpt lat="43.3033617" lon="11.36334"><ele>246.0</ele><time>2026-04-20T14:31:52.02Z</time></trkpt><trkpt lat="43.3033417" lon="11.36347"><ele>246.0</ele><time>2026-04-20T14:31:53.019Z</time></trkpt><trkpt lat="43.3033217" lon="11.363585"><ele>246.0</ele><time>2026-04-20T14:31:54.019Z</time></trkpt><trkpt lat="43.3032933" lon="11.363695"><ele>246.0</ele><time>2026-04-20T14:31:55.02Z</time></trkpt><trkpt lat="43.303245" lon="11.363795"><ele>246.0</ele><time>2026-04-20T14:31:56.019Z</time></trkpt><trkpt lat="43.3031933" lon="11.3638733"><ele>246.0</ele><time>2026-04-20T14:31:57.02Z</time></trkpt><trkpt lat="43.3031267" lon="11.3639317"><ele>246.0</ele><time>2026-04-20T14:31:58.02Z</time></trkpt><trkpt lat="43.3030517" lon="11.3639633"><ele>247.4</ele><time>2026-04-20T14:31:59.02Z</time></trkpt><trkpt lat="43.3029633" lon="11.3639767"><ele>248.8</ele><time>2026-04-20T14:32:00.02Z</time></trkpt><trkpt lat="43.3028667" lon="11.363975"><ele>250.20000000000002</ele><time>2026-04-20T14:32:01.02Z</time></trkpt><trkpt lat="43.3027717" lon="11.3639767"><ele>251.60000000000002</ele><time>2026-04-20T14:32:02.02Z</time></trkpt><trkpt lat="43.3026833" lon="11.3639783"><ele>253.0</ele><time>2026-04-20T14:32:03.019Z</time></trkpt><trkpt lat="43.3025983" lon="11.3639917"><ele>252.99999999999997</ele><time>2026-04-20T14:32:04.019Z</time></trkpt><trkpt lat="43.3025233" lon="11.36402"><ele>253.0</ele><time>2026-04-20T14:32:05.02Z</time></trkpt><trkpt lat="43.3024417" lon="11.3640567"><ele>253.0</ele><time>2026-04-20T14:32:06.02Z</time></trkpt><trkpt lat="43.3023583" lon="11.3641"><ele>253.0</ele><time>2026-04-20T14:32:07.02Z</time></trkpt><trkpt lat="43.3022767" lon="11.36415"><ele>252.99999999999997</ele><time>2026-04-20T14:32:08.02Z</time></trkpt><trkpt lat="43.3021967" lon="11.3641983"><ele>253.0</ele><time>2026-04-20T14:32:09.02Z</time></trkpt><trkpt lat="43.3021217" lon="11.3642533"><ele>251.33333333333331</ele><time>2026-04-20T14:32:10.02Z</time></trkpt><trkpt lat="43.30205" lon="11.3643217"><ele>249.66666666666666</ele><time>2026-04-20T14:32:11.02Z</time></trkpt><trkpt lat="43.3019817" lon="11.3644017"><ele>248.0</ele><time>2026-04-20T14:32:12.02Z</time></trkpt><trkpt lat="43.3019217" lon="11.3644867"><ele>246.33333333333331</ele><time>2026-04-20T14:32:13.02Z</time></trkpt><trkpt lat="43.3018683" lon="11.3645817"><ele>244.66666666666666</ele><time>2026-04-20T14:32:14.019Z</time></trkpt><trkpt lat="43.3018233" lon="11.36469"><ele>243.0</ele><time>2026-04-20T14:32:15.02Z</time></trkpt><trkpt lat="43.30178" lon="11.3648033"><ele>243.0</ele><time>2026-04-20T14:32:16.02Z</time></trkpt><trkpt lat="43.3017483" lon="11.3649167"><ele>243.0</ele><time>2026-04-20T14:32:17.02Z</time></trkpt><trkpt lat="43.3017133" lon="11.3650283"><ele>243.0</ele><time>2026-04-20T14:32:18.02Z</time></trkpt><trkpt lat="43.301665" lon="11.36513"><ele>243.0</ele><time>2026-04-20T14:32:19.02Z</time></trkpt><trkpt lat="43.3016117" lon="11.36522"><ele>243.0</ele><time>2026-04-20T14:32:20.02Z</time></trkpt><trkpt lat="43.30154" lon="11.3652967"><ele>243.0</ele><time>2026-04-20T14:32:21.02Z</time></trkpt><trkpt lat="43.3014533" lon="11.36537"><ele>242.60000000000002</ele><time>2026-04-20T14:32:22.02Z</time></trkpt><trkpt lat="43.3013567" lon="11.3654317"><ele>242.20000000000002</ele><time>2026-04-20T14:32:23.02Z</time></trkpt><trkpt lat="43.3012483" lon="11.3654917"><ele>241.8</ele><time>2026-04-20T14:32:24.02Z</time></trkpt><trkpt lat="43.3011433" lon="11.36555"><ele>241.4</ele><time>2026-04-20T14:32:25.02Z</time></trkpt><trkpt lat="43.3010433" lon="11.3655983"><ele>241.0</ele><time>2026-04-20T14:32:26.019Z</time></trkpt><trkpt lat="43.30095" lon="11.3656567"><ele>241.0</ele><time>2026-04-20T14:32:27.019Z</time></trkpt><trkpt lat="43.3008517" lon="11.36571"><ele>241.00000000000003</ele><time>2026-04-20T14:32:28.02Z</time></trkpt><trkpt lat="43.30075" lon="11.365745"><ele>241.00000000000003</ele><time>2026-04-20T14:32:29.019Z</time></trkpt><trkpt lat="43.30064" lon="11.36576"><ele>241.0</ele><time>2026-04-20T14:32:30.02Z</time></trkpt><trkpt lat="43.30053" lon="11.3657617"><ele>241.0</ele><time>2026-04-20T14:32:31.02Z</time></trkpt><trkpt lat="43.30042" lon="11.3657583"><ele>241.49999999999997</ele><time>2026-04-20T14:32:32.02Z</time></trkpt><trkpt lat="43.3003183" lon="11.36576"><ele>242.0</ele><time>2026-04-20T14:32:33.02Z</time></trkpt><trkpt lat="43.3002233" lon="11.3657667"><ele>242.5</ele><time>2026-04-20T14:32:34.02Z</time></trkpt><trkpt lat="43.3001383" lon="11.3657783"><ele>243.0</ele><time>2026-04-20T14:32:35.02Z</time></trkpt><trkpt lat="43.3000617" lon="11.3658133"><ele>243.49999999999997</ele><time>2026-04-20T14:32:36.02Z</time></trkpt><trkpt lat="43.2999967" lon="11.365865"><ele>244.0</ele><time>2026-04-20T14:32:37.02Z</time></trkpt><trkpt lat="43.29993" lon="11.3659383"><ele>244.0</ele><time>2026-04-20T14:32:38.02Z</time></trkpt><trkpt lat="43.2998517" lon="11.3660133"><ele>243.99999999999997</ele><time>2026-04-20T14:32:39.02Z</time></trkpt><trkpt lat="43.2997883" lon="11.3661017"><ele>243.99999999999997</ele><time>2026-04-20T14:32:40.02Z</time></trkpt><trkpt lat="43.29972" lon="11.3661883"><ele>244.0</ele><time>2026-04-20T14:32:41.02Z</time></trkpt><trkpt lat="43.29965" lon="11.3662933"><ele>244.0</ele><time>2026-04-20T14:32:42.02Z</time></trkpt><trkpt lat="43.299575" lon="11.3663983"><ele>242.25</ele><time>2026-04-20T14:32:43.02Z</time></trkpt><trkpt lat="43.299485" lon="11.3664967"><ele>240.5</ele><time>2026-04-20T14:32:44.02Z</time></trkpt><trkpt lat="43.2993967" lon="11.3666"><ele>238.75</ele><time>2026-04-20T14:32:45.02Z</time></trkpt><trkpt lat="43.2993133" lon="11.3667083"><ele>237.0</ele><time>2026-04-20T14:32:46.02Z</time></trkpt><trkpt lat="43.29923" lon="11.36681"><ele>237.0</ele><time>2026-04-20T14:32:47.02Z</time></trkpt><trkpt lat="43.2991617" lon="11.3669217"><ele>237.0</ele><time>2026-04-20T14:32:48.02Z</time></trkpt><trkpt lat="43.2990883" lon="11.3670383"><ele>237.0</ele><time>2026-04-20T14:32:49.02Z</time></trkpt><trkpt lat="43.29903" lon="11.3671767"><ele>237.0</ele><time>2026-04-20T14:32:50.02Z</time></trkpt><trkpt lat="43.29897" lon="11.3673183"><ele>237.5</ele><time>2026-04-20T14:32:51.019Z</time></trkpt><trkpt lat="43.2989183" lon="11.3674667"><ele>238.0</ele><time>2026-04-20T14:32:52.02Z</time></trkpt><trkpt lat="43.2988667" lon="11.3676"><ele>238.5</ele><time>2026-04-20T14:32:53.019Z</time></trkpt><trkpt lat="43.2988017" lon="11.3677333"><ele>239.0</ele><time>2026-04-20T14:32:54.02Z</time></trkpt><trkpt lat="43.29875" lon="11.3678733"><ele>238.2</ele><time>2026-04-20T14:32:55.019Z</time></trkpt><trkpt lat="43.298695" lon="11.368"><ele>237.39999999999998</ele><time>2026-04-20T14:32:56.019Z</time></trkpt><trkpt lat="43.298645" lon="11.368125"><ele>236.6</ele><time>2026-04-20T14:32:57.02Z</time></trkpt><trkpt lat="43.29858" lon="11.3682317"><ele>235.8</ele><time>2026-04-20T14:32:58.019Z</time></trkpt><trkpt lat="43.2985217" lon="11.36833"><ele>235.0</ele><time>2026-04-20T14:32:59.02Z</time></trkpt><trkpt lat="43.2984483" lon="11.368405"><ele>235.0</ele><time>2026-04-20T14:33:00.02Z</time></trkpt><trkpt lat="43.2983617" lon="11.3684617"><ele>235.0</ele><time>2026-04-20T14:33:01.02Z</time></trkpt><trkpt lat="43.29826" lon="11.3684967"><ele>235.0</ele><time>2026-04-20T14:33:02.02Z</time></trkpt><trkpt lat="43.2981567" lon="11.3685167"><ele>235.0</ele><time>2026-04-20T14:33:03.02Z</time></trkpt><trkpt lat="43.2980583" lon="11.3685283"><ele>235.0</ele><time>2026-04-20T14:33:04.02Z</time></trkpt><trkpt lat="43.2979683" lon="11.36854"><ele>235.6</ele><time>2026-04-20T14:33:05.02Z</time></trkpt><trkpt lat="43.2978817" lon="11.3685283"><ele>236.2</ele><time>2026-04-20T14:33:06.02Z</time></trkpt><trkpt lat="43.2977967" lon="11.3685033"><ele>236.8</ele><time>2026-04-20T14:33:07.02Z</time></trkpt><trkpt lat="43.2977133" lon="11.3684583"><ele>237.4</ele><time>2026-04-20T14:33:08.02Z</time></trkpt><trkpt lat="43.2976267" lon="11.3684133"><ele>238.0</ele><time>2026-04-20T14:33:09.02Z</time></trkpt><trkpt lat="43.2975367" lon="11.368365"><ele>238.0</ele><time>2026-04-20T14:33:10.02Z</time></trkpt><trkpt lat="43.2974467" lon="11.3683267"><ele>238.0</ele><time>2026-04-20T14:33:11.02Z</time></trkpt><trkpt lat="43.29735" lon="11.3682733"><ele>238.0</ele><time>2026-04-20T14:33:12.02Z</time></trkpt><trkpt lat="43.2972567" lon="11.368225"><ele>238.0</ele><time>2026-04-20T14:33:13.02Z</time></trkpt><trkpt lat="43.2971533" lon="11.3681783"><ele>238.0</ele><time>2026-04-20T14:33:14.02Z</time></trkpt><trkpt lat="43.29705" lon="11.3681367"><ele>237.4</ele><time>2026-04-20T14:33:15.019Z</time></trkpt><trkpt lat="43.29695" lon="11.3681017"><ele>236.8</ele><time>2026-04-20T14:33:16.02Z</time></trkpt><trkpt lat="43.2968483" lon="11.3680733"><ele>236.2</ele><time>2026-04-20T14:33:17.02Z</time></trkpt><trkpt lat="43.296735" lon="11.3680517"><ele>235.6</ele><time>2026-04-20T14:33:18.02Z</time></trkpt><trkpt lat="43.2966283" lon="11.3680517"><ele>235.0</ele><time>2026-04-20T14:33:19.02Z</time></trkpt><trkpt lat="43.296515" lon="11.3680533"><ele>237.0</ele><time>2026-04-20T14:33:20.019Z</time></trkpt><trkpt lat="43.29641" lon="11.368065"><ele>239.0</ele><time>2026-04-20T14:33:21.02Z</time></trkpt><trkpt lat="43.2963033" lon="11.3680767"><ele>241.0</ele><time>2026-04-20T14:33:22.02Z</time></trkpt><trkpt lat="43.2962067" lon="11.3681"><ele>243.0</ele><time>2026-04-20T14:33:23.02Z</time></trkpt><trkpt lat="43.296115" lon="11.3681383"><ele>245.0</ele><time>2026-04-20T14:33:24.02Z</time></trkpt><trkpt lat="43.2960267" lon="11.368175"><ele>245.00000000000003</ele><time>2026-04-20T14:33:25.02Z</time></trkpt><trkpt lat="43.29593" lon="11.3682183"><ele>245.0</ele><time>2026-04-20T14:33:26.02Z</time></trkpt><trkpt lat="43.2958433" lon="11.3682633"><ele>245.0</ele><time>2026-04-20T14:33:27.02Z</time></trkpt><trkpt lat="43.2957617" lon="11.3682883"><ele>245.0</ele><time>2026-04-20T14:33:28.02Z</time></trkpt><trkpt lat="43.29569" lon="11.3683067"><ele>245.00000000000003</ele><time>2026-04-20T14:33:29.02Z</time></trkpt><trkpt lat="43.2956167" lon="11.36831"><ele>245.0</ele><time>2026-04-20T14:33:30.02Z</time></trkpt><trkpt lat="43.2955433" lon="11.368315"><ele>243.83333333333334</ele><time>2026-04-20T14:33:31.019Z</time></trkpt><trkpt lat="43.2954733" lon="11.36833"><ele>242.66666666666669</ele><time>2026-04-20T14:33:32.02Z</time></trkpt><trkpt lat="43.295405" lon="11.3683483"><ele>241.5</ele><time>2026-04-20T14:33:33.02Z</time></trkpt><trkpt lat="43.2953383" lon="11.3683667"><ele>240.33333333333331</ele><time>2026-04-20T14:33:34.02Z</time></trkpt><trkpt lat="43.2952717" lon="11.3684067"><ele>239.16666666666666</ele><time>2026-04-20T14:33:35.02Z</time></trkpt><trkpt lat="43.2951933" lon="11.3684533"><ele>238.0</ele><time>2026-04-20T14:33:36.02Z</time></trkpt><trkpt lat="43.2951217" lon="11.3685117"><ele>238.0</ele><time>2026-04-20T14:33:37.02Z</time></trkpt><trkpt lat="43.29505" lon="11.3685833"><ele>238.0</ele><time>2026-04-20T14:33:38.02Z</time></trkpt><trkpt lat="43.294985" lon="11.3686817"><ele>238.0</ele><time>2026-04-20T14:33:39.02Z</time></trkpt><trkpt lat="43.2949183" lon="11.3688017"><ele>238.0</ele><time>2026-04-20T14:33:40.019Z</time></trkpt><trkpt lat="43.2948567" lon="11.3689233"><ele>238.0</ele><time>2026-04-20T14:33:41.019Z</time></trkpt><trkpt lat="43.2947933" lon="11.3690317"><ele>236.0</ele><time>2026-04-20T14:33:42.02Z</time></trkpt><trkpt lat="43.2947167" lon="11.3691317"><ele>234.0</ele><time>2026-04-20T14:33:43.02Z</time></trkpt><trkpt lat="43.29462" lon="11.3692167"><ele>232.0</ele><time>2026-04-20T14:33:44.02Z</time></trkpt><trkpt lat="43.29452" lon="11.3692883"><ele>230.0</ele><time>2026-04-20T14:33:45.02Z</time></trkpt><trkpt lat="43.294415" lon="11.3693583"><ele>230.0</ele><time>2026-04-20T14:33:46.02Z</time></trkpt><trkpt lat="43.2943067" lon="11.36943"><ele>230.0</ele><time>2026-04-20T14:33:47.02Z</time></trkpt><trkpt lat="43.2941967" lon="11.369505"><ele>230.0</ele><time>2026-04-20T14:33:48.02Z</time></trkpt><trkpt lat="43.2940733" lon="11.3695833"><ele>230.0</ele><time>2026-04-20T14:33:49.02Z</time></trkpt><trkpt lat="43.293955" lon="11.36966"><ele>228.75</ele><time>2026-04-20T14:33:50.02Z</time></trkpt><trkpt lat="43.29384" lon="11.369735"><ele>227.5</ele><time>2026-04-20T14:33:51.02Z</time></trkpt><trkpt lat="43.2937217" lon="11.3698017"><ele>226.25</ele><time>2026-04-20T14:33:52.019Z</time></trkpt><trkpt lat="43.2936067" lon="11.369865"><ele>225.0</ele><time>2026-04-20T14:33:53.02Z</time></trkpt><trkpt lat="43.2934983" lon="11.36992"><ele>225.0</ele><time>2026-04-20T14:33:54.02Z</time></trkpt><trkpt lat="43.2933817" lon="11.3699667"><ele>225.0</ele><time>2026-04-20T14:33:55.019Z</time></trkpt><trkpt lat="43.29326" lon="11.3700067"><ele>225.0</ele><time>2026-04-20T14:33:56.02Z</time></trkpt><trkpt lat="43.2931383" lon="11.370045"><ele>225.0</ele><time>2026-04-20T14:33:57.02Z</time></trkpt><trkpt lat="43.2930167" lon="11.3700733"><ele>224.25</ele><time>2026-04-20T14:33:58.02Z</time></trkpt><trkpt lat="43.2928917" lon="11.3700833"><ele>223.5</ele><time>2026-04-20T14:33:59.02Z</time></trkpt><trkpt lat="43.2927617" lon="11.370085"><ele>222.75</ele><time>2026-04-20T14:34:00.02Z</time></trkpt><trkpt lat="43.29264" lon="11.3700867"><ele>222.0</ele><time>2026-04-20T14:34:01.019Z</time></trkpt><trkpt lat="43.2925017" lon="11.3700883"><ele>222.0</ele><time>2026-04-20T14:34:02.02Z</time></trkpt><trkpt lat="43.2923633" lon="11.3700867"><ele>222.0</ele><time>2026-04-20T14:34:03.02Z</time></trkpt><trkpt lat="43.2922233" lon="11.3700833"><ele>222.0</ele><time>2026-04-20T14:34:04.02Z</time></trkpt><trkpt lat="43.2920867" lon="11.3700883"><ele>222.0</ele><time>2026-04-20T14:34:05.02Z</time></trkpt><trkpt lat="43.2919583" lon="11.3700983"><ele>222.25</ele><time>2026-04-20T14:34:06.02Z</time></trkpt><trkpt lat="43.2918317" lon="11.3701217"><ele>222.5</ele><time>2026-04-20T14:34:07.02Z</time></trkpt><trkpt lat="43.29171" lon="11.3701633"><ele>222.75</ele><time>2026-04-20T14:34:08.02Z</time></trkpt><trkpt lat="43.291595" lon="11.3702167"><ele>223.0</ele><time>2026-04-20T14:34:09.02Z</time></trkpt><trkpt lat="43.291485" lon="11.3702867"><ele>223.5</ele><time>2026-04-20T14:34:10.02Z</time></trkpt><trkpt lat="43.2913783" lon="11.3703617"><ele>224.0</ele><time>2026-04-20T14:34:11.02Z</time></trkpt><trkpt lat="43.29127" lon="11.3704317"><ele>224.5</ele><time>2026-04-20T14:34:12.02Z</time></trkpt><trkpt lat="43.2911667" lon="11.3705"><ele>225.0</ele><time>2026-04-20T14:34:13.02Z</time></trkpt><trkpt lat="43.2910633" lon="11.3705583"><ele>225.0</ele><time>2026-04-20T14:34:14.019Z</time></trkpt><trkpt lat="43.2909567" lon="11.3706083"><ele>225.0</ele><time>2026-04-20T14:34:15.02Z</time></trkpt><trkpt lat="43.2908517" lon="11.3706467"><ele>225.0</ele><time>2026-04-20T14:34:16.02Z</time></trkpt><trkpt lat="43.2907467" lon="11.3706867"><ele>225.0</ele><time>2026-04-20T14:34:17.02Z</time></trkpt><trkpt lat="43.29066" lon="11.3707417"><ele>225.0</ele><time>2026-04-20T14:34:18.02Z</time></trkpt><trkpt lat="43.2905817" lon="11.3708117"><ele>224.33333333333334</ele><time>2026-04-20T14:34:19.02Z</time></trkpt><trkpt lat="43.290515" lon="11.3708883"><ele>223.66666666666669</ele><time>2026-04-20T14:34:20.02Z</time></trkpt><trkpt lat="43.29045" lon="11.3709733"><ele>223.0</ele><time>2026-04-20T14:34:21.019Z</time></trkpt><trkpt lat="43.29039" lon="11.371055"><ele>222.33333333333334</ele><time>2026-04-20T14:34:22.019Z</time></trkpt><trkpt lat="43.29035" lon="11.3711533"><ele>221.66666666666669</ele><time>2026-04-20T14:34:23.02Z</time></trkpt><trkpt lat="43.2903083" lon="11.3712467"><ele>221.0</ele><time>2026-04-20T14:34:24.02Z</time></trkpt><trkpt lat="43.29026" lon="11.37133"><ele>221.57142857142858</ele><time>2026-04-20T14:34:25.02Z</time></trkpt><trkpt lat="43.2902" lon="11.3714017"><ele>222.14285714285717</ele><time>2026-04-20T14:34:26.02Z</time></trkpt><trkpt lat="43.2901383" lon="11.3714567"><ele>222.71428571428572</ele><time>2026-04-20T14:34:27.02Z</time></trkpt><trkpt lat="43.2900683" lon="11.37151"><ele>223.2857142857143</ele><time>2026-04-20T14:34:28.019Z</time></trkpt><trkpt lat="43.2900017" lon="11.3715733"><ele>223.85714285714286</ele><time>2026-04-20T14:34:29.02Z</time></trkpt><trkpt lat="43.2899533" lon="11.37164"><ele>224.42857142857147</ele><time>2026-04-20T14:34:30.02Z</time></trkpt><trkpt lat="43.2899167" lon="11.3717167"><ele>225.00000000000003</ele><time>2026-04-20T14:34:31.02Z</time></trkpt><trkpt lat="43.2899083" lon="11.371805"><ele>225.0</ele><time>2026-04-20T14:34:32.02Z</time></trkpt><trkpt lat="43.2899033" lon="11.3718967"><ele>225.0</ele><time>2026-04-20T14:34:33.02Z</time></trkpt><trkpt lat="43.2898767" lon="11.3720567"><ele>225.0</ele><time>2026-04-20T14:34:35.02Z</time></trkpt><trkpt lat="43.289785" lon="11.372165"><ele>225.0</ele><time>2026-04-20T14:34:37.02Z</time></trkpt><trkpt lat="43.28972" lon="11.3722067"><ele>225.0</ele><time>2026-04-20T14:34:38.019Z</time></trkpt><trkpt lat="43.2896517" lon="11.3722367"><ele>223.8571428571429</ele><time>2026-04-20T14:34:39.02Z</time></trkpt><trkpt lat="43.2895783" lon="11.37227"><ele>222.71428571428572</ele><time>2026-04-20T14:34:40.019Z</time></trkpt><trkpt lat="43.28951" lon="11.3723117"><ele>221.57142857142858</ele><time>2026-04-20T14:34:41.019Z</time></trkpt><trkpt lat="43.2894367" lon="11.37235"><ele>220.42857142857144</ele><time>2026-04-20T14:34:42.02Z</time></trkpt><trkpt lat="43.28937" lon="11.372385"><ele>219.28571428571428</ele><time>2026-04-20T14:34:43.02Z</time></trkpt><trkpt lat="43.2893083" lon="11.3724133"><ele>218.14285714285714</ele><time>2026-04-20T14:34:44.019Z</time></trkpt><trkpt lat="43.2892467" lon="11.37245"><ele>217.0</ele><time>2026-04-20T14:34:45.02Z</time></trkpt><trkpt lat="43.2891883" lon="11.3725083"><ele>216.99999999999997</ele><time>2026-04-20T14:34:46.02Z</time></trkpt><trkpt lat="43.2891417" lon="11.3725867"><ele>217.0</ele><time>2026-04-20T14:34:47.02Z</time></trkpt><trkpt lat="43.28911" lon="11.37268"><ele>217.0</ele><time>2026-04-20T14:34:48.019Z</time></trkpt><trkpt lat="43.289095" lon="11.3727833"><ele>217.0</ele><time>2026-04-20T14:34:49.02Z</time></trkpt><trkpt lat="43.2890917" lon="11.3728983"><ele>216.99999999999997</ele><time>2026-04-20T14:34:50.02Z</time></trkpt><trkpt lat="43.28909" lon="11.3730183"><ele>217.0</ele><time>2026-04-20T14:34:51.019Z</time></trkpt><trkpt lat="43.289085" lon="11.37314"><ele>215.6</ele><time>2026-04-20T14:34:52.02Z</time></trkpt><trkpt lat="43.2890867" lon="11.3732667"><ele>214.2</ele><time>2026-04-20T14:34:53.02Z</time></trkpt><trkpt lat="43.2890867" lon="11.3733917"><ele>212.8</ele><time>2026-04-20T14:34:54.019Z</time></trkpt><trkpt lat="43.289085" lon="11.373515"><ele>211.4</ele><time>2026-04-20T14:34:55.02Z</time></trkpt><trkpt lat="43.2890867" lon="11.3736367"><ele>210.0</ele><time>2026-04-20T14:34:56.02Z</time></trkpt><trkpt lat="43.28909" lon="11.3737617"><ele>208.4</ele><time>2026-04-20T14:34:57.019Z</time></trkpt><trkpt lat="43.2891" lon="11.3738883"><ele>206.8</ele><time>2026-04-20T14:34:58.02Z</time></trkpt><trkpt lat="43.2891083" lon="11.3740183"><ele>205.2</ele><time>2026-04-20T14:34:59.02Z</time></trkpt><trkpt lat="43.2891117" lon="11.374155"><ele>203.6</ele><time>2026-04-20T14:35:00.02Z</time></trkpt><trkpt lat="43.2891167" lon="11.3742917"><ele>202.0</ele><time>2026-04-20T14:35:01.02Z</time></trkpt><trkpt lat="43.2891233" lon="11.3744367"><ele>202.0</ele><time>2026-04-20T14:35:02.02Z</time></trkpt><trkpt lat="43.2891317" lon="11.3745833"><ele>202.0</ele><time>2026-04-20T14:35:03.019Z</time></trkpt><trkpt lat="43.28914" lon="11.37473"><ele>202.0</ele><time>2026-04-20T14:35:04.02Z</time></trkpt><trkpt lat="43.2891433" lon="11.37489"><ele>202.0</ele><time>2026-04-20T14:35:05.019Z</time></trkpt><trkpt lat="43.2891483" lon="11.3750467"><ele>202.0</ele><time>2026-04-20T14:35:06.02Z</time></trkpt><trkpt lat="43.28915" lon="11.3752067"><ele>200.39999999999998</ele><time>2026-04-20T14:35:07.02Z</time></trkpt><trkpt lat="43.2891533" lon="11.3753583"><ele>198.79999999999998</ele><time>2026-04-20T14:35:08.019Z</time></trkpt><trkpt lat="43.2891583" lon="11.37551"><ele>197.2</ele><time>2026-04-20T14:35:09.02Z</time></trkpt><trkpt lat="43.28916" lon="11.3756567"><ele>195.6</ele><time>2026-04-20T14:35:10.019Z</time></trkpt><trkpt lat="43.2891583" lon="11.3758"><ele>194.0</ele><time>2026-04-20T14:35:11.02Z</time></trkpt><trkpt lat="43.2891517" lon="11.3759417"><ele>192.39999999999998</ele><time>2026-04-20T14:35:12.02Z</time></trkpt><trkpt lat="43.28915" lon="11.3760767"><ele>190.8</ele><time>2026-04-20T14:35:13.02Z</time></trkpt><trkpt lat="43.28915" lon="11.3762083"><ele>189.2</ele><time>2026-04-20T14:35:14.02Z</time></trkpt><trkpt lat="43.2891567" lon="11.376335"><ele>187.60000000000002</ele><time>2026-04-20T14:35:15.019Z</time></trkpt><trkpt lat="43.289165" lon="11.3764667"><ele>186.0</ele><time>2026-04-20T14:35:16.019Z</time></trkpt><trkpt lat="43.289175" lon="11.376595"><ele>185.8</ele><time>2026-04-20T14:35:17.018Z</time></trkpt><trkpt lat="43.2891933" lon="11.3767333"><ele>185.60000000000002</ele><time>2026-04-20T14:35:18.019Z</time></trkpt><trkpt lat="43.289205" lon="11.3768767"><ele>185.4</ele><time>2026-04-20T14:35:19.019Z</time></trkpt><trkpt lat="43.2892217" lon="11.3770083"><ele>185.2</ele><time>2026-04-20T14:35:20.019Z</time></trkpt><trkpt lat="43.2892317" lon="11.37715"><ele>185.0</ele><time>2026-04-20T14:35:21.019Z</time></trkpt><trkpt lat="43.289235" lon="11.377305"><ele>185.0</ele><time>2026-04-20T14:35:22.019Z</time></trkpt><trkpt lat="43.2892467" lon="11.37745"><ele>185.0</ele><time>2026-04-20T14:35:23.018Z</time></trkpt><trkpt lat="43.2892533" lon="11.3775767"><ele>185.0</ele><time>2026-04-20T14:35:24.019Z</time></trkpt><trkpt lat="43.289245" lon="11.377695"><ele>185.0</ele><time>2026-04-20T14:35:25.019Z</time></trkpt><trkpt lat="43.28922" lon="11.3777883"><ele>185.0</ele><time>2026-04-20T14:35:26.019Z</time></trkpt><trkpt lat="43.289185" lon="11.3778617"><ele>185.0</ele><time>2026-04-20T14:35:27.019Z</time></trkpt><trkpt lat="43.2890817" lon="11.37795"><ele>185.0</ele><time>2026-04-20T14:35:29.019Z</time></trkpt><trkpt lat="43.28902" lon="11.3779867"><ele>185.0</ele><time>2026-04-20T14:35:30.019Z</time></trkpt><trkpt lat="43.288945" lon="11.37802"><ele>185.0</ele><time>2026-04-20T14:35:31.019Z</time></trkpt><trkpt lat="43.2888633" lon="11.3780567"><ele>185.0</ele><time>2026-04-20T14:35:32.019Z</time></trkpt><trkpt lat="43.2887817" lon="11.3781017"><ele>185.0</ele><time>2026-04-20T14:35:33.019Z</time></trkpt><trkpt lat="43.2886967" lon="11.3781417"><ele>185.0</ele><time>2026-04-20T14:35:34.019Z</time></trkpt><trkpt lat="43.2886083" lon="11.37819"><ele>187.16666666666666</ele><time>2026-04-20T14:35:35.019Z</time></trkpt><trkpt lat="43.2885317" lon="11.378245"><ele>189.33333333333331</ele><time>2026-04-20T14:35:36.019Z</time></trkpt><trkpt lat="43.2884467" lon="11.3783"><ele>191.5</ele><time>2026-04-20T14:35:37.018Z</time></trkpt><trkpt lat="43.2883717" lon="11.3783667"><ele>193.66666666666666</ele><time>2026-04-20T14:35:38.019Z</time></trkpt><trkpt lat="43.28831" lon="11.3784433"><ele>195.83333333333334</ele><time>2026-04-20T14:35:39.019Z</time></trkpt><trkpt lat="43.2882467" lon="11.3785117"><ele>198.0</ele><time>2026-04-20T14:35:40.019Z</time></trkpt><trkpt lat="43.2881917" lon="11.3785867"><ele>198.0</ele><time>2026-04-20T14:35:41.018Z</time></trkpt><trkpt lat="43.2881" lon="11.3786967"><ele>198.0</ele><time>2026-04-20T14:35:43.018Z</time></trkpt><trkpt lat="43.28803" lon="11.3788267"><ele>198.0</ele><time>2026-04-20T14:35:45.019Z</time></trkpt><trkpt lat="43.287995" lon="11.3789767"><ele>198.0</ele><time>2026-04-20T14:35:47.019Z</time></trkpt><trkpt lat="43.2880083" lon="11.3791417"><ele>198.33333333333334</ele><time>2026-04-20T14:35:49.019Z</time></trkpt><trkpt lat="43.2880083" lon="11.3792317"><ele>198.66666666666669</ele><time>2026-04-20T14:35:50.019Z</time></trkpt><trkpt lat="43.288015" lon="11.3793517"><ele>199.0</ele><time>2026-04-20T14:35:52.019Z</time></trkpt><trkpt lat="43.2879917" lon="11.3794567"><ele>199.33333333333334</ele><time>2026-04-20T14:35:55.018Z</time></trkpt><trkpt lat="43.2879283" lon="11.3795283"><ele>199.66666666666669</ele><time>2026-04-20T14:35:57.018Z</time></trkpt><trkpt lat="43.2878717" lon="11.37957"><ele>200.0</ele><time>2026-04-20T14:35:58.019Z</time></trkpt><trkpt lat="43.287785" lon="11.3796217"><ele>200.0</ele><time>2026-04-20T14:35:59.019Z</time></trkpt><trkpt lat="43.287695" lon="11.3796667"><ele>200.0</ele><time>2026-04-20T14:36:00.019Z</time></trkpt><trkpt lat="43.28761" lon="11.3797183"><ele>200.0</ele><time>2026-04-20T14:36:01.019Z</time></trkpt><trkpt lat="43.2875117" lon="11.3797633"><ele>200.0</ele><time>2026-04-20T14:36:02.019Z</time></trkpt><trkpt lat="43.287425" lon="11.379805"><ele>200.0</ele><time>2026-04-20T14:36:03.019Z</time></trkpt><trkpt lat="43.2873417" lon="11.3798467"><ele>199.16666666666669</ele><time>2026-04-20T14:36:04.019Z</time></trkpt><trkpt lat="43.2872533" lon="11.3798683"><ele>198.33333333333334</ele><time>2026-04-20T14:36:05.018Z</time></trkpt><trkpt lat="43.2871617" lon="11.3798883"><ele>197.5</ele><time>2026-04-20T14:36:06.018Z</time></trkpt><trkpt lat="43.2870733" lon="11.37989"><ele>196.66666666666669</ele><time>2026-04-20T14:36:07.018Z</time></trkpt><trkpt lat="43.2869967" lon="11.3798833"><ele>195.83333333333334</ele><time>2026-04-20T14:36:08.019Z</time></trkpt><trkpt lat="43.2869267" lon="11.37987"><ele>195.0</ele><time>2026-04-20T14:36:09.019Z</time></trkpt><trkpt lat="43.2868583" lon="11.37986"><ele>195.0</ele><time>2026-04-20T14:36:10.019Z</time></trkpt><trkpt lat="43.2867933" lon="11.379845"><ele>195.0</ele><time>2026-04-20T14:36:11.019Z</time></trkpt><trkpt lat="43.2866817" lon="11.3798133"><ele>195.0</ele><time>2026-04-20T14:36:13.019Z</time></trkpt><trkpt lat="43.28659" lon="11.3797783"><ele>195.0</ele><time>2026-04-20T14:36:15.019Z</time></trkpt><trkpt lat="43.2864933" lon="11.3797483"><ele>195.0</ele><time>2026-04-20T14:36:17.019Z</time></trkpt><trkpt lat="43.2863933" lon="11.379705"><ele>195.4</ele><time>2026-04-20T14:36:19.018Z</time></trkpt><trkpt lat="43.2862883" lon="11.3796483"><ele>195.8</ele><time>2026-04-20T14:36:21.019Z</time></trkpt><trkpt lat="43.2861733" lon="11.3795833"><ele>196.2</ele><time>2026-04-20T14:36:23.019Z</time></trkpt><trkpt lat="43.2861167" lon="11.3795433"><ele>196.6</ele><time>2026-04-20T14:36:24.019Z</time></trkpt><trkpt lat="43.2860167" lon="11.3794767"><ele>197.0</ele><time>2026-04-20T14:36:26.019Z</time></trkpt><trkpt lat="43.2859283" lon="11.37942"><ele>197.0</ele><time>2026-04-20T14:36:28.019Z</time></trkpt><trkpt lat="43.2858567" lon="11.37937"><ele>197.0</ele><time>2026-04-20T14:36:30.019Z</time></trkpt><trkpt lat="43.285785" lon="11.3793217"><ele>197.0</ele><time>2026-04-20T14:36:33.019Z</time></trkpt><trkpt lat="43.28573" lon="11.3792783"><ele>197.0</ele><time>2026-04-20T14:36:35.019Z</time></trkpt><trkpt lat="43.2856383" lon="11.37921"><ele>197.0</ele><time>2026-04-20T14:36:37.018Z</time></trkpt><trkpt lat="43.2855233" lon="11.3791483"><ele>196.39999999999998</ele><time>2026-04-20T14:36:39.019Z</time></trkpt><trkpt lat="43.2854533" lon="11.379115"><ele>195.79999999999998</ele><time>2026-04-20T14:36:40.019Z</time></trkpt><trkpt lat="43.2853633" lon="11.379075"><ele>195.2</ele><time>2026-04-20T14:36:41.019Z</time></trkpt><trkpt lat="43.28527" lon="11.3790417"><ele>194.6</ele><time>2026-04-20T14:36:42.019Z</time></trkpt><trkpt lat="43.2851767" lon="11.3790167"><ele>194.0</ele><time>2026-04-20T14:36:43.019Z</time></trkpt><trkpt lat="43.2850733" lon="11.3790067"><ele>194.0</ele><time>2026-04-20T14:36:44.019Z</time></trkpt><trkpt lat="43.2849533" lon="11.3789933"><ele>194.0</ele><time>2026-04-20T14:36:45.019Z</time></trkpt><trkpt lat="43.2848283" lon="11.378985"><ele>194.0</ele><time>2026-04-20T14:36:46.018Z</time></trkpt><trkpt lat="43.284705" lon="11.3789717"><ele>194.0</ele><time>2026-04-20T14:36:47.019Z</time></trkpt><trkpt lat="43.2845817" lon="11.3789633"><ele>193.79999999999998</ele><time>2026-04-20T14:36:48.019Z</time></trkpt><trkpt lat="43.28447" lon="11.3789417"><ele>193.6</ele><time>2026-04-20T14:36:49.019Z</time></trkpt><trkpt lat="43.28436" lon="11.378915"><ele>193.4</ele><time>2026-04-20T14:36:50.019Z</time></trkpt><trkpt lat="43.2842533" lon="11.3788617"><ele>193.2</ele><time>2026-04-20T14:36:51.018Z</time></trkpt><trkpt lat="43.2841583" lon="11.37879"><ele>193.0</ele><time>2026-04-20T14:36:52.019Z</time></trkpt><trkpt lat="43.28407" lon="11.378695"><ele>191.8</ele><time>2026-04-20T14:36:53.019Z</time></trkpt><trkpt lat="43.2840033" lon="11.378585"><ele>190.60000000000002</ele><time>2026-04-20T14:36:54.019Z</time></trkpt><trkpt lat="43.2839433" lon="11.378455"><ele>189.39999999999998</ele><time>2026-04-20T14:36:55.018Z</time></trkpt><trkpt lat="43.283885" lon="11.3783217"><ele>188.2</ele><time>2026-04-20T14:36:56.018Z</time></trkpt><trkpt lat="43.2838267" lon="11.3781883"><ele>187.0</ele><time>2026-04-20T14:36:57.019Z</time></trkpt><trkpt lat="43.2837583" lon="11.3780733"><ele>185.39999999999998</ele><time>2026-04-20T14:36:58.018Z</time></trkpt><trkpt lat="43.2836833" lon="11.37798"><ele>183.79999999999998</ele><time>2026-04-20T14:36:59.019Z</time></trkpt><trkpt lat="43.2835967" lon="11.3779017"><ele>182.2</ele><time>2026-04-20T14:37:00.019Z</time></trkpt><trkpt lat="43.2835" lon="11.3778467"><ele>180.6</ele><time>2026-04-20T14:37:01.019Z</time></trkpt><trkpt lat="43.2833983" lon="11.37781"><ele>179.0</ele><time>2026-04-20T14:37:02.019Z</time></trkpt><trkpt lat="43.2832917" lon="11.3777967"><ele>179.0</ele><time>2026-04-20T14:37:03.019Z</time></trkpt><trkpt lat="43.2831767" lon="11.3777917"><ele>179.0</ele><time>2026-04-20T14:37:04.019Z</time></trkpt><trkpt lat="43.2830633" lon="11.3778033"><ele>179.0</ele><time>2026-04-20T14:37:05.019Z</time></trkpt><trkpt lat="43.2829633" lon="11.3778367"><ele>179.0</ele><time>2026-04-20T14:37:06.019Z</time></trkpt><trkpt lat="43.2828683" lon="11.377865"><ele>179.0</ele><time>2026-04-20T14:37:07.019Z</time></trkpt><trkpt lat="43.2827767" lon="11.3778917"><ele>178.83333333333331</ele><time>2026-04-20T14:37:08.019Z</time></trkpt><trkpt lat="43.282695" lon="11.37792"><ele>178.66666666666666</ele><time>2026-04-20T14:37:09.019Z</time></trkpt><trkpt lat="43.28262" lon="11.37794"><ele>178.5</ele><time>2026-04-20T14:37:10.019Z</time></trkpt><trkpt lat="43.2825517" lon="11.3779517"><ele>178.33333333333334</ele><time>2026-04-20T14:37:11.018Z</time></trkpt><trkpt lat="43.28245" lon="11.3779517"><ele>178.16666666666669</ele><time>2026-04-20T14:37:13.018Z</time></trkpt><trkpt lat="43.2823517" lon="11.3779183"><ele>178.0</ele><time>2026-04-20T14:37:15.019Z</time></trkpt><trkpt lat="43.28223" lon="11.3778417"><ele>177.83333333333334</ele><time>2026-04-20T14:37:17.018Z</time></trkpt><trkpt lat="43.2821683" lon="11.3777833"><ele>177.66666666666669</ele><time>2026-04-20T14:37:18.019Z</time></trkpt><trkpt lat="43.2821183" lon="11.3777183"><ele>177.5</ele><time>2026-04-20T14:37:19.018Z</time></trkpt><trkpt lat="43.282045" lon="11.37759"><ele>177.33333333333334</ele><time>2026-04-20T14:37:21.019Z</time></trkpt><trkpt lat="43.2820133" lon="11.37748"><ele>177.16666666666666</ele><time>2026-04-20T14:37:23.019Z</time></trkpt><trkpt lat="43.281985" lon="11.3773667"><ele>177.0</ele><time>2026-04-20T14:37:26.019Z</time></trkpt><trkpt lat="43.2819517" lon="11.3772417"><ele>176.6</ele><time>2026-04-20T14:37:28.019Z</time></trkpt><trkpt lat="43.28192" lon="11.3771117"><ele>176.2</ele><time>2026-04-20T14:37:30.019Z</time></trkpt><trkpt lat="43.2819017" lon="11.3770133"><ele>175.8</ele><time>2026-04-20T14:37:32.019Z</time></trkpt><trkpt lat="43.2818783" lon="11.3768883"><ele>175.4</ele><time>2026-04-20T14:37:34.018Z</time></trkpt><trkpt lat="43.2818583" lon="11.37676"><ele>175.0</ele><time>2026-04-20T14:37:36.019Z</time></trkpt><trkpt lat="43.2818933" lon="11.37661"><ele>175.0</ele><time>2026-04-20T14:37:38.019Z</time></trkpt><trkpt lat="43.28192" lon="11.3765217"><ele>175.0</ele><time>2026-04-20T14:37:39.019Z</time></trkpt><trkpt lat="43.2819517" lon="11.37643"><ele>175.0</ele><time>2026-04-20T14:37:40.019Z</time></trkpt><trkpt lat="43.2819617" lon="11.3763283"><ele>175.0</ele><time>2026-04-20T14:37:41.019Z</time></trkpt><trkpt lat="43.2819467" lon="11.3762233"><ele>175.0</ele><time>2026-04-20T14:37:42.019Z</time></trkpt><trkpt lat="43.2819067" lon="11.3761217"><ele>175.0</ele><time>2026-04-20T14:37:43.019Z</time></trkpt><trkpt lat="43.2818417" lon="11.3760317"><ele>175.4</ele><time>2026-04-20T14:37:44.019Z</time></trkpt><trkpt lat="43.281755" lon="11.3759533"><ele>175.8</ele><time>2026-04-20T14:37:45.019Z</time></trkpt><trkpt lat="43.2816867" lon="11.3758717"><ele>176.2</ele><time>2026-04-20T14:37:46.019Z</time></trkpt><trkpt lat="43.281625" lon="11.3757667"><ele>176.6</ele><time>2026-04-20T14:37:47.019Z</time></trkpt><trkpt lat="43.28158" lon="11.3756417"><ele>177.0</ele><time>2026-04-20T14:37:48.019Z</time></trkpt><trkpt lat="43.2815583" lon="11.3754917"><ele>178.25</ele><time>2026-04-20T14:37:49.019Z</time></trkpt><trkpt lat="43.281545" lon="11.37533"><ele>179.5</ele><time>2026-04-20T14:37:50.018Z</time></trkpt><trkpt lat="43.2815417" lon="11.3751667"><ele>180.75</ele><time>2026-04-20T14:37:51.018Z</time></trkpt><trkpt lat="43.2815533" lon="11.3749983"><ele>182.0</ele><time>2026-04-20T14:37:52.019Z</time></trkpt><trkpt lat="43.2815733" lon="11.37482"><ele>183.75</ele><time>2026-04-20T14:37:53.019Z</time></trkpt><trkpt lat="43.28162" lon="11.374645"><ele>185.5</ele><time>2026-04-20T14:37:54.019Z</time></trkpt><trkpt lat="43.2816767" lon="11.3744617"><ele>187.25</ele><time>2026-04-20T14:37:55.019Z</time></trkpt><trkpt lat="43.28174" lon="11.3742933"><ele>189.0</ele><time>2026-04-20T14:37:56.019Z</time></trkpt><trkpt lat="43.2818167" lon="11.37414"><ele>189.0</ele><time>2026-04-20T14:37:57.019Z</time></trkpt><trkpt lat="43.2819033" lon="11.373985"><ele>189.0</ele><time>2026-04-20T14:37:58.018Z</time></trkpt><trkpt lat="43.2819933" lon="11.3738217"><ele>189.0</ele><time>2026-04-20T14:37:59.019Z</time></trkpt><trkpt lat="43.282075" lon="11.3736617"><ele>189.0</ele><time>2026-04-20T14:38:00.019Z</time></trkpt><trkpt lat="43.2821467" lon="11.37349"><ele>190.0</ele><time>2026-04-20T14:38:01.019Z</time></trkpt><trkpt lat="43.2822033" lon="11.3733117"><ele>191.0</ele><time>2026-04-20T14:38:02.019Z</time></trkpt><trkpt lat="43.2822467" lon="11.37311"><ele>192.0</ele><time>2026-04-20T14:38:03.019Z</time></trkpt><trkpt lat="43.28227" lon="11.372905"><ele>193.0</ele><time>2026-04-20T14:38:04.019Z</time></trkpt><trkpt lat="43.2822833" lon="11.3726967"><ele>193.66666666666666</ele><time>2026-04-20T14:38:05.019Z</time></trkpt><trkpt lat="43.2823" lon="11.372485"><ele>194.33333333333331</ele><time>2026-04-20T14:38:06.019Z</time></trkpt><trkpt lat="43.2823183" lon="11.3722767"><ele>195.0</ele><time>2026-04-20T14:38:07.019Z</time></trkpt><trkpt lat="43.2823333" lon="11.3720717"><ele>196.0</ele><time>2026-04-20T14:38:08.019Z</time></trkpt><trkpt lat="43.28235" lon="11.3718667"><ele>197.0</ele><time>2026-04-20T14:38:09.019Z</time></trkpt><trkpt lat="43.28237" lon="11.3716683"><ele>198.0</ele><time>2026-04-20T14:38:10.019Z</time></trkpt><trkpt lat="43.282385" lon="11.3714617"><ele>199.0</ele><time>2026-04-20T14:38:11.019Z</time></trkpt><trkpt lat="43.2824017" lon="11.3712517"><ele>199.66666666666666</ele><time>2026-04-20T14:38:12.018Z</time></trkpt><trkpt lat="43.2824233" lon="11.3710433"><ele>200.33333333333331</ele><time>2026-04-20T14:38:13.019Z</time></trkpt><trkpt lat="43.2824433" lon="11.3708367"><ele>201.0</ele><time>2026-04-20T14:38:14.019Z</time></trkpt><trkpt lat="43.2824733" lon="11.37063"><ele>202.33333333333331</ele><time>2026-04-20T14:38:15.019Z</time></trkpt><trkpt lat="43.282515" lon="11.370425"><ele>203.66666666666666</ele><time>2026-04-20T14:38:16.018Z</time></trkpt><trkpt lat="43.2825683" lon="11.3702117"><ele>205.0</ele><time>2026-04-20T14:38:17.019Z</time></trkpt><trkpt lat="43.282635" lon="11.3700133"><ele>205.0</ele><time>2026-04-20T14:38:18.019Z</time></trkpt><trkpt lat="43.2827117" lon="11.36983"><ele>205.0</ele><time>2026-04-20T14:38:19.019Z</time></trkpt><trkpt lat="43.2827967" lon="11.3696483"><ele>205.0</ele><time>2026-04-20T14:38:20.019Z</time></trkpt><trkpt lat="43.282885" lon="11.3694733"><ele>204.66666666666666</ele><time>2026-04-20T14:38:21.019Z</time></trkpt><trkpt lat="43.28298" lon="11.3693033"><ele>204.33333333333331</ele><time>2026-04-20T14:38:22.018Z</time></trkpt><trkpt lat="43.283075" lon="11.369125"><ele>204.0</ele><time>2026-04-20T14:38:23.019Z</time></trkpt><trkpt lat="43.2831667" lon="11.3689467"><ele>205.33333333333331</ele><time>2026-04-20T14:38:24.019Z</time></trkpt><trkpt lat="43.2832517" lon="11.36876"><ele>206.66666666666666</ele><time>2026-04-20T14:38:25.019Z</time></trkpt><trkpt lat="43.28332" lon="11.3685683"><ele>208.0</ele><time>2026-04-20T14:38:26.019Z</time></trkpt><trkpt lat="43.2833867" lon="11.3683683"><ele>208.0</ele><time>2026-04-20T14:38:27.019Z</time></trkpt><trkpt lat="43.2834383" lon="11.368175"><ele>208.0</ele><time>2026-04-20T14:38:28.019Z</time></trkpt><trkpt lat="43.2834617" lon="11.367975"><ele>208.0</ele><time>2026-04-20T14:38:29.019Z</time></trkpt><trkpt lat="43.2834717" lon="11.367755"><ele>208.0</ele><time>2026-04-20T14:38:30.018Z</time></trkpt><trkpt lat="43.2834667" lon="11.3675367"><ele>208.0</ele><time>2026-04-20T14:38:31.018Z</time></trkpt><trkpt lat="43.2834467" lon="11.3673167"><ele>208.0</ele><time>2026-04-20T14:38:32.019Z</time></trkpt><trkpt lat="43.2834117" lon="11.36709"><ele>209.0</ele><time>2026-04-20T14:38:33.019Z</time></trkpt><trkpt lat="43.2833517" lon="11.36688"><ele>210.0</ele><time>2026-04-20T14:38:34.019Z</time></trkpt><trkpt lat="43.28328" lon="11.36668"><ele>211.0</ele><time>2026-04-20T14:38:35.019Z</time></trkpt><trkpt lat="43.2831967" lon="11.36649"><ele>212.33333333333331</ele><time>2026-04-20T14:38:36.018Z</time></trkpt><trkpt lat="43.2830967" lon="11.36631"><ele>213.66666666666669</ele><time>2026-04-20T14:38:37.019Z</time></trkpt><trkpt lat="43.282975" lon="11.36615"><ele>215.0</ele><time>2026-04-20T14:38:38.019Z</time></trkpt><trkpt lat="43.2828417" lon="11.3660017"><ele>215.0</ele><time>2026-04-20T14:38:39.019Z</time></trkpt><trkpt lat="43.28271" lon="11.3658633"><ele>215.0</ele><time>2026-04-20T14:38:40.019Z</time></trkpt><trkpt lat="43.2825833" lon="11.3657067"><ele>215.0</ele><time>2026-04-20T14:38:41.019Z</time></trkpt><trkpt lat="43.2824567" lon="11.365565"><ele>215.0</ele><time>2026-04-20T14:38:42.019Z</time></trkpt><trkpt lat="43.282345" lon="11.36541"><ele>215.0</ele><time>2026-04-20T14:38:43.019Z</time></trkpt><trkpt lat="43.28225" lon="11.36525"><ele>215.0</ele><time>2026-04-20T14:38:44.019Z</time></trkpt><trkpt lat="43.28219" lon="11.36507"><ele>215.0</ele><time>2026-04-20T14:38:45.019Z</time></trkpt><trkpt lat="43.2821583" lon="11.3648717"><ele>215.0</ele><time>2026-04-20T14:38:46.019Z</time></trkpt><trkpt lat="43.2821517" lon="11.3646667"><ele>215.0</ele><time>2026-04-20T14:38:47.019Z</time></trkpt><trkpt lat="43.28217" lon="11.3644517"><ele>213.66666666666669</ele><time>2026-04-20T14:38:48.019Z</time></trkpt><trkpt lat="43.2821967" lon="11.3642383"><ele>212.33333333333331</ele><time>2026-04-20T14:38:49.018Z</time></trkpt><trkpt lat="43.2822433" lon="11.3640267"><ele>211.0</ele><time>2026-04-20T14:38:50.019Z</time></trkpt><trkpt lat="43.2823033" lon="11.363805"><ele>214.0</ele><time>2026-04-20T14:38:51.019Z</time></trkpt><trkpt lat="43.2823783" lon="11.3636"><ele>217.0</ele><time>2026-04-20T14:38:52.018Z</time></trkpt><trkpt lat="43.2824717" lon="11.3634083"><ele>220.0</ele><time>2026-04-20T14:38:53.019Z</time></trkpt><trkpt lat="43.28257" lon="11.3632133"><ele>217.33333333333331</ele><time>2026-04-20T14:38:54.019Z</time></trkpt><trkpt lat="43.2826683" lon="11.3630217"><ele>214.66666666666669</ele><time>2026-04-20T14:38:55.019Z</time></trkpt><trkpt lat="43.2827717" lon="11.3628267"><ele>212.0</ele><time>2026-04-20T14:38:56.019Z</time></trkpt><trkpt lat="43.28288" lon="11.362635"><ele>212.0</ele><time>2026-04-20T14:38:57.019Z</time></trkpt><trkpt lat="43.2829783" lon="11.3624417"><ele>212.0</ele><time>2026-04-20T14:38:58.019Z</time></trkpt><trkpt lat="43.28307" lon="11.3622267"><ele>212.0</ele><time>2026-04-20T14:38:59.019Z</time></trkpt><trkpt lat="43.2831533" lon="11.3620083"><ele>215.66666666666669</ele><time>2026-04-20T14:39:00.019Z</time></trkpt><trkpt lat="43.28322" lon="11.3617917"><ele>219.33333333333331</ele><time>2026-04-20T14:39:01.019Z</time></trkpt><trkpt lat="43.28328" lon="11.3615633"><ele>223.0</ele><time>2026-04-20T14:39:02.019Z</time></trkpt><trkpt lat="43.2833233" lon="11.36133"><ele>223.0</ele><time>2026-04-20T14:39:03.018Z</time></trkpt><trkpt lat="43.2833633" lon="11.3610883"><ele>223.0</ele><time>2026-04-20T14:39:04.019Z</time></trkpt><trkpt lat="43.2834083" lon="11.3608517"><ele>223.0</ele><time>2026-04-20T14:39:05.018Z</time></trkpt><trkpt lat="43.2834633" lon="11.3606183"><ele>221.0</ele><time>2026-04-20T14:39:06.018Z</time></trkpt><trkpt lat="43.283525" lon="11.3603783"><ele>219.0</ele><time>2026-04-20T14:39:07.019Z</time></trkpt><trkpt lat="43.2835967" lon="11.36013"><ele>217.0</ele><time>2026-04-20T14:39:08.019Z</time></trkpt><trkpt lat="43.2836783" lon="11.3598767"><ele>216.33333333333331</ele><time>2026-04-20T14:39:09.019Z</time></trkpt><trkpt lat="43.2837517" lon="11.35962"><ele>215.66666666666669</ele><time>2026-04-20T14:39:10.019Z</time></trkpt><trkpt lat="43.2838217" lon="11.3593533"><ele>215.0</ele><time>2026-04-20T14:39:11.019Z</time></trkpt><trkpt lat="43.2838983" lon="11.3590917"><ele>219.66666666666669</ele><time>2026-04-20T14:39:12.019Z</time></trkpt><trkpt lat="43.283975" lon="11.358825"><ele>224.33333333333331</ele><time>2026-04-20T14:39:13.019Z</time></trkpt><trkpt lat="43.2840517" lon="11.3585533"><ele>229.0</ele><time>2026-04-20T14:39:14.018Z</time></trkpt><trkpt lat="43.2841133" lon="11.3582783"><ele>228.66666666666666</ele><time>2026-04-20T14:39:15.018Z</time></trkpt><trkpt lat="43.2841767" lon="11.3580133"><ele>228.33333333333331</ele><time>2026-04-20T14:39:16.018Z</time></trkpt><trkpt lat="43.2842367" lon="11.3577367"><ele>228.0</ele><time>2026-04-20T14:39:17.018Z</time></trkpt><trkpt lat="43.2842917" lon="11.35747"><ele>227.66666666666669</ele><time>2026-04-20T14:39:18.019Z</time></trkpt><trkpt lat="43.2843533" lon="11.3572017"><ele>227.33333333333334</ele><time>2026-04-20T14:39:19.019Z</time></trkpt><trkpt lat="43.2844167" lon="11.3569417"><ele>227.0</ele><time>2026-04-20T14:39:20.019Z</time></trkpt><trkpt lat="43.2844917" lon="11.3566833"><ele>227.0</ele><time>2026-04-20T14:39:21.019Z</time></trkpt><trkpt lat="43.28457" lon="11.35644"><ele>227.0</ele><time>2026-04-20T14:39:22.018Z</time></trkpt><trkpt lat="43.2846583" lon="11.3561817"><ele>227.0</ele><time>2026-04-20T14:39:23.018Z</time></trkpt><trkpt lat="43.2847467" lon="11.3559333"><ele>230.0</ele><time>2026-04-20T14:39:24.019Z</time></trkpt><trkpt lat="43.28483" lon="11.3557017"><ele>233.0</ele><time>2026-04-20T14:39:25.018Z</time></trkpt><trkpt lat="43.2849033" lon="11.355495"><ele>236.0</ele><time>2026-04-20T14:39:26.019Z</time></trkpt><trkpt lat="43.284975" lon="11.3553017"><ele>236.0</ele><time>2026-04-20T14:39:27.019Z</time></trkpt><trkpt lat="43.2850367" lon="11.3551133"><ele>236.0</ele><time>2026-04-20T14:39:28.018Z</time></trkpt><trkpt lat="43.2850767" lon="11.35494"><ele>236.0</ele><time>2026-04-20T14:39:29.019Z</time></trkpt><trkpt lat="43.2850917" lon="11.3547683"><ele>236.0</ele><time>2026-04-20T14:39:30.019Z</time></trkpt><trkpt lat="43.2850767" lon="11.35461"><ele>236.5</ele><time>2026-04-20T14:39:31.019Z</time></trkpt><trkpt lat="43.285045" lon="11.35446"><ele>237.0</ele><time>2026-04-20T14:39:32.019Z</time></trkpt><trkpt lat="43.2849933" lon="11.3543167"><ele>237.5</ele><time>2026-04-20T14:39:33.019Z</time></trkpt><trkpt lat="43.2849333" lon="11.35419"><ele>238.0</ele><time>2026-04-20T14:39:34.018Z</time></trkpt><trkpt lat="43.2848567" lon="11.35406"><ele>238.0</ele><time>2026-04-20T14:39:35.018Z</time></trkpt><trkpt lat="43.2847683" lon="11.35394"><ele>238.0</ele><time>2026-04-20T14:39:36.019Z</time></trkpt><trkpt lat="43.28469" lon="11.3538283"><ele>238.0</ele><time>2026-04-20T14:39:37.019Z</time></trkpt><trkpt lat="43.2846183" lon="11.3537233"><ele>238.0</ele><time>2026-04-20T14:39:38.019Z</time></trkpt><trkpt lat="43.2845567" lon="11.3536267"><ele>238.0</ele><time>2026-04-20T14:39:39.018Z</time></trkpt><trkpt lat="43.28451" lon="11.3535433"><ele>237.60000000000002</ele><time>2026-04-20T14:39:40.019Z</time></trkpt><trkpt lat="43.2844717" lon="11.3534667"><ele>237.20000000000002</ele><time>2026-04-20T14:39:41.018Z</time></trkpt><trkpt lat="43.2844067" lon="11.3533867"><ele>236.8</ele><time>2026-04-20T14:39:43.019Z</time></trkpt><trkpt lat="43.28432" lon="11.3533717"><ele>236.4</ele><time>2026-04-20T14:39:45.019Z</time></trkpt><trkpt lat="43.2841867" lon="11.3534283"><ele>236.0</ele><time>2026-04-20T14:39:47.019Z</time></trkpt><trkpt lat="43.2840967" lon="11.3534833"><ele>236.0</ele><time>2026-04-20T14:39:48.018Z</time></trkpt><trkpt lat="43.2840083" lon="11.353535"><ele>236.0</ele><time>2026-04-20T14:39:49.019Z</time></trkpt><trkpt lat="43.2839083" lon="11.3535817"><ele>236.0</ele><time>2026-04-20T14:39:50.019Z</time></trkpt><trkpt lat="43.28379" lon="11.353625"><ele>236.0</ele><time>2026-04-20T14:39:51.019Z</time></trkpt><trkpt lat="43.2836633" lon="11.3536633"><ele>236.5</ele><time>2026-04-20T14:39:52.019Z</time></trkpt><trkpt lat="43.28353" lon="11.35369"><ele>237.0</ele><time>2026-04-20T14:39:53.019Z</time></trkpt><trkpt lat="43.2833917" lon="11.353695"><ele>237.5</ele><time>2026-04-20T14:39:54.019Z</time></trkpt><trkpt lat="43.283245" lon="11.3536867"><ele>238.0</ele><time>2026-04-20T14:39:55.019Z</time></trkpt><trkpt lat="43.2830817" lon="11.3536583"><ele>238.0</ele><time>2026-04-20T14:39:56.019Z</time></trkpt><trkpt lat="43.2829183" lon="11.3536267"><ele>238.0</ele><time>2026-04-20T14:39:57.019Z</time></trkpt><trkpt lat="43.2827583" lon="11.3535967"><ele>238.0</ele><time>2026-04-20T14:39:58.019Z</time></trkpt><trkpt lat="43.282605" lon="11.3535633"><ele>238.0</ele><time>2026-04-20T14:39:59.019Z</time></trkpt><trkpt lat="43.2824467" lon="11.35353"><ele>238.0</ele><time>2026-04-20T14:40:00.019Z</time></trkpt><trkpt lat="43.2823067" lon="11.353495"><ele>238.0</ele><time>2026-04-20T14:40:01.019Z</time></trkpt><trkpt lat="43.282175" lon="11.35346"><ele>238.0</ele><time>2026-04-20T14:40:02.019Z</time></trkpt><trkpt lat="43.2820517" lon="11.3534283"><ele>238.0</ele><time>2026-04-20T14:40:03.018Z</time></trkpt><trkpt lat="43.2819333" lon="11.3534067"><ele>238.0</ele><time>2026-04-20T14:40:04.018Z</time></trkpt><trkpt lat="43.2818117" lon="11.3533783"><ele>238.0</ele><time>2026-04-20T14:40:05.018Z</time></trkpt><trkpt lat="43.2816817" lon="11.3533517"><ele>238.0</ele><time>2026-04-20T14:40:06.018Z</time></trkpt><trkpt lat="43.2815567" lon="11.353325"><ele>238.0</ele><time>2026-04-20T14:40:07.018Z</time></trkpt><trkpt lat="43.281425" lon="11.3533"><ele>238.0</ele><time>2026-04-20T14:40:08.018Z</time></trkpt><trkpt lat="43.281295" lon="11.3532667"><ele>238.0</ele><time>2026-04-20T14:40:09.018Z</time></trkpt><trkpt lat="43.281165" lon="11.3532217"><ele>238.0</ele><time>2026-04-20T14:40:10.018Z</time></trkpt><trkpt lat="43.28104" lon="11.353185"><ele>238.0</ele><time>2026-04-20T14:40:11.018Z</time></trkpt><trkpt lat="43.2809083" lon="11.3531417"><ele>238.0</ele><time>2026-04-20T14:40:12.018Z</time></trkpt><trkpt lat="43.28078" lon="11.3530917"><ele>238.0</ele><time>2026-04-20T14:40:13.018Z</time></trkpt><trkpt lat="43.2806567" lon="11.35305"><ele>238.0</ele><time>2026-04-20T14:40:14.017Z</time></trkpt><trkpt lat="43.2805283" lon="11.3529967"><ele>236.0</ele><time>2026-04-20T14:40:15.018Z</time></trkpt><trkpt lat="43.2804" lon="11.3529517"><ele>234.0</ele><time>2026-04-20T14:40:16.018Z</time></trkpt><trkpt lat="43.2802817" lon="11.3529167"><ele>232.0</ele><time>2026-04-20T14:40:17.018Z</time></trkpt><trkpt lat="43.2801583" lon="11.3528717"><ele>230.0</ele><time>2026-04-20T14:40:18.018Z</time></trkpt><trkpt lat="43.2800283" lon="11.3528367"><ele>230.0</ele><time>2026-04-20T14:40:19.018Z</time></trkpt><trkpt lat="43.2798983" lon="11.3528"><ele>230.0</ele><time>2026-04-20T14:40:20.018Z</time></trkpt><trkpt lat="43.2797633" lon="11.352765"><ele>230.0</ele><time>2026-04-20T14:40:21.018Z</time></trkpt><trkpt lat="43.27963" lon="11.3527333"><ele>230.0</ele><time>2026-04-20T14:40:22.018Z</time></trkpt><trkpt lat="43.279485" lon="11.352705"><ele>229.0</ele><time>2026-04-20T14:40:23.018Z</time></trkpt><trkpt lat="43.2793183" lon="11.3526833"><ele>228.0</ele><time>2026-04-20T14:40:24.018Z</time></trkpt><trkpt lat="43.2791533" lon="11.3526567"><ele>227.0</ele><time>2026-04-20T14:40:25.018Z</time></trkpt><trkpt lat="43.2790033" lon="11.35265"><ele>227.0</ele><time>2026-04-20T14:40:26.018Z</time></trkpt><trkpt lat="43.27886" lon="11.35266"><ele>227.0</ele><time>2026-04-20T14:40:27.018Z</time></trkpt><trkpt lat="43.2787217" lon="11.352695"><ele>227.0</ele><time>2026-04-20T14:40:28.018Z</time></trkpt><trkpt lat="43.2785733" lon="11.3527517"><ele>227.0</ele><time>2026-04-20T14:40:29.018Z</time></trkpt><trkpt lat="43.27844" lon="11.35283"><ele>227.0</ele><time>2026-04-20T14:40:30.018Z</time></trkpt><trkpt lat="43.27831" lon="11.352905"><ele>227.0</ele><time>2026-04-20T14:40:31.018Z</time></trkpt><trkpt lat="43.2781867" lon="11.35298"><ele>227.0</ele><time>2026-04-20T14:40:32.018Z</time></trkpt><trkpt lat="43.278075" lon="11.35305"><ele>227.0</ele><time>2026-04-20T14:40:33.018Z</time></trkpt><trkpt lat="43.27797" lon="11.3531183"><ele>228.0</ele><time>2026-04-20T14:40:34.018Z</time></trkpt><trkpt lat="43.2778633" lon="11.3531917"><ele>229.0</ele><time>2026-04-20T14:40:35.018Z</time></trkpt><trkpt lat="43.277755" lon="11.3532533"><ele>230.0</ele><time>2026-04-20T14:40:36.018Z</time></trkpt><trkpt lat="43.2776417" lon="11.3533167"><ele>231.0</ele><time>2026-04-20T14:40:37.018Z</time></trkpt><trkpt lat="43.2775333" lon="11.3533867"><ele>231.0</ele><time>2026-04-20T14:40:38.018Z</time></trkpt><trkpt lat="43.2774233" lon="11.35345"><ele>231.0</ele><time>2026-04-20T14:40:39.017Z</time></trkpt><trkpt lat="43.277315" lon="11.35351"><ele>231.0</ele><time>2026-04-20T14:40:40.018Z</time></trkpt><trkpt lat="43.2772033" lon="11.3535583"><ele>231.0</ele><time>2026-04-20T14:40:41.017Z</time></trkpt><trkpt lat="43.2770833" lon="11.3536033"><ele>231.25</ele><time>2026-04-20T14:40:42.017Z</time></trkpt><trkpt lat="43.2769733" lon="11.3536417"><ele>231.5</ele><time>2026-04-20T14:40:43.018Z</time></trkpt><trkpt lat="43.2768617" lon="11.353675"><ele>231.75</ele><time>2026-04-20T14:40:44.018Z</time></trkpt><trkpt lat="43.2767483" lon="11.353705"><ele>232.0</ele><time>2026-04-20T14:40:45.018Z</time></trkpt><trkpt lat="43.2766317" lon="11.353725"><ele>232.0</ele><time>2026-04-20T14:40:46.018Z</time></trkpt><trkpt lat="43.2765167" lon="11.3537517"><ele>232.0</ele><time>2026-04-20T14:40:47.017Z</time></trkpt><trkpt lat="43.276395" lon="11.3537783"><ele>232.0</ele><time>2026-04-20T14:40:48.018Z</time></trkpt><trkpt lat="43.2762783" lon="11.35381"><ele>232.0</ele><time>2026-04-20T14:40:49.018Z</time></trkpt><trkpt lat="43.2761533" lon="11.3538333"><ele>230.75</ele><time>2026-04-20T14:40:50.017Z</time></trkpt><trkpt lat="43.2760283" lon="11.3538583"><ele>229.5</ele><time>2026-04-20T14:40:51.018Z</time></trkpt><trkpt lat="43.2758967" lon="11.3538767"><ele>228.25</ele><time>2026-04-20T14:40:52.017Z</time></trkpt><trkpt lat="43.275775" lon="11.3539083"><ele>227.0</ele><time>2026-04-20T14:40:53.018Z</time></trkpt><trkpt lat="43.2756483" lon="11.3539317"><ele>225.75</ele><time>2026-04-20T14:40:54.018Z</time></trkpt><trkpt lat="43.2755233" lon="11.3539567"><ele>224.5</ele><time>2026-04-20T14:40:55.018Z</time></trkpt><trkpt lat="43.2754033" lon="11.3539833"><ele>223.25</ele><time>2026-04-20T14:40:56.018Z</time></trkpt><trkpt lat="43.2752767" lon="11.354005"><ele>222.0</ele><time>2026-04-20T14:40:57.018Z</time></trkpt><trkpt lat="43.2751517" lon="11.3540317"><ele>222.0</ele><time>2026-04-20T14:40:58.017Z</time></trkpt><trkpt lat="43.27503" lon="11.3540617"><ele>222.0</ele><time>2026-04-20T14:40:59.018Z</time></trkpt><trkpt lat="43.2749083" lon="11.3540933"><ele>222.0</ele><time>2026-04-20T14:41:00.018Z</time></trkpt><trkpt lat="43.2747867" lon="11.3541383"><ele>222.0</ele><time>2026-04-20T14:41:01.018Z</time></trkpt><trkpt lat="43.2746683" lon="11.3542033"><ele>222.75</ele><time>2026-04-20T14:41:02.018Z</time></trkpt><trkpt lat="43.274565" lon="11.3542867"><ele>223.5</ele><time>2026-04-20T14:41:03.017Z</time></trkpt><trkpt lat="43.2744667" lon="11.35439"><ele>224.25</ele><time>2026-04-20T14:41:04.018Z</time></trkpt><trkpt lat="43.274375" lon="11.35451"><ele>225.0</ele><time>2026-04-20T14:41:05.018Z</time></trkpt><trkpt lat="43.2742817" lon="11.354635"><ele>224.25</ele><time>2026-04-20T14:41:06.017Z</time></trkpt><trkpt lat="43.2741933" lon="11.354765"><ele>223.5</ele><time>2026-04-20T14:41:07.018Z</time></trkpt><trkpt lat="43.274105" lon="11.354895"><ele>222.75</ele><time>2026-04-20T14:41:08.018Z</time></trkpt><trkpt lat="43.2740117" lon="11.355015"><ele>222.0</ele><time>2026-04-20T14:41:09.017Z</time></trkpt><trkpt lat="43.2739167" lon="11.3551333"><ele>222.25</ele><time>2026-04-20T14:41:10.018Z</time></trkpt><trkpt lat="43.2738133" lon="11.3552517"><ele>222.5</ele><time>2026-04-20T14:41:11.018Z</time></trkpt><trkpt lat="43.2737083" lon="11.3553633"><ele>222.75</ele><time>2026-04-20T14:41:12.018Z</time></trkpt><trkpt lat="43.27361" lon="11.35548"><ele>223.0</ele><time>2026-04-20T14:41:13.018Z</time></trkpt><trkpt lat="43.2735083" lon="11.355595"><ele>223.0</ele><time>2026-04-20T14:41:14.018Z</time></trkpt><trkpt lat="43.273405" lon="11.3557"><ele>223.0</ele><time>2026-04-20T14:41:15.017Z</time></trkpt><trkpt lat="43.2733067" lon="11.35581"><ele>223.0</ele><time>2026-04-20T14:41:16.018Z</time></trkpt><trkpt lat="43.2732017" lon="11.3559183"><ele>223.0</ele><time>2026-04-20T14:41:17.018Z</time></trkpt><trkpt lat="43.2730983" lon="11.3560267"><ele>224.0</ele><time>2026-04-20T14:41:18.018Z</time></trkpt><trkpt lat="43.272995" lon="11.3561317"><ele>225.0</ele><time>2026-04-20T14:41:19.018Z</time></trkpt><trkpt lat="43.2729" lon="11.35625"><ele>226.0</ele><time>2026-04-20T14:41:20.018Z</time></trkpt><trkpt lat="43.2728017" lon="11.35637"><ele>227.0</ele><time>2026-04-20T14:41:21.018Z</time></trkpt><trkpt lat="43.2726967" lon="11.35648"><ele>227.0</ele><time>2026-04-20T14:41:22.018Z</time></trkpt><trkpt lat="43.2725983" lon="11.3566"><ele>227.0</ele><time>2026-04-20T14:41:23.018Z</time></trkpt><trkpt lat="43.272505" lon="11.3567167"><ele>227.0</ele><time>2026-04-20T14:41:24.018Z</time></trkpt><trkpt lat="43.2724083" lon="11.356835"><ele>227.0</ele><time>2026-04-20T14:41:25.018Z</time></trkpt><trkpt lat="43.27231" lon="11.3569467"><ele>226.2</ele><time>2026-04-20T14:41:26.018Z</time></trkpt><trkpt lat="43.272215" lon="11.35705"><ele>225.39999999999998</ele><time>2026-04-20T14:41:27.017Z</time></trkpt><trkpt lat="43.27213" lon="11.3571467"><ele>224.60000000000002</ele><time>2026-04-20T14:41:28.018Z</time></trkpt><trkpt lat="43.272055" lon="11.3572383"><ele>223.8</ele><time>2026-04-20T14:41:29.018Z</time></trkpt><trkpt lat="43.2719883" lon="11.3573233"><ele>223.0</ele><time>2026-04-20T14:41:30.018Z</time></trkpt><trkpt lat="43.27193" lon="11.3573883"><ele>223.0</ele><time>2026-04-20T14:41:31.018Z</time></trkpt><trkpt lat="43.271805" lon="11.357395"><ele>223.0</ele><time>2026-04-20T14:41:33.018Z</time></trkpt><trkpt lat="43.2717367" lon="11.3573617"><ele>223.0</ele><time>2026-04-20T14:41:34.018Z</time></trkpt><trkpt lat="43.2716683" lon="11.3573017"><ele>223.0</ele><time>2026-04-20T14:41:35.017Z</time></trkpt><trkpt lat="43.2715883" lon="11.3572167"><ele>223.0</ele><time>2026-04-20T14:41:36.018Z</time></trkpt><trkpt lat="43.2715083" lon="11.3571283"><ele>222.8</ele><time>2026-04-20T14:41:37.018Z</time></trkpt><trkpt lat="43.2714283" lon="11.357035"><ele>222.60000000000002</ele><time>2026-04-20T14:41:38.018Z</time></trkpt><trkpt lat="43.2713483" lon="11.35695"><ele>222.39999999999998</ele><time>2026-04-20T14:41:39.018Z</time></trkpt><trkpt lat="43.2712717" lon="11.356875"><ele>222.2</ele><time>2026-04-20T14:41:40.018Z</time></trkpt><trkpt lat="43.2712017" lon="11.3568"><ele>222.0</ele><time>2026-04-20T14:41:41.018Z</time></trkpt><trkpt lat="43.2711333" lon="11.35673"><ele>222.0</ele><time>2026-04-20T14:41:42.018Z</time></trkpt><trkpt lat="43.2710633" lon="11.3566567"><ele>222.0</ele><time>2026-04-20T14:41:43.018Z</time></trkpt><trkpt lat="43.2709967" lon="11.3565867"><ele>222.0</ele><time>2026-04-20T14:41:44.018Z</time></trkpt><trkpt lat="43.2709267" lon="11.3565167"><ele>222.0</ele><time>2026-04-20T14:41:45.018Z</time></trkpt><trkpt lat="43.2708467" lon="11.356445"><ele>222.0</ele><time>2026-04-20T14:41:46.018Z</time></trkpt><trkpt lat="43.270765" lon="11.356365"><ele>220.0</ele><time>2026-04-20T14:41:47.018Z</time></trkpt><trkpt lat="43.270685" lon="11.3562833"><ele>218.0</ele><time>2026-04-20T14:41:48.018Z</time></trkpt><trkpt lat="43.2706133" lon="11.356205"><ele>216.0</ele><time>2026-04-20T14:41:49.018Z</time></trkpt><trkpt lat="43.2705383" lon="11.3561283"><ele>214.0</ele><time>2026-04-20T14:41:50.017Z</time></trkpt><trkpt lat="43.2704633" lon="11.3560617"><ele>212.0</ele><time>2026-04-20T14:41:51.018Z</time></trkpt><trkpt lat="43.2703967" lon="11.35601"><ele>211.66666666666669</ele><time>2026-04-20T14:41:52.017Z</time></trkpt><trkpt lat="43.2703233" lon="11.3559633"><ele>211.33333333333334</ele><time>2026-04-20T14:41:53.018Z</time></trkpt><trkpt lat="43.2702483" lon="11.3559333"><ele>211.0</ele><time>2026-04-20T14:41:54.017Z</time></trkpt><trkpt lat="43.2701617" lon="11.355925"><ele>210.66666666666669</ele><time>2026-04-20T14:41:55.018Z</time></trkpt><trkpt lat="43.2700767" lon="11.355925"><ele>210.33333333333334</ele><time>2026-04-20T14:41:56.018Z</time></trkpt><trkpt lat="43.2699817" lon="11.3559267"><ele>210.0</ele><time>2026-04-20T14:41:57.017Z</time></trkpt><trkpt lat="43.2698883" lon="11.3559367"><ele>210.0</ele><time>2026-04-20T14:41:58.017Z</time></trkpt><trkpt lat="43.2697967" lon="11.3559583"><ele>210.0</ele><time>2026-04-20T14:41:59.018Z</time></trkpt><trkpt lat="43.2697117" lon="11.3559883"><ele>210.0</ele><time>2026-04-20T14:42:00.018Z</time></trkpt><trkpt lat="43.26963" lon="11.3560333"><ele>210.0</ele><time>2026-04-20T14:42:01.018Z</time></trkpt><trkpt lat="43.2695367" lon="11.35609"><ele>210.0</ele><time>2026-04-20T14:42:02.018Z</time></trkpt><trkpt lat="43.269455" lon="11.35616"><ele>208.4</ele><time>2026-04-20T14:42:03.017Z</time></trkpt><trkpt lat="43.2693783" lon="11.3562367"><ele>206.8</ele><time>2026-04-20T14:42:04.018Z</time></trkpt><trkpt lat="43.2693033" lon="11.356315"><ele>205.2</ele><time>2026-04-20T14:42:05.017Z</time></trkpt><trkpt lat="43.269235" lon="11.3564017"><ele>203.6</ele><time>2026-04-20T14:42:06.018Z</time></trkpt><trkpt lat="43.2691733" lon="11.3565033"><ele>202.0</ele><time>2026-04-20T14:42:07.018Z</time></trkpt><trkpt lat="43.26912" lon="11.3566167"><ele>202.0</ele><time>2026-04-20T14:42:08.018Z</time></trkpt><trkpt lat="43.26907" lon="11.356735"><ele>202.0</ele><time>2026-04-20T14:42:09.018Z</time></trkpt><trkpt lat="43.2690233" lon="11.356855"><ele>202.0</ele><time>2026-04-20T14:42:10.018Z</time></trkpt><trkpt lat="43.26899" lon="11.35699"><ele>202.0</ele><time>2026-04-20T14:42:11.018Z</time></trkpt><trkpt lat="43.2689667" lon="11.3571233"><ele>202.0</ele><time>2026-04-20T14:42:12.018Z</time></trkpt><trkpt lat="43.26895" lon="11.35726"><ele>199.39999999999998</ele><time>2026-04-20T14:42:13.018Z</time></trkpt><trkpt lat="43.26894" lon="11.3573967"><ele>196.79999999999998</ele><time>2026-04-20T14:42:14.018Z</time></trkpt><trkpt lat="43.2689367" lon="11.3575217"><ele>194.2</ele><time>2026-04-20T14:42:15.017Z</time></trkpt><trkpt lat="43.2689333" lon="11.35765"><ele>191.6</ele><time>2026-04-20T14:42:16.018Z</time></trkpt><trkpt lat="43.268935" lon="11.3577783"><ele>189.0</ele><time>2026-04-20T14:42:17.018Z</time></trkpt><trkpt lat="43.2689283" lon="11.3579067"><ele>189.0</ele><time>2026-04-20T14:42:18.018Z</time></trkpt><trkpt lat="43.2689267" lon="11.358035"><ele>189.0</ele><time>2026-04-20T14:42:19.018Z</time></trkpt><trkpt lat="43.2689217" lon="11.3581633"><ele>189.0</ele><time>2026-04-20T14:42:20.018Z</time></trkpt><trkpt lat="43.26892" lon="11.3582883"><ele>189.0</ele><time>2026-04-20T14:42:21.018Z</time></trkpt><trkpt lat="43.268905" lon="11.358415"><ele>189.0</ele><time>2026-04-20T14:42:22.018Z</time></trkpt><trkpt lat="43.2688717" lon="11.3585383"><ele>189.0</ele><time>2026-04-20T14:42:23.018Z</time></trkpt><trkpt lat="43.26884" lon="11.3586617"><ele>189.0</ele><time>2026-04-20T14:42:24.018Z</time></trkpt><trkpt lat="43.2688" lon="11.3587883"><ele>189.0</ele><time>2026-04-20T14:42:25.017Z</time></trkpt><trkpt lat="43.2687483" lon="11.3589117"><ele>189.0</ele><time>2026-04-20T14:42:26.017Z</time></trkpt><trkpt lat="43.26868" lon="11.359025"><ele>189.0</ele><time>2026-04-20T14:42:27.017Z</time></trkpt><trkpt lat="43.2686" lon="11.3591233"><ele>189.2</ele><time>2026-04-20T14:42:28.017Z</time></trkpt><trkpt lat="43.2685117" lon="11.3592117"><ele>189.39999999999998</ele><time>2026-04-20T14:42:29.018Z</time></trkpt><trkpt lat="43.2684183" lon="11.3592817"><ele>189.6</ele><time>2026-04-20T14:42:30.017Z</time></trkpt><trkpt lat="43.2683167" lon="11.3593467"><ele>189.8</ele><time>2026-04-20T14:42:31.017Z</time></trkpt><trkpt lat="43.2682217" lon="11.3593867"><ele>190.0</ele><time>2026-04-20T14:42:32.017Z</time></trkpt><trkpt lat="43.268125" lon="11.3594083"><ele>189.2</ele><time>2026-04-20T14:42:33.018Z</time></trkpt><trkpt lat="43.2680183" lon="11.3594183"><ele>188.4</ele><time>2026-04-20T14:42:34.017Z</time></trkpt><trkpt lat="43.267905" lon="11.359405"><ele>187.60000000000002</ele><time>2026-04-20T14:42:35.017Z</time></trkpt><trkpt lat="43.2678033" lon="11.3593883"><ele>186.8</ele><time>2026-04-20T14:42:36.018Z</time></trkpt><trkpt lat="43.2676967" lon="11.35936"><ele>186.0</ele><time>2026-04-20T14:42:37.018Z</time></trkpt><trkpt lat="43.2675917" lon="11.359315"><ele>186.0</ele><time>2026-04-20T14:42:38.018Z</time></trkpt><trkpt lat="43.26749" lon="11.3592667"><ele>186.0</ele><time>2026-04-20T14:42:39.018Z</time></trkpt><trkpt lat="43.2673933" lon="11.359225"><ele>186.0</ele><time>2026-04-20T14:42:40.018Z</time></trkpt><trkpt lat="43.2672983" lon="11.3591867"><ele>186.0</ele><time>2026-04-20T14:42:41.018Z</time></trkpt><trkpt lat="43.2671983" lon="11.3591417"><ele>186.0</ele><time>2026-04-20T14:42:42.018Z</time></trkpt><trkpt lat="43.2670983" lon="11.3591017"><ele>185.8</ele><time>2026-04-20T14:42:43.018Z</time></trkpt><trkpt lat="43.267" lon="11.3590617"><ele>185.60000000000002</ele><time>2026-04-20T14:42:44.017Z</time></trkpt><trkpt lat="43.2669067" lon="11.3590267"><ele>185.4</ele><time>2026-04-20T14:42:45.017Z</time></trkpt><trkpt lat="43.26681" lon="11.3589917"><ele>185.2</ele><time>2026-04-20T14:42:46.018Z</time></trkpt><trkpt lat="43.2667167" lon="11.3589483"><ele>185.0</ele><time>2026-04-20T14:42:47.018Z</time></trkpt><trkpt lat="43.26662" lon="11.35891"><ele>185.0</ele><time>2026-04-20T14:42:48.017Z</time></trkpt><trkpt lat="43.2665233" lon="11.358875"><ele>185.0</ele><time>2026-04-20T14:42:49.017Z</time></trkpt><trkpt lat="43.2664333" lon="11.3588267"><ele>185.0</ele><time>2026-04-20T14:42:50.018Z</time></trkpt><trkpt lat="43.2663383" lon="11.3587867"><ele>185.0</ele><time>2026-04-20T14:42:51.018Z</time></trkpt><trkpt lat="43.2662383" lon="11.3587467"><ele>185.0</ele><time>2026-04-20T14:42:52.018Z</time></trkpt><trkpt lat="43.2661383" lon="11.3587133"><ele>185.0</ele><time>2026-04-20T14:42:53.018Z</time></trkpt><trkpt lat="43.2660333" lon="11.3586667"><ele>185.0</ele><time>2026-04-20T14:42:54.018Z</time></trkpt><trkpt lat="43.2659367" lon="11.3586267"><ele>185.0</ele><time>2026-04-20T14:42:55.018Z</time></trkpt><trkpt lat="43.2658367" lon="11.358585"><ele>185.0</ele><time>2026-04-20T14:42:56.018Z</time></trkpt><trkpt lat="43.2657383" lon="11.3585467"><ele>185.0</ele><time>2026-04-20T14:42:57.017Z</time></trkpt><trkpt lat="43.265635" lon="11.3585017"><ele>184.8</ele><time>2026-04-20T14:42:58.018Z</time></trkpt><trkpt lat="43.2655317" lon="11.35845"><ele>184.6</ele><time>2026-04-20T14:42:59.018Z</time></trkpt><trkpt lat="43.2654317" lon="11.358405"><ele>184.39999999999998</ele><time>2026-04-20T14:43:00.018Z</time></trkpt><trkpt lat="43.2653367" lon="11.35836"><ele>184.2</ele><time>2026-04-20T14:43:01.018Z</time></trkpt><trkpt lat="43.26524" lon="11.3583167"><ele>184.0</ele><time>2026-04-20T14:43:02.018Z</time></trkpt><trkpt lat="43.2651483" lon="11.3582733"><ele>184.0</ele><time>2026-04-20T14:43:03.017Z</time></trkpt><trkpt lat="43.2650617" lon="11.35824"><ele>184.0</ele><time>2026-04-20T14:43:04.017Z</time></trkpt><trkpt lat="43.2649817" lon="11.35821"><ele>184.0</ele><time>2026-04-20T14:43:05.018Z</time></trkpt><trkpt lat="43.2648933" lon="11.3582083"><ele>184.0</ele><time>2026-04-20T14:43:06.018Z</time></trkpt><trkpt lat="43.264805" lon="11.35823"><ele>184.0</ele><time>2026-04-20T14:43:07.017Z</time></trkpt><trkpt lat="43.26472" lon="11.3582783"><ele>184.0</ele><time>2026-04-20T14:43:08.018Z</time></trkpt><trkpt lat="43.2646417" lon="11.3583417"><ele>184.6</ele><time>2026-04-20T14:43:09.017Z</time></trkpt><trkpt lat="43.26457" lon="11.3584217"><ele>185.2</ele><time>2026-04-20T14:43:10.018Z</time></trkpt><trkpt lat="43.264515" lon="11.358515"><ele>185.79999999999998</ele><time>2026-04-20T14:43:11.018Z</time></trkpt><trkpt lat="43.2644583" lon="11.3586167"><ele>186.39999999999998</ele><time>2026-04-20T14:43:12.018Z</time></trkpt><trkpt lat="43.26441" lon="11.3587133"><ele>187.0</ele><time>2026-04-20T14:43:13.017Z</time></trkpt><trkpt lat="43.26435" lon="11.3588267"><ele>186.39999999999998</ele><time>2026-04-20T14:43:14.018Z</time></trkpt><trkpt lat="43.2642783" lon="11.3589383"><ele>185.79999999999998</ele><time>2026-04-20T14:43:15.018Z</time></trkpt><trkpt lat="43.2642083" lon="11.3590467"><ele>185.2</ele><time>2026-04-20T14:43:16.017Z</time></trkpt><trkpt lat="43.2641317" lon="11.3591467"><ele>184.6</ele><time>2026-04-20T14:43:17.018Z</time></trkpt><trkpt lat="43.2640467" lon="11.3592333"><ele>184.0</ele><time>2026-04-20T14:43:18.018Z</time></trkpt><trkpt lat="43.26396" lon="11.3593117"><ele>183.79999999999998</ele><time>2026-04-20T14:43:19.017Z</time></trkpt><trkpt lat="43.263875" lon="11.3593833"><ele>183.6</ele><time>2026-04-20T14:43:20.018Z</time></trkpt><trkpt lat="43.2637933" lon="11.3594517"><ele>183.4</ele><time>2026-04-20T14:43:21.018Z</time></trkpt><trkpt lat="43.2637" lon="11.359515"><ele>183.2</ele><time>2026-04-20T14:43:22.017Z</time></trkpt><trkpt lat="43.263595" lon="11.3595833"><ele>183.0</ele><time>2026-04-20T14:43:23.018Z</time></trkpt><trkpt lat="43.2634933" lon="11.3596567"><ele>182.75</ele><time>2026-04-20T14:43:24.017Z</time></trkpt><trkpt lat="43.2633917" lon="11.35974"><ele>182.5</ele><time>2026-04-20T14:43:25.018Z</time></trkpt><trkpt lat="43.2633017" lon="11.3598267"><ele>182.25</ele><time>2026-04-20T14:43:26.018Z</time></trkpt><trkpt lat="43.2632117" lon="11.359915"><ele>182.0</ele><time>2026-04-20T14:43:27.018Z</time></trkpt><trkpt lat="43.263115" lon="11.3600133"><ele>183.0</ele><time>2026-04-20T14:43:28.018Z</time></trkpt><trkpt lat="43.2630183" lon="11.3601183"><ele>184.0</ele><time>2026-04-20T14:43:29.018Z</time></trkpt><trkpt lat="43.2629317" lon="11.3602283"><ele>185.0</ele><time>2026-04-20T14:43:30.018Z</time></trkpt><trkpt lat="43.26284" lon="11.3603283"><ele>186.0</ele><time>2026-04-20T14:43:31.018Z</time></trkpt><trkpt lat="43.2627467" lon="11.3604283"><ele>185.25</ele><time>2026-04-20T14:43:32.017Z</time></trkpt><trkpt lat="43.262655" lon="11.3605333"><ele>184.5</ele><time>2026-04-20T14:43:33.018Z</time></trkpt><trkpt lat="43.2625633" lon="11.3606333"><ele>183.75</ele><time>2026-04-20T14:43:34.018Z</time></trkpt><trkpt lat="43.2624833" lon="11.36074"><ele>183.0</ele><time>2026-04-20T14:43:35.018Z</time></trkpt><trkpt lat="43.2624033" lon="11.3608383"><ele>183.0</ele><time>2026-04-20T14:43:36.018Z</time></trkpt><trkpt lat="43.2623267" lon="11.360925"><ele>183.0</ele><time>2026-04-20T14:43:37.018Z</time></trkpt><trkpt lat="43.26225" lon="11.3610217"><ele>183.0</ele><time>2026-04-20T14:43:38.017Z</time></trkpt><trkpt lat="43.26217" lon="11.3611217"><ele>183.0</ele><time>2026-04-20T14:43:39.017Z</time></trkpt><trkpt lat="43.262085" lon="11.3612267"><ele>183.0</ele><time>2026-04-20T14:43:40.018Z</time></trkpt><trkpt lat="43.261995" lon="11.3613217"><ele>182.75</ele><time>2026-04-20T14:43:41.018Z</time></trkpt><trkpt lat="43.2619017" lon="11.3614133"><ele>182.5</ele><time>2026-04-20T14:43:42.018Z</time></trkpt><trkpt lat="43.2618067" lon="11.3614967"><ele>182.25</ele><time>2026-04-20T14:43:43.017Z</time></trkpt><trkpt lat="43.2617" lon="11.3615667"><ele>182.0</ele><time>2026-04-20T14:43:44.018Z</time></trkpt><trkpt lat="43.261595" lon="11.3616483"><ele>182.0</ele><time>2026-04-20T14:43:45.018Z</time></trkpt><trkpt lat="43.2614833" lon="11.36172"><ele>182.0</ele><time>2026-04-20T14:43:46.017Z</time></trkpt><trkpt lat="43.2613717" lon="11.3617833"><ele>182.0</ele><time>2026-04-20T14:43:47.018Z</time></trkpt><trkpt lat="43.26126" lon="11.3618467"><ele>182.0</ele><time>2026-04-20T14:43:48.018Z</time></trkpt><trkpt lat="43.2611517" lon="11.36191"><ele>182.0</ele><time>2026-04-20T14:43:49.018Z</time></trkpt><trkpt lat="43.2610317" lon="11.3619467"><ele>182.0</ele><time>2026-04-20T14:43:50.018Z</time></trkpt><trkpt lat="43.2609167" lon="11.3619717"><ele>182.0</ele><time>2026-04-20T14:43:51.018Z</time></trkpt><trkpt lat="43.2607967" lon="11.3619883"><ele>182.0</ele><time>2026-04-20T14:43:52.018Z</time></trkpt><trkpt lat="43.2606767" lon="11.3619833"><ele>182.75</ele><time>2026-04-20T14:43:53.017Z</time></trkpt><trkpt lat="43.26055" lon="11.361965"><ele>183.5</ele><time>2026-04-20T14:43:54.018Z</time></trkpt><trkpt lat="43.26042" lon="11.3619383"><ele>184.25</ele><time>2026-04-20T14:43:55.018Z</time></trkpt><trkpt lat="43.26029" lon="11.36191"><ele>185.0</ele><time>2026-04-20T14:43:56.018Z</time></trkpt><trkpt lat="43.2601683" lon="11.36187"><ele>185.0</ele><time>2026-04-20T14:43:57.018Z</time></trkpt><trkpt lat="43.2600567" lon="11.361835"><ele>185.0</ele><time>2026-04-20T14:43:58.017Z</time></trkpt><trkpt lat="43.259935" lon="11.361795"><ele>185.0</ele><time>2026-04-20T14:43:59.018Z</time></trkpt><trkpt lat="43.2598217" lon="11.36176"><ele>185.0</ele><time>2026-04-20T14:44:00.018Z</time></trkpt><trkpt lat="43.2597067" lon="11.3617217"><ele>187.0</ele><time>2026-04-20T14:44:01.018Z</time></trkpt><trkpt lat="43.2595867" lon="11.3616733"><ele>189.0</ele><time>2026-04-20T14:44:02.018Z</time></trkpt><trkpt lat="43.2594717" lon="11.361615"><ele>191.0</ele><time>2026-04-20T14:44:03.018Z</time></trkpt><trkpt lat="43.2593583" lon="11.3615583"><ele>193.0</ele><time>2026-04-20T14:44:04.018Z</time></trkpt><trkpt lat="43.2592433" lon="11.3615"><ele>193.0</ele><time>2026-04-20T14:44:05.017Z</time></trkpt><trkpt lat="43.2591217" lon="11.3614317"><ele>193.0</ele><time>2026-04-20T14:44:06.018Z</time></trkpt><trkpt lat="43.259" lon="11.3613733"><ele>193.0</ele><time>2026-04-20T14:44:07.017Z</time></trkpt><trkpt lat="43.2588917" lon="11.3613083"><ele>193.0</ele><time>2026-04-20T14:44:08.018Z</time></trkpt><trkpt lat="43.2587817" lon="11.3612283"><ele>193.5</ele><time>2026-04-20T14:44:09.018Z</time></trkpt><trkpt lat="43.2586767" lon="11.3611367"><ele>194.0</ele><time>2026-04-20T14:44:10.017Z</time></trkpt><trkpt lat="43.25857" lon="11.3610267"><ele>194.5</ele><time>2026-04-20T14:44:11.018Z</time></trkpt><trkpt lat="43.2584683" lon="11.3609283"><ele>195.0</ele><time>2026-04-20T14:44:12.018Z</time></trkpt><trkpt lat="43.258365" lon="11.36083"><ele>195.0</ele><time>2026-04-20T14:44:13.017Z</time></trkpt><trkpt lat="43.258265" lon="11.3607283"><ele>195.0</ele><time>2026-04-20T14:44:14.017Z</time></trkpt><trkpt lat="43.258155" lon="11.3606283"><ele>195.0</ele><time>2026-04-20T14:44:15.018Z</time></trkpt><trkpt lat="43.2580483" lon="11.3605333"><ele>195.0</ele><time>2026-04-20T14:44:16.018Z</time></trkpt><trkpt lat="43.2579417" lon="11.3604467"><ele>195.0</ele><time>2026-04-20T14:44:17.018Z</time></trkpt><trkpt lat="43.2578333" lon="11.3603783"><ele>195.0</ele><time>2026-04-20T14:44:18.017Z</time></trkpt><trkpt lat="43.2577117" lon="11.3603233"><ele>195.0</ele><time>2026-04-20T14:44:19.017Z</time></trkpt><trkpt lat="43.2575933" lon="11.360275"><ele>195.0</ele><time>2026-04-20T14:44:20.018Z</time></trkpt><trkpt lat="43.257475" lon="11.3602233"><ele>195.0</ele><time>2026-04-20T14:44:21.017Z</time></trkpt><trkpt lat="43.25736" lon="11.360175"><ele>195.0</ele><time>2026-04-20T14:44:22.018Z</time></trkpt><trkpt lat="43.25725" lon="11.3601417"><ele>195.0</ele><time>2026-04-20T14:44:23.018Z</time></trkpt><trkpt lat="43.2571367" lon="11.36012"><ele>195.0</ele><time>2026-04-20T14:44:24.018Z</time></trkpt><trkpt lat="43.257015" lon="11.3601"><ele>196.0</ele><time>2026-04-20T14:44:25.018Z</time></trkpt><trkpt lat="43.2568917" lon="11.360095"><ele>197.0</ele><time>2026-04-20T14:44:26.018Z</time></trkpt><trkpt lat="43.2567667" lon="11.360105"><ele>198.0</ele><time>2026-04-20T14:44:27.018Z</time></trkpt><trkpt lat="43.2566483" lon="11.3601217"><ele>199.0</ele><time>2026-04-20T14:44:28.018Z</time></trkpt><trkpt lat="43.2565317" lon="11.3601467"><ele>200.0</ele><time>2026-04-20T14:44:29.018Z</time></trkpt><trkpt lat="43.2564133" lon="11.3601767"><ele>201.0</ele><time>2026-04-20T14:44:30.018Z</time></trkpt><trkpt lat="43.2562983" lon="11.3602017"><ele>202.0</ele><time>2026-04-20T14:44:31.018Z</time></trkpt><trkpt lat="43.2561917" lon="11.360235"><ele>203.0</ele><time>2026-04-20T14:44:32.017Z</time></trkpt><trkpt lat="43.2560833" lon="11.3602817"><ele>203.0</ele><time>2026-04-20T14:44:33.017Z</time></trkpt><trkpt lat="43.2559817" lon="11.3603433"><ele>203.0</ele><time>2026-04-20T14:44:34.018Z</time></trkpt><trkpt lat="43.2558783" lon="11.3604167"><ele>203.0</ele><time>2026-04-20T14:44:35.018Z</time></trkpt><trkpt lat="43.2557733" lon="11.3604967"><ele>203.0</ele><time>2026-04-20T14:44:36.018Z</time></trkpt><trkpt lat="43.2556633" lon="11.3605783"><ele>205.75</ele><time>2026-04-20T14:44:37.018Z</time></trkpt><trkpt lat="43.255555" lon="11.3606617"><ele>208.5</ele><time>2026-04-20T14:44:38.018Z</time></trkpt><trkpt lat="43.25544" lon="11.3607417"><ele>211.25</ele><time>2026-04-20T14:44:39.018Z</time></trkpt><trkpt lat="43.2553383" lon="11.3608283"><ele>214.0</ele><time>2026-04-20T14:44:40.018Z</time></trkpt><trkpt lat="43.2552367" lon="11.3609267"><ele>214.0</ele><time>2026-04-20T14:44:41.018Z</time></trkpt><trkpt lat="43.2551467" lon="11.361035"><ele>214.0</ele><time>2026-04-20T14:44:42.017Z</time></trkpt><trkpt lat="43.2550717" lon="11.361155"><ele>214.0</ele><time>2026-04-20T14:44:43.017Z</time></trkpt><trkpt lat="43.2549967" lon="11.3612833"><ele>214.0</ele><time>2026-04-20T14:44:44.018Z</time></trkpt><trkpt lat="43.2549267" lon="11.361425"><ele>214.0</ele><time>2026-04-20T14:44:45.018Z</time></trkpt><trkpt lat="43.2548517" lon="11.361575"><ele>214.0</ele><time>2026-04-20T14:44:46.017Z</time></trkpt><trkpt lat="43.2547817" lon="11.361715"><ele>214.0</ele><time>2026-04-20T14:44:47.018Z</time></trkpt><trkpt lat="43.2547167" lon="11.3618483"><ele>214.0</ele><time>2026-04-20T14:44:48.018Z</time></trkpt><trkpt lat="43.25464" lon="11.361965"><ele>215.5</ele><time>2026-04-20T14:44:49.018Z</time></trkpt><trkpt lat="43.2545533" lon="11.3620733"><ele>217.0</ele><time>2026-04-20T14:44:50.018Z</time></trkpt><trkpt lat="43.25445" lon="11.3621633"><ele>218.5</ele><time>2026-04-20T14:44:51.018Z</time></trkpt><trkpt lat="43.2543517" lon="11.3622433"><ele>220.0</ele><time>2026-04-20T14:44:52.016Z</time></trkpt><trkpt lat="43.2542433" lon="11.3623083"><ele>220.0</ele><time>2026-04-20T14:44:53.016Z</time></trkpt><trkpt lat="43.2541317" lon="11.36236"><ele>220.0</ele><time>2026-04-20T14:44:54.017Z</time></trkpt><trkpt lat="43.2540217" lon="11.36239"><ele>220.0</ele><time>2026-04-20T14:44:55.017Z</time></trkpt><trkpt lat="43.2538917" lon="11.3624083"><ele>220.0</ele><time>2026-04-20T14:44:56.017Z</time></trkpt><trkpt lat="43.2537633" lon="11.36242"><ele>221.25</ele><time>2026-04-20T14:44:57.017Z</time></trkpt><trkpt lat="43.2536417" lon="11.3624283"><ele>222.5</ele><time>2026-04-20T14:44:58.017Z</time></trkpt><trkpt lat="43.2535183" lon="11.3624417"><ele>223.75</ele><time>2026-04-20T14:44:59.017Z</time></trkpt><trkpt lat="43.253395" lon="11.3624733"><ele>225.0</ele><time>2026-04-20T14:45:00.017Z</time></trkpt><trkpt lat="43.253275" lon="11.3625083"><ele>225.0</ele><time>2026-04-20T14:45:01.017Z</time></trkpt><trkpt lat="43.25316" lon="11.3625583"><ele>225.0</ele><time>2026-04-20T14:45:02.016Z</time></trkpt><trkpt lat="43.2530367" lon="11.3626233"><ele>225.0</ele><time>2026-04-20T14:45:03.017Z</time></trkpt><trkpt lat="43.2529067" lon="11.3626917"><ele>225.0</ele><time>2026-04-20T14:45:04.017Z</time></trkpt><trkpt lat="43.2527767" lon="11.362775"><ele>225.75</ele><time>2026-04-20T14:45:05.017Z</time></trkpt><trkpt lat="43.25265" lon="11.362865"><ele>226.5</ele><time>2026-04-20T14:45:06.017Z</time></trkpt><trkpt lat="43.252535" lon="11.362945"><ele>227.25</ele><time>2026-04-20T14:45:07.017Z</time></trkpt><trkpt lat="43.2524267" lon="11.36303"><ele>228.0</ele><time>2026-04-20T14:45:08.017Z</time></trkpt><trkpt lat="43.2523217" lon="11.3631283"><ele>229.0</ele><time>2026-04-20T14:45:09.017Z</time></trkpt><trkpt lat="43.252225" lon="11.36322"><ele>230.0</ele><time>2026-04-20T14:45:10.017Z</time></trkpt><trkpt lat="43.2521467" lon="11.3633117"><ele>231.0</ele><time>2026-04-20T14:45:11.016Z</time></trkpt><trkpt lat="43.252075" lon="11.3633917"><ele>232.0</ele><time>2026-04-20T14:45:12.017Z</time></trkpt><trkpt lat="43.2520033" lon="11.3634633"><ele>233.0</ele><time>2026-04-20T14:45:13.017Z</time></trkpt><trkpt lat="43.2519283" lon="11.3635167"><ele>233.00000000000003</ele><time>2026-04-20T14:45:14.017Z</time></trkpt><trkpt lat="43.25185" lon="11.3635633"><ele>233.0</ele><time>2026-04-20T14:45:15.017Z</time></trkpt><trkpt lat="43.2517667" lon="11.3635983"><ele>233.0</ele><time>2026-04-20T14:45:16.016Z</time></trkpt><trkpt lat="43.251685" lon="11.363625"><ele>233.0</ele><time>2026-04-20T14:45:17.016Z</time></trkpt><trkpt lat="43.2516017" lon="11.3636367"><ele>233.00000000000003</ele><time>2026-04-20T14:45:18.016Z</time></trkpt><trkpt lat="43.2515233" lon="11.36364"><ele>233.0</ele><time>2026-04-20T14:45:19.016Z</time></trkpt><trkpt lat="43.251445" lon="11.3636333"><ele>231.66666666666669</ele><time>2026-04-20T14:45:20.017Z</time></trkpt><trkpt lat="43.25136" lon="11.3636183"><ele>230.33333333333334</ele><time>2026-04-20T14:45:21.017Z</time></trkpt><trkpt lat="43.2512767" lon="11.3635867"><ele>229.0</ele><time>2026-04-20T14:45:22.016Z</time></trkpt><trkpt lat="43.2512" lon="11.3635567"><ele>227.66666666666669</ele><time>2026-04-20T14:45:23.017Z</time></trkpt><trkpt lat="43.2511217" lon="11.3635183"><ele>226.33333333333334</ele><time>2026-04-20T14:45:24.017Z</time></trkpt><trkpt lat="43.2510417" lon="11.3634817"><ele>225.0</ele><time>2026-04-20T14:45:25.016Z</time></trkpt><trkpt lat="43.250965" lon="11.3634417"><ele>225.0</ele><time>2026-04-20T14:45:26.017Z</time></trkpt><trkpt lat="43.25088" lon="11.3634083"><ele>225.0</ele><time>2026-04-20T14:45:27.017Z</time></trkpt><trkpt lat="43.2507683" lon="11.363375"><ele>225.0</ele><time>2026-04-20T14:45:28.017Z</time></trkpt><trkpt lat="43.2506517" lon="11.3633333"><ele>225.0</ele><time>2026-04-20T14:45:29.017Z</time></trkpt><trkpt lat="43.2505317" lon="11.3632983"><ele>225.0</ele><time>2026-04-20T14:45:30.017Z</time></trkpt><trkpt lat="43.2504117" lon="11.363275"><ele>224.5</ele><time>2026-04-20T14:45:31.017Z</time></trkpt><trkpt lat="43.250295" lon="11.36324"><ele>224.0</ele><time>2026-04-20T14:45:32.016Z</time></trkpt><trkpt lat="43.2501783" lon="11.36321"><ele>223.5</ele><time>2026-04-20T14:45:33.016Z</time></trkpt><trkpt lat="43.2500583" lon="11.3631733"><ele>223.0</ele><time>2026-04-20T14:45:34.017Z</time></trkpt><trkpt lat="43.249935" lon="11.3631383"><ele>223.0</ele><time>2026-04-20T14:45:35.017Z</time></trkpt><trkpt lat="43.2498183" lon="11.3631017"><ele>223.0</ele><time>2026-04-20T14:45:36.017Z</time></trkpt><trkpt lat="43.2497" lon="11.3630867"><ele>223.0</ele><time>2026-04-20T14:45:37.016Z</time></trkpt><trkpt lat="43.2495817" lon="11.3630917"><ele>223.0</ele><time>2026-04-20T14:45:38.017Z</time></trkpt><trkpt lat="43.2494667" lon="11.3631133"><ele>224.25</ele><time>2026-04-20T14:45:39.017Z</time></trkpt><trkpt lat="43.24935" lon="11.363155"><ele>225.5</ele><time>2026-04-20T14:45:40.017Z</time></trkpt><trkpt lat="43.2492433" lon="11.3632133"><ele>226.75</ele><time>2026-04-20T14:45:41.017Z</time></trkpt><trkpt lat="43.2491383" lon="11.36329"><ele>228.0</ele><time>2026-04-20T14:45:42.017Z</time></trkpt><trkpt lat="43.2490467" lon="11.3633867"><ele>228.0</ele><time>2026-04-20T14:45:43.017Z</time></trkpt><trkpt lat="43.2489633" lon="11.36349"><ele>228.0</ele><time>2026-04-20T14:45:44.016Z</time></trkpt><trkpt lat="43.248895" lon="11.3635933"><ele>228.0</ele><time>2026-04-20T14:45:45.017Z</time></trkpt><trkpt lat="43.2488333" lon="11.3636883"><ele>228.0</ele><time>2026-04-20T14:45:46.016Z</time></trkpt><trkpt lat="43.2487683" lon="11.3637867"><ele>228.0</ele><time>2026-04-20T14:45:47.017Z</time></trkpt><trkpt lat="43.2486967" lon="11.36388"><ele>227.83333333333334</ele><time>2026-04-20T14:45:48.017Z</time></trkpt><trkpt lat="43.24863" lon="11.3639767"><ele>227.66666666666669</ele><time>2026-04-20T14:45:49.017Z</time></trkpt><trkpt lat="43.2485667" lon="11.3640683"><ele>227.5</ele><time>2026-04-20T14:45:50.017Z</time></trkpt><trkpt lat="43.248505" lon="11.3641517"><ele>227.33333333333334</ele><time>2026-04-20T14:45:51.016Z</time></trkpt><trkpt lat="43.248445" lon="11.3642283"><ele>227.16666666666669</ele><time>2026-04-20T14:45:52.017Z</time></trkpt><trkpt lat="43.24839" lon="11.36431"><ele>227.0</ele><time>2026-04-20T14:45:53.017Z</time></trkpt><trkpt lat="43.24834" lon="11.3644083"><ele>227.0</ele><time>2026-04-20T14:45:54.016Z</time></trkpt><trkpt lat="43.2483" lon="11.3645183"><ele>227.0</ele><time>2026-04-20T14:45:55.016Z</time></trkpt><trkpt lat="43.248275" lon="11.3646417"><ele>227.0</ele><time>2026-04-20T14:45:56.017Z</time></trkpt><trkpt lat="43.2482567" lon="11.3647767"><ele>227.0</ele><time>2026-04-20T14:45:57.017Z</time></trkpt><trkpt lat="43.2482567" lon="11.3649183"><ele>227.0</ele><time>2026-04-20T14:45:58.017Z</time></trkpt><trkpt lat="43.2482517" lon="11.3650633"><ele>227.2</ele><time>2026-04-20T14:45:59.017Z</time></trkpt><trkpt lat="43.2482433" lon="11.3652033"><ele>227.39999999999998</ele><time>2026-04-20T14:46:00.017Z</time></trkpt><trkpt lat="43.24822" lon="11.3653333"><ele>227.60000000000002</ele><time>2026-04-20T14:46:01.016Z</time></trkpt><trkpt lat="43.2481817" lon="11.3654567"><ele>227.8</ele><time>2026-04-20T14:46:02.017Z</time></trkpt><trkpt lat="43.24813" lon="11.3655717"><ele>228.0</ele><time>2026-04-20T14:46:03.017Z</time></trkpt><trkpt lat="43.2480667" lon="11.365685"><ele>227.0</ele><time>2026-04-20T14:46:04.017Z</time></trkpt><trkpt lat="43.2479917" lon="11.3657933"><ele>226.0</ele><time>2026-04-20T14:46:05.017Z</time></trkpt><trkpt lat="43.2479017" lon="11.365885"><ele>225.0</ele><time>2026-04-20T14:46:06.017Z</time></trkpt><trkpt lat="43.2478067" lon="11.36597"><ele>224.0</ele><time>2026-04-20T14:46:07.017Z</time></trkpt><trkpt lat="43.247705" lon="11.3660283"><ele>223.0</ele><time>2026-04-20T14:46:08.016Z</time></trkpt><trkpt lat="43.24759" lon="11.3660667"><ele>223.0</ele><time>2026-04-20T14:46:09.017Z</time></trkpt><trkpt lat="43.2474717" lon="11.3660933"><ele>223.0</ele><time>2026-04-20T14:46:10.017Z</time></trkpt><trkpt lat="43.2473533" lon="11.366115"><ele>223.0</ele><time>2026-04-20T14:46:11.017Z</time></trkpt><trkpt lat="43.2472267" lon="11.36615"><ele>223.0</ele><time>2026-04-20T14:46:12.017Z</time></trkpt><trkpt lat="43.2470967" lon="11.3661867"><ele>223.0</ele><time>2026-04-20T14:46:13.017Z</time></trkpt><trkpt lat="43.2469683" lon="11.3662267"><ele>223.0</ele><time>2026-04-20T14:46:14.017Z</time></trkpt><trkpt lat="43.2468383" lon="11.366275"><ele>223.0</ele><time>2026-04-20T14:46:15.017Z</time></trkpt><trkpt lat="43.246715" lon="11.366325"><ele>223.0</ele><time>2026-04-20T14:46:16.017Z</time></trkpt><trkpt lat="43.2465967" lon="11.3663767"><ele>223.0</ele><time>2026-04-20T14:46:17.017Z</time></trkpt><trkpt lat="43.2464867" lon="11.36643"><ele>223.0</ele><time>2026-04-20T14:46:18.017Z</time></trkpt><trkpt lat="43.2463833" lon="11.3664933"><ele>223.0</ele><time>2026-04-20T14:46:19.016Z</time></trkpt><trkpt lat="43.2462833" lon="11.36657"><ele>223.0</ele><time>2026-04-20T14:46:20.016Z</time></trkpt><trkpt lat="43.2461867" lon="11.366655"><ele>223.25</ele><time>2026-04-20T14:46:21.017Z</time></trkpt><trkpt lat="43.246095" lon="11.366745"><ele>223.5</ele><time>2026-04-20T14:46:22.017Z</time></trkpt><trkpt lat="43.2460017" lon="11.36684"><ele>223.75</ele><time>2026-04-20T14:46:23.017Z</time></trkpt><trkpt lat="43.2459083" lon="11.3669467"><ele>224.0</ele><time>2026-04-20T14:46:24.017Z</time></trkpt><trkpt lat="43.2458183" lon="11.3670483"><ele>224.0</ele><time>2026-04-20T14:46:25.017Z</time></trkpt><trkpt lat="43.24572" lon="11.367145"><ele>224.0</ele><time>2026-04-20T14:46:26.017Z</time></trkpt><trkpt lat="43.2456183" lon="11.3672333"><ele>224.0</ele><time>2026-04-20T14:46:27.017Z</time></trkpt><trkpt lat="43.2455067" lon="11.3673083"><ele>224.0</ele><time>2026-04-20T14:46:28.016Z</time></trkpt><trkpt lat="43.2453883" lon="11.3673683"><ele>223.0</ele><time>2026-04-20T14:46:29.017Z</time></trkpt><trkpt lat="43.2452617" lon="11.3674233"><ele>222.0</ele><time>2026-04-20T14:46:30.017Z</time></trkpt><trkpt lat="43.245125" lon="11.36747"><ele>221.0</ele><time>2026-04-20T14:46:31.017Z</time></trkpt><trkpt lat="43.2449967" lon="11.367515"><ele>220.0</ele><time>2026-04-20T14:46:32.016Z</time></trkpt><trkpt lat="43.2448633" lon="11.3675517"><ele>220.75</ele><time>2026-04-20T14:46:33.017Z</time></trkpt><trkpt lat="43.2447367" lon="11.367585"><ele>221.5</ele><time>2026-04-20T14:46:34.016Z</time></trkpt><trkpt lat="43.24461" lon="11.3676267"><ele>222.25</ele><time>2026-04-20T14:46:35.017Z</time></trkpt><trkpt lat="43.2444817" lon="11.3676767"><ele>223.0</ele><time>2026-04-20T14:46:36.017Z</time></trkpt><trkpt lat="43.2443583" lon="11.3677217"><ele>223.0</ele><time>2026-04-20T14:46:37.017Z</time></trkpt><trkpt lat="43.24424" lon="11.3677617"><ele>223.0</ele><time>2026-04-20T14:46:38.017Z</time></trkpt><trkpt lat="43.244115" lon="11.367805"><ele>223.0</ele><time>2026-04-20T14:46:39.017Z</time></trkpt><trkpt lat="43.2439917" lon="11.3678433"><ele>223.0</ele><time>2026-04-20T14:46:40.017Z</time></trkpt><trkpt lat="43.2438767" lon="11.3678817"><ele>223.75</ele><time>2026-04-20T14:46:41.017Z</time></trkpt><trkpt lat="43.2437533" lon="11.3679117"><ele>224.5</ele><time>2026-04-20T14:46:42.017Z</time></trkpt><trkpt lat="43.2436367" lon="11.3679483"><ele>225.25</ele><time>2026-04-20T14:46:43.016Z</time></trkpt><trkpt lat="43.243515" lon="11.3679733"><ele>226.0</ele><time>2026-04-20T14:46:44.017Z</time></trkpt><trkpt lat="43.24339" lon="11.368"><ele>225.20000000000002</ele><time>2026-04-20T14:46:45.017Z</time></trkpt><trkpt lat="43.2432783" lon="11.3680283"><ele>224.40000000000003</ele><time>2026-04-20T14:46:46.017Z</time></trkpt><trkpt lat="43.24317" lon="11.36806"><ele>223.6</ele><time>2026-04-20T14:46:47.017Z</time></trkpt><trkpt lat="43.2430667" lon="11.368085"><ele>222.8</ele><time>2026-04-20T14:46:48.017Z</time></trkpt><trkpt lat="43.2429667" lon="11.3681183"><ele>222.0</ele><time>2026-04-20T14:46:49.017Z</time></trkpt><trkpt lat="43.2428783" lon="11.3681633"><ele>222.0</ele><time>2026-04-20T14:46:50.017Z</time></trkpt><trkpt lat="43.2427883" lon="11.3682183"><ele>222.0</ele><time>2026-04-20T14:46:51.017Z</time></trkpt><trkpt lat="43.242695" lon="11.3682883"><ele>222.0</ele><time>2026-04-20T14:46:52.016Z</time></trkpt><trkpt lat="43.2425983" lon="11.368375"><ele>222.0</ele><time>2026-04-20T14:46:53.016Z</time></trkpt><trkpt lat="43.2425017" lon="11.3684767"><ele>222.0</ele><time>2026-04-20T14:46:54.016Z</time></trkpt><trkpt lat="43.24241" lon="11.3685867"><ele>222.0</ele><time>2026-04-20T14:46:55.017Z</time></trkpt><trkpt lat="43.2423133" lon="11.3687067"><ele>222.0</ele><time>2026-04-20T14:46:56.017Z</time></trkpt><trkpt lat="43.2422183" lon="11.3688333"><ele>222.0</ele><time>2026-04-20T14:46:57.017Z</time></trkpt><trkpt lat="43.2421183" lon="11.368955"><ele>222.0</ele><time>2026-04-20T14:46:58.017Z</time></trkpt><trkpt lat="43.2420317" lon="11.369075"><ele>221.5</ele><time>2026-04-20T14:46:59.017Z</time></trkpt><trkpt lat="43.2419517" lon="11.369195"><ele>221.0</ele><time>2026-04-20T14:47:00.017Z</time></trkpt><trkpt lat="43.241865" lon="11.3693183"><ele>220.5</ele><time>2026-04-20T14:47:01.017Z</time></trkpt><trkpt lat="43.2417717" lon="11.3694367"><ele>220.0</ele><time>2026-04-20T14:47:02.017Z</time></trkpt><trkpt lat="43.24168" lon="11.3695533"><ele>220.0</ele><time>2026-04-20T14:47:03.017Z</time></trkpt><trkpt lat="43.2415783" lon="11.36966"><ele>220.0</ele><time>2026-04-20T14:47:04.017Z</time></trkpt><trkpt lat="43.2414783" lon="11.3697783"><ele>220.0</ele><time>2026-04-20T14:47:05.017Z</time></trkpt><trkpt lat="43.24138" lon="11.369885"><ele>220.0</ele><time>2026-04-20T14:47:06.017Z</time></trkpt><trkpt lat="43.241275" lon="11.3699867"><ele>218.75</ele><time>2026-04-20T14:47:07.016Z</time></trkpt><trkpt lat="43.2411667" lon="11.37008"><ele>217.5</ele><time>2026-04-20T14:47:08.017Z</time></trkpt><trkpt lat="43.241055" lon="11.3701733"><ele>216.25</ele><time>2026-04-20T14:47:09.017Z</time></trkpt><trkpt lat="43.240955" lon="11.3702817"><ele>215.0</ele><time>2026-04-20T14:47:10.016Z</time></trkpt><trkpt lat="43.2408517" lon="11.3703767"><ele>215.0</ele><time>2026-04-20T14:47:11.017Z</time></trkpt><trkpt lat="43.2407417" lon="11.3704667"><ele>215.0</ele><time>2026-04-20T14:47:12.017Z</time></trkpt><trkpt lat="43.2406433" lon="11.3705683"><ele>215.0</ele><time>2026-04-20T14:47:13.017Z</time></trkpt><trkpt lat="43.240555" lon="11.3706783"><ele>215.0</ele><time>2026-04-20T14:47:14.017Z</time></trkpt><trkpt lat="43.240465" lon="11.3707967"><ele>215.5</ele><time>2026-04-20T14:47:15.017Z</time></trkpt><trkpt lat="43.2403817" lon="11.3709267"><ele>216.0</ele><time>2026-04-20T14:47:16.016Z</time></trkpt><trkpt lat="43.2403017" lon="11.3710683"><ele>216.5</ele><time>2026-04-20T14:47:17.017Z</time></trkpt><trkpt lat="43.2402183" lon="11.3712033"><ele>217.0</ele><time>2026-04-20T14:47:18.017Z</time></trkpt><trkpt lat="43.2401317" lon="11.3713467"><ele>216.25</ele><time>2026-04-20T14:47:19.017Z</time></trkpt><trkpt lat="43.2400467" lon="11.3714867"><ele>215.5</ele><time>2026-04-20T14:47:20.017Z</time></trkpt><trkpt lat="43.2399733" lon="11.3716317"><ele>214.75</ele><time>2026-04-20T14:47:21.016Z</time></trkpt><trkpt lat="43.2399067" lon="11.3717783"><ele>214.0</ele><time>2026-04-20T14:47:22.016Z</time></trkpt><trkpt lat="43.23983" lon="11.37193"><ele>213.75</ele><time>2026-04-20T14:47:23.017Z</time></trkpt><trkpt lat="43.2397583" lon="11.372075"><ele>213.5</ele><time>2026-04-20T14:47:24.017Z</time></trkpt><trkpt lat="43.2397017" lon="11.3722183"><ele>213.25</ele><time>2026-04-20T14:47:25.017Z</time></trkpt><trkpt lat="43.2396417" lon="11.3723517"><ele>213.0</ele><time>2026-04-20T14:47:26.017Z</time></trkpt><trkpt lat="43.23958" lon="11.372475"><ele>213.0</ele><time>2026-04-20T14:47:27.017Z</time></trkpt><trkpt lat="43.2395217" lon="11.372565"><ele>213.0</ele><time>2026-04-20T14:47:28.017Z</time></trkpt><trkpt lat="43.2394517" lon="11.3726267"><ele>213.0</ele><time>2026-04-20T14:47:29.017Z</time></trkpt><trkpt lat="43.2393733" lon="11.3726667"><ele>213.0</ele><time>2026-04-20T14:47:30.017Z</time></trkpt><trkpt lat="43.2392883" lon="11.37269"><ele>213.0</ele><time>2026-04-20T14:47:31.017Z</time></trkpt><trkpt lat="43.2391933" lon="11.3727017"><ele>213.0</ele><time>2026-04-20T14:47:32.017Z</time></trkpt><trkpt lat="43.2390783" lon="11.372705"><ele>213.0</ele><time>2026-04-20T14:47:33.017Z</time></trkpt><trkpt lat="43.2389717" lon="11.3727067"><ele>213.0</ele><time>2026-04-20T14:47:34.017Z</time></trkpt><trkpt lat="43.2388633" lon="11.3727167"><ele>213.0</ele><time>2026-04-20T14:47:35.017Z</time></trkpt><trkpt lat="43.2387533" lon="11.37274"><ele>213.0</ele><time>2026-04-20T14:47:36.017Z</time></trkpt><trkpt lat="43.2386467" lon="11.3727833"><ele>213.0</ele><time>2026-04-20T14:47:37.017Z</time></trkpt><trkpt lat="43.2385533" lon="11.3728367"><ele>213.0</ele><time>2026-04-20T14:47:38.017Z</time></trkpt><trkpt lat="43.2384633" lon="11.37289"><ele>213.0</ele><time>2026-04-20T14:47:39.017Z</time></trkpt><trkpt lat="43.2383833" lon="11.3729383"><ele>213.0</ele><time>2026-04-20T14:47:40.017Z</time></trkpt><trkpt lat="43.2383133" lon="11.373"><ele>213.0</ele><time>2026-04-20T14:47:41.017Z</time></trkpt><trkpt lat="43.2382617" lon="11.3730767"><ele>213.0</ele><time>2026-04-20T14:47:42.017Z</time></trkpt><trkpt lat="43.238225" lon="11.3731733"><ele>213.0</ele><time>2026-04-20T14:47:43.017Z</time></trkpt><trkpt lat="43.2382067" lon="11.3732817"><ele>211.4</ele><time>2026-04-20T14:47:44.017Z</time></trkpt><trkpt lat="43.2382033" lon="11.3733933"><ele>209.8</ele><time>2026-04-20T14:47:45.017Z</time></trkpt><trkpt lat="43.2382017" lon="11.3735183"><ele>208.2</ele><time>2026-04-20T14:47:46.016Z</time></trkpt><trkpt lat="43.2382067" lon="11.3736517"><ele>206.6</ele><time>2026-04-20T14:47:47.017Z</time></trkpt><trkpt lat="43.2382183" lon="11.373795"><ele>205.0</ele><time>2026-04-20T14:47:48.017Z</time></trkpt><trkpt lat="43.238235" lon="11.3739333"><ele>204.8</ele><time>2026-04-20T14:47:49.017Z</time></trkpt><trkpt lat="43.2382517" lon="11.3740833"><ele>204.6</ele><time>2026-04-20T14:47:50.017Z</time></trkpt><trkpt lat="43.238265" lon="11.3742417"><ele>204.39999999999998</ele><time>2026-04-20T14:47:51.017Z</time></trkpt><trkpt lat="43.2382767" lon="11.3743917"><ele>204.2</ele><time>2026-04-20T14:47:52.017Z</time></trkpt><trkpt lat="43.2382867" lon="11.374545"><ele>204.0</ele><time>2026-04-20T14:47:53.017Z</time></trkpt><trkpt lat="43.238285" lon="11.3746983"><ele>204.0</ele><time>2026-04-20T14:47:54.017Z</time></trkpt><trkpt lat="43.2382733" lon="11.3748433"><ele>204.0</ele><time>2026-04-20T14:47:55.017Z</time></trkpt><trkpt lat="43.2382417" lon="11.3749733"><ele>204.0</ele><time>2026-04-20T14:47:56.017Z</time></trkpt><trkpt lat="43.2381983" lon="11.37508"><ele>204.0</ele><time>2026-04-20T14:47:57.017Z</time></trkpt><trkpt lat="43.23813" lon="11.37517"><ele>204.0</ele><time>2026-04-20T14:47:58.017Z</time></trkpt><trkpt lat="43.2380467" lon="11.37525"><ele>204.0</ele><time>2026-04-20T14:47:59.016Z</time></trkpt><trkpt lat="43.2379433" lon="11.3753233"><ele>204.0</ele><time>2026-04-20T14:48:00.017Z</time></trkpt><trkpt lat="43.237845" lon="11.3754083"><ele>204.0</ele><time>2026-04-20T14:48:01.017Z</time></trkpt><trkpt lat="43.2377433" lon="11.3755067"><ele>204.0</ele><time>2026-04-20T14:48:02.017Z</time></trkpt><trkpt lat="43.2376417" lon="11.3756"><ele>203.0</ele><time>2026-04-20T14:48:03.017Z</time></trkpt><trkpt lat="43.2375567" lon="11.3757"><ele>202.0</ele><time>2026-04-20T14:48:04.017Z</time></trkpt><trkpt lat="43.237475" lon="11.3758"><ele>201.0</ele><time>2026-04-20T14:48:05.016Z</time></trkpt><trkpt lat="43.2373933" lon="11.3758917"><ele>200.0</ele><time>2026-04-20T14:48:06.017Z</time></trkpt><trkpt lat="43.2373133" lon="11.375975"><ele>199.0</ele><time>2026-04-20T14:48:07.017Z</time></trkpt><trkpt lat="43.2372433" lon="11.3760617"><ele>198.39999999999998</ele><time>2026-04-20T14:48:08.017Z</time></trkpt><trkpt lat="43.2371683" lon="11.3761483"><ele>197.8</ele><time>2026-04-20T14:48:09.017Z</time></trkpt><trkpt lat="43.2371" lon="11.3762217"><ele>197.2</ele><time>2026-04-20T14:48:10.017Z</time></trkpt><trkpt lat="43.2370283" lon="11.3762833"><ele>196.60000000000002</ele><time>2026-04-20T14:48:11.017Z</time></trkpt><trkpt lat="43.2369483" lon="11.37633"><ele>196.0</ele><time>2026-04-20T14:48:12.017Z</time></trkpt><trkpt lat="43.2368533" lon="11.3763617"><ele>196.0</ele><time>2026-04-20T14:48:13.017Z</time></trkpt><trkpt lat="43.2367533" lon="11.37638"><ele>196.0</ele><time>2026-04-20T14:48:14.017Z</time></trkpt><trkpt lat="43.23664" lon="11.3763733"><ele>196.0</ele><time>2026-04-20T14:48:15.016Z</time></trkpt><trkpt lat="43.2365333" lon="11.3763467"><ele>196.0</ele><time>2026-04-20T14:48:16.017Z</time></trkpt><trkpt lat="43.2364383" lon="11.3762867"><ele>196.0</ele><time>2026-04-20T14:48:17.016Z</time></trkpt><trkpt lat="43.23636" lon="11.3762017"><ele>194.0</ele><time>2026-04-20T14:48:18.017Z</time></trkpt><trkpt lat="43.2362933" lon="11.376105"><ele>192.0</ele><time>2026-04-20T14:48:19.016Z</time></trkpt><trkpt lat="43.2362417" lon="11.37599"><ele>190.0</ele><time>2026-04-20T14:48:20.017Z</time></trkpt><trkpt lat="43.2362033" lon="11.37587"><ele>188.0</ele><time>2026-04-20T14:48:21.016Z</time></trkpt><trkpt lat="43.2361833" lon="11.375735"><ele>186.0</ele><time>2026-04-20T14:48:22.017Z</time></trkpt><trkpt lat="43.23618" lon="11.3755767"><ele>185.0</ele><time>2026-04-20T14:48:23.017Z</time></trkpt><trkpt lat="43.2361917" lon="11.37542"><ele>184.0</ele><time>2026-04-20T14:48:24.017Z</time></trkpt><trkpt lat="43.2362217" lon="11.3752617"><ele>183.0</ele><time>2026-04-20T14:48:25.017Z</time></trkpt><trkpt lat="43.2362733" lon="11.375125"><ele>182.0</ele><time>2026-04-20T14:48:26.016Z</time></trkpt><trkpt lat="43.2363283" lon="11.3749917"><ele>182.0</ele><time>2026-04-20T14:48:27.016Z</time></trkpt><trkpt lat="43.236385" lon="11.3748633"><ele>182.0</ele><time>2026-04-20T14:48:28.017Z</time></trkpt><trkpt lat="43.2364367" lon="11.3747267"><ele>182.0</ele><time>2026-04-20T14:48:29.017Z</time></trkpt><trkpt lat="43.236475" lon="11.3745767"><ele>182.0</ele><time>2026-04-20T14:48:30.016Z</time></trkpt><trkpt lat="43.2365133" lon="11.3744267"><ele>183.0</ele><time>2026-04-20T14:48:31.017Z</time></trkpt><trkpt lat="43.2365433" lon="11.3742867"><ele>184.0</ele><time>2026-04-20T14:48:32.016Z</time></trkpt><trkpt lat="43.2365617" lon="11.374155"><ele>185.0</ele><time>2026-04-20T14:48:33.016Z</time></trkpt><trkpt lat="43.2365683" lon="11.3740217"><ele>186.0</ele><time>2026-04-20T14:48:34.017Z</time></trkpt><trkpt lat="43.2365617" lon="11.37389"><ele>187.0</ele><time>2026-04-20T14:48:35.017Z</time></trkpt><trkpt lat="43.23654" lon="11.3737633"><ele>187.0</ele><time>2026-04-20T14:48:36.017Z</time></trkpt><trkpt lat="43.2364933" lon="11.3736483"><ele>187.0</ele><time>2026-04-20T14:48:37.017Z</time></trkpt><trkpt lat="43.2364317" lon="11.3735483"><ele>187.0</ele><time>2026-04-20T14:48:38.017Z</time></trkpt><trkpt lat="43.2363567" lon="11.373475"><ele>187.0</ele><time>2026-04-20T14:48:39.016Z</time></trkpt><trkpt lat="43.236275" lon="11.3734217"><ele>187.0</ele><time>2026-04-20T14:48:40.017Z</time></trkpt><trkpt lat="43.2361767" lon="11.3734033"><ele>185.75</ele><time>2026-04-20T14:48:41.016Z</time></trkpt><trkpt lat="43.2360667" lon="11.3734067"><ele>184.5</ele><time>2026-04-20T14:48:42.017Z</time></trkpt><trkpt lat="43.235955" lon="11.3734217"><ele>183.25</ele><time>2026-04-20T14:48:43.016Z</time></trkpt><trkpt lat="43.23583" lon="11.3734417"><ele>182.0</ele><time>2026-04-20T14:48:44.017Z</time></trkpt><trkpt lat="43.2357067" lon="11.3734583"><ele>180.75</ele><time>2026-04-20T14:48:45.017Z</time></trkpt><trkpt lat="43.2355817" lon="11.3734633"><ele>179.5</ele><time>2026-04-20T14:48:46.016Z</time></trkpt><trkpt lat="43.2354617" lon="11.3734833"><ele>178.25</ele><time>2026-04-20T14:48:47.016Z</time></trkpt><trkpt lat="43.235345" lon="11.373495"><ele>177.0</ele><time>2026-04-20T14:48:48.017Z</time></trkpt><trkpt lat="43.23522" lon="11.3735033"><ele>177.0</ele><time>2026-04-20T14:48:49.017Z</time></trkpt><trkpt lat="43.2350983" lon="11.37352"><ele>177.0</ele><time>2026-04-20T14:48:50.017Z</time></trkpt><trkpt lat="43.234985" lon="11.3735317"><ele>177.0</ele><time>2026-04-20T14:48:51.017Z</time></trkpt><trkpt lat="43.2348683" lon="11.3735383"><ele>177.0</ele><time>2026-04-20T14:48:52.016Z</time></trkpt><trkpt lat="43.2347517" lon="11.3735417"><ele>177.25</ele><time>2026-04-20T14:48:53.017Z</time></trkpt><trkpt lat="43.2346317" lon="11.37355"><ele>177.5</ele><time>2026-04-20T14:48:54.016Z</time></trkpt><trkpt lat="43.23451" lon="11.373555"><ele>177.75</ele><time>2026-04-20T14:48:55.017Z</time></trkpt><trkpt lat="43.2343867" lon="11.3735717"><ele>178.0</ele><time>2026-04-20T14:48:56.017Z</time></trkpt><trkpt lat="43.2342733" lon="11.3735817"><ele>178.0</ele><time>2026-04-20T14:48:57.017Z</time></trkpt><trkpt lat="43.2341717" lon="11.3735967"><ele>178.0</ele><time>2026-04-20T14:48:58.017Z</time></trkpt><trkpt lat="43.234065" lon="11.3735983"><ele>178.0</ele><time>2026-04-20T14:48:59.017Z</time></trkpt><trkpt lat="43.2339583" lon="11.373605"><ele>178.0</ele><time>2026-04-20T14:49:00.017Z</time></trkpt><trkpt lat="43.2338467" lon="11.3736317"><ele>178.0</ele><time>2026-04-20T14:49:01.017Z</time></trkpt><trkpt lat="43.23373" lon="11.37367"><ele>178.25</ele><time>2026-04-20T14:49:02.016Z</time></trkpt><trkpt lat="43.233615" lon="11.3737217"><ele>178.5</ele><time>2026-04-20T14:49:03.017Z</time></trkpt><trkpt lat="43.233505" lon="11.3737883"><ele>178.75</ele><time>2026-04-20T14:49:04.017Z</time></trkpt><trkpt lat="43.23339" lon="11.3738617"><ele>179.0</ele><time>2026-04-20T14:49:05.017Z</time></trkpt><trkpt lat="43.233285" lon="11.3739417"><ele>179.0</ele><time>2026-04-20T14:49:06.017Z</time></trkpt><trkpt lat="43.2331717" lon="11.3740183"><ele>179.0</ele><time>2026-04-20T14:49:07.017Z</time></trkpt><trkpt lat="43.23306" lon="11.3740933"><ele>179.0</ele><time>2026-04-20T14:49:08.016Z</time></trkpt><trkpt lat="43.2329517" lon="11.3741683"><ele>179.0</ele><time>2026-04-20T14:49:09.016Z</time></trkpt><trkpt lat="43.2328433" lon="11.3742433"><ele>179.0</ele><time>2026-04-20T14:49:10.017Z</time></trkpt><trkpt lat="43.23273" lon="11.374315"><ele>179.0</ele><time>2026-04-20T14:49:11.017Z</time></trkpt><trkpt lat="43.2326317" lon="11.3743867"><ele>179.0</ele><time>2026-04-20T14:49:12.017Z</time></trkpt><trkpt lat="43.23252" lon="11.3744617"><ele>179.0</ele><time>2026-04-20T14:49:13.017Z</time></trkpt><trkpt lat="43.2324083" lon="11.374535"><ele>179.0</ele><time>2026-04-20T14:49:14.017Z</time></trkpt><trkpt lat="43.2322983" lon="11.3746117"><ele>179.0</ele><time>2026-04-20T14:49:15.017Z</time></trkpt><trkpt lat="43.2321917" lon="11.3746917"><ele>179.0</ele><time>2026-04-20T14:49:16.016Z</time></trkpt><trkpt lat="43.2320817" lon="11.3747717"><ele>179.0</ele><time>2026-04-20T14:49:17.017Z</time></trkpt><trkpt lat="43.2319733" lon="11.3748483"><ele>179.0</ele><time>2026-04-20T14:49:18.017Z</time></trkpt><trkpt lat="43.2318667" lon="11.37492"><ele>179.0</ele><time>2026-04-20T14:49:19.017Z</time></trkpt><trkpt lat="43.231765" lon="11.3750017"><ele>179.0</ele><time>2026-04-20T14:49:20.017Z</time></trkpt><trkpt lat="43.23166" lon="11.3750867"><ele>179.0</ele><time>2026-04-20T14:49:21.017Z</time></trkpt><trkpt lat="43.2315583" lon="11.3751683"><ele>180.25</ele><time>2026-04-20T14:49:22.017Z</time></trkpt><trkpt lat="43.2314533" lon="11.375245"><ele>181.5</ele><time>2026-04-20T14:49:23.017Z</time></trkpt><trkpt lat="43.2313417" lon="11.3753217"><ele>182.75</ele><time>2026-04-20T14:49:24.017Z</time></trkpt><trkpt lat="43.2312283" lon="11.3753933"><ele>184.0</ele><time>2026-04-20T14:49:25.017Z</time></trkpt><trkpt lat="43.23112" lon="11.3754667"><ele>182.75</ele><time>2026-04-20T14:49:26.017Z</time></trkpt><trkpt lat="43.2310133" lon="11.3755433"><ele>181.5</ele><time>2026-04-20T14:49:27.017Z</time></trkpt><trkpt lat="43.2308967" lon="11.37562"><ele>180.25</ele><time>2026-04-20T14:49:28.017Z</time></trkpt><trkpt lat="43.2307817" lon="11.3756933"><ele>179.0</ele><time>2026-04-20T14:49:29.017Z</time></trkpt><trkpt lat="43.230665" lon="11.3757783"><ele>180.25</ele><time>2026-04-20T14:49:30.016Z</time></trkpt><trkpt lat="43.2305517" lon="11.3758617"><ele>181.5</ele><time>2026-04-20T14:49:31.016Z</time></trkpt><trkpt lat="43.2304383" lon="11.3759517"><ele>182.75</ele><time>2026-04-20T14:49:32.017Z</time></trkpt><trkpt lat="43.2303183" lon="11.3760367"><ele>184.0</ele><time>2026-04-20T14:49:33.017Z</time></trkpt><trkpt lat="43.2302" lon="11.3761233"><ele>184.0</ele><time>2026-04-20T14:49:34.017Z</time></trkpt><trkpt lat="43.2300883" lon="11.376205"><ele>184.0</ele><time>2026-04-20T14:49:35.017Z</time></trkpt><trkpt lat="43.2299767" lon="11.3762867"><ele>184.0</ele><time>2026-04-20T14:49:36.017Z</time></trkpt><trkpt lat="43.229865" lon="11.3763683"><ele>184.0</ele><time>2026-04-20T14:49:37.017Z</time></trkpt><trkpt lat="43.2297567" lon="11.37645"><ele>184.5</ele><time>2026-04-20T14:49:38.016Z</time></trkpt><trkpt lat="43.22965" lon="11.3765367"><ele>185.0</ele><time>2026-04-20T14:49:39.016Z</time></trkpt><trkpt lat="43.2295417" lon="11.3766233"><ele>185.5</ele><time>2026-04-20T14:49:40.017Z</time></trkpt><trkpt lat="43.2294367" lon="11.3767183"><ele>186.0</ele><time>2026-04-20T14:49:41.016Z</time></trkpt><trkpt lat="43.2293217" lon="11.37681"><ele>186.0</ele><time>2026-04-20T14:49:42.016Z</time></trkpt><trkpt lat="43.2292083" lon="11.3768917"><ele>186.0</ele><time>2026-04-20T14:49:43.015Z</time></trkpt><trkpt lat="43.2290983" lon="11.37698"><ele>186.0</ele><time>2026-04-20T14:49:44.015Z</time></trkpt><trkpt lat="43.2289883" lon="11.3770583"><ele>186.0</ele><time>2026-04-20T14:49:45.016Z</time></trkpt><trkpt lat="43.2288667" lon="11.37713"><ele>184.0</ele><time>2026-04-20T14:49:46.015Z</time></trkpt><trkpt lat="43.2287517" lon="11.37719"><ele>182.0</ele><time>2026-04-20T14:49:47.015Z</time></trkpt><trkpt lat="43.22864" lon="11.3772367"><ele>180.0</ele><time>2026-04-20T14:49:48.015Z</time></trkpt><trkpt lat="43.22852" lon="11.3772633"><ele>178.0</ele><time>2026-04-20T14:49:49.016Z</time></trkpt><trkpt lat="43.22839" lon="11.377285"><ele>178.0</ele><time>2026-04-20T14:49:50.015Z</time></trkpt><trkpt lat="43.2282567" lon="11.3772983"><ele>178.0</ele><time>2026-04-20T14:49:51.016Z</time></trkpt><trkpt lat="43.228125" lon="11.3773017"><ele>178.0</ele><time>2026-04-20T14:49:52.016Z</time></trkpt><trkpt lat="43.2279967" lon="11.37731"><ele>178.0</ele><time>2026-04-20T14:49:53.016Z</time></trkpt><trkpt lat="43.2278717" lon="11.3773217"><ele>178.0</ele><time>2026-04-20T14:49:54.016Z</time></trkpt><trkpt lat="43.227745" lon="11.3773217"><ele>178.0</ele><time>2026-04-20T14:49:55.016Z</time></trkpt><trkpt lat="43.2276167" lon="11.377325"><ele>178.0</ele><time>2026-04-20T14:49:56.016Z</time></trkpt><trkpt lat="43.2274917" lon="11.3773133"><ele>178.0</ele><time>2026-04-20T14:49:57.016Z</time></trkpt><trkpt lat="43.227365" lon="11.3772933"><ele>177.75</ele><time>2026-04-20T14:49:58.015Z</time></trkpt><trkpt lat="43.2272467" lon="11.3772583"><ele>177.5</ele><time>2026-04-20T14:49:59.016Z</time></trkpt><trkpt lat="43.2271383" lon="11.3772133"><ele>177.25</ele><time>2026-04-20T14:50:00.016Z</time></trkpt><trkpt lat="43.2270283" lon="11.3771483"><ele>177.0</ele><time>2026-04-20T14:50:01.016Z</time></trkpt><trkpt lat="43.2269117" lon="11.37708"><ele>178.0</ele><time>2026-04-20T14:50:02.016Z</time></trkpt><trkpt lat="43.2267983" lon="11.3770017"><ele>179.0</ele><time>2026-04-20T14:50:03.016Z</time></trkpt><trkpt lat="43.226695" lon="11.3769183"><ele>180.0</ele><time>2026-04-20T14:50:04.016Z</time></trkpt><trkpt lat="43.2265933" lon="11.3768217"><ele>181.0</ele><time>2026-04-20T14:50:05.016Z</time></trkpt><trkpt lat="43.2264967" lon="11.37671"><ele>180.5</ele><time>2026-04-20T14:50:06.015Z</time></trkpt><trkpt lat="43.2263983" lon="11.3765917"><ele>180.0</ele><time>2026-04-20T14:50:07.016Z</time></trkpt><trkpt lat="43.22631" lon="11.3764667"><ele>179.5</ele><time>2026-04-20T14:50:08.015Z</time></trkpt><trkpt lat="43.2262367" lon="11.376335"><ele>179.0</ele><time>2026-04-20T14:50:09.016Z</time></trkpt><trkpt lat="43.2261767" lon="11.37619"><ele>179.0</ele><time>2026-04-20T14:50:10.015Z</time></trkpt><trkpt lat="43.2261267" lon="11.3760367"><ele>179.0</ele><time>2026-04-20T14:50:11.015Z</time></trkpt><trkpt lat="43.2260833" lon="11.3758817"><ele>179.0</ele><time>2026-04-20T14:50:12.016Z</time></trkpt><trkpt lat="43.2260483" lon="11.375715"><ele>179.0</ele><time>2026-04-20T14:50:13.016Z</time></trkpt><trkpt lat="43.22603" lon="11.37555"><ele>178.75</ele><time>2026-04-20T14:50:14.016Z</time></trkpt><trkpt lat="43.2260183" lon="11.3753817"><ele>178.5</ele><time>2026-04-20T14:50:15.015Z</time></trkpt><trkpt lat="43.226025" lon="11.3751983"><ele>178.25</ele><time>2026-04-20T14:50:16.016Z</time></trkpt><trkpt lat="43.2260367" lon="11.3750267"><ele>178.0</ele><time>2026-04-20T14:50:17.016Z</time></trkpt><trkpt lat="43.2260617" lon="11.37484"><ele>177.75</ele><time>2026-04-20T14:50:18.016Z</time></trkpt><trkpt lat="43.2260817" lon="11.3746533"><ele>177.5</ele><time>2026-04-20T14:50:19.016Z</time></trkpt><trkpt lat="43.2261033" lon="11.3744717"><ele>177.25</ele><time>2026-04-20T14:50:20.016Z</time></trkpt><trkpt lat="43.226115" lon="11.3742833"><ele>177.0</ele><time>2026-04-20T14:50:21.016Z</time></trkpt><trkpt lat="43.2261267" lon="11.3740983"><ele>177.0</ele><time>2026-04-20T14:50:22.016Z</time></trkpt><trkpt lat="43.2261217" lon="11.3739117"><ele>177.0</ele><time>2026-04-20T14:50:23.016Z</time></trkpt><trkpt lat="43.2261067" lon="11.3737367"><ele>177.0</ele><time>2026-04-20T14:50:24.016Z</time></trkpt><trkpt lat="43.2260717" lon="11.3735667"><ele>177.0</ele><time>2026-04-20T14:50:25.016Z</time></trkpt><trkpt lat="43.226035" lon="11.3733983"><ele>177.25</ele><time>2026-04-20T14:50:26.016Z</time></trkpt><trkpt lat="43.225985" lon="11.3732283"><ele>177.5</ele><time>2026-04-20T14:50:27.016Z</time></trkpt><trkpt lat="43.225935" lon="11.3730633"><ele>177.75</ele><time>2026-04-20T14:50:28.016Z</time></trkpt><trkpt lat="43.2258817" lon="11.372905"><ele>178.0</ele><time>2026-04-20T14:50:29.015Z</time></trkpt><trkpt lat="43.2258333" lon="11.37274"><ele>178.60000000000002</ele><time>2026-04-20T14:50:30.016Z</time></trkpt><trkpt lat="43.2257833" lon="11.3725917"><ele>179.20000000000002</ele><time>2026-04-20T14:50:31.016Z</time></trkpt><trkpt lat="43.22574" lon="11.3724567"><ele>179.8</ele><time>2026-04-20T14:50:32.016Z</time></trkpt><trkpt lat="43.2257" lon="11.372345"><ele>180.4</ele><time>2026-04-20T14:50:33.016Z</time></trkpt><trkpt lat="43.2256533" lon="11.3722517"><ele>181.0</ele><time>2026-04-20T14:50:34.016Z</time></trkpt><trkpt lat="43.2255917" lon="11.3721883"><ele>181.0</ele><time>2026-04-20T14:50:35.016Z</time></trkpt><trkpt lat="43.22552" lon="11.37216"><ele>181.0</ele><time>2026-04-20T14:50:36.016Z</time></trkpt><trkpt lat="43.2254517" lon="11.3721633"><ele>181.0</ele><time>2026-04-20T14:50:37.015Z</time></trkpt><trkpt lat="43.225385" lon="11.3722"><ele>181.0</ele><time>2026-04-20T14:50:38.016Z</time></trkpt><trkpt lat="43.2253283" lon="11.3722617"><ele>181.0</ele><time>2026-04-20T14:50:39.016Z</time></trkpt><trkpt lat="43.225275" lon="11.37235"><ele>181.0</ele><time>2026-04-20T14:50:40.016Z</time></trkpt><trkpt lat="43.2252383" lon="11.3724517"><ele>180.8</ele><time>2026-04-20T14:50:41.016Z</time></trkpt><trkpt lat="43.2252083" lon="11.3725683"><ele>180.60000000000002</ele><time>2026-04-20T14:50:42.016Z</time></trkpt><trkpt lat="43.2251767" lon="11.372685"><ele>180.4</ele><time>2026-04-20T14:50:43.016Z</time></trkpt><trkpt lat="43.22513" lon="11.372805"><ele>180.2</ele><time>2026-04-20T14:50:44.015Z</time></trkpt><trkpt lat="43.225085" lon="11.3729233"><ele>180.0</ele><time>2026-04-20T14:50:45.016Z</time></trkpt><trkpt lat="43.2250383" lon="11.3730367"><ele>180.0</ele><time>2026-04-20T14:50:46.015Z</time></trkpt><trkpt lat="43.2249883" lon="11.373145"><ele>180.0</ele><time>2026-04-20T14:50:47.016Z</time></trkpt><trkpt lat="43.22492" lon="11.373245"><ele>180.0</ele><time>2026-04-20T14:50:48.016Z</time></trkpt><trkpt lat="43.2248533" lon="11.373325"><ele>180.0</ele><time>2026-04-20T14:50:49.016Z</time></trkpt><trkpt lat="43.2247833" lon="11.37339"><ele>180.0</ele><time>2026-04-20T14:50:50.016Z</time></trkpt><trkpt lat="43.2247033" lon="11.3734433"><ele>181.6</ele><time>2026-04-20T14:50:51.016Z</time></trkpt><trkpt lat="43.2246133" lon="11.3734833"><ele>183.2</ele><time>2026-04-20T14:50:52.015Z</time></trkpt><trkpt lat="43.224515" lon="11.3735167"><ele>184.8</ele><time>2026-04-20T14:50:53.016Z</time></trkpt><trkpt lat="43.224425" lon="11.37353"><ele>186.4</ele><time>2026-04-20T14:50:54.016Z</time></trkpt><trkpt lat="43.2243333" lon="11.37353"><ele>188.0</ele><time>2026-04-20T14:50:55.016Z</time></trkpt><trkpt lat="43.2242367" lon="11.3735183"><ele>188.0</ele><time>2026-04-20T14:50:56.016Z</time></trkpt><trkpt lat="43.2241467" lon="11.3734817"><ele>188.0</ele><time>2026-04-20T14:50:57.016Z</time></trkpt><trkpt lat="43.2240567" lon="11.373435"><ele>188.0</ele><time>2026-04-20T14:50:58.015Z</time></trkpt><trkpt lat="43.2239717" lon="11.3733867"><ele>188.0</ele><time>2026-04-20T14:50:59.016Z</time></trkpt><trkpt lat="43.22389" lon="11.37333"><ele>188.0</ele><time>2026-04-20T14:51:00.016Z</time></trkpt><trkpt lat="43.22381" lon="11.373255"><ele>191.60000000000002</ele><time>2026-04-20T14:51:01.016Z</time></trkpt><trkpt lat="43.2237383" lon="11.3731667"><ele>195.20000000000002</ele><time>2026-04-20T14:51:02.016Z</time></trkpt><trkpt lat="43.2236833" lon="11.3730667"><ele>198.8</ele><time>2026-04-20T14:51:03.016Z</time></trkpt><trkpt lat="43.22364" lon="11.3729517"><ele>202.4</ele><time>2026-04-20T14:51:04.015Z</time></trkpt><trkpt lat="43.2236033" lon="11.37283"><ele>206.0</ele><time>2026-04-20T14:51:05.016Z</time></trkpt><trkpt lat="43.2235833" lon="11.3727117"><ele>206.00000000000003</ele><time>2026-04-20T14:51:06.016Z</time></trkpt><trkpt lat="43.223575" lon="11.372595"><ele>206.0</ele><time>2026-04-20T14:51:07.015Z</time></trkpt><trkpt lat="43.2235783" lon="11.3724817"><ele>206.0</ele><time>2026-04-20T14:51:08.016Z</time></trkpt><trkpt lat="43.223595" lon="11.3723583"><ele>206.0</ele><time>2026-04-20T14:51:09.016Z</time></trkpt><trkpt lat="43.22361" lon="11.372235"><ele>206.00000000000003</ele><time>2026-04-20T14:51:10.016Z</time></trkpt><trkpt lat="43.2236217" lon="11.3721167"><ele>206.0</ele><time>2026-04-20T14:51:11.015Z</time></trkpt><trkpt lat="43.22363" lon="11.371995"><ele>206.0</ele><time>2026-04-20T14:51:12.016Z</time></trkpt><trkpt lat="43.223625" lon="11.371865"><ele>206.0</ele><time>2026-04-20T14:51:13.016Z</time></trkpt><trkpt lat="43.2236033" lon="11.3717383"><ele>206.0</ele><time>2026-04-20T14:51:14.016Z</time></trkpt><trkpt lat="43.2235683" lon="11.371615"><ele>206.0</ele><time>2026-04-20T14:51:15.016Z</time></trkpt><trkpt lat="43.2235167" lon="11.3715133"><ele>206.0</ele><time>2026-04-20T14:51:16.016Z</time></trkpt><trkpt lat="43.2234583" lon="11.3714133"><ele>205.33333333333334</ele><time>2026-04-20T14:51:17.015Z</time></trkpt><trkpt lat="43.223385" lon="11.3713283"><ele>204.66666666666669</ele><time>2026-04-20T14:51:18.015Z</time></trkpt><trkpt lat="43.2233117" lon="11.3712583"><ele>204.0</ele><time>2026-04-20T14:51:19.016Z</time></trkpt><trkpt lat="43.2232333" lon="11.371205"><ele>203.33333333333331</ele><time>2026-04-20T14:51:20.016Z</time></trkpt><trkpt lat="43.2231583" lon="11.3711817"><ele>202.66666666666666</ele><time>2026-04-20T14:51:21.016Z</time></trkpt><trkpt lat="43.2230767" lon="11.3712"><ele>202.0</ele><time>2026-04-20T14:51:22.015Z</time></trkpt><trkpt lat="43.2230033" lon="11.3712417"><ele>201.8</ele><time>2026-04-20T14:51:23.016Z</time></trkpt><trkpt lat="43.2229283" lon="11.3713217"><ele>201.6</ele><time>2026-04-20T14:51:24.016Z</time></trkpt><trkpt lat="43.22286" lon="11.3714217"><ele>201.4</ele><time>2026-04-20T14:51:25.016Z</time></trkpt><trkpt lat="43.222795" lon="11.3715367"><ele>201.20000000000002</ele><time>2026-04-20T14:51:26.015Z</time></trkpt><trkpt lat="43.2227283" lon="11.37165"><ele>201.0</ele><time>2026-04-20T14:51:27.015Z</time></trkpt><trkpt lat="43.2226633" lon="11.3717683"><ele>202.4</ele><time>2026-04-20T14:51:28.016Z</time></trkpt><trkpt lat="43.2225983" lon="11.37189"><ele>203.8</ele><time>2026-04-20T14:51:29.016Z</time></trkpt><trkpt lat="43.2225283" lon="11.37201"><ele>205.20000000000002</ele><time>2026-04-20T14:51:30.016Z</time></trkpt><trkpt lat="43.222455" lon="11.3721233"><ele>206.60000000000002</ele><time>2026-04-20T14:51:31.016Z</time></trkpt><trkpt lat="43.2223733" lon="11.37223"><ele>208.0</ele><time>2026-04-20T14:51:32.015Z</time></trkpt><trkpt lat="43.2222883" lon="11.3723283"><ele>210.60000000000002</ele><time>2026-04-20T14:51:33.015Z</time></trkpt><trkpt lat="43.222195" lon="11.37242"><ele>213.20000000000002</ele><time>2026-04-20T14:51:34.016Z</time></trkpt><trkpt lat="43.22211" lon="11.372505"><ele>215.8</ele><time>2026-04-20T14:51:35.015Z</time></trkpt><trkpt lat="43.2220183" lon="11.3725667"><ele>218.4</ele><time>2026-04-20T14:51:36.016Z</time></trkpt><trkpt lat="43.221915" lon="11.3726167"><ele>221.0</ele><time>2026-04-20T14:51:37.016Z</time></trkpt><trkpt lat="43.221815" lon="11.372655"><ele>221.0</ele><time>2026-04-20T14:51:38.016Z</time></trkpt><trkpt lat="43.2217167" lon="11.37269"><ele>221.00000000000003</ele><time>2026-04-20T14:51:39.016Z</time></trkpt><trkpt lat="43.22161" lon="11.37272"><ele>221.00000000000003</ele><time>2026-04-20T14:51:40.016Z</time></trkpt><trkpt lat="43.2215067" lon="11.3727317"><ele>221.0</ele><time>2026-04-20T14:51:41.016Z</time></trkpt><trkpt lat="43.2214017" lon="11.3727383"><ele>221.0</ele><time>2026-04-20T14:51:42.016Z</time></trkpt><trkpt lat="43.2212967" lon="11.372755"><ele>222.20000000000002</ele><time>2026-04-20T14:51:43.016Z</time></trkpt><trkpt lat="43.2211933" lon="11.3727717"><ele>223.40000000000003</ele><time>2026-04-20T14:51:44.016Z</time></trkpt><trkpt lat="43.22109" lon="11.37279"><ele>224.6</ele><time>2026-04-20T14:51:45.016Z</time></trkpt><trkpt lat="43.22098" lon="11.3728117"><ele>225.8</ele><time>2026-04-20T14:51:46.015Z</time></trkpt><trkpt lat="43.220865" lon="11.37283"><ele>227.0</ele><time>2026-04-20T14:51:47.016Z</time></trkpt><trkpt lat="43.22075" lon="11.3728517"><ele>229.0</ele><time>2026-04-20T14:51:48.015Z</time></trkpt><trkpt lat="43.2206333" lon="11.372885"><ele>231.0</ele><time>2026-04-20T14:51:49.016Z</time></trkpt><trkpt lat="43.2205167" lon="11.3729183"><ele>233.0</ele><time>2026-04-20T14:51:50.016Z</time></trkpt><trkpt lat="43.22041" lon="11.3729417"><ele>235.0</ele><time>2026-04-20T14:51:51.016Z</time></trkpt><trkpt lat="43.220305" lon="11.372965"><ele>235.0</ele><time>2026-04-20T14:51:52.016Z</time></trkpt><trkpt lat="43.220195" lon="11.3729933"><ele>235.0</ele><time>2026-04-20T14:51:53.016Z</time></trkpt><trkpt lat="43.220105" lon="11.37301"><ele>235.0</ele><time>2026-04-20T14:51:54.016Z</time></trkpt><trkpt lat="43.22" lon="11.3730383"><ele>235.0</ele><time>2026-04-20T14:51:55.016Z</time></trkpt><trkpt lat="43.2199" lon="11.37305"><ele>235.0</ele><time>2026-04-20T14:51:56.016Z</time></trkpt><trkpt lat="43.2198033" lon="11.37307"><ele>236.49999999999997</ele><time>2026-04-20T14:51:57.016Z</time></trkpt><trkpt lat="43.2197117" lon="11.3730783"><ele>238.0</ele><time>2026-04-20T14:51:58.016Z</time></trkpt><trkpt lat="43.21962" lon="11.37308"><ele>239.5</ele><time>2026-04-20T14:51:59.016Z</time></trkpt><trkpt lat="43.219535" lon="11.3730633"><ele>241.0</ele><time>2026-04-20T14:52:00.015Z</time></trkpt><trkpt lat="43.21945" lon="11.373055"><ele>242.49999999999997</ele><time>2026-04-20T14:52:01.015Z</time></trkpt><trkpt lat="43.219365" lon="11.37305"><ele>244.0</ele><time>2026-04-20T14:52:02.015Z</time></trkpt><trkpt lat="43.2192767" lon="11.3730467"><ele>245.6</ele><time>2026-04-20T14:52:03.016Z</time></trkpt><trkpt lat="43.21919" lon="11.3730167"><ele>247.2</ele><time>2026-04-20T14:52:04.016Z</time></trkpt><trkpt lat="43.2191033" lon="11.3729917"><ele>248.79999999999998</ele><time>2026-04-20T14:52:05.016Z</time></trkpt><trkpt lat="43.2190033" lon="11.372975"><ele>250.39999999999998</ele><time>2026-04-20T14:52:06.016Z</time></trkpt><trkpt lat="43.2189033" lon="11.372945"><ele>252.0</ele><time>2026-04-20T14:52:07.016Z</time></trkpt><trkpt lat="43.21879" lon="11.3729167"><ele>252.0</ele><time>2026-04-20T14:52:08.016Z</time></trkpt><trkpt lat="43.218685" lon="11.3728733"><ele>252.0</ele><time>2026-04-20T14:52:09.016Z</time></trkpt><trkpt lat="43.2185667" lon="11.3728267"><ele>252.0</ele><time>2026-04-20T14:52:10.016Z</time></trkpt><trkpt lat="43.2184533" lon="11.3727767"><ele>252.0</ele><time>2026-04-20T14:52:11.016Z</time></trkpt><trkpt lat="43.2183333" lon="11.37272"><ele>252.0</ele><time>2026-04-20T14:52:12.016Z</time></trkpt><trkpt lat="43.2182117" lon="11.3726733"><ele>252.0</ele><time>2026-04-20T14:52:13.016Z</time></trkpt><trkpt lat="43.2181" lon="11.3726183"><ele>252.0</ele><time>2026-04-20T14:52:14.016Z</time></trkpt><trkpt lat="43.217975" lon="11.3725533"><ele>252.0</ele><time>2026-04-20T14:52:15.015Z</time></trkpt><trkpt lat="43.2178617" lon="11.3724933"><ele>250.0</ele><time>2026-04-20T14:52:16.015Z</time></trkpt><trkpt lat="43.2177583" lon="11.3724367"><ele>248.0</ele><time>2026-04-20T14:52:17.016Z</time></trkpt><trkpt lat="43.2176583" lon="11.3723933"><ele>246.0</ele><time>2026-04-20T14:52:18.016Z</time></trkpt><trkpt lat="43.2175583" lon="11.372345"><ele>244.0</ele><time>2026-04-20T14:52:19.016Z</time></trkpt><trkpt lat="43.2174717" lon="11.3723"><ele>242.0</ele><time>2026-04-20T14:52:20.016Z</time></trkpt><trkpt lat="43.217385" lon="11.3722483"><ele>241.0</ele><time>2026-04-20T14:52:21.016Z</time></trkpt><trkpt lat="43.217285" lon="11.3721867"><ele>240.0</ele><time>2026-04-20T14:52:22.016Z</time></trkpt><trkpt lat="43.2171833" lon="11.3721233"><ele>239.0</ele><time>2026-04-20T14:52:23.015Z</time></trkpt><trkpt lat="43.2170717" lon="11.3720767"><ele>238.0</ele><time>2026-04-20T14:52:24.016Z</time></trkpt><trkpt lat="43.2169567" lon="11.3720133"><ele>238.0</ele><time>2026-04-20T14:52:25.016Z</time></trkpt><trkpt lat="43.2168517" lon="11.3719467"><ele>238.0</ele><time>2026-04-20T14:52:26.016Z</time></trkpt><trkpt lat="43.2167417" lon="11.37189"><ele>238.0</ele><time>2026-04-20T14:52:27.015Z</time></trkpt><trkpt lat="43.2166233" lon="11.3718417"><ele>238.0</ele><time>2026-04-20T14:52:28.016Z</time></trkpt><trkpt lat="43.216505" lon="11.3717883"><ele>239.2</ele><time>2026-04-20T14:52:29.015Z</time></trkpt><trkpt lat="43.2163967" lon="11.371735"><ele>240.4</ele><time>2026-04-20T14:52:30.016Z</time></trkpt><trkpt lat="43.216295" lon="11.371675"><ele>241.59999999999997</ele><time>2026-04-20T14:52:31.016Z</time></trkpt><trkpt lat="43.21619" lon="11.3716267"><ele>242.79999999999998</ele><time>2026-04-20T14:52:32.016Z</time></trkpt><trkpt lat="43.2160867" lon="11.3715767"><ele>244.0</ele><time>2026-04-20T14:52:33.015Z</time></trkpt><trkpt lat="43.2159817" lon="11.371525"><ele>243.99999999999997</ele><time>2026-04-20T14:52:34.016Z</time></trkpt><trkpt lat="43.2158867" lon="11.3714633"><ele>244.0</ele><time>2026-04-20T14:52:35.016Z</time></trkpt><trkpt lat="43.2158017" lon="11.371405"><ele>244.0</ele><time>2026-04-20T14:52:36.016Z</time></trkpt><trkpt lat="43.2157267" lon="11.3713467"><ele>244.0</ele><time>2026-04-20T14:52:37.016Z</time></trkpt><trkpt lat="43.21566" lon="11.3712833"><ele>243.99999999999997</ele><time>2026-04-20T14:52:38.016Z</time></trkpt><trkpt lat="43.21561" lon="11.371205"><ele>244.0</ele><time>2026-04-20T14:52:39.016Z</time></trkpt><trkpt lat="43.2155567" lon="11.3711283"><ele>243.33333333333331</ele><time>2026-04-20T14:52:40.015Z</time></trkpt><trkpt lat="43.215495" lon="11.3710617"><ele>242.66666666666666</ele><time>2026-04-20T14:52:41.016Z</time></trkpt><trkpt lat="43.2154333" lon="11.371"><ele>242.0</ele><time>2026-04-20T14:52:42.016Z</time></trkpt><trkpt lat="43.215365" lon="11.370935"><ele>241.33333333333331</ele><time>2026-04-20T14:52:43.016Z</time></trkpt><trkpt lat="43.2152883" lon="11.3708817"><ele>240.66666666666666</ele><time>2026-04-20T14:52:44.015Z</time></trkpt><trkpt lat="43.2152233" lon="11.3708267"><ele>240.0</ele><time>2026-04-20T14:52:45.015Z</time></trkpt><trkpt lat="43.2151517" lon="11.3707867"><ele>240.0</ele><time>2026-04-20T14:52:46.015Z</time></trkpt><trkpt lat="43.2150767" lon="11.37075"><ele>240.0</ele><time>2026-04-20T14:52:47.016Z</time></trkpt><trkpt lat="43.215" lon="11.3707183"><ele>240.0</ele><time>2026-04-20T14:52:48.016Z</time></trkpt><trkpt lat="43.214925" lon="11.3707033"><ele>240.0</ele><time>2026-04-20T14:52:49.016Z</time></trkpt><trkpt lat="43.2148417" lon="11.370695"><ele>240.0</ele><time>2026-04-20T14:52:50.016Z</time></trkpt><trkpt lat="43.2147667" lon="11.3707017"><ele>240.0</ele><time>2026-04-20T14:52:51.016Z</time></trkpt><trkpt lat="43.21468" lon="11.3707267"><ele>237.6</ele><time>2026-04-20T14:52:52.016Z</time></trkpt><trkpt lat="43.2145967" lon="11.3707667"><ele>235.2</ele><time>2026-04-20T14:52:53.016Z</time></trkpt><trkpt lat="43.2145133" lon="11.370815"><ele>232.8</ele><time>2026-04-20T14:52:54.016Z</time></trkpt><trkpt lat="43.2144333" lon="11.3708667"><ele>230.4</ele><time>2026-04-20T14:52:55.016Z</time></trkpt><trkpt lat="43.2143517" lon="11.3709217"><ele>228.0</ele><time>2026-04-20T14:52:56.016Z</time></trkpt><trkpt lat="43.2142667" lon="11.3709717"><ele>228.0</ele><time>2026-04-20T14:52:57.016Z</time></trkpt><trkpt lat="43.2141883" lon="11.371025"><ele>228.0</ele><time>2026-04-20T14:52:58.016Z</time></trkpt><trkpt lat="43.2141033" lon="11.3710733"><ele>228.0</ele><time>2026-04-20T14:52:59.016Z</time></trkpt><trkpt lat="43.2140217" lon="11.37113"><ele>228.0</ele><time>2026-04-20T14:53:00.016Z</time></trkpt><trkpt lat="43.2139367" lon="11.3711883"><ele>228.0</ele><time>2026-04-20T14:53:01.015Z</time></trkpt><trkpt lat="43.213845" lon="11.3712467"><ele>226.8</ele><time>2026-04-20T14:53:02.016Z</time></trkpt><trkpt lat="43.2137583" lon="11.3713067"><ele>225.60000000000002</ele><time>2026-04-20T14:53:03.016Z</time></trkpt><trkpt lat="43.2136583" lon="11.3713483"><ele>224.39999999999998</ele><time>2026-04-20T14:53:04.015Z</time></trkpt><trkpt lat="43.2135533" lon="11.3713867"><ele>223.2</ele><time>2026-04-20T14:53:05.016Z</time></trkpt><trkpt lat="43.2134383" lon="11.3713967"><ele>222.0</ele><time>2026-04-20T14:53:06.016Z</time></trkpt><trkpt lat="43.2133467" lon="11.3713667"><ele>222.0</ele><time>2026-04-20T14:53:07.016Z</time></trkpt><trkpt lat="43.21326" lon="11.3713017"><ele>222.0</ele><time>2026-04-20T14:53:08.016Z</time></trkpt><trkpt lat="43.2131867" lon="11.3712017"><ele>222.0</ele><time>2026-04-20T14:53:09.016Z</time></trkpt><trkpt lat="43.2131217" lon="11.3710833"><ele>222.0</ele><time>2026-04-20T14:53:10.016Z</time></trkpt><trkpt lat="43.21307" lon="11.370965"><ele>222.0</ele><time>2026-04-20T14:53:11.015Z</time></trkpt><trkpt lat="43.2130183" lon="11.370855"><ele>222.0</ele><time>2026-04-20T14:53:12.016Z</time></trkpt><trkpt lat="43.2129683" lon="11.3707467"><ele>222.0</ele><time>2026-04-20T14:53:13.015Z</time></trkpt><trkpt lat="43.2129167" lon="11.3706417"><ele>222.0</ele><time>2026-04-20T14:53:14.016Z</time></trkpt><trkpt lat="43.212865" lon="11.37054"><ele>222.0</ele><time>2026-04-20T14:53:15.016Z</time></trkpt><trkpt lat="43.2128133" lon="11.370425"><ele>222.0</ele><time>2026-04-20T14:53:16.016Z</time></trkpt><trkpt lat="43.2127517" lon="11.370305"><ele>222.6</ele><time>2026-04-20T14:53:17.016Z</time></trkpt><trkpt lat="43.2126883" lon="11.370185"><ele>223.2</ele><time>2026-04-20T14:53:18.016Z</time></trkpt><trkpt lat="43.2126283" lon="11.370055"><ele>223.8</ele><time>2026-04-20T14:53:19.015Z</time></trkpt><trkpt lat="43.2125617" lon="11.369935"><ele>224.4</ele><time>2026-04-20T14:53:20.016Z</time></trkpt><trkpt lat="43.2124867" lon="11.3698083"><ele>225.0</ele><time>2026-04-20T14:53:21.015Z</time></trkpt><trkpt lat="43.2124083" lon="11.36969"><ele>225.0</ele><time>2026-04-20T14:53:22.015Z</time></trkpt><trkpt lat="43.2123283" lon="11.3695633"><ele>225.0</ele><time>2026-04-20T14:53:23.016Z</time></trkpt><trkpt lat="43.2122517" lon="11.369445"><ele>225.0</ele><time>2026-04-20T14:53:24.016Z</time></trkpt><trkpt lat="43.2121767" lon="11.3693367"><ele>225.0</ele><time>2026-04-20T14:53:25.016Z</time></trkpt><trkpt lat="43.212095" lon="11.3692367"><ele>226.8</ele><time>2026-04-20T14:53:26.016Z</time></trkpt><trkpt lat="43.212005" lon="11.3691433"><ele>228.6</ele><time>2026-04-20T14:53:27.016Z</time></trkpt><trkpt lat="43.2119083" lon="11.3690583"><ele>230.39999999999998</ele><time>2026-04-20T14:53:28.016Z</time></trkpt><trkpt lat="43.2118183" lon="11.3689833"><ele>232.2</ele><time>2026-04-20T14:53:29.016Z</time></trkpt><trkpt lat="43.2117233" lon="11.368925"><ele>234.0</ele><time>2026-04-20T14:53:30.016Z</time></trkpt><trkpt lat="43.2116233" lon="11.3688617"><ele>233.75</ele><time>2026-04-20T14:53:31.016Z</time></trkpt><trkpt lat="43.21152" lon="11.3688117"><ele>233.5</ele><time>2026-04-20T14:53:32.016Z</time></trkpt><trkpt lat="43.2114167" lon="11.3687667"><ele>233.25</ele><time>2026-04-20T14:53:33.016Z</time></trkpt><trkpt lat="43.2113083" lon="11.36872"><ele>233.0</ele><time>2026-04-20T14:53:34.016Z</time></trkpt><trkpt lat="43.2111917" lon="11.3686883"><ele>233.0</ele><time>2026-04-20T14:53:35.016Z</time></trkpt><trkpt lat="43.211075" lon="11.368655"><ele>233.0</ele><time>2026-04-20T14:53:36.016Z</time></trkpt><trkpt lat="43.2109583" lon="11.3686117"><ele>233.0</ele><time>2026-04-20T14:53:37.016Z</time></trkpt><trkpt lat="43.2108417" lon="11.36857"><ele>233.0</ele><time>2026-04-20T14:53:38.016Z</time></trkpt><trkpt lat="43.2107183" lon="11.36853"><ele>232.5</ele><time>2026-04-20T14:53:39.016Z</time></trkpt><trkpt lat="43.2106" lon="11.3684883"><ele>232.0</ele><time>2026-04-20T14:53:40.016Z</time></trkpt><trkpt lat="43.2104817" lon="11.3684533"><ele>231.5</ele><time>2026-04-20T14:53:41.015Z</time></trkpt><trkpt lat="43.2103717" lon="11.36842"><ele>231.0</ele><time>2026-04-20T14:53:42.016Z</time></trkpt><trkpt lat="43.2102517" lon="11.3683817"><ele>231.0</ele><time>2026-04-20T14:53:43.015Z</time></trkpt><trkpt lat="43.210135" lon="11.36834"><ele>231.00000000000003</ele><time>2026-04-20T14:53:44.016Z</time></trkpt><trkpt lat="43.2100267" lon="11.3682967"><ele>231.00000000000003</ele><time>2026-04-20T14:53:45.016Z</time></trkpt><trkpt lat="43.2099233" lon="11.3682567"><ele>231.0</ele><time>2026-04-20T14:53:46.016Z</time></trkpt><trkpt lat="43.2098317" lon="11.3682367"><ele>231.0</ele><time>2026-04-20T14:53:47.016Z</time></trkpt><trkpt lat="43.2097467" lon="11.3682383"><ele>233.33333333333334</ele><time>2026-04-20T14:53:48.016Z</time></trkpt><trkpt lat="43.2096783" lon="11.3682633"><ele>235.66666666666669</ele><time>2026-04-20T14:53:49.015Z</time></trkpt><trkpt lat="43.2096117" lon="11.3683067"><ele>238.0</ele><time>2026-04-20T14:53:50.016Z</time></trkpt><trkpt lat="43.20955" lon="11.3683767"><ele>240.33333333333334</ele><time>2026-04-20T14:53:51.016Z</time></trkpt><trkpt lat="43.2094867" lon="11.3684583"><ele>242.66666666666669</ele><time>2026-04-20T14:53:52.016Z</time></trkpt><trkpt lat="43.209425" lon="11.3685517"><ele>245.0</ele><time>2026-04-20T14:53:53.016Z</time></trkpt><trkpt lat="43.2093583" lon="11.368655"><ele>245.0</ele><time>2026-04-20T14:53:54.016Z</time></trkpt><trkpt lat="43.20929" lon="11.3687517"><ele>245.0</ele><time>2026-04-20T14:53:55.015Z</time></trkpt><trkpt lat="43.2092233" lon="11.3688517"><ele>245.0</ele><time>2026-04-20T14:53:56.016Z</time></trkpt><trkpt lat="43.2091583" lon="11.3689533"><ele>245.0</ele><time>2026-04-20T14:53:57.015Z</time></trkpt><trkpt lat="43.2090883" lon="11.3690567"><ele>245.0</ele><time>2026-04-20T14:53:58.016Z</time></trkpt><trkpt lat="43.209015" lon="11.36917"><ele>249.75</ele><time>2026-04-20T14:53:59.016Z</time></trkpt><trkpt lat="43.208935" lon="11.369285"><ele>254.5</ele><time>2026-04-20T14:54:00.016Z</time></trkpt><trkpt lat="43.2088483" lon="11.3694033"><ele>259.25</ele><time>2026-04-20T14:54:01.016Z</time></trkpt><trkpt lat="43.2087717" lon="11.3695167"><ele>264.0</ele><time>2026-04-20T14:54:02.016Z</time></trkpt><trkpt lat="43.2087017" lon="11.3696233"><ele>261.8</ele><time>2026-04-20T14:54:03.015Z</time></trkpt><trkpt lat="43.20863" lon="11.3697217"><ele>259.59999999999997</ele><time>2026-04-20T14:54:04.015Z</time></trkpt><trkpt lat="43.2085533" lon="11.3698317"><ele>257.4</ele><time>2026-04-20T14:54:05.016Z</time></trkpt><trkpt lat="43.2084783" lon="11.3699317"><ele>255.2</ele><time>2026-04-20T14:54:06.016Z</time></trkpt><trkpt lat="43.2084067" lon="11.3700283"><ele>253.0</ele><time>2026-04-20T14:54:07.015Z</time></trkpt><trkpt lat="43.2083317" lon="11.370125"><ele>253.0</ele><time>2026-04-20T14:54:08.016Z</time></trkpt><trkpt lat="43.2082567" lon="11.3702067"><ele>253.0</ele><time>2026-04-20T14:54:09.016Z</time></trkpt><trkpt lat="43.2081833" lon="11.370295"><ele>253.0</ele><time>2026-04-20T14:54:10.016Z</time></trkpt><trkpt lat="43.2081167" lon="11.3703883"><ele>253.0</ele><time>2026-04-20T14:54:11.016Z</time></trkpt><trkpt lat="43.2080517" lon="11.3704933"><ele>253.0</ele><time>2026-04-20T14:54:12.016Z</time></trkpt><trkpt lat="43.20798" lon="11.37059"><ele>256.4</ele><time>2026-04-20T14:54:13.016Z</time></trkpt><trkpt lat="43.2079033" lon="11.3706817"><ele>259.8</ele><time>2026-04-20T14:54:14.016Z</time></trkpt><trkpt lat="43.20783" lon="11.3707733"><ele>263.2</ele><time>2026-04-20T14:54:15.016Z</time></trkpt><trkpt lat="43.20776" lon="11.37087"><ele>266.6</ele><time>2026-04-20T14:54:16.016Z</time></trkpt><trkpt lat="43.2076933" lon="11.3709667"><ele>270.0</ele><time>2026-04-20T14:54:17.016Z</time></trkpt><trkpt lat="43.2076283" lon="11.3710567"><ele>270.0</ele><time>2026-04-20T14:54:18.016Z</time></trkpt><trkpt lat="43.2075617" lon="11.3711417"><ele>270.0</ele><time>2026-04-20T14:54:19.016Z</time></trkpt><trkpt lat="43.2074917" lon="11.3712367"><ele>270.0</ele><time>2026-04-20T14:54:20.016Z</time></trkpt><trkpt lat="43.2074217" lon="11.3713317"><ele>270.0</ele><time>2026-04-20T14:54:21.016Z</time></trkpt><trkpt lat="43.2073517" lon="11.371435"><ele>270.0</ele><time>2026-04-20T14:54:22.015Z</time></trkpt><trkpt lat="43.2072817" lon="11.3715367"><ele>273.4</ele><time>2026-04-20T14:54:23.016Z</time></trkpt><trkpt lat="43.20721" lon="11.371645"><ele>276.8</ele><time>2026-04-20T14:54:24.016Z</time></trkpt><trkpt lat="43.20714" lon="11.3717633"><ele>280.2</ele><time>2026-04-20T14:54:25.016Z</time></trkpt><trkpt lat="43.2070767" lon="11.3718917"><ele>283.6</ele><time>2026-04-20T14:54:26.016Z</time></trkpt><trkpt lat="43.207025" lon="11.37201"><ele>287.0</ele><time>2026-04-20T14:54:27.016Z</time></trkpt><trkpt lat="43.206975" lon="11.3721217"><ele>284.33333333333337</ele><time>2026-04-20T14:54:28.015Z</time></trkpt><trkpt lat="43.2069367" lon="11.37221"><ele>281.6666666666667</ele><time>2026-04-20T14:54:29.016Z</time></trkpt><trkpt lat="43.2068983" lon="11.37229"><ele>279.0</ele><time>2026-04-20T14:54:30.016Z</time></trkpt><trkpt lat="43.206855" lon="11.3723633"><ele>276.3333333333333</ele><time>2026-04-20T14:54:31.016Z</time></trkpt><trkpt lat="43.206805" lon="11.3724433"><ele>273.66666666666663</ele><time>2026-04-20T14:54:32.016Z</time></trkpt><trkpt lat="43.2067483" lon="11.3725317"><ele>271.0</ele><time>2026-04-20T14:54:33.016Z</time></trkpt><trkpt lat="43.2066783" lon="11.37262"><ele>271.0</ele><time>2026-04-20T14:54:34.015Z</time></trkpt><trkpt lat="43.206595" lon="11.3727017"><ele>271.0</ele><time>2026-04-20T14:54:35.015Z</time></trkpt><trkpt lat="43.2065067" lon="11.3727767"><ele>271.0</ele><time>2026-04-20T14:54:36.016Z</time></trkpt><trkpt lat="43.206395" lon="11.3728583"><ele>271.0</ele><time>2026-04-20T14:54:37.016Z</time></trkpt><trkpt lat="43.2062917" lon="11.372915"><ele>271.0</ele><time>2026-04-20T14:54:38.016Z</time></trkpt><trkpt lat="43.206175" lon="11.3730033"><ele>270.0</ele><time>2026-04-20T14:54:39.016Z</time></trkpt><trkpt lat="43.2060683" lon="11.3730917"><ele>269.0</ele><time>2026-04-20T14:54:40.015Z</time></trkpt><trkpt lat="43.2059633" lon="11.3731783"><ele>268.0</ele><time>2026-04-20T14:54:41.016Z</time></trkpt><trkpt lat="43.20586" lon="11.3732583"><ele>267.0</ele><time>2026-04-20T14:54:42.016Z</time></trkpt><trkpt lat="43.20576" lon="11.3733483"><ele>267.0</ele><time>2026-04-20T14:54:43.016Z</time></trkpt><trkpt lat="43.2056633" lon="11.3734367"><ele>267.0</ele><time>2026-04-20T14:54:44.016Z</time></trkpt><trkpt lat="43.20558" lon="11.3735283"><ele>267.0</ele><time>2026-04-20T14:54:45.016Z</time></trkpt><trkpt lat="43.2055083" lon="11.373615"><ele>267.0</ele><time>2026-04-20T14:54:46.015Z</time></trkpt><trkpt lat="43.2054417" lon="11.3736733"><ele>267.0</ele><time>2026-04-20T14:54:47.015Z</time></trkpt><trkpt lat="43.205365" lon="11.37372"><ele>267.1666666666667</ele><time>2026-04-20T14:54:48.015Z</time></trkpt><trkpt lat="43.20529" lon="11.3737583"><ele>267.3333333333333</ele><time>2026-04-20T14:54:49.015Z</time></trkpt><trkpt lat="43.20521" lon="11.37378"><ele>267.5</ele><time>2026-04-20T14:54:50.015Z</time></trkpt><trkpt lat="43.2051267" lon="11.373785"><ele>267.66666666666663</ele><time>2026-04-20T14:54:51.015Z</time></trkpt><trkpt lat="43.20504" lon="11.3737833"><ele>267.8333333333333</ele><time>2026-04-20T14:54:52.015Z</time></trkpt><trkpt lat="43.2049467" lon="11.3737733"><ele>268.0</ele><time>2026-04-20T14:54:53.015Z</time></trkpt><trkpt lat="43.20485" lon="11.37377"><ele>267.8</ele><time>2026-04-20T14:54:54.015Z</time></trkpt><trkpt lat="43.2047483" lon="11.3737767"><ele>267.6</ele><time>2026-04-20T14:54:55.015Z</time></trkpt><trkpt lat="43.2046533" lon="11.3737817"><ele>267.4</ele><time>2026-04-20T14:54:56.014Z</time></trkpt><trkpt lat="43.2045633" lon="11.373805"><ele>267.2</ele><time>2026-04-20T14:54:57.015Z</time></trkpt><trkpt lat="43.2044633" lon="11.3738417"><ele>267.0</ele><time>2026-04-20T14:54:58.015Z</time></trkpt><trkpt lat="43.2043717" lon="11.3738767"><ele>265.2</ele><time>2026-04-20T14:54:59.015Z</time></trkpt><trkpt lat="43.20428" lon="11.3739083"><ele>263.4</ele><time>2026-04-20T14:55:00.015Z</time></trkpt><trkpt lat="43.2041883" lon="11.3739367"><ele>261.6</ele><time>2026-04-20T14:55:01.015Z</time></trkpt><trkpt lat="43.204095" lon="11.37397"><ele>259.8</ele><time>2026-04-20T14:55:02.015Z</time></trkpt><trkpt lat="43.2040033" lon="11.374005"><ele>258.0</ele><time>2026-04-20T14:55:03.015Z</time></trkpt><trkpt lat="43.2039133" lon="11.3740367"><ele>258.0</ele><time>2026-04-20T14:55:04.015Z</time></trkpt><trkpt lat="43.2038317" lon="11.37407"><ele>258.0</ele><time>2026-04-20T14:55:05.014Z</time></trkpt><trkpt lat="43.20375" lon="11.3741017"><ele>258.0</ele><time>2026-04-20T14:55:06.015Z</time></trkpt><trkpt lat="43.2036633" lon="11.3741583"><ele>258.0</ele><time>2026-04-20T14:55:07.015Z</time></trkpt><trkpt lat="43.2035867" lon="11.374225"><ele>258.0</ele><time>2026-04-20T14:55:08.015Z</time></trkpt><trkpt lat="43.203515" lon="11.374285"><ele>258.0</ele><time>2026-04-20T14:55:09.015Z</time></trkpt><trkpt lat="43.20344" lon="11.374355"><ele>258.0</ele><time>2026-04-20T14:55:10.015Z</time></trkpt><trkpt lat="43.2033533" lon="11.3744283"><ele>258.0</ele><time>2026-04-20T14:55:11.015Z</time></trkpt><trkpt lat="43.2032567" lon="11.3744817"><ele>258.0</ele><time>2026-04-20T14:55:12.015Z</time></trkpt><trkpt lat="43.2031583" lon="11.374515"><ele>258.0</ele><time>2026-04-20T14:55:13.015Z</time></trkpt><trkpt lat="43.2030517" lon="11.3745383"><ele>258.0</ele><time>2026-04-20T14:55:14.014Z</time></trkpt><trkpt lat="43.2029417" lon="11.3745617"><ele>256.8</ele><time>2026-04-20T14:55:15.015Z</time></trkpt><trkpt lat="43.202835" lon="11.374595"><ele>255.60000000000002</ele><time>2026-04-20T14:55:16.015Z</time></trkpt><trkpt lat="43.2027333" lon="11.374615"><ele>254.39999999999998</ele><time>2026-04-20T14:55:17.015Z</time></trkpt><trkpt lat="43.2026233" lon="11.37465"><ele>253.2</ele><time>2026-04-20T14:55:18.015Z</time></trkpt><trkpt lat="43.202525" lon="11.37467"><ele>252.0</ele><time>2026-04-20T14:55:19.014Z</time></trkpt><trkpt lat="43.2024283" lon="11.3746967"><ele>254.8</ele><time>2026-04-20T14:55:20.015Z</time></trkpt><trkpt lat="43.2023267" lon="11.3747167"><ele>257.6</ele><time>2026-04-20T14:55:21.014Z</time></trkpt><trkpt lat="43.2022167" lon="11.37475"><ele>260.40000000000003</ele><time>2026-04-20T14:55:22.015Z</time></trkpt><trkpt lat="43.2021117" lon="11.374785"><ele>263.2</ele><time>2026-04-20T14:55:23.015Z</time></trkpt><trkpt lat="43.202015" lon="11.3748167"><ele>266.0</ele><time>2026-04-20T14:55:24.015Z</time></trkpt><trkpt lat="43.2019217" lon="11.3748417"><ele>266.0</ele><time>2026-04-20T14:55:25.014Z</time></trkpt><trkpt lat="43.201825" lon="11.374875"><ele>266.0</ele><time>2026-04-20T14:55:26.015Z</time></trkpt><trkpt lat="43.2017317" lon="11.374925"><ele>266.0</ele><time>2026-04-20T14:55:27.015Z</time></trkpt><trkpt lat="43.20164" lon="11.3749783"><ele>266.0</ele><time>2026-04-20T14:55:28.015Z</time></trkpt><trkpt lat="43.2015533" lon="11.375025"><ele>266.0</ele><time>2026-04-20T14:55:29.015Z</time></trkpt><trkpt lat="43.2014783" lon="11.3750933"><ele>266.83333333333337</ele><time>2026-04-20T14:55:30.015Z</time></trkpt><trkpt lat="43.2014" lon="11.3751717"><ele>267.6666666666667</ele><time>2026-04-20T14:55:31.015Z</time></trkpt><trkpt lat="43.201315" lon="11.3752417"><ele>268.5</ele><time>2026-04-20T14:55:32.015Z</time></trkpt><trkpt lat="43.201235" lon="11.3752933"><ele>269.3333333333333</ele><time>2026-04-20T14:55:33.015Z</time></trkpt><trkpt lat="43.2011583" lon="11.3753433"><ele>270.16666666666663</ele><time>2026-04-20T14:55:34.014Z</time></trkpt><trkpt lat="43.2010933" lon="11.3753833"><ele>271.0</ele><time>2026-04-20T14:55:35.015Z</time></trkpt><trkpt lat="43.2009883" lon="11.37541"><ele>271.0</ele><time>2026-04-20T14:55:37.015Z</time></trkpt><trkpt lat="43.200895" lon="11.375375"><ele>271.0</ele><time>2026-04-20T14:55:39.015Z</time></trkpt><trkpt lat="43.2008267" lon="11.375355"><ele>271.0</ele><time>2026-04-20T14:55:40.015Z</time></trkpt><trkpt lat="43.2007533" lon="11.3753233"><ele>271.0</ele><time>2026-04-20T14:55:41.015Z</time></trkpt><trkpt lat="43.2006833" lon="11.3752867"><ele>271.0</ele><time>2026-04-20T14:55:42.015Z</time></trkpt><trkpt lat="43.20062" lon="11.375245"><ele>271.0</ele><time>2026-04-20T14:55:43.015Z</time></trkpt><trkpt lat="43.20056" lon="11.3752067"><ele>268.5</ele><time>2026-04-20T14:55:44.015Z</time></trkpt><trkpt lat="43.200495" lon="11.37517"><ele>266.0</ele><time>2026-04-20T14:55:45.014Z</time></trkpt><trkpt lat="43.2004317" lon="11.375135"><ele>263.5</ele><time>2026-04-20T14:55:46.015Z</time></trkpt><trkpt lat="43.2003733" lon="11.3750967"><ele>261.0</ele><time>2026-04-20T14:55:47.015Z</time></trkpt><trkpt lat="43.2003133" lon="11.3750633"><ele>258.5</ele><time>2026-04-20T14:55:48.015Z</time></trkpt><trkpt lat="43.2002467" lon="11.37503"><ele>256.0</ele><time>2026-04-20T14:55:49.015Z</time></trkpt><trkpt lat="43.200135" lon="11.3750117"><ele>255.99999999999997</ele><time>2026-04-20T14:55:51.014Z</time></trkpt><trkpt lat="43.200035" lon="11.3750633"><ele>256.0</ele><time>2026-04-20T14:55:53.015Z</time></trkpt><trkpt lat="43.1999867" lon="11.3751217"><ele>256.0</ele><time>2026-04-20T14:55:54.015Z</time></trkpt><trkpt lat="43.199945" lon="11.3751967"><ele>256.0</ele><time>2026-04-20T14:55:55.015Z</time></trkpt><trkpt lat="43.199905" lon="11.3752883"><ele>255.99999999999997</ele><time>2026-04-20T14:55:56.015Z</time></trkpt><trkpt lat="43.1998717" lon="11.3753833"><ele>256.0</ele><time>2026-04-20T14:55:57.015Z</time></trkpt><trkpt lat="43.1998183" lon="11.37548"><ele>253.99999999999997</ele><time>2026-04-20T14:55:58.015Z</time></trkpt><trkpt lat="43.1997633" lon="11.3755733"><ele>252.0</ele><time>2026-04-20T14:55:59.015Z</time></trkpt><trkpt lat="43.199695" lon="11.3756583"><ele>250.0</ele><time>2026-04-20T14:56:00.015Z</time></trkpt><trkpt lat="43.199635" lon="11.37573"><ele>248.0</ele><time>2026-04-20T14:56:01.015Z</time></trkpt><trkpt lat="43.19957" lon="11.375805"><ele>245.99999999999997</ele><time>2026-04-20T14:56:02.015Z</time></trkpt><trkpt lat="43.1995067" lon="11.37588"><ele>244.0</ele><time>2026-04-20T14:56:03.015Z</time></trkpt><trkpt lat="43.1994483" lon="11.375955"><ele>244.0</ele><time>2026-04-20T14:56:04.015Z</time></trkpt><trkpt lat="43.1993817" lon="11.3760283"><ele>243.99999999999997</ele><time>2026-04-20T14:56:05.014Z</time></trkpt><trkpt lat="43.1993017" lon="11.3760967"><ele>243.99999999999997</ele><time>2026-04-20T14:56:06.015Z</time></trkpt><trkpt lat="43.1992233" lon="11.3761483"><ele>244.0</ele><time>2026-04-20T14:56:07.015Z</time></trkpt><trkpt lat="43.1991383" lon="11.3761933"><ele>244.0</ele><time>2026-04-20T14:56:08.014Z</time></trkpt><trkpt lat="43.1990383" lon="11.3762267"><ele>243.2</ele><time>2026-04-20T14:56:09.015Z</time></trkpt><trkpt lat="43.1989283" lon="11.37625"><ele>242.39999999999998</ele><time>2026-04-20T14:56:10.015Z</time></trkpt><trkpt lat="43.19882" lon="11.3762733"><ele>241.6</ele><time>2026-04-20T14:56:11.014Z</time></trkpt><trkpt lat="43.1987067" lon="11.3763"><ele>240.8</ele><time>2026-04-20T14:56:12.015Z</time></trkpt><trkpt lat="43.1985983" lon="11.3763333"><ele>240.0</ele><time>2026-04-20T14:56:13.015Z</time></trkpt><trkpt lat="43.1984967" lon="11.3763867"><ele>240.0</ele><time>2026-04-20T14:56:14.015Z</time></trkpt><trkpt lat="43.198395" lon="11.3764417"><ele>240.0</ele><time>2026-04-20T14:56:15.015Z</time></trkpt><trkpt lat="43.1982933" lon="11.3765067"><ele>240.0</ele><time>2026-04-20T14:56:16.015Z</time></trkpt><trkpt lat="43.1982" lon="11.3765917"><ele>240.0</ele><time>2026-04-20T14:56:17.015Z</time></trkpt><trkpt lat="43.198115" lon="11.3766833"><ele>240.0</ele><time>2026-04-20T14:56:18.015Z</time></trkpt><trkpt lat="43.1980317" lon="11.3767783"><ele>239.0</ele><time>2026-04-20T14:56:19.015Z</time></trkpt><trkpt lat="43.19794" lon="11.3768767"><ele>238.0</ele><time>2026-04-20T14:56:20.015Z</time></trkpt><trkpt lat="43.1978383" lon="11.3769717"><ele>237.0</ele><time>2026-04-20T14:56:21.014Z</time></trkpt><trkpt lat="43.1977283" lon="11.37707"><ele>236.0</ele><time>2026-04-20T14:56:22.015Z</time></trkpt><trkpt lat="43.1976233" lon="11.377155"><ele>237.0</ele><time>2026-04-20T14:56:23.015Z</time></trkpt><trkpt lat="43.19751" lon="11.3772367"><ele>238.0</ele><time>2026-04-20T14:56:24.014Z</time></trkpt><trkpt lat="43.1973983" lon="11.3773167"><ele>239.0</ele><time>2026-04-20T14:56:25.014Z</time></trkpt><trkpt lat="43.1972833" lon="11.3773933"><ele>240.0</ele><time>2026-04-20T14:56:26.014Z</time></trkpt><trkpt lat="43.1971683" lon="11.37747"><ele>238.4</ele><time>2026-04-20T14:56:27.015Z</time></trkpt><trkpt lat="43.1970583" lon="11.3775383"><ele>236.8</ele><time>2026-04-20T14:56:28.015Z</time></trkpt><trkpt lat="43.1969567" lon="11.3775983"><ele>235.2</ele><time>2026-04-20T14:56:29.014Z</time></trkpt><trkpt lat="43.19686" lon="11.377665"><ele>233.6</ele><time>2026-04-20T14:56:30.015Z</time></trkpt><trkpt lat="43.1967633" lon="11.3777283"><ele>232.0</ele><time>2026-04-20T14:56:31.015Z</time></trkpt><trkpt lat="43.1966667" lon="11.3777967"><ele>232.0</ele><time>2026-04-20T14:56:32.015Z</time></trkpt><trkpt lat="43.1965633" lon="11.3778733"><ele>232.0</ele><time>2026-04-20T14:56:33.015Z</time></trkpt><trkpt lat="43.196455" lon="11.37795"><ele>232.0</ele><time>2026-04-20T14:56:34.015Z</time></trkpt><trkpt lat="43.1963467" lon="11.3780183"><ele>232.0</ele><time>2026-04-20T14:56:35.015Z</time></trkpt><trkpt lat="43.1962433" lon="11.3780867"><ele>232.5</ele><time>2026-04-20T14:56:36.015Z</time></trkpt><trkpt lat="43.1961333" lon="11.3781617"><ele>233.0</ele><time>2026-04-20T14:56:37.015Z</time></trkpt><trkpt lat="43.1960217" lon="11.3782267"><ele>233.5</ele><time>2026-04-20T14:56:38.015Z</time></trkpt><trkpt lat="43.19591" lon="11.3783"><ele>234.0</ele><time>2026-04-20T14:56:39.015Z</time></trkpt><trkpt lat="43.1957883" lon="11.37837"><ele>233.0</ele><time>2026-04-20T14:56:40.015Z</time></trkpt><trkpt lat="43.195665" lon="11.3784267"><ele>232.0</ele><time>2026-04-20T14:56:41.015Z</time></trkpt><trkpt lat="43.1955467" lon="11.3784817"><ele>231.0</ele><time>2026-04-20T14:56:42.015Z</time></trkpt><trkpt lat="43.1954283" lon="11.378545"><ele>230.0</ele><time>2026-04-20T14:56:43.014Z</time></trkpt><trkpt lat="43.19532" lon="11.378605"><ele>230.0</ele><time>2026-04-20T14:56:44.015Z</time></trkpt><trkpt lat="43.19522" lon="11.3786833"><ele>230.0</ele><time>2026-04-20T14:56:45.015Z</time></trkpt><trkpt lat="43.1951317" lon="11.378775"><ele>230.0</ele><time>2026-04-20T14:56:46.015Z</time></trkpt><trkpt lat="43.1950467" lon="11.3788767"><ele>230.0</ele><time>2026-04-20T14:56:47.015Z</time></trkpt><trkpt lat="43.1949667" lon="11.3789817"><ele>230.0</ele><time>2026-04-20T14:56:48.015Z</time></trkpt><trkpt lat="43.1948883" lon="11.3790933"><ele>229.4</ele><time>2026-04-20T14:56:49.015Z</time></trkpt><trkpt lat="43.19482" lon="11.3792083"><ele>228.8</ele><time>2026-04-20T14:56:50.015Z</time></trkpt><trkpt lat="43.194755" lon="11.3793283"><ele>228.2</ele><time>2026-04-20T14:56:51.015Z</time></trkpt><trkpt lat="43.1946933" lon="11.3794567"><ele>227.6</ele><time>2026-04-20T14:56:52.015Z</time></trkpt><trkpt lat="43.1946433" lon="11.379605"><ele>227.0</ele><time>2026-04-20T14:56:53.015Z</time></trkpt><trkpt lat="43.1946017" lon="11.3797633"><ele>227.0</ele><time>2026-04-20T14:56:54.015Z</time></trkpt><trkpt lat="43.19457" lon="11.379935"><ele>227.0</ele><time>2026-04-20T14:56:55.015Z</time></trkpt><trkpt lat="43.1945517" lon="11.38011"><ele>227.0</ele><time>2026-04-20T14:56:56.015Z</time></trkpt><trkpt lat="43.1945317" lon="11.38029"><ele>227.0</ele><time>2026-04-20T14:56:57.015Z</time></trkpt><trkpt lat="43.1945217" lon="11.3804633"><ele>227.25</ele><time>2026-04-20T14:56:58.015Z</time></trkpt><trkpt lat="43.1945083" lon="11.38063"><ele>227.5</ele><time>2026-04-20T14:56:59.015Z</time></trkpt><trkpt lat="43.194495" lon="11.3807917"><ele>227.75</ele><time>2026-04-20T14:57:00.015Z</time></trkpt><trkpt lat="43.19446" lon="11.3809533"><ele>228.0</ele><time>2026-04-20T14:57:01.015Z</time></trkpt><trkpt lat="43.1944167" lon="11.3811033"><ele>228.0</ele><time>2026-04-20T14:57:02.015Z</time></trkpt><trkpt lat="43.1943633" lon="11.3812533"><ele>228.0</ele><time>2026-04-20T14:57:03.014Z</time></trkpt><trkpt lat="43.19431" lon="11.3813983"><ele>228.0</ele><time>2026-04-20T14:57:04.015Z</time></trkpt><trkpt lat="43.19425" lon="11.3815633"><ele>228.0</ele><time>2026-04-20T14:57:05.014Z</time></trkpt><trkpt lat="43.1941967" lon="11.3817217"><ele>228.0</ele><time>2026-04-20T14:57:06.015Z</time></trkpt><trkpt lat="43.1941483" lon="11.381875"><ele>228.0</ele><time>2026-04-20T14:57:07.014Z</time></trkpt><trkpt lat="43.19409" lon="11.38203"><ele>228.0</ele><time>2026-04-20T14:57:08.015Z</time></trkpt><trkpt lat="43.1940283" lon="11.3821933"><ele>228.0</ele><time>2026-04-20T14:57:09.015Z</time></trkpt><trkpt lat="43.1939717" lon="11.38237"><ele>226.25</ele><time>2026-04-20T14:57:10.015Z</time></trkpt><trkpt lat="43.1939117" lon="11.3825367"><ele>224.5</ele><time>2026-04-20T14:57:11.014Z</time></trkpt><trkpt lat="43.1938483" lon="11.3826967"><ele>222.75</ele><time>2026-04-20T14:57:12.014Z</time></trkpt><trkpt lat="43.193795" lon="11.3828467"><ele>221.0</ele><time>2026-04-20T14:57:13.015Z</time></trkpt><trkpt lat="43.193745" lon="11.382985"><ele>222.0</ele><time>2026-04-20T14:57:14.015Z</time></trkpt><trkpt lat="43.1936983" lon="11.3831233"><ele>223.00000000000003</ele><time>2026-04-20T14:57:15.015Z</time></trkpt><trkpt lat="43.19364" lon="11.3832483"><ele>224.00000000000003</ele><time>2026-04-20T14:57:16.015Z</time></trkpt><trkpt lat="43.193565" lon="11.38335"><ele>225.0</ele><time>2026-04-20T14:57:17.015Z</time></trkpt><trkpt lat="43.1934783" lon="11.383435"><ele>226.0</ele><time>2026-04-20T14:57:18.015Z</time></trkpt><trkpt lat="43.1933883" lon="11.383505"><ele>226.0</ele><time>2026-04-20T14:57:19.015Z</time></trkpt><trkpt lat="43.1932883" lon="11.3835683"><ele>226.0</ele><time>2026-04-20T14:57:20.015Z</time></trkpt><trkpt lat="43.1931767" lon="11.3836133"><ele>226.0</ele><time>2026-04-20T14:57:21.015Z</time></trkpt><trkpt lat="43.193065" lon="11.3836567"><ele>226.0</ele><time>2026-04-20T14:57:22.015Z</time></trkpt><trkpt lat="43.1929567" lon="11.3837067"><ele>225.5</ele><time>2026-04-20T14:57:23.015Z</time></trkpt><trkpt lat="43.192855" lon="11.3837633"><ele>225.0</ele><time>2026-04-20T14:57:24.015Z</time></trkpt><trkpt lat="43.1927483" lon="11.383825"><ele>224.5</ele><time>2026-04-20T14:57:25.015Z</time></trkpt><trkpt lat="43.1926317" lon="11.3838833"><ele>224.0</ele><time>2026-04-20T14:57:26.015Z</time></trkpt><trkpt lat="43.1925117" lon="11.3839217"><ele>224.0</ele><time>2026-04-20T14:57:27.015Z</time></trkpt><trkpt lat="43.1923817" lon="11.38395"><ele>224.0</ele><time>2026-04-20T14:57:28.015Z</time></trkpt><trkpt lat="43.1922567" lon="11.3839667"><ele>224.0</ele><time>2026-04-20T14:57:29.014Z</time></trkpt><trkpt lat="43.1921367" lon="11.3839667"><ele>224.0</ele><time>2026-04-20T14:57:30.015Z</time></trkpt><trkpt lat="43.1920217" lon="11.3839667"><ele>224.2</ele><time>2026-04-20T14:57:31.015Z</time></trkpt><trkpt lat="43.19192" lon="11.3839617"><ele>224.39999999999998</ele><time>2026-04-20T14:57:32.015Z</time></trkpt><trkpt lat="43.1918233" lon="11.3839817"><ele>224.6</ele><time>2026-04-20T14:57:33.015Z</time></trkpt><trkpt lat="43.1917367" lon="11.3840233"><ele>224.8</ele><time>2026-04-20T14:57:34.015Z</time></trkpt><trkpt lat="43.191665" lon="11.384085"><ele>225.0</ele><time>2026-04-20T14:57:35.014Z</time></trkpt><trkpt lat="43.191595" lon="11.38416"><ele>225.0</ele><time>2026-04-20T14:57:36.015Z</time></trkpt><trkpt lat="43.1915217" lon="11.3842567"><ele>225.0</ele><time>2026-04-20T14:57:37.015Z</time></trkpt><trkpt lat="43.1914467" lon="11.38436"><ele>225.0</ele><time>2026-04-20T14:57:38.014Z</time></trkpt><trkpt lat="43.19138" lon="11.3844733"><ele>225.0</ele><time>2026-04-20T14:57:39.015Z</time></trkpt><trkpt lat="43.1913117" lon="11.3845833"><ele>225.0</ele><time>2026-04-20T14:57:40.015Z</time></trkpt><trkpt lat="43.1912417" lon="11.3846833"><ele>225.6</ele><time>2026-04-20T14:57:41.015Z</time></trkpt><trkpt lat="43.1911733" lon="11.38478"><ele>226.2</ele><time>2026-04-20T14:57:42.015Z</time></trkpt><trkpt lat="43.1911" lon="11.3848783"><ele>226.8</ele><time>2026-04-20T14:57:43.014Z</time></trkpt><trkpt lat="43.1910233" lon="11.384965"><ele>227.4</ele><time>2026-04-20T14:57:44.015Z</time></trkpt><trkpt lat="43.1909483" lon="11.3850517"><ele>228.0</ele><time>2026-04-20T14:57:45.015Z</time></trkpt><trkpt lat="43.1908667" lon="11.3851367"><ele>228.0</ele><time>2026-04-20T14:57:46.015Z</time></trkpt><trkpt lat="43.190775" lon="11.3852017"><ele>228.0</ele><time>2026-04-20T14:57:47.015Z</time></trkpt><trkpt lat="43.190675" lon="11.385265"><ele>228.0</ele><time>2026-04-20T14:57:48.015Z</time></trkpt><trkpt lat="43.1905767" lon="11.3853333"><ele>228.0</ele><time>2026-04-20T14:57:49.015Z</time></trkpt><trkpt lat="43.190475" lon="11.3853917"><ele>228.0</ele><time>2026-04-20T14:57:50.014Z</time></trkpt><trkpt lat="43.1903767" lon="11.385445"><ele>229.0</ele><time>2026-04-20T14:57:51.015Z</time></trkpt><trkpt lat="43.1902683" lon="11.3854983"><ele>230.0</ele><time>2026-04-20T14:57:52.015Z</time></trkpt><trkpt lat="43.1901483" lon="11.3855417"><ele>231.0</ele><time>2026-04-20T14:57:53.014Z</time></trkpt><trkpt lat="43.190035" lon="11.3855783"><ele>232.0</ele><time>2026-04-20T14:57:54.014Z</time></trkpt><trkpt lat="43.1899167" lon="11.385605"><ele>228.75</ele><time>2026-04-20T14:57:55.014Z</time></trkpt><trkpt lat="43.1897933" lon="11.3856183"><ele>225.5</ele><time>2026-04-20T14:57:56.015Z</time></trkpt><trkpt lat="43.1896667" lon="11.385645"><ele>222.25</ele><time>2026-04-20T14:57:57.015Z</time></trkpt><trkpt lat="43.1895367" lon="11.385685"><ele>219.0</ele><time>2026-04-20T14:57:58.015Z</time></trkpt><trkpt lat="43.1894167" lon="11.385715"><ele>219.0</ele><time>2026-04-20T14:57:59.015Z</time></trkpt><trkpt lat="43.1892967" lon="11.385765"><ele>219.0</ele><time>2026-04-20T14:58:00.015Z</time></trkpt><trkpt lat="43.1891733" lon="11.385805"><ele>219.0</ele><time>2026-04-20T14:58:01.015Z</time></trkpt><trkpt lat="43.1890567" lon="11.38585"><ele>219.0</ele><time>2026-04-20T14:58:02.014Z</time></trkpt><trkpt lat="43.1889367" lon="11.38589"><ele>220.39999999999998</ele><time>2026-04-20T14:58:03.015Z</time></trkpt><trkpt lat="43.1888233" lon="11.3859283"><ele>221.79999999999998</ele><time>2026-04-20T14:58:04.014Z</time></trkpt><trkpt lat="43.1887167" lon="11.3859583"><ele>223.20000000000002</ele><time>2026-04-20T14:58:05.015Z</time></trkpt><trkpt lat="43.18862" lon="11.3859617"><ele>224.60000000000002</ele><time>2026-04-20T14:58:06.014Z</time></trkpt><trkpt lat="43.1885167" lon="11.3859433"><ele>226.0</ele><time>2026-04-20T14:58:07.014Z</time></trkpt><trkpt lat="43.1884167" lon="11.3859017"><ele>226.0</ele><time>2026-04-20T14:58:08.015Z</time></trkpt><trkpt lat="43.1883283" lon="11.3858317"><ele>226.00000000000003</ele><time>2026-04-20T14:58:09.015Z</time></trkpt><trkpt lat="43.1882533" lon="11.3857617"><ele>226.00000000000003</ele><time>2026-04-20T14:58:10.014Z</time></trkpt><trkpt lat="43.1881767" lon="11.3856933"><ele>226.0</ele><time>2026-04-20T14:58:11.015Z</time></trkpt><trkpt lat="43.1881033" lon="11.3856183"><ele>226.0</ele><time>2026-04-20T14:58:12.015Z</time></trkpt><trkpt lat="43.1880217" lon="11.3855567"><ele>228.8</ele><time>2026-04-20T14:58:13.014Z</time></trkpt><trkpt lat="43.1879333" lon="11.385505"><ele>231.60000000000002</ele><time>2026-04-20T14:58:14.014Z</time></trkpt><trkpt lat="43.1878467" lon="11.3854533"><ele>234.4</ele><time>2026-04-20T14:58:15.014Z</time></trkpt><trkpt lat="43.1877517" lon="11.3854017"><ele>237.2</ele><time>2026-04-20T14:58:16.015Z</time></trkpt><trkpt lat="43.18765" lon="11.3853567"><ele>240.0</ele><time>2026-04-20T14:58:17.015Z</time></trkpt><trkpt lat="43.1875433" lon="11.3853167"><ele>240.0</ele><time>2026-04-20T14:58:18.014Z</time></trkpt><trkpt lat="43.1874317" lon="11.3852867"><ele>240.0</ele><time>2026-04-20T14:58:19.015Z</time></trkpt><trkpt lat="43.1873317" lon="11.385265"><ele>240.0</ele><time>2026-04-20T14:58:20.015Z</time></trkpt><trkpt lat="43.1872333" lon="11.3852583"><ele>240.0</ele><time>2026-04-20T14:58:21.015Z</time></trkpt><trkpt lat="43.1871233" lon="11.3852683"><ele>240.0</ele><time>2026-04-20T14:58:22.015Z</time></trkpt><trkpt lat="43.1870133" lon="11.3852867"><ele>242.0</ele><time>2026-04-20T14:58:23.015Z</time></trkpt><trkpt lat="43.186895" lon="11.385325"><ele>244.0</ele><time>2026-04-20T14:58:24.015Z</time></trkpt><trkpt lat="43.1867783" lon="11.3853533"><ele>246.0</ele><time>2026-04-20T14:58:25.015Z</time></trkpt><trkpt lat="43.1866633" lon="11.3853817"><ele>248.0</ele><time>2026-04-20T14:58:26.014Z</time></trkpt><trkpt lat="43.1865417" lon="11.385405"><ele>250.0</ele><time>2026-04-20T14:58:27.015Z</time></trkpt><trkpt lat="43.1864183" lon="11.3854233"><ele>252.0</ele><time>2026-04-20T14:58:28.015Z</time></trkpt><trkpt lat="43.1863033" lon="11.3854267"><ele>254.0</ele><time>2026-04-20T14:58:29.015Z</time></trkpt><trkpt lat="43.1861817" lon="11.3854267"><ele>256.0</ele><time>2026-04-20T14:58:30.015Z</time></trkpt><trkpt lat="43.18606" lon="11.3854267"><ele>256.0</ele><time>2026-04-20T14:58:31.015Z</time></trkpt><trkpt lat="43.1859417" lon="11.3854283"><ele>256.0</ele><time>2026-04-20T14:58:32.015Z</time></trkpt><trkpt lat="43.185825" lon="11.38544"><ele>256.0</ele><time>2026-04-20T14:58:33.015Z</time></trkpt><trkpt lat="43.1857117" lon="11.3854433"><ele>256.0</ele><time>2026-04-20T14:58:34.015Z</time></trkpt><trkpt lat="43.1855967" lon="11.3854467"><ele>258.2</ele><time>2026-04-20T14:58:35.015Z</time></trkpt><trkpt lat="43.1855017" lon="11.3854267"><ele>260.40000000000003</ele><time>2026-04-20T14:58:36.014Z</time></trkpt><trkpt lat="43.1854067" lon="11.3853817"><ele>262.6</ele><time>2026-04-20T14:58:37.015Z</time></trkpt><trkpt lat="43.18532" lon="11.38532"><ele>264.8</ele><time>2026-04-20T14:58:38.014Z</time></trkpt><trkpt lat="43.185235" lon="11.3852433"><ele>267.0</ele><time>2026-04-20T14:58:39.015Z</time></trkpt><trkpt lat="43.1851567" lon="11.3851567"><ele>267.0</ele><time>2026-04-20T14:58:40.014Z</time></trkpt><trkpt lat="43.185085" lon="11.385055"><ele>267.0</ele><time>2026-04-20T14:58:41.014Z</time></trkpt><trkpt lat="43.185015" lon="11.3849433"><ele>267.0</ele><time>2026-04-20T14:58:42.015Z</time></trkpt><trkpt lat="43.1849517" lon="11.3848317"><ele>267.0</ele><time>2026-04-20T14:58:43.015Z</time></trkpt><trkpt lat="43.1848933" lon="11.3847333"><ele>267.0</ele><time>2026-04-20T14:58:44.015Z</time></trkpt><trkpt lat="43.18483" lon="11.3846217"><ele>268.6</ele><time>2026-04-20T14:58:45.015Z</time></trkpt><trkpt lat="43.1847567" lon="11.3845217"><ele>270.2</ele><time>2026-04-20T14:58:46.015Z</time></trkpt><trkpt lat="43.18467" lon="11.3844217"><ele>271.8</ele><time>2026-04-20T14:58:47.015Z</time></trkpt><trkpt lat="43.1845717" lon="11.3843383"><ele>273.4</ele><time>2026-04-20T14:58:48.015Z</time></trkpt><trkpt lat="43.1844817" lon="11.3842467"><ele>275.0</ele><time>2026-04-20T14:58:49.014Z</time></trkpt><trkpt lat="43.18438" lon="11.38415"><ele>275.0</ele><time>2026-04-20T14:58:50.015Z</time></trkpt><trkpt lat="43.1842783" lon="11.384065"><ele>275.0</ele><time>2026-04-20T14:58:51.015Z</time></trkpt><trkpt lat="43.184185" lon="11.384"><ele>275.0</ele><time>2026-04-20T14:58:52.015Z</time></trkpt><trkpt lat="43.1840783" lon="11.383935"><ele>275.0</ele><time>2026-04-20T14:58:53.014Z</time></trkpt><trkpt lat="43.183975" lon="11.383885"><ele>274.8</ele><time>2026-04-20T14:58:54.015Z</time></trkpt><trkpt lat="43.1838733" lon="11.3838367"><ele>274.6</ele><time>2026-04-20T14:58:55.014Z</time></trkpt><trkpt lat="43.1837667" lon="11.3837933"><ele>274.4</ele><time>2026-04-20T14:58:56.015Z</time></trkpt><trkpt lat="43.1836633" lon="11.3837633"><ele>274.2</ele><time>2026-04-20T14:58:57.015Z</time></trkpt><trkpt lat="43.1835667" lon="11.3837317"><ele>274.0</ele><time>2026-04-20T14:58:58.015Z</time></trkpt><trkpt lat="43.1834667" lon="11.3836967"><ele>274.0</ele><time>2026-04-20T14:58:59.015Z</time></trkpt><trkpt lat="43.18337" lon="11.38366"><ele>274.0</ele><time>2026-04-20T14:59:00.015Z</time></trkpt><trkpt lat="43.1832867" lon="11.3836167"><ele>274.0</ele><time>2026-04-20T14:59:01.014Z</time></trkpt><trkpt lat="43.1832067" lon="11.3835767"><ele>274.0</ele><time>2026-04-20T14:59:02.014Z</time></trkpt><trkpt lat="43.1831217" lon="11.38354"><ele>274.0</ele><time>2026-04-20T14:59:03.015Z</time></trkpt><trkpt lat="43.1830367" lon="11.3835133"><ele>273.4</ele><time>2026-04-20T14:59:04.015Z</time></trkpt><trkpt lat="43.18295" lon="11.3834717"><ele>272.79999999999995</ele><time>2026-04-20T14:59:05.015Z</time></trkpt><trkpt lat="43.18285" lon="11.38343"><ele>272.20000000000005</ele><time>2026-04-20T14:59:06.015Z</time></trkpt><trkpt lat="43.182745" lon="11.3833883"><ele>271.6</ele><time>2026-04-20T14:59:07.015Z</time></trkpt><trkpt lat="43.1826517" lon="11.3833483"><ele>271.0</ele><time>2026-04-20T14:59:08.015Z</time></trkpt><trkpt lat="43.1825517" lon="11.3833033"><ele>271.0</ele><time>2026-04-20T14:59:09.015Z</time></trkpt><trkpt lat="43.1824567" lon="11.3832533"><ele>271.0</ele><time>2026-04-20T14:59:10.014Z</time></trkpt><trkpt lat="43.18236" lon="11.38321"><ele>271.0</ele><time>2026-04-20T14:59:11.015Z</time></trkpt><trkpt lat="43.1822733" lon="11.383175"><ele>271.0</ele><time>2026-04-20T14:59:12.014Z</time></trkpt><trkpt lat="43.1821833" lon="11.38314"><ele>271.0</ele><time>2026-04-20T14:59:13.014Z</time></trkpt><trkpt lat="43.1820833" lon="11.3831133"><ele>270.6</ele><time>2026-04-20T14:59:14.014Z</time></trkpt><trkpt lat="43.1819883" lon="11.38309"><ele>270.20000000000005</ele><time>2026-04-20T14:59:15.015Z</time></trkpt><trkpt lat="43.181885" lon="11.383065"><ele>269.79999999999995</ele><time>2026-04-20T14:59:16.015Z</time></trkpt><trkpt lat="43.181785" lon="11.3830417"><ele>269.4</ele><time>2026-04-20T14:59:17.014Z</time></trkpt><trkpt lat="43.181685" lon="11.383025"><ele>269.0</ele><time>2026-04-20T14:59:18.015Z</time></trkpt><trkpt lat="43.1815983" lon="11.3830067"><ele>268.4</ele><time>2026-04-20T14:59:19.015Z</time></trkpt><trkpt lat="43.181505" lon="11.38299"><ele>267.79999999999995</ele><time>2026-04-20T14:59:20.015Z</time></trkpt><trkpt lat="43.1814167" lon="11.3829683"><ele>267.20000000000005</ele><time>2026-04-20T14:59:21.015Z</time></trkpt><trkpt lat="43.1813317" lon="11.3829467"><ele>266.6</ele><time>2026-04-20T14:59:22.015Z</time></trkpt><trkpt lat="43.1812433" lon="11.3829117"><ele>266.0</ele><time>2026-04-20T14:59:23.014Z</time></trkpt><trkpt lat="43.18116" lon="11.382865"><ele>266.0</ele><time>2026-04-20T14:59:24.015Z</time></trkpt><trkpt lat="43.1810733" lon="11.38283"><ele>266.0</ele><time>2026-04-20T14:59:25.015Z</time></trkpt><trkpt lat="43.1810017" lon="11.38279"><ele>266.0</ele><time>2026-04-20T14:59:26.015Z</time></trkpt><trkpt lat="43.1809433" lon="11.3827533"><ele>266.0</ele><time>2026-04-20T14:59:27.015Z</time></trkpt><trkpt lat="43.180865" lon="11.3827"><ele>266.0</ele><time>2026-04-20T14:59:29.014Z</time></trkpt><trkpt lat="43.1807883" lon="11.3827033"><ele>266.0</ele><time>2026-04-20T14:59:31.014Z</time></trkpt><trkpt lat="43.18073" lon="11.3827383"><ele>266.0</ele><time>2026-04-20T14:59:32.015Z</time></trkpt><trkpt lat="43.18067" lon="11.3828"><ele>266.0</ele><time>2026-04-20T14:59:33.015Z</time></trkpt><trkpt lat="43.1806" lon="11.3828767"><ele>266.0</ele><time>2026-04-20T14:59:34.015Z</time></trkpt><trkpt lat="43.18052" lon="11.3829633"><ele>266.0</ele><time>2026-04-20T14:59:35.015Z</time></trkpt><trkpt lat="43.1804433" lon="11.3830467"><ele>266.0</ele><time>2026-04-20T14:59:36.015Z</time></trkpt><trkpt lat="43.1803533" lon="11.3831217"><ele>266.0</ele><time>2026-04-20T14:59:37.015Z</time></trkpt><trkpt lat="43.180255" lon="11.383205"><ele>266.0</ele><time>2026-04-20T14:59:38.015Z</time></trkpt><trkpt lat="43.18015" lon="11.3832983"><ele>266.0</ele><time>2026-04-20T14:59:39.015Z</time></trkpt><trkpt lat="43.1800467" lon="11.3833833"><ele>266.0</ele><time>2026-04-20T14:59:40.015Z</time></trkpt><trkpt lat="43.1799367" lon="11.3834467"><ele>265.25</ele><time>2026-04-20T14:59:41.015Z</time></trkpt><trkpt lat="43.17982" lon="11.383515"><ele>264.5</ele><time>2026-04-20T14:59:42.015Z</time></trkpt><trkpt lat="43.1797033" lon="11.38358"><ele>263.75</ele><time>2026-04-20T14:59:43.015Z</time></trkpt><trkpt lat="43.1795883" lon="11.3836433"><ele>263.0</ele><time>2026-04-20T14:59:44.015Z</time></trkpt><trkpt lat="43.17947" lon="11.3837067"><ele>263.0</ele><time>2026-04-20T14:59:45.015Z</time></trkpt><trkpt lat="43.1793567" lon="11.38377"><ele>263.0</ele><time>2026-04-20T14:59:46.015Z</time></trkpt><trkpt lat="43.1792417" lon="11.383835"><ele>263.0</ele><time>2026-04-20T14:59:47.015Z</time></trkpt><trkpt lat="43.1791267" lon="11.3839033"><ele>263.0</ele><time>2026-04-20T14:59:48.015Z</time></trkpt><trkpt lat="43.179005" lon="11.3839617"><ele>264.5</ele><time>2026-04-20T14:59:49.014Z</time></trkpt><trkpt lat="43.1788933" lon="11.384025"><ele>266.0</ele><time>2026-04-20T14:59:50.015Z</time></trkpt><trkpt lat="43.1787817" lon="11.384105"><ele>267.5</ele><time>2026-04-20T14:59:51.015Z</time></trkpt><trkpt lat="43.1786767" lon="11.3842117"><ele>269.0</ele><time>2026-04-20T14:59:52.015Z</time></trkpt><trkpt lat="43.17858" lon="11.3843417"><ele>269.0</ele><time>2026-04-20T14:59:53.015Z</time></trkpt><trkpt lat="43.1784733" lon="11.3844883"><ele>269.0</ele><time>2026-04-20T14:59:54.015Z</time></trkpt><trkpt lat="43.1783517" lon="11.38463"><ele>269.0</ele><time>2026-04-20T14:59:55.015Z</time></trkpt><trkpt lat="43.1782317" lon="11.3847633"><ele>269.0</ele><time>2026-04-20T14:59:56.014Z</time></trkpt><trkpt lat="43.178115" lon="11.3848833"><ele>269.0</ele><time>2026-04-20T14:59:57.015Z</time></trkpt><trkpt lat="43.1779917" lon="11.3849933"><ele>269.0</ele><time>2026-04-20T14:59:58.015Z</time></trkpt><trkpt lat="43.17787" lon="11.38509"><ele>269.0</ele><time>2026-04-20T14:59:59.014Z</time></trkpt><trkpt lat="43.1777433" lon="11.3851883"><ele>269.0</ele><time>2026-04-20T15:00:00.014Z</time></trkpt><trkpt lat="43.17762" lon="11.38529"><ele>269.0</ele><time>2026-04-20T15:00:01.014Z</time></trkpt><trkpt lat="43.1775083" lon="11.3853983"><ele>269.0</ele><time>2026-04-20T15:00:02.014Z</time></trkpt><trkpt lat="43.1774" lon="11.38552"><ele>269.0</ele><time>2026-04-20T15:00:03.014Z</time></trkpt><trkpt lat="43.1773017" lon="11.38567"><ele>270.6666666666667</ele><time>2026-04-20T15:00:04.014Z</time></trkpt><trkpt lat="43.1772083" lon="11.3858317"><ele>272.3333333333333</ele><time>2026-04-20T15:00:05.014Z</time></trkpt><trkpt lat="43.17713" lon="11.3860067"><ele>274.0</ele><time>2026-04-20T15:00:06.014Z</time></trkpt><trkpt lat="43.1770567" lon="11.3862033"><ele>273.3333333333333</ele><time>2026-04-20T15:00:07.013Z</time></trkpt><trkpt lat="43.17698" lon="11.3864033"><ele>272.6666666666667</ele><time>2026-04-20T15:00:08.014Z</time></trkpt><trkpt lat="43.1769033" lon="11.3865983"><ele>272.0</ele><time>2026-04-20T15:00:09.013Z</time></trkpt><trkpt lat="43.1768183" lon="11.3867967"><ele>272.0</ele><time>2026-04-20T15:00:10.014Z</time></trkpt><trkpt lat="43.1767383" lon="11.3870017"><ele>272.0</ele><time>2026-04-20T15:00:11.014Z</time></trkpt><trkpt lat="43.1766533" lon="11.3872017"><ele>272.0</ele><time>2026-04-20T15:00:12.014Z</time></trkpt><trkpt lat="43.1765667" lon="11.3874017"><ele>274.0</ele><time>2026-04-20T15:00:13.014Z</time></trkpt><trkpt lat="43.1764783" lon="11.3875967"><ele>276.0</ele><time>2026-04-20T15:00:14.013Z</time></trkpt><trkpt lat="43.1763883" lon="11.38777"><ele>278.0</ele><time>2026-04-20T15:00:15.014Z</time></trkpt><trkpt lat="43.1762867" lon="11.387925"><ele>277.0</ele><time>2026-04-20T15:00:16.013Z</time></trkpt><trkpt lat="43.1761767" lon="11.3880567"><ele>276.0</ele><time>2026-04-20T15:00:17.014Z</time></trkpt><trkpt lat="43.1760617" lon="11.3881717"><ele>275.0</ele><time>2026-04-20T15:00:18.014Z</time></trkpt><trkpt lat="43.17593" lon="11.3882767"><ele>274.0</ele><time>2026-04-20T15:00:19.014Z</time></trkpt><trkpt lat="43.1757883" lon="11.3883617"><ele>273.66666666666663</ele><time>2026-04-20T15:00:20.014Z</time></trkpt><trkpt lat="43.1756433" lon="11.3884317"><ele>273.3333333333333</ele><time>2026-04-20T15:00:21.014Z</time></trkpt><trkpt lat="43.175495" lon="11.3885"><ele>273.0</ele><time>2026-04-20T15:00:22.014Z</time></trkpt><trkpt lat="43.1753433" lon="11.3885683"><ele>273.0</ele><time>2026-04-20T15:00:23.014Z</time></trkpt><trkpt lat="43.1751883" lon="11.3886367"><ele>273.0</ele><time>2026-04-20T15:00:24.014Z</time></trkpt><trkpt lat="43.1750317" lon="11.3887083"><ele>273.0</ele><time>2026-04-20T15:00:25.014Z</time></trkpt><trkpt lat="43.1748733" lon="11.3887717"><ele>272.6666666666667</ele><time>2026-04-20T15:00:26.014Z</time></trkpt><trkpt lat="43.1747183" lon="11.388835"><ele>272.33333333333337</ele><time>2026-04-20T15:00:27.013Z</time></trkpt><trkpt lat="43.1745567" lon="11.388905"><ele>272.0</ele><time>2026-04-20T15:00:28.014Z</time></trkpt><trkpt lat="43.1744" lon="11.388975"><ele>274.33333333333337</ele><time>2026-04-20T15:00:29.014Z</time></trkpt><trkpt lat="43.1742433" lon="11.389055"><ele>276.6666666666667</ele><time>2026-04-20T15:00:30.014Z</time></trkpt><trkpt lat="43.1740967" lon="11.3891433"><ele>279.0</ele><time>2026-04-20T15:00:31.014Z</time></trkpt><trkpt lat="43.173955" lon="11.3892517"><ele>280.75</ele><time>2026-04-20T15:00:32.013Z</time></trkpt><trkpt lat="43.1738317" lon="11.3893833"><ele>282.5</ele><time>2026-04-20T15:00:33.013Z</time></trkpt><trkpt lat="43.1737233" lon="11.38952"><ele>284.25</ele><time>2026-04-20T15:00:34.013Z</time></trkpt><trkpt lat="43.1736383" lon="11.3896617"><ele>286.0</ele><time>2026-04-20T15:00:35.014Z</time></trkpt><trkpt lat="43.1735467" lon="11.389805"><ele>286.0</ele><time>2026-04-20T15:00:36.014Z</time></trkpt><trkpt lat="43.173465" lon="11.38994"><ele>286.0</ele><time>2026-04-20T15:00:37.013Z</time></trkpt><trkpt lat="43.1733883" lon="11.3900667"><ele>286.0</ele><time>2026-04-20T15:00:38.013Z</time></trkpt><trkpt lat="43.1733183" lon="11.390175"><ele>286.0</ele><time>2026-04-20T15:00:39.014Z</time></trkpt><trkpt lat="43.1732533" lon="11.3902833"><ele>286.0</ele><time>2026-04-20T15:00:40.014Z</time></trkpt><trkpt lat="43.173195" lon="11.3903767"><ele>286.0</ele><time>2026-04-20T15:00:41.014Z</time></trkpt><trkpt lat="43.173145" lon="11.3904617"><ele>286.0</ele><time>2026-04-20T15:00:42.013Z</time></trkpt><trkpt lat="43.1730867" lon="11.3905367"><ele>286.0</ele><time>2026-04-20T15:00:43.014Z</time></trkpt><trkpt lat="43.1730117" lon="11.3906083"><ele>286.0</ele><time>2026-04-20T15:00:44.014Z</time></trkpt><trkpt lat="43.1729233" lon="11.3906833"><ele>286.0</ele><time>2026-04-20T15:00:45.014Z</time></trkpt><trkpt lat="43.1728367" lon="11.39074"><ele>288.40000000000003</ele><time>2026-04-20T15:00:46.013Z</time></trkpt><trkpt lat="43.17274" lon="11.3907833"><ele>290.8</ele><time>2026-04-20T15:00:47.014Z</time></trkpt><trkpt lat="43.1726383" lon="11.39083"><ele>293.20000000000005</ele><time>2026-04-20T15:00:48.014Z</time></trkpt><trkpt lat="43.17254" lon="11.3908783"><ele>295.6</ele><time>2026-04-20T15:00:49.014Z</time></trkpt><trkpt lat="43.17244" lon="11.3909267"><ele>298.0</ele><time>2026-04-20T15:00:50.014Z</time></trkpt><trkpt lat="43.17234" lon="11.3909767"><ele>299.4</ele><time>2026-04-20T15:00:51.014Z</time></trkpt><trkpt lat="43.1722417" lon="11.3910233"><ele>300.8</ele><time>2026-04-20T15:00:52.013Z</time></trkpt><trkpt lat="43.17214" lon="11.3910717"><ele>302.2</ele><time>2026-04-20T15:00:53.014Z</time></trkpt><trkpt lat="43.1720417" lon="11.3911233"><ele>303.6</ele><time>2026-04-20T15:00:54.014Z</time></trkpt><trkpt lat="43.1719467" lon="11.391165"><ele>305.0</ele><time>2026-04-20T15:00:55.014Z</time></trkpt><trkpt lat="43.1718483" lon="11.3911983"><ele>305.0</ele><time>2026-04-20T15:00:56.014Z</time></trkpt><trkpt lat="43.1717467" lon="11.3912317"><ele>305.0</ele><time>2026-04-20T15:00:57.014Z</time></trkpt><trkpt lat="43.1716517" lon="11.3912633"><ele>305.0</ele><time>2026-04-20T15:00:58.014Z</time></trkpt><trkpt lat="43.171575" lon="11.39129"><ele>305.0</ele><time>2026-04-20T15:00:59.014Z</time></trkpt><trkpt lat="43.171495" lon="11.39131"><ele>305.0</ele><time>2026-04-20T15:01:00.014Z</time></trkpt><trkpt lat="43.1714183" lon="11.39133"><ele>305.0</ele><time>2026-04-20T15:01:01.014Z</time></trkpt><trkpt lat="43.1713317" lon="11.3913283"><ele>304.4</ele><time>2026-04-20T15:01:02.014Z</time></trkpt><trkpt lat="43.171255" lon="11.3913167"><ele>303.8</ele><time>2026-04-20T15:01:03.014Z</time></trkpt><trkpt lat="43.171175" lon="11.3912867"><ele>303.2</ele><time>2026-04-20T15:01:04.014Z</time></trkpt><trkpt lat="43.171085" lon="11.3912483"><ele>302.6</ele><time>2026-04-20T15:01:05.013Z</time></trkpt><trkpt lat="43.1709867" lon="11.3911983"><ele>302.0</ele><time>2026-04-20T15:01:06.013Z</time></trkpt><trkpt lat="43.1708883" lon="11.391145"><ele>302.0</ele><time>2026-04-20T15:01:07.014Z</time></trkpt><trkpt lat="43.1707917" lon="11.3910883"><ele>302.0</ele><time>2026-04-20T15:01:08.014Z</time></trkpt><trkpt lat="43.1706933" lon="11.39103"><ele>302.0</ele><time>2026-04-20T15:01:09.014Z</time></trkpt><trkpt lat="43.1706033" lon="11.3909767"><ele>302.0</ele><time>2026-04-20T15:01:10.014Z</time></trkpt><trkpt lat="43.1705133" lon="11.3909267"><ele>302.0</ele><time>2026-04-20T15:01:11.014Z</time></trkpt><trkpt lat="43.1704367" lon="11.3908783"><ele>302.0</ele><time>2026-04-20T15:01:12.014Z</time></trkpt><trkpt lat="43.1703583" lon="11.3908333"><ele>302.0</ele><time>2026-04-20T15:01:13.014Z</time></trkpt><trkpt lat="43.1702833" lon="11.3907783"><ele>302.0</ele><time>2026-04-20T15:01:14.013Z</time></trkpt><trkpt lat="43.1702033" lon="11.3907083"><ele>302.0</ele><time>2026-04-20T15:01:15.014Z</time></trkpt><trkpt lat="43.1701217" lon="11.390635"><ele>302.0</ele><time>2026-04-20T15:01:16.014Z</time></trkpt><trkpt lat="43.1700417" lon="11.3905583"><ele>301.8</ele><time>2026-04-20T15:01:17.014Z</time></trkpt><trkpt lat="43.16995" lon="11.390485"><ele>301.6</ele><time>2026-04-20T15:01:18.014Z</time></trkpt><trkpt lat="43.1698617" lon="11.3904083"><ele>301.40000000000003</ele><time>2026-04-20T15:01:19.014Z</time></trkpt><trkpt lat="43.1697733" lon="11.3903483"><ele>301.2</ele><time>2026-04-20T15:01:20.014Z</time></trkpt><trkpt lat="43.16968" lon="11.3902867"><ele>301.0</ele><time>2026-04-20T15:01:21.014Z</time></trkpt><trkpt lat="43.1695833" lon="11.3902183"><ele>298.25</ele><time>2026-04-20T15:01:22.014Z</time></trkpt><trkpt lat="43.1694783" lon="11.39016"><ele>295.5</ele><time>2026-04-20T15:01:23.013Z</time></trkpt><trkpt lat="43.1693667" lon="11.3901067"><ele>292.75</ele><time>2026-04-20T15:01:24.014Z</time></trkpt><trkpt lat="43.1692567" lon="11.390065"><ele>290.0</ele><time>2026-04-20T15:01:25.014Z</time></trkpt><trkpt lat="43.1691433" lon="11.3900367"><ele>290.0</ele><time>2026-04-20T15:01:26.014Z</time></trkpt><trkpt lat="43.1690283" lon="11.39002"><ele>290.0</ele><time>2026-04-20T15:01:27.014Z</time></trkpt><trkpt lat="43.1689033" lon="11.3900317"><ele>290.0</ele><time>2026-04-20T15:01:28.014Z</time></trkpt><trkpt lat="43.16879" lon="11.3900217"><ele>290.0</ele><time>2026-04-20T15:01:29.014Z</time></trkpt><trkpt lat="43.16868" lon="11.3900033"><ele>287.25</ele><time>2026-04-20T15:01:30.014Z</time></trkpt><trkpt lat="43.1685617" lon="11.389985"><ele>284.5</ele><time>2026-04-20T15:01:31.014Z</time></trkpt><trkpt lat="43.16844" lon="11.3899783"><ele>281.75</ele><time>2026-04-20T15:01:32.014Z</time></trkpt><trkpt lat="43.1683183" lon="11.3899583"><ele>279.0</ele><time>2026-04-20T15:01:33.014Z</time></trkpt><trkpt lat="43.1681967" lon="11.389955"><ele>277.5</ele><time>2026-04-20T15:01:34.014Z</time></trkpt><trkpt lat="43.168075" lon="11.3899417"><ele>276.0</ele><time>2026-04-20T15:01:35.014Z</time></trkpt><trkpt lat="43.1679517" lon="11.3899283"><ele>274.5</ele><time>2026-04-20T15:01:36.014Z</time></trkpt><trkpt lat="43.1678317" lon="11.3899233"><ele>273.0</ele><time>2026-04-20T15:01:37.014Z</time></trkpt><trkpt lat="43.1677117" lon="11.389915"><ele>273.0</ele><time>2026-04-20T15:01:38.014Z</time></trkpt><trkpt lat="43.1675933" lon="11.3899033"><ele>273.0</ele><time>2026-04-20T15:01:39.013Z</time></trkpt><trkpt lat="43.16747" lon="11.389885"><ele>273.0</ele><time>2026-04-20T15:01:40.013Z</time></trkpt><trkpt lat="43.1673517" lon="11.3898717"><ele>273.0</ele><time>2026-04-20T15:01:41.014Z</time></trkpt><trkpt lat="43.167245" lon="11.3898717"><ele>273.25</ele><time>2026-04-20T15:01:42.014Z</time></trkpt><trkpt lat="43.1671317" lon="11.3898667"><ele>273.5</ele><time>2026-04-20T15:01:43.014Z</time></trkpt><trkpt lat="43.1670133" lon="11.389875"><ele>273.75</ele><time>2026-04-20T15:01:44.014Z</time></trkpt><trkpt lat="43.1669033" lon="11.3899033"><ele>274.0</ele><time>2026-04-20T15:01:45.014Z</time></trkpt><trkpt lat="43.16679" lon="11.3899533"><ele>274.0</ele><time>2026-04-20T15:01:46.013Z</time></trkpt><trkpt lat="43.166685" lon="11.3900067"><ele>274.0</ele><time>2026-04-20T15:01:47.014Z</time></trkpt><trkpt lat="43.16659" lon="11.390075"><ele>274.0</ele><time>2026-04-20T15:01:48.014Z</time></trkpt><trkpt lat="43.1665133" lon="11.3901583"><ele>274.0</ele><time>2026-04-20T15:01:49.014Z</time></trkpt><trkpt lat="43.166445" lon="11.39025"><ele>274.0</ele><time>2026-04-20T15:01:50.014Z</time></trkpt><trkpt lat="43.1663783" lon="11.39034"><ele>274.5</ele><time>2026-04-20T15:01:51.014Z</time></trkpt><trkpt lat="43.16632" lon="11.3904283"><ele>275.0</ele><time>2026-04-20T15:01:52.014Z</time></trkpt><trkpt lat="43.1662567" lon="11.3905"><ele>275.5</ele><time>2026-04-20T15:01:53.013Z</time></trkpt><trkpt lat="43.16619" lon="11.3905617"><ele>276.0</ele><time>2026-04-20T15:01:54.014Z</time></trkpt><trkpt lat="43.1661233" lon="11.3906117"><ele>276.5</ele><time>2026-04-20T15:01:55.013Z</time></trkpt><trkpt lat="43.16605" lon="11.3906583"><ele>277.0</ele><time>2026-04-20T15:01:56.013Z</time></trkpt><trkpt lat="43.1659717" lon="11.3907133"><ele>276.4</ele><time>2026-04-20T15:01:57.014Z</time></trkpt><trkpt lat="43.1658833" lon="11.39076"><ele>275.79999999999995</ele><time>2026-04-20T15:01:58.013Z</time></trkpt><trkpt lat="43.16579" lon="11.3908017"><ele>275.2</ele><time>2026-04-20T15:01:59.014Z</time></trkpt><trkpt lat="43.165685" lon="11.3908383"><ele>274.59999999999997</ele><time>2026-04-20T15:02:00.013Z</time></trkpt><trkpt lat="43.16557" lon="11.3908733"><ele>274.0</ele><time>2026-04-20T15:02:01.014Z</time></trkpt><trkpt lat="43.16545" lon="11.3909033"><ele>274.0</ele><time>2026-04-20T15:02:02.014Z</time></trkpt><trkpt lat="43.1653383" lon="11.3909433"><ele>274.0</ele><time>2026-04-20T15:02:03.013Z</time></trkpt><trkpt lat="43.165225" lon="11.390975"><ele>274.0</ele><time>2026-04-20T15:02:04.014Z</time></trkpt><trkpt lat="43.1651067" lon="11.3910083"><ele>274.0</ele><time>2026-04-20T15:02:05.014Z</time></trkpt><trkpt lat="43.164985" lon="11.3910467"><ele>274.25</ele><time>2026-04-20T15:02:06.014Z</time></trkpt><trkpt lat="43.1648517" lon="11.391075"><ele>274.5</ele><time>2026-04-20T15:02:07.014Z</time></trkpt><trkpt lat="43.16472" lon="11.39111"><ele>274.75</ele><time>2026-04-20T15:02:08.013Z</time></trkpt><trkpt lat="43.1645883" lon="11.391135"><ele>275.0</ele><time>2026-04-20T15:02:09.014Z</time></trkpt><trkpt lat="43.164455" lon="11.3911667"><ele>275.0</ele><time>2026-04-20T15:02:10.014Z</time></trkpt><trkpt lat="43.1643217" lon="11.3912"><ele>275.0</ele><time>2026-04-20T15:02:11.014Z</time></trkpt><trkpt lat="43.16419" lon="11.3912367"><ele>275.0</ele><time>2026-04-20T15:02:12.013Z</time></trkpt><trkpt lat="43.164055" lon="11.3912717"><ele>275.0</ele><time>2026-04-20T15:02:13.014Z</time></trkpt><trkpt lat="43.1639183" lon="11.3913033"><ele>275.5</ele><time>2026-04-20T15:02:14.014Z</time></trkpt><trkpt lat="43.1637767" lon="11.3913383"><ele>276.0</ele><time>2026-04-20T15:02:15.014Z</time></trkpt><trkpt lat="43.16364" lon="11.3913717"><ele>276.5</ele><time>2026-04-20T15:02:16.014Z</time></trkpt><trkpt lat="43.1635067" lon="11.3914133"><ele>277.0</ele><time>2026-04-20T15:02:17.013Z</time></trkpt><trkpt lat="43.163375" lon="11.3914483"><ele>277.0</ele><time>2026-04-20T15:02:18.014Z</time></trkpt><trkpt lat="43.1632583" lon="11.3914783"><ele>277.0</ele><time>2026-04-20T15:02:19.014Z</time></trkpt><trkpt lat="43.1631567" lon="11.3915017"><ele>277.0</ele><time>2026-04-20T15:02:20.014Z</time></trkpt><trkpt lat="43.16307" lon="11.3915067"><ele>277.0</ele><time>2026-04-20T15:02:21.014Z</time></trkpt><trkpt lat="43.163" lon="11.3914967"><ele>277.0</ele><time>2026-04-20T15:02:22.014Z</time></trkpt><trkpt lat="43.1629217" lon="11.3914967"><ele>277.8333333333333</ele><time>2026-04-20T15:02:24.013Z</time></trkpt><trkpt lat="43.162965" lon="11.3915883"><ele>278.66666666666663</ele><time>2026-04-20T15:03:17.014Z</time></trkpt><trkpt lat="43.1630183" lon="11.3915383"><ele>279.5</ele><time>2026-04-20T15:03:19.014Z</time></trkpt><trkpt lat="43.1630483" lon="11.3914517"><ele>280.3333333333333</ele><time>2026-04-20T15:03:21.013Z</time></trkpt><trkpt lat="43.1631017" lon="11.3913083"><ele>281.1666666666667</ele><time>2026-04-20T15:03:32.014Z</time></trkpt><trkpt lat="43.1631217" lon="11.3912183"><ele>282.0</ele><time>2026-04-20T15:03:34.013Z</time></trkpt><trkpt lat="43.1631017" lon="11.3911317"><ele>282.2</ele><time>2026-04-20T15:03:36.013Z</time></trkpt><trkpt lat="43.16303" lon="11.3910633"><ele>282.4</ele><time>2026-04-20T15:03:38.014Z</time></trkpt><trkpt lat="43.1629183" lon="11.3910067"><ele>282.6</ele><time>2026-04-20T15:03:40.014Z</time></trkpt><trkpt lat="43.162855" lon="11.3909733"><ele>282.8</ele><time>2026-04-20T15:03:41.013Z</time></trkpt><trkpt lat="43.1627383" lon="11.3908983"><ele>283.0</ele><time>2026-04-20T15:03:43.014Z</time></trkpt><trkpt lat="43.16267" lon="11.39085"><ele>283.0</ele><time>2026-04-20T15:03:44.014Z</time></trkpt><trkpt lat="43.162605" lon="11.390795"><ele>283.0</ele><time>2026-04-20T15:03:45.014Z</time></trkpt><trkpt lat="43.1625433" lon="11.3907317"><ele>283.0</ele><time>2026-04-20T15:03:46.014Z</time></trkpt><trkpt lat="43.1624817" lon="11.39066"><ele>283.0</ele><time>2026-04-20T15:03:47.014Z</time></trkpt><trkpt lat="43.1624183" lon="11.3905867"><ele>283.0</ele><time>2026-04-20T15:03:48.014Z</time></trkpt><trkpt lat="43.162355" lon="11.3905217"><ele>283.0</ele><time>2026-04-20T15:03:49.014Z</time></trkpt><trkpt lat="43.1622967" lon="11.3904583"><ele>283.16666666666663</ele><time>2026-04-20T15:03:50.013Z</time></trkpt><trkpt lat="43.1622383" lon="11.39039"><ele>283.3333333333333</ele><time>2026-04-20T15:03:51.013Z</time></trkpt><trkpt lat="43.16218" lon="11.3903133"><ele>283.5</ele><time>2026-04-20T15:03:52.014Z</time></trkpt><trkpt lat="43.162125" lon="11.3902317"><ele>283.6666666666667</ele><time>2026-04-20T15:03:53.014Z</time></trkpt><trkpt lat="43.16207" lon="11.390155"><ele>283.83333333333337</ele><time>2026-04-20T15:03:54.014Z</time></trkpt><trkpt lat="43.162015" lon="11.3900867"><ele>284.0</ele><time>2026-04-20T15:03:55.014Z</time></trkpt><trkpt lat="43.161955" lon="11.3900033"><ele>284.0</ele><time>2026-04-20T15:03:56.014Z</time></trkpt><trkpt lat="43.1618867" lon="11.3899133"><ele>284.0</ele><time>2026-04-20T15:03:57.014Z</time></trkpt><trkpt lat="43.1618183" lon="11.3898417"><ele>284.0</ele><time>2026-04-20T15:03:58.014Z</time></trkpt><trkpt lat="43.161755" lon="11.38977"><ele>284.0</ele><time>2026-04-20T15:03:59.013Z</time></trkpt><trkpt lat="43.161705" lon="11.3896883"><ele>284.0</ele><time>2026-04-20T15:04:00.014Z</time></trkpt><trkpt lat="43.1616567" lon="11.389615"><ele>284.0</ele><time>2026-04-20T15:04:01.014Z</time></trkpt><trkpt lat="43.161625" lon="11.3895283"><ele>284.4</ele><time>2026-04-20T15:04:02.013Z</time></trkpt><trkpt lat="43.1616183" lon="11.3893633"><ele>284.79999999999995</ele><time>2026-04-20T15:04:04.013Z</time></trkpt><trkpt lat="43.1616433" lon="11.3892017"><ele>285.20000000000005</ele><time>2026-04-20T15:04:06.014Z</time></trkpt><trkpt lat="43.16166" lon="11.38911"><ele>285.6</ele><time>2026-04-20T15:04:07.014Z</time></trkpt><trkpt lat="43.16168" lon="11.389015"><ele>286.0</ele><time>2026-04-20T15:04:08.014Z</time></trkpt><trkpt lat="43.1616883" lon="11.388855"><ele>287.0</ele><time>2026-04-20T15:04:10.014Z</time></trkpt><trkpt lat="43.1616533" lon="11.3886933"><ele>288.0</ele><time>2026-04-20T15:04:12.014Z</time></trkpt><trkpt lat="43.1616333" lon="11.3885967"><ele>289.0</ele><time>2026-04-20T15:04:13.013Z</time></trkpt><trkpt lat="43.1616167" lon="11.38849"><ele>290.0</ele><time>2026-04-20T15:04:14.014Z</time></trkpt><trkpt lat="43.1615967" lon="11.3883767"><ele>291.0</ele><time>2026-04-20T15:04:15.014Z</time></trkpt><trkpt lat="43.1615717" lon="11.388265"><ele>292.0</ele><time>2026-04-20T15:04:16.014Z</time></trkpt><trkpt lat="43.1615517" lon="11.3881517"><ele>295.0</ele><time>2026-04-20T15:04:17.014Z</time></trkpt><trkpt lat="43.16153" lon="11.388045"><ele>298.0</ele><time>2026-04-20T15:04:18.013Z</time></trkpt><trkpt lat="43.161515" lon="11.3879383"><ele>301.0</ele><time>2026-04-20T15:04:19.014Z</time></trkpt><trkpt lat="43.1615017" lon="11.38784"><ele>304.0</ele><time>2026-04-20T15:04:20.014Z</time></trkpt><trkpt lat="43.1614867" lon="11.38772"><ele>307.0</ele><time>2026-04-20T15:04:21.014Z</time></trkpt><trkpt lat="43.1614633" lon="11.3876133"><ele>310.0</ele><time>2026-04-20T15:04:22.014Z</time></trkpt><trkpt lat="43.1614367" lon="11.3875233"><ele>310.0</ele><time>2026-04-20T15:04:23.014Z</time></trkpt><trkpt lat="43.1613683" lon="11.3873983"><ele>310.0</ele><time>2026-04-20T15:04:25.014Z</time></trkpt><trkpt lat="43.1612867" lon="11.3873333"><ele>310.0</ele><time>2026-04-20T15:04:27.013Z</time></trkpt><trkpt lat="43.1611817" lon="11.3873133"><ele>310.0</ele><time>2026-04-20T15:04:29.014Z</time></trkpt><trkpt lat="43.161065" lon="11.3873083"><ele>310.0</ele><time>2026-04-20T15:04:31.014Z</time></trkpt><trkpt lat="43.1609917" lon="11.3873183"><ele>310.0</ele><time>2026-04-20T15:04:32.014Z</time></trkpt><trkpt lat="43.160925" lon="11.387325"><ele>310.0</ele><time>2026-04-20T15:04:33.014Z</time></trkpt><trkpt lat="43.1608567" lon="11.3873367"><ele>310.0</ele><time>2026-04-20T15:04:34.014Z</time></trkpt><trkpt lat="43.1607867" lon="11.3873617"><ele>310.0</ele><time>2026-04-20T15:04:35.014Z</time></trkpt><trkpt lat="43.1607267" lon="11.38739"><ele>310.0</ele><time>2026-04-20T15:04:36.014Z</time></trkpt><trkpt lat="43.1606217" lon="11.387435"><ele>310.0</ele><time>2026-04-20T15:04:38.014Z</time></trkpt><trkpt lat="43.16054" lon="11.3874667"><ele>308.5</ele><time>2026-04-20T15:04:40.013Z</time></trkpt><trkpt lat="43.1604317" lon="11.387505"><ele>307.0</ele><time>2026-04-20T15:04:42.014Z</time></trkpt><trkpt lat="43.1603667" lon="11.38754"><ele>305.5</ele><time>2026-04-20T15:04:43.014Z</time></trkpt><trkpt lat="43.1603" lon="11.38758"><ele>304.0</ele><time>2026-04-20T15:04:44.014Z</time></trkpt><trkpt lat="43.1602483" lon="11.3876417"><ele>302.5</ele><time>2026-04-20T15:04:45.014Z</time></trkpt><trkpt lat="43.1601983" lon="11.387715"><ele>301.0</ele><time>2026-04-20T15:04:46.014Z</time></trkpt><trkpt lat="43.160145" lon="11.3877867"><ele>301.0</ele><time>2026-04-20T15:04:47.014Z</time></trkpt><trkpt lat="43.1600783" lon="11.3878383"><ele>301.0</ele><time>2026-04-20T15:04:48.014Z</time></trkpt><trkpt lat="43.160025" lon="11.3879017"><ele>301.0</ele><time>2026-04-20T15:04:49.014Z</time></trkpt><trkpt lat="43.15998" lon="11.38798"><ele>301.0</ele><time>2026-04-20T15:04:50.013Z</time></trkpt><trkpt lat="43.1599317" lon="11.3880467"><ele>301.0</ele><time>2026-04-20T15:04:51.013Z</time></trkpt><trkpt lat="43.159885" lon="11.3881083"><ele>301.0</ele><time>2026-04-20T15:04:52.013Z</time></trkpt><trkpt lat="43.159845" lon="11.38818"><ele>301.0</ele><time>2026-04-20T15:04:53.013Z</time></trkpt><trkpt lat="43.15981" lon="11.388275"><ele>300.2</ele><time>2026-04-20T15:04:54.012Z</time></trkpt><trkpt lat="43.15978" lon="11.3883833"><ele>299.40000000000003</ele><time>2026-04-20T15:04:55.013Z</time></trkpt><trkpt lat="43.1597517" lon="11.3884967"><ele>298.6</ele><time>2026-04-20T15:04:56.013Z</time></trkpt><trkpt lat="43.1597167" lon="11.3886167"><ele>297.8</ele><time>2026-04-20T15:04:57.013Z</time></trkpt><trkpt lat="43.1596883" lon="11.3887367"><ele>297.0</ele><time>2026-04-20T15:04:58.013Z</time></trkpt><trkpt lat="43.1596583" lon="11.3888633"><ele>295.8</ele><time>2026-04-20T15:04:59.013Z</time></trkpt><trkpt lat="43.159645" lon="11.3889833"><ele>294.6</ele><time>2026-04-20T15:05:00.012Z</time></trkpt><trkpt lat="43.1596417" lon="11.389115"><ele>293.40000000000003</ele><time>2026-04-20T15:05:01.012Z</time></trkpt><trkpt lat="43.1596717" lon="11.3892317"><ele>292.2</ele><time>2026-04-20T15:05:02.013Z</time></trkpt><trkpt lat="43.15973" lon="11.3893333"><ele>291.0</ele><time>2026-04-20T15:05:03.013Z</time></trkpt><trkpt lat="43.1598" lon="11.38942"><ele>291.0</ele><time>2026-04-20T15:05:04.013Z</time></trkpt><trkpt lat="43.1598783" lon="11.38949"><ele>291.0</ele><time>2026-04-20T15:05:05.013Z</time></trkpt><trkpt lat="43.1599533" lon="11.38956"><ele>291.0</ele><time>2026-04-20T15:05:06.013Z</time></trkpt><trkpt lat="43.1600367" lon="11.3896317"><ele>291.0</ele><time>2026-04-20T15:05:07.013Z</time></trkpt><trkpt lat="43.16012" lon="11.3897117"><ele>291.0</ele><time>2026-04-20T15:05:08.013Z</time></trkpt><trkpt lat="43.160215" lon="11.3897933"><ele>289.5</ele><time>2026-04-20T15:05:09.013Z</time></trkpt><trkpt lat="43.16031" lon="11.3898783"><ele>288.0</ele><time>2026-04-20T15:05:10.013Z</time></trkpt><trkpt lat="43.1604017" lon="11.3899483"><ele>286.5</ele><time>2026-04-20T15:05:11.013Z</time></trkpt><trkpt lat="43.1604967" lon="11.3900267"><ele>285.0</ele><time>2026-04-20T15:05:12.013Z</time></trkpt><trkpt lat="43.1606067" lon="11.3901083"><ele>285.25</ele><time>2026-04-20T15:05:13.013Z</time></trkpt><trkpt lat="43.1607133" lon="11.3901983"><ele>285.5</ele><time>2026-04-20T15:05:14.013Z</time></trkpt><trkpt lat="43.160825" lon="11.3902883"><ele>285.75</ele><time>2026-04-20T15:05:15.012Z</time></trkpt><trkpt lat="43.160925" lon="11.3903917"><ele>286.0</ele><time>2026-04-20T15:05:16.013Z</time></trkpt><trkpt lat="43.161025" lon="11.3904917"><ele>285.5</ele><time>2026-04-20T15:05:17.012Z</time></trkpt><trkpt lat="43.1611183" lon="11.3906067"><ele>285.0</ele><time>2026-04-20T15:05:18.013Z</time></trkpt><trkpt lat="43.1612067" lon="11.3907167"><ele>284.5</ele><time>2026-04-20T15:05:19.013Z</time></trkpt><trkpt lat="43.1612967" lon="11.3908267"><ele>284.0</ele><time>2026-04-20T15:05:20.012Z</time></trkpt><trkpt lat="43.1613833" lon="11.3909433"><ele>284.0</ele><time>2026-04-20T15:05:21.012Z</time></trkpt><trkpt lat="43.1614567" lon="11.39106"><ele>284.0</ele><time>2026-04-20T15:05:22.012Z</time></trkpt><trkpt lat="43.1615267" lon="11.3911783"><ele>284.0</ele><time>2026-04-20T15:05:23.013Z</time></trkpt><trkpt lat="43.1615983" lon="11.3912883"><ele>284.0</ele><time>2026-04-20T15:05:24.013Z</time></trkpt><trkpt lat="43.1616633" lon="11.3914067"><ele>284.0</ele><time>2026-04-20T15:05:25.012Z</time></trkpt><trkpt lat="43.1617167" lon="11.3915133"><ele>284.33333333333337</ele><time>2026-04-20T15:05:26.013Z</time></trkpt><trkpt lat="43.1617533" lon="11.39161"><ele>284.6666666666667</ele><time>2026-04-20T15:05:27.012Z</time></trkpt><trkpt lat="43.161765" lon="11.3917067"><ele>285.0</ele><time>2026-04-20T15:05:28.013Z</time></trkpt><trkpt lat="43.1617467" lon="11.3918767"><ele>285.3333333333333</ele><time>2026-04-20T15:05:30.013Z</time></trkpt><trkpt lat="43.1617233" lon="11.391965"><ele>285.66666666666663</ele><time>2026-04-20T15:05:31.012Z</time></trkpt><trkpt lat="43.1616883" lon="11.392075"><ele>286.0</ele><time>2026-04-20T15:05:32.013Z</time></trkpt><trkpt lat="43.16165" lon="11.3922067"><ele>285.0</ele><time>2026-04-20T15:05:33.012Z</time></trkpt><trkpt lat="43.1616067" lon="11.3923583"><ele>284.0</ele><time>2026-04-20T15:05:34.013Z</time></trkpt><trkpt lat="43.161565" lon="11.3925167"><ele>283.0</ele><time>2026-04-20T15:05:35.013Z</time></trkpt><trkpt lat="43.1615117" lon="11.39268"><ele>282.0</ele><time>2026-04-20T15:05:36.013Z</time></trkpt><trkpt lat="43.1614433" lon="11.3928183"><ele>281.25</ele><time>2026-04-20T15:05:37.013Z</time></trkpt><trkpt lat="43.161355" lon="11.3929283"><ele>280.5</ele><time>2026-04-20T15:05:38.013Z</time></trkpt><trkpt lat="43.161245" lon="11.393035"><ele>279.75</ele><time>2026-04-20T15:05:39.013Z</time></trkpt><trkpt lat="43.1611217" lon="11.3931217"><ele>279.0</ele><time>2026-04-20T15:05:40.013Z</time></trkpt><trkpt lat="43.1609833" lon="11.39319"><ele>279.0</ele><time>2026-04-20T15:05:41.013Z</time></trkpt><trkpt lat="43.16083" lon="11.3932567"><ele>279.0</ele><time>2026-04-20T15:05:42.013Z</time></trkpt><trkpt lat="43.1606767" lon="11.3933183"><ele>279.0</ele><time>2026-04-20T15:05:43.013Z</time></trkpt><trkpt lat="43.1605217" lon="11.3933833"><ele>278.5</ele><time>2026-04-20T15:05:44.013Z</time></trkpt><trkpt lat="43.16038" lon="11.393445"><ele>278.0</ele><time>2026-04-20T15:05:45.012Z</time></trkpt><trkpt lat="43.160235" lon="11.3935017"><ele>277.5</ele><time>2026-04-20T15:05:46.012Z</time></trkpt><trkpt lat="43.1601017" lon="11.3935667"><ele>277.0</ele><time>2026-04-20T15:05:47.013Z</time></trkpt><trkpt lat="43.15996" lon="11.393635"><ele>276.75</ele><time>2026-04-20T15:05:48.013Z</time></trkpt><trkpt lat="43.1598283" lon="11.39371"><ele>276.5</ele><time>2026-04-20T15:05:49.012Z</time></trkpt><trkpt lat="43.1597017" lon="11.3937933"><ele>276.25</ele><time>2026-04-20T15:05:50.013Z</time></trkpt><trkpt lat="43.1595783" lon="11.3938867"><ele>276.0</ele><time>2026-04-20T15:05:51.013Z</time></trkpt><trkpt lat="43.1594517" lon="11.3939917"><ele>276.0</ele><time>2026-04-20T15:05:52.013Z</time></trkpt><trkpt lat="43.159335" lon="11.3940983"><ele>276.0</ele><time>2026-04-20T15:05:53.013Z</time></trkpt><trkpt lat="43.1592283" lon="11.3942167"><ele>276.0</ele><time>2026-04-20T15:05:54.013Z</time></trkpt><trkpt lat="43.1591283" lon="11.3943533"><ele>276.0</ele><time>2026-04-20T15:05:55.013Z</time></trkpt><trkpt lat="43.1590367" lon="11.3945033"><ele>276.75</ele><time>2026-04-20T15:05:56.013Z</time></trkpt><trkpt lat="43.1589383" lon="11.3946483"><ele>277.5</ele><time>2026-04-20T15:05:57.013Z</time></trkpt><trkpt lat="43.1588567" lon="11.3948033"><ele>278.25</ele><time>2026-04-20T15:05:58.013Z</time></trkpt><trkpt lat="43.158795" lon="11.39497"><ele>279.0</ele><time>2026-04-20T15:05:59.013Z</time></trkpt><trkpt lat="43.158745" lon="11.3951483"><ele>279.0</ele><time>2026-04-20T15:06:00.013Z</time></trkpt><trkpt lat="43.1587033" lon="11.39534"><ele>279.0</ele><time>2026-04-20T15:06:01.013Z</time></trkpt><trkpt lat="43.1586817" lon="11.3955417"><ele>279.0</ele><time>2026-04-20T15:06:02.013Z</time></trkpt><trkpt lat="43.15867" lon="11.3957433"><ele>279.0</ele><time>2026-04-20T15:06:03.013Z</time></trkpt><trkpt lat="43.1586617" lon="11.3959583"><ele>279.0</ele><time>2026-04-20T15:06:04.013Z</time></trkpt><trkpt lat="43.1586633" lon="11.3961667"><ele>279.0</ele><time>2026-04-20T15:06:05.013Z</time></trkpt><trkpt lat="43.158665" lon="11.39637"><ele>279.0</ele><time>2026-04-20T15:06:06.013Z</time></trkpt><trkpt lat="43.1586667" lon="11.3965817"><ele>279.25</ele><time>2026-04-20T15:06:07.013Z</time></trkpt><trkpt lat="43.15866" lon="11.3967833"><ele>279.5</ele><time>2026-04-20T15:06:08.012Z</time></trkpt><trkpt lat="43.158655" lon="11.3969883"><ele>279.75</ele><time>2026-04-20T15:06:09.013Z</time></trkpt><trkpt lat="43.1586517" lon="11.397195"><ele>280.0</ele><time>2026-04-20T15:06:10.013Z</time></trkpt><trkpt lat="43.1586517" lon="11.3973983"><ele>280.0</ele><time>2026-04-20T15:06:11.012Z</time></trkpt><trkpt lat="43.1586583" lon="11.3976033"><ele>280.0</ele><time>2026-04-20T15:06:12.013Z</time></trkpt><trkpt lat="43.158675" lon="11.3978"><ele>280.0</ele><time>2026-04-20T15:06:13.012Z</time></trkpt><trkpt lat="43.158705" lon="11.397995"><ele>280.0</ele><time>2026-04-20T15:06:14.012Z</time></trkpt><trkpt lat="43.158745" lon="11.39819"><ele>280.5</ele><time>2026-04-20T15:06:15.012Z</time></trkpt><trkpt lat="43.15879" lon="11.3983767"><ele>281.0</ele><time>2026-04-20T15:06:16.012Z</time></trkpt><trkpt lat="43.15883" lon="11.3985667"><ele>281.5</ele><time>2026-04-20T15:06:17.013Z</time></trkpt><trkpt lat="43.1588683" lon="11.3987517"><ele>282.0</ele><time>2026-04-20T15:06:18.012Z</time></trkpt><trkpt lat="43.1589" lon="11.398935"><ele>282.5</ele><time>2026-04-20T15:06:19.013Z</time></trkpt><trkpt lat="43.15891" lon="11.3991167"><ele>283.0</ele><time>2026-04-20T15:06:20.013Z</time></trkpt><trkpt lat="43.1588983" lon="11.3992867"><ele>283.5</ele><time>2026-04-20T15:06:21.013Z</time></trkpt><trkpt lat="43.15887" lon="11.3994317"><ele>284.0</ele><time>2026-04-20T15:06:22.013Z</time></trkpt><trkpt lat="43.1588117" lon="11.3995433"><ele>284.0</ele><time>2026-04-20T15:06:23.013Z</time></trkpt><trkpt lat="43.1587267" lon="11.3996117"><ele>284.0</ele><time>2026-04-20T15:06:24.013Z</time></trkpt><trkpt lat="43.1586117" lon="11.39965"><ele>284.0</ele><time>2026-04-20T15:06:25.013Z</time></trkpt><trkpt lat="43.1584983" lon="11.3996517"><ele>284.0</ele><time>2026-04-20T15:06:26.013Z</time></trkpt><trkpt lat="43.1583717" lon="11.3996283"><ele>284.0</ele><time>2026-04-20T15:06:27.013Z</time></trkpt><trkpt lat="43.1582333" lon="11.39961"><ele>284.0</ele><time>2026-04-20T15:06:28.013Z</time></trkpt><trkpt lat="43.1580983" lon="11.39963"><ele>284.0</ele><time>2026-04-20T15:06:29.012Z</time></trkpt><trkpt lat="43.1579733" lon="11.3996933"><ele>284.0</ele><time>2026-04-20T15:06:30.013Z</time></trkpt><trkpt lat="43.15785" lon="11.3997683"><ele>285.5</ele><time>2026-04-20T15:06:31.013Z</time></trkpt><trkpt lat="43.1577367" lon="11.3998733"><ele>287.0</ele><time>2026-04-20T15:06:32.013Z</time></trkpt><trkpt lat="43.157625" lon="11.3999817"><ele>288.5</ele><time>2026-04-20T15:06:33.013Z</time></trkpt><trkpt lat="43.1575067" lon="11.4000767"><ele>290.0</ele><time>2026-04-20T15:06:34.013Z</time></trkpt><trkpt lat="43.1573883" lon="11.4001433"><ele>291.0</ele><time>2026-04-20T15:06:35.013Z</time></trkpt><trkpt lat="43.1572633" lon="11.40018"><ele>292.0</ele><time>2026-04-20T15:06:36.013Z</time></trkpt><trkpt lat="43.157135" lon="11.4001833"><ele>293.0</ele><time>2026-04-20T15:06:37.013Z</time></trkpt><trkpt lat="43.157005" lon="11.40016"><ele>294.0</ele><time>2026-04-20T15:06:38.012Z</time></trkpt><trkpt lat="43.1568717" lon="11.4001067"><ele>294.0</ele><time>2026-04-20T15:06:39.012Z</time></trkpt><trkpt lat="43.1567433" lon="11.4000533"><ele>294.0</ele><time>2026-04-20T15:06:40.013Z</time></trkpt><trkpt lat="43.1566233" lon="11.4000033"><ele>294.0</ele><time>2026-04-20T15:06:41.013Z</time></trkpt><trkpt lat="43.15652" lon="11.3999883"><ele>294.0</ele><time>2026-04-20T15:06:42.013Z</time></trkpt><trkpt lat="43.1564217" lon="11.4000117"><ele>296.59999999999997</ele><time>2026-04-20T15:06:43.013Z</time></trkpt><trkpt lat="43.1563433" lon="11.4000583"><ele>299.2</ele><time>2026-04-20T15:06:44.012Z</time></trkpt><trkpt lat="43.15628" lon="11.4001433"><ele>301.79999999999995</ele><time>2026-04-20T15:06:45.013Z</time></trkpt><trkpt lat="43.1562383" lon="11.400255"><ele>304.4</ele><time>2026-04-20T15:06:46.013Z</time></trkpt><trkpt lat="43.1562367" lon="11.400395"><ele>307.0</ele><time>2026-04-20T15:06:47.013Z</time></trkpt><trkpt lat="43.1563017" lon="11.4005583"><ele>307.25</ele><time>2026-04-20T15:06:48.013Z</time></trkpt><trkpt lat="43.1563733" lon="11.4007067"><ele>307.5</ele><time>2026-04-20T15:06:49.013Z</time></trkpt><trkpt lat="43.1564533" lon="11.40086"><ele>307.75</ele><time>2026-04-20T15:06:50.013Z</time></trkpt><trkpt lat="43.15653" lon="11.4010167"><ele>308.0</ele><time>2026-04-20T15:06:51.012Z</time></trkpt><trkpt lat="43.1566017" lon="11.4011767"><ele>302.25</ele><time>2026-04-20T15:06:52.012Z</time></trkpt><trkpt lat="43.1566517" lon="11.40134"><ele>296.5</ele><time>2026-04-20T15:06:53.013Z</time></trkpt><trkpt lat="43.1566933" lon="11.4015"><ele>290.75</ele><time>2026-04-20T15:06:54.012Z</time></trkpt><trkpt lat="43.156705" lon="11.4016583"><ele>285.0</ele><time>2026-04-20T15:06:55.013Z</time></trkpt><trkpt lat="43.1566967" lon="11.401825"><ele>285.0</ele><time>2026-04-20T15:06:56.013Z</time></trkpt><trkpt lat="43.1566717" lon="11.402"><ele>285.0</ele><time>2026-04-20T15:06:57.013Z</time></trkpt><trkpt lat="43.1566417" lon="11.40218"><ele>285.0</ele><time>2026-04-20T15:06:58.013Z</time></trkpt><trkpt lat="43.1566083" lon="11.4023633"><ele>285.0</ele><time>2026-04-20T15:06:59.013Z</time></trkpt><trkpt lat="43.1565767" lon="11.4025517"><ele>284.5</ele><time>2026-04-20T15:07:00.013Z</time></trkpt><trkpt lat="43.1565483" lon="11.40273"><ele>284.0</ele><time>2026-04-20T15:07:01.013Z</time></trkpt><trkpt lat="43.1565217" lon="11.40291"><ele>283.5</ele><time>2026-04-20T15:07:02.012Z</time></trkpt><trkpt lat="43.1564883" lon="11.40309"><ele>283.0</ele><time>2026-04-20T15:07:03.012Z</time></trkpt><trkpt lat="43.15646" lon="11.4032617"><ele>285.25</ele><time>2026-04-20T15:07:04.012Z</time></trkpt><trkpt lat="43.1564533" lon="11.403435"><ele>287.5</ele><time>2026-04-20T15:07:05.013Z</time></trkpt><trkpt lat="43.1564417" lon="11.403615"><ele>289.75</ele><time>2026-04-20T15:07:06.013Z</time></trkpt><trkpt lat="43.1564317" lon="11.4037917"><ele>292.0</ele><time>2026-04-20T15:07:07.013Z</time></trkpt><trkpt lat="43.1564117" lon="11.403945"><ele>292.0</ele><time>2026-04-20T15:07:08.013Z</time></trkpt><trkpt lat="43.15639" lon="11.4041033"><ele>292.0</ele><time>2026-04-20T15:07:09.013Z</time></trkpt><trkpt lat="43.1563483" lon="11.404245"><ele>292.0</ele><time>2026-04-20T15:07:10.013Z</time></trkpt><trkpt lat="43.1562767" lon="11.404385"><ele>292.0</ele><time>2026-04-20T15:07:11.013Z</time></trkpt><trkpt lat="43.156195" lon="11.40451"><ele>292.0</ele><time>2026-04-20T15:07:12.013Z</time></trkpt><trkpt lat="43.1561" lon="11.4046183"><ele>292.0</ele><time>2026-04-20T15:07:13.013Z</time></trkpt><trkpt lat="43.155985" lon="11.4047067"><ele>292.0</ele><time>2026-04-20T15:07:14.013Z</time></trkpt><trkpt lat="43.1558833" lon="11.40479"><ele>292.0</ele><time>2026-04-20T15:07:15.013Z</time></trkpt><trkpt lat="43.1557667" lon="11.404855"><ele>290.25</ele><time>2026-04-20T15:07:16.013Z</time></trkpt><trkpt lat="43.1556383" lon="11.4048917"><ele>288.5</ele><time>2026-04-20T15:07:17.013Z</time></trkpt><trkpt lat="43.1554917" lon="11.404905"><ele>286.75</ele><time>2026-04-20T15:07:18.013Z</time></trkpt><trkpt lat="43.1553433" lon="11.4049083"><ele>285.0</ele><time>2026-04-20T15:07:19.012Z</time></trkpt><trkpt lat="43.1552033" lon="11.40494"><ele>285.0</ele><time>2026-04-20T15:07:20.012Z</time></trkpt><trkpt lat="43.1550533" lon="11.404995"><ele>285.0</ele><time>2026-04-20T15:07:21.013Z</time></trkpt><trkpt lat="43.154905" lon="11.4050633"><ele>285.0</ele><time>2026-04-20T15:07:22.013Z</time></trkpt><trkpt lat="43.1547633" lon="11.4051283"><ele>288.0</ele><time>2026-04-20T15:07:23.012Z</time></trkpt><trkpt lat="43.154615" lon="11.405195"><ele>291.0</ele><time>2026-04-20T15:07:24.012Z</time></trkpt><trkpt lat="43.1544833" lon="11.405285"><ele>294.0</ele><time>2026-04-20T15:07:25.013Z</time></trkpt><trkpt lat="43.15435" lon="11.4053783"><ele>294.0</ele><time>2026-04-20T15:07:26.013Z</time></trkpt><trkpt lat="43.1542167" lon="11.405475"><ele>294.0</ele><time>2026-04-20T15:07:27.012Z</time></trkpt><trkpt lat="43.15409" lon="11.4055683"><ele>294.0</ele><time>2026-04-20T15:07:28.013Z</time></trkpt><trkpt lat="43.1539517" lon="11.4056333"><ele>294.0</ele><time>2026-04-20T15:07:29.013Z</time></trkpt><trkpt lat="43.1538017" lon="11.4056767"><ele>292.0</ele><time>2026-04-20T15:07:30.013Z</time></trkpt><trkpt lat="43.1536533" lon="11.4056867"><ele>290.0</ele><time>2026-04-20T15:07:31.013Z</time></trkpt><trkpt lat="43.1534967" lon="11.4057017"><ele>288.0</ele><time>2026-04-20T15:07:32.013Z</time></trkpt><trkpt lat="43.1533583" lon="11.40574"><ele>286.0</ele><time>2026-04-20T15:07:33.013Z</time></trkpt><trkpt lat="43.1532317" lon="11.4058183"><ele>289.3333333333333</ele><time>2026-04-20T15:07:34.013Z</time></trkpt><trkpt lat="43.1531033" lon="11.4059283"><ele>292.6666666666667</ele><time>2026-04-20T15:07:35.013Z</time></trkpt><trkpt lat="43.15298" lon="11.4060517"><ele>296.0</ele><time>2026-04-20T15:07:36.013Z</time></trkpt><trkpt lat="43.152865" lon="11.406175"><ele>296.0</ele><time>2026-04-20T15:07:37.013Z</time></trkpt><trkpt lat="43.15274" lon="11.4062867"><ele>296.0</ele><time>2026-04-20T15:07:38.013Z</time></trkpt><trkpt lat="43.152615" lon="11.4063833"><ele>296.0</ele><time>2026-04-20T15:07:39.012Z</time></trkpt><trkpt lat="43.1524833" lon="11.4064617"><ele>296.0</ele><time>2026-04-20T15:07:40.012Z</time></trkpt><trkpt lat="43.1523533" lon="11.406525"><ele>291.6666666666667</ele><time>2026-04-20T15:07:41.013Z</time></trkpt><trkpt lat="43.1522133" lon="11.4065733"><ele>287.3333333333333</ele><time>2026-04-20T15:07:42.013Z</time></trkpt><trkpt lat="43.1520567" lon="11.4066033"><ele>283.0</ele><time>2026-04-20T15:07:43.013Z</time></trkpt><trkpt lat="43.1518967" lon="11.4066183"><ele>283.0</ele><time>2026-04-20T15:07:44.012Z</time></trkpt><trkpt lat="43.1517433" lon="11.4066217"><ele>283.0</ele><time>2026-04-20T15:07:45.013Z</time></trkpt><trkpt lat="43.1515867" lon="11.4066283"><ele>283.0</ele><time>2026-04-20T15:07:46.013Z</time></trkpt><trkpt lat="43.1514333" lon="11.40666"><ele>284.0</ele><time>2026-04-20T15:07:47.013Z</time></trkpt><trkpt lat="43.1512817" lon="11.4066983"><ele>285.0</ele><time>2026-04-20T15:07:48.013Z</time></trkpt><trkpt lat="43.1511317" lon="11.4067583"><ele>286.0</ele><time>2026-04-20T15:07:49.013Z</time></trkpt><trkpt lat="43.1509833" lon="11.4068"><ele>286.0</ele><time>2026-04-20T15:07:50.013Z</time></trkpt><trkpt lat="43.1508367" lon="11.4068133"><ele>286.0</ele><time>2026-04-20T15:07:51.013Z</time></trkpt><trkpt lat="43.1506867" lon="11.406805"><ele>286.0</ele><time>2026-04-20T15:07:52.013Z</time></trkpt><trkpt lat="43.15054" lon="11.4067917"><ele>286.0</ele><time>2026-04-20T15:07:53.012Z</time></trkpt><trkpt lat="43.1504" lon="11.4067617"><ele>284.75</ele><time>2026-04-20T15:07:54.013Z</time></trkpt><trkpt lat="43.150265" lon="11.4067017"><ele>283.5</ele><time>2026-04-20T15:07:55.013Z</time></trkpt><trkpt lat="43.15015" lon="11.406615"><ele>282.25</ele><time>2026-04-20T15:07:56.013Z</time></trkpt><trkpt lat="43.15005" lon="11.4065067"><ele>281.0</ele><time>2026-04-20T15:07:57.013Z</time></trkpt><trkpt lat="43.1499567" lon="11.4063867"><ele>283.8</ele><time>2026-04-20T15:07:58.012Z</time></trkpt><trkpt lat="43.1498717" lon="11.4062817"><ele>286.6</ele><time>2026-04-20T15:07:59.013Z</time></trkpt><trkpt lat="43.1497733" lon="11.406215"><ele>289.4</ele><time>2026-04-20T15:08:00.013Z</time></trkpt><trkpt lat="43.1496717" lon="11.4061933"><ele>292.2</ele><time>2026-04-20T15:08:01.012Z</time></trkpt><trkpt lat="43.1495667" lon="11.406215"><ele>295.0</ele><time>2026-04-20T15:08:02.013Z</time></trkpt><trkpt lat="43.1494617" lon="11.4062767"><ele>292.5</ele><time>2026-04-20T15:08:03.013Z</time></trkpt><trkpt lat="43.1493733" lon="11.4063817"><ele>290.0</ele><time>2026-04-20T15:08:04.013Z</time></trkpt><trkpt lat="43.149295" lon="11.4064983"><ele>287.5</ele><time>2026-04-20T15:08:05.013Z</time></trkpt><trkpt lat="43.14921" lon="11.4065983"><ele>285.0</ele><time>2026-04-20T15:08:06.012Z</time></trkpt><trkpt lat="43.149115" lon="11.406675"><ele>286.0</ele><time>2026-04-20T15:08:07.013Z</time></trkpt><trkpt lat="43.149005" lon="11.4067267"><ele>287.0</ele><time>2026-04-20T15:08:08.013Z</time></trkpt><trkpt lat="43.1488667" lon="11.4067533"><ele>288.0</ele><time>2026-04-20T15:08:09.013Z</time></trkpt><trkpt lat="43.1487333" lon="11.4067817"><ele>289.0</ele><time>2026-04-20T15:08:10.013Z</time></trkpt><trkpt lat="43.1486033" lon="11.4068283"><ele>289.0</ele><time>2026-04-20T15:08:11.013Z</time></trkpt><trkpt lat="43.1484833" lon="11.4069017"><ele>289.0</ele><time>2026-04-20T15:08:12.013Z</time></trkpt><trkpt lat="43.1483733" lon="11.4070183"><ele>289.0</ele><time>2026-04-20T15:08:13.013Z</time></trkpt><trkpt lat="43.1482867" lon="11.4071667"><ele>289.0</ele><time>2026-04-20T15:08:14.013Z</time></trkpt><trkpt lat="43.1482183" lon="11.407325"><ele>289.75</ele><time>2026-04-20T15:08:15.013Z</time></trkpt><trkpt lat="43.1481467" lon="11.40749"><ele>290.5</ele><time>2026-04-20T15:08:16.013Z</time></trkpt><trkpt lat="43.1480783" lon="11.407635"><ele>291.25</ele><time>2026-04-20T15:08:17.013Z</time></trkpt><trkpt lat="43.148015" lon="11.4077817"><ele>292.0</ele><time>2026-04-20T15:08:18.013Z</time></trkpt><trkpt lat="43.1479583" lon="11.4079267"><ele>290.5</ele><time>2026-04-20T15:08:19.013Z</time></trkpt><trkpt lat="43.1479183" lon="11.4080783"><ele>289.0</ele><time>2026-04-20T15:08:20.013Z</time></trkpt><trkpt lat="43.1478883" lon="11.4082433"><ele>287.5</ele><time>2026-04-20T15:08:21.012Z</time></trkpt><trkpt lat="43.14787" lon="11.4084233"><ele>286.0</ele><time>2026-04-20T15:08:22.012Z</time></trkpt><trkpt lat="43.1478617" lon="11.4086017"><ele>286.0</ele><time>2026-04-20T15:08:23.013Z</time></trkpt><trkpt lat="43.1478417" lon="11.40879"><ele>286.0</ele><time>2026-04-20T15:08:24.013Z</time></trkpt><trkpt lat="43.1478083" lon="11.40897"><ele>286.0</ele><time>2026-04-20T15:08:25.013Z</time></trkpt><trkpt lat="43.1477817" lon="11.4091567"><ele>286.0</ele><time>2026-04-20T15:08:26.013Z</time></trkpt><trkpt lat="43.147755" lon="11.409345"><ele>284.5</ele><time>2026-04-20T15:08:27.013Z</time></trkpt><trkpt lat="43.14773" lon="11.4095317"><ele>283.0</ele><time>2026-04-20T15:08:28.013Z</time></trkpt><trkpt lat="43.1477017" lon="11.4097117"><ele>281.5</ele><time>2026-04-20T15:08:29.013Z</time></trkpt><trkpt lat="43.1476683" lon="11.40988"><ele>280.0</ele><time>2026-04-20T15:08:30.013Z</time></trkpt><trkpt lat="43.147625" lon="11.4100467"><ele>278.25</ele><time>2026-04-20T15:08:31.013Z</time></trkpt><trkpt lat="43.147585" lon="11.4101967"><ele>276.5</ele><time>2026-04-20T15:08:32.013Z</time></trkpt><trkpt lat="43.1475167" lon="11.4103333"><ele>274.75</ele><time>2026-04-20T15:08:33.012Z</time></trkpt><trkpt lat="43.1474333" lon="11.4104583"><ele>273.0</ele><time>2026-04-20T15:08:34.012Z</time></trkpt><trkpt lat="43.1473333" lon="11.410565"><ele>271.25</ele><time>2026-04-20T15:08:35.013Z</time></trkpt><trkpt lat="43.1472167" lon="11.4106483"><ele>269.5</ele><time>2026-04-20T15:08:36.013Z</time></trkpt><trkpt lat="43.1470917" lon="11.4107267"><ele>267.75</ele><time>2026-04-20T15:08:37.013Z</time></trkpt><trkpt lat="43.146965" lon="11.4108083"><ele>266.0</ele><time>2026-04-20T15:08:38.013Z</time></trkpt><trkpt lat="43.1468383" lon="11.410895"><ele>266.0</ele><time>2026-04-20T15:08:39.013Z</time></trkpt><trkpt lat="43.146725" lon="11.4109933"><ele>266.0</ele><time>2026-04-20T15:08:40.013Z</time></trkpt><trkpt lat="43.14663" lon="11.411115"><ele>266.0</ele><time>2026-04-20T15:08:41.013Z</time></trkpt><trkpt lat="43.146545" lon="11.4112517"><ele>266.0</ele><time>2026-04-20T15:08:42.013Z</time></trkpt><trkpt lat="43.1464617" lon="11.4113917"><ele>264.75</ele><time>2026-04-20T15:08:43.013Z</time></trkpt><trkpt lat="43.1463833" lon="11.4115367"><ele>263.5</ele><time>2026-04-20T15:08:44.012Z</time></trkpt><trkpt lat="43.1463067" lon="11.41168"><ele>262.25</ele><time>2026-04-20T15:08:45.012Z</time></trkpt><trkpt lat="43.146215" lon="11.4118167"><ele>261.0</ele><time>2026-04-20T15:08:46.013Z</time></trkpt><trkpt lat="43.146125" lon="11.41196"><ele>261.0</ele><time>2026-04-20T15:08:47.012Z</time></trkpt><trkpt lat="43.1460433" lon="11.4121133"><ele>261.0</ele><time>2026-04-20T15:08:48.012Z</time></trkpt><trkpt lat="43.14598" lon="11.4122683"><ele>261.0</ele><time>2026-04-20T15:08:49.013Z</time></trkpt><trkpt lat="43.1459317" lon="11.412445"><ele>261.0</ele><time>2026-04-20T15:08:50.012Z</time></trkpt><trkpt lat="43.14589" lon="11.4126217"><ele>259.0</ele><time>2026-04-20T15:08:51.013Z</time></trkpt><trkpt lat="43.1458533" lon="11.4128017"><ele>257.0</ele><time>2026-04-20T15:08:52.013Z</time></trkpt><trkpt lat="43.1458133" lon="11.41298"><ele>255.0</ele><time>2026-04-20T15:08:53.013Z</time></trkpt><trkpt lat="43.14577" lon="11.41315"><ele>253.0</ele><time>2026-04-20T15:08:54.013Z</time></trkpt><trkpt lat="43.14571" lon="11.4133233"><ele>251.25</ele><time>2026-04-20T15:08:55.013Z</time></trkpt><trkpt lat="43.1456283" lon="11.4134833"><ele>249.5</ele><time>2026-04-20T15:08:56.012Z</time></trkpt><trkpt lat="43.1455417" lon="11.4136267"><ele>247.75</ele><time>2026-04-20T15:08:57.013Z</time></trkpt><trkpt lat="43.1454483" lon="11.4137517"><ele>246.0</ele><time>2026-04-20T15:08:58.013Z</time></trkpt><trkpt lat="43.14536" lon="11.4138667"><ele>245.0</ele><time>2026-04-20T15:08:59.012Z</time></trkpt><trkpt lat="43.145275" lon="11.41399"><ele>244.0</ele><time>2026-04-20T15:09:00.013Z</time></trkpt><trkpt lat="43.1452217" lon="11.41413"><ele>243.0</ele><time>2026-04-20T15:09:01.012Z</time></trkpt><trkpt lat="43.1451883" lon="11.4142883"><ele>242.0</ele><time>2026-04-20T15:09:02.013Z</time></trkpt><trkpt lat="43.145185" lon="11.41445"><ele>242.0</ele><time>2026-04-20T15:09:03.013Z</time></trkpt><trkpt lat="43.1452133" lon="11.4146117"><ele>242.0</ele><time>2026-04-20T15:09:04.013Z</time></trkpt><trkpt lat="43.1452683" lon="11.41477"><ele>242.0</ele><time>2026-04-20T15:09:05.013Z</time></trkpt><trkpt lat="43.1453433" lon="11.4149033"><ele>242.0</ele><time>2026-04-20T15:09:06.013Z</time></trkpt><trkpt lat="43.1454433" lon="11.41504"><ele>241.25</ele><time>2026-04-20T15:09:07.013Z</time></trkpt><trkpt lat="43.1455367" lon="11.4151733"><ele>240.5</ele><time>2026-04-20T15:09:08.013Z</time></trkpt><trkpt lat="43.14562" lon="11.41532"><ele>239.75</ele><time>2026-04-20T15:09:09.013Z</time></trkpt><trkpt lat="43.1456833" lon="11.4154717"><ele>239.0</ele><time>2026-04-20T15:09:10.013Z</time></trkpt><trkpt lat="43.14573" lon="11.4156267"><ele>239.0</ele><time>2026-04-20T15:09:11.013Z</time></trkpt><trkpt lat="43.145755" lon="11.4158017"><ele>239.0</ele><time>2026-04-20T15:09:12.012Z</time></trkpt><trkpt lat="43.1457667" lon="11.4159783"><ele>239.0</ele><time>2026-04-20T15:09:13.013Z</time></trkpt><trkpt lat="43.1457717" lon="11.4161633"><ele>239.0</ele><time>2026-04-20T15:09:14.013Z</time></trkpt><trkpt lat="43.1457617" lon="11.4163517"><ele>238.25</ele><time>2026-04-20T15:09:15.012Z</time></trkpt><trkpt lat="43.14574" lon="11.41654"><ele>237.5</ele><time>2026-04-20T15:09:16.013Z</time></trkpt><trkpt lat="43.1457117" lon="11.4167167"><ele>236.75</ele><time>2026-04-20T15:09:17.013Z</time></trkpt><trkpt lat="43.1456833" lon="11.4168983"><ele>236.0</ele><time>2026-04-20T15:09:18.013Z</time></trkpt><trkpt lat="43.1456567" lon="11.4170817"><ele>231.25</ele><time>2026-04-20T15:09:19.013Z</time></trkpt><trkpt lat="43.14563" lon="11.4172533"><ele>226.5</ele><time>2026-04-20T15:09:20.013Z</time></trkpt><trkpt lat="43.1455783" lon="11.4174217"><ele>221.75</ele><time>2026-04-20T15:09:21.013Z</time></trkpt><trkpt lat="43.145525" lon="11.41759"><ele>217.0</ele><time>2026-04-20T15:09:22.013Z</time></trkpt><trkpt lat="43.1454717" lon="11.41776"><ele>217.0</ele><time>2026-04-20T15:09:23.013Z</time></trkpt><trkpt lat="43.145425" lon="11.41793"><ele>217.0</ele><time>2026-04-20T15:09:24.013Z</time></trkpt><trkpt lat="43.1453817" lon="11.4180983"><ele>217.0</ele><time>2026-04-20T15:09:25.012Z</time></trkpt><trkpt lat="43.1453517" lon="11.4182783"><ele>217.0</ele><time>2026-04-20T15:09:26.013Z</time></trkpt><trkpt lat="43.145335" lon="11.4184667"><ele>216.25</ele><time>2026-04-20T15:09:27.013Z</time></trkpt><trkpt lat="43.1453283" lon="11.41865"><ele>215.5</ele><time>2026-04-20T15:09:28.013Z</time></trkpt><trkpt lat="43.1453233" lon="11.4188267"><ele>214.75</ele><time>2026-04-20T15:09:29.013Z</time></trkpt><trkpt lat="43.1453183" lon="11.4190067"><ele>214.0</ele><time>2026-04-20T15:09:30.013Z</time></trkpt><trkpt lat="43.1453083" lon="11.419185"><ele>213.75</ele><time>2026-04-20T15:09:31.012Z</time></trkpt><trkpt lat="43.14528" lon="11.4193633"><ele>213.5</ele><time>2026-04-20T15:09:32.013Z</time></trkpt><trkpt lat="43.14524" lon="11.41954"><ele>213.25</ele><time>2026-04-20T15:09:33.013Z</time></trkpt><trkpt lat="43.1451917" lon="11.4197233"><ele>213.0</ele><time>2026-04-20T15:09:34.012Z</time></trkpt><trkpt lat="43.145155" lon="11.4199033"><ele>212.25</ele><time>2026-04-20T15:09:35.012Z</time></trkpt><trkpt lat="43.1451283" lon="11.4200867"><ele>211.5</ele><time>2026-04-20T15:09:36.012Z</time></trkpt><trkpt lat="43.145105" lon="11.4202717"><ele>210.75</ele><time>2026-04-20T15:09:37.012Z</time></trkpt><trkpt lat="43.1451117" lon="11.420435"><ele>210.0</ele><time>2026-04-20T15:09:38.012Z</time></trkpt><trkpt lat="43.14512" lon="11.4205917"><ele>209.4</ele><time>2026-04-20T15:09:39.012Z</time></trkpt><trkpt lat="43.1451267" lon="11.42074"><ele>208.8</ele><time>2026-04-20T15:09:40.012Z</time></trkpt><trkpt lat="43.1451317" lon="11.4208783"><ele>208.2</ele><time>2026-04-20T15:09:41.012Z</time></trkpt><trkpt lat="43.14513" lon="11.4210017"><ele>207.6</ele><time>2026-04-20T15:09:42.012Z</time></trkpt><trkpt lat="43.14514" lon="11.42112"><ele>207.0</ele><time>2026-04-20T15:09:43.011Z</time></trkpt><trkpt lat="43.14516" lon="11.42123"><ele>206.83333333333334</ele><time>2026-04-20T15:09:44.012Z</time></trkpt><trkpt lat="43.1451883" lon="11.421345"><ele>206.66666666666669</ele><time>2026-04-20T15:09:45.012Z</time></trkpt><trkpt lat="43.1452233" lon="11.421455"><ele>206.5</ele><time>2026-04-20T15:09:46.012Z</time></trkpt><trkpt lat="43.14525" lon="11.4215617"><ele>206.33333333333334</ele><time>2026-04-20T15:09:47.012Z</time></trkpt><trkpt lat="43.14529" lon="11.4216717"><ele>206.16666666666669</ele><time>2026-04-20T15:09:48.012Z</time></trkpt><trkpt lat="43.14533" lon="11.4217883"><ele>206.0</ele><time>2026-04-20T15:09:49.011Z</time></trkpt><trkpt lat="43.1453617" lon="11.421905"><ele>206.00000000000003</ele><time>2026-04-20T15:09:50.012Z</time></trkpt><trkpt lat="43.1453967" lon="11.422015"><ele>206.0</ele><time>2026-04-20T15:09:51.011Z</time></trkpt><trkpt lat="43.1454317" lon="11.42212"><ele>206.0</ele><time>2026-04-20T15:09:52.012Z</time></trkpt><trkpt lat="43.1454667" lon="11.4222233"><ele>206.0</ele><time>2026-04-20T15:09:53.011Z</time></trkpt><trkpt lat="43.1455" lon="11.4223267"><ele>206.00000000000003</ele><time>2026-04-20T15:09:54.012Z</time></trkpt><trkpt lat="43.145535" lon="11.4224167"><ele>206.0</ele><time>2026-04-20T15:09:55.012Z</time></trkpt><trkpt lat="43.1455783" lon="11.4225033"><ele>206.20000000000002</ele><time>2026-04-20T15:09:56.012Z</time></trkpt><trkpt lat="43.1456117" lon="11.42259"><ele>206.4</ele><time>2026-04-20T15:09:57.012Z</time></trkpt><trkpt lat="43.145645" lon="11.4226733"><ele>206.6</ele><time>2026-04-20T15:09:58.012Z</time></trkpt><trkpt lat="43.1457" lon="11.4228267"><ele>206.8</ele><time>2026-04-20T15:10:00.012Z</time></trkpt><trkpt lat="43.14574" lon="11.4229667"><ele>207.0</ele><time>2026-04-20T15:10:02.012Z</time></trkpt><trkpt lat="43.1457717" lon="11.42306"><ele>207.0</ele><time>2026-04-20T15:10:04.011Z</time></trkpt><trkpt lat="43.1458083" lon="11.423145"><ele>207.0</ele><time>2026-04-20T15:12:05.012Z</time></trkpt><trkpt lat="43.14586" lon="11.4232867"><ele>207.0</ele><time>2026-04-20T15:12:07.012Z</time></trkpt><trkpt lat="43.1459067" lon="11.4234383"><ele>207.0</ele><time>2026-04-20T15:12:09.012Z</time></trkpt><trkpt lat="43.1459383" lon="11.4236"><ele>207.0</ele><time>2026-04-20T15:12:11.011Z</time></trkpt><trkpt lat="43.1459617" lon="11.4238033"><ele>206.8</ele><time>2026-04-20T15:12:13.012Z</time></trkpt><trkpt lat="43.14596" lon="11.4239233"><ele>206.6</ele><time>2026-04-20T15:12:14.012Z</time></trkpt><trkpt lat="43.1459417" lon="11.424035"><ele>206.4</ele><time>2026-04-20T15:12:15.012Z</time></trkpt><trkpt lat="43.1459117" lon="11.424155"><ele>206.20000000000002</ele><time>2026-04-20T15:12:16.012Z</time></trkpt><trkpt lat="43.1458717" lon="11.424275"><ele>206.0</ele><time>2026-04-20T15:12:17.012Z</time></trkpt><trkpt lat="43.145825" lon="11.4243967"><ele>206.0</ele><time>2026-04-20T15:12:18.012Z</time></trkpt><trkpt lat="43.14577" lon="11.42452"><ele>206.0</ele><time>2026-04-20T15:12:19.012Z</time></trkpt><trkpt lat="43.1457133" lon="11.424625"><ele>206.0</ele><time>2026-04-20T15:12:20.012Z</time></trkpt><trkpt lat="43.1456483" lon="11.42472"><ele>206.0</ele><time>2026-04-20T15:12:21.012Z</time></trkpt><trkpt lat="43.14559" lon="11.42481"><ele>206.0</ele><time>2026-04-20T15:12:22.012Z</time></trkpt><trkpt lat="43.1455517" lon="11.4248967"><ele>206.00000000000003</ele><time>2026-04-20T15:12:23.012Z</time></trkpt><trkpt lat="43.14554" lon="11.4249983"><ele>206.0</ele><time>2026-04-20T15:12:24.012Z</time></trkpt><trkpt lat="43.1455417" lon="11.4251033"><ele>206.0</ele><time>2026-04-20T15:12:25.012Z</time></trkpt><trkpt lat="43.14557" lon="11.4252033"><ele>206.0</ele><time>2026-04-20T15:12:26.012Z</time></trkpt><trkpt lat="43.1456167" lon="11.42528"><ele>206.00000000000003</ele><time>2026-04-20T15:12:27.012Z</time></trkpt><trkpt lat="43.14569" lon="11.4253367"><ele>206.0</ele><time>2026-04-20T15:12:28.012Z</time></trkpt><trkpt lat="43.1457783" lon="11.4253817"><ele>206.0</ele><time>2026-04-20T15:12:29.012Z</time></trkpt><trkpt lat="43.145875" lon="11.4254317"><ele>206.0</ele><time>2026-04-20T15:12:30.012Z</time></trkpt><trkpt lat="43.1459617" lon="11.4254817"><ele>206.0</ele><time>2026-04-20T15:12:31.011Z</time></trkpt><trkpt lat="43.1460433" lon="11.4255383"><ele>206.0</ele><time>2026-04-20T15:12:32.012Z</time></trkpt><trkpt lat="43.146125" lon="11.425615"><ele>206.0</ele><time>2026-04-20T15:12:33.012Z</time></trkpt><trkpt lat="43.1462017" lon="11.4257017"><ele>205.0</ele><time>2026-04-20T15:12:34.012Z</time></trkpt><trkpt lat="43.146285" lon="11.4258"><ele>204.0</ele><time>2026-04-20T15:12:35.012Z</time></trkpt><trkpt lat="43.1463667" lon="11.4259017"><ele>203.0</ele><time>2026-04-20T15:12:36.012Z</time></trkpt><trkpt lat="43.1464533" lon="11.425995"><ele>202.0</ele><time>2026-04-20T15:12:37.012Z</time></trkpt><trkpt lat="43.1465483" lon="11.4260817"><ele>201.0</ele><time>2026-04-20T15:12:38.012Z</time></trkpt><trkpt lat="43.146645" lon="11.4261683"><ele>201.0</ele><time>2026-04-20T15:12:39.012Z</time></trkpt><trkpt lat="43.1467433" lon="11.4262533"><ele>201.0</ele><time>2026-04-20T15:12:40.012Z</time></trkpt><trkpt lat="43.146845" lon="11.4263383"><ele>201.0</ele><time>2026-04-20T15:12:41.012Z</time></trkpt><trkpt lat="43.1469483" lon="11.4264183"><ele>201.0</ele><time>2026-04-20T15:12:42.012Z</time></trkpt><trkpt lat="43.1470467" lon="11.426495"><ele>201.0</ele><time>2026-04-20T15:12:43.012Z</time></trkpt><trkpt lat="43.1471383" lon="11.4265767"><ele>201.0</ele><time>2026-04-20T15:12:44.012Z</time></trkpt><trkpt lat="43.1472267" lon="11.426665"><ele>201.0</ele><time>2026-04-20T15:12:45.012Z</time></trkpt><trkpt lat="43.1473117" lon="11.426775"><ele>201.0</ele><time>2026-04-20T15:12:46.011Z</time></trkpt><trkpt lat="43.1473917" lon="11.4268867"><ele>201.0</ele><time>2026-04-20T15:12:47.012Z</time></trkpt><trkpt lat="43.14747" lon="11.426985"><ele>201.0</ele><time>2026-04-20T15:12:48.012Z</time></trkpt><trkpt lat="43.14755" lon="11.4270683"><ele>201.0</ele><time>2026-04-20T15:12:49.012Z</time></trkpt><trkpt lat="43.1476467" lon="11.4271367"><ele>201.0</ele><time>2026-04-20T15:12:50.012Z</time></trkpt><trkpt lat="43.1477533" lon="11.4271883"><ele>201.0</ele><time>2026-04-20T15:12:51.012Z</time></trkpt><trkpt lat="43.147865" lon="11.427225"><ele>201.8</ele><time>2026-04-20T15:12:52.011Z</time></trkpt><trkpt lat="43.1479733" lon="11.4272533"><ele>202.60000000000002</ele><time>2026-04-20T15:12:53.012Z</time></trkpt><trkpt lat="43.148075" lon="11.42728"><ele>203.4</ele><time>2026-04-20T15:12:54.012Z</time></trkpt><trkpt lat="43.14818" lon="11.4273183"><ele>204.2</ele><time>2026-04-20T15:12:55.012Z</time></trkpt><trkpt lat="43.14827" lon="11.427365"><ele>205.0</ele><time>2026-04-20T15:12:56.012Z</time></trkpt><trkpt lat="43.1483667" lon="11.4274183"><ele>205.0</ele><time>2026-04-20T15:12:57.012Z</time></trkpt><trkpt lat="43.1484667" lon="11.4274683"><ele>205.0</ele><time>2026-04-20T15:12:58.012Z</time></trkpt><trkpt lat="43.148575" lon="11.42752"><ele>205.0</ele><time>2026-04-20T15:12:59.012Z</time></trkpt><trkpt lat="43.1486833" lon="11.4275817"><ele>205.0</ele><time>2026-04-20T15:13:00.012Z</time></trkpt><trkpt lat="43.1488" lon="11.4276467"><ele>205.0</ele><time>2026-04-20T15:13:01.012Z</time></trkpt><trkpt lat="43.148915" lon="11.4277083"><ele>205.0</ele><time>2026-04-20T15:13:02.012Z</time></trkpt><trkpt lat="43.1490283" lon="11.427765"><ele>205.0</ele><time>2026-04-20T15:13:03.012Z</time></trkpt><trkpt lat="43.1491267" lon="11.4278283"><ele>205.0</ele><time>2026-04-20T15:13:04.011Z</time></trkpt><trkpt lat="43.1492283" lon="11.4278967"><ele>202.25</ele><time>2026-04-20T15:13:05.012Z</time></trkpt><trkpt lat="43.1493217" lon="11.42798"><ele>199.5</ele><time>2026-04-20T15:13:06.012Z</time></trkpt><trkpt lat="43.149415" lon="11.4280767"><ele>196.75</ele><time>2026-04-20T15:13:07.012Z</time></trkpt><trkpt lat="43.14951" lon="11.42818"><ele>194.0</ele><time>2026-04-20T15:13:08.011Z</time></trkpt><trkpt lat="43.14961" lon="11.4282917"><ele>194.0</ele><time>2026-04-20T15:13:09.012Z</time></trkpt><trkpt lat="43.1497133" lon="11.4284"><ele>194.0</ele><time>2026-04-20T15:13:10.012Z</time></trkpt><trkpt lat="43.14981" lon="11.4284917"><ele>194.0</ele><time>2026-04-20T15:13:11.012Z</time></trkpt><trkpt lat="43.1499017" lon="11.4285833"><ele>194.0</ele><time>2026-04-20T15:13:12.011Z</time></trkpt><trkpt lat="43.1499883" lon="11.4286783"><ele>194.79999999999998</ele><time>2026-04-20T15:13:13.012Z</time></trkpt><trkpt lat="43.15007" lon="11.42879"><ele>195.6</ele><time>2026-04-20T15:13:14.012Z</time></trkpt><trkpt lat="43.1501383" lon="11.42891"><ele>196.4</ele><time>2026-04-20T15:13:15.011Z</time></trkpt><trkpt lat="43.1502033" lon="11.4290317"><ele>197.2</ele><time>2026-04-20T15:13:16.012Z</time></trkpt><trkpt lat="43.1502717" lon="11.429155"><ele>198.0</ele><time>2026-04-20T15:13:17.012Z</time></trkpt><trkpt lat="43.150345" lon="11.4292733"><ele>196.4</ele><time>2026-04-20T15:13:18.011Z</time></trkpt><trkpt lat="43.15042" lon="11.429385"><ele>194.8</ele><time>2026-04-20T15:13:19.012Z</time></trkpt><trkpt lat="43.1504933" lon="11.42948"><ele>193.2</ele><time>2026-04-20T15:13:20.012Z</time></trkpt><trkpt lat="43.150565" lon="11.429575"><ele>191.6</ele><time>2026-04-20T15:13:21.012Z</time></trkpt><trkpt lat="43.150635" lon="11.4296617"><ele>190.0</ele><time>2026-04-20T15:13:22.012Z</time></trkpt><trkpt lat="43.1507083" lon="11.429735"><ele>190.0</ele><time>2026-04-20T15:13:23.011Z</time></trkpt><trkpt lat="43.1507817" lon="11.4298033"><ele>190.0</ele><time>2026-04-20T15:13:24.012Z</time></trkpt><trkpt lat="43.1508567" lon="11.429865"><ele>190.0</ele><time>2026-04-20T15:13:25.012Z</time></trkpt><trkpt lat="43.1509267" lon="11.429935"><ele>190.0</ele><time>2026-04-20T15:13:26.012Z</time></trkpt><trkpt lat="43.150995" lon="11.4300217"><ele>190.0</ele><time>2026-04-20T15:13:27.011Z</time></trkpt><trkpt lat="43.1510567" lon="11.430115"><ele>190.0</ele><time>2026-04-20T15:13:28.012Z</time></trkpt><trkpt lat="43.1511067" lon="11.43023"><ele>190.0</ele><time>2026-04-20T15:13:29.012Z</time></trkpt><trkpt lat="43.151135" lon="11.4303583"><ele>190.0</ele><time>2026-04-20T15:13:30.012Z</time></trkpt><trkpt lat="43.1511567" lon="11.4304967"><ele>190.0</ele><time>2026-04-20T15:13:31.012Z</time></trkpt><trkpt lat="43.1511533" lon="11.4306333"><ele>190.0</ele><time>2026-04-20T15:13:32.011Z</time></trkpt><trkpt lat="43.1511333" lon="11.430775"><ele>190.0</ele><time>2026-04-20T15:13:33.012Z</time></trkpt><trkpt lat="43.1511133" lon="11.4309233"><ele>188.6</ele><time>2026-04-20T15:13:34.012Z</time></trkpt><trkpt lat="43.151095" lon="11.43108"><ele>187.2</ele><time>2026-04-20T15:13:35.012Z</time></trkpt><trkpt lat="43.1510833" lon="11.4312333"><ele>185.8</ele><time>2026-04-20T15:13:36.012Z</time></trkpt><trkpt lat="43.1510767" lon="11.4313867"><ele>184.4</ele><time>2026-04-20T15:13:37.012Z</time></trkpt><trkpt lat="43.151075" lon="11.4315167"><ele>183.0</ele><time>2026-04-20T15:13:38.011Z</time></trkpt><trkpt lat="43.1510817" lon="11.4316317"><ele>182.0</ele><time>2026-04-20T15:13:39.012Z</time></trkpt><trkpt lat="43.1510933" lon="11.4317417"><ele>181.0</ele><time>2026-04-20T15:13:40.012Z</time></trkpt><trkpt lat="43.1511083" lon="11.431855"><ele>180.0</ele><time>2026-04-20T15:13:41.012Z</time></trkpt><trkpt lat="43.1511267" lon="11.431975"><ele>179.0</ele><time>2026-04-20T15:13:42.012Z</time></trkpt><trkpt lat="43.1511317" lon="11.4321017"><ele>178.0</ele><time>2026-04-20T15:13:43.012Z</time></trkpt><trkpt lat="43.1511233" lon="11.4322367"><ele>177.0</ele><time>2026-04-20T15:13:44.011Z</time></trkpt><trkpt lat="43.1511083" lon="11.43238"><ele>176.39999999999998</ele><time>2026-04-20T15:13:45.012Z</time></trkpt><trkpt lat="43.1511083" lon="11.4325217"><ele>175.79999999999998</ele><time>2026-04-20T15:13:46.012Z</time></trkpt><trkpt lat="43.1511183" lon="11.43265"><ele>175.2</ele><time>2026-04-20T15:13:47.012Z</time></trkpt><trkpt lat="43.1511483" lon="11.43277"><ele>174.6</ele><time>2026-04-20T15:13:48.011Z</time></trkpt><trkpt lat="43.1511967" lon="11.4328933"><ele>174.0</ele><time>2026-04-20T15:13:49.011Z</time></trkpt><trkpt lat="43.1512667" lon="11.433"><ele>173.2</ele><time>2026-04-20T15:13:50.012Z</time></trkpt><trkpt lat="43.151345" lon="11.43311"><ele>172.39999999999998</ele><time>2026-04-20T15:13:51.012Z</time></trkpt><trkpt lat="43.151425" lon="11.4332183"><ele>171.6</ele><time>2026-04-20T15:13:52.012Z</time></trkpt><trkpt lat="43.151515" lon="11.4333083"><ele>170.8</ele><time>2026-04-20T15:13:53.012Z</time></trkpt><trkpt lat="43.1516033" lon="11.4333817"><ele>170.0</ele><time>2026-04-20T15:13:54.011Z</time></trkpt><trkpt lat="43.151685" lon="11.4334467"><ele>171.33333333333331</ele><time>2026-04-20T15:13:55.012Z</time></trkpt><trkpt lat="43.15177" lon="11.4334967"><ele>172.66666666666666</ele><time>2026-04-20T15:13:56.012Z</time></trkpt><trkpt lat="43.1518617" lon="11.4335317"><ele>174.0</ele><time>2026-04-20T15:13:57.012Z</time></trkpt><trkpt lat="43.1519433" lon="11.4335417"><ele>175.33333333333334</ele><time>2026-04-20T15:13:58.011Z</time></trkpt><trkpt lat="43.1520267" lon="11.433525"><ele>176.66666666666669</ele><time>2026-04-20T15:13:59.011Z</time></trkpt><trkpt lat="43.1521067" lon="11.4334717"><ele>178.0</ele><time>2026-04-20T15:14:00.012Z</time></trkpt><trkpt lat="43.1521767" lon="11.43341"><ele>178.0</ele><time>2026-04-20T15:14:01.012Z</time></trkpt><trkpt lat="43.1522467" lon="11.43333"><ele>178.0</ele><time>2026-04-20T15:14:02.012Z</time></trkpt><trkpt lat="43.1523167" lon="11.4332383"><ele>178.0</ele><time>2026-04-20T15:14:03.012Z</time></trkpt><trkpt lat="43.1523883" lon="11.4331383"><ele>178.0</ele><time>2026-04-20T15:14:04.012Z</time></trkpt><trkpt lat="43.1524567" lon="11.433055"><ele>178.0</ele><time>2026-04-20T15:14:05.012Z</time></trkpt><trkpt lat="43.1525233" lon="11.432995"><ele>178.28571428571428</ele><time>2026-04-20T15:14:06.012Z</time></trkpt><trkpt lat="43.152585" lon="11.4329583"><ele>178.57142857142856</ele><time>2026-04-20T15:14:07.011Z</time></trkpt><trkpt lat="43.15265" lon="11.4329633"><ele>178.85714285714283</ele><time>2026-04-20T15:14:08.012Z</time></trkpt><trkpt lat="43.1527167" lon="11.4330233"><ele>179.14285714285714</ele><time>2026-04-20T15:14:09.012Z</time></trkpt><trkpt lat="43.1527617" lon="11.4331067"><ele>179.42857142857144</ele><time>2026-04-20T15:14:10.012Z</time></trkpt><trkpt lat="43.1527767" lon="11.4332033"><ele>179.7142857142857</ele><time>2026-04-20T15:14:11.011Z</time></trkpt><trkpt lat="43.1527667" lon="11.4332917"><ele>180.0</ele><time>2026-04-20T15:14:12.012Z</time></trkpt><trkpt lat="43.15272" lon="11.4333867"><ele>178.2</ele><time>2026-04-20T15:14:13.011Z</time></trkpt><trkpt lat="43.1526567" lon="11.433475"><ele>176.4</ele><time>2026-04-20T15:14:14.012Z</time></trkpt><trkpt lat="43.1525767" lon="11.4335633"><ele>174.60000000000002</ele><time>2026-04-20T15:14:15.012Z</time></trkpt><trkpt lat="43.152495" lon="11.4336567"><ele>172.8</ele><time>2026-04-20T15:14:16.011Z</time></trkpt><trkpt lat="43.1524083" lon="11.4337483"><ele>171.0</ele><time>2026-04-20T15:14:17.011Z</time></trkpt><trkpt lat="43.1523283" lon="11.4338383"><ele>170.25</ele><time>2026-04-20T15:14:18.011Z</time></trkpt><trkpt lat="43.1522483" lon="11.4339433"><ele>169.5</ele><time>2026-04-20T15:14:19.011Z</time></trkpt><trkpt lat="43.1521583" lon="11.4340467"><ele>168.75</ele><time>2026-04-20T15:14:20.011Z</time></trkpt><trkpt lat="43.1520683" lon="11.4341583"><ele>168.0</ele><time>2026-04-20T15:14:21.011Z</time></trkpt><trkpt lat="43.1519767" lon="11.4342767"><ele>168.0</ele><time>2026-04-20T15:14:22.011Z</time></trkpt><trkpt lat="43.1518817" lon="11.4343833"><ele>168.0</ele><time>2026-04-20T15:14:23.011Z</time></trkpt><trkpt lat="43.1517933" lon="11.434485"><ele>168.0</ele><time>2026-04-20T15:14:24.01Z</time></trkpt><trkpt lat="43.15171" lon="11.4345867"><ele>168.0</ele><time>2026-04-20T15:14:25.011Z</time></trkpt><trkpt lat="43.151645" lon="11.4346983"><ele>165.75</ele><time>2026-04-20T15:14:26.011Z</time></trkpt><trkpt lat="43.15159" lon="11.4348283"><ele>163.5</ele><time>2026-04-20T15:14:27.011Z</time></trkpt><trkpt lat="43.151565" lon="11.4349683"><ele>161.25</ele><time>2026-04-20T15:14:28.011Z</time></trkpt><trkpt lat="43.1515533" lon="11.4351317"><ele>159.0</ele><time>2026-04-20T15:14:29.011Z</time></trkpt><trkpt lat="43.1515617" lon="11.4353017"><ele>158.33333333333334</ele><time>2026-04-20T15:14:30.011Z</time></trkpt><trkpt lat="43.1515917" lon="11.4354967"><ele>157.66666666666669</ele><time>2026-04-20T15:14:31.011Z</time></trkpt><trkpt lat="43.1516317" lon="11.4357133"><ele>157.0</ele><time>2026-04-20T15:14:32.011Z</time></trkpt><trkpt lat="43.15167" lon="11.4359417"><ele>157.0</ele><time>2026-04-20T15:14:33.011Z</time></trkpt><trkpt lat="43.1517067" lon="11.4361833"><ele>157.0</ele><time>2026-04-20T15:14:34.01Z</time></trkpt><trkpt lat="43.15174" lon="11.4364317"><ele>157.0</ele><time>2026-04-20T15:14:35.011Z</time></trkpt><trkpt lat="43.1517783" lon="11.436685"><ele>156.66666666666669</ele><time>2026-04-20T15:14:36.011Z</time></trkpt><trkpt lat="43.1518133" lon="11.4369517"><ele>156.33333333333334</ele><time>2026-04-20T15:14:37.011Z</time></trkpt><trkpt lat="43.1518467" lon="11.4372067"><ele>156.0</ele><time>2026-04-20T15:14:38.011Z</time></trkpt><trkpt lat="43.1518767" lon="11.4374433"><ele>156.0</ele><time>2026-04-20T15:14:39.01Z</time></trkpt><trkpt lat="43.1519133" lon="11.4376683"><ele>156.0</ele><time>2026-04-20T15:14:40.01Z</time></trkpt><trkpt lat="43.151945" lon="11.4378567"><ele>156.0</ele><time>2026-04-20T15:14:41.01Z</time></trkpt><trkpt lat="43.151975" lon="11.4380283"><ele>156.0</ele><time>2026-04-20T15:14:42.011Z</time></trkpt><trkpt lat="43.1520017" lon="11.4381817"><ele>157.0</ele><time>2026-04-20T15:14:43.011Z</time></trkpt><trkpt lat="43.1520117" lon="11.43833"><ele>158.0</ele><time>2026-04-20T15:14:44.011Z</time></trkpt><trkpt lat="43.1519983" lon="11.4384833"><ele>159.0</ele><time>2026-04-20T15:14:45.011Z</time></trkpt><trkpt lat="43.151965" lon="11.4386267"><ele>160.0</ele><time>2026-04-20T15:14:46.011Z</time></trkpt><trkpt lat="43.1519133" lon="11.4387633"><ele>161.0</ele><time>2026-04-20T15:14:47.011Z</time></trkpt><trkpt lat="43.1518467" lon="11.4388933"><ele>161.75</ele><time>2026-04-20T15:14:48.011Z</time></trkpt><trkpt lat="43.15177" lon="11.4390183"><ele>162.5</ele><time>2026-04-20T15:14:49.01Z</time></trkpt><trkpt lat="43.151685" lon="11.4391417"><ele>163.25</ele><time>2026-04-20T15:14:50.011Z</time></trkpt><trkpt lat="43.1516017" lon="11.4392783"><ele>164.0</ele><time>2026-04-20T15:14:51.011Z</time></trkpt><trkpt lat="43.1515117" lon="11.4394183"><ele>163.33333333333331</ele><time>2026-04-20T15:14:52.011Z</time></trkpt><trkpt lat="43.15142" lon="11.4395867"><ele>162.66666666666666</ele><time>2026-04-20T15:14:53.01Z</time></trkpt><trkpt lat="43.1513283" lon="11.4397683"><ele>162.0</ele><time>2026-04-20T15:14:54.011Z</time></trkpt><trkpt lat="43.1512383" lon="11.4399433"><ele>162.0</ele><time>2026-04-20T15:14:55.01Z</time></trkpt><trkpt lat="43.1511667" lon="11.4401083"><ele>162.0</ele><time>2026-04-20T15:14:56.011Z</time></trkpt><trkpt lat="43.1510983" lon="11.4402717"><ele>162.0</ele><time>2026-04-20T15:14:57.011Z</time></trkpt><trkpt lat="43.1510383" lon="11.4404267"><ele>162.0</ele><time>2026-04-20T15:14:58.011Z</time></trkpt><trkpt lat="43.1509817" lon="11.4405667"><ele>162.25</ele><time>2026-04-20T15:14:59.01Z</time></trkpt><trkpt lat="43.1509133" lon="11.4406933"><ele>162.5</ele><time>2026-04-20T15:15:00.011Z</time></trkpt><trkpt lat="43.1508333" lon="11.4407983"><ele>162.75</ele><time>2026-04-20T15:15:01.01Z</time></trkpt><trkpt lat="43.1507383" lon="11.44088"><ele>163.0</ele><time>2026-04-20T15:15:02.011Z</time></trkpt><trkpt lat="43.1506267" lon="11.4409733"><ele>163.0</ele><time>2026-04-20T15:15:03.01Z</time></trkpt><trkpt lat="43.150505" lon="11.441065"><ele>163.0</ele><time>2026-04-20T15:15:04.011Z</time></trkpt><trkpt lat="43.1503667" lon="11.44117"><ele>163.0</ele><time>2026-04-20T15:15:05.011Z</time></trkpt><trkpt lat="43.1502167" lon="11.4412883"><ele>163.0</ele><time>2026-04-20T15:15:06.011Z</time></trkpt><trkpt lat="43.1500483" lon="11.4414267"><ele>163.0</ele><time>2026-04-20T15:15:07.011Z</time></trkpt><trkpt lat="43.1498633" lon="11.4415733"><ele>163.0</ele><time>2026-04-20T15:15:08.011Z</time></trkpt><trkpt lat="43.14966" lon="11.4417283"><ele>163.0</ele><time>2026-04-20T15:15:09.011Z</time></trkpt><trkpt lat="43.14947" lon="11.4418783"><ele>163.0</ele><time>2026-04-20T15:15:10.011Z</time></trkpt><trkpt lat="43.149305" lon="11.4420133"><ele>163.0</ele><time>2026-04-20T15:15:11.01Z</time></trkpt><trkpt lat="43.149155" lon="11.4421383"><ele>163.33333333333334</ele><time>2026-04-20T15:15:12.011Z</time></trkpt><trkpt lat="43.1490167" lon="11.44225"><ele>163.66666666666666</ele><time>2026-04-20T15:15:13.011Z</time></trkpt><trkpt lat="43.1488917" lon="11.4423633"><ele>164.0</ele><time>2026-04-20T15:15:14.011Z</time></trkpt><trkpt lat="43.1487767" lon="11.4424833"><ele>164.0</ele><time>2026-04-20T15:15:15.011Z</time></trkpt><trkpt lat="43.148675" lon="11.4426133"><ele>164.0</ele><time>2026-04-20T15:15:16.011Z</time></trkpt><trkpt lat="43.1485733" lon="11.442755"><ele>164.0</ele><time>2026-04-20T15:15:17.011Z</time></trkpt><trkpt lat="43.1484817" lon="11.44288"><ele>164.0</ele><time>2026-04-20T15:15:18.011Z</time></trkpt><trkpt lat="43.1484033" lon="11.443005"><ele>163.79999999999998</ele><time>2026-04-20T15:15:19.011Z</time></trkpt><trkpt lat="43.1483317" lon="11.4431183"><ele>163.6</ele><time>2026-04-20T15:15:20.01Z</time></trkpt><trkpt lat="43.1482533" lon="11.4432267"><ele>163.4</ele><time>2026-04-20T15:15:21.01Z</time></trkpt><trkpt lat="43.14818" lon="11.4433333"><ele>163.2</ele><time>2026-04-20T15:15:22.01Z</time></trkpt><trkpt lat="43.148115" lon="11.44344"><ele>163.0</ele><time>2026-04-20T15:15:23.011Z</time></trkpt><trkpt lat="43.14807" lon="11.4435567"><ele>163.0</ele><time>2026-04-20T15:15:24.01Z</time></trkpt><trkpt lat="43.1480417" lon="11.4436767"><ele>163.0</ele><time>2026-04-20T15:15:25.011Z</time></trkpt><trkpt lat="43.1480383" lon="11.4438017"><ele>163.0</ele><time>2026-04-20T15:15:26.011Z</time></trkpt><trkpt lat="43.1480533" lon="11.4439133"><ele>163.0</ele><time>2026-04-20T15:15:27.011Z</time></trkpt><trkpt lat="43.1480883" lon="11.44403"><ele>163.0</ele><time>2026-04-20T15:15:28.011Z</time></trkpt><trkpt lat="43.1481333" lon="11.44414"><ele>163.16666666666669</ele><time>2026-04-20T15:15:29.011Z</time></trkpt><trkpt lat="43.148175" lon="11.4442533"><ele>163.33333333333334</ele><time>2026-04-20T15:15:30.011Z</time></trkpt><trkpt lat="43.1482033" lon="11.444375"><ele>163.5</ele><time>2026-04-20T15:15:31.01Z</time></trkpt><trkpt lat="43.148205" lon="11.4445017"><ele>163.66666666666666</ele><time>2026-04-20T15:15:32.011Z</time></trkpt><trkpt lat="43.1481917" lon="11.444615"><ele>163.83333333333331</ele><time>2026-04-20T15:15:33.011Z</time></trkpt><trkpt lat="43.1481483" lon="11.4447083"><ele>164.0</ele><time>2026-04-20T15:15:34.011Z</time></trkpt><trkpt lat="43.1480933" lon="11.444785"><ele>165.39999999999998</ele><time>2026-04-20T15:15:35.011Z</time></trkpt><trkpt lat="43.1480217" lon="11.4448283"><ele>166.8</ele><time>2026-04-20T15:15:36.011Z</time></trkpt><trkpt lat="43.1479383" lon="11.444845"><ele>168.2</ele><time>2026-04-20T15:15:37.011Z</time></trkpt><trkpt lat="43.1478483" lon="11.4448217"><ele>169.60000000000002</ele><time>2026-04-20T15:15:38.011Z</time></trkpt><trkpt lat="43.14775" lon="11.444785"><ele>171.0</ele><time>2026-04-20T15:15:39.011Z</time></trkpt><trkpt lat="43.1476483" lon="11.444725"><ele>171.0</ele><time>2026-04-20T15:15:40.011Z</time></trkpt><trkpt lat="43.1475433" lon="11.4446683"><ele>171.0</ele><time>2026-04-20T15:15:41.011Z</time></trkpt><trkpt lat="43.1474267" lon="11.4446217"><ele>171.0</ele><time>2026-04-20T15:15:42.011Z</time></trkpt><trkpt lat="43.147315" lon="11.4445867"><ele>171.0</ele><time>2026-04-20T15:15:43.011Z</time></trkpt><trkpt lat="43.1472083" lon="11.4445583"><ele>169.20000000000002</ele><time>2026-04-20T15:15:44.01Z</time></trkpt><trkpt lat="43.147095" lon="11.4445383"><ele>167.4</ele><time>2026-04-20T15:15:45.011Z</time></trkpt><trkpt lat="43.1469867" lon="11.444525"><ele>165.6</ele><time>2026-04-20T15:15:46.01Z</time></trkpt><trkpt lat="43.1468767" lon="11.4445233"><ele>163.8</ele><time>2026-04-20T15:15:47.011Z</time></trkpt><trkpt lat="43.1467667" lon="11.4445267"><ele>162.0</ele><time>2026-04-20T15:15:48.011Z</time></trkpt><trkpt lat="43.1466517" lon="11.4445467"><ele>162.0</ele><time>2026-04-20T15:15:49.011Z</time></trkpt><trkpt lat="43.146545" lon="11.4445767"><ele>162.0</ele><time>2026-04-20T15:15:50.011Z</time></trkpt><trkpt lat="43.1464433" lon="11.4446167"><ele>162.0</ele><time>2026-04-20T15:15:51.011Z</time></trkpt><trkpt lat="43.1463533" lon="11.4446733"><ele>162.0</ele><time>2026-04-20T15:15:52.011Z</time></trkpt><trkpt lat="43.146275" lon="11.444755"><ele>162.0</ele><time>2026-04-20T15:15:53.011Z</time></trkpt><trkpt lat="43.146215" lon="11.444855"><ele>162.0</ele><time>2026-04-20T15:15:54.011Z</time></trkpt><trkpt lat="43.146165" lon="11.4449767"><ele>162.0</ele><time>2026-04-20T15:15:55.011Z</time></trkpt><trkpt lat="43.1461317" lon="11.4451083"><ele>162.0</ele><time>2026-04-20T15:15:56.01Z</time></trkpt><trkpt lat="43.1461133" lon="11.44524"><ele>162.0</ele><time>2026-04-20T15:15:57.011Z</time></trkpt><trkpt lat="43.1461067" lon="11.4453683"><ele>162.0</ele><time>2026-04-20T15:15:58.011Z</time></trkpt><trkpt lat="43.1461283" lon="11.4454917"><ele>161.8</ele><time>2026-04-20T15:15:59.011Z</time></trkpt><trkpt lat="43.14616" lon="11.4456283"><ele>161.6</ele><time>2026-04-20T15:16:00.011Z</time></trkpt><trkpt lat="43.1461917" lon="11.4457667"><ele>161.4</ele><time>2026-04-20T15:16:01.011Z</time></trkpt><trkpt lat="43.1462233" lon="11.4459117"><ele>161.20000000000002</ele><time>2026-04-20T15:16:02.011Z</time></trkpt><trkpt lat="43.146265" lon="11.44607"><ele>161.0</ele><time>2026-04-20T15:16:03.011Z</time></trkpt><trkpt lat="43.1463067" lon="11.4462333"><ele>162.0</ele><time>2026-04-20T15:16:04.011Z</time></trkpt><trkpt lat="43.1463533" lon="11.4463867"><ele>163.0</ele><time>2026-04-20T15:16:05.01Z</time></trkpt><trkpt lat="43.1463917" lon="11.4465267"><ele>164.0</ele><time>2026-04-20T15:16:06.01Z</time></trkpt><trkpt lat="43.1464167" lon="11.4466517"><ele>165.0</ele><time>2026-04-20T15:16:07.011Z</time></trkpt><trkpt lat="43.14642" lon="11.44676"><ele>166.0</ele><time>2026-04-20T15:16:08.011Z</time></trkpt><trkpt lat="43.1463983" lon="11.446855"><ele>166.0</ele><time>2026-04-20T15:16:09.011Z</time></trkpt><trkpt lat="43.146345" lon="11.4469233"><ele>166.0</ele><time>2026-04-20T15:16:10.01Z</time></trkpt><trkpt lat="43.146275" lon="11.4469517"><ele>166.0</ele><time>2026-04-20T15:16:11.011Z</time></trkpt><trkpt lat="43.1462" lon="11.446945"><ele>166.0</ele><time>2026-04-20T15:16:12.011Z</time></trkpt><trkpt lat="43.1461083" lon="11.4469233"><ele>166.0</ele><time>2026-04-20T15:16:13.011Z</time></trkpt><trkpt lat="43.14601" lon="11.446895"><ele>166.0</ele><time>2026-04-20T15:16:14.011Z</time></trkpt><trkpt lat="43.1459" lon="11.44688"><ele>166.0</ele><time>2026-04-20T15:16:15.011Z</time></trkpt><trkpt lat="43.1457933" lon="11.4468817"><ele>166.0</ele><time>2026-04-20T15:16:16.011Z</time></trkpt><trkpt lat="43.1456867" lon="11.4468917"><ele>166.0</ele><time>2026-04-20T15:16:17.011Z</time></trkpt><trkpt lat="43.14559" lon="11.44691"><ele>166.0</ele><time>2026-04-20T15:16:18.01Z</time></trkpt><trkpt lat="43.1454983" lon="11.4469467"><ele>166.0</ele><time>2026-04-20T15:16:19.011Z</time></trkpt><trkpt lat="43.145405" lon="11.4470067"><ele>166.5</ele><time>2026-04-20T15:16:20.011Z</time></trkpt><trkpt lat="43.145315" lon="11.4470883"><ele>167.0</ele><time>2026-04-20T15:16:21.011Z</time></trkpt><trkpt lat="43.1452117" lon="11.447185"><ele>167.5</ele><time>2026-04-20T15:16:22.011Z</time></trkpt><trkpt lat="43.145115" lon="11.4472883"><ele>168.0</ele><time>2026-04-20T15:16:23.011Z</time></trkpt><trkpt lat="43.1450267" lon="11.4473833"><ele>168.0</ele><time>2026-04-20T15:16:24.01Z</time></trkpt><trkpt lat="43.1449583" lon="11.4474833"><ele>168.0</ele><time>2026-04-20T15:16:25.011Z</time></trkpt><trkpt lat="43.14491" lon="11.4475933"><ele>168.0</ele><time>2026-04-20T15:16:26.01Z</time></trkpt><trkpt lat="43.144895" lon="11.4476983"><ele>168.0</ele><time>2026-04-20T15:16:27.01Z</time></trkpt><trkpt lat="43.1448833" lon="11.4477967"><ele>168.0</ele><time>2026-04-20T15:16:28.01Z</time></trkpt><trkpt lat="43.1448867" lon="11.447895"><ele>168.0</ele><time>2026-04-20T15:16:29.011Z</time></trkpt><trkpt lat="43.1448883" lon="11.4479983"><ele>167.83333333333334</ele><time>2026-04-20T15:16:30.011Z</time></trkpt><trkpt lat="43.1448883" lon="11.4481067"><ele>167.66666666666666</ele><time>2026-04-20T15:16:31.011Z</time></trkpt><trkpt lat="43.144885" lon="11.44822"><ele>167.5</ele><time>2026-04-20T15:16:32.011Z</time></trkpt><trkpt lat="43.14486" lon="11.4483367"><ele>167.33333333333331</ele><time>2026-04-20T15:16:33.011Z</time></trkpt><trkpt lat="43.1448233" lon="11.448435"><ele>167.16666666666666</ele><time>2026-04-20T15:16:34.011Z</time></trkpt><trkpt lat="43.1447717" lon="11.4485133"><ele>167.0</ele><time>2026-04-20T15:16:35.011Z</time></trkpt><trkpt lat="43.1446967" lon="11.448565"><ele>167.0</ele><time>2026-04-20T15:16:36.011Z</time></trkpt><trkpt lat="43.14461" lon="11.4486"><ele>167.0</ele><time>2026-04-20T15:16:37.011Z</time></trkpt><trkpt lat="43.1445133" lon="11.4486167"><ele>167.0</ele><time>2026-04-20T15:16:38.011Z</time></trkpt><trkpt lat="43.1444067" lon="11.4486067"><ele>167.0</ele><time>2026-04-20T15:16:39.01Z</time></trkpt><trkpt lat="43.14429" lon="11.4485817"><ele>167.0</ele><time>2026-04-20T15:16:40.011Z</time></trkpt><trkpt lat="43.1441683" lon="11.44854"><ele>167.0</ele><time>2026-04-20T15:16:41.011Z</time></trkpt><trkpt lat="43.14405" lon="11.4484817"><ele>167.0</ele><time>2026-04-20T15:16:42.011Z</time></trkpt><trkpt lat="43.1439367" lon="11.4484233"><ele>167.0</ele><time>2026-04-20T15:16:43.011Z</time></trkpt><trkpt lat="43.1438283" lon="11.4483483"><ele>167.0</ele><time>2026-04-20T15:16:44.011Z</time></trkpt><trkpt lat="43.1437133" lon="11.4482717"><ele>168.25</ele><time>2026-04-20T15:16:45.011Z</time></trkpt><trkpt lat="43.1435933" lon="11.4482"><ele>169.5</ele><time>2026-04-20T15:16:46.011Z</time></trkpt><trkpt lat="43.14348" lon="11.4481217"><ele>170.75</ele><time>2026-04-20T15:16:47.011Z</time></trkpt><trkpt lat="43.1433733" lon="11.4480367"><ele>172.0</ele><time>2026-04-20T15:16:48.011Z</time></trkpt><trkpt lat="43.1432783" lon="11.447965"><ele>169.75</ele><time>2026-04-20T15:16:49.01Z</time></trkpt><trkpt lat="43.1431783" lon="11.4478817"><ele>167.5</ele><time>2026-04-20T15:16:50.011Z</time></trkpt><trkpt lat="43.1430717" lon="11.4478133"><ele>165.25</ele><time>2026-04-20T15:16:51.011Z</time></trkpt><trkpt lat="43.1429683" lon="11.4477583"><ele>163.0</ele><time>2026-04-20T15:16:52.011Z</time></trkpt><trkpt lat="43.1428567" lon="11.4477267"><ele>163.0</ele><time>2026-04-20T15:16:53.01Z</time></trkpt><trkpt lat="43.142745" lon="11.44771"><ele>163.0</ele><time>2026-04-20T15:16:54.011Z</time></trkpt><trkpt lat="43.142635" lon="11.4477033"><ele>163.0</ele><time>2026-04-20T15:16:55.011Z</time></trkpt><trkpt lat="43.142515" lon="11.4477117"><ele>163.0</ele><time>2026-04-20T15:16:56.011Z</time></trkpt><trkpt lat="43.1423917" lon="11.44774"><ele>162.75</ele><time>2026-04-20T15:16:57.011Z</time></trkpt><trkpt lat="43.1422633" lon="11.44778"><ele>162.5</ele><time>2026-04-20T15:16:58.011Z</time></trkpt><trkpt lat="43.142125" lon="11.4478217"><ele>162.25</ele><time>2026-04-20T15:16:59.011Z</time></trkpt><trkpt lat="43.141975" lon="11.4478733"><ele>162.0</ele><time>2026-04-20T15:17:00.01Z</time></trkpt><trkpt lat="43.141805" lon="11.44794"><ele>165.0</ele><time>2026-04-20T15:17:01.011Z</time></trkpt><trkpt lat="43.1416383" lon="11.4479917"><ele>168.0</ele><time>2026-04-20T15:17:02.01Z</time></trkpt><trkpt lat="43.1414767" lon="11.44804"><ele>171.0</ele><time>2026-04-20T15:17:03.011Z</time></trkpt><trkpt lat="43.141325" lon="11.448085"><ele>171.0</ele><time>2026-04-20T15:17:04.011Z</time></trkpt><trkpt lat="43.1411633" lon="11.4481167"><ele>171.0</ele><time>2026-04-20T15:17:05.011Z</time></trkpt><trkpt lat="43.14101" lon="11.4481417"><ele>171.0</ele><time>2026-04-20T15:17:06.011Z</time></trkpt><trkpt lat="43.140875" lon="11.4481667"><ele>171.0</ele><time>2026-04-20T15:17:07.011Z</time></trkpt><trkpt lat="43.140755" lon="11.4481867"><ele>171.0</ele><time>2026-04-20T15:17:08.011Z</time></trkpt><trkpt lat="43.14064" lon="11.4482017"><ele>171.0</ele><time>2026-04-20T15:17:09.011Z</time></trkpt><trkpt lat="43.1405333" lon="11.4482"><ele>171.0</ele><time>2026-04-20T15:17:10.011Z</time></trkpt><trkpt lat="43.140435" lon="11.448175"><ele>171.0</ele><time>2026-04-20T15:17:11.01Z</time></trkpt><trkpt lat="43.1403333" lon="11.4481433"><ele>170.4</ele><time>2026-04-20T15:17:12.011Z</time></trkpt><trkpt lat="43.1402267" lon="11.4480933"><ele>169.8</ele><time>2026-04-20T15:17:13.011Z</time></trkpt><trkpt lat="43.1401233" lon="11.4480433"><ele>169.20000000000002</ele><time>2026-04-20T15:17:14.011Z</time></trkpt><trkpt lat="43.1400333" lon="11.448"><ele>168.60000000000002</ele><time>2026-04-20T15:17:15.011Z</time></trkpt><trkpt lat="43.1399467" lon="11.4479533"><ele>168.0</ele><time>2026-04-20T15:17:16.011Z</time></trkpt><trkpt lat="43.1398683" lon="11.4479017"><ele>166.33333333333334</ele><time>2026-04-20T15:17:17.01Z</time></trkpt><trkpt lat="43.1398017" lon="11.447855"><ele>164.66666666666666</ele><time>2026-04-20T15:17:18.011Z</time></trkpt><trkpt lat="43.139735" lon="11.44782"><ele>163.0</ele><time>2026-04-20T15:17:19.011Z</time></trkpt><trkpt lat="43.13967" lon="11.44781"><ele>161.33333333333331</ele><time>2026-04-20T15:17:20.011Z</time></trkpt><trkpt lat="43.1395933" lon="11.4478283"><ele>159.66666666666666</ele><time>2026-04-20T15:17:21.011Z</time></trkpt><trkpt lat="43.1395183" lon="11.4478667"><ele>158.0</ele><time>2026-04-20T15:17:22.011Z</time></trkpt><trkpt lat="43.1394467" lon="11.447925"><ele>158.4</ele><time>2026-04-20T15:17:23.011Z</time></trkpt><trkpt lat="43.1393933" lon="11.4480117"><ele>158.8</ele><time>2026-04-20T15:17:24.011Z</time></trkpt><trkpt lat="43.1393467" lon="11.4481333"><ele>159.2</ele><time>2026-04-20T15:17:25.01Z</time></trkpt><trkpt lat="43.1393133" lon="11.4482733"><ele>159.6</ele><time>2026-04-20T15:17:26.011Z</time></trkpt><trkpt lat="43.139295" lon="11.4484233"><ele>160.0</ele><time>2026-04-20T15:17:27.011Z</time></trkpt><trkpt lat="43.1392833" lon="11.448595"><ele>160.0</ele><time>2026-04-20T15:17:28.011Z</time></trkpt><trkpt lat="43.1392717" lon="11.448775"><ele>160.0</ele><time>2026-04-20T15:17:29.01Z</time></trkpt><trkpt lat="43.1392683" lon="11.44896"><ele>160.0</ele><time>2026-04-20T15:17:30.011Z</time></trkpt><trkpt lat="43.13926" lon="11.449155"><ele>160.0</ele><time>2026-04-20T15:17:31.01Z</time></trkpt><trkpt lat="43.1392533" lon="11.4493567"><ele>160.0</ele><time>2026-04-20T15:17:32.01Z</time></trkpt><trkpt lat="43.1392483" lon="11.4495517"><ele>160.0</ele><time>2026-04-20T15:17:33.011Z</time></trkpt><trkpt lat="43.139245" lon="11.4497417"><ele>160.0</ele><time>2026-04-20T15:17:34.011Z</time></trkpt><trkpt lat="43.1392517" lon="11.4499267"><ele>160.0</ele><time>2026-04-20T15:17:35.01Z</time></trkpt><trkpt lat="43.1392633" lon="11.45012"><ele>160.0</ele><time>2026-04-20T15:17:36.011Z</time></trkpt><trkpt lat="43.1392683" lon="11.4503117"><ele>160.0</ele><time>2026-04-20T15:17:37.011Z</time></trkpt><trkpt lat="43.13927" lon="11.4504867"><ele>160.0</ele><time>2026-04-20T15:17:38.011Z</time></trkpt><trkpt lat="43.139265" lon="11.45065"><ele>160.0</ele><time>2026-04-20T15:17:39.011Z</time></trkpt><trkpt lat="43.1392467" lon="11.4508"><ele>160.5</ele><time>2026-04-20T15:17:40.011Z</time></trkpt><trkpt lat="43.1392067" lon="11.4509417"><ele>161.0</ele><time>2026-04-20T15:17:41.011Z</time></trkpt><trkpt lat="43.1391517" lon="11.4510817"><ele>161.5</ele><time>2026-04-20T15:17:42.011Z</time></trkpt><trkpt lat="43.1390817" lon="11.451235"><ele>162.0</ele><time>2026-04-20T15:17:43.011Z</time></trkpt><trkpt lat="43.139" lon="11.4514067"><ele>159.66666666666666</ele><time>2026-04-20T15:17:44.011Z</time></trkpt><trkpt lat="43.1389083" lon="11.4515917"><ele>157.33333333333331</ele><time>2026-04-20T15:17:45.011Z</time></trkpt><trkpt lat="43.1388217" lon="11.4517617"><ele>155.0</ele><time>2026-04-20T15:17:46.011Z</time></trkpt><trkpt lat="43.1387367" lon="11.45193"><ele>155.0</ele><time>2026-04-20T15:17:47.011Z</time></trkpt><trkpt lat="43.1386467" lon="11.4520767"><ele>155.0</ele><time>2026-04-20T15:17:48.011Z</time></trkpt><trkpt lat="43.1385433" lon="11.4522067"><ele>155.0</ele><time>2026-04-20T15:17:49.011Z</time></trkpt><trkpt lat="43.13845" lon="11.45233"><ele>155.0</ele><time>2026-04-20T15:17:50.011Z</time></trkpt><trkpt lat="43.1383533" lon="11.4524517"><ele>154.5</ele><time>2026-04-20T15:17:51.01Z</time></trkpt><trkpt lat="43.13824" lon="11.4525683"><ele>154.0</ele><time>2026-04-20T15:17:52.011Z</time></trkpt><trkpt lat="43.1381117" lon="11.45267"><ele>153.5</ele><time>2026-04-20T15:17:53.011Z</time></trkpt><trkpt lat="43.13798" lon="11.4527733"><ele>153.0</ele><time>2026-04-20T15:17:54.011Z</time></trkpt><trkpt lat="43.1378317" lon="11.45287"><ele>153.0</ele><time>2026-04-20T15:17:55.01Z</time></trkpt><trkpt lat="43.1376867" lon="11.452955"><ele>153.0</ele><time>2026-04-20T15:17:56.011Z</time></trkpt><trkpt lat="43.1375483" lon="11.4530417"><ele>153.0</ele><time>2026-04-20T15:17:57.01Z</time></trkpt><trkpt lat="43.137415" lon="11.4531267"><ele>153.0</ele><time>2026-04-20T15:17:58.011Z</time></trkpt><trkpt lat="43.1372833" lon="11.453225"><ele>153.0</ele><time>2026-04-20T15:17:59.01Z</time></trkpt><trkpt lat="43.137155" lon="11.4533383"><ele>153.0</ele><time>2026-04-20T15:18:00.011Z</time></trkpt><trkpt lat="43.1370267" lon="11.4534733"><ele>153.0</ele><time>2026-04-20T15:18:01.011Z</time></trkpt><trkpt lat="43.1369067" lon="11.4535983"><ele>153.0</ele><time>2026-04-20T15:18:02.011Z</time></trkpt><trkpt lat="43.1367933" lon="11.4537133"><ele>153.0</ele><time>2026-04-20T15:18:03.011Z</time></trkpt><trkpt lat="43.1366883" lon="11.453835"><ele>153.0</ele><time>2026-04-20T15:18:04.011Z</time></trkpt><trkpt lat="43.1365817" lon="11.4539633"><ele>152.5</ele><time>2026-04-20T15:18:05.011Z</time></trkpt><trkpt lat="43.1364833" lon="11.4541017"><ele>152.0</ele><time>2026-04-20T15:18:06.011Z</time></trkpt><trkpt lat="43.13639" lon="11.454245"><ele>151.5</ele><time>2026-04-20T15:18:07.01Z</time></trkpt><trkpt lat="43.1363017" lon="11.4544033"><ele>151.0</ele><time>2026-04-20T15:18:08.011Z</time></trkpt><trkpt lat="43.136215" lon="11.4545767"><ele>152.66666666666669</ele><time>2026-04-20T15:18:09.011Z</time></trkpt><trkpt lat="43.136125" lon="11.4547717"><ele>154.33333333333334</ele><time>2026-04-20T15:18:10.011Z</time></trkpt><trkpt lat="43.1360333" lon="11.45498"><ele>156.0</ele><time>2026-04-20T15:18:11.011Z</time></trkpt><trkpt lat="43.1359483" lon="11.45517"><ele>156.0</ele><time>2026-04-20T15:18:12.011Z</time></trkpt><trkpt lat="43.135865" lon="11.45534"><ele>156.0</ele><time>2026-04-20T15:18:13.011Z</time></trkpt><trkpt lat="43.1357717" lon="11.4555033"><ele>156.0</ele><time>2026-04-20T15:18:14.011Z</time></trkpt><trkpt lat="43.1356767" lon="11.4556383"><ele>156.0</ele><time>2026-04-20T15:18:15.01Z</time></trkpt><trkpt lat="43.135565" lon="11.4557733"><ele>154.66666666666666</ele><time>2026-04-20T15:18:16.01Z</time></trkpt><trkpt lat="43.1354333" lon="11.4559067"><ele>153.33333333333331</ele><time>2026-04-20T15:18:17.01Z</time></trkpt><trkpt lat="43.1352867" lon="11.4560567"><ele>152.0</ele><time>2026-04-20T15:18:18.01Z</time></trkpt><trkpt lat="43.135135" lon="11.4562083"><ele>152.0</ele><time>2026-04-20T15:18:19.01Z</time></trkpt><trkpt lat="43.1349683" lon="11.4563683"><ele>152.0</ele><time>2026-04-20T15:18:20.011Z</time></trkpt><trkpt lat="43.13481" lon="11.4565317"><ele>152.0</ele><time>2026-04-20T15:18:21.011Z</time></trkpt><trkpt lat="43.1346533" lon="11.4566967"><ele>152.0</ele><time>2026-04-20T15:18:22.011Z</time></trkpt><trkpt lat="43.1344967" lon="11.456845"><ele>152.0</ele><time>2026-04-20T15:18:23.011Z</time></trkpt><trkpt lat="43.13433" lon="11.4569983"><ele>152.0</ele><time>2026-04-20T15:18:24.011Z</time></trkpt><trkpt lat="43.13417" lon="11.45716"><ele>151.33333333333331</ele><time>2026-04-20T15:18:25.011Z</time></trkpt><trkpt lat="43.1340083" lon="11.4573317"><ele>150.66666666666666</ele><time>2026-04-20T15:18:26.011Z</time></trkpt><trkpt lat="43.1338483" lon="11.45749"><ele>150.0</ele><time>2026-04-20T15:18:27.011Z</time></trkpt><trkpt lat="43.133705" lon="11.4576317"><ele>150.0</ele><time>2026-04-20T15:18:28.011Z</time></trkpt><trkpt lat="43.13356" lon="11.457765"><ele>150.0</ele><time>2026-04-20T15:18:29.011Z</time></trkpt><trkpt lat="43.1334233" lon="11.4578867"><ele>150.0</ele><time>2026-04-20T15:18:30.011Z</time></trkpt><trkpt lat="43.133295" lon="11.458005"><ele>149.25</ele><time>2026-04-20T15:18:31.011Z</time></trkpt><trkpt lat="43.13318" lon="11.4581267"><ele>148.5</ele><time>2026-04-20T15:18:32.011Z</time></trkpt><trkpt lat="43.133075" lon="11.45825"><ele>147.75</ele><time>2026-04-20T15:18:33.01Z</time></trkpt><trkpt lat="43.1329717" lon="11.4583633"><ele>147.0</ele><time>2026-04-20T15:18:34.01Z</time></trkpt><trkpt lat="43.1328667" lon="11.4584717"><ele>147.0</ele><time>2026-04-20T15:18:35.01Z</time></trkpt><trkpt lat="43.1327817" lon="11.4585767"><ele>147.0</ele><time>2026-04-20T15:18:36.011Z</time></trkpt><trkpt lat="43.1327067" lon="11.4586833"><ele>147.0</ele><time>2026-04-20T15:18:37.011Z</time></trkpt><trkpt lat="43.13264" lon="11.4588083"><ele>147.0</ele><time>2026-04-20T15:18:38.011Z</time></trkpt><trkpt lat="43.1325767" lon="11.4589683"><ele>146.5</ele><time>2026-04-20T15:18:39.011Z</time></trkpt><trkpt lat="43.132515" lon="11.4591367"><ele>146.0</ele><time>2026-04-20T15:18:40.011Z</time></trkpt><trkpt lat="43.13247" lon="11.4593117"><ele>145.5</ele><time>2026-04-20T15:18:41.011Z</time></trkpt><trkpt lat="43.132425" lon="11.4594783"><ele>145.0</ele><time>2026-04-20T15:18:42.01Z</time></trkpt><trkpt lat="43.132385" lon="11.45964"><ele>145.0</ele><time>2026-04-20T15:18:43.011Z</time></trkpt><trkpt lat="43.132345" lon="11.4598017"><ele>145.0</ele><time>2026-04-20T15:18:44.011Z</time></trkpt><trkpt lat="43.1323067" lon="11.4599517"><ele>145.0</ele><time>2026-04-20T15:18:45.011Z</time></trkpt><trkpt lat="43.1322667" lon="11.460095"><ele>145.0</ele><time>2026-04-20T15:18:46.01Z</time></trkpt><trkpt lat="43.13223" lon="11.46024"><ele>145.0</ele><time>2026-04-20T15:18:47.01Z</time></trkpt><trkpt lat="43.1321933" lon="11.4603883"><ele>145.0</ele><time>2026-04-20T15:18:48.011Z</time></trkpt><trkpt lat="43.132155" lon="11.460535"><ele>145.0</ele><time>2026-04-20T15:18:49.01Z</time></trkpt><trkpt lat="43.1321183" lon="11.4606717"><ele>145.0</ele><time>2026-04-20T15:18:50.011Z</time></trkpt><trkpt lat="43.1321" lon="11.4608017"><ele>145.0</ele><time>2026-04-20T15:18:51.01Z</time></trkpt><trkpt lat="43.1320883" lon="11.4609217"><ele>145.16666666666669</ele><time>2026-04-20T15:18:52.011Z</time></trkpt><trkpt lat="43.132085" lon="11.46105"><ele>145.33333333333334</ele><time>2026-04-20T15:18:53.011Z</time></trkpt><trkpt lat="43.1320933" lon="11.4611667"><ele>145.5</ele><time>2026-04-20T15:18:54.011Z</time></trkpt><trkpt lat="43.132115" lon="11.4612867"><ele>145.66666666666666</ele><time>2026-04-20T15:18:55.011Z</time></trkpt><trkpt lat="43.1321367" lon="11.461405"><ele>145.83333333333331</ele><time>2026-04-20T15:18:56.011Z</time></trkpt><trkpt lat="43.1321517" lon="11.461515"><ele>146.0</ele><time>2026-04-20T15:18:57.011Z</time></trkpt><trkpt lat="43.1321567" lon="11.4616267"><ele>146.0</ele><time>2026-04-20T15:18:58.011Z</time></trkpt><trkpt lat="43.13215" lon="11.461725"><ele>146.0</ele><time>2026-04-20T15:18:59.011Z</time></trkpt><trkpt lat="43.132145" lon="11.4618167"><ele>146.0</ele><time>2026-04-20T15:19:00.01Z</time></trkpt><trkpt lat="43.1321367" lon="11.4619417"><ele>146.0</ele><time>2026-04-20T15:19:02.011Z</time></trkpt><trkpt lat="43.1321333" lon="11.4620283"><ele>146.0</ele><time>2026-04-20T15:19:14.01Z</time></trkpt><trkpt lat="43.1321717" lon="11.4621817"><ele>146.0</ele><time>2026-04-20T15:19:16.01Z</time></trkpt><trkpt lat="43.1322117" lon="11.46229"><ele>145.75</ele><time>2026-04-20T15:19:17.01Z</time></trkpt><trkpt lat="43.1322617" lon="11.4624167"><ele>145.5</ele><time>2026-04-20T15:19:18.01Z</time></trkpt><trkpt lat="43.1323133" lon="11.462545"><ele>145.25</ele><time>2026-04-20T15:19:19.009Z</time></trkpt><trkpt lat="43.1323717" lon="11.4626767"><ele>145.0</ele><time>2026-04-20T15:19:20.009Z</time></trkpt><trkpt lat="43.132435" lon="11.46283"><ele>147.0</ele><time>2026-04-20T15:19:21.009Z</time></trkpt><trkpt lat="43.132505" lon="11.4629883"><ele>145.0</ele><time>2026-04-20T15:19:22.009Z</time></trkpt><trkpt lat="43.1325817" lon="11.46315"><ele>145.0</ele><time>2026-04-20T15:19:23.01Z</time></trkpt><trkpt lat="43.13266" lon="11.463315"><ele>145.0</ele><time>2026-04-20T15:19:24.01Z</time></trkpt></trkseg></trk></gpx>